<?xml version='1.0' encoding='UTF-8'?><gpx version="1.1" creator="JPX - https://github.com/jenetics/jpx" xmlns="http://www.topografix.com/GPX/1/1"><trk><trkseg><trkpt lat="45.5407333" lon="10.88323"><ele>183.0</ele><time>2026-05-02T07:49:53.973Z</time></trkpt><trkpt lat="45.5406735" lon="10.8831791"><ele>183.0</ele><time>2026-05-02T07:49:55.967Z</time></trkpt><trkpt lat="45.5406072" lon="10.8831322"><ele>183.0</ele><time>2026-05-02T07:49:57.963Z</time></trkpt><trkpt lat="45.5405374" lon="10.8831606"><ele>183.0</ele><time>2026-05-02T07:49:59.965Z</time></trkpt><trkpt lat="45.5404989" lon="10.8832389"><ele>183.0</ele><time>2026-05-02T07:50:00.957Z</time></trkpt><trkpt lat="45.5404555" lon="10.8833131"><ele>183.0</ele><time>2026-05-02T07:50:01.965Z</time></trkpt><trkpt lat="45.5403765" lon="10.8834495"><ele>181.8</ele><time>2026-05-02T07:50:03.978Z</time></trkpt><trkpt lat="45.5403124" lon="10.8835833"><ele>180.60000000000002</ele><time>2026-05-02T07:50:05.962Z</time></trkpt><trkpt lat="45.5402425" lon="10.8837076"><ele>179.39999999999998</ele><time>2026-05-02T07:50:07.959Z</time></trkpt><trkpt lat="45.5402191" lon="10.8837912"><ele>178.2</ele><time>2026-05-02T07:50:08.961Z</time></trkpt><trkpt lat="45.5402106" lon="10.883882"><ele>177.0</ele><time>2026-05-02T07:50:09.974Z</time></trkpt><trkpt lat="45.5402203" lon="10.8840408"><ele>177.0</ele><time>2026-05-02T07:50:11.968Z</time></trkpt><trkpt lat="45.540243" lon="10.8841979"><ele>177.0</ele><time>2026-05-02T07:50:13.961Z</time></trkpt><trkpt lat="45.5402293" lon="10.8842892"><ele>177.0</ele><time>2026-05-02T07:50:14.966Z</time></trkpt><trkpt lat="45.5401922" lon="10.88439"><ele>177.0</ele><time>2026-05-02T07:50:15.969Z</time></trkpt><trkpt lat="45.5401546" lon="10.8844777"><ele>177.0</ele><time>2026-05-02T07:50:16.958Z</time></trkpt><trkpt lat="45.540108" lon="10.8845767"><ele>177.0</ele><time>2026-05-02T07:50:18.967Z</time></trkpt><trkpt lat="45.5400694" lon="10.8846732"><ele>177.0</ele><time>2026-05-02T07:50:20.96Z</time></trkpt><trkpt lat="45.5400282" lon="10.8847664"><ele>177.0</ele><time>2026-05-02T07:50:22.97Z</time></trkpt><trkpt lat="45.539998" lon="10.8848633"><ele>177.0</ele><time>2026-05-02T07:50:24.968Z</time></trkpt><trkpt lat="45.5399366" lon="10.8850009"><ele>177.0</ele><time>2026-05-02T07:50:26.964Z</time></trkpt><trkpt lat="45.5399095" lon="10.8850954"><ele>177.0</ele><time>2026-05-02T07:50:27.962Z</time></trkpt><trkpt lat="45.5398858" lon="10.8851985"><ele>177.0</ele><time>2026-05-02T07:50:28.976Z</time></trkpt><trkpt lat="45.5398639" lon="10.8853026"><ele>177.2</ele><time>2026-05-02T07:50:29.96Z</time></trkpt><trkpt lat="45.5398413" lon="10.8854687"><ele>177.39999999999998</ele><time>2026-05-02T07:50:31.963Z</time></trkpt><trkpt lat="45.5398143" lon="10.8856011"><ele>177.60000000000002</ele><time>2026-05-02T07:50:33.966Z</time></trkpt><trkpt lat="45.5397898" lon="10.8857216"><ele>177.8</ele><time>2026-05-02T07:50:36.972Z</time></trkpt><trkpt lat="45.5397379" lon="10.8857986"><ele>178.0</ele><time>2026-05-02T07:50:39.946Z</time></trkpt><trkpt lat="45.5396348" lon="10.8858061"><ele>178.0</ele><time>2026-05-02T07:50:41.965Z</time></trkpt><trkpt lat="45.5395602" lon="10.8858048"><ele>178.0</ele><time>2026-05-02T07:50:42.946Z</time></trkpt><trkpt lat="45.5394668" lon="10.8858178"><ele>178.0</ele><time>2026-05-02T07:50:43.968Z</time></trkpt><trkpt lat="45.5393702" lon="10.8858224"><ele>178.0</ele><time>2026-05-02T07:50:44.942Z</time></trkpt><trkpt lat="45.5392693" lon="10.885828"><ele>178.0</ele><time>2026-05-02T07:50:45.948Z</time></trkpt><trkpt lat="45.5391634" lon="10.8858309"><ele>177.25</ele><time>2026-05-02T07:50:46.974Z</time></trkpt><trkpt lat="45.539048" lon="10.8858359"><ele>176.5</ele><time>2026-05-02T07:50:47.945Z</time></trkpt><trkpt lat="45.5389278" lon="10.8858345"><ele>175.75</ele><time>2026-05-02T07:50:48.945Z</time></trkpt><trkpt lat="45.5388144" lon="10.8858383"><ele>175.0</ele><time>2026-05-02T07:50:49.951Z</time></trkpt><trkpt lat="45.5386998" lon="10.8858421"><ele>174.5</ele><time>2026-05-02T07:50:50.95Z</time></trkpt><trkpt lat="45.5385847" lon="10.8858387"><ele>174.0</ele><time>2026-05-02T07:50:51.945Z</time></trkpt><trkpt lat="45.5384691" lon="10.8858455"><ele>173.5</ele><time>2026-05-02T07:50:52.949Z</time></trkpt><trkpt lat="45.5383501" lon="10.8858501"><ele>173.0</ele><time>2026-05-02T07:50:53.953Z</time></trkpt><trkpt lat="45.5382245" lon="10.8858505"><ele>173.0</ele><time>2026-05-02T07:50:54.951Z</time></trkpt><trkpt lat="45.538103" lon="10.8858605"><ele>173.0</ele><time>2026-05-02T07:50:55.95Z</time></trkpt><trkpt lat="45.5379801" lon="10.885868"><ele>173.0</ele><time>2026-05-02T07:50:56.954Z</time></trkpt><trkpt lat="45.5378603" lon="10.8858657"><ele>173.0</ele><time>2026-05-02T07:50:57.967Z</time></trkpt><trkpt lat="45.5377495" lon="10.885862"><ele>172.5</ele><time>2026-05-02T07:50:58.959Z</time></trkpt><trkpt lat="45.5376493" lon="10.8858605"><ele>172.0</ele><time>2026-05-02T07:50:59.951Z</time></trkpt><trkpt lat="45.5375524" lon="10.8858506"><ele>171.5</ele><time>2026-05-02T07:51:00.963Z</time></trkpt><trkpt lat="45.5374658" lon="10.8858357"><ele>171.0</ele><time>2026-05-02T07:51:01.964Z</time></trkpt><trkpt lat="45.5373862" lon="10.8857951"><ele>170.5</ele><time>2026-05-02T07:51:02.971Z</time></trkpt><trkpt lat="45.5373245" lon="10.8857501"><ele>170.0</ele><time>2026-05-02T07:51:03.962Z</time></trkpt><trkpt lat="45.5372561" lon="10.8856927"><ele>170.0</ele><time>2026-05-02T07:51:04.961Z</time></trkpt><trkpt lat="45.5371783" lon="10.8856622"><ele>170.0</ele><time>2026-05-02T07:51:05.965Z</time></trkpt><trkpt lat="45.5371046" lon="10.8856808"><ele>170.0</ele><time>2026-05-02T07:51:06.969Z</time></trkpt><trkpt lat="45.5370578" lon="10.8857485"><ele>170.0</ele><time>2026-05-02T07:51:07.969Z</time></trkpt><trkpt lat="45.537031" lon="10.8858791"><ele>170.0</ele><time>2026-05-02T07:51:08.965Z</time></trkpt><trkpt lat="45.5370489" lon="10.8860072"><ele>170.0</ele><time>2026-05-02T07:51:09.973Z</time></trkpt><trkpt lat="45.537072" lon="10.8861101"><ele>170.0</ele><time>2026-05-02T07:51:10.968Z</time></trkpt><trkpt lat="45.5370587" lon="10.8862354"><ele>170.0</ele><time>2026-05-02T07:51:11.957Z</time></trkpt><trkpt lat="45.5370261" lon="10.8863863"><ele>170.0</ele><time>2026-05-02T07:51:12.962Z</time></trkpt><trkpt lat="45.5370106" lon="10.886545"><ele>170.0</ele><time>2026-05-02T07:51:13.977Z</time></trkpt><trkpt lat="45.5370004" lon="10.8867046"><ele>170.0</ele><time>2026-05-02T07:51:15.018Z</time></trkpt><trkpt lat="45.5369839" lon="10.8868586"><ele>170.0</ele><time>2026-05-02T07:51:15.966Z</time></trkpt><trkpt lat="45.5369664" lon="10.8870253"><ele>170.0</ele><time>2026-05-02T07:51:16.959Z</time></trkpt><trkpt lat="45.5369542" lon="10.8872008"><ele>170.0</ele><time>2026-05-02T07:51:17.961Z</time></trkpt><trkpt lat="45.5369415" lon="10.8873767"><ele>170.0</ele><time>2026-05-02T07:51:18.974Z</time></trkpt><trkpt lat="45.5369298" lon="10.887542"><ele>170.25</ele><time>2026-05-02T07:51:19.972Z</time></trkpt><trkpt lat="45.5369283" lon="10.887709"><ele>170.5</ele><time>2026-05-02T07:51:20.97Z</time></trkpt><trkpt lat="45.5369345" lon="10.8878802"><ele>170.75</ele><time>2026-05-02T07:51:21.974Z</time></trkpt><trkpt lat="45.5369422" lon="10.888043"><ele>171.0</ele><time>2026-05-02T07:51:22.969Z</time></trkpt><trkpt lat="45.5369433" lon="10.8882078"><ele>171.0</ele><time>2026-05-02T07:51:23.966Z</time></trkpt><trkpt lat="45.5369326" lon="10.8883671"><ele>171.0</ele><time>2026-05-02T07:51:24.972Z</time></trkpt><trkpt lat="45.5369318" lon="10.8885262"><ele>171.0</ele><time>2026-05-02T07:51:25.95Z</time></trkpt><trkpt lat="45.5369205" lon="10.8886795"><ele>171.0</ele><time>2026-05-02T07:51:26.965Z</time></trkpt><trkpt lat="45.5369149" lon="10.8888394"><ele>171.0</ele><time>2026-05-02T07:51:27.972Z</time></trkpt><trkpt lat="45.5369085" lon="10.889015"><ele>171.0</ele><time>2026-05-02T07:51:28.975Z</time></trkpt><trkpt lat="45.5369" lon="10.8891777"><ele>171.0</ele><time>2026-05-02T07:51:29.972Z</time></trkpt><trkpt lat="45.5368877" lon="10.8893315"><ele>171.0</ele><time>2026-05-02T07:51:30.966Z</time></trkpt><trkpt lat="45.5368813" lon="10.8894759"><ele>171.0</ele><time>2026-05-02T07:51:31.962Z</time></trkpt><trkpt lat="45.5368743" lon="10.8896024"><ele>171.0</ele><time>2026-05-02T07:51:32.966Z</time></trkpt><trkpt lat="45.5368676" lon="10.8897269"><ele>171.0</ele><time>2026-05-02T07:51:33.972Z</time></trkpt><trkpt lat="45.5368633" lon="10.8898502"><ele>171.0</ele><time>2026-05-02T07:51:34.971Z</time></trkpt><trkpt lat="45.5368616" lon="10.88997"><ele>171.0</ele><time>2026-05-02T07:51:35.97Z</time></trkpt><trkpt lat="45.5368596" lon="10.8900962"><ele>171.0</ele><time>2026-05-02T07:51:36.971Z</time></trkpt><trkpt lat="45.536858" lon="10.8902251"><ele>171.0</ele><time>2026-05-02T07:51:37.963Z</time></trkpt><trkpt lat="45.5368516" lon="10.890344"><ele>171.0</ele><time>2026-05-02T07:51:38.966Z</time></trkpt><trkpt lat="45.536849" lon="10.8904607"><ele>171.33333333333334</ele><time>2026-05-02T07:51:39.962Z</time></trkpt><trkpt lat="45.5368532" lon="10.8905625"><ele>171.66666666666666</ele><time>2026-05-02T07:51:40.965Z</time></trkpt><trkpt lat="45.5368698" lon="10.8906699"><ele>172.0</ele><time>2026-05-02T07:51:41.96Z</time></trkpt><trkpt lat="45.5368976" lon="10.8907811"><ele>172.33333333333331</ele><time>2026-05-02T07:51:42.963Z</time></trkpt><trkpt lat="45.5369144" lon="10.890909"><ele>172.66666666666666</ele><time>2026-05-02T07:51:43.967Z</time></trkpt><trkpt lat="45.5369282" lon="10.8910474"><ele>173.0</ele><time>2026-05-02T07:51:44.972Z</time></trkpt><trkpt lat="45.5369474" lon="10.8911976"><ele>173.2</ele><time>2026-05-02T07:51:45.965Z</time></trkpt><trkpt lat="45.5369643" lon="10.8913415"><ele>173.4</ele><time>2026-05-02T07:51:46.967Z</time></trkpt><trkpt lat="45.5369855" lon="10.8914824"><ele>173.6</ele><time>2026-05-02T07:51:47.966Z</time></trkpt><trkpt lat="45.5369964" lon="10.891615"><ele>173.79999999999998</ele><time>2026-05-02T07:51:48.973Z</time></trkpt><trkpt lat="45.5369961" lon="10.8917584"><ele>174.0</ele><time>2026-05-02T07:51:49.964Z</time></trkpt><trkpt lat="45.5369942" lon="10.8918921"><ele>175.0</ele><time>2026-05-02T07:51:50.967Z</time></trkpt><trkpt lat="45.5369909" lon="10.8920133"><ele>176.0</ele><time>2026-05-02T07:51:51.966Z</time></trkpt><trkpt lat="45.5369843" lon="10.8921341"><ele>177.0</ele><time>2026-05-02T07:51:52.975Z</time></trkpt><trkpt lat="45.5369754" lon="10.8922615"><ele>178.0</ele><time>2026-05-02T07:51:53.986Z</time></trkpt><trkpt lat="45.5369672" lon="10.8923855"><ele>179.0</ele><time>2026-05-02T07:51:54.971Z</time></trkpt><trkpt lat="45.5369558" lon="10.8925112"><ele>180.0</ele><time>2026-05-02T07:51:55.958Z</time></trkpt><trkpt lat="45.536947" lon="10.8926339"><ele>181.33333333333334</ele><time>2026-05-02T07:51:56.961Z</time></trkpt><trkpt lat="45.5369362" lon="10.8927581"><ele>182.66666666666666</ele><time>2026-05-02T07:51:57.96Z</time></trkpt><trkpt lat="45.5369269" lon="10.8928858"><ele>184.0</ele><time>2026-05-02T07:51:58.963Z</time></trkpt><trkpt lat="45.5369195" lon="10.8930094"><ele>185.33333333333331</ele><time>2026-05-02T07:51:59.963Z</time></trkpt><trkpt lat="45.5369171" lon="10.8931349"><ele>186.66666666666666</ele><time>2026-05-02T07:52:00.954Z</time></trkpt><trkpt lat="45.5369212" lon="10.8932604"><ele>188.0</ele><time>2026-05-02T07:52:01.966Z</time></trkpt><trkpt lat="45.5369234" lon="10.8933815"><ele>189.66666666666666</ele><time>2026-05-02T07:52:02.958Z</time></trkpt><trkpt lat="45.5369255" lon="10.8934936"><ele>191.33333333333331</ele><time>2026-05-02T07:52:03.965Z</time></trkpt><trkpt lat="45.5369319" lon="10.8936054"><ele>193.0</ele><time>2026-05-02T07:52:04.963Z</time></trkpt><trkpt lat="45.5369515" lon="10.8937094"><ele>194.66666666666666</ele><time>2026-05-02T07:52:05.964Z</time></trkpt><trkpt lat="45.5369888" lon="10.8938169"><ele>196.33333333333334</ele><time>2026-05-02T07:52:06.956Z</time></trkpt><trkpt lat="45.5370405" lon="10.8939181"><ele>198.0</ele><time>2026-05-02T07:52:07.951Z</time></trkpt><trkpt lat="45.537093" lon="10.8940253"><ele>198.0</ele><time>2026-05-02T07:52:08.943Z</time></trkpt><trkpt lat="45.5371401" lon="10.8941311"><ele>198.0</ele><time>2026-05-02T07:52:09.965Z</time></trkpt><trkpt lat="45.5371776" lon="10.8942191"><ele>198.0</ele><time>2026-05-02T07:52:10.961Z</time></trkpt><trkpt lat="45.53722" lon="10.8943057"><ele>198.0</ele><time>2026-05-02T07:52:11.962Z</time></trkpt><trkpt lat="45.5372575" lon="10.8943854"><ele>198.0</ele><time>2026-05-02T07:52:12.966Z</time></trkpt><trkpt lat="45.5372934" lon="10.8944675"><ele>198.0</ele><time>2026-05-02T07:52:13.966Z</time></trkpt><trkpt lat="45.5373266" lon="10.8945539"><ele>198.0</ele><time>2026-05-02T07:52:14.969Z</time></trkpt><trkpt lat="45.5373723" lon="10.8946514"><ele>200.0</ele><time>2026-05-02T07:52:15.984Z</time></trkpt><trkpt lat="45.5374133" lon="10.89475"><ele>202.0</ele><time>2026-05-02T07:52:16.965Z</time></trkpt><trkpt lat="45.5374506" lon="10.8948276"><ele>204.0</ele><time>2026-05-02T07:52:17.963Z</time></trkpt><trkpt lat="45.5375104" lon="10.894898"><ele>206.0</ele><time>2026-05-02T07:52:19.967Z</time></trkpt><trkpt lat="45.5375935" lon="10.8948864"><ele>208.0</ele><time>2026-05-02T07:52:21.955Z</time></trkpt><trkpt lat="45.5376602" lon="10.8948267"><ele>210.0</ele><time>2026-05-02T07:52:23.964Z</time></trkpt><trkpt lat="45.5376985" lon="10.894684"><ele>210.0</ele><time>2026-05-02T07:52:25.967Z</time></trkpt><trkpt lat="45.5377048" lon="10.8945689"><ele>210.0</ele><time>2026-05-02T07:52:26.972Z</time></trkpt><trkpt lat="45.5377092" lon="10.8944457"><ele>210.0</ele><time>2026-05-02T07:52:27.969Z</time></trkpt><trkpt lat="45.5377117" lon="10.8943224"><ele>210.0</ele><time>2026-05-02T07:52:28.963Z</time></trkpt><trkpt lat="45.5377234" lon="10.8942149"><ele>210.0</ele><time>2026-05-02T07:52:29.97Z</time></trkpt><trkpt lat="45.5377265" lon="10.8941153"><ele>210.0</ele><time>2026-05-02T07:52:30.972Z</time></trkpt><trkpt lat="45.5377837" lon="10.8940172"><ele>211.4</ele><time>2026-05-02T07:52:32.968Z</time></trkpt><trkpt lat="45.5378847" lon="10.8939725"><ele>212.8</ele><time>2026-05-02T07:52:34.965Z</time></trkpt><trkpt lat="45.5380017" lon="10.8939903"><ele>214.2</ele><time>2026-05-02T07:52:36.952Z</time></trkpt><trkpt lat="45.5381209" lon="10.8939263"><ele>215.6</ele><time>2026-05-02T07:52:38.962Z</time></trkpt><trkpt lat="45.5381784" lon="10.8938843"><ele>217.0</ele><time>2026-05-02T07:52:39.966Z</time></trkpt><trkpt lat="45.5382937" lon="10.8938008"><ele>216.99999999999997</ele><time>2026-05-02T07:52:41.967Z</time></trkpt><trkpt lat="45.5383706" lon="10.8938"><ele>217.0</ele><time>2026-05-02T07:52:42.96Z</time></trkpt><trkpt lat="45.5384491" lon="10.8937978"><ele>217.0</ele><time>2026-05-02T07:52:43.969Z</time></trkpt><trkpt lat="45.5385507" lon="10.8938154"><ele>217.0</ele><time>2026-05-02T07:52:44.971Z</time></trkpt><trkpt lat="45.5386144" lon="10.893828"><ele>216.99999999999997</ele><time>2026-05-02T07:52:46.025Z</time></trkpt><trkpt lat="45.5386524" lon="10.8939287"><ele>217.0</ele><time>2026-05-02T07:52:47.971Z</time></trkpt><trkpt lat="45.5386333" lon="10.8941022"><ele>217.0</ele><time>2026-05-02T07:52:49.974Z</time></trkpt><trkpt lat="45.5386099" lon="10.89423"><ele>217.0</ele><time>2026-05-02T07:52:50.975Z</time></trkpt><trkpt lat="45.5386007" lon="10.8943571"><ele>217.0</ele><time>2026-05-02T07:52:51.967Z</time></trkpt><trkpt lat="45.5386002" lon="10.8944934"><ele>217.0</ele><time>2026-05-02T07:52:52.961Z</time></trkpt><trkpt lat="45.5386029" lon="10.894635"><ele>217.0</ele><time>2026-05-02T07:52:54.08Z</time></trkpt><trkpt lat="45.5385977" lon="10.8947594"><ele>217.83333333333331</ele><time>2026-05-02T07:52:55.03Z</time></trkpt><trkpt lat="45.5385897" lon="10.894873"><ele>218.66666666666666</ele><time>2026-05-02T07:52:55.949Z</time></trkpt><trkpt lat="45.5385785" lon="10.894963"><ele>219.5</ele><time>2026-05-02T07:52:56.959Z</time></trkpt><trkpt lat="45.5386337" lon="10.8950921"><ele>220.33333333333331</ele><time>2026-05-02T07:52:58.983Z</time></trkpt><trkpt lat="45.5386984" lon="10.8951119"><ele>221.16666666666666</ele><time>2026-05-02T07:52:59.958Z</time></trkpt><trkpt lat="45.5387834" lon="10.8951029"><ele>222.0</ele><time>2026-05-02T07:53:00.963Z</time></trkpt><trkpt lat="45.5388668" lon="10.8951011"><ele>226.6</ele><time>2026-05-02T07:53:01.96Z</time></trkpt><trkpt lat="45.5389662" lon="10.8951136"><ele>231.2</ele><time>2026-05-02T07:53:02.974Z</time></trkpt><trkpt lat="45.5390677" lon="10.895136"><ele>235.8</ele><time>2026-05-02T07:53:03.959Z</time></trkpt><trkpt lat="45.5391541" lon="10.8951701"><ele>240.4</ele><time>2026-05-02T07:53:05.031Z</time></trkpt><trkpt lat="45.5392476" lon="10.8952307"><ele>245.0</ele><time>2026-05-02T07:53:06.954Z</time></trkpt><trkpt lat="45.5392648" lon="10.8953189"><ele>245.00000000000003</ele><time>2026-05-02T07:53:07.96Z</time></trkpt><trkpt lat="45.5393303" lon="10.8954607"><ele>245.0</ele><time>2026-05-02T07:53:09.963Z</time></trkpt><trkpt lat="45.5394032" lon="10.8955161"><ele>245.0</ele><time>2026-05-02T07:53:11.045Z</time></trkpt><trkpt lat="45.5394573" lon="10.8955989"><ele>245.0</ele><time>2026-05-02T07:53:11.967Z</time></trkpt><trkpt lat="45.5394934" lon="10.8956922"><ele>245.00000000000003</ele><time>2026-05-02T07:53:12.972Z</time></trkpt><trkpt lat="45.539521" lon="10.8957959"><ele>245.0</ele><time>2026-05-02T07:53:13.975Z</time></trkpt><trkpt lat="45.5395273" lon="10.8958904"><ele>246.83333333333334</ele><time>2026-05-02T07:53:15.037Z</time></trkpt><trkpt lat="45.5395124" lon="10.8960012"><ele>248.66666666666669</ele><time>2026-05-02T07:53:16.033Z</time></trkpt><trkpt lat="45.5394683" lon="10.8961191"><ele>250.5</ele><time>2026-05-02T07:53:16.981Z</time></trkpt><trkpt lat="45.5394279" lon="10.8962502"><ele>252.33333333333331</ele><time>2026-05-02T07:53:17.962Z</time></trkpt><trkpt lat="45.5394041" lon="10.8963761"><ele>254.16666666666666</ele><time>2026-05-02T07:53:18.98Z</time></trkpt><trkpt lat="45.5393975" lon="10.8964906"><ele>256.0</ele><time>2026-05-02T07:53:19.98Z</time></trkpt><trkpt lat="45.5393913" lon="10.8965978"><ele>255.99999999999997</ele><time>2026-05-02T07:53:21.055Z</time></trkpt><trkpt lat="45.5393884" lon="10.896701"><ele>256.0</ele><time>2026-05-02T07:53:21.976Z</time></trkpt><trkpt lat="45.5393896" lon="10.896795"><ele>256.0</ele><time>2026-05-02T07:53:22.975Z</time></trkpt><trkpt lat="45.5393956" lon="10.8968863"><ele>256.0</ele><time>2026-05-02T07:53:23.983Z</time></trkpt><trkpt lat="45.5394016" lon="10.8970419"><ele>255.99999999999997</ele><time>2026-05-02T07:53:25.975Z</time></trkpt><trkpt lat="45.5393985" lon="10.897143"><ele>256.0</ele><time>2026-05-02T07:53:27.966Z</time></trkpt><trkpt lat="45.5393929" lon="10.8972945"><ele>257.57142857142856</ele><time>2026-05-02T07:53:29.968Z</time></trkpt><trkpt lat="45.5393526" lon="10.8973638"><ele>259.1428571428571</ele><time>2026-05-02T07:53:31.032Z</time></trkpt><trkpt lat="45.5392956" lon="10.8974204"><ele>260.7142857142857</ele><time>2026-05-02T07:53:31.977Z</time></trkpt><trkpt lat="45.539235" lon="10.8974759"><ele>262.2857142857143</ele><time>2026-05-02T07:53:32.974Z</time></trkpt><trkpt lat="45.5391836" lon="10.897531"><ele>263.8571428571429</ele><time>2026-05-02T07:53:33.983Z</time></trkpt><trkpt lat="45.5391196" lon="10.8975979"><ele>265.42857142857144</ele><time>2026-05-02T07:53:35.964Z</time></trkpt><trkpt lat="45.5390558" lon="10.8976639"><ele>267.0</ele><time>2026-05-02T07:53:37.95Z</time></trkpt><trkpt lat="45.5389993" lon="10.8977441"><ele>269.2</ele><time>2026-05-02T07:53:39.957Z</time></trkpt><trkpt lat="45.5389755" lon="10.8978377"><ele>271.4</ele><time>2026-05-02T07:53:41.971Z</time></trkpt><trkpt lat="45.5389612" lon="10.8979685"><ele>273.6</ele><time>2026-05-02T07:53:43.961Z</time></trkpt><trkpt lat="45.5389441" lon="10.8980951"><ele>275.8</ele><time>2026-05-02T07:53:45.959Z</time></trkpt><trkpt lat="45.5389063" lon="10.8982105"><ele>278.0</ele><time>2026-05-02T07:53:47.97Z</time></trkpt><trkpt lat="45.5387758" lon="10.8982495"><ele>277.33333333333337</ele><time>2026-05-02T07:53:49.965Z</time></trkpt><trkpt lat="45.5386976" lon="10.8982537"><ele>276.6666666666667</ele><time>2026-05-02T07:53:50.957Z</time></trkpt><trkpt lat="45.5386235" lon="10.8982464"><ele>276.0</ele><time>2026-05-02T07:53:51.969Z</time></trkpt><trkpt lat="45.5385547" lon="10.898229"><ele>275.3333333333333</ele><time>2026-05-02T07:53:52.971Z</time></trkpt><trkpt lat="45.5384319" lon="10.8982158"><ele>274.66666666666663</ele><time>2026-05-02T07:53:54.969Z</time></trkpt><trkpt lat="45.5383666" lon="10.8982061"><ele>274.0</ele><time>2026-05-02T07:53:55.97Z</time></trkpt><trkpt lat="45.5383022" lon="10.8982"><ele>274.0</ele><time>2026-05-02T07:53:56.975Z</time></trkpt><trkpt lat="45.538184" lon="10.8981844"><ele>274.0</ele><time>2026-05-02T07:53:58.974Z</time></trkpt><trkpt lat="45.5380798" lon="10.8981627"><ele>274.0</ele><time>2026-05-02T07:54:00.976Z</time></trkpt><trkpt lat="45.5379839" lon="10.8981367"><ele>274.0</ele><time>2026-05-02T07:54:02.972Z</time></trkpt><trkpt lat="45.537878" lon="10.8981182"><ele>274.0</ele><time>2026-05-02T07:54:04.968Z</time></trkpt><trkpt lat="45.5378138" lon="10.8981149"><ele>274.3333333333333</ele><time>2026-05-02T07:54:05.962Z</time></trkpt><trkpt lat="45.5376931" lon="10.898128"><ele>274.66666666666663</ele><time>2026-05-02T07:54:07.975Z</time></trkpt><trkpt lat="45.5376086" lon="10.898135"><ele>275.0</ele><time>2026-05-02T07:54:09.963Z</time></trkpt><trkpt lat="45.5375408" lon="10.8981843"><ele>275.3333333333333</ele><time>2026-05-02T07:54:12.964Z</time></trkpt><trkpt lat="45.5374619" lon="10.8982414"><ele>275.6666666666667</ele><time>2026-05-02T07:54:15.031Z</time></trkpt><trkpt lat="45.5374006" lon="10.8982745"><ele>276.0</ele><time>2026-05-02T07:54:16.029Z</time></trkpt><trkpt lat="45.5373361" lon="10.898287"><ele>276.0</ele><time>2026-05-02T07:54:16.966Z</time></trkpt><trkpt lat="45.5372489" lon="10.8982653"><ele>276.0</ele><time>2026-05-02T07:54:17.97Z</time></trkpt><trkpt lat="45.5371449" lon="10.8982186"><ele>276.0</ele><time>2026-05-02T07:54:18.965Z</time></trkpt><trkpt lat="45.5370342" lon="10.8981908"><ele>276.0</ele><time>2026-05-02T07:54:19.969Z</time></trkpt><trkpt lat="45.5369161" lon="10.8981591"><ele>276.0</ele><time>2026-05-02T07:54:20.977Z</time></trkpt><trkpt lat="45.5368051" lon="10.8981332"><ele>275.6</ele><time>2026-05-02T07:54:22.004Z</time></trkpt><trkpt lat="45.5366983" lon="10.8981059"><ele>275.20000000000005</ele><time>2026-05-02T07:54:22.973Z</time></trkpt><trkpt lat="45.5365929" lon="10.898075"><ele>274.79999999999995</ele><time>2026-05-02T07:54:23.974Z</time></trkpt><trkpt lat="45.53649" lon="10.8980463"><ele>274.4</ele><time>2026-05-02T07:54:25.045Z</time></trkpt><trkpt lat="45.5364028" lon="10.8980163"><ele>274.0</ele><time>2026-05-02T07:54:25.969Z</time></trkpt><trkpt lat="45.5363329" lon="10.8980072"><ele>274.0</ele><time>2026-05-02T07:54:26.961Z</time></trkpt><trkpt lat="45.5362657" lon="10.8980522"><ele>274.0</ele><time>2026-05-02T07:54:27.966Z</time></trkpt><trkpt lat="45.5361918" lon="10.8981492"><ele>274.0</ele><time>2026-05-02T07:54:28.971Z</time></trkpt><trkpt lat="45.5360936" lon="10.8982514"><ele>274.0</ele><time>2026-05-02T07:54:29.969Z</time></trkpt><trkpt lat="45.5359901" lon="10.8983462"><ele>274.0</ele><time>2026-05-02T07:54:31.02Z</time></trkpt><trkpt lat="45.5358874" lon="10.8984213"><ele>277.8</ele><time>2026-05-02T07:54:31.963Z</time></trkpt><trkpt lat="45.5357848" lon="10.8984609"><ele>281.59999999999997</ele><time>2026-05-02T07:54:32.958Z</time></trkpt><trkpt lat="45.5356873" lon="10.8984725"><ele>285.4</ele><time>2026-05-02T07:54:33.957Z</time></trkpt><trkpt lat="45.5356002" lon="10.8984808"><ele>289.2</ele><time>2026-05-02T07:54:34.977Z</time></trkpt><trkpt lat="45.5355135" lon="10.8985021"><ele>293.0</ele><time>2026-05-02T07:54:36.029Z</time></trkpt><trkpt lat="45.5354242" lon="10.8985292"><ele>292.83333333333337</ele><time>2026-05-02T07:54:36.967Z</time></trkpt><trkpt lat="45.5353373" lon="10.8985729"><ele>292.6666666666667</ele><time>2026-05-02T07:54:37.965Z</time></trkpt><trkpt lat="45.5352561" lon="10.8986228"><ele>292.5</ele><time>2026-05-02T07:54:38.986Z</time></trkpt><trkpt lat="45.5351756" lon="10.8986669"><ele>292.3333333333333</ele><time>2026-05-02T07:54:39.971Z</time></trkpt><trkpt lat="45.5350967" lon="10.8987117"><ele>292.16666666666663</ele><time>2026-05-02T07:54:40.965Z</time></trkpt><trkpt lat="45.5350319" lon="10.8987656"><ele>292.0</ele><time>2026-05-02T07:54:41.967Z</time></trkpt><trkpt lat="45.5349579" lon="10.8988868"><ele>292.0</ele><time>2026-05-02T07:54:43.979Z</time></trkpt><trkpt lat="45.534929" lon="10.8989943"><ele>292.0</ele><time>2026-05-02T07:54:46.037Z</time></trkpt><trkpt lat="45.5349215" lon="10.8990904"><ele>292.0</ele><time>2026-05-02T07:54:58.96Z</time></trkpt><trkpt lat="45.5350089" lon="10.8991618"><ele>292.0</ele><time>2026-05-02T07:55:00.965Z</time></trkpt><trkpt lat="45.5350926" lon="10.8992145"><ele>292.0</ele><time>2026-05-02T07:55:02.969Z</time></trkpt><trkpt lat="45.5352215" lon="10.8992878"><ele>292.0</ele><time>2026-05-02T07:55:04.97Z</time></trkpt><trkpt lat="45.5352993" lon="10.8993317"><ele>292.0</ele><time>2026-05-02T07:55:05.962Z</time></trkpt><trkpt lat="45.5353751" lon="10.8993699"><ele>292.0</ele><time>2026-05-02T07:55:06.98Z</time></trkpt><trkpt lat="45.5354558" lon="10.8994077"><ele>292.0</ele><time>2026-05-02T07:55:07.974Z</time></trkpt><trkpt lat="45.5355435" lon="10.8994319"><ele>292.0</ele><time>2026-05-02T07:55:08.975Z</time></trkpt><trkpt lat="45.5356308" lon="10.8994451"><ele>292.0</ele><time>2026-05-02T07:55:09.97Z</time></trkpt><trkpt lat="45.5357236" lon="10.8994588"><ele>292.0</ele><time>2026-05-02T07:55:10.974Z</time></trkpt><trkpt lat="45.5358286" lon="10.8994715"><ele>292.0</ele><time>2026-05-02T07:55:11.965Z</time></trkpt><trkpt lat="45.5359375" lon="10.8994924"><ele>292.0</ele><time>2026-05-02T07:55:12.964Z</time></trkpt><trkpt lat="45.53604" lon="10.899518"><ele>292.0</ele><time>2026-05-02T07:55:13.968Z</time></trkpt><trkpt lat="45.536129" lon="10.899541"><ele>292.0</ele><time>2026-05-02T07:55:14.949Z</time></trkpt><trkpt lat="45.5362173" lon="10.8995623"><ele>293.6</ele><time>2026-05-02T07:55:15.964Z</time></trkpt><trkpt lat="45.5363" lon="10.8995794"><ele>295.2</ele><time>2026-05-02T07:55:16.969Z</time></trkpt><trkpt lat="45.5363844" lon="10.8996181"><ele>296.8</ele><time>2026-05-02T07:55:17.954Z</time></trkpt><trkpt lat="45.5364799" lon="10.8996679"><ele>298.4</ele><time>2026-05-02T07:55:18.969Z</time></trkpt><trkpt lat="45.5365742" lon="10.8997068"><ele>300.0</ele><time>2026-05-02T07:55:19.97Z</time></trkpt><trkpt lat="45.5366809" lon="10.8997389"><ele>300.0</ele><time>2026-05-02T07:55:20.972Z</time></trkpt><trkpt lat="45.5367823" lon="10.8997597"><ele>300.0</ele><time>2026-05-02T07:55:21.965Z</time></trkpt><trkpt lat="45.5368887" lon="10.8997877"><ele>300.0</ele><time>2026-05-02T07:55:22.967Z</time></trkpt><trkpt lat="45.5369993" lon="10.8998153"><ele>300.0</ele><time>2026-05-02T07:55:23.971Z</time></trkpt><trkpt lat="45.5371032" lon="10.8998418"><ele>300.0</ele><time>2026-05-02T07:55:25.029Z</time></trkpt><trkpt lat="45.5372031" lon="10.8998789"><ele>301.4</ele><time>2026-05-02T07:55:26.04Z</time></trkpt><trkpt lat="45.5372939" lon="10.8999221"><ele>302.8</ele><time>2026-05-02T07:55:26.971Z</time></trkpt><trkpt lat="45.5373858" lon="10.8999599"><ele>304.2</ele><time>2026-05-02T07:55:27.969Z</time></trkpt><trkpt lat="45.5374755" lon="10.8999978"><ele>305.6</ele><time>2026-05-02T07:55:28.97Z</time></trkpt><trkpt lat="45.5375616" lon="10.9000337"><ele>307.0</ele><time>2026-05-02T07:55:30.03Z</time></trkpt><trkpt lat="45.5376491" lon="10.9000685"><ele>306.4</ele><time>2026-05-02T07:55:31.028Z</time></trkpt><trkpt lat="45.5377331" lon="10.9001032"><ele>305.79999999999995</ele><time>2026-05-02T07:55:31.972Z</time></trkpt><trkpt lat="45.5378198" lon="10.9001417"><ele>305.2</ele><time>2026-05-02T07:55:33.034Z</time></trkpt><trkpt lat="45.537907" lon="10.9001835"><ele>304.59999999999997</ele><time>2026-05-02T07:55:33.972Z</time></trkpt><trkpt lat="45.5380051" lon="10.9002156"><ele>304.0</ele><time>2026-05-02T07:55:34.973Z</time></trkpt><trkpt lat="45.5381112" lon="10.9002493"><ele>306.0</ele><time>2026-05-02T07:55:36.029Z</time></trkpt><trkpt lat="45.5382138" lon="10.9002887"><ele>308.0</ele><time>2026-05-02T07:55:36.961Z</time></trkpt><trkpt lat="45.5383246" lon="10.9003287"><ele>310.0</ele><time>2026-05-02T07:55:37.965Z</time></trkpt><trkpt lat="45.5384307" lon="10.9003693"><ele>312.0</ele><time>2026-05-02T07:55:38.967Z</time></trkpt><trkpt lat="45.5385292" lon="10.9004241"><ele>314.0</ele><time>2026-05-02T07:55:40.021Z</time></trkpt><trkpt lat="45.5386227" lon="10.9004766"><ele>314.0</ele><time>2026-05-02T07:55:40.971Z</time></trkpt><trkpt lat="45.5387138" lon="10.9005286"><ele>314.0</ele><time>2026-05-02T07:55:41.975Z</time></trkpt><trkpt lat="45.538789" lon="10.9005812"><ele>314.0</ele><time>2026-05-02T07:55:42.973Z</time></trkpt><trkpt lat="45.5388568" lon="10.9006139"><ele>314.0</ele><time>2026-05-02T07:55:43.963Z</time></trkpt><trkpt lat="45.5389267" lon="10.9006469"><ele>314.0</ele><time>2026-05-02T07:55:44.972Z</time></trkpt><trkpt lat="45.5389996" lon="10.9006829"><ele>314.0</ele><time>2026-05-02T07:55:45.975Z</time></trkpt><trkpt lat="45.5390658" lon="10.9007129"><ele>315.4285714285714</ele><time>2026-05-02T07:55:46.978Z</time></trkpt><trkpt lat="45.5391313" lon="10.900755"><ele>316.85714285714283</ele><time>2026-05-02T07:55:47.976Z</time></trkpt><trkpt lat="45.5392026" lon="10.900801"><ele>318.2857142857143</ele><time>2026-05-02T07:55:48.976Z</time></trkpt><trkpt lat="45.53927" lon="10.9008434"><ele>319.71428571428567</ele><time>2026-05-02T07:55:49.976Z</time></trkpt><trkpt lat="45.5393421" lon="10.9008959"><ele>321.1428571428571</ele><time>2026-05-02T07:55:50.97Z</time></trkpt><trkpt lat="45.5394054" lon="10.9009573"><ele>322.57142857142856</ele><time>2026-05-02T07:55:51.974Z</time></trkpt><trkpt lat="45.5394593" lon="10.9010162"><ele>324.0</ele><time>2026-05-02T07:55:52.972Z</time></trkpt><trkpt lat="45.5395191" lon="10.9010624"><ele>326.2857142857143</ele><time>2026-05-02T07:55:53.961Z</time></trkpt><trkpt lat="45.5395846" lon="10.9011024"><ele>328.57142857142856</ele><time>2026-05-02T07:55:54.965Z</time></trkpt><trkpt lat="45.539645" lon="10.9011417"><ele>330.8571428571429</ele><time>2026-05-02T07:55:55.993Z</time></trkpt><trkpt lat="45.5397027" lon="10.9011849"><ele>333.1428571428571</ele><time>2026-05-02T07:55:56.962Z</time></trkpt><trkpt lat="45.539767" lon="10.9012739"><ele>335.4285714285714</ele><time>2026-05-02T07:55:58.968Z</time></trkpt><trkpt lat="45.5397853" lon="10.9013784"><ele>337.7142857142857</ele><time>2026-05-02T07:56:05.952Z</time></trkpt><trkpt lat="45.5398355" lon="10.9014462"><ele>340.0</ele><time>2026-05-02T07:56:08.961Z</time></trkpt><trkpt lat="45.5399109" lon="10.9015417"><ele>340.0</ele><time>2026-05-02T07:56:11.965Z</time></trkpt><trkpt lat="45.53996" lon="10.9016095"><ele>340.0</ele><time>2026-05-02T07:56:14.967Z</time></trkpt><trkpt lat="45.5400013" lon="10.9016884"><ele>340.0</ele><time>2026-05-02T07:56:23.961Z</time></trkpt><trkpt lat="45.5400717" lon="10.9017867"><ele>340.0</ele><time>2026-05-02T07:56:33.96Z</time></trkpt><trkpt lat="45.5401386" lon="10.9018306"><ele>340.0</ele><time>2026-05-02T07:56:34.967Z</time></trkpt><trkpt lat="45.5402059" lon="10.9018996"><ele>340.0</ele><time>2026-05-02T07:56:35.967Z</time></trkpt><trkpt lat="45.5402834" lon="10.90197"><ele>340.0</ele><time>2026-05-02T07:56:36.971Z</time></trkpt><trkpt lat="45.5403726" lon="10.9020655"><ele>340.0</ele><time>2026-05-02T07:56:37.968Z</time></trkpt><trkpt lat="45.5404666" lon="10.9021554"><ele>340.0</ele><time>2026-05-02T07:56:38.949Z</time></trkpt><trkpt lat="45.5405557" lon="10.9022335"><ele>340.0</ele><time>2026-05-02T07:56:39.949Z</time></trkpt><trkpt lat="45.5406254" lon="10.9023001"><ele>340.0</ele><time>2026-05-02T07:56:40.951Z</time></trkpt><trkpt lat="45.540725" lon="10.9023777"><ele>341.8</ele><time>2026-05-02T07:56:42.961Z</time></trkpt><trkpt lat="45.5408258" lon="10.9024497"><ele>343.6</ele><time>2026-05-02T07:56:45.059Z</time></trkpt><trkpt lat="45.540927" lon="10.902518"><ele>345.4</ele><time>2026-05-02T07:56:46.966Z</time></trkpt><trkpt lat="45.5410183" lon="10.9025788"><ele>347.2</ele><time>2026-05-02T07:56:48.963Z</time></trkpt><trkpt lat="45.5411154" lon="10.9026366"><ele>349.0</ele><time>2026-05-02T07:56:50.968Z</time></trkpt><trkpt lat="45.5412167" lon="10.9027286"><ele>352.0</ele><time>2026-05-02T07:56:52.971Z</time></trkpt><trkpt lat="45.5412732" lon="10.902778"><ele>355.0</ele><time>2026-05-02T07:56:53.962Z</time></trkpt><trkpt lat="45.5413355" lon="10.9028239"><ele>358.0</ele><time>2026-05-02T07:56:54.971Z</time></trkpt><trkpt lat="45.5414132" lon="10.9028821"><ele>361.0</ele><time>2026-05-02T07:56:55.973Z</time></trkpt><trkpt lat="45.5414904" lon="10.9029488"><ele>364.0</ele><time>2026-05-02T07:56:56.974Z</time></trkpt><trkpt lat="45.5415792" lon="10.9029918"><ele>367.0</ele><time>2026-05-02T07:56:57.969Z</time></trkpt><trkpt lat="45.5416595" lon="10.903033"><ele>367.0</ele><time>2026-05-02T07:56:58.976Z</time></trkpt><trkpt lat="45.5417422" lon="10.9030753"><ele>367.0</ele><time>2026-05-02T07:56:59.961Z</time></trkpt><trkpt lat="45.5418326" lon="10.9031201"><ele>367.0</ele><time>2026-05-02T07:57:00.955Z</time></trkpt><trkpt lat="45.5419323" lon="10.9031727"><ele>367.0</ele><time>2026-05-02T07:57:01.968Z</time></trkpt><trkpt lat="45.5420277" lon="10.9032199"><ele>367.0</ele><time>2026-05-02T07:57:03.036Z</time></trkpt><trkpt lat="45.5421168" lon="10.9032466"><ele>367.8333333333333</ele><time>2026-05-02T07:57:03.964Z</time></trkpt><trkpt lat="45.5421956" lon="10.9032807"><ele>368.66666666666663</ele><time>2026-05-02T07:57:05.969Z</time></trkpt><trkpt lat="45.5422672" lon="10.9032754"><ele>369.5</ele><time>2026-05-02T07:57:07.967Z</time></trkpt><trkpt lat="45.5423683" lon="10.9033003"><ele>370.3333333333333</ele><time>2026-05-02T07:57:09.96Z</time></trkpt><trkpt lat="45.5424324" lon="10.9033102"><ele>371.1666666666667</ele><time>2026-05-02T07:57:10.963Z</time></trkpt><trkpt lat="45.5425515" lon="10.9033442"><ele>372.0</ele><time>2026-05-02T07:57:12.97Z</time></trkpt><trkpt lat="45.5426125" lon="10.9033676"><ele>372.0</ele><time>2026-05-02T07:57:13.962Z</time></trkpt><trkpt lat="45.5427313" lon="10.903401"><ele>372.0</ele><time>2026-05-02T07:57:15.969Z</time></trkpt><trkpt lat="45.5428498" lon="10.9034428"><ele>372.0</ele><time>2026-05-02T07:57:18.038Z</time></trkpt><trkpt lat="45.5429809" lon="10.9034738"><ele>372.0</ele><time>2026-05-02T07:57:19.954Z</time></trkpt><trkpt lat="45.5430572" lon="10.9034928"><ele>372.8571428571429</ele><time>2026-05-02T07:57:20.964Z</time></trkpt><trkpt lat="45.5431218" lon="10.9035178"><ele>373.7142857142857</ele><time>2026-05-02T07:57:21.972Z</time></trkpt><trkpt lat="45.5431851" lon="10.9035368"><ele>374.57142857142856</ele><time>2026-05-02T07:57:22.964Z</time></trkpt><trkpt lat="45.5432448" lon="10.9035712"><ele>375.42857142857144</ele><time>2026-05-02T07:57:23.974Z</time></trkpt><trkpt lat="45.5433096" lon="10.9036037"><ele>376.2857142857143</ele><time>2026-05-02T07:57:24.97Z</time></trkpt><trkpt lat="45.5433779" lon="10.9036314"><ele>377.14285714285717</ele><time>2026-05-02T07:57:26.023Z</time></trkpt><trkpt lat="45.5434565" lon="10.903651"><ele>378.0</ele><time>2026-05-02T07:57:26.97Z</time></trkpt><trkpt lat="45.5435305" lon="10.9036853"><ele>378.0</ele><time>2026-05-02T07:57:27.965Z</time></trkpt><trkpt lat="45.5436024" lon="10.9037234"><ele>378.0</ele><time>2026-05-02T07:57:28.987Z</time></trkpt><trkpt lat="45.5436761" lon="10.9037591"><ele>378.0</ele><time>2026-05-02T07:57:29.967Z</time></trkpt><trkpt lat="45.5437481" lon="10.903786"><ele>378.0</ele><time>2026-05-02T07:57:30.972Z</time></trkpt><trkpt lat="45.5438187" lon="10.9038061"><ele>378.0</ele><time>2026-05-02T07:57:31.973Z</time></trkpt><trkpt lat="45.5438986" lon="10.9038095"><ele>378.0</ele><time>2026-05-02T07:57:32.962Z</time></trkpt><trkpt lat="45.5440202" lon="10.9038422"><ele>378.7142857142857</ele><time>2026-05-02T07:57:35.043Z</time></trkpt><trkpt lat="45.5440841" lon="10.9038875"><ele>379.42857142857144</ele><time>2026-05-02T07:57:36.023Z</time></trkpt><trkpt lat="45.5441426" lon="10.9039439"><ele>380.1428571428571</ele><time>2026-05-02T07:57:36.963Z</time></trkpt><trkpt lat="45.5442038" lon="10.9039868"><ele>380.8571428571429</ele><time>2026-05-02T07:57:37.957Z</time></trkpt><trkpt lat="45.5442758" lon="10.9040096"><ele>381.57142857142856</ele><time>2026-05-02T07:57:38.962Z</time></trkpt><trkpt lat="45.5443501" lon="10.9040278"><ele>382.2857142857143</ele><time>2026-05-02T07:57:39.957Z</time></trkpt><trkpt lat="45.5444285" lon="10.9040392"><ele>383.0</ele><time>2026-05-02T07:57:40.96Z</time></trkpt><trkpt lat="45.5445095" lon="10.904036"><ele>382.1666666666667</ele><time>2026-05-02T07:57:41.961Z</time></trkpt><trkpt lat="45.5445933" lon="10.9040285"><ele>381.33333333333337</ele><time>2026-05-02T07:57:42.957Z</time></trkpt><trkpt lat="45.5446782" lon="10.9040126"><ele>380.5</ele><time>2026-05-02T07:57:44.042Z</time></trkpt><trkpt lat="45.5447623" lon="10.9040035"><ele>379.6666666666667</ele><time>2026-05-02T07:57:44.956Z</time></trkpt><trkpt lat="45.5448412" lon="10.9039961"><ele>378.8333333333333</ele><time>2026-05-02T07:57:46.046Z</time></trkpt><trkpt lat="45.5449114" lon="10.9040175"><ele>378.0</ele><time>2026-05-02T07:57:46.973Z</time></trkpt><trkpt lat="45.54499" lon="10.9040498"><ele>378.0</ele><time>2026-05-02T07:57:47.977Z</time></trkpt><trkpt lat="45.5450728" lon="10.9040772"><ele>378.0</ele><time>2026-05-02T07:57:48.988Z</time></trkpt><trkpt lat="45.5451571" lon="10.9041117"><ele>378.0</ele><time>2026-05-02T07:57:49.974Z</time></trkpt><trkpt lat="45.5452505" lon="10.9041294"><ele>378.0</ele><time>2026-05-02T07:57:50.985Z</time></trkpt><trkpt lat="45.5453373" lon="10.9041122"><ele>378.0</ele><time>2026-05-02T07:57:51.985Z</time></trkpt><trkpt lat="45.5454277" lon="10.9040783"><ele>378.0</ele><time>2026-05-02T07:57:52.998Z</time></trkpt><trkpt lat="45.5455196" lon="10.9040584"><ele>378.79999999999995</ele><time>2026-05-02T07:57:53.976Z</time></trkpt><trkpt lat="45.5456172" lon="10.9040395"><ele>379.6</ele><time>2026-05-02T07:57:54.995Z</time></trkpt><trkpt lat="45.5457059" lon="10.904018"><ele>380.4</ele><time>2026-05-02T07:57:55.974Z</time></trkpt><trkpt lat="45.5457937" lon="10.9039996"><ele>381.20000000000005</ele><time>2026-05-02T07:57:56.975Z</time></trkpt><trkpt lat="45.5458798" lon="10.9039743"><ele>382.0</ele><time>2026-05-02T07:57:57.983Z</time></trkpt><trkpt lat="45.5459696" lon="10.9039606"><ele>382.0</ele><time>2026-05-02T07:57:58.988Z</time></trkpt><trkpt lat="45.5460605" lon="10.9039625"><ele>382.0</ele><time>2026-05-02T07:57:59.972Z</time></trkpt><trkpt lat="45.546155" lon="10.9039786"><ele>382.0</ele><time>2026-05-02T07:58:00.984Z</time></trkpt><trkpt lat="45.546245" lon="10.904015"><ele>382.0</ele><time>2026-05-02T07:58:01.986Z</time></trkpt><trkpt lat="45.5463253" lon="10.9040474"><ele>382.0</ele><time>2026-05-02T07:58:02.978Z</time></trkpt><trkpt lat="45.5464032" lon="10.9040556"><ele>382.0</ele><time>2026-05-02T07:58:03.977Z</time></trkpt><trkpt lat="45.5464883" lon="10.904057"><ele>383.16666666666663</ele><time>2026-05-02T07:58:04.974Z</time></trkpt><trkpt lat="45.5465633" lon="10.9040513"><ele>384.3333333333333</ele><time>2026-05-02T07:58:05.964Z</time></trkpt><trkpt lat="45.5466492" lon="10.9040503"><ele>385.5</ele><time>2026-05-02T07:58:06.977Z</time></trkpt><trkpt lat="45.5467386" lon="10.904065"><ele>386.66666666666663</ele><time>2026-05-02T07:58:07.974Z</time></trkpt><trkpt lat="45.5468326" lon="10.9040984"><ele>387.8333333333333</ele><time>2026-05-02T07:58:09.045Z</time></trkpt><trkpt lat="45.5469199" lon="10.9041321"><ele>389.0</ele><time>2026-05-02T07:58:09.981Z</time></trkpt><trkpt lat="45.547011" lon="10.9041594"><ele>389.0</ele><time>2026-05-02T07:58:10.983Z</time></trkpt><trkpt lat="45.5471036" lon="10.9042012"><ele>389.0</ele><time>2026-05-02T07:58:11.975Z</time></trkpt><trkpt lat="45.5472009" lon="10.9042464"><ele>389.0</ele><time>2026-05-02T07:58:12.972Z</time></trkpt><trkpt lat="45.5472926" lon="10.9042959"><ele>389.0</ele><time>2026-05-02T07:58:13.975Z</time></trkpt><trkpt lat="45.5473819" lon="10.9043521"><ele>389.0</ele><time>2026-05-02T07:58:14.989Z</time></trkpt><trkpt lat="45.5474689" lon="10.9044052"><ele>389.0</ele><time>2026-05-02T07:58:16.029Z</time></trkpt><trkpt lat="45.5475553" lon="10.9044645"><ele>389.0</ele><time>2026-05-02T07:58:16.976Z</time></trkpt><trkpt lat="45.5476442" lon="10.9045296"><ele>389.0</ele><time>2026-05-02T07:58:17.98Z</time></trkpt><trkpt lat="45.5477303" lon="10.9045892"><ele>389.0</ele><time>2026-05-02T07:58:18.974Z</time></trkpt><trkpt lat="45.5478107" lon="10.9046602"><ele>389.0</ele><time>2026-05-02T07:58:19.977Z</time></trkpt><trkpt lat="45.5478837" lon="10.9047237"><ele>389.79999999999995</ele><time>2026-05-02T07:58:20.984Z</time></trkpt><trkpt lat="45.5479593" lon="10.9047778"><ele>390.59999999999997</ele><time>2026-05-02T07:58:21.986Z</time></trkpt><trkpt lat="45.5480538" lon="10.9048004"><ele>391.4</ele><time>2026-05-02T07:58:23.062Z</time></trkpt><trkpt lat="45.5481612" lon="10.9048029"><ele>392.2</ele><time>2026-05-02T07:58:23.983Z</time></trkpt><trkpt lat="45.548269" lon="10.9048091"><ele>393.0</ele><time>2026-05-02T07:58:25.05Z</time></trkpt><trkpt lat="45.5483861" lon="10.9048406"><ele>393.0</ele><time>2026-05-02T07:58:25.976Z</time></trkpt><trkpt lat="45.5484957" lon="10.9048652"><ele>393.0</ele><time>2026-05-02T07:58:26.976Z</time></trkpt><trkpt lat="45.5486035" lon="10.9048811"><ele>393.0</ele><time>2026-05-02T07:58:27.977Z</time></trkpt><trkpt lat="45.548699" lon="10.9049088"><ele>393.0</ele><time>2026-05-02T07:58:28.98Z</time></trkpt><trkpt lat="45.5487915" lon="10.9049486"><ele>393.0</ele><time>2026-05-02T07:58:29.981Z</time></trkpt><trkpt lat="45.5488734" lon="10.9050132"><ele>393.3333333333333</ele><time>2026-05-02T07:58:30.989Z</time></trkpt><trkpt lat="45.5489408" lon="10.905083"><ele>393.66666666666663</ele><time>2026-05-02T07:58:31.974Z</time></trkpt><trkpt lat="45.5490086" lon="10.9051524"><ele>394.0</ele><time>2026-05-02T07:58:32.983Z</time></trkpt><trkpt lat="45.5490715" lon="10.9052317"><ele>394.3333333333333</ele><time>2026-05-02T07:58:33.978Z</time></trkpt><trkpt lat="45.5491237" lon="10.9053277"><ele>394.66666666666663</ele><time>2026-05-02T07:58:34.977Z</time></trkpt><trkpt lat="45.549179" lon="10.9054257"><ele>395.0</ele><time>2026-05-02T07:58:35.992Z</time></trkpt><trkpt lat="45.5492356" lon="10.9055242"><ele>395.0</ele><time>2026-05-02T07:58:36.986Z</time></trkpt><trkpt lat="45.5493004" lon="10.9056156"><ele>395.0</ele><time>2026-05-02T07:58:37.988Z</time></trkpt><trkpt lat="45.5493735" lon="10.9057164"><ele>395.0</ele><time>2026-05-02T07:58:38.98Z</time></trkpt><trkpt lat="45.549444" lon="10.9058215"><ele>395.0</ele><time>2026-05-02T07:58:40.01Z</time></trkpt><trkpt lat="45.5495218" lon="10.9059267"><ele>395.0</ele><time>2026-05-02T07:58:40.978Z</time></trkpt><trkpt lat="45.5495977" lon="10.9060271"><ele>396.4</ele><time>2026-05-02T07:58:41.982Z</time></trkpt><trkpt lat="45.5496834" lon="10.9061095"><ele>397.8</ele><time>2026-05-02T07:58:42.988Z</time></trkpt><trkpt lat="45.5497687" lon="10.9061895"><ele>399.20000000000005</ele><time>2026-05-02T07:58:43.978Z</time></trkpt><trkpt lat="45.5498365" lon="10.9062649"><ele>400.6</ele><time>2026-05-02T07:58:44.974Z</time></trkpt><trkpt lat="45.5499016" lon="10.9063497"><ele>402.0</ele><time>2026-05-02T07:58:45.982Z</time></trkpt><trkpt lat="45.549971" lon="10.9064389"><ele>402.0</ele><time>2026-05-02T07:58:46.972Z</time></trkpt><trkpt lat="45.550035" lon="10.9065319"><ele>402.0</ele><time>2026-05-02T07:58:47.98Z</time></trkpt><trkpt lat="45.5500927" lon="10.9066369"><ele>402.0</ele><time>2026-05-02T07:58:48.979Z</time></trkpt><trkpt lat="45.5501511" lon="10.9067227"><ele>402.0</ele><time>2026-05-02T07:58:49.981Z</time></trkpt><trkpt lat="45.5502233" lon="10.9068045"><ele>402.0</ele><time>2026-05-02T07:58:50.983Z</time></trkpt><trkpt lat="45.5503071" lon="10.9068834"><ele>402.8</ele><time>2026-05-02T07:58:51.978Z</time></trkpt><trkpt lat="45.5503909" lon="10.9069588"><ele>403.6</ele><time>2026-05-02T07:58:52.981Z</time></trkpt><trkpt lat="45.5504763" lon="10.9070298"><ele>404.40000000000003</ele><time>2026-05-02T07:58:53.978Z</time></trkpt><trkpt lat="45.5505711" lon="10.9070907"><ele>405.20000000000005</ele><time>2026-05-02T07:58:54.977Z</time></trkpt><trkpt lat="45.550672" lon="10.9071263"><ele>406.0</ele><time>2026-05-02T07:58:55.969Z</time></trkpt><trkpt lat="45.5507792" lon="10.9071719"><ele>406.0</ele><time>2026-05-02T07:58:56.978Z</time></trkpt><trkpt lat="45.5508824" lon="10.9072292"><ele>406.0</ele><time>2026-05-02T07:58:57.976Z</time></trkpt><trkpt lat="45.550975" lon="10.9072873"><ele>406.0</ele><time>2026-05-02T07:58:58.982Z</time></trkpt><trkpt lat="45.5510505" lon="10.9073455"><ele>406.0</ele><time>2026-05-02T07:58:59.973Z</time></trkpt><trkpt lat="45.5511181" lon="10.9073798"><ele>406.0</ele><time>2026-05-02T07:59:00.981Z</time></trkpt><trkpt lat="45.5512099" lon="10.907457"><ele>408.1666666666667</ele><time>2026-05-02T07:59:02.984Z</time></trkpt><trkpt lat="45.5512696" lon="10.907493"><ele>410.33333333333337</ele><time>2026-05-02T07:59:04.981Z</time></trkpt><trkpt lat="45.5513534" lon="10.9074563"><ele>412.5</ele><time>2026-05-02T07:59:07.981Z</time></trkpt><trkpt lat="45.5513822" lon="10.9073676"><ele>414.66666666666663</ele><time>2026-05-02T07:59:08.965Z</time></trkpt><trkpt lat="45.5514014" lon="10.9072585"><ele>416.8333333333333</ele><time>2026-05-02T07:59:09.976Z</time></trkpt><trkpt lat="45.5514432" lon="10.9071453"><ele>419.0</ele><time>2026-05-02T07:59:10.986Z</time></trkpt><trkpt lat="45.5515021" lon="10.9070469"><ele>419.0</ele><time>2026-05-02T07:59:11.977Z</time></trkpt><trkpt lat="45.5515743" lon="10.9069273"><ele>419.0</ele><time>2026-05-02T07:59:12.98Z</time></trkpt><trkpt lat="45.5516606" lon="10.906801"><ele>419.0</ele><time>2026-05-02T07:59:13.971Z</time></trkpt><trkpt lat="45.5517482" lon="10.9066841"><ele>419.0</ele><time>2026-05-02T07:59:14.98Z</time></trkpt><trkpt lat="45.551829" lon="10.9065764"><ele>418.2</ele><time>2026-05-02T07:59:15.977Z</time></trkpt><trkpt lat="45.5519114" lon="10.9064779"><ele>417.4</ele><time>2026-05-02T07:59:16.978Z</time></trkpt><trkpt lat="45.5519881" lon="10.9063721"><ele>416.6</ele><time>2026-05-02T07:59:17.972Z</time></trkpt><trkpt lat="45.5520672" lon="10.9062617"><ele>415.8</ele><time>2026-05-02T07:59:18.973Z</time></trkpt><trkpt lat="45.552139" lon="10.906156"><ele>415.0</ele><time>2026-05-02T07:59:19.972Z</time></trkpt><trkpt lat="45.5522266" lon="10.9060511"><ele>415.6</ele><time>2026-05-02T07:59:20.979Z</time></trkpt><trkpt lat="45.5523271" lon="10.9059593"><ele>416.2</ele><time>2026-05-02T07:59:21.975Z</time></trkpt><trkpt lat="45.5524284" lon="10.90588"><ele>416.79999999999995</ele><time>2026-05-02T07:59:23.036Z</time></trkpt><trkpt lat="45.5525242" lon="10.9058069"><ele>417.4</ele><time>2026-05-02T07:59:24.037Z</time></trkpt><trkpt lat="45.5526142" lon="10.9057429"><ele>418.0</ele><time>2026-05-02T07:59:25.036Z</time></trkpt><trkpt lat="45.5527128" lon="10.9056753"><ele>418.0</ele><time>2026-05-02T07:59:25.974Z</time></trkpt><trkpt lat="45.552822" lon="10.905634"><ele>418.0</ele><time>2026-05-02T07:59:26.971Z</time></trkpt><trkpt lat="45.5529357" lon="10.9056088"><ele>418.0</ele><time>2026-05-02T07:59:27.98Z</time></trkpt><trkpt lat="45.5530622" lon="10.9056014"><ele>418.0</ele><time>2026-05-02T07:59:28.978Z</time></trkpt><trkpt lat="45.5531808" lon="10.9056283"><ele>420.75</ele><time>2026-05-02T07:59:29.975Z</time></trkpt><trkpt lat="45.5532941" lon="10.9056844"><ele>423.5</ele><time>2026-05-02T07:59:31.043Z</time></trkpt><trkpt lat="45.5534126" lon="10.90574"><ele>426.25</ele><time>2026-05-02T07:59:31.977Z</time></trkpt><trkpt lat="45.5535325" lon="10.9057476"><ele>429.0</ele><time>2026-05-02T07:59:32.968Z</time></trkpt><trkpt lat="45.5536532" lon="10.9057326"><ele>429.75</ele><time>2026-05-02T07:59:33.98Z</time></trkpt><trkpt lat="45.5537793" lon="10.9056883"><ele>430.5</ele><time>2026-05-02T07:59:34.977Z</time></trkpt><trkpt lat="45.5539055" lon="10.9056439"><ele>431.25</ele><time>2026-05-02T07:59:35.968Z</time></trkpt><trkpt lat="45.5540342" lon="10.9055926"><ele>432.0</ele><time>2026-05-02T07:59:36.974Z</time></trkpt><trkpt lat="45.5541624" lon="10.9055139"><ele>432.0</ele><time>2026-05-02T07:59:37.977Z</time></trkpt><trkpt lat="45.5542746" lon="10.9054176"><ele>432.0</ele><time>2026-05-02T07:59:38.975Z</time></trkpt><trkpt lat="45.554375" lon="10.9053216"><ele>432.0</ele><time>2026-05-02T07:59:40.028Z</time></trkpt><trkpt lat="45.5544721" lon="10.9052395"><ele>432.0</ele><time>2026-05-02T07:59:41.033Z</time></trkpt><trkpt lat="45.5545646" lon="10.9051595"><ele>432.6</ele><time>2026-05-02T07:59:41.967Z</time></trkpt><trkpt lat="45.5546602" lon="10.9051006"><ele>433.20000000000005</ele><time>2026-05-02T07:59:42.981Z</time></trkpt><trkpt lat="45.5547574" lon="10.9050653"><ele>433.8</ele><time>2026-05-02T07:59:43.967Z</time></trkpt><trkpt lat="45.5548563" lon="10.9050874"><ele>434.4</ele><time>2026-05-02T07:59:44.96Z</time></trkpt><trkpt lat="45.5549718" lon="10.9051532"><ele>435.0</ele><time>2026-05-02T07:59:45.975Z</time></trkpt><trkpt lat="45.5550866" lon="10.9052188"><ele>435.0</ele><time>2026-05-02T07:59:46.976Z</time></trkpt><trkpt lat="45.5552131" lon="10.905295"><ele>435.0</ele><time>2026-05-02T07:59:47.973Z</time></trkpt><trkpt lat="45.5553378" lon="10.9053867"><ele>435.0</ele><time>2026-05-02T07:59:48.97Z</time></trkpt><trkpt lat="45.5554559" lon="10.9054754"><ele>435.0</ele><time>2026-05-02T07:59:49.968Z</time></trkpt><trkpt lat="45.5555649" lon="10.9055677"><ele>433.25</ele><time>2026-05-02T07:59:50.971Z</time></trkpt><trkpt lat="45.5556784" lon="10.9056441"><ele>431.5</ele><time>2026-05-02T07:59:51.975Z</time></trkpt><trkpt lat="45.5557984" lon="10.9056894"><ele>429.75</ele><time>2026-05-02T07:59:52.968Z</time></trkpt><trkpt lat="45.5559248" lon="10.9057082"><ele>428.0</ele><time>2026-05-02T07:59:53.977Z</time></trkpt><trkpt lat="45.5560525" lon="10.9057068"><ele>428.0</ele><time>2026-05-02T07:59:55.041Z</time></trkpt><trkpt lat="45.5561775" lon="10.9057082"><ele>428.0</ele><time>2026-05-02T07:59:55.967Z</time></trkpt><trkpt lat="45.5563072" lon="10.9057148"><ele>428.0</ele><time>2026-05-02T07:59:56.959Z</time></trkpt><trkpt lat="45.5564347" lon="10.9057318"><ele>428.0</ele><time>2026-05-02T07:59:57.962Z</time></trkpt><trkpt lat="45.5565722" lon="10.9057605"><ele>427.5</ele><time>2026-05-02T07:59:58.962Z</time></trkpt><trkpt lat="45.5567078" lon="10.9057888"><ele>427.0</ele><time>2026-05-02T07:59:59.967Z</time></trkpt><trkpt lat="45.5568503" lon="10.9058147"><ele>426.5</ele><time>2026-05-02T08:00:00.962Z</time></trkpt><trkpt lat="45.556986" lon="10.9058379"><ele>426.0</ele><time>2026-05-02T08:00:01.971Z</time></trkpt><trkpt lat="45.5571183" lon="10.9058578"><ele>427.5</ele><time>2026-05-02T08:00:02.962Z</time></trkpt><trkpt lat="45.5572579" lon="10.9058615"><ele>429.0</ele><time>2026-05-02T08:00:03.955Z</time></trkpt><trkpt lat="45.5573935" lon="10.9058525"><ele>430.5</ele><time>2026-05-02T08:00:04.962Z</time></trkpt><trkpt lat="45.5575268" lon="10.9058346"><ele>432.0</ele><time>2026-05-02T08:00:05.96Z</time></trkpt><trkpt lat="45.5576566" lon="10.9058121"><ele>432.0</ele><time>2026-05-02T08:00:06.961Z</time></trkpt><trkpt lat="45.5577782" lon="10.9057815"><ele>432.0</ele><time>2026-05-02T08:00:07.969Z</time></trkpt><trkpt lat="45.5578889" lon="10.9057381"><ele>432.0</ele><time>2026-05-02T08:00:09.022Z</time></trkpt><trkpt lat="45.5579837" lon="10.9056505"><ele>432.0</ele><time>2026-05-02T08:00:09.963Z</time></trkpt><trkpt lat="45.5580706" lon="10.9055198"><ele>432.8</ele><time>2026-05-02T08:00:10.965Z</time></trkpt><trkpt lat="45.558112" lon="10.9053758"><ele>433.6</ele><time>2026-05-02T08:00:11.975Z</time></trkpt><trkpt lat="45.5581378" lon="10.905223"><ele>434.40000000000003</ele><time>2026-05-02T08:00:12.953Z</time></trkpt><trkpt lat="45.5581719" lon="10.9050693"><ele>435.20000000000005</ele><time>2026-05-02T08:00:13.958Z</time></trkpt><trkpt lat="45.5582069" lon="10.9049268"><ele>436.0</ele><time>2026-05-02T08:00:14.958Z</time></trkpt><trkpt lat="45.5582514" lon="10.9047899"><ele>434.50000000000006</ele><time>2026-05-02T08:00:15.947Z</time></trkpt><trkpt lat="45.558294" lon="10.9046675"><ele>433.0</ele><time>2026-05-02T08:00:16.972Z</time></trkpt><trkpt lat="45.5583307" lon="10.9045588"><ele>431.5</ele><time>2026-05-02T08:00:17.957Z</time></trkpt><trkpt lat="45.5583613" lon="10.904467"><ele>430.0</ele><time>2026-05-02T08:00:18.954Z</time></trkpt><trkpt lat="45.5584164" lon="10.9043464"><ele>428.50000000000006</ele><time>2026-05-02T08:00:20.969Z</time></trkpt><trkpt lat="45.5584832" lon="10.9043234"><ele>427.0</ele><time>2026-05-02T08:00:21.974Z</time></trkpt><trkpt lat="45.5585606" lon="10.9043172"><ele>427.0</ele><time>2026-05-02T08:00:22.964Z</time></trkpt><trkpt lat="45.55864" lon="10.9043117"><ele>427.0</ele><time>2026-05-02T08:00:23.96Z</time></trkpt><trkpt lat="45.5587152" lon="10.9043196"><ele>427.0</ele><time>2026-05-02T08:00:25.038Z</time></trkpt><trkpt lat="45.5587839" lon="10.9043465"><ele>427.0</ele><time>2026-05-02T08:00:26.018Z</time></trkpt><trkpt lat="45.5588393" lon="10.9044012"><ele>427.0</ele><time>2026-05-02T08:00:26.968Z</time></trkpt><trkpt lat="45.5588843" lon="10.9044778"><ele>427.0</ele><time>2026-05-02T08:00:27.972Z</time></trkpt><trkpt lat="45.5589379" lon="10.9045625"><ele>427.0</ele><time>2026-05-02T08:00:28.965Z</time></trkpt><trkpt lat="45.5589936" lon="10.9046451"><ele>429.33333333333337</ele><time>2026-05-02T08:00:29.958Z</time></trkpt><trkpt lat="45.5590614" lon="10.9047056"><ele>431.6666666666667</ele><time>2026-05-02T08:00:30.965Z</time></trkpt><trkpt lat="45.5591371" lon="10.9047386"><ele>434.0</ele><time>2026-05-02T08:00:31.959Z</time></trkpt><trkpt lat="45.5592154" lon="10.9047349"><ele>436.33333333333337</ele><time>2026-05-02T08:00:32.972Z</time></trkpt><trkpt lat="45.5592896" lon="10.9047058"><ele>438.6666666666667</ele><time>2026-05-02T08:00:33.96Z</time></trkpt><trkpt lat="45.5593519" lon="10.9046482"><ele>441.0</ele><time>2026-05-02T08:00:34.956Z</time></trkpt><trkpt lat="45.559411" lon="10.904571"><ele>441.0</ele><time>2026-05-02T08:00:35.964Z</time></trkpt><trkpt lat="45.5594658" lon="10.9044926"><ele>441.0</ele><time>2026-05-02T08:00:36.962Z</time></trkpt><trkpt lat="45.5595139" lon="10.9044264"><ele>441.0</ele><time>2026-05-02T08:00:37.965Z</time></trkpt><trkpt lat="45.5595922" lon="10.9043369"><ele>441.0</ele><time>2026-05-02T08:00:40.02Z</time></trkpt><trkpt lat="45.5596753" lon="10.9042894"><ele>441.0</ele><time>2026-05-02T08:00:41.966Z</time></trkpt><trkpt lat="45.559784" lon="10.9042667"><ele>441.0</ele><time>2026-05-02T08:00:43.96Z</time></trkpt><trkpt lat="45.5599028" lon="10.9042581"><ele>443.5</ele><time>2026-05-02T08:00:45.957Z</time></trkpt><trkpt lat="45.5599836" lon="10.9043063"><ele>446.0</ele><time>2026-05-02T08:00:47.964Z</time></trkpt><trkpt lat="45.56004" lon="10.9043804"><ele>448.5</ele><time>2026-05-02T08:00:49.973Z</time></trkpt><trkpt lat="45.5601157" lon="10.9045084"><ele>451.0</ele><time>2026-05-02T08:00:51.969Z</time></trkpt><trkpt lat="45.56017" lon="10.9045783"><ele>453.5</ele><time>2026-05-02T08:00:52.972Z</time></trkpt><trkpt lat="45.5602328" lon="10.9046579"><ele>456.0</ele><time>2026-05-02T08:00:53.959Z</time></trkpt><trkpt lat="45.5603036" lon="10.9047537"><ele>457.0</ele><time>2026-05-02T08:00:54.953Z</time></trkpt><trkpt lat="45.5603813" lon="10.9048364"><ele>458.0</ele><time>2026-05-02T08:00:55.963Z</time></trkpt><trkpt lat="45.5604707" lon="10.9048941"><ele>459.0</ele><time>2026-05-02T08:00:56.954Z</time></trkpt><trkpt lat="45.5605627" lon="10.9049509"><ele>460.0</ele><time>2026-05-02T08:00:57.963Z</time></trkpt><trkpt lat="45.5606656" lon="10.9050029"><ele>461.0</ele><time>2026-05-02T08:00:58.954Z</time></trkpt><trkpt lat="45.5607675" lon="10.9050481"><ele>465.20000000000005</ele><time>2026-05-02T08:00:59.959Z</time></trkpt><trkpt lat="45.5608604" lon="10.9050907"><ele>469.40000000000003</ele><time>2026-05-02T08:01:00.952Z</time></trkpt><trkpt lat="45.560949" lon="10.905127"><ele>473.6</ele><time>2026-05-02T08:01:01.962Z</time></trkpt><trkpt lat="45.5610382" lon="10.9051616"><ele>477.8</ele><time>2026-05-02T08:01:02.965Z</time></trkpt><trkpt lat="45.5611206" lon="10.9051993"><ele>482.0</ele><time>2026-05-02T08:01:03.966Z</time></trkpt><trkpt lat="45.5612077" lon="10.9052245"><ele>482.0</ele><time>2026-05-02T08:01:04.96Z</time></trkpt><trkpt lat="45.5612979" lon="10.9052345"><ele>482.00000000000006</ele><time>2026-05-02T08:01:05.951Z</time></trkpt><trkpt lat="45.5613881" lon="10.9052439"><ele>482.00000000000006</ele><time>2026-05-02T08:01:06.952Z</time></trkpt><trkpt lat="45.5614792" lon="10.9052298"><ele>482.0</ele><time>2026-05-02T08:01:07.953Z</time></trkpt><trkpt lat="45.5615828" lon="10.9052029"><ele>482.0</ele><time>2026-05-02T08:01:08.962Z</time></trkpt><trkpt lat="45.5616945" lon="10.9051686"><ele>482.0</ele><time>2026-05-02T08:01:09.965Z</time></trkpt><trkpt lat="45.5617922" lon="10.9051509"><ele>482.00000000000006</ele><time>2026-05-02T08:01:10.965Z</time></trkpt><trkpt lat="45.5618895" lon="10.9051301"><ele>482.00000000000006</ele><time>2026-05-02T08:01:11.963Z</time></trkpt><trkpt lat="45.5619876" lon="10.9051102"><ele>482.0</ele><time>2026-05-02T08:01:12.944Z</time></trkpt><trkpt lat="45.5620859" lon="10.9050953"><ele>482.0</ele><time>2026-05-02T08:01:13.957Z</time></trkpt><trkpt lat="45.5621846" lon="10.9050661"><ele>476.0</ele><time>2026-05-02T08:01:14.963Z</time></trkpt><trkpt lat="45.5622961" lon="10.9050175"><ele>470.00000000000006</ele><time>2026-05-02T08:01:15.956Z</time></trkpt><trkpt lat="45.5623996" lon="10.9049751"><ele>464.00000000000006</ele><time>2026-05-02T08:01:16.982Z</time></trkpt><trkpt lat="45.5624878" lon="10.904925"><ele>458.0</ele><time>2026-05-02T08:01:17.977Z</time></trkpt><trkpt lat="45.5625655" lon="10.9048802"><ele>452.0</ele><time>2026-05-02T08:01:18.959Z</time></trkpt><trkpt lat="45.5626692" lon="10.9048976"><ele>451.99999999999994</ele><time>2026-05-02T08:01:20.962Z</time></trkpt><trkpt lat="45.5627818" lon="10.9049949"><ele>452.0</ele><time>2026-05-02T08:01:22.963Z</time></trkpt><trkpt lat="45.5628339" lon="10.9050509"><ele>452.0</ele><time>2026-05-02T08:01:23.965Z</time></trkpt><trkpt lat="45.5628853" lon="10.9051279"><ele>452.0</ele><time>2026-05-02T08:01:24.951Z</time></trkpt><trkpt lat="45.5629449" lon="10.9051967"><ele>451.99999999999994</ele><time>2026-05-02T08:01:25.968Z</time></trkpt><trkpt lat="45.5630118" lon="10.9052662"><ele>452.0</ele><time>2026-05-02T08:01:26.962Z</time></trkpt><trkpt lat="45.563096" lon="10.9053173"><ele>454.16666666666663</ele><time>2026-05-02T08:01:27.967Z</time></trkpt><trkpt lat="45.5631787" lon="10.9053699"><ele>456.3333333333333</ele><time>2026-05-02T08:01:28.967Z</time></trkpt><trkpt lat="45.5632608" lon="10.9054413"><ele>458.5</ele><time>2026-05-02T08:01:29.965Z</time></trkpt><trkpt lat="45.5633389" lon="10.9054926"><ele>460.66666666666663</ele><time>2026-05-02T08:01:30.961Z</time></trkpt><trkpt lat="45.5634022" lon="10.9055249"><ele>462.8333333333333</ele><time>2026-05-02T08:01:31.965Z</time></trkpt><trkpt lat="45.5634643" lon="10.9055574"><ele>465.0</ele><time>2026-05-02T08:01:32.968Z</time></trkpt><trkpt lat="45.5635575" lon="10.9056471"><ele>465.0</ele><time>2026-05-02T08:01:34.956Z</time></trkpt><trkpt lat="45.5636195" lon="10.9057785"><ele>465.0</ele><time>2026-05-02T08:01:36.965Z</time></trkpt><trkpt lat="45.5636553" lon="10.9059515"><ele>465.0</ele><time>2026-05-02T08:01:38.963Z</time></trkpt><trkpt lat="45.5636704" lon="10.9060418"><ele>465.0</ele><time>2026-05-02T08:01:39.973Z</time></trkpt><trkpt lat="45.5637316" lon="10.9062064"><ele>465.0</ele><time>2026-05-02T08:01:41.963Z</time></trkpt><trkpt lat="45.5637584" lon="10.906292"><ele>465.0</ele><time>2026-05-02T08:01:43.035Z</time></trkpt><trkpt lat="45.5637962" lon="10.9063814"><ele>465.0</ele><time>2026-05-02T08:01:44.024Z</time></trkpt><trkpt lat="45.563829" lon="10.906478"><ele>465.0</ele><time>2026-05-02T08:01:45.033Z</time></trkpt><trkpt lat="45.5638616" lon="10.9065761"><ele>465.0</ele><time>2026-05-02T08:01:45.973Z</time></trkpt><trkpt lat="45.5638805" lon="10.9066652"><ele>465.0</ele><time>2026-05-02T08:01:46.98Z</time></trkpt><trkpt lat="45.5638938" lon="10.9067551"><ele>465.0</ele><time>2026-05-02T08:01:47.971Z</time></trkpt><trkpt lat="45.5639063" lon="10.9068555"><ele>465.0</ele><time>2026-05-02T08:01:48.968Z</time></trkpt><trkpt lat="45.5639291" lon="10.9069404"><ele>466.5</ele><time>2026-05-02T08:01:49.966Z</time></trkpt><trkpt lat="45.5639552" lon="10.9070382"><ele>468.0</ele><time>2026-05-02T08:01:51.045Z</time></trkpt><trkpt lat="45.5639851" lon="10.9071495"><ele>469.5</ele><time>2026-05-02T08:01:51.963Z</time></trkpt><trkpt lat="45.5640146" lon="10.9072753"><ele>471.0</ele><time>2026-05-02T08:01:52.964Z</time></trkpt><trkpt lat="45.5640312" lon="10.907387"><ele>472.5</ele><time>2026-05-02T08:01:53.948Z</time></trkpt><trkpt lat="45.5640346" lon="10.907481"><ele>474.0</ele><time>2026-05-02T08:01:54.945Z</time></trkpt><trkpt lat="45.5639803" lon="10.9075918"><ele>475.6666666666667</ele><time>2026-05-02T08:01:56.943Z</time></trkpt><trkpt lat="45.5639792" lon="10.9077152"><ele>477.33333333333337</ele><time>2026-05-02T08:01:58.941Z</time></trkpt><trkpt lat="45.5640448" lon="10.9078543"><ele>479.0</ele><time>2026-05-02T08:02:00.965Z</time></trkpt><trkpt lat="45.5640825" lon="10.9079308"><ele>480.6666666666667</ele><time>2026-05-02T08:02:01.964Z</time></trkpt><trkpt lat="45.5641174" lon="10.9080131"><ele>482.33333333333337</ele><time>2026-05-02T08:02:02.963Z</time></trkpt><trkpt lat="45.5641678" lon="10.9081239"><ele>484.0</ele><time>2026-05-02T08:02:03.962Z</time></trkpt><trkpt lat="45.5642299" lon="10.9082484"><ele>484.00000000000006</ele><time>2026-05-02T08:02:04.965Z</time></trkpt><trkpt lat="45.5642709" lon="10.9083707"><ele>484.0</ele><time>2026-05-02T08:02:05.948Z</time></trkpt><trkpt lat="45.564304" lon="10.9084666"><ele>484.0</ele><time>2026-05-02T08:02:06.961Z</time></trkpt><trkpt lat="45.5643346" lon="10.9085605"><ele>484.0</ele><time>2026-05-02T08:02:07.966Z</time></trkpt><trkpt lat="45.5643601" lon="10.9086618"><ele>484.00000000000006</ele><time>2026-05-02T08:02:08.978Z</time></trkpt><trkpt lat="45.5643775" lon="10.9087665"><ele>484.0</ele><time>2026-05-02T08:02:09.964Z</time></trkpt><trkpt lat="45.5643959" lon="10.9088814"><ele>485.6666666666667</ele><time>2026-05-02T08:02:11.018Z</time></trkpt><trkpt lat="45.5644144" lon="10.9089998"><ele>487.33333333333337</ele><time>2026-05-02T08:02:11.954Z</time></trkpt><trkpt lat="45.5644532" lon="10.9091159"><ele>489.0</ele><time>2026-05-02T08:02:12.959Z</time></trkpt><trkpt lat="45.5645018" lon="10.9092291"><ele>490.66666666666663</ele><time>2026-05-02T08:02:13.968Z</time></trkpt><trkpt lat="45.564547" lon="10.9093366"><ele>492.3333333333333</ele><time>2026-05-02T08:02:14.972Z</time></trkpt><trkpt lat="45.564591" lon="10.9094531"><ele>494.0</ele><time>2026-05-02T08:02:15.971Z</time></trkpt><trkpt lat="45.5646301" lon="10.9095784"><ele>494.0</ele><time>2026-05-02T08:02:16.961Z</time></trkpt><trkpt lat="45.5646666" lon="10.9097037"><ele>494.0</ele><time>2026-05-02T08:02:17.969Z</time></trkpt><trkpt lat="45.5647156" lon="10.9098217"><ele>494.0</ele><time>2026-05-02T08:02:18.961Z</time></trkpt><trkpt lat="45.5647775" lon="10.9099325"><ele>494.0</ele><time>2026-05-02T08:02:19.971Z</time></trkpt><trkpt lat="45.5648465" lon="10.9100353"><ele>494.0</ele><time>2026-05-02T08:02:20.954Z</time></trkpt><trkpt lat="45.5649256" lon="10.9101248"><ele>496.16666666666663</ele><time>2026-05-02T08:02:21.965Z</time></trkpt><trkpt lat="45.5650192" lon="10.9102053"><ele>498.3333333333333</ele><time>2026-05-02T08:02:22.962Z</time></trkpt><trkpt lat="45.5650888" lon="10.9102808"><ele>500.5</ele><time>2026-05-02T08:02:23.97Z</time></trkpt><trkpt lat="45.5651532" lon="10.910325"><ele>502.66666666666663</ele><time>2026-05-02T08:02:24.99Z</time></trkpt><trkpt lat="45.5652074" lon="10.9104485"><ele>504.8333333333333</ele><time>2026-05-02T08:02:26.969Z</time></trkpt><trkpt lat="45.5652124" lon="10.9105459"><ele>507.0</ele><time>2026-05-02T08:02:27.965Z</time></trkpt><trkpt lat="45.565198" lon="10.9106507"><ele>507.0</ele><time>2026-05-02T08:02:28.966Z</time></trkpt><trkpt lat="45.5651776" lon="10.9107607"><ele>507.0</ele><time>2026-05-02T08:02:29.966Z</time></trkpt><trkpt lat="45.5651626" lon="10.9108712"><ele>507.0</ele><time>2026-05-02T08:02:31.032Z</time></trkpt><trkpt lat="45.5651499" lon="10.9109819"><ele>507.0</ele><time>2026-05-02T08:02:31.971Z</time></trkpt><trkpt lat="45.5651506" lon="10.9110959"><ele>507.0</ele><time>2026-05-02T08:02:32.961Z</time></trkpt><trkpt lat="45.5651565" lon="10.9112006"><ele>507.0</ele><time>2026-05-02T08:02:34.007Z</time></trkpt><trkpt lat="45.5651517" lon="10.9112952"><ele>507.2857142857143</ele><time>2026-05-02T08:02:34.964Z</time></trkpt><trkpt lat="45.5651468" lon="10.9113959"><ele>507.57142857142856</ele><time>2026-05-02T08:02:35.961Z</time></trkpt><trkpt lat="45.5651486" lon="10.9114963"><ele>507.85714285714283</ele><time>2026-05-02T08:02:36.967Z</time></trkpt><trkpt lat="45.5651499" lon="10.9116017"><ele>508.1428571428571</ele><time>2026-05-02T08:02:37.97Z</time></trkpt><trkpt lat="45.5651419" lon="10.9117077"><ele>508.42857142857144</ele><time>2026-05-02T08:02:38.97Z</time></trkpt><trkpt lat="45.5651299" lon="10.9118123"><ele>508.71428571428567</ele><time>2026-05-02T08:02:40.04Z</time></trkpt><trkpt lat="45.5651159" lon="10.9119236"><ele>508.99999999999994</ele><time>2026-05-02T08:02:41.015Z</time></trkpt><trkpt lat="45.5651031" lon="10.9120334"><ele>508.99999999999994</ele><time>2026-05-02T08:02:41.973Z</time></trkpt><trkpt lat="45.5650873" lon="10.9121298"><ele>509.0</ele><time>2026-05-02T08:02:42.969Z</time></trkpt><trkpt lat="45.5650682" lon="10.9122208"><ele>509.0</ele><time>2026-05-02T08:02:43.946Z</time></trkpt><trkpt lat="45.5650116" lon="10.9123694"><ele>509.0</ele><time>2026-05-02T08:02:45.957Z</time></trkpt><trkpt lat="45.5649635" lon="10.9124893"><ele>508.99999999999994</ele><time>2026-05-02T08:02:47.956Z</time></trkpt><trkpt lat="45.5649206" lon="10.9125822"><ele>509.0</ele><time>2026-05-02T08:02:50.96Z</time></trkpt><trkpt lat="45.564928" lon="10.9126894"><ele>509.2</ele><time>2026-05-02T08:02:54.964Z</time></trkpt><trkpt lat="45.5648591" lon="10.9128069"><ele>509.4</ele><time>2026-05-02T08:02:57.96Z</time></trkpt><trkpt lat="45.5647849" lon="10.9128488"><ele>509.6</ele><time>2026-05-02T08:02:58.97Z</time></trkpt><trkpt lat="45.564694" lon="10.9128855"><ele>509.8</ele><time>2026-05-02T08:02:59.969Z</time></trkpt><trkpt lat="45.5646014" lon="10.9129243"><ele>510.0</ele><time>2026-05-02T08:03:00.968Z</time></trkpt><trkpt lat="45.5645113" lon="10.9129571"><ele>509.3333333333333</ele><time>2026-05-02T08:03:01.972Z</time></trkpt><trkpt lat="45.5644338" lon="10.9129986"><ele>508.66666666666663</ele><time>2026-05-02T08:03:02.971Z</time></trkpt><trkpt lat="45.5643791" lon="10.9130472"><ele>508.0</ele><time>2026-05-02T08:03:03.971Z</time></trkpt><trkpt lat="45.5642946" lon="10.9131284"><ele>507.3333333333333</ele><time>2026-05-02T08:03:05.954Z</time></trkpt><trkpt lat="45.5642119" lon="10.9131808"><ele>506.66666666666663</ele><time>2026-05-02T08:03:07.959Z</time></trkpt><trkpt lat="45.5641461" lon="10.9132483"><ele>506.0</ele><time>2026-05-02T08:03:09.975Z</time></trkpt><trkpt lat="45.5641317" lon="10.9133903"><ele>505.0</ele><time>2026-05-02T08:03:11.965Z</time></trkpt><trkpt lat="45.5641425" lon="10.913562"><ele>504.0</ele><time>2026-05-02T08:03:13.961Z</time></trkpt><trkpt lat="45.5641258" lon="10.9137248"><ele>503.0</ele><time>2026-05-02T08:03:16.029Z</time></trkpt><trkpt lat="45.5640644" lon="10.9138388"><ele>502.0</ele><time>2026-05-02T08:03:17.962Z</time></trkpt><trkpt lat="45.5640376" lon="10.9139215"><ele>501.0</ele><time>2026-05-02T08:03:19.976Z</time></trkpt><trkpt lat="45.5640576" lon="10.9140269"><ele>501.0</ele><time>2026-05-02T08:03:21.97Z</time></trkpt><trkpt lat="45.5641064" lon="10.9141643"><ele>501.0</ele><time>2026-05-02T08:03:23.979Z</time></trkpt><trkpt lat="45.5641707" lon="10.9143277"><ele>501.0</ele><time>2026-05-02T08:03:25.98Z</time></trkpt><trkpt lat="45.5641918" lon="10.9144378"><ele>501.0</ele><time>2026-05-02T08:03:26.954Z</time></trkpt><trkpt lat="45.564202" lon="10.9145572"><ele>501.0</ele><time>2026-05-02T08:03:27.964Z</time></trkpt><trkpt lat="45.5641949" lon="10.9146792"><ele>497.5</ele><time>2026-05-02T08:03:28.973Z</time></trkpt><trkpt lat="45.5641812" lon="10.9147906"><ele>494.0</ele><time>2026-05-02T08:03:29.967Z</time></trkpt><trkpt lat="45.564166" lon="10.9148835"><ele>490.5</ele><time>2026-05-02T08:03:30.978Z</time></trkpt><trkpt lat="45.5640904" lon="10.9150111"><ele>487.0</ele><time>2026-05-02T08:03:32.967Z</time></trkpt><trkpt lat="45.5641636" lon="10.9150748"><ele>483.5</ele><time>2026-05-02T08:03:35.966Z</time></trkpt><trkpt lat="45.5642403" lon="10.9150481"><ele>480.0</ele><time>2026-05-02T08:03:36.975Z</time></trkpt><trkpt lat="45.5643232" lon="10.9150317"><ele>475.2</ele><time>2026-05-02T08:03:38.972Z</time></trkpt><trkpt lat="45.5643285" lon="10.9151462"><ele>470.4</ele><time>2026-05-02T08:03:40.975Z</time></trkpt><trkpt lat="45.5642545" lon="10.9152916"><ele>465.6</ele><time>2026-05-02T08:03:42.977Z</time></trkpt><trkpt lat="45.5642282" lon="10.9153816"><ele>460.8</ele><time>2026-05-02T08:03:43.976Z</time></trkpt><trkpt lat="45.5642086" lon="10.9154697"><ele>456.0</ele><time>2026-05-02T08:03:44.982Z</time></trkpt><trkpt lat="45.5641752" lon="10.9156304"><ele>456.0</ele><time>2026-05-02T08:03:46.98Z</time></trkpt><trkpt lat="45.5641003" lon="10.9156969"><ele>456.0</ele><time>2026-05-02T08:03:48.976Z</time></trkpt><trkpt lat="45.5640372" lon="10.9157279"><ele>456.0</ele><time>2026-05-02T08:03:49.977Z</time></trkpt><trkpt lat="45.5639748" lon="10.9157823"><ele>456.0</ele><time>2026-05-02T08:03:50.992Z</time></trkpt><trkpt lat="45.5639154" lon="10.9158422"><ele>456.0</ele><time>2026-05-02T08:03:51.973Z</time></trkpt><trkpt lat="45.5638559" lon="10.9159079"><ele>456.0</ele><time>2026-05-02T08:03:52.973Z</time></trkpt><trkpt lat="45.5637926" lon="10.9159684"><ele>457.5</ele><time>2026-05-02T08:03:53.971Z</time></trkpt><trkpt lat="45.5637277" lon="10.9160073"><ele>459.0</ele><time>2026-05-02T08:03:54.975Z</time></trkpt><trkpt lat="45.5636016" lon="10.9159915"><ele>460.5</ele><time>2026-05-02T08:03:56.966Z</time></trkpt><trkpt lat="45.5635314" lon="10.9159888"><ele>462.0</ele><time>2026-05-02T08:03:57.953Z</time></trkpt><trkpt lat="45.5634567" lon="10.9160145"><ele>463.5</ele><time>2026-05-02T08:03:58.954Z</time></trkpt><trkpt lat="45.5633797" lon="10.9160475"><ele>465.0</ele><time>2026-05-02T08:03:59.977Z</time></trkpt><trkpt lat="45.5633058" lon="10.9160843"><ele>461.1666666666667</ele><time>2026-05-02T08:04:00.967Z</time></trkpt><trkpt lat="45.5632383" lon="10.9161109"><ele>457.33333333333337</ele><time>2026-05-02T08:04:01.971Z</time></trkpt><trkpt lat="45.5631724" lon="10.9161165"><ele>453.5</ele><time>2026-05-02T08:04:02.969Z</time></trkpt><trkpt lat="45.5630894" lon="10.9161214"><ele>449.6666666666667</ele><time>2026-05-02T08:04:03.969Z</time></trkpt><trkpt lat="45.5630044" lon="10.9161403"><ele>445.83333333333337</ele><time>2026-05-02T08:04:04.957Z</time></trkpt><trkpt lat="45.5629107" lon="10.9161843"><ele>442.0</ele><time>2026-05-02T08:04:05.973Z</time></trkpt><trkpt lat="45.5628271" lon="10.9162352"><ele>439.40000000000003</ele><time>2026-05-02T08:04:06.966Z</time></trkpt><trkpt lat="45.5627505" lon="10.9162808"><ele>436.80000000000007</ele><time>2026-05-02T08:04:07.968Z</time></trkpt><trkpt lat="45.5626811" lon="10.9163223"><ele>434.2</ele><time>2026-05-02T08:04:08.979Z</time></trkpt><trkpt lat="45.5625758" lon="10.9163299"><ele>431.6</ele><time>2026-05-02T08:04:10.952Z</time></trkpt><trkpt lat="45.5624469" lon="10.916306"><ele>429.0</ele><time>2026-05-02T08:04:12.96Z</time></trkpt><trkpt lat="45.5623655" lon="10.916314"><ele>429.0</ele><time>2026-05-02T08:04:13.98Z</time></trkpt><trkpt lat="45.5622774" lon="10.9163319"><ele>429.0</ele><time>2026-05-02T08:04:14.97Z</time></trkpt><trkpt lat="45.5621885" lon="10.9163401"><ele>429.0</ele><time>2026-05-02T08:04:15.969Z</time></trkpt><trkpt lat="45.5620983" lon="10.9163544"><ele>429.0</ele><time>2026-05-02T08:04:16.969Z</time></trkpt><trkpt lat="45.56201" lon="10.9163707"><ele>429.0</ele><time>2026-05-02T08:04:17.968Z</time></trkpt><trkpt lat="45.5619235" lon="10.9163824"><ele>429.0</ele><time>2026-05-02T08:04:19.034Z</time></trkpt><trkpt lat="45.5618277" lon="10.9164428"><ele>427.8333333333333</ele><time>2026-05-02T08:04:21.031Z</time></trkpt><trkpt lat="45.5617706" lon="10.9165423"><ele>426.66666666666663</ele><time>2026-05-02T08:04:22.962Z</time></trkpt><trkpt lat="45.561706" lon="10.9166035"><ele>425.5</ele><time>2026-05-02T08:04:23.947Z</time></trkpt><trkpt lat="45.5616274" lon="10.9166429"><ele>424.3333333333333</ele><time>2026-05-02T08:04:25.033Z</time></trkpt><trkpt lat="45.5615415" lon="10.9166668"><ele>423.16666666666663</ele><time>2026-05-02T08:04:26.025Z</time></trkpt><trkpt lat="45.5614515" lon="10.9167074"><ele>422.0</ele><time>2026-05-02T08:04:26.95Z</time></trkpt><trkpt lat="45.561376" lon="10.9167621"><ele>420.8571428571429</ele><time>2026-05-02T08:04:27.961Z</time></trkpt><trkpt lat="45.5613178" lon="10.9168447"><ele>419.7142857142857</ele><time>2026-05-02T08:04:28.944Z</time></trkpt><trkpt lat="45.5612632" lon="10.916918"><ele>418.57142857142856</ele><time>2026-05-02T08:04:29.955Z</time></trkpt><trkpt lat="45.5612098" lon="10.9169784"><ele>417.42857142857144</ele><time>2026-05-02T08:04:30.958Z</time></trkpt><trkpt lat="45.561163" lon="10.917052"><ele>416.2857142857143</ele><time>2026-05-02T08:04:33.034Z</time></trkpt><trkpt lat="45.5611276" lon="10.9171418"><ele>415.14285714285717</ele><time>2026-05-02T08:04:36.966Z</time></trkpt><trkpt lat="45.561087" lon="10.9172173"><ele>414.0</ele><time>2026-05-02T08:04:42.959Z</time></trkpt><trkpt lat="45.561159" lon="10.9172706"><ele>414.0</ele><time>2026-05-02T08:04:46.015Z</time></trkpt><trkpt lat="45.5612063" lon="10.9173317"><ele>414.0</ele><time>2026-05-02T08:04:49.011Z</time></trkpt><trkpt lat="45.5612654" lon="10.9174049"><ele>414.0</ele><time>2026-05-02T08:04:50.967Z</time></trkpt><trkpt lat="45.5613229" lon="10.9175105"><ele>414.0</ele><time>2026-05-02T08:04:52.955Z</time></trkpt><trkpt lat="45.561351" lon="10.9176243"><ele>414.0</ele><time>2026-05-02T08:04:54.946Z</time></trkpt><trkpt lat="45.5613224" lon="10.9177736"><ele>414.0</ele><time>2026-05-02T08:04:56.957Z</time></trkpt><trkpt lat="45.5612958" lon="10.9178637"><ele>416.0</ele><time>2026-05-02T08:04:57.955Z</time></trkpt><trkpt lat="45.5612636" lon="10.9179492"><ele>418.0</ele><time>2026-05-02T08:04:58.944Z</time></trkpt><trkpt lat="45.5612257" lon="10.9180354"><ele>420.0</ele><time>2026-05-02T08:04:59.955Z</time></trkpt><trkpt lat="45.5611673" lon="10.9181334"><ele>422.0</ele><time>2026-05-02T08:05:00.951Z</time></trkpt><trkpt lat="45.561097" lon="10.9182534"><ele>424.0</ele><time>2026-05-02T08:05:01.957Z</time></trkpt><trkpt lat="45.5610296" lon="10.9183879"><ele>422.0</ele><time>2026-05-02T08:05:02.955Z</time></trkpt><trkpt lat="45.5609714" lon="10.9185325"><ele>420.0</ele><time>2026-05-02T08:05:03.955Z</time></trkpt><trkpt lat="45.5609118" lon="10.9186712"><ele>418.0</ele><time>2026-05-02T08:05:04.937Z</time></trkpt><trkpt lat="45.5608435" lon="10.9187995"><ele>416.0</ele><time>2026-05-02T08:05:06.043Z</time></trkpt><trkpt lat="45.5607677" lon="10.9189197"><ele>416.0</ele><time>2026-05-02T08:05:06.961Z</time></trkpt><trkpt lat="45.5606961" lon="10.919043"><ele>416.0</ele><time>2026-05-02T08:05:07.956Z</time></trkpt><trkpt lat="45.5606496" lon="10.9191676"><ele>416.0</ele><time>2026-05-02T08:05:08.953Z</time></trkpt><trkpt lat="45.5606251" lon="10.9193035"><ele>416.0</ele><time>2026-05-02T08:05:09.96Z</time></trkpt><trkpt lat="45.5606211" lon="10.9194576"><ele>416.0</ele><time>2026-05-02T08:05:10.967Z</time></trkpt><trkpt lat="45.5606311" lon="10.9196187"><ele>417.6</ele><time>2026-05-02T08:05:11.958Z</time></trkpt><trkpt lat="45.5606283" lon="10.9197616"><ele>419.20000000000005</ele><time>2026-05-02T08:05:12.964Z</time></trkpt><trkpt lat="45.5606214" lon="10.9199091"><ele>420.79999999999995</ele><time>2026-05-02T08:05:13.96Z</time></trkpt><trkpt lat="45.5606198" lon="10.9200473"><ele>422.4</ele><time>2026-05-02T08:05:14.966Z</time></trkpt><trkpt lat="45.5606474" lon="10.9201781"><ele>424.0</ele><time>2026-05-02T08:05:15.963Z</time></trkpt><trkpt lat="45.5607212" lon="10.9202216"><ele>424.0</ele><time>2026-05-02T08:05:16.956Z</time></trkpt><trkpt lat="45.5608179" lon="10.9202454"><ele>424.0</ele><time>2026-05-02T08:05:17.956Z</time></trkpt><trkpt lat="45.5609219" lon="10.9202548"><ele>424.0</ele><time>2026-05-02T08:05:18.955Z</time></trkpt><trkpt lat="45.561025" lon="10.9202546"><ele>424.0</ele><time>2026-05-02T08:05:19.955Z</time></trkpt><trkpt lat="45.5611412" lon="10.9202498"><ele>424.0</ele><time>2026-05-02T08:05:20.952Z</time></trkpt><trkpt lat="45.5612519" lon="10.9202772"><ele>429.5</ele><time>2026-05-02T08:05:21.953Z</time></trkpt><trkpt lat="45.561349" lon="10.9203428"><ele>435.0</ele><time>2026-05-02T08:05:22.953Z</time></trkpt><trkpt lat="45.5614357" lon="10.9204357"><ele>440.5</ele><time>2026-05-02T08:05:23.956Z</time></trkpt><trkpt lat="45.5615116" lon="10.9205734"><ele>446.0</ele><time>2026-05-02T08:05:24.96Z</time></trkpt><trkpt lat="45.5615674" lon="10.9207258"><ele>446.0</ele><time>2026-05-02T08:05:25.965Z</time></trkpt><trkpt lat="45.5616166" lon="10.9208868"><ele>446.0</ele><time>2026-05-02T08:05:26.96Z</time></trkpt><trkpt lat="45.5616624" lon="10.9210568"><ele>446.0</ele><time>2026-05-02T08:05:27.958Z</time></trkpt><trkpt lat="45.5617088" lon="10.9212246"><ele>446.0</ele><time>2026-05-02T08:05:28.959Z</time></trkpt><trkpt lat="45.5617513" lon="10.9213886"><ele>446.0</ele><time>2026-05-02T08:05:29.955Z</time></trkpt><trkpt lat="45.5617915" lon="10.9215443"><ele>446.0</ele><time>2026-05-02T08:05:30.958Z</time></trkpt><trkpt lat="45.5618205" lon="10.9216975"><ele>446.0</ele><time>2026-05-02T08:05:31.95Z</time></trkpt><trkpt lat="45.561839" lon="10.9218421"><ele>446.0</ele><time>2026-05-02T08:05:32.953Z</time></trkpt><trkpt lat="45.5618535" lon="10.9219694"><ele>446.0</ele><time>2026-05-02T08:05:33.95Z</time></trkpt><trkpt lat="45.5618658" lon="10.9220903"><ele>445.99999999999994</ele><time>2026-05-02T08:05:34.956Z</time></trkpt><trkpt lat="45.5618905" lon="10.9222008"><ele>446.0</ele><time>2026-05-02T08:05:35.951Z</time></trkpt><trkpt lat="45.5619268" lon="10.9223154"><ele>446.0</ele><time>2026-05-02T08:05:36.948Z</time></trkpt><trkpt lat="45.5619764" lon="10.9224196"><ele>446.0</ele><time>2026-05-02T08:05:37.956Z</time></trkpt><trkpt lat="45.5620176" lon="10.9225102"><ele>445.99999999999994</ele><time>2026-05-02T08:05:38.963Z</time></trkpt><trkpt lat="45.5620558" lon="10.9226175"><ele>446.0</ele><time>2026-05-02T08:05:40.99Z</time></trkpt><trkpt lat="45.5621316" lon="10.9226473"><ele>444.8</ele><time>2026-05-02T08:05:45.046Z</time></trkpt><trkpt lat="45.5622303" lon="10.9226597"><ele>443.6</ele><time>2026-05-02T08:05:46.95Z</time></trkpt><trkpt lat="45.5623391" lon="10.92259"><ele>442.4</ele><time>2026-05-02T08:05:48.955Z</time></trkpt><trkpt lat="45.5624129" lon="10.9225246"><ele>441.2</ele><time>2026-05-02T08:05:49.952Z</time></trkpt><trkpt lat="45.5624906" lon="10.9224667"><ele>440.0</ele><time>2026-05-02T08:05:50.962Z</time></trkpt><trkpt lat="45.5625836" lon="10.9223947"><ele>441.8</ele><time>2026-05-02T08:05:51.949Z</time></trkpt><trkpt lat="45.5626862" lon="10.9223109"><ele>443.6</ele><time>2026-05-02T08:05:52.983Z</time></trkpt><trkpt lat="45.5627865" lon="10.9222293"><ele>445.4</ele><time>2026-05-02T08:05:53.985Z</time></trkpt><trkpt lat="45.5628873" lon="10.9221603"><ele>447.2</ele><time>2026-05-02T08:05:54.963Z</time></trkpt><trkpt lat="45.5629788" lon="10.9220917"><ele>449.0</ele><time>2026-05-02T08:05:56.046Z</time></trkpt><trkpt lat="45.5630624" lon="10.922017"><ele>449.0</ele><time>2026-05-02T08:05:56.988Z</time></trkpt><trkpt lat="45.5631371" lon="10.9219314"><ele>449.0</ele><time>2026-05-02T08:05:57.979Z</time></trkpt><trkpt lat="45.5632082" lon="10.9218492"><ele>449.0</ele><time>2026-05-02T08:05:58.965Z</time></trkpt><trkpt lat="45.5632837" lon="10.9217842"><ele>449.0</ele><time>2026-05-02T08:05:59.967Z</time></trkpt><trkpt lat="45.5633563" lon="10.9217378"><ele>449.0</ele><time>2026-05-02T08:06:00.971Z</time></trkpt><trkpt lat="45.5634496" lon="10.9216883"><ele>454.6</ele><time>2026-05-02T08:06:02.969Z</time></trkpt><trkpt lat="45.5635135" lon="10.9216654"><ele>460.2</ele><time>2026-05-02T08:06:05.964Z</time></trkpt><trkpt lat="45.5634282" lon="10.9215923"><ele>465.80000000000007</ele><time>2026-05-02T08:06:21.952Z</time></trkpt><trkpt lat="45.5632967" lon="10.9215466"><ele>471.40000000000003</ele><time>2026-05-02T08:06:23.974Z</time></trkpt><trkpt lat="45.5632173" lon="10.9215274"><ele>477.0</ele><time>2026-05-02T08:06:25.04Z</time></trkpt><trkpt lat="45.563135" lon="10.9215427"><ele>477.0</ele><time>2026-05-02T08:06:25.963Z</time></trkpt><trkpt lat="45.5630625" lon="10.9215477"><ele>477.00000000000006</ele><time>2026-05-02T08:06:26.964Z</time></trkpt><trkpt lat="45.5629973" lon="10.9215586"><ele>477.00000000000006</ele><time>2026-05-02T08:06:27.973Z</time></trkpt><trkpt lat="45.5628844" lon="10.9216824"><ele>477.0</ele><time>2026-05-02T08:06:29.965Z</time></trkpt><trkpt lat="45.5628174" lon="10.921772"><ele>477.0</ele><time>2026-05-02T08:06:31.035Z</time></trkpt><trkpt lat="45.5627479" lon="10.9218548"><ele>476.1666666666667</ele><time>2026-05-02T08:06:31.968Z</time></trkpt><trkpt lat="45.5626744" lon="10.9219194"><ele>475.33333333333337</ele><time>2026-05-02T08:06:32.966Z</time></trkpt><trkpt lat="45.5625743" lon="10.9219514"><ele>474.5</ele><time>2026-05-02T08:06:34.965Z</time></trkpt><trkpt lat="45.5625573" lon="10.9218593"><ele>473.6666666666667</ele><time>2026-05-02T08:06:36.97Z</time></trkpt><trkpt lat="45.5625565" lon="10.9217663"><ele>472.83333333333337</ele><time>2026-05-02T08:06:37.971Z</time></trkpt><trkpt lat="45.56256" lon="10.92161"><ele>472.0</ele><time>2026-05-02T08:06:38.972Z</time></trkpt><trkpt lat="45.5625542" lon="10.9214724"><ele>472.00000000000006</ele><time>2026-05-02T08:06:39.97Z</time></trkpt><trkpt lat="45.5625681" lon="10.9213265"><ele>472.0</ele><time>2026-05-02T08:06:40.969Z</time></trkpt><trkpt lat="45.5625978" lon="10.9211903"><ele>472.0</ele><time>2026-05-02T08:06:41.97Z</time></trkpt><trkpt lat="45.5626373" lon="10.9210758"><ele>472.0</ele><time>2026-05-02T08:06:42.966Z</time></trkpt><trkpt lat="45.5626671" lon="10.9209826"><ele>472.00000000000006</ele><time>2026-05-02T08:06:43.958Z</time></trkpt><trkpt lat="45.5627089" lon="10.9208844"><ele>472.0</ele><time>2026-05-02T08:06:44.968Z</time></trkpt><trkpt lat="45.5627753" lon="10.9207712"><ele>473.0</ele><time>2026-05-02T08:06:45.972Z</time></trkpt><trkpt lat="45.5628565" lon="10.9206298"><ele>474.0</ele><time>2026-05-02T08:06:46.98Z</time></trkpt><trkpt lat="45.562943" lon="10.9204858"><ele>475.0</ele><time>2026-05-02T08:06:47.965Z</time></trkpt><trkpt lat="45.5630119" lon="10.9203315"><ele>476.0</ele><time>2026-05-02T08:06:48.972Z</time></trkpt><trkpt lat="45.5630545" lon="10.9201652"><ele>480.4</ele><time>2026-05-02T08:06:49.963Z</time></trkpt><trkpt lat="45.5630835" lon="10.9199796"><ele>484.8</ele><time>2026-05-02T08:06:50.981Z</time></trkpt><trkpt lat="45.5631191" lon="10.9198311"><ele>489.19999999999993</ele><time>2026-05-02T08:06:51.966Z</time></trkpt><trkpt lat="45.5631674" lon="10.9197293"><ele>493.59999999999997</ele><time>2026-05-02T08:06:52.962Z</time></trkpt><trkpt lat="45.5632214" lon="10.9196384"><ele>498.0</ele><time>2026-05-02T08:06:53.962Z</time></trkpt><trkpt lat="45.5632964" lon="10.9195649"><ele>498.0</ele><time>2026-05-02T08:06:54.978Z</time></trkpt><trkpt lat="45.5633914" lon="10.919498"><ele>497.99999999999994</ele><time>2026-05-02T08:06:56.028Z</time></trkpt><trkpt lat="45.5634812" lon="10.9194375"><ele>497.99999999999994</ele><time>2026-05-02T08:06:56.986Z</time></trkpt><trkpt lat="45.5635751" lon="10.9194167"><ele>498.0</ele><time>2026-05-02T08:06:58.044Z</time></trkpt><trkpt lat="45.563677" lon="10.9194228"><ele>498.0</ele><time>2026-05-02T08:06:58.971Z</time></trkpt><trkpt lat="45.5637902" lon="10.9194135"><ele>501.75</ele><time>2026-05-02T08:06:59.978Z</time></trkpt><trkpt lat="45.5639166" lon="10.9194249"><ele>505.5</ele><time>2026-05-02T08:07:00.966Z</time></trkpt><trkpt lat="45.5640454" lon="10.9194392"><ele>509.25</ele><time>2026-05-02T08:07:01.972Z</time></trkpt><trkpt lat="45.5641696" lon="10.9194427"><ele>513.0</ele><time>2026-05-02T08:07:02.969Z</time></trkpt><trkpt lat="45.5642839" lon="10.9194286"><ele>513.0</ele><time>2026-05-02T08:07:03.961Z</time></trkpt><trkpt lat="45.5643834" lon="10.9193979"><ele>513.0</ele><time>2026-05-02T08:07:05.038Z</time></trkpt><trkpt lat="45.5644835" lon="10.9193503"><ele>513.0</ele><time>2026-05-02T08:07:06.036Z</time></trkpt><trkpt lat="45.5645671" lon="10.9192781"><ele>513.0</ele><time>2026-05-02T08:07:06.979Z</time></trkpt><trkpt lat="45.5646264" lon="10.919182"><ele>513.0</ele><time>2026-05-02T08:07:07.965Z</time></trkpt><trkpt lat="45.5646591" lon="10.9190638"><ele>512.6666666666666</ele><time>2026-05-02T08:07:08.969Z</time></trkpt><trkpt lat="45.5646908" lon="10.9189421"><ele>512.3333333333334</ele><time>2026-05-02T08:07:09.969Z</time></trkpt><trkpt lat="45.5647227" lon="10.9188344"><ele>512.0</ele><time>2026-05-02T08:07:10.971Z</time></trkpt><trkpt lat="45.5647774" lon="10.9187567"><ele>511.6666666666667</ele><time>2026-05-02T08:07:11.972Z</time></trkpt><trkpt lat="45.5648591" lon="10.9186957"><ele>511.33333333333337</ele><time>2026-05-02T08:07:12.953Z</time></trkpt><trkpt lat="45.5649441" lon="10.9186448"><ele>511.0</ele><time>2026-05-02T08:07:14.05Z</time></trkpt><trkpt lat="45.5650401" lon="10.9186048"><ele>511.0</ele><time>2026-05-02T08:07:15.032Z</time></trkpt><trkpt lat="45.5651353" lon="10.9185666"><ele>511.0</ele><time>2026-05-02T08:07:15.965Z</time></trkpt><trkpt lat="45.5652291" lon="10.9185206"><ele>511.0</ele><time>2026-05-02T08:07:16.963Z</time></trkpt><trkpt lat="45.5653126" lon="10.9184412"><ele>511.0</ele><time>2026-05-02T08:07:17.958Z</time></trkpt><trkpt lat="45.5653789" lon="10.9183505"><ele>511.0</ele><time>2026-05-02T08:07:18.961Z</time></trkpt><trkpt lat="45.5654285" lon="10.9182537"><ele>514.8333333333334</ele><time>2026-05-02T08:07:19.966Z</time></trkpt><trkpt lat="45.5654746" lon="10.9181836"><ele>518.6666666666667</ele><time>2026-05-02T08:07:20.96Z</time></trkpt><trkpt lat="45.5655213" lon="10.9180993"><ele>522.5</ele><time>2026-05-02T08:07:22.967Z</time></trkpt><trkpt lat="45.5655376" lon="10.9180063"><ele>526.3333333333334</ele><time>2026-05-02T08:07:25.962Z</time></trkpt><trkpt lat="45.565555" lon="10.9178383"><ele>530.1666666666666</ele><time>2026-05-02T08:07:27.975Z</time></trkpt><trkpt lat="45.5655784" lon="10.9177326"><ele>534.0</ele><time>2026-05-02T08:07:28.979Z</time></trkpt><trkpt lat="45.5656068" lon="10.9176228"><ele>533.5</ele><time>2026-05-02T08:07:29.964Z</time></trkpt><trkpt lat="45.5656393" lon="10.9175082"><ele>533.0</ele><time>2026-05-02T08:07:30.96Z</time></trkpt><trkpt lat="45.5656613" lon="10.9173874"><ele>532.5</ele><time>2026-05-02T08:07:31.963Z</time></trkpt><trkpt lat="45.5656678" lon="10.9172472"><ele>532.0</ele><time>2026-05-02T08:07:32.964Z</time></trkpt><trkpt lat="45.5656616" lon="10.9171411"><ele>531.5</ele><time>2026-05-02T08:07:33.944Z</time></trkpt><trkpt lat="45.5656593" lon="10.9170441"><ele>531.0</ele><time>2026-05-02T08:07:34.987Z</time></trkpt><trkpt lat="45.5656611" lon="10.9169461"><ele>531.0</ele><time>2026-05-02T08:07:35.967Z</time></trkpt><trkpt lat="45.5656611" lon="10.9168432"><ele>531.0</ele><time>2026-05-02T08:07:36.967Z</time></trkpt><trkpt lat="45.5656632" lon="10.916732"><ele>531.0</ele><time>2026-05-02T08:07:37.967Z</time></trkpt><trkpt lat="45.565655" lon="10.9166188"><ele>531.0</ele><time>2026-05-02T08:07:38.958Z</time></trkpt><trkpt lat="45.565656" lon="10.9165101"><ele>531.0</ele><time>2026-05-02T08:07:39.962Z</time></trkpt><trkpt lat="45.5656584" lon="10.9163959"><ele>531.0</ele><time>2026-05-02T08:07:40.968Z</time></trkpt><trkpt lat="45.5656659" lon="10.9162993"><ele>529.6</ele><time>2026-05-02T08:07:41.967Z</time></trkpt><trkpt lat="45.5656792" lon="10.9161862"><ele>528.2</ele><time>2026-05-02T08:07:44.029Z</time></trkpt><trkpt lat="45.5657411" lon="10.9162412"><ele>526.8</ele><time>2026-05-02T08:07:50.963Z</time></trkpt><trkpt lat="45.5658236" lon="10.9163674"><ele>525.4</ele><time>2026-05-02T08:07:52.959Z</time></trkpt><trkpt lat="45.5659066" lon="10.9165241"><ele>524.0</ele><time>2026-05-02T08:07:54.963Z</time></trkpt><trkpt lat="45.5659487" lon="10.9166106"><ele>524.0</ele><time>2026-05-02T08:07:55.951Z</time></trkpt><trkpt lat="45.5659775" lon="10.9167033"><ele>524.0</ele><time>2026-05-02T08:07:56.962Z</time></trkpt><trkpt lat="45.5660006" lon="10.9167915"><ele>524.0</ele><time>2026-05-02T08:07:57.968Z</time></trkpt><trkpt lat="45.5660208" lon="10.9168919"><ele>524.0</ele><time>2026-05-02T08:07:58.97Z</time></trkpt><trkpt lat="45.566048" lon="10.9169837"><ele>524.0</ele><time>2026-05-02T08:07:59.961Z</time></trkpt><trkpt lat="45.5660742" lon="10.9170836"><ele>524.0</ele><time>2026-05-02T08:08:00.972Z</time></trkpt><trkpt lat="45.5660981" lon="10.9171928"><ele>524.0</ele><time>2026-05-02T08:08:01.958Z</time></trkpt><trkpt lat="45.5661247" lon="10.9172955"><ele>525.4</ele><time>2026-05-02T08:08:02.963Z</time></trkpt><trkpt lat="45.5661551" lon="10.9173982"><ele>526.8</ele><time>2026-05-02T08:08:03.962Z</time></trkpt><trkpt lat="45.5661863" lon="10.9174794"><ele>528.2</ele><time>2026-05-02T08:08:04.969Z</time></trkpt><trkpt lat="45.5662193" lon="10.9175596"><ele>529.6</ele><time>2026-05-02T08:08:05.965Z</time></trkpt><trkpt lat="45.5662795" lon="10.9177229"><ele>531.0</ele><time>2026-05-02T08:08:07.968Z</time></trkpt><trkpt lat="45.5663378" lon="10.9178804"><ele>537.2</ele><time>2026-05-02T08:08:09.954Z</time></trkpt><trkpt lat="45.5663888" lon="10.9180418"><ele>543.4000000000001</ele><time>2026-05-02T08:08:11.961Z</time></trkpt><trkpt lat="45.5664284" lon="10.9182137"><ele>549.6</ele><time>2026-05-02T08:08:13.97Z</time></trkpt><trkpt lat="45.5664527" lon="10.9182993"><ele>555.8000000000001</ele><time>2026-05-02T08:08:14.969Z</time></trkpt><trkpt lat="45.5664844" lon="10.9183871"><ele>562.0</ele><time>2026-05-02T08:08:15.943Z</time></trkpt><trkpt lat="45.5665229" lon="10.9184663"><ele>562.0000000000001</ele><time>2026-05-02T08:08:16.957Z</time></trkpt><trkpt lat="45.566568" lon="10.918543"><ele>562.0</ele><time>2026-05-02T08:08:17.961Z</time></trkpt><trkpt lat="45.5666153" lon="10.9186122"><ele>562.0</ele><time>2026-05-02T08:08:18.966Z</time></trkpt><trkpt lat="45.5666695" lon="10.9186788"><ele>562.0</ele><time>2026-05-02T08:08:19.959Z</time></trkpt><trkpt lat="45.5667309" lon="10.9187493"><ele>562.0</ele><time>2026-05-02T08:08:20.973Z</time></trkpt><trkpt lat="45.5667965" lon="10.9188126"><ele>562.0000000000001</ele><time>2026-05-02T08:08:21.955Z</time></trkpt><trkpt lat="45.5668571" lon="10.9188821"><ele>562.0</ele><time>2026-05-02T08:08:22.965Z</time></trkpt><trkpt lat="45.5669194" lon="10.918948"><ele>562.0</ele><time>2026-05-02T08:08:23.967Z</time></trkpt><trkpt lat="45.5670011" lon="10.9190176"><ele>562.0</ele><time>2026-05-02T08:08:24.966Z</time></trkpt><trkpt lat="45.5670947" lon="10.9190813"><ele>562.0</ele><time>2026-05-02T08:08:25.96Z</time></trkpt><trkpt lat="45.5671891" lon="10.919132"><ele>562.0</ele><time>2026-05-02T08:08:26.959Z</time></trkpt><trkpt lat="45.5672831" lon="10.919192"><ele>562.0</ele><time>2026-05-02T08:08:27.968Z</time></trkpt><trkpt lat="45.567375" lon="10.9192639"><ele>566.5</ele><time>2026-05-02T08:08:28.961Z</time></trkpt><trkpt lat="45.567465" lon="10.9193586"><ele>571.0</ele><time>2026-05-02T08:08:29.971Z</time></trkpt><trkpt lat="45.5675576" lon="10.9194703"><ele>575.5</ele><time>2026-05-02T08:08:30.969Z</time></trkpt><trkpt lat="45.5676521" lon="10.9195738"><ele>580.0</ele><time>2026-05-02T08:08:31.962Z</time></trkpt><trkpt lat="45.5677358" lon="10.9196607"><ele>580.0</ele><time>2026-05-02T08:08:32.965Z</time></trkpt><trkpt lat="45.5678047" lon="10.9197502"><ele>580.0</ele><time>2026-05-02T08:08:33.968Z</time></trkpt><trkpt lat="45.5678706" lon="10.9198031"><ele>580.0</ele><time>2026-05-02T08:08:34.964Z</time></trkpt><trkpt lat="45.5679857" lon="10.919814"><ele>580.0</ele><time>2026-05-02T08:08:36.972Z</time></trkpt><trkpt lat="45.5680872" lon="10.9199095"><ele>580.0</ele><time>2026-05-02T08:08:38.971Z</time></trkpt><trkpt lat="45.5681447" lon="10.9199878"><ele>583.3333333333334</ele><time>2026-05-02T08:08:40.955Z</time></trkpt><trkpt lat="45.5682103" lon="10.9199564"><ele>586.6666666666667</ele><time>2026-05-02T08:08:42.965Z</time></trkpt><trkpt lat="45.5683208" lon="10.9198769"><ele>590.0</ele><time>2026-05-02T08:08:44.973Z</time></trkpt><trkpt lat="45.5683982" lon="10.919849"><ele>593.3333333333334</ele><time>2026-05-02T08:08:45.971Z</time></trkpt><trkpt lat="45.5684689" lon="10.9198377"><ele>596.6666666666666</ele><time>2026-05-02T08:08:46.968Z</time></trkpt><trkpt lat="45.5685605" lon="10.9198798"><ele>600.0</ele><time>2026-05-02T08:08:48.966Z</time></trkpt><trkpt lat="45.5686101" lon="10.9199422"><ele>600.0</ele><time>2026-05-02T08:08:49.957Z</time></trkpt><trkpt lat="45.5686606" lon="10.9200144"><ele>600.0</ele><time>2026-05-02T08:08:50.967Z</time></trkpt><trkpt lat="45.5687192" lon="10.9200968"><ele>600.0</ele><time>2026-05-02T08:08:51.968Z</time></trkpt><trkpt lat="45.5687708" lon="10.9201893"><ele>600.0</ele><time>2026-05-02T08:08:52.967Z</time></trkpt><trkpt lat="45.5688213" lon="10.920274"><ele>600.0</ele><time>2026-05-02T08:08:53.97Z</time></trkpt><trkpt lat="45.5688703" lon="10.9203672"><ele>600.0</ele><time>2026-05-02T08:08:54.972Z</time></trkpt><trkpt lat="45.5689063" lon="10.9204641"><ele>601.8333333333334</ele><time>2026-05-02T08:08:55.968Z</time></trkpt><trkpt lat="45.5689384" lon="10.9205563"><ele>603.6666666666666</ele><time>2026-05-02T08:08:56.965Z</time></trkpt><trkpt lat="45.5689674" lon="10.9206587"><ele>605.5</ele><time>2026-05-02T08:08:57.955Z</time></trkpt><trkpt lat="45.5689843" lon="10.9207604"><ele>607.3333333333333</ele><time>2026-05-02T08:08:58.965Z</time></trkpt><trkpt lat="45.5689921" lon="10.9208701"><ele>609.1666666666666</ele><time>2026-05-02T08:08:59.961Z</time></trkpt><trkpt lat="45.5690114" lon="10.9209805"><ele>611.0</ele><time>2026-05-02T08:09:00.96Z</time></trkpt><trkpt lat="45.5690311" lon="10.9210914"><ele>611.5</ele><time>2026-05-02T08:09:01.964Z</time></trkpt><trkpt lat="45.5690624" lon="10.9211865"><ele>612.0</ele><time>2026-05-02T08:09:02.963Z</time></trkpt><trkpt lat="45.5690954" lon="10.9212888"><ele>612.5</ele><time>2026-05-02T08:09:03.961Z</time></trkpt><trkpt lat="45.5691195" lon="10.9213944"><ele>613.0</ele><time>2026-05-02T08:09:04.964Z</time></trkpt><trkpt lat="45.5691315" lon="10.9215083"><ele>613.5</ele><time>2026-05-02T08:09:05.962Z</time></trkpt><trkpt lat="45.569164" lon="10.9216251"><ele>614.0</ele><time>2026-05-02T08:09:06.962Z</time></trkpt><trkpt lat="45.5692217" lon="10.9217337"><ele>614.0</ele><time>2026-05-02T08:09:07.966Z</time></trkpt><trkpt lat="45.569295" lon="10.921833"><ele>614.0</ele><time>2026-05-02T08:09:08.967Z</time></trkpt><trkpt lat="45.5693716" lon="10.9219249"><ele>614.0</ele><time>2026-05-02T08:09:09.969Z</time></trkpt><trkpt lat="45.5694474" lon="10.9220221"><ele>614.0</ele><time>2026-05-02T08:09:10.966Z</time></trkpt><trkpt lat="45.5695291" lon="10.9221247"><ele>614.0</ele><time>2026-05-02T08:09:11.947Z</time></trkpt><trkpt lat="45.5696135" lon="10.9222246"><ele>616.3333333333333</ele><time>2026-05-02T08:09:12.967Z</time></trkpt><trkpt lat="45.5696841" lon="10.9223274"><ele>618.6666666666666</ele><time>2026-05-02T08:09:13.958Z</time></trkpt><trkpt lat="45.569756" lon="10.9224145"><ele>621.0</ele><time>2026-05-02T08:09:14.957Z</time></trkpt><trkpt lat="45.5698415" lon="10.9224767"><ele>623.3333333333334</ele><time>2026-05-02T08:09:15.964Z</time></trkpt><trkpt lat="45.5699173" lon="10.9225128"><ele>625.6666666666667</ele><time>2026-05-02T08:09:16.96Z</time></trkpt><trkpt lat="45.5699922" lon="10.9225219"><ele>628.0</ele><time>2026-05-02T08:09:17.959Z</time></trkpt><trkpt lat="45.5700591" lon="10.9225367"><ele>626.8</ele><time>2026-05-02T08:09:18.966Z</time></trkpt><trkpt lat="45.5701373" lon="10.9225653"><ele>625.5999999999999</ele><time>2026-05-02T08:09:19.958Z</time></trkpt><trkpt lat="45.5702161" lon="10.922617"><ele>624.4000000000001</ele><time>2026-05-02T08:09:20.974Z</time></trkpt><trkpt lat="45.5702959" lon="10.9227054"><ele>623.2</ele><time>2026-05-02T08:09:21.97Z</time></trkpt><trkpt lat="45.5703655" lon="10.9228037"><ele>622.0</ele><time>2026-05-02T08:09:22.968Z</time></trkpt><trkpt lat="45.5704394" lon="10.9229001"><ele>627.4000000000001</ele><time>2026-05-02T08:09:23.969Z</time></trkpt><trkpt lat="45.5705127" lon="10.9229847"><ele>632.8000000000001</ele><time>2026-05-02T08:09:24.97Z</time></trkpt><trkpt lat="45.5705901" lon="10.9230727"><ele>638.2</ele><time>2026-05-02T08:09:25.966Z</time></trkpt><trkpt lat="45.570666" lon="10.9231632"><ele>643.6</ele><time>2026-05-02T08:09:26.968Z</time></trkpt><trkpt lat="45.5707422" lon="10.9232461"><ele>649.0</ele><time>2026-05-02T08:09:27.979Z</time></trkpt><trkpt lat="45.570801" lon="10.9233399"><ele>647.3333333333334</ele><time>2026-05-02T08:09:28.967Z</time></trkpt><trkpt lat="45.5708505" lon="10.9234257"><ele>645.6666666666667</ele><time>2026-05-02T08:09:29.961Z</time></trkpt><trkpt lat="45.5709031" lon="10.9235112"><ele>644.0</ele><time>2026-05-02T08:09:31.963Z</time></trkpt><trkpt lat="45.570953" lon="10.9235896"><ele>642.3333333333334</ele><time>2026-05-02T08:09:35.966Z</time></trkpt><trkpt lat="45.5710251" lon="10.9236032"><ele>640.6666666666666</ele><time>2026-05-02T08:09:38.964Z</time></trkpt><trkpt lat="45.57107" lon="10.923694"><ele>639.0</ele><time>2026-05-02T08:09:41.963Z</time></trkpt><trkpt lat="45.5711135" lon="10.9237737"><ele>643.8333333333334</ele><time>2026-05-02T08:09:43.959Z</time></trkpt><trkpt lat="45.5711966" lon="10.9237271"><ele>648.6666666666666</ele><time>2026-05-02T08:09:46.969Z</time></trkpt><trkpt lat="45.5712305" lon="10.9236421"><ele>653.5</ele><time>2026-05-02T08:09:48.958Z</time></trkpt><trkpt lat="45.5712842" lon="10.9235616"><ele>658.3333333333333</ele><time>2026-05-02T08:09:51.958Z</time></trkpt><trkpt lat="45.5713263" lon="10.9236624"><ele>663.1666666666666</ele><time>2026-05-02T08:09:55.964Z</time></trkpt><trkpt lat="45.571364" lon="10.9237883"><ele>668.0</ele><time>2026-05-02T08:09:58.968Z</time></trkpt><trkpt lat="45.5714219" lon="10.9238617"><ele>668.0</ele><time>2026-05-02T08:10:00.963Z</time></trkpt><trkpt lat="45.571511" lon="10.9239317"><ele>668.0</ele><time>2026-05-02T08:10:02.971Z</time></trkpt><trkpt lat="45.5716154" lon="10.9240073"><ele>668.0</ele><time>2026-05-02T08:10:04.959Z</time></trkpt><trkpt lat="45.5716717" lon="10.9241022"><ele>668.0</ele><time>2026-05-02T08:10:06.957Z</time></trkpt><trkpt lat="45.5717211" lon="10.9242039"><ele>668.0</ele><time>2026-05-02T08:10:08.955Z</time></trkpt><trkpt lat="45.5717851" lon="10.9242606"><ele>666.5999999999999</ele><time>2026-05-02T08:10:10.966Z</time></trkpt><trkpt lat="45.571886" lon="10.924307"><ele>665.1999999999999</ele><time>2026-05-02T08:10:12.973Z</time></trkpt><trkpt lat="45.5719463" lon="10.9243345"><ele>663.8</ele><time>2026-05-02T08:10:13.969Z</time></trkpt><trkpt lat="45.5720684" lon="10.9243696"><ele>662.4</ele><time>2026-05-02T08:10:15.968Z</time></trkpt><trkpt lat="45.572174" lon="10.9243637"><ele>661.0</ele><time>2026-05-02T08:10:17.967Z</time></trkpt><trkpt lat="45.5722907" lon="10.924351"><ele>661.0</ele><time>2026-05-02T08:10:19.972Z</time></trkpt><trkpt lat="45.5724189" lon="10.9243658"><ele>661.0</ele><time>2026-05-02T08:10:21.956Z</time></trkpt><trkpt lat="45.572494" lon="10.9243742"><ele>661.0</ele><time>2026-05-02T08:10:22.965Z</time></trkpt><trkpt lat="45.572558" lon="10.9243784"><ele>661.0</ele><time>2026-05-02T08:10:23.964Z</time></trkpt><trkpt lat="45.5726241" lon="10.9243774"><ele>661.0</ele><time>2026-05-02T08:10:24.969Z</time></trkpt><trkpt lat="45.5726895" lon="10.9243719"><ele>661.0</ele><time>2026-05-02T08:10:25.973Z</time></trkpt><trkpt lat="45.5727538" lon="10.9243756"><ele>661.0</ele><time>2026-05-02T08:10:26.963Z</time></trkpt><trkpt lat="45.5728284" lon="10.924372"><ele>661.0</ele><time>2026-05-02T08:10:27.96Z</time></trkpt><trkpt lat="45.572902" lon="10.9243701"><ele>661.0</ele><time>2026-05-02T08:10:28.969Z</time></trkpt><trkpt lat="45.5729759" lon="10.9243605"><ele>661.0</ele><time>2026-05-02T08:10:29.968Z</time></trkpt><trkpt lat="45.5730486" lon="10.9243517"><ele>661.0</ele><time>2026-05-02T08:10:30.965Z</time></trkpt><trkpt lat="45.5731234" lon="10.9243359"><ele>661.0</ele><time>2026-05-02T08:10:31.965Z</time></trkpt><trkpt lat="45.573201" lon="10.9243126"><ele>662.8333333333334</ele><time>2026-05-02T08:10:32.965Z</time></trkpt><trkpt lat="45.5732783" lon="10.9242926"><ele>664.6666666666667</ele><time>2026-05-02T08:10:33.956Z</time></trkpt><trkpt lat="45.5733531" lon="10.924275"><ele>666.5</ele><time>2026-05-02T08:10:34.968Z</time></trkpt><trkpt lat="45.5734213" lon="10.924254"><ele>668.3333333333334</ele><time>2026-05-02T08:10:35.967Z</time></trkpt><trkpt lat="45.5735033" lon="10.9242439"><ele>670.1666666666666</ele><time>2026-05-02T08:10:36.958Z</time></trkpt><trkpt lat="45.5735815" lon="10.9242422"><ele>672.0</ele><time>2026-05-02T08:10:37.948Z</time></trkpt><trkpt lat="45.5736609" lon="10.9242338"><ele>675.0</ele><time>2026-05-02T08:10:38.975Z</time></trkpt><trkpt lat="45.5737478" lon="10.9242218"><ele>678.0</ele><time>2026-05-02T08:10:39.966Z</time></trkpt><trkpt lat="45.5738212" lon="10.9242103"><ele>681.0</ele><time>2026-05-02T08:10:40.969Z</time></trkpt><trkpt lat="45.573904" lon="10.9241945"><ele>684.0</ele><time>2026-05-02T08:10:41.969Z</time></trkpt><trkpt lat="45.5739825" lon="10.9241725"><ele>687.0</ele><time>2026-05-02T08:10:42.968Z</time></trkpt><trkpt lat="45.5740599" lon="10.9241658"><ele>690.0</ele><time>2026-05-02T08:10:43.97Z</time></trkpt><trkpt lat="45.574133" lon="10.9241563"><ele>690.0</ele><time>2026-05-02T08:10:44.971Z</time></trkpt><trkpt lat="45.5742508" lon="10.9241202"><ele>690.0</ele><time>2026-05-02T08:10:46.968Z</time></trkpt><trkpt lat="45.5743456" lon="10.9240523"><ele>690.0</ele><time>2026-05-02T08:10:48.978Z</time></trkpt><trkpt lat="45.5744164" lon="10.9240218"><ele>690.0</ele><time>2026-05-02T08:10:50.964Z</time></trkpt><trkpt lat="45.5744912" lon="10.924001"><ele>690.0</ele><time>2026-05-02T08:10:53.963Z</time></trkpt><trkpt lat="45.5745804" lon="10.9240423"><ele>690.5</ele><time>2026-05-02T08:10:56.963Z</time></trkpt><trkpt lat="45.5746558" lon="10.924126"><ele>691.0</ele><time>2026-05-02T08:10:58.961Z</time></trkpt><trkpt lat="45.5747035" lon="10.9241996"><ele>691.5</ele><time>2026-05-02T08:11:00.954Z</time></trkpt><trkpt lat="45.5747605" lon="10.9242527"><ele>692.0</ele><time>2026-05-02T08:11:03.956Z</time></trkpt><trkpt lat="45.5748168" lon="10.924178"><ele>692.5</ele><time>2026-05-02T08:11:07.959Z</time></trkpt><trkpt lat="45.5748018" lon="10.9240643"><ele>693.0</ele><time>2026-05-02T08:11:11.959Z</time></trkpt><trkpt lat="45.5748188" lon="10.9239539"><ele>693.0</ele><time>2026-05-02T08:11:14.959Z</time></trkpt><trkpt lat="45.5748678" lon="10.9238635"><ele>693.0</ele><time>2026-05-02T08:11:17.98Z</time></trkpt><trkpt lat="45.5749511" lon="10.9238275"><ele>693.0</ele><time>2026-05-02T08:11:20.984Z</time></trkpt><trkpt lat="45.5750179" lon="10.9238175"><ele>693.0</ele><time>2026-05-02T08:11:22.976Z</time></trkpt><trkpt lat="45.5750931" lon="10.9238305"><ele>693.0</ele><time>2026-05-02T08:11:24.982Z</time></trkpt><trkpt lat="45.575168" lon="10.9238638"><ele>693.0</ele><time>2026-05-02T08:11:28.037Z</time></trkpt><trkpt lat="45.5752486" lon="10.9239228"><ele>693.0</ele><time>2026-05-02T08:11:30.97Z</time></trkpt><trkpt lat="45.5753177" lon="10.9239741"><ele>693.0</ele><time>2026-05-02T08:11:32.977Z</time></trkpt><trkpt lat="45.5753986" lon="10.9240189"><ele>693.0</ele><time>2026-05-02T08:11:35.048Z</time></trkpt><trkpt lat="45.5755234" lon="10.9240803"><ele>693.0</ele><time>2026-05-02T08:11:36.974Z</time></trkpt><trkpt lat="45.5755817" lon="10.9241148"><ele>693.0</ele><time>2026-05-02T08:11:37.975Z</time></trkpt><trkpt lat="45.5756471" lon="10.92415"><ele>693.0</ele><time>2026-05-02T08:11:38.977Z</time></trkpt><trkpt lat="45.5757482" lon="10.9242285"><ele>692.8</ele><time>2026-05-02T08:11:40.975Z</time></trkpt><trkpt lat="45.5758065" lon="10.9242771"><ele>692.5999999999999</ele><time>2026-05-02T08:11:41.992Z</time></trkpt><trkpt lat="45.5758841" lon="10.9243816"><ele>692.4000000000001</ele><time>2026-05-02T08:11:44.049Z</time></trkpt><trkpt lat="45.5759817" lon="10.9245356"><ele>692.2</ele><time>2026-05-02T08:11:46.959Z</time></trkpt><trkpt lat="45.5760409" lon="10.9246325"><ele>692.0</ele><time>2026-05-02T08:11:48.963Z</time></trkpt><trkpt lat="45.5761025" lon="10.9247109"><ele>692.0</ele><time>2026-05-02T08:11:51.044Z</time></trkpt><trkpt lat="45.5761784" lon="10.9247926"><ele>692.0</ele><time>2026-05-02T08:11:52.96Z</time></trkpt><trkpt lat="45.5762685" lon="10.9248681"><ele>692.0</ele><time>2026-05-02T08:11:54.955Z</time></trkpt><trkpt lat="45.5763378" lon="10.9249114"><ele>692.0</ele><time>2026-05-02T08:11:55.953Z</time></trkpt><trkpt lat="45.5764028" lon="10.9249651"><ele>692.0</ele><time>2026-05-02T08:11:56.956Z</time></trkpt><trkpt lat="45.5764688" lon="10.9250236"><ele>692.0</ele><time>2026-05-02T08:11:57.952Z</time></trkpt><trkpt lat="45.5765327" lon="10.9250844"><ele>690.8333333333333</ele><time>2026-05-02T08:11:58.959Z</time></trkpt><trkpt lat="45.5765949" lon="10.9251444"><ele>689.6666666666666</ele><time>2026-05-02T08:11:59.968Z</time></trkpt><trkpt lat="45.576651" lon="10.9252148"><ele>688.5</ele><time>2026-05-02T08:12:00.951Z</time></trkpt><trkpt lat="45.5766972" lon="10.9252774"><ele>687.3333333333334</ele><time>2026-05-02T08:12:01.957Z</time></trkpt><trkpt lat="45.5767585" lon="10.9253308"><ele>686.1666666666667</ele><time>2026-05-02T08:12:02.955Z</time></trkpt><trkpt lat="45.5768182" lon="10.9253841"><ele>685.0</ele><time>2026-05-02T08:12:03.957Z</time></trkpt><trkpt lat="45.5769111" lon="10.9255028"><ele>685.0</ele><time>2026-05-02T08:12:06.014Z</time></trkpt><trkpt lat="45.577001" lon="10.9256124"><ele>685.0</ele><time>2026-05-02T08:12:07.953Z</time></trkpt><trkpt lat="45.5771032" lon="10.9256772"><ele>685.0</ele><time>2026-05-02T08:12:09.953Z</time></trkpt><trkpt lat="45.5772218" lon="10.9256849"><ele>685.0</ele><time>2026-05-02T08:12:11.951Z</time></trkpt><trkpt lat="45.5772981" lon="10.9256818"><ele>685.0</ele><time>2026-05-02T08:12:12.965Z</time></trkpt><trkpt lat="45.5773714" lon="10.9256786"><ele>681.6666666666667</ele><time>2026-05-02T08:12:13.979Z</time></trkpt><trkpt lat="45.5774985" lon="10.9257004"><ele>678.3333333333334</ele><time>2026-05-02T08:12:15.949Z</time></trkpt><trkpt lat="45.5775585" lon="10.9257291"><ele>675.0</ele><time>2026-05-02T08:12:16.959Z</time></trkpt><trkpt lat="45.5776279" lon="10.9257504"><ele>671.6666666666666</ele><time>2026-05-02T08:12:17.963Z</time></trkpt><trkpt lat="45.5777023" lon="10.9257737"><ele>668.3333333333333</ele><time>2026-05-02T08:12:18.966Z</time></trkpt><trkpt lat="45.5777882" lon="10.9257879"><ele>665.0</ele><time>2026-05-02T08:12:19.964Z</time></trkpt><trkpt lat="45.5778615" lon="10.9258042"><ele>664.1666666666666</ele><time>2026-05-02T08:12:20.956Z</time></trkpt><trkpt lat="45.5779823" lon="10.925827"><ele>663.3333333333333</ele><time>2026-05-02T08:12:22.96Z</time></trkpt><trkpt lat="45.5780606" lon="10.9258327"><ele>662.5</ele><time>2026-05-02T08:12:23.961Z</time></trkpt><trkpt lat="45.5781335" lon="10.9258389"><ele>661.6666666666666</ele><time>2026-05-02T08:12:24.963Z</time></trkpt><trkpt lat="45.5782086" lon="10.925841"><ele>660.8333333333334</ele><time>2026-05-02T08:12:25.959Z</time></trkpt><trkpt lat="45.5782828" lon="10.9258329"><ele>660.0</ele><time>2026-05-02T08:12:26.968Z</time></trkpt><trkpt lat="45.5783544" lon="10.9258192"><ele>660.0</ele><time>2026-05-02T08:12:27.961Z</time></trkpt><trkpt lat="45.5784283" lon="10.9258146"><ele>660.0</ele><time>2026-05-02T08:12:28.961Z</time></trkpt><trkpt lat="45.5784974" lon="10.9258236"><ele>660.0</ele><time>2026-05-02T08:12:29.965Z</time></trkpt><trkpt lat="45.5785715" lon="10.9258319"><ele>660.0</ele><time>2026-05-02T08:12:31.05Z</time></trkpt><trkpt lat="45.5786598" lon="10.9258098"><ele>660.0</ele><time>2026-05-02T08:12:31.971Z</time></trkpt><trkpt lat="45.57875" lon="10.9257701"><ele>660.0</ele><time>2026-05-02T08:12:32.979Z</time></trkpt><trkpt lat="45.5788381" lon="10.9257219"><ele>660.0</ele><time>2026-05-02T08:12:34.013Z</time></trkpt><trkpt lat="45.5789098" lon="10.9256703"><ele>660.0</ele><time>2026-05-02T08:12:34.971Z</time></trkpt><trkpt lat="45.5789894" lon="10.9256256"><ele>660.0</ele><time>2026-05-02T08:12:35.978Z</time></trkpt><trkpt lat="45.5790644" lon="10.9255743"><ele>660.0</ele><time>2026-05-02T08:12:36.983Z</time></trkpt><trkpt lat="45.5791312" lon="10.9255252"><ele>660.0</ele><time>2026-05-02T08:12:38.014Z</time></trkpt><trkpt lat="45.5792503" lon="10.9254649"><ele>660.0</ele><time>2026-05-02T08:12:39.978Z</time></trkpt><trkpt lat="45.5793701" lon="10.9254502"><ele>660.0</ele><time>2026-05-02T08:12:41.979Z</time></trkpt><trkpt lat="45.5794799" lon="10.9254875"><ele>660.0</ele><time>2026-05-02T08:12:43.981Z</time></trkpt><trkpt lat="45.5796036" lon="10.9255365"><ele>660.0</ele><time>2026-05-02T08:12:45.969Z</time></trkpt><trkpt lat="45.5796724" lon="10.9255567"><ele>660.0</ele><time>2026-05-02T08:12:46.976Z</time></trkpt><trkpt lat="45.5797387" lon="10.9255693"><ele>658.6666666666666</ele><time>2026-05-02T08:12:47.978Z</time></trkpt><trkpt lat="45.5798171" lon="10.9255809"><ele>657.3333333333334</ele><time>2026-05-02T08:12:48.977Z</time></trkpt><trkpt lat="45.5798975" lon="10.925594"><ele>656.0</ele><time>2026-05-02T08:12:49.975Z</time></trkpt><trkpt lat="45.5799797" lon="10.9256048"><ele>654.6666666666667</ele><time>2026-05-02T08:12:50.986Z</time></trkpt><trkpt lat="45.580057" lon="10.9256192"><ele>653.3333333333334</ele><time>2026-05-02T08:12:51.974Z</time></trkpt><trkpt lat="45.5801307" lon="10.9256277"><ele>652.0</ele><time>2026-05-02T08:12:52.983Z</time></trkpt><trkpt lat="45.5801942" lon="10.9256333"><ele>652.0</ele><time>2026-05-02T08:12:53.966Z</time></trkpt><trkpt lat="45.5803213" lon="10.9255963"><ele>652.0</ele><time>2026-05-02T08:12:56.049Z</time></trkpt><trkpt lat="45.5803933" lon="10.9255309"><ele>652.0</ele><time>2026-05-02T08:12:56.972Z</time></trkpt><trkpt lat="45.5804573" lon="10.9254697"><ele>652.0</ele><time>2026-05-02T08:12:57.97Z</time></trkpt><trkpt lat="45.5805396" lon="10.9254224"><ele>652.0</ele><time>2026-05-02T08:12:58.967Z</time></trkpt><trkpt lat="45.5806099" lon="10.9253971"><ele>650.1666666666667</ele><time>2026-05-02T08:12:59.973Z</time></trkpt><trkpt lat="45.5806847" lon="10.9253754"><ele>648.3333333333334</ele><time>2026-05-02T08:13:00.967Z</time></trkpt><trkpt lat="45.5807611" lon="10.9253577"><ele>646.5</ele><time>2026-05-02T08:13:01.966Z</time></trkpt><trkpt lat="45.5808311" lon="10.9253426"><ele>644.6666666666666</ele><time>2026-05-02T08:13:02.966Z</time></trkpt><trkpt lat="45.5809242" lon="10.9253242"><ele>642.8333333333333</ele><time>2026-05-02T08:13:04.963Z</time></trkpt><trkpt lat="45.5809964" lon="10.925242"><ele>641.0</ele><time>2026-05-02T08:13:06.959Z</time></trkpt><trkpt lat="45.5810617" lon="10.9251091"><ele>639.5</ele><time>2026-05-02T08:13:09.047Z</time></trkpt><trkpt lat="45.5811494" lon="10.9249742"><ele>638.0</ele><time>2026-05-02T08:13:11.027Z</time></trkpt><trkpt lat="45.5811933" lon="10.9248923"><ele>636.5</ele><time>2026-05-02T08:13:11.966Z</time></trkpt><trkpt lat="45.5812355" lon="10.9248123"><ele>635.0</ele><time>2026-05-02T08:13:12.951Z</time></trkpt><trkpt lat="45.5812797" lon="10.9247339"><ele>633.5</ele><time>2026-05-02T08:13:13.969Z</time></trkpt><trkpt lat="45.5813263" lon="10.9246525"><ele>632.0</ele><time>2026-05-02T08:13:14.964Z</time></trkpt><trkpt lat="45.5813732" lon="10.9245741"><ele>631.7142857142858</ele><time>2026-05-02T08:13:15.965Z</time></trkpt><trkpt lat="45.5814131" lon="10.9244926"><ele>631.4285714285714</ele><time>2026-05-02T08:13:16.966Z</time></trkpt><trkpt lat="45.5814539" lon="10.9244107"><ele>631.1428571428571</ele><time>2026-05-02T08:13:17.97Z</time></trkpt><trkpt lat="45.5815001" lon="10.9243287"><ele>630.8571428571429</ele><time>2026-05-02T08:13:19Z</time></trkpt><trkpt lat="45.5815479" lon="10.9242475"><ele>630.5714285714286</ele><time>2026-05-02T08:13:19.974Z</time></trkpt><trkpt lat="45.5815931" lon="10.9241614"><ele>630.2857142857143</ele><time>2026-05-02T08:13:20.97Z</time></trkpt><trkpt lat="45.5816403" lon="10.9240797"><ele>630.0</ele><time>2026-05-02T08:13:21.966Z</time></trkpt><trkpt lat="45.5816798" lon="10.9239972"><ele>629.1666666666666</ele><time>2026-05-02T08:13:22.968Z</time></trkpt><trkpt lat="45.581719" lon="10.9239217"><ele>628.3333333333334</ele><time>2026-05-02T08:13:23.975Z</time></trkpt><trkpt lat="45.5817766" lon="10.9238714"><ele>627.5</ele><time>2026-05-02T08:13:25.973Z</time></trkpt><trkpt lat="45.5818529" lon="10.9239533"><ele>626.6666666666667</ele><time>2026-05-02T08:13:28.97Z</time></trkpt><trkpt lat="45.5819392" lon="10.9239728"><ele>625.8333333333334</ele><time>2026-05-02T08:13:30.964Z</time></trkpt><trkpt lat="45.5820067" lon="10.9239519"><ele>625.0</ele><time>2026-05-02T08:13:32.962Z</time></trkpt><trkpt lat="45.5820896" lon="10.9239345"><ele>623.8</ele><time>2026-05-02T08:13:34.958Z</time></trkpt><trkpt lat="45.5821882" lon="10.9239443"><ele>622.6</ele><time>2026-05-02T08:13:36.966Z</time></trkpt><trkpt lat="45.5822777" lon="10.9239971"><ele>621.4</ele><time>2026-05-02T08:13:38.965Z</time></trkpt><trkpt lat="45.5823633" lon="10.9240973"><ele>620.2</ele><time>2026-05-02T08:13:40.96Z</time></trkpt><trkpt lat="45.5824431" lon="10.9241938"><ele>619.0</ele><time>2026-05-02T08:13:42.972Z</time></trkpt><trkpt lat="45.5825214" lon="10.9242885"><ele>618.0</ele><time>2026-05-02T08:13:44.968Z</time></trkpt><trkpt lat="45.5826058" lon="10.9243706"><ele>617.0</ele><time>2026-05-02T08:13:46.97Z</time></trkpt><trkpt lat="45.5826723" lon="10.9244581"><ele>616.0</ele><time>2026-05-02T08:13:48.965Z</time></trkpt><trkpt lat="45.5826859" lon="10.9246029"><ele>615.0</ele><time>2026-05-02T08:13:50.961Z</time></trkpt><trkpt lat="45.5826827" lon="10.9247339"><ele>614.0</ele><time>2026-05-02T08:13:52.968Z</time></trkpt><trkpt lat="45.5826872" lon="10.9248606"><ele>614.0</ele><time>2026-05-02T08:13:55.979Z</time></trkpt><trkpt lat="45.5827053" lon="10.9249861"><ele>614.0</ele><time>2026-05-02T08:13:57.966Z</time></trkpt><trkpt lat="45.5827319" lon="10.9250928"><ele>614.0</ele><time>2026-05-02T08:14:00.045Z</time></trkpt><trkpt lat="45.5827859" lon="10.9251919"><ele>614.0</ele><time>2026-05-02T08:14:02.958Z</time></trkpt><trkpt lat="45.5828419" lon="10.9252655"><ele>614.0</ele><time>2026-05-02T08:14:04.961Z</time></trkpt><trkpt lat="45.5828991" lon="10.9253418"><ele>614.0</ele><time>2026-05-02T08:14:06.97Z</time></trkpt><trkpt lat="45.58297" lon="10.9254183"><ele>611.8</ele><time>2026-05-02T08:14:08.968Z</time></trkpt><trkpt lat="45.5830592" lon="10.9254796"><ele>609.5999999999999</ele><time>2026-05-02T08:14:10.963Z</time></trkpt><trkpt lat="45.5831531" lon="10.9255175"><ele>607.4</ele><time>2026-05-02T08:14:12.948Z</time></trkpt><trkpt lat="45.583268" lon="10.9255706"><ele>605.1999999999999</ele><time>2026-05-02T08:14:14.958Z</time></trkpt><trkpt lat="45.5833791" lon="10.9256331"><ele>603.0</ele><time>2026-05-02T08:14:16.964Z</time></trkpt><trkpt lat="45.5834367" lon="10.9256876"><ele>603.0</ele><time>2026-05-02T08:14:17.968Z</time></trkpt><trkpt lat="45.5835003" lon="10.9257463"><ele>603.0</ele><time>2026-05-02T08:14:18.962Z</time></trkpt><trkpt lat="45.583567" lon="10.9258057"><ele>603.0</ele><time>2026-05-02T08:14:19.963Z</time></trkpt><trkpt lat="45.58363" lon="10.9258563"><ele>603.0</ele><time>2026-05-02T08:14:21.036Z</time></trkpt><trkpt lat="45.5836995" lon="10.9258938"><ele>603.0</ele><time>2026-05-02T08:14:21.969Z</time></trkpt><trkpt lat="45.5837693" lon="10.9259276"><ele>603.0</ele><time>2026-05-02T08:14:22.963Z</time></trkpt><trkpt lat="45.5838434" lon="10.9259552"><ele>601.0</ele><time>2026-05-02T08:14:23.987Z</time></trkpt><trkpt lat="45.5839106" lon="10.9259786"><ele>599.0</ele><time>2026-05-02T08:14:24.966Z</time></trkpt><trkpt lat="45.5839853" lon="10.9259923"><ele>597.0</ele><time>2026-05-02T08:14:25.969Z</time></trkpt><trkpt lat="45.5840569" lon="10.9260011"><ele>595.0</ele><time>2026-05-02T08:14:26.967Z</time></trkpt><trkpt lat="45.584127" lon="10.926006"><ele>593.0</ele><time>2026-05-02T08:14:27.964Z</time></trkpt><trkpt lat="45.5841914" lon="10.9260296"><ele>591.0</ele><time>2026-05-02T08:14:28.963Z</time></trkpt><trkpt lat="45.584248" lon="10.926069"><ele>589.0</ele><time>2026-05-02T08:14:29.962Z</time></trkpt><trkpt lat="45.5843067" lon="10.9261142"><ele>589.0</ele><time>2026-05-02T08:14:30.965Z</time></trkpt><trkpt lat="45.5843674" lon="10.9261578"><ele>589.0</ele><time>2026-05-02T08:14:31.962Z</time></trkpt><trkpt lat="45.5844764" lon="10.9261841"><ele>589.0</ele><time>2026-05-02T08:14:33.958Z</time></trkpt><trkpt lat="45.5845507" lon="10.9262267"><ele>589.0</ele><time>2026-05-02T08:14:35.967Z</time></trkpt><trkpt lat="45.5845514" lon="10.926345"><ele>589.0</ele><time>2026-05-02T08:14:38.028Z</time></trkpt><trkpt lat="45.5845222" lon="10.9264802"><ele>589.0</ele><time>2026-05-02T08:14:40.025Z</time></trkpt><trkpt lat="45.5844865" lon="10.9265652"><ele>589.0</ele><time>2026-05-02T08:14:40.966Z</time></trkpt><trkpt lat="45.5844435" lon="10.9266642"><ele>589.0</ele><time>2026-05-02T08:14:41.967Z</time></trkpt><trkpt lat="45.5843914" lon="10.9267605"><ele>589.0</ele><time>2026-05-02T08:14:42.969Z</time></trkpt><trkpt lat="45.5843405" lon="10.9268578"><ele>589.0</ele><time>2026-05-02T08:14:43.965Z</time></trkpt><trkpt lat="45.584283" lon="10.9269548"><ele>589.0</ele><time>2026-05-02T08:14:44.965Z</time></trkpt><trkpt lat="45.5842257" lon="10.9270573"><ele>589.0</ele><time>2026-05-02T08:14:46.028Z</time></trkpt><trkpt lat="45.5841617" lon="10.9271591"><ele>588.8</ele><time>2026-05-02T08:14:46.968Z</time></trkpt><trkpt lat="45.5840988" lon="10.9272581"><ele>588.5999999999999</ele><time>2026-05-02T08:14:47.971Z</time></trkpt><trkpt lat="45.5840355" lon="10.9273427"><ele>588.4</ele><time>2026-05-02T08:14:48.989Z</time></trkpt><trkpt lat="45.5839757" lon="10.9274145"><ele>588.1999999999999</ele><time>2026-05-02T08:14:49.971Z</time></trkpt><trkpt lat="45.5839024" lon="10.9275286"><ele>588.0</ele><time>2026-05-02T08:14:51.952Z</time></trkpt><trkpt lat="45.5839319" lon="10.9276576"><ele>588.0</ele><time>2026-05-02T08:14:53.965Z</time></trkpt><trkpt lat="45.5839877" lon="10.9277694"><ele>588.0</ele><time>2026-05-02T08:14:55.956Z</time></trkpt><trkpt lat="45.5840831" lon="10.9278261"><ele>588.0</ele><time>2026-05-02T08:14:57.959Z</time></trkpt><trkpt lat="45.5841642" lon="10.9278142"><ele>588.0</ele><time>2026-05-02T08:14:58.979Z</time></trkpt><trkpt lat="45.5842445" lon="10.9278027"><ele>588.0</ele><time>2026-05-02T08:14:59.961Z</time></trkpt><trkpt lat="45.5843117" lon="10.9277753"><ele>588.0</ele><time>2026-05-02T08:15:00.963Z</time></trkpt><trkpt lat="45.5843904" lon="10.9277407"><ele>588.0</ele><time>2026-05-02T08:15:01.966Z</time></trkpt><trkpt lat="45.5844653" lon="10.9277289"><ele>588.0</ele><time>2026-05-02T08:15:03.042Z</time></trkpt><trkpt lat="45.5845486" lon="10.9277397"><ele>588.0</ele><time>2026-05-02T08:15:03.964Z</time></trkpt><trkpt lat="45.5846268" lon="10.9277484"><ele>588.0</ele><time>2026-05-02T08:15:04.961Z</time></trkpt><trkpt lat="45.5846891" lon="10.9277837"><ele>588.0</ele><time>2026-05-02T08:15:05.965Z</time></trkpt><trkpt lat="45.584747" lon="10.9278443"><ele>588.0</ele><time>2026-05-02T08:15:06.966Z</time></trkpt><trkpt lat="45.5848101" lon="10.9279073"><ele>587.8333333333334</ele><time>2026-05-02T08:15:07.96Z</time></trkpt><trkpt lat="45.5848559" lon="10.9279845"><ele>587.6666666666666</ele><time>2026-05-02T08:15:08.963Z</time></trkpt><trkpt lat="45.5848944" lon="10.9280739"><ele>587.5</ele><time>2026-05-02T08:15:09.967Z</time></trkpt><trkpt lat="45.5849396" lon="10.9281767"><ele>587.3333333333333</ele><time>2026-05-02T08:15:10.967Z</time></trkpt><trkpt lat="45.5849806" lon="10.9282938"><ele>587.1666666666666</ele><time>2026-05-02T08:15:11.962Z</time></trkpt><trkpt lat="45.5850234" lon="10.9284163"><ele>587.0</ele><time>2026-05-02T08:15:12.972Z</time></trkpt><trkpt lat="45.5850494" lon="10.9285274"><ele>587.8333333333333</ele><time>2026-05-02T08:15:13.962Z</time></trkpt><trkpt lat="45.5850794" lon="10.928642"><ele>588.6666666666666</ele><time>2026-05-02T08:15:14.995Z</time></trkpt><trkpt lat="45.5850986" lon="10.9287543"><ele>589.5</ele><time>2026-05-02T08:15:15.965Z</time></trkpt><trkpt lat="45.5851032" lon="10.9288682"><ele>590.3333333333334</ele><time>2026-05-02T08:15:16.954Z</time></trkpt><trkpt lat="45.5850976" lon="10.9289843"><ele>591.1666666666667</ele><time>2026-05-02T08:15:17.954Z</time></trkpt><trkpt lat="45.5850797" lon="10.9291045"><ele>592.0</ele><time>2026-05-02T08:15:18.964Z</time></trkpt><trkpt lat="45.5850651" lon="10.9292347"><ele>592.0</ele><time>2026-05-02T08:15:20.036Z</time></trkpt><trkpt lat="45.5850541" lon="10.929365"><ele>592.0</ele><time>2026-05-02T08:15:21.015Z</time></trkpt><trkpt lat="45.5850515" lon="10.9294905"><ele>592.0</ele><time>2026-05-02T08:15:21.957Z</time></trkpt><trkpt lat="45.5850468" lon="10.9296158"><ele>592.0</ele><time>2026-05-02T08:15:22.968Z</time></trkpt><trkpt lat="45.5850394" lon="10.92974"><ele>592.0</ele><time>2026-05-02T08:15:23.988Z</time></trkpt><trkpt lat="45.5850343" lon="10.9298588"><ele>592.0</ele><time>2026-05-02T08:15:24.966Z</time></trkpt><trkpt lat="45.5850341" lon="10.929969"><ele>592.2857142857143</ele><time>2026-05-02T08:15:25.969Z</time></trkpt><trkpt lat="45.5850241" lon="10.9300685"><ele>592.5714285714286</ele><time>2026-05-02T08:15:26.974Z</time></trkpt><trkpt lat="45.5850115" lon="10.9301726"><ele>592.8571428571429</ele><time>2026-05-02T08:15:27.963Z</time></trkpt><trkpt lat="45.5849961" lon="10.9302819"><ele>593.1428571428571</ele><time>2026-05-02T08:15:29.024Z</time></trkpt><trkpt lat="45.5849716" lon="10.9303846"><ele>593.4285714285714</ele><time>2026-05-02T08:15:30.026Z</time></trkpt><trkpt lat="45.5849441" lon="10.9304869"><ele>593.7142857142858</ele><time>2026-05-02T08:15:31.017Z</time></trkpt><trkpt lat="45.5849241" lon="10.9305745"><ele>594.0</ele><time>2026-05-02T08:15:31.959Z</time></trkpt><trkpt lat="45.5849557" lon="10.930695"><ele>594.0</ele><time>2026-05-02T08:15:33.958Z</time></trkpt><trkpt lat="45.5850501" lon="10.9307807"><ele>594.0</ele><time>2026-05-02T08:15:35.961Z</time></trkpt><trkpt lat="45.5851285" lon="10.9308046"><ele>594.0</ele><time>2026-05-02T08:15:36.968Z</time></trkpt><trkpt lat="45.5852033" lon="10.930801"><ele>594.0</ele><time>2026-05-02T08:15:38.023Z</time></trkpt><trkpt lat="45.5853331" lon="10.9307597"><ele>594.0</ele><time>2026-05-02T08:15:40.022Z</time></trkpt><trkpt lat="45.5854446" lon="10.9307145"><ele>595.5</ele><time>2026-05-02T08:15:41.962Z</time></trkpt><trkpt lat="45.5855028" lon="10.9307747"><ele>597.0</ele><time>2026-05-02T08:15:44.958Z</time></trkpt><trkpt lat="45.5854961" lon="10.9308709"><ele>598.5</ele><time>2026-05-02T08:15:46.961Z</time></trkpt><trkpt lat="45.5854417" lon="10.9310524"><ele>600.0</ele><time>2026-05-02T08:15:48.979Z</time></trkpt><trkpt lat="45.5854076" lon="10.9311298"><ele>601.5</ele><time>2026-05-02T08:15:49.972Z</time></trkpt><trkpt lat="45.5853999" lon="10.9312314"><ele>603.0</ele><time>2026-05-02T08:15:51.972Z</time></trkpt><trkpt lat="45.5854755" lon="10.9312523"><ele>604.0</ele><time>2026-05-02T08:15:53.975Z</time></trkpt><trkpt lat="45.5855891" lon="10.9312922"><ele>605.0</ele><time>2026-05-02T08:15:55.965Z</time></trkpt><trkpt lat="45.5856863" lon="10.9313938"><ele>606.0</ele><time>2026-05-02T08:15:57.98Z</time></trkpt><trkpt lat="45.5857687" lon="10.9315029"><ele>607.0</ele><time>2026-05-02T08:15:59.976Z</time></trkpt><trkpt lat="45.5858548" lon="10.9315968"><ele>607.0</ele><time>2026-05-02T08:16:01.974Z</time></trkpt><trkpt lat="45.5859401" lon="10.9317137"><ele>607.0</ele><time>2026-05-02T08:16:04.036Z</time></trkpt><trkpt lat="45.5859662" lon="10.9318859"><ele>607.0</ele><time>2026-05-02T08:16:06.028Z</time></trkpt><trkpt lat="45.5859596" lon="10.9319948"><ele>607.0</ele><time>2026-05-02T08:16:06.972Z</time></trkpt><trkpt lat="45.5859509" lon="10.9321157"><ele>607.0</ele><time>2026-05-02T08:16:07.981Z</time></trkpt><trkpt lat="45.585948" lon="10.9322404"><ele>606.6</ele><time>2026-05-02T08:16:08.982Z</time></trkpt><trkpt lat="45.5859501" lon="10.9323767"><ele>606.2</ele><time>2026-05-02T08:16:09.977Z</time></trkpt><trkpt lat="45.5859558" lon="10.9325087"><ele>605.8</ele><time>2026-05-02T08:16:10.975Z</time></trkpt><trkpt lat="45.5859608" lon="10.9326482"><ele>605.4</ele><time>2026-05-02T08:16:11.966Z</time></trkpt><trkpt lat="45.585966" lon="10.932785"><ele>605.0</ele><time>2026-05-02T08:16:12.986Z</time></trkpt><trkpt lat="45.5859684" lon="10.932918"><ele>603.6666666666666</ele><time>2026-05-02T08:16:13.991Z</time></trkpt><trkpt lat="45.585958" lon="10.933048"><ele>602.3333333333333</ele><time>2026-05-02T08:16:14.963Z</time></trkpt><trkpt lat="45.5859397" lon="10.9331677"><ele>601.0</ele><time>2026-05-02T08:16:15.957Z</time></trkpt><trkpt lat="45.5859215" lon="10.9332907"><ele>599.6666666666666</ele><time>2026-05-02T08:16:16.957Z</time></trkpt><trkpt lat="45.5859059" lon="10.9334206"><ele>598.3333333333334</ele><time>2026-05-02T08:16:17.961Z</time></trkpt><trkpt lat="45.585893" lon="10.9335491"><ele>597.0</ele><time>2026-05-02T08:16:18.967Z</time></trkpt><trkpt lat="45.5858808" lon="10.9336801"><ele>596.6</ele><time>2026-05-02T08:16:19.968Z</time></trkpt><trkpt lat="45.5858615" lon="10.9338128"><ele>596.2</ele><time>2026-05-02T08:16:21.026Z</time></trkpt><trkpt lat="45.585839" lon="10.9339402"><ele>595.8</ele><time>2026-05-02T08:16:21.973Z</time></trkpt><trkpt lat="45.5858176" lon="10.9340709"><ele>595.4</ele><time>2026-05-02T08:16:23.036Z</time></trkpt><trkpt lat="45.5858036" lon="10.9342019"><ele>595.0</ele><time>2026-05-02T08:16:23.974Z</time></trkpt><trkpt lat="45.5857955" lon="10.9343428"><ele>595.0</ele><time>2026-05-02T08:16:24.979Z</time></trkpt><trkpt lat="45.5858076" lon="10.9344715"><ele>595.0</ele><time>2026-05-02T08:16:25.955Z</time></trkpt><trkpt lat="45.5858483" lon="10.9345739"><ele>595.0</ele><time>2026-05-02T08:16:26.971Z</time></trkpt><trkpt lat="45.5858999" lon="10.9346638"><ele>595.0</ele><time>2026-05-02T08:16:27.973Z</time></trkpt><trkpt lat="45.5859568" lon="10.9347348"><ele>595.0</ele><time>2026-05-02T08:16:29.035Z</time></trkpt><trkpt lat="45.5860139" lon="10.9348079"><ele>595.0</ele><time>2026-05-02T08:16:30.064Z</time></trkpt><trkpt lat="45.5860713" lon="10.9348984"><ele>595.0</ele><time>2026-05-02T08:16:31.025Z</time></trkpt><trkpt lat="45.5861401" lon="10.9349705"><ele>595.0</ele><time>2026-05-02T08:16:31.955Z</time></trkpt><trkpt lat="45.5862035" lon="10.9350036"><ele>595.0</ele><time>2026-05-02T08:16:32.96Z</time></trkpt><trkpt lat="45.5862697" lon="10.934987"><ele>595.0</ele><time>2026-05-02T08:16:33.968Z</time></trkpt><trkpt lat="45.5863299" lon="10.9349504"><ele>595.0</ele><time>2026-05-02T08:16:34.967Z</time></trkpt><trkpt lat="45.5863959" lon="10.9348794"><ele>595.0</ele><time>2026-05-02T08:16:35.968Z</time></trkpt><trkpt lat="45.5864601" lon="10.9348126"><ele>595.0</ele><time>2026-05-02T08:16:36.969Z</time></trkpt><trkpt lat="45.586527" lon="10.934755"><ele>596.1666666666667</ele><time>2026-05-02T08:16:38.028Z</time></trkpt><trkpt lat="45.5865873" lon="10.9347093"><ele>597.3333333333334</ele><time>2026-05-02T08:16:39.04Z</time></trkpt><trkpt lat="45.5866544" lon="10.9346629"><ele>598.5</ele><time>2026-05-02T08:16:40.035Z</time></trkpt><trkpt lat="45.5867179" lon="10.9346179"><ele>599.6666666666666</ele><time>2026-05-02T08:16:41.043Z</time></trkpt><trkpt lat="45.5867771" lon="10.9345633"><ele>600.8333333333333</ele><time>2026-05-02T08:16:41.953Z</time></trkpt><trkpt lat="45.5868533" lon="10.9345554"><ele>602.0</ele><time>2026-05-02T08:16:44.963Z</time></trkpt><trkpt lat="45.5869141" lon="10.9344363"><ele>602.0</ele><time>2026-05-02T08:16:48.024Z</time></trkpt><trkpt lat="45.5869379" lon="10.9343473"><ele>602.0</ele><time>2026-05-02T08:16:48.96Z</time></trkpt><trkpt lat="45.5869847" lon="10.9341935"><ele>602.0</ele><time>2026-05-02T08:16:50.961Z</time></trkpt><trkpt lat="45.5870136" lon="10.9340649"><ele>602.0</ele><time>2026-05-02T08:16:52.954Z</time></trkpt><trkpt lat="45.5870527" lon="10.9339169"><ele>602.0</ele><time>2026-05-02T08:16:54.97Z</time></trkpt><trkpt lat="45.5870787" lon="10.9338292"><ele>599.3333333333333</ele><time>2026-05-02T08:16:56.038Z</time></trkpt><trkpt lat="45.5871113" lon="10.9337464"><ele>596.6666666666666</ele><time>2026-05-02T08:16:56.952Z</time></trkpt><trkpt lat="45.5871503" lon="10.9336591"><ele>594.0</ele><time>2026-05-02T08:16:57.964Z</time></trkpt><trkpt lat="45.5871889" lon="10.9335751"><ele>591.3333333333334</ele><time>2026-05-02T08:16:58.973Z</time></trkpt><trkpt lat="45.5872402" lon="10.9334322"><ele>588.6666666666667</ele><time>2026-05-02T08:17:00.959Z</time></trkpt><trkpt lat="45.587301" lon="10.9333204"><ele>586.0</ele><time>2026-05-02T08:17:02.961Z</time></trkpt><trkpt lat="45.5873496" lon="10.9332103"><ele>585.6</ele><time>2026-05-02T08:17:05.037Z</time></trkpt><trkpt lat="45.5873904" lon="10.9330809"><ele>585.2</ele><time>2026-05-02T08:17:06.961Z</time></trkpt><trkpt lat="45.5874249" lon="10.9329432"><ele>584.8</ele><time>2026-05-02T08:17:08.957Z</time></trkpt><trkpt lat="45.5874521" lon="10.9328041"><ele>584.4</ele><time>2026-05-02T08:17:10.958Z</time></trkpt><trkpt lat="45.5874933" lon="10.9326991"><ele>584.0</ele><time>2026-05-02T08:17:12.972Z</time></trkpt><trkpt lat="45.5875396" lon="10.932612"><ele>584.0</ele><time>2026-05-02T08:17:15.964Z</time></trkpt><trkpt lat="45.5876102" lon="10.9326015"><ele>584.0</ele><time>2026-05-02T08:17:19.963Z</time></trkpt><trkpt lat="45.5876361" lon="10.9326913"><ele>584.0</ele><time>2026-05-02T08:17:21.97Z</time></trkpt><trkpt lat="45.5876924" lon="10.932812"><ele>584.0</ele><time>2026-05-02T08:17:23.955Z</time></trkpt><trkpt lat="45.5877286" lon="10.932969"><ele>584.0</ele><time>2026-05-02T08:17:26.04Z</time></trkpt><trkpt lat="45.5877419" lon="10.9331298"><ele>584.0</ele><time>2026-05-02T08:17:27.968Z</time></trkpt><trkpt lat="45.5877462" lon="10.9332224"><ele>584.0</ele><time>2026-05-02T08:17:28.977Z</time></trkpt><trkpt lat="45.5877653" lon="10.9333979"><ele>584.0</ele><time>2026-05-02T08:17:30.974Z</time></trkpt><trkpt lat="45.5877883" lon="10.9335444"><ele>584.0</ele><time>2026-05-02T08:17:32.975Z</time></trkpt><trkpt lat="45.5878006" lon="10.9336758"><ele>584.0</ele><time>2026-05-02T08:17:34.97Z</time></trkpt><trkpt lat="45.5878252" lon="10.9337627"><ele>584.1666666666666</ele><time>2026-05-02T08:17:36.973Z</time></trkpt><trkpt lat="45.5878996" lon="10.9336887"><ele>584.3333333333333</ele><time>2026-05-02T08:17:39.972Z</time></trkpt><trkpt lat="45.5879259" lon="10.9335824"><ele>584.5</ele><time>2026-05-02T08:17:41.964Z</time></trkpt><trkpt lat="45.5879719" lon="10.9334319"><ele>584.6666666666666</ele><time>2026-05-02T08:17:43.958Z</time></trkpt><trkpt lat="45.5879982" lon="10.9333464"><ele>584.8333333333334</ele><time>2026-05-02T08:17:44.963Z</time></trkpt><trkpt lat="45.5880301" lon="10.9332617"><ele>585.0</ele><time>2026-05-02T08:17:45.971Z</time></trkpt><trkpt lat="45.5880892" lon="10.9331118"><ele>585.0</ele><time>2026-05-02T08:17:47.956Z</time></trkpt><trkpt lat="45.5881517" lon="10.9330037"><ele>585.0</ele><time>2026-05-02T08:17:49.957Z</time></trkpt><trkpt lat="45.5882303" lon="10.9329546"><ele>585.0</ele><time>2026-05-02T08:17:51.979Z</time></trkpt><trkpt lat="45.5883247" lon="10.9329647"><ele>585.0</ele><time>2026-05-02T08:17:53.969Z</time></trkpt><trkpt lat="45.5884261" lon="10.9329885"><ele>585.0</ele><time>2026-05-02T08:17:55.974Z</time></trkpt><trkpt lat="45.5885427" lon="10.9329987"><ele>585.0</ele><time>2026-05-02T08:17:57.974Z</time></trkpt><trkpt lat="45.588648" lon="10.933025"><ele>585.0</ele><time>2026-05-02T08:17:59.973Z</time></trkpt><trkpt lat="45.5887595" lon="10.9330568"><ele>585.0</ele><time>2026-05-02T08:18:01.953Z</time></trkpt><trkpt lat="45.5888646" lon="10.9330731"><ele>585.0</ele><time>2026-05-02T08:18:03.958Z</time></trkpt><trkpt lat="45.5889713" lon="10.9331288"><ele>585.0</ele><time>2026-05-02T08:18:05.966Z</time></trkpt><trkpt lat="45.5890279" lon="10.9331745"><ele>588.3333333333334</ele><time>2026-05-02T08:18:06.971Z</time></trkpt><trkpt lat="45.5891178" lon="10.9332982"><ele>591.6666666666666</ele><time>2026-05-02T08:18:08.974Z</time></trkpt><trkpt lat="45.5891588" lon="10.9334029"><ele>595.0</ele><time>2026-05-02T08:18:10.972Z</time></trkpt><trkpt lat="45.5891922" lon="10.9333242"><ele>598.3333333333333</ele><time>2026-05-02T08:18:16.961Z</time></trkpt><trkpt lat="45.5891817" lon="10.9332263"><ele>601.6666666666666</ele><time>2026-05-02T08:18:18.961Z</time></trkpt><trkpt lat="45.5891666" lon="10.9330761"><ele>605.0</ele><time>2026-05-02T08:18:20.957Z</time></trkpt><trkpt lat="45.5891416" lon="10.9329181"><ele>605.0</ele><time>2026-05-02T08:18:22.965Z</time></trkpt><trkpt lat="45.5891177" lon="10.9327917"><ele>605.0</ele><time>2026-05-02T08:18:24.976Z</time></trkpt><trkpt lat="45.5890689" lon="10.9326523"><ele>605.0</ele><time>2026-05-02T08:18:26.97Z</time></trkpt><trkpt lat="45.5889996" lon="10.9325038"><ele>605.0</ele><time>2026-05-02T08:18:28.968Z</time></trkpt><trkpt lat="45.5890061" lon="10.9323853"><ele>605.0</ele><time>2026-05-02T08:18:30.985Z</time></trkpt><trkpt lat="45.5890895" lon="10.9324303"><ele>605.6666666666666</ele><time>2026-05-02T08:18:34.976Z</time></trkpt><trkpt lat="45.5891748" lon="10.9324389"><ele>606.3333333333333</ele><time>2026-05-02T08:18:36.984Z</time></trkpt><trkpt lat="45.5892589" lon="10.9324085"><ele>607.0</ele><time>2026-05-02T08:18:38.959Z</time></trkpt><trkpt lat="45.589347" lon="10.9323429"><ele>607.6666666666666</ele><time>2026-05-02T08:18:40.968Z</time></trkpt><trkpt lat="45.5894233" lon="10.9323191"><ele>608.3333333333334</ele><time>2026-05-02T08:18:42.002Z</time></trkpt><trkpt lat="45.5895118" lon="10.9323122"><ele>609.0</ele><time>2026-05-02T08:18:42.963Z</time></trkpt><trkpt lat="45.5896003" lon="10.9323084"><ele>611.0</ele><time>2026-05-02T08:18:43.967Z</time></trkpt><trkpt lat="45.5896944" lon="10.9322987"><ele>613.0</ele><time>2026-05-02T08:18:44.964Z</time></trkpt><trkpt lat="45.5897895" lon="10.9322907"><ele>615.0</ele><time>2026-05-02T08:18:45.981Z</time></trkpt><trkpt lat="45.5898778" lon="10.9322833"><ele>617.0</ele><time>2026-05-02T08:18:46.969Z</time></trkpt><trkpt lat="45.5899547" lon="10.9322732"><ele>619.0</ele><time>2026-05-02T08:18:47.975Z</time></trkpt><trkpt lat="45.5900281" lon="10.9322964"><ele>621.0</ele><time>2026-05-02T08:18:48.971Z</time></trkpt><trkpt lat="45.5901113" lon="10.9323246"><ele>621.0</ele><time>2026-05-02T08:18:49.967Z</time></trkpt><trkpt lat="45.590177" lon="10.9323669"><ele>621.0</ele><time>2026-05-02T08:18:50.969Z</time></trkpt><trkpt lat="45.5902419" lon="10.9324208"><ele>621.0</ele><time>2026-05-02T08:18:51.97Z</time></trkpt><trkpt lat="45.5903196" lon="10.9324725"><ele>621.0</ele><time>2026-05-02T08:18:52.955Z</time></trkpt><trkpt lat="45.590387" lon="10.9325361"><ele>621.0</ele><time>2026-05-02T08:18:53.969Z</time></trkpt><trkpt lat="45.5904596" lon="10.9325834"><ele>621.0</ele><time>2026-05-02T08:18:54.962Z</time></trkpt><trkpt lat="45.5905251" lon="10.9325893"><ele>621.4</ele><time>2026-05-02T08:18:55.964Z</time></trkpt><trkpt lat="45.5906181" lon="10.9325192"><ele>621.8</ele><time>2026-05-02T08:18:57.963Z</time></trkpt><trkpt lat="45.5906694" lon="10.9324665"><ele>622.1999999999999</ele><time>2026-05-02T08:18:58.966Z</time></trkpt><trkpt lat="45.5907906" lon="10.9323995"><ele>622.6</ele><time>2026-05-02T08:19:00.969Z</time></trkpt><trkpt lat="45.5908795" lon="10.932383"><ele>623.0</ele><time>2026-05-02T08:19:01.969Z</time></trkpt><trkpt lat="45.5909803" lon="10.9323527"><ele>623.0</ele><time>2026-05-02T08:19:02.973Z</time></trkpt><trkpt lat="45.5910668" lon="10.9323178"><ele>623.0</ele><time>2026-05-02T08:19:03.972Z</time></trkpt><trkpt lat="45.5911361" lon="10.9322545"><ele>623.0</ele><time>2026-05-02T08:19:04.973Z</time></trkpt><trkpt lat="45.5911766" lon="10.9321672"><ele>623.0</ele><time>2026-05-02T08:19:05.973Z</time></trkpt><trkpt lat="45.5911916" lon="10.9320734"><ele>623.0</ele><time>2026-05-02T08:19:06.975Z</time></trkpt><trkpt lat="45.5912026" lon="10.9319661"><ele>623.0</ele><time>2026-05-02T08:19:08.03Z</time></trkpt><trkpt lat="45.5912196" lon="10.9318582"><ele>622.6666666666666</ele><time>2026-05-02T08:19:08.968Z</time></trkpt><trkpt lat="45.5912413" lon="10.9317478"><ele>622.3333333333333</ele><time>2026-05-02T08:19:09.975Z</time></trkpt><trkpt lat="45.5912705" lon="10.9316503"><ele>622.0</ele><time>2026-05-02T08:19:10.975Z</time></trkpt><trkpt lat="45.5913266" lon="10.9315702"><ele>621.6666666666666</ele><time>2026-05-02T08:19:11.972Z</time></trkpt><trkpt lat="45.5913908" lon="10.9315091"><ele>621.3333333333334</ele><time>2026-05-02T08:19:12.966Z</time></trkpt><trkpt lat="45.5914581" lon="10.9314637"><ele>621.0</ele><time>2026-05-02T08:19:13.974Z</time></trkpt><trkpt lat="45.5915223" lon="10.9314584"><ele>621.0</ele><time>2026-05-02T08:19:14.979Z</time></trkpt><trkpt lat="45.5916399" lon="10.9314475"><ele>621.0</ele><time>2026-05-02T08:19:16.964Z</time></trkpt><trkpt lat="45.5917" lon="10.9314106"><ele>621.0</ele><time>2026-05-02T08:19:17.96Z</time></trkpt><trkpt lat="45.5917361" lon="10.9313021"><ele>621.0</ele><time>2026-05-02T08:19:19.985Z</time></trkpt><trkpt lat="45.5917315" lon="10.9311614"><ele>621.0</ele><time>2026-05-02T08:19:21.971Z</time></trkpt><trkpt lat="45.5917301" lon="10.9310678"><ele>621.0</ele><time>2026-05-02T08:19:22.961Z</time></trkpt><trkpt lat="45.5917338" lon="10.9309649"><ele>620.1666666666666</ele><time>2026-05-02T08:19:24.025Z</time></trkpt><trkpt lat="45.591735" lon="10.930864"><ele>619.3333333333334</ele><time>2026-05-02T08:19:25.029Z</time></trkpt><trkpt lat="45.5917495" lon="10.9307669"><ele>618.5</ele><time>2026-05-02T08:19:26.022Z</time></trkpt><trkpt lat="45.5918151" lon="10.9306054"><ele>617.6666666666667</ele><time>2026-05-02T08:19:27.973Z</time></trkpt><trkpt lat="45.5918671" lon="10.9305351"><ele>616.8333333333334</ele><time>2026-05-02T08:19:28.972Z</time></trkpt><trkpt lat="45.5919322" lon="10.9304767"><ele>616.0</ele><time>2026-05-02T08:19:29.974Z</time></trkpt><trkpt lat="45.5920043" lon="10.9304155"><ele>618.0</ele><time>2026-05-02T08:19:30.969Z</time></trkpt><trkpt lat="45.5920773" lon="10.9303468"><ele>620.0</ele><time>2026-05-02T08:19:31.963Z</time></trkpt><trkpt lat="45.5921517" lon="10.9302952"><ele>622.0</ele><time>2026-05-02T08:19:33.035Z</time></trkpt><trkpt lat="45.592223" lon="10.9302579"><ele>624.0</ele><time>2026-05-02T08:19:34.037Z</time></trkpt><trkpt lat="45.5922958" lon="10.9302301"><ele>626.0</ele><time>2026-05-02T08:19:35.033Z</time></trkpt><trkpt lat="45.5923682" lon="10.9302164"><ele>628.0</ele><time>2026-05-02T08:19:35.965Z</time></trkpt><trkpt lat="45.5924438" lon="10.9302128"><ele>628.0</ele><time>2026-05-02T08:19:36.977Z</time></trkpt><trkpt lat="45.5925161" lon="10.9302297"><ele>628.0</ele><time>2026-05-02T08:19:37.963Z</time></trkpt><trkpt lat="45.5925957" lon="10.9302643"><ele>628.0</ele><time>2026-05-02T08:19:38.966Z</time></trkpt><trkpt lat="45.5926702" lon="10.930314"><ele>628.0</ele><time>2026-05-02T08:19:39.967Z</time></trkpt><trkpt lat="45.5927402" lon="10.9303793"><ele>628.0</ele><time>2026-05-02T08:19:41.039Z</time></trkpt><trkpt lat="45.5928105" lon="10.9304264"><ele>628.0</ele><time>2026-05-02T08:19:41.96Z</time></trkpt><trkpt lat="45.5928817" lon="10.9304611"><ele>631.0</ele><time>2026-05-02T08:19:42.973Z</time></trkpt><trkpt lat="45.5929487" lon="10.9304963"><ele>634.0</ele><time>2026-05-02T08:19:43.974Z</time></trkpt><trkpt lat="45.5930468" lon="10.9305744"><ele>637.0</ele><time>2026-05-02T08:19:45.961Z</time></trkpt><trkpt lat="45.5931039" lon="10.9306202"><ele>640.0</ele><time>2026-05-02T08:19:46.971Z</time></trkpt><trkpt lat="45.5931881" lon="10.9307058"><ele>643.0</ele><time>2026-05-02T08:19:48.974Z</time></trkpt><trkpt lat="45.5932831" lon="10.930809"><ele>643.0</ele><time>2026-05-02T08:19:51.039Z</time></trkpt><trkpt lat="45.593352" lon="10.9308391"><ele>643.0</ele><time>2026-05-02T08:19:51.966Z</time></trkpt><trkpt lat="45.593421" lon="10.9308716"><ele>643.0</ele><time>2026-05-02T08:19:52.967Z</time></trkpt><trkpt lat="45.5935049" lon="10.9309268"><ele>643.0</ele><time>2026-05-02T08:19:54Z</time></trkpt><trkpt lat="45.5935691" lon="10.9309871"><ele>643.0</ele><time>2026-05-02T08:19:54.968Z</time></trkpt><trkpt lat="45.5936389" lon="10.9310371"><ele>643.0</ele><time>2026-05-02T08:19:55.969Z</time></trkpt><trkpt lat="45.593718" lon="10.9310667"><ele>646.6666666666667</ele><time>2026-05-02T08:19:56.972Z</time></trkpt><trkpt lat="45.5937936" lon="10.9310866"><ele>650.3333333333334</ele><time>2026-05-02T08:19:58.03Z</time></trkpt><trkpt lat="45.5938676" lon="10.9311065"><ele>654.0</ele><time>2026-05-02T08:19:59.028Z</time></trkpt><trkpt lat="45.5939412" lon="10.9311348"><ele>657.6666666666666</ele><time>2026-05-02T08:19:59.97Z</time></trkpt><trkpt lat="45.5940156" lon="10.9311672"><ele>661.3333333333333</ele><time>2026-05-02T08:20:00.955Z</time></trkpt><trkpt lat="45.5940935" lon="10.9311977"><ele>665.0</ele><time>2026-05-02T08:20:01.951Z</time></trkpt><trkpt lat="45.5941746" lon="10.9312221"><ele>665.0</ele><time>2026-05-02T08:20:02.949Z</time></trkpt><trkpt lat="45.5942587" lon="10.9312735"><ele>665.0</ele><time>2026-05-02T08:20:03.971Z</time></trkpt><trkpt lat="45.5943355" lon="10.9313383"><ele>665.0</ele><time>2026-05-02T08:20:04.952Z</time></trkpt><trkpt lat="45.5944122" lon="10.9314069"><ele>665.0</ele><time>2026-05-02T08:20:05.971Z</time></trkpt><trkpt lat="45.5944947" lon="10.9314443"><ele>665.0</ele><time>2026-05-02T08:20:06.968Z</time></trkpt><trkpt lat="45.5945636" lon="10.931481"><ele>665.0</ele><time>2026-05-02T08:20:07.972Z</time></trkpt><trkpt lat="45.5946403" lon="10.9315126"><ele>667.2</ele><time>2026-05-02T08:20:08.978Z</time></trkpt><trkpt lat="45.5947146" lon="10.9315381"><ele>669.4</ele><time>2026-05-02T08:20:09.951Z</time></trkpt><trkpt lat="45.5948409" lon="10.9316056"><ele>671.5999999999999</ele><time>2026-05-02T08:20:11.969Z</time></trkpt><trkpt lat="45.5949029" lon="10.9316376"><ele>673.8</ele><time>2026-05-02T08:20:12.956Z</time></trkpt><trkpt lat="45.5949765" lon="10.9317385"><ele>676.0</ele><time>2026-05-02T08:20:14.951Z</time></trkpt><trkpt lat="45.5950112" lon="10.9318898"><ele>677.0</ele><time>2026-05-02T08:20:16.952Z</time></trkpt><trkpt lat="45.5950718" lon="10.9320527"><ele>678.0</ele><time>2026-05-02T08:20:18.95Z</time></trkpt><trkpt lat="45.5951025" lon="10.9321477"><ele>679.0</ele><time>2026-05-02T08:20:19.949Z</time></trkpt><trkpt lat="45.5951316" lon="10.9322405"><ele>680.0</ele><time>2026-05-02T08:20:20.974Z</time></trkpt><trkpt lat="45.5951474" lon="10.9323344"><ele>681.0</ele><time>2026-05-02T08:20:21.958Z</time></trkpt><trkpt lat="45.5951611" lon="10.9324298"><ele>682.0</ele><time>2026-05-02T08:20:22.968Z</time></trkpt><trkpt lat="45.595197" lon="10.932586"><ele>682.0</ele><time>2026-05-02T08:20:24.952Z</time></trkpt><trkpt lat="45.5952298" lon="10.9326655"><ele>682.0</ele><time>2026-05-02T08:20:25.966Z</time></trkpt><trkpt lat="45.5952816" lon="10.9327259"><ele>682.0</ele><time>2026-05-02T08:20:26.976Z</time></trkpt><trkpt lat="45.5953465" lon="10.9327632"><ele>682.0</ele><time>2026-05-02T08:20:27.973Z</time></trkpt><trkpt lat="45.5954094" lon="10.9328124"><ele>682.0</ele><time>2026-05-02T08:20:28.976Z</time></trkpt><trkpt lat="45.5954803" lon="10.9328953"><ele>682.0</ele><time>2026-05-02T08:20:29.957Z</time></trkpt><trkpt lat="45.5955425" lon="10.9329963"><ele>682.4000000000001</ele><time>2026-05-02T08:20:30.984Z</time></trkpt><trkpt lat="45.5955966" lon="10.9331144"><ele>682.8000000000001</ele><time>2026-05-02T08:20:31.973Z</time></trkpt><trkpt lat="45.5956483" lon="10.9332319"><ele>683.2</ele><time>2026-05-02T08:20:32.979Z</time></trkpt><trkpt lat="45.5956994" lon="10.9333517"><ele>683.6</ele><time>2026-05-02T08:20:33.984Z</time></trkpt><trkpt lat="45.595746" lon="10.933471"><ele>684.0</ele><time>2026-05-02T08:20:34.969Z</time></trkpt><trkpt lat="45.5957902" lon="10.9335868"><ele>684.8000000000001</ele><time>2026-05-02T08:20:35.971Z</time></trkpt><trkpt lat="45.5958376" lon="10.9337041"><ele>685.6</ele><time>2026-05-02T08:20:36.968Z</time></trkpt><trkpt lat="45.5958848" lon="10.9338261"><ele>686.4</ele><time>2026-05-02T08:20:37.969Z</time></trkpt><trkpt lat="45.5959294" lon="10.9339539"><ele>687.2</ele><time>2026-05-02T08:20:38.972Z</time></trkpt><trkpt lat="45.5959623" lon="10.9340808"><ele>688.0</ele><time>2026-05-02T08:20:39.971Z</time></trkpt><trkpt lat="45.5959924" lon="10.9342148"><ele>688.1666666666667</ele><time>2026-05-02T08:20:40.97Z</time></trkpt><trkpt lat="45.5960245" lon="10.9343343"><ele>688.3333333333334</ele><time>2026-05-02T08:20:41.972Z</time></trkpt><trkpt lat="45.5960611" lon="10.9344514"><ele>688.5</ele><time>2026-05-02T08:20:42.974Z</time></trkpt><trkpt lat="45.5961012" lon="10.9345705"><ele>688.6666666666666</ele><time>2026-05-02T08:20:43.983Z</time></trkpt><trkpt lat="45.5961441" lon="10.9346819"><ele>688.8333333333333</ele><time>2026-05-02T08:20:45.001Z</time></trkpt><trkpt lat="45.5961868" lon="10.9347883"><ele>689.0</ele><time>2026-05-02T08:20:45.973Z</time></trkpt><trkpt lat="45.5962304" lon="10.9348885"><ele>688.6666666666666</ele><time>2026-05-02T08:20:46.981Z</time></trkpt><trkpt lat="45.5962747" lon="10.9349758"><ele>688.3333333333333</ele><time>2026-05-02T08:20:47.971Z</time></trkpt><trkpt lat="45.5963137" lon="10.935055"><ele>688.0</ele><time>2026-05-02T08:20:48.968Z</time></trkpt><trkpt lat="45.5963565" lon="10.9351416"><ele>687.6666666666666</ele><time>2026-05-02T08:20:49.972Z</time></trkpt><trkpt lat="45.5964019" lon="10.9352321"><ele>687.3333333333334</ele><time>2026-05-02T08:20:51.032Z</time></trkpt><trkpt lat="45.596451" lon="10.935324"><ele>687.0</ele><time>2026-05-02T08:20:51.969Z</time></trkpt><trkpt lat="45.5965003" lon="10.9354237"><ele>689.8</ele><time>2026-05-02T08:20:52.984Z</time></trkpt><trkpt lat="45.5965511" lon="10.9355235"><ele>692.6</ele><time>2026-05-02T08:20:53.956Z</time></trkpt><trkpt lat="45.5966048" lon="10.935634"><ele>695.4</ele><time>2026-05-02T08:20:54.979Z</time></trkpt><trkpt lat="45.596661" lon="10.9357443"><ele>698.1999999999999</ele><time>2026-05-02T08:20:55.971Z</time></trkpt><trkpt lat="45.5967189" lon="10.9358532"><ele>701.0</ele><time>2026-05-02T08:20:56.972Z</time></trkpt><trkpt lat="45.5967808" lon="10.9359577"><ele>701.0</ele><time>2026-05-02T08:20:57.973Z</time></trkpt><trkpt lat="45.5968464" lon="10.9360619"><ele>701.0</ele><time>2026-05-02T08:20:58.976Z</time></trkpt><trkpt lat="45.5969047" lon="10.936174"><ele>701.0</ele><time>2026-05-02T08:21:00.045Z</time></trkpt><trkpt lat="45.5969666" lon="10.9362811"><ele>701.0</ele><time>2026-05-02T08:21:01.04Z</time></trkpt><trkpt lat="45.597029" lon="10.9363874"><ele>701.0</ele><time>2026-05-02T08:21:01.96Z</time></trkpt><trkpt lat="45.5970902" lon="10.9364872"><ele>703.4</ele><time>2026-05-02T08:21:02.97Z</time></trkpt><trkpt lat="45.597155" lon="10.9365799"><ele>705.8</ele><time>2026-05-02T08:21:03.992Z</time></trkpt><trkpt lat="45.5972242" lon="10.9366719"><ele>708.1999999999999</ele><time>2026-05-02T08:21:04.971Z</time></trkpt><trkpt lat="45.5972919" lon="10.9367521"><ele>710.5999999999999</ele><time>2026-05-02T08:21:05.977Z</time></trkpt><trkpt lat="45.5973603" lon="10.9368379"><ele>713.0</ele><time>2026-05-02T08:21:06.975Z</time></trkpt><trkpt lat="45.5974312" lon="10.9369216"><ele>714.8</ele><time>2026-05-02T08:21:08.049Z</time></trkpt><trkpt lat="45.5974953" lon="10.9370057"><ele>716.5999999999999</ele><time>2026-05-02T08:21:09.033Z</time></trkpt><trkpt lat="45.5975597" lon="10.9370921"><ele>718.4000000000001</ele><time>2026-05-02T08:21:09.974Z</time></trkpt><trkpt lat="45.597617" lon="10.9371896"><ele>720.2</ele><time>2026-05-02T08:21:11.039Z</time></trkpt><trkpt lat="45.5976748" lon="10.9373058"><ele>722.0</ele><time>2026-05-02T08:21:11.967Z</time></trkpt><trkpt lat="45.5977209" lon="10.9374279"><ele>722.0</ele><time>2026-05-02T08:21:12.97Z</time></trkpt><trkpt lat="45.5977696" lon="10.9375297"><ele>722.0</ele><time>2026-05-02T08:21:13.976Z</time></trkpt><trkpt lat="45.5978255" lon="10.9375963"><ele>722.0</ele><time>2026-05-02T08:21:14.961Z</time></trkpt><trkpt lat="45.5978998" lon="10.9376289"><ele>722.0</ele><time>2026-05-02T08:21:16.043Z</time></trkpt><trkpt lat="45.5979932" lon="10.9375876"><ele>722.0</ele><time>2026-05-02T08:21:16.946Z</time></trkpt><trkpt lat="45.5980741" lon="10.9375274"><ele>722.0</ele><time>2026-05-02T08:21:17.956Z</time></trkpt><trkpt lat="45.5981711" lon="10.9374698"><ele>725.6</ele><time>2026-05-02T08:21:18.946Z</time></trkpt><trkpt lat="45.5982715" lon="10.9374234"><ele>729.2</ele><time>2026-05-02T08:21:20.017Z</time></trkpt><trkpt lat="45.5983759" lon="10.9373988"><ele>732.8</ele><time>2026-05-02T08:21:20.967Z</time></trkpt><trkpt lat="45.5984747" lon="10.9373794"><ele>736.4</ele><time>2026-05-02T08:21:21.94Z</time></trkpt><trkpt lat="45.5985692" lon="10.9373663"><ele>740.0</ele><time>2026-05-02T08:21:22.95Z</time></trkpt><trkpt lat="45.5986616" lon="10.9373609"><ele>740.3333333333333</ele><time>2026-05-02T08:21:23.955Z</time></trkpt><trkpt lat="45.5987579" lon="10.9373714"><ele>740.6666666666666</ele><time>2026-05-02T08:21:24.961Z</time></trkpt><trkpt lat="45.5988519" lon="10.9373902"><ele>741.0</ele><time>2026-05-02T08:21:25.961Z</time></trkpt><trkpt lat="45.5989401" lon="10.9374205"><ele>741.3333333333334</ele><time>2026-05-02T08:21:26.953Z</time></trkpt><trkpt lat="45.5990203" lon="10.9374366"><ele>741.6666666666667</ele><time>2026-05-02T08:21:28.013Z</time></trkpt><trkpt lat="45.5990994" lon="10.9374415"><ele>742.0</ele><time>2026-05-02T08:21:28.957Z</time></trkpt><trkpt lat="45.5991735" lon="10.9374471"><ele>742.0</ele><time>2026-05-02T08:21:30.047Z</time></trkpt><trkpt lat="45.5992421" lon="10.9374465"><ele>742.0</ele><time>2026-05-02T08:21:31.011Z</time></trkpt><trkpt lat="45.5993099" lon="10.9374597"><ele>742.0</ele><time>2026-05-02T08:21:31.953Z</time></trkpt><trkpt lat="45.5994207" lon="10.9375035"><ele>742.0</ele><time>2026-05-02T08:21:33.965Z</time></trkpt><trkpt lat="45.5994849" lon="10.9374681"><ele>742.0</ele><time>2026-05-02T08:21:35.956Z</time></trkpt><trkpt lat="45.5995523" lon="10.9374163"><ele>742.0</ele><time>2026-05-02T08:21:38.965Z</time></trkpt><trkpt lat="45.5996301" lon="10.9373353"><ele>742.8333333333334</ele><time>2026-05-02T08:21:40.957Z</time></trkpt><trkpt lat="45.5996935" lon="10.9372724"><ele>743.6666666666667</ele><time>2026-05-02T08:21:41.954Z</time></trkpt><trkpt lat="45.599755" lon="10.9372152"><ele>744.5</ele><time>2026-05-02T08:21:42.965Z</time></trkpt><trkpt lat="45.599828" lon="10.9371419"><ele>745.3333333333334</ele><time>2026-05-02T08:21:43.959Z</time></trkpt><trkpt lat="45.5999051" lon="10.9370656"><ele>746.1666666666666</ele><time>2026-05-02T08:21:44.953Z</time></trkpt><trkpt lat="45.5999756" lon="10.9369974"><ele>747.0</ele><time>2026-05-02T08:21:45.958Z</time></trkpt><trkpt lat="45.6000563" lon="10.9369425"><ele>747.0</ele><time>2026-05-02T08:21:46.969Z</time></trkpt><trkpt lat="45.6001252" lon="10.9368966"><ele>747.0</ele><time>2026-05-02T08:21:47.958Z</time></trkpt><trkpt lat="45.6001995" lon="10.9368559"><ele>747.0</ele><time>2026-05-02T08:21:48.958Z</time></trkpt><trkpt lat="45.6002652" lon="10.9368254"><ele>747.0</ele><time>2026-05-02T08:21:49.955Z</time></trkpt><trkpt lat="45.6003743" lon="10.9368046"><ele>747.0</ele><time>2026-05-02T08:21:51.955Z</time></trkpt><trkpt lat="45.6004343" lon="10.9368347"><ele>747.0</ele><time>2026-05-02T08:22:44.971Z</time></trkpt><trkpt lat="45.6004843" lon="10.93693"><ele>748.5</ele><time>2026-05-02T08:22:47.963Z</time></trkpt><trkpt lat="45.600503" lon="10.9370192"><ele>750.0</ele><time>2026-05-02T08:22:50.951Z</time></trkpt><trkpt lat="45.600584" lon="10.9369986"><ele>751.5</ele><time>2026-05-02T08:22:53.947Z</time></trkpt><trkpt lat="45.6006455" lon="10.9369489"><ele>753.0</ele><time>2026-05-02T08:22:56.959Z</time></trkpt><trkpt lat="45.6007077" lon="10.936873"><ele>754.5</ele><time>2026-05-02T08:22:59.958Z</time></trkpt><trkpt lat="45.6007738" lon="10.9367926"><ele>756.0</ele><time>2026-05-02T08:23:02.96Z</time></trkpt><trkpt lat="45.600819" lon="10.9367166"><ele>756.0</ele><time>2026-05-02T08:23:04.961Z</time></trkpt><trkpt lat="45.6008444" lon="10.9366341"><ele>756.0</ele><time>2026-05-02T08:23:06.952Z</time></trkpt><trkpt lat="45.6008732" lon="10.9365497"><ele>756.0</ele><time>2026-05-02T08:23:08.961Z</time></trkpt><trkpt lat="45.6009069" lon="10.9364614"><ele>756.0</ele><time>2026-05-02T08:23:10.955Z</time></trkpt><trkpt lat="45.6009486" lon="10.9363744"><ele>756.0</ele><time>2026-05-02T08:23:12.959Z</time></trkpt><trkpt lat="45.6009923" lon="10.9362898"><ele>756.0</ele><time>2026-05-02T08:23:14.953Z</time></trkpt><trkpt lat="45.6010322" lon="10.9361973"><ele>756.0</ele><time>2026-05-02T08:23:16.978Z</time></trkpt><trkpt lat="45.6010653" lon="10.9361023"><ele>756.0</ele><time>2026-05-02T08:23:18.957Z</time></trkpt><trkpt lat="45.6011253" lon="10.9359837"><ele>756.0</ele><time>2026-05-02T08:23:20.955Z</time></trkpt><trkpt lat="45.6011656" lon="10.935914"><ele>756.0</ele><time>2026-05-02T08:23:21.938Z</time></trkpt><trkpt lat="45.6012016" lon="10.93578"><ele>756.0</ele><time>2026-05-02T08:23:23.954Z</time></trkpt><trkpt lat="45.6012446" lon="10.9356758"><ele>756.0</ele><time>2026-05-02T08:23:25.955Z</time></trkpt><trkpt lat="45.6012713" lon="10.9355912"><ele>756.0</ele><time>2026-05-02T08:23:27.959Z</time></trkpt><trkpt lat="45.6013056" lon="10.9354783"><ele>760.8333333333334</ele><time>2026-05-02T08:23:30.962Z</time></trkpt><trkpt lat="45.6013577" lon="10.9353618"><ele>765.6666666666667</ele><time>2026-05-02T08:23:32.966Z</time></trkpt><trkpt lat="45.6014104" lon="10.9352462"><ele>770.5</ele><time>2026-05-02T08:23:34.953Z</time></trkpt><trkpt lat="45.6014288" lon="10.935151"><ele>775.3333333333334</ele><time>2026-05-02T08:23:36.959Z</time></trkpt><trkpt lat="45.6014487" lon="10.935038"><ele>780.1666666666667</ele><time>2026-05-02T08:23:39.962Z</time></trkpt><trkpt lat="45.6014642" lon="10.9349449"><ele>785.0</ele><time>2026-05-02T08:23:42.946Z</time></trkpt><trkpt lat="45.6014808" lon="10.9348489"><ele>785.0000000000001</ele><time>2026-05-02T08:23:46.961Z</time></trkpt><trkpt lat="45.6015149" lon="10.9347302"><ele>785.0</ele><time>2026-05-02T08:23:49.946Z</time></trkpt><trkpt lat="45.6015639" lon="10.9346299"><ele>785.0</ele><time>2026-05-02T08:23:52.959Z</time></trkpt><trkpt lat="45.6016286" lon="10.9345505"><ele>785.0</ele><time>2026-05-02T08:23:55.963Z</time></trkpt><trkpt lat="45.6017013" lon="10.9344933"><ele>785.0000000000001</ele><time>2026-05-02T08:23:58.956Z</time></trkpt><trkpt lat="45.6017612" lon="10.9345485"><ele>785.0</ele><time>2026-05-02T08:24:03.961Z</time></trkpt><trkpt lat="45.6018151" lon="10.934604"><ele>785.0000000000001</ele><time>2026-05-02T08:24:11.958Z</time></trkpt><trkpt lat="45.6019059" lon="10.9347173"><ele>785.0</ele><time>2026-05-02T08:24:13.958Z</time></trkpt><trkpt lat="45.6019586" lon="10.9347811"><ele>785.0</ele><time>2026-05-02T08:24:14.96Z</time></trkpt><trkpt lat="45.6020203" lon="10.9348421"><ele>785.0</ele><time>2026-05-02T08:24:15.963Z</time></trkpt><trkpt lat="45.602085" lon="10.934904"><ele>785.0000000000001</ele><time>2026-05-02T08:24:16.958Z</time></trkpt><trkpt lat="45.6021491" lon="10.9349644"><ele>785.0</ele><time>2026-05-02T08:24:17.959Z</time></trkpt><trkpt lat="45.6022141" lon="10.93503"><ele>786.7142857142858</ele><time>2026-05-02T08:24:18.964Z</time></trkpt><trkpt lat="45.6022767" lon="10.9350782"><ele>788.4285714285713</ele><time>2026-05-02T08:24:19.966Z</time></trkpt><trkpt lat="45.6023402" lon="10.9351115"><ele>790.1428571428571</ele><time>2026-05-02T08:24:20.971Z</time></trkpt><trkpt lat="45.6024037" lon="10.9351634"><ele>791.8571428571429</ele><time>2026-05-02T08:24:21.974Z</time></trkpt><trkpt lat="45.6024751" lon="10.9352263"><ele>793.5714285714287</ele><time>2026-05-02T08:24:22.961Z</time></trkpt><trkpt lat="45.6025386" lon="10.9352975"><ele>795.2857142857142</ele><time>2026-05-02T08:24:24.026Z</time></trkpt><trkpt lat="45.6025894" lon="10.9353669"><ele>797.0</ele><time>2026-05-02T08:24:25.03Z</time></trkpt><trkpt lat="45.6026342" lon="10.9354532"><ele>797.0000000000001</ele><time>2026-05-02T08:24:26.968Z</time></trkpt><trkpt lat="45.6026794" lon="10.9353769"><ele>797.0</ele><time>2026-05-02T08:25:09.968Z</time></trkpt><trkpt lat="45.6027607" lon="10.9353636"><ele>797.0</ele><time>2026-05-02T08:25:11.964Z</time></trkpt><trkpt lat="45.6028385" lon="10.9353624"><ele>797.0</ele><time>2026-05-02T08:25:12.96Z</time></trkpt><trkpt lat="45.6029079" lon="10.9353681"><ele>797.0000000000001</ele><time>2026-05-02T08:25:13.966Z</time></trkpt><trkpt lat="45.602978" lon="10.9353701"><ele>797.0</ele><time>2026-05-02T08:25:14.966Z</time></trkpt><trkpt lat="45.6030965" lon="10.9353831"><ele>797.0000000000001</ele><time>2026-05-02T08:25:16.961Z</time></trkpt><trkpt lat="45.6031604" lon="10.935387"><ele>797.0</ele><time>2026-05-02T08:25:17.948Z</time></trkpt><trkpt lat="45.6032685" lon="10.9354449"><ele>797.0</ele><time>2026-05-02T08:25:19.954Z</time></trkpt><trkpt lat="45.6033686" lon="10.9355238"><ele>797.0</ele><time>2026-05-02T08:25:21.959Z</time></trkpt><trkpt lat="45.6034368" lon="10.9355854"><ele>797.0000000000001</ele><time>2026-05-02T08:25:23.96Z</time></trkpt><trkpt lat="45.6035055" lon="10.9355632"><ele>797.0</ele><time>2026-05-02T08:25:43.961Z</time></trkpt><trkpt lat="45.6035598" lon="10.9355017"><ele>797.0000000000001</ele><time>2026-05-02T08:25:50.961Z</time></trkpt><trkpt lat="45.6036343" lon="10.9355211"><ele>797.0</ele><time>2026-05-02T08:26:01.96Z</time></trkpt><trkpt lat="45.6037223" lon="10.9355727"><ele>797.0</ele><time>2026-05-02T08:26:04.069Z</time></trkpt><trkpt lat="45.6038323" lon="10.9356396"><ele>797.0</ele><time>2026-05-02T08:26:05.974Z</time></trkpt><trkpt lat="45.6038931" lon="10.9356879"><ele>797.0000000000001</ele><time>2026-05-02T08:26:06.96Z</time></trkpt><trkpt lat="45.6039544" lon="10.9357375"><ele>797.0</ele><time>2026-05-02T08:26:07.989Z</time></trkpt><trkpt lat="45.6040152" lon="10.9357944"><ele>796.8333333333334</ele><time>2026-05-02T08:26:08.96Z</time></trkpt><trkpt lat="45.604075" lon="10.9358437"><ele>796.6666666666667</ele><time>2026-05-02T08:26:09.954Z</time></trkpt><trkpt lat="45.6041346" lon="10.9359034"><ele>796.5</ele><time>2026-05-02T08:26:10.956Z</time></trkpt><trkpt lat="45.6041956" lon="10.9359613"><ele>796.3333333333333</ele><time>2026-05-02T08:26:11.959Z</time></trkpt><trkpt lat="45.6042626" lon="10.9360091"><ele>796.1666666666666</ele><time>2026-05-02T08:26:13.071Z</time></trkpt><trkpt lat="45.6043387" lon="10.9360505"><ele>796.0</ele><time>2026-05-02T08:26:13.97Z</time></trkpt><trkpt lat="45.6044152" lon="10.9360914"><ele>795.9999999999999</ele><time>2026-05-02T08:26:14.955Z</time></trkpt><trkpt lat="45.6044818" lon="10.9361141"><ele>796.0</ele><time>2026-05-02T08:26:15.966Z</time></trkpt><trkpt lat="45.6045902" lon="10.9361235"><ele>796.0</ele><time>2026-05-02T08:26:26.972Z</time></trkpt><trkpt lat="45.6046577" lon="10.9361621"><ele>796.0</ele><time>2026-05-02T08:26:28.96Z</time></trkpt><trkpt lat="45.6047608" lon="10.93621"><ele>795.9999999999999</ele><time>2026-05-02T08:26:30.96Z</time></trkpt><trkpt lat="45.604826" lon="10.9362433"><ele>796.0</ele><time>2026-05-02T08:26:31.97Z</time></trkpt><trkpt lat="45.6048891" lon="10.9362855"><ele>790.8333333333333</ele><time>2026-05-02T08:26:32.955Z</time></trkpt><trkpt lat="45.6049568" lon="10.9363407"><ele>785.6666666666666</ele><time>2026-05-02T08:26:33.945Z</time></trkpt><trkpt lat="45.6050284" lon="10.9363987"><ele>780.5</ele><time>2026-05-02T08:26:34.958Z</time></trkpt><trkpt lat="45.6051008" lon="10.9364528"><ele>775.3333333333333</ele><time>2026-05-02T08:26:35.963Z</time></trkpt><trkpt lat="45.6051671" lon="10.936514"><ele>770.1666666666666</ele><time>2026-05-02T08:26:36.954Z</time></trkpt><trkpt lat="45.6052289" lon="10.9365774"><ele>765.0</ele><time>2026-05-02T08:26:38.024Z</time></trkpt><trkpt lat="45.6052861" lon="10.9366453"><ele>766.6666666666666</ele><time>2026-05-02T08:26:39.031Z</time></trkpt><trkpt lat="45.605343" lon="10.9367104"><ele>768.3333333333333</ele><time>2026-05-02T08:26:40.036Z</time></trkpt><trkpt lat="45.6053888" lon="10.9367743"><ele>770.0</ele><time>2026-05-02T08:26:40.96Z</time></trkpt><trkpt lat="45.6054777" lon="10.9368855"><ele>771.6666666666666</ele><time>2026-05-02T08:26:42.966Z</time></trkpt><trkpt lat="45.6055798" lon="10.9368907"><ele>773.3333333333333</ele><time>2026-05-02T08:26:44.957Z</time></trkpt><trkpt lat="45.6056492" lon="10.9368777"><ele>775.0</ele><time>2026-05-02T08:26:45.963Z</time></trkpt><trkpt lat="45.6057193" lon="10.9368736"><ele>774.9999999999999</ele><time>2026-05-02T08:26:46.951Z</time></trkpt><trkpt lat="45.6058026" lon="10.9368834"><ele>775.0</ele><time>2026-05-02T08:26:47.954Z</time></trkpt><trkpt lat="45.6058812" lon="10.9368732"><ele>775.0</ele><time>2026-05-02T08:26:48.952Z</time></trkpt><trkpt lat="45.6059696" lon="10.9368357"><ele>775.0</ele><time>2026-05-02T08:26:49.961Z</time></trkpt><trkpt lat="45.6060487" lon="10.936781"><ele>774.9999999999999</ele><time>2026-05-02T08:26:50.968Z</time></trkpt><trkpt lat="45.6061302" lon="10.9366926"><ele>775.0</ele><time>2026-05-02T08:26:51.955Z</time></trkpt><trkpt lat="45.6062072" lon="10.9365812"><ele>773.6</ele><time>2026-05-02T08:26:52.962Z</time></trkpt><trkpt lat="45.6062753" lon="10.9364719"><ele>772.2</ele><time>2026-05-02T08:26:54.005Z</time></trkpt><trkpt lat="45.6063487" lon="10.9363662"><ele>770.8</ele><time>2026-05-02T08:26:54.956Z</time></trkpt><trkpt lat="45.6064144" lon="10.9362704"><ele>769.4</ele><time>2026-05-02T08:26:55.955Z</time></trkpt><trkpt lat="45.60647" lon="10.9361677"><ele>768.0</ele><time>2026-05-02T08:26:56.96Z</time></trkpt><trkpt lat="45.6065144" lon="10.9360622"><ele>768.0</ele><time>2026-05-02T08:26:57.958Z</time></trkpt><trkpt lat="45.6065461" lon="10.9359562"><ele>768.0</ele><time>2026-05-02T08:26:58.962Z</time></trkpt><trkpt lat="45.606578" lon="10.9358433"><ele>768.0</ele><time>2026-05-02T08:26:59.964Z</time></trkpt><trkpt lat="45.6066164" lon="10.9357106"><ele>768.0</ele><time>2026-05-02T08:27:00.968Z</time></trkpt><trkpt lat="45.6066493" lon="10.9355604"><ele>768.0</ele><time>2026-05-02T08:27:01.965Z</time></trkpt><trkpt lat="45.6066786" lon="10.9354291"><ele>763.8</ele><time>2026-05-02T08:27:02.992Z</time></trkpt><trkpt lat="45.6067063" lon="10.9352937"><ele>759.5999999999999</ele><time>2026-05-02T08:27:03.967Z</time></trkpt><trkpt lat="45.6067254" lon="10.935146"><ele>755.4000000000001</ele><time>2026-05-02T08:27:04.949Z</time></trkpt><trkpt lat="45.6067317" lon="10.9349919"><ele>751.2</ele><time>2026-05-02T08:27:05.959Z</time></trkpt><trkpt lat="45.6067405" lon="10.9348541"><ele>747.0</ele><time>2026-05-02T08:27:06.961Z</time></trkpt><trkpt lat="45.6067641" lon="10.9347311"><ele>745.5</ele><time>2026-05-02T08:27:07.954Z</time></trkpt><trkpt lat="45.6068051" lon="10.934628"><ele>744.0</ele><time>2026-05-02T08:27:08.965Z</time></trkpt><trkpt lat="45.6068506" lon="10.9345223"><ele>742.5</ele><time>2026-05-02T08:27:09.955Z</time></trkpt><trkpt lat="45.6068941" lon="10.9344117"><ele>741.0</ele><time>2026-05-02T08:27:10.964Z</time></trkpt><trkpt lat="45.6069308" lon="10.9343094"><ele>739.5</ele><time>2026-05-02T08:27:11.966Z</time></trkpt><trkpt lat="45.6069792" lon="10.934219"><ele>738.0</ele><time>2026-05-02T08:27:12.964Z</time></trkpt><trkpt lat="45.6070525" lon="10.9341592"><ele>738.0</ele><time>2026-05-02T08:27:13.964Z</time></trkpt><trkpt lat="45.6071267" lon="10.9341138"><ele>738.0</ele><time>2026-05-02T08:27:14.972Z</time></trkpt><trkpt lat="45.6072008" lon="10.9340865"><ele>738.0</ele><time>2026-05-02T08:27:15.977Z</time></trkpt><trkpt lat="45.6072672" lon="10.9340665"><ele>738.0</ele><time>2026-05-02T08:27:16.975Z</time></trkpt><trkpt lat="45.6073343" lon="10.9340517"><ele>738.0</ele><time>2026-05-02T08:27:17.959Z</time></trkpt><trkpt lat="45.6073996" lon="10.9340375"><ele>738.0</ele><time>2026-05-02T08:27:18.957Z</time></trkpt><trkpt lat="45.6074659" lon="10.9340322"><ele>738.0</ele><time>2026-05-02T08:27:19.964Z</time></trkpt><trkpt lat="45.6075379" lon="10.9340304"><ele>738.0</ele><time>2026-05-02T08:27:20.962Z</time></trkpt><trkpt lat="45.6076093" lon="10.934024"><ele>738.0</ele><time>2026-05-02T08:27:21.961Z</time></trkpt><trkpt lat="45.6076756" lon="10.9340214"><ele>738.0</ele><time>2026-05-02T08:27:22.959Z</time></trkpt><trkpt lat="45.6077392" lon="10.9340224"><ele>738.0</ele><time>2026-05-02T08:27:23.956Z</time></trkpt><trkpt lat="45.6078038" lon="10.9340221"><ele>738.0</ele><time>2026-05-02T08:27:24.959Z</time></trkpt><trkpt lat="45.6078674" lon="10.9340214"><ele>738.0</ele><time>2026-05-02T08:27:25.967Z</time></trkpt><trkpt lat="45.6079461" lon="10.9340161"><ele>738.0</ele><time>2026-05-02T08:27:26.967Z</time></trkpt><trkpt lat="45.6080464" lon="10.9340165"><ele>736.75</ele><time>2026-05-02T08:27:27.977Z</time></trkpt><trkpt lat="45.608158" lon="10.9340162"><ele>735.5</ele><time>2026-05-02T08:27:29.039Z</time></trkpt><trkpt lat="45.6082818" lon="10.9340124"><ele>734.25</ele><time>2026-05-02T08:27:30.03Z</time></trkpt><trkpt lat="45.6083996" lon="10.9340145"><ele>733.0</ele><time>2026-05-02T08:27:30.962Z</time></trkpt><trkpt lat="45.6085204" lon="10.9340238"><ele>733.0</ele><time>2026-05-02T08:27:31.966Z</time></trkpt><trkpt lat="45.6086398" lon="10.9340419"><ele>733.0</ele><time>2026-05-02T08:27:32.963Z</time></trkpt><trkpt lat="45.6087585" lon="10.9340489"><ele>733.0</ele><time>2026-05-02T08:27:33.97Z</time></trkpt><trkpt lat="45.6088724" lon="10.9340499"><ele>733.0</ele><time>2026-05-02T08:27:34.968Z</time></trkpt><trkpt lat="45.6089885" lon="10.9340571"><ele>731.25</ele><time>2026-05-02T08:27:35.963Z</time></trkpt><trkpt lat="45.6091054" lon="10.9340714"><ele>729.5</ele><time>2026-05-02T08:27:36.963Z</time></trkpt><trkpt lat="45.6092194" lon="10.9340674"><ele>727.75</ele><time>2026-05-02T08:27:37.965Z</time></trkpt><trkpt lat="45.6093424" lon="10.934064"><ele>726.0</ele><time>2026-05-02T08:27:38.985Z</time></trkpt><trkpt lat="45.6094639" lon="10.9340717"><ele>724.5</ele><time>2026-05-02T08:27:39.957Z</time></trkpt><trkpt lat="45.6095873" lon="10.9340983"><ele>723.0</ele><time>2026-05-02T08:27:40.965Z</time></trkpt><trkpt lat="45.609707" lon="10.9341225"><ele>721.5</ele><time>2026-05-02T08:27:41.959Z</time></trkpt><trkpt lat="45.6098245" lon="10.934138"><ele>720.0</ele><time>2026-05-02T08:27:42.958Z</time></trkpt><trkpt lat="45.6099332" lon="10.9341314"><ele>720.0</ele><time>2026-05-02T08:27:43.971Z</time></trkpt><trkpt lat="45.610036" lon="10.9340735"><ele>720.0</ele><time>2026-05-02T08:27:44.961Z</time></trkpt><trkpt lat="45.6101275" lon="10.93398"><ele>720.0</ele><time>2026-05-02T08:27:46.022Z</time></trkpt><trkpt lat="45.610201" lon="10.9338683"><ele>720.0</ele><time>2026-05-02T08:27:46.964Z</time></trkpt><trkpt lat="45.6102624" lon="10.9337277"><ele>720.0</ele><time>2026-05-02T08:27:47.957Z</time></trkpt><trkpt lat="45.6103168" lon="10.9335655"><ele>718.0</ele><time>2026-05-02T08:27:48.97Z</time></trkpt><trkpt lat="45.6103742" lon="10.9333797"><ele>716.0</ele><time>2026-05-02T08:27:49.956Z</time></trkpt><trkpt lat="45.6104266" lon="10.9331953"><ele>714.0</ele><time>2026-05-02T08:27:50.957Z</time></trkpt><trkpt lat="45.610489" lon="10.9329985"><ele>712.0</ele><time>2026-05-02T08:27:51.963Z</time></trkpt><trkpt lat="45.6105528" lon="10.9327941"><ele>712.0</ele><time>2026-05-02T08:27:52.965Z</time></trkpt><trkpt lat="45.6106197" lon="10.9325825"><ele>712.0</ele><time>2026-05-02T08:27:53.966Z</time></trkpt><trkpt lat="45.6106812" lon="10.9323792"><ele>712.0</ele><time>2026-05-02T08:27:54.973Z</time></trkpt><trkpt lat="45.6107407" lon="10.9321805"><ele>709.3333333333334</ele><time>2026-05-02T08:27:56.056Z</time></trkpt><trkpt lat="45.6108654" lon="10.9318153"><ele>706.6666666666666</ele><time>2026-05-02T08:27:57.951Z</time></trkpt><trkpt lat="45.6109352" lon="10.9316536"><ele>704.0</ele><time>2026-05-02T08:27:58.957Z</time></trkpt><trkpt lat="45.6110055" lon="10.9314967"><ele>701.75</ele><time>2026-05-02T08:27:59.968Z</time></trkpt><trkpt lat="45.6110786" lon="10.9313299"><ele>699.5</ele><time>2026-05-02T08:28:00.962Z</time></trkpt><trkpt lat="45.6111518" lon="10.9311623"><ele>697.25</ele><time>2026-05-02T08:28:01.963Z</time></trkpt><trkpt lat="45.6112231" lon="10.930993"><ele>695.0</ele><time>2026-05-02T08:28:02.985Z</time></trkpt><trkpt lat="45.611294" lon="10.9308076"><ele>693.5</ele><time>2026-05-02T08:28:03.993Z</time></trkpt><trkpt lat="45.6113615" lon="10.9306239"><ele>692.0</ele><time>2026-05-02T08:28:04.968Z</time></trkpt><trkpt lat="45.6114276" lon="10.9304474"><ele>690.5</ele><time>2026-05-02T08:28:05.991Z</time></trkpt><trkpt lat="45.6114935" lon="10.9302782"><ele>689.0</ele><time>2026-05-02T08:28:06.97Z</time></trkpt><trkpt lat="45.6115526" lon="10.9301568"><ele>689.0</ele><time>2026-05-02T08:28:07.961Z</time></trkpt><trkpt lat="45.6116233" lon="10.9300971"><ele>689.0</ele><time>2026-05-02T08:28:08.965Z</time></trkpt><trkpt lat="45.611713" lon="10.9300807"><ele>689.0</ele><time>2026-05-02T08:28:09.972Z</time></trkpt><trkpt lat="45.611806" lon="10.9301149"><ele>689.0</ele><time>2026-05-02T08:28:10.988Z</time></trkpt><trkpt lat="45.6118949" lon="10.9301733"><ele>689.0</ele><time>2026-05-02T08:28:11.967Z</time></trkpt><trkpt lat="45.6119863" lon="10.9302496"><ele>686.5</ele><time>2026-05-02T08:28:12.968Z</time></trkpt><trkpt lat="45.6120854" lon="10.9303523"><ele>684.0</ele><time>2026-05-02T08:28:13.966Z</time></trkpt><trkpt lat="45.6121938" lon="10.9304456"><ele>681.5</ele><time>2026-05-02T08:28:14.956Z</time></trkpt><trkpt lat="45.6122855" lon="10.9305542"><ele>679.0</ele><time>2026-05-02T08:28:15.965Z</time></trkpt><trkpt lat="45.6123635" lon="10.9307019"><ele>679.0</ele><time>2026-05-02T08:28:16.964Z</time></trkpt><trkpt lat="45.6124163" lon="10.9308522"><ele>679.0</ele><time>2026-05-02T08:28:17.963Z</time></trkpt><trkpt lat="45.6124572" lon="10.9310205"><ele>679.0</ele><time>2026-05-02T08:28:18.973Z</time></trkpt><trkpt lat="45.612474" lon="10.9311926"><ele>679.0</ele><time>2026-05-02T08:28:19.95Z</time></trkpt><trkpt lat="45.6124903" lon="10.9313791"><ele>678.75</ele><time>2026-05-02T08:28:20.96Z</time></trkpt><trkpt lat="45.6125093" lon="10.9315598"><ele>678.5</ele><time>2026-05-02T08:28:21.962Z</time></trkpt><trkpt lat="45.6125343" lon="10.9317329"><ele>678.25</ele><time>2026-05-02T08:28:22.966Z</time></trkpt><trkpt lat="45.612548" lon="10.931919"><ele>678.0</ele><time>2026-05-02T08:28:23.944Z</time></trkpt><trkpt lat="45.6125703" lon="10.9320964"><ele>678.0</ele><time>2026-05-02T08:28:25.035Z</time></trkpt><trkpt lat="45.6125978" lon="10.93227"><ele>678.0</ele><time>2026-05-02T08:28:26.03Z</time></trkpt><trkpt lat="45.6126255" lon="10.9324451"><ele>678.0</ele><time>2026-05-02T08:28:26.966Z</time></trkpt><trkpt lat="45.6126443" lon="10.9326169"><ele>678.0</ele><time>2026-05-02T08:28:27.962Z</time></trkpt><trkpt lat="45.612664" lon="10.9327831"><ele>678.75</ele><time>2026-05-02T08:28:28.957Z</time></trkpt><trkpt lat="45.6126759" lon="10.9329434"><ele>679.5</ele><time>2026-05-02T08:28:29.96Z</time></trkpt><trkpt lat="45.6126739" lon="10.9331138"><ele>680.25</ele><time>2026-05-02T08:28:30.964Z</time></trkpt><trkpt lat="45.6126558" lon="10.9332902"><ele>681.0</ele><time>2026-05-02T08:28:31.955Z</time></trkpt><trkpt lat="45.6126463" lon="10.9334478"><ele>681.4</ele><time>2026-05-02T08:28:32.959Z</time></trkpt><trkpt lat="45.6126416" lon="10.9336036"><ele>681.8</ele><time>2026-05-02T08:28:34.031Z</time></trkpt><trkpt lat="45.6126455" lon="10.9337624"><ele>682.1999999999999</ele><time>2026-05-02T08:28:35.036Z</time></trkpt><trkpt lat="45.6126649" lon="10.9338895"><ele>682.5999999999999</ele><time>2026-05-02T08:28:36.03Z</time></trkpt><trkpt lat="45.6127064" lon="10.9340096"><ele>683.0</ele><time>2026-05-02T08:28:36.963Z</time></trkpt><trkpt lat="45.6127789" lon="10.9340472"><ele>681.5999999999999</ele><time>2026-05-02T08:28:37.965Z</time></trkpt><trkpt lat="45.6128546" lon="10.9339997"><ele>680.1999999999999</ele><time>2026-05-02T08:28:38.967Z</time></trkpt><trkpt lat="45.6129172" lon="10.9339219"><ele>678.8</ele><time>2026-05-02T08:28:39.956Z</time></trkpt><trkpt lat="45.6129825" lon="10.933814"><ele>677.4</ele><time>2026-05-02T08:28:40.959Z</time></trkpt><trkpt lat="45.6130653" lon="10.93371"><ele>676.0</ele><time>2026-05-02T08:28:41.956Z</time></trkpt><trkpt lat="45.6131607" lon="10.9336117"><ele>676.0</ele><time>2026-05-02T08:28:43.052Z</time></trkpt><trkpt lat="45.6132528" lon="10.9335069"><ele>676.0</ele><time>2026-05-02T08:28:44.024Z</time></trkpt><trkpt lat="45.6133486" lon="10.933408"><ele>676.0</ele><time>2026-05-02T08:28:45.024Z</time></trkpt><trkpt lat="45.6134552" lon="10.9333572"><ele>676.0</ele><time>2026-05-02T08:28:45.959Z</time></trkpt><trkpt lat="45.6135638" lon="10.9333744"><ele>675.0</ele><time>2026-05-02T08:28:46.954Z</time></trkpt><trkpt lat="45.6136686" lon="10.9334168"><ele>674.0</ele><time>2026-05-02T08:28:47.95Z</time></trkpt><trkpt lat="45.6137672" lon="10.9335084"><ele>673.0</ele><time>2026-05-02T08:28:48.958Z</time></trkpt><trkpt lat="45.613862" lon="10.9336021"><ele>672.0</ele><time>2026-05-02T08:28:49.954Z</time></trkpt><trkpt lat="45.6139454" lon="10.9336922"><ele>671.0</ele><time>2026-05-02T08:28:51.028Z</time></trkpt><trkpt lat="45.6140235" lon="10.9337126"><ele>671.0</ele><time>2026-05-02T08:28:51.956Z</time></trkpt><trkpt lat="45.6140857" lon="10.9336546"><ele>671.0</ele><time>2026-05-02T08:28:52.959Z</time></trkpt><trkpt lat="45.614102" lon="10.9335553"><ele>671.0</ele><time>2026-05-02T08:28:54.001Z</time></trkpt><trkpt lat="45.614092" lon="10.9334414"><ele>671.0</ele><time>2026-05-02T08:28:54.961Z</time></trkpt><trkpt lat="45.6140775" lon="10.9333065"><ele>671.0</ele><time>2026-05-02T08:28:55.963Z</time></trkpt><trkpt lat="45.6140702" lon="10.9331367"><ele>671.0</ele><time>2026-05-02T08:28:56.957Z</time></trkpt><trkpt lat="45.6140639" lon="10.9329653"><ele>670.75</ele><time>2026-05-02T08:28:57.96Z</time></trkpt><trkpt lat="45.6140459" lon="10.9327851"><ele>670.5</ele><time>2026-05-02T08:28:58.983Z</time></trkpt><trkpt lat="45.6140119" lon="10.9326155"><ele>670.25</ele><time>2026-05-02T08:28:59.958Z</time></trkpt><trkpt lat="45.6139671" lon="10.9324428"><ele>670.0</ele><time>2026-05-02T08:29:01.055Z</time></trkpt><trkpt lat="45.6139182" lon="10.932271"><ele>670.75</ele><time>2026-05-02T08:29:01.995Z</time></trkpt><trkpt lat="45.6138919" lon="10.9320918"><ele>671.5</ele><time>2026-05-02T08:29:02.961Z</time></trkpt><trkpt lat="45.613896" lon="10.9319041"><ele>672.25</ele><time>2026-05-02T08:29:03.962Z</time></trkpt><trkpt lat="45.6139211" lon="10.9317061"><ele>673.0</ele><time>2026-05-02T08:29:04.965Z</time></trkpt><trkpt lat="45.6139604" lon="10.9315051"><ele>673.5</ele><time>2026-05-02T08:29:05.96Z</time></trkpt><trkpt lat="45.6140008" lon="10.9313066"><ele>674.0</ele><time>2026-05-02T08:29:06.965Z</time></trkpt><trkpt lat="45.6140303" lon="10.9311065"><ele>674.5</ele><time>2026-05-02T08:29:08.031Z</time></trkpt><trkpt lat="45.6140684" lon="10.930917"><ele>675.0</ele><time>2026-05-02T08:29:08.969Z</time></trkpt><trkpt lat="45.6141219" lon="10.9307461"><ele>673.0</ele><time>2026-05-02T08:29:10.006Z</time></trkpt><trkpt lat="45.6141709" lon="10.9305837"><ele>671.0</ele><time>2026-05-02T08:29:10.971Z</time></trkpt><trkpt lat="45.6142169" lon="10.9304277"><ele>669.0</ele><time>2026-05-02T08:29:11.968Z</time></trkpt><trkpt lat="45.6142845" lon="10.9302821"><ele>667.0</ele><time>2026-05-02T08:29:12.964Z</time></trkpt><trkpt lat="45.614374" lon="10.9301684"><ele>667.0</ele><time>2026-05-02T08:29:13.963Z</time></trkpt><trkpt lat="45.6144743" lon="10.9301042"><ele>667.0</ele><time>2026-05-02T08:29:14.962Z</time></trkpt><trkpt lat="45.6145858" lon="10.9300782"><ele>667.0</ele><time>2026-05-02T08:29:15.967Z</time></trkpt><trkpt lat="45.6146922" lon="10.9300899"><ele>667.0</ele><time>2026-05-02T08:29:16.982Z</time></trkpt><trkpt lat="45.6147861" lon="10.9301204"><ele>667.0</ele><time>2026-05-02T08:29:17.968Z</time></trkpt><trkpt lat="45.6148788" lon="10.9301781"><ele>669.6</ele><time>2026-05-02T08:29:19.013Z</time></trkpt><trkpt lat="45.6149747" lon="10.9302347"><ele>672.2</ele><time>2026-05-02T08:29:19.993Z</time></trkpt><trkpt lat="45.6150808" lon="10.9302739"><ele>674.8</ele><time>2026-05-02T08:29:20.999Z</time></trkpt><trkpt lat="45.6151918" lon="10.9303014"><ele>677.4</ele><time>2026-05-02T08:29:21.968Z</time></trkpt><trkpt lat="45.6152974" lon="10.9302918"><ele>680.0</ele><time>2026-05-02T08:29:22.971Z</time></trkpt><trkpt lat="45.6153787" lon="10.9302749"><ele>680.1666666666666</ele><time>2026-05-02T08:29:23.966Z</time></trkpt><trkpt lat="45.6154629" lon="10.9302246"><ele>680.3333333333333</ele><time>2026-05-02T08:29:24.962Z</time></trkpt><trkpt lat="45.615522" lon="10.9301555"><ele>680.5</ele><time>2026-05-02T08:29:25.956Z</time></trkpt><trkpt lat="45.6155185" lon="10.9300265"><ele>680.6666666666666</ele><time>2026-05-02T08:29:27.957Z</time></trkpt><trkpt lat="45.6154323" lon="10.9299457"><ele>680.8333333333334</ele><time>2026-05-02T08:29:29.956Z</time></trkpt><trkpt lat="45.6153618" lon="10.9299182"><ele>681.0</ele><time>2026-05-02T08:29:30.967Z</time></trkpt><trkpt lat="45.6152787" lon="10.9298821"><ele>677.4</ele><time>2026-05-02T08:29:31.971Z</time></trkpt><trkpt lat="45.6151865" lon="10.9298449"><ele>673.8</ele><time>2026-05-02T08:29:32.969Z</time></trkpt><trkpt lat="45.6151062" lon="10.929782"><ele>670.1999999999999</ele><time>2026-05-02T08:29:33.95Z</time></trkpt><trkpt lat="45.6150261" lon="10.9296997"><ele>666.5999999999999</ele><time>2026-05-02T08:29:34.96Z</time></trkpt><trkpt lat="45.6149563" lon="10.9295874"><ele>663.0</ele><time>2026-05-02T08:29:35.958Z</time></trkpt><trkpt lat="45.6148887" lon="10.9294407"><ele>663.0</ele><time>2026-05-02T08:29:36.961Z</time></trkpt><trkpt lat="45.614823" lon="10.9292862"><ele>663.0</ele><time>2026-05-02T08:29:37.957Z</time></trkpt><trkpt lat="45.6147583" lon="10.9291371"><ele>663.0</ele><time>2026-05-02T08:29:38.961Z</time></trkpt><trkpt lat="45.6146834" lon="10.9289856"><ele>663.0</ele><time>2026-05-02T08:29:39.945Z</time></trkpt><trkpt lat="45.6146155" lon="10.9288351"><ele>663.0</ele><time>2026-05-02T08:29:41.04Z</time></trkpt><trkpt lat="45.6145502" lon="10.9286879"><ele>663.0</ele><time>2026-05-02T08:29:41.964Z</time></trkpt><trkpt lat="45.6144915" lon="10.9285387"><ele>663.0</ele><time>2026-05-02T08:29:42.966Z</time></trkpt><trkpt lat="45.6144226" lon="10.928392"><ele>663.0</ele><time>2026-05-02T08:29:43.983Z</time></trkpt><trkpt lat="45.6143777" lon="10.9282378"><ele>663.0</ele><time>2026-05-02T08:29:44.988Z</time></trkpt><trkpt lat="45.6143498" lon="10.9280855"><ele>663.0</ele><time>2026-05-02T08:29:45.967Z</time></trkpt><trkpt lat="45.6143593" lon="10.9279317"><ele>663.0</ele><time>2026-05-02T08:29:47.025Z</time></trkpt><trkpt lat="45.6144139" lon="10.9277928"><ele>663.0</ele><time>2026-05-02T08:29:47.965Z</time></trkpt><trkpt lat="45.6144883" lon="10.9276824"><ele>663.0</ele><time>2026-05-02T08:29:48.968Z</time></trkpt><trkpt lat="45.6145681" lon="10.9275875"><ele>659.0</ele><time>2026-05-02T08:29:49.953Z</time></trkpt><trkpt lat="45.6146654" lon="10.9275183"><ele>655.0</ele><time>2026-05-02T08:29:51.022Z</time></trkpt><trkpt lat="45.6147812" lon="10.9274704"><ele>651.0</ele><time>2026-05-02T08:29:51.95Z</time></trkpt><trkpt lat="45.6149032" lon="10.9274142"><ele>647.0</ele><time>2026-05-02T08:29:52.964Z</time></trkpt><trkpt lat="45.6150305" lon="10.9273645"><ele>647.0</ele><time>2026-05-02T08:29:53.967Z</time></trkpt><trkpt lat="45.6151678" lon="10.9273262"><ele>647.0</ele><time>2026-05-02T08:29:55.034Z</time></trkpt><trkpt lat="45.6153" lon="10.9272853"><ele>647.0</ele><time>2026-05-02T08:29:55.959Z</time></trkpt><trkpt lat="45.6154343" lon="10.9272446"><ele>647.0</ele><time>2026-05-02T08:29:56.963Z</time></trkpt><trkpt lat="45.6155588" lon="10.9272091"><ele>649.0</ele><time>2026-05-02T08:29:57.98Z</time></trkpt><trkpt lat="45.6156832" lon="10.9271823"><ele>651.0</ele><time>2026-05-02T08:29:58.966Z</time></trkpt><trkpt lat="45.6157999" lon="10.9271636"><ele>653.0</ele><time>2026-05-02T08:29:59.969Z</time></trkpt><trkpt lat="45.6159115" lon="10.9271755"><ele>655.0</ele><time>2026-05-02T08:30:00.974Z</time></trkpt><trkpt lat="45.6160161" lon="10.9271917"><ele>655.0</ele><time>2026-05-02T08:30:01.971Z</time></trkpt><trkpt lat="45.6161213" lon="10.927178"><ele>655.0</ele><time>2026-05-02T08:30:02.97Z</time></trkpt><trkpt lat="45.6162054" lon="10.927151"><ele>655.0</ele><time>2026-05-02T08:30:03.962Z</time></trkpt><trkpt lat="45.6162732" lon="10.9270842"><ele>655.0</ele><time>2026-05-02T08:30:04.968Z</time></trkpt><trkpt lat="45.6162906" lon="10.9269934"><ele>655.0</ele><time>2026-05-02T08:30:05.955Z</time></trkpt><trkpt lat="45.6162816" lon="10.9268993"><ele>655.0</ele><time>2026-05-02T08:30:06.953Z</time></trkpt><trkpt lat="45.6162536" lon="10.926778"><ele>654.4</ele><time>2026-05-02T08:30:07.96Z</time></trkpt><trkpt lat="45.6161959" lon="10.9266647"><ele>653.8</ele><time>2026-05-02T08:30:08.954Z</time></trkpt><trkpt lat="45.6161169" lon="10.9265673"><ele>653.2</ele><time>2026-05-02T08:30:09.952Z</time></trkpt><trkpt lat="45.6160123" lon="10.9264885"><ele>652.6</ele><time>2026-05-02T08:30:10.951Z</time></trkpt><trkpt lat="45.6159043" lon="10.9264303"><ele>652.0</ele><time>2026-05-02T08:30:11.957Z</time></trkpt><trkpt lat="45.6157811" lon="10.9263816"><ele>650.5</ele><time>2026-05-02T08:30:12.953Z</time></trkpt><trkpt lat="45.6156569" lon="10.9263374"><ele>649.0</ele><time>2026-05-02T08:30:13.957Z</time></trkpt><trkpt lat="45.6155208" lon="10.9263106"><ele>647.5</ele><time>2026-05-02T08:30:14.96Z</time></trkpt><trkpt lat="45.6153824" lon="10.9262885"><ele>646.0</ele><time>2026-05-02T08:30:15.961Z</time></trkpt><trkpt lat="45.6152519" lon="10.9262715"><ele>645.25</ele><time>2026-05-02T08:30:16.954Z</time></trkpt><trkpt lat="45.6151247" lon="10.9262516"><ele>644.5</ele><time>2026-05-02T08:30:17.962Z</time></trkpt><trkpt lat="45.6149988" lon="10.9262378"><ele>643.75</ele><time>2026-05-02T08:30:18.961Z</time></trkpt><trkpt lat="45.6148619" lon="10.9262259"><ele>643.0</ele><time>2026-05-02T08:30:19.958Z</time></trkpt><trkpt lat="45.6147375" lon="10.9262135"><ele>643.0</ele><time>2026-05-02T08:30:20.959Z</time></trkpt><trkpt lat="45.6146295" lon="10.9261905"><ele>643.0</ele><time>2026-05-02T08:30:21.972Z</time></trkpt><trkpt lat="45.6145111" lon="10.9261352"><ele>643.0</ele><time>2026-05-02T08:30:22.963Z</time></trkpt><trkpt lat="45.6143899" lon="10.926056"><ele>643.0</ele><time>2026-05-02T08:30:23.955Z</time></trkpt><trkpt lat="45.6142775" lon="10.9259587"><ele>645.0</ele><time>2026-05-02T08:30:24.957Z</time></trkpt><trkpt lat="45.6141585" lon="10.9258899"><ele>647.0</ele><time>2026-05-02T08:30:25.965Z</time></trkpt><trkpt lat="45.6140459" lon="10.9258509"><ele>649.0</ele><time>2026-05-02T08:30:26.957Z</time></trkpt><trkpt lat="45.6139413" lon="10.9258379"><ele>651.0</ele><time>2026-05-02T08:30:27.957Z</time></trkpt><trkpt lat="45.6138401" lon="10.9258159"><ele>651.0</ele><time>2026-05-02T08:30:28.961Z</time></trkpt><trkpt lat="45.6137494" lon="10.9257895"><ele>651.0</ele><time>2026-05-02T08:30:29.955Z</time></trkpt><trkpt lat="45.6136891" lon="10.9257526"><ele>651.0</ele><time>2026-05-02T08:30:30.958Z</time></trkpt><trkpt lat="45.61363" lon="10.9257105"><ele>651.0</ele><time>2026-05-02T08:30:38.961Z</time></trkpt><trkpt lat="45.6135621" lon="10.9256093"><ele>651.0</ele><time>2026-05-02T08:30:41.963Z</time></trkpt><trkpt lat="45.6135139" lon="10.9255098"><ele>651.0</ele><time>2026-05-02T08:30:43.956Z</time></trkpt><trkpt lat="45.6134545" lon="10.9253401"><ele>651.25</ele><time>2026-05-02T08:30:45.961Z</time></trkpt><trkpt lat="45.613384" lon="10.9252325"><ele>651.5</ele><time>2026-05-02T08:30:46.958Z</time></trkpt><trkpt lat="45.6133055" lon="10.925123"><ele>651.75</ele><time>2026-05-02T08:30:47.958Z</time></trkpt><trkpt lat="45.613199" lon="10.9250064"><ele>652.0</ele><time>2026-05-02T08:30:48.959Z</time></trkpt><trkpt lat="45.6130815" lon="10.924901"><ele>652.0</ele><time>2026-05-02T08:30:49.956Z</time></trkpt><trkpt lat="45.6129606" lon="10.9248004"><ele>652.0</ele><time>2026-05-02T08:30:50.966Z</time></trkpt><trkpt lat="45.6128355" lon="10.9246957"><ele>652.0</ele><time>2026-05-02T08:30:51.95Z</time></trkpt><trkpt lat="45.6127109" lon="10.9245918"><ele>652.0</ele><time>2026-05-02T08:30:53.03Z</time></trkpt><trkpt lat="45.6125924" lon="10.9244942"><ele>651.0</ele><time>2026-05-02T08:30:53.959Z</time></trkpt><trkpt lat="45.6124747" lon="10.924406"><ele>650.0</ele><time>2026-05-02T08:30:55.044Z</time></trkpt><trkpt lat="45.6123557" lon="10.9243217"><ele>649.0</ele><time>2026-05-02T08:30:55.963Z</time></trkpt><trkpt lat="45.6122463" lon="10.9242288"><ele>648.0</ele><time>2026-05-02T08:30:56.964Z</time></trkpt><trkpt lat="45.6121516" lon="10.9241109"><ele>648.0</ele><time>2026-05-02T08:30:57.964Z</time></trkpt><trkpt lat="45.6120904" lon="10.9239861"><ele>648.0</ele><time>2026-05-02T08:30:58.955Z</time></trkpt><trkpt lat="45.6120561" lon="10.9238558"><ele>648.0</ele><time>2026-05-02T08:30:59.953Z</time></trkpt><trkpt lat="45.6120633" lon="10.9237104"><ele>648.0</ele><time>2026-05-02T08:31:00.963Z</time></trkpt><trkpt lat="45.6121041" lon="10.9235765"><ele>648.0</ele><time>2026-05-02T08:31:01.958Z</time></trkpt><trkpt lat="45.612152" lon="10.9234591"><ele>648.5999999999999</ele><time>2026-05-02T08:31:02.966Z</time></trkpt><trkpt lat="45.6121992" lon="10.9233426"><ele>649.1999999999999</ele><time>2026-05-02T08:31:04.03Z</time></trkpt><trkpt lat="45.6122239" lon="10.9232398"><ele>649.8</ele><time>2026-05-02T08:31:04.96Z</time></trkpt><trkpt lat="45.6122227" lon="10.9231378"><ele>650.4</ele><time>2026-05-02T08:31:06.029Z</time></trkpt><trkpt lat="45.6120817" lon="10.9230588"><ele>651.0</ele><time>2026-05-02T08:31:07.966Z</time></trkpt><trkpt lat="45.6119803" lon="10.9230557"><ele>642.25</ele><time>2026-05-02T08:31:08.974Z</time></trkpt><trkpt lat="45.6118803" lon="10.9230006"><ele>633.5</ele><time>2026-05-02T08:31:09.965Z</time></trkpt><trkpt lat="45.611773" lon="10.9229077"><ele>624.75</ele><time>2026-05-02T08:31:10.965Z</time></trkpt><trkpt lat="45.6116731" lon="10.9227978"><ele>616.0</ele><time>2026-05-02T08:31:11.96Z</time></trkpt><trkpt lat="45.6115808" lon="10.9226723"><ele>621.5</ele><time>2026-05-02T08:31:12.965Z</time></trkpt><trkpt lat="45.6114968" lon="10.9225166"><ele>627.0</ele><time>2026-05-02T08:31:13.985Z</time></trkpt><trkpt lat="45.6114241" lon="10.9223579"><ele>632.5</ele><time>2026-05-02T08:31:14.958Z</time></trkpt><trkpt lat="45.6113625" lon="10.9221884"><ele>638.0</ele><time>2026-05-02T08:31:15.962Z</time></trkpt><trkpt lat="45.6112937" lon="10.9220411"><ele>638.0</ele><time>2026-05-02T08:31:16.957Z</time></trkpt><trkpt lat="45.6112425" lon="10.9219135"><ele>638.0</ele><time>2026-05-02T08:31:17.965Z</time></trkpt><trkpt lat="45.611206" lon="10.9217839"><ele>638.0</ele><time>2026-05-02T08:31:18.958Z</time></trkpt><trkpt lat="45.6111997" lon="10.9216565"><ele>638.0</ele><time>2026-05-02T08:31:19.959Z</time></trkpt><trkpt lat="45.6112299" lon="10.9215285"><ele>638.0</ele><time>2026-05-02T08:31:20.955Z</time></trkpt><trkpt lat="45.6112931" lon="10.921395"><ele>637.6</ele><time>2026-05-02T08:31:21.953Z</time></trkpt><trkpt lat="45.6113371" lon="10.9212639"><ele>637.1999999999999</ele><time>2026-05-02T08:31:22.953Z</time></trkpt><trkpt lat="45.611374" lon="10.9211183"><ele>636.8</ele><time>2026-05-02T08:31:23.952Z</time></trkpt><trkpt lat="45.6113818" lon="10.9209567"><ele>636.4</ele><time>2026-05-02T08:31:25.053Z</time></trkpt><trkpt lat="45.6113811" lon="10.9207885"><ele>636.0</ele><time>2026-05-02T08:31:26.033Z</time></trkpt><trkpt lat="45.6113786" lon="10.9206078"><ele>636.0</ele><time>2026-05-02T08:31:26.983Z</time></trkpt><trkpt lat="45.6113681" lon="10.9204235"><ele>636.0</ele><time>2026-05-02T08:31:27.965Z</time></trkpt><trkpt lat="45.6113491" lon="10.9202325"><ele>636.0</ele><time>2026-05-02T08:31:28.95Z</time></trkpt><trkpt lat="45.6113142" lon="10.9200533"><ele>636.0</ele><time>2026-05-02T08:31:29.963Z</time></trkpt><trkpt lat="45.6112993" lon="10.9198848"><ele>634.6</ele><time>2026-05-02T08:31:30.966Z</time></trkpt><trkpt lat="45.6113229" lon="10.9197302"><ele>633.2</ele><time>2026-05-02T08:31:31.968Z</time></trkpt><trkpt lat="45.6113902" lon="10.9196078"><ele>631.8</ele><time>2026-05-02T08:31:32.958Z</time></trkpt><trkpt lat="45.6114787" lon="10.9195351"><ele>630.4</ele><time>2026-05-02T08:31:33.973Z</time></trkpt><trkpt lat="45.6115804" lon="10.9195249"><ele>629.0</ele><time>2026-05-02T08:31:34.972Z</time></trkpt><trkpt lat="45.6116876" lon="10.9195449"><ele>629.0</ele><time>2026-05-02T08:31:35.958Z</time></trkpt><trkpt lat="45.6117821" lon="10.919583"><ele>629.0</ele><time>2026-05-02T08:31:36.969Z</time></trkpt><trkpt lat="45.6118712" lon="10.9196198"><ele>629.0</ele><time>2026-05-02T08:31:37.964Z</time></trkpt><trkpt lat="45.6119669" lon="10.9196546"><ele>629.0</ele><time>2026-05-02T08:31:38.962Z</time></trkpt><trkpt lat="45.6120622" lon="10.9196298"><ele>629.0</ele><time>2026-05-02T08:31:39.965Z</time></trkpt><trkpt lat="45.6121268" lon="10.9195293"><ele>631.0</ele><time>2026-05-02T08:31:40.959Z</time></trkpt><trkpt lat="45.6121689" lon="10.9194002"><ele>633.0</ele><time>2026-05-02T08:31:41.954Z</time></trkpt><trkpt lat="45.6122012" lon="10.91928"><ele>635.0</ele><time>2026-05-02T08:31:42.959Z</time></trkpt><trkpt lat="45.6122461" lon="10.9191577"><ele>637.0</ele><time>2026-05-02T08:31:43.952Z</time></trkpt><trkpt lat="45.6123159" lon="10.9190478"><ele>639.0</ele><time>2026-05-02T08:31:44.959Z</time></trkpt><trkpt lat="45.6124144" lon="10.9190043"><ele>633.25</ele><time>2026-05-02T08:31:46.046Z</time></trkpt><trkpt lat="45.612526" lon="10.9189805"><ele>627.5</ele><time>2026-05-02T08:31:46.971Z</time></trkpt><trkpt lat="45.6126497" lon="10.9189915"><ele>621.75</ele><time>2026-05-02T08:31:47.965Z</time></trkpt><trkpt lat="45.6127712" lon="10.9190248"><ele>616.0</ele><time>2026-05-02T08:31:49.005Z</time></trkpt><trkpt lat="45.6128936" lon="10.9190949"><ele>614.5</ele><time>2026-05-02T08:31:49.966Z</time></trkpt><trkpt lat="45.6130293" lon="10.9191863"><ele>613.0</ele><time>2026-05-02T08:31:51.06Z</time></trkpt><trkpt lat="45.6131663" lon="10.919265"><ele>611.5</ele><time>2026-05-02T08:31:51.964Z</time></trkpt><trkpt lat="45.6132966" lon="10.9193452"><ele>610.0</ele><time>2026-05-02T08:31:53.035Z</time></trkpt><trkpt lat="45.6134138" lon="10.9194172"><ele>613.8</ele><time>2026-05-02T08:31:54.043Z</time></trkpt><trkpt lat="45.6135304" lon="10.9194775"><ele>617.6</ele><time>2026-05-02T08:31:55.052Z</time></trkpt><trkpt lat="45.6136377" lon="10.9195291"><ele>621.4</ele><time>2026-05-02T08:31:55.962Z</time></trkpt><trkpt lat="45.6137323" lon="10.9195944"><ele>625.2</ele><time>2026-05-02T08:31:56.971Z</time></trkpt><trkpt lat="45.613833" lon="10.9196167"><ele>629.0</ele><time>2026-05-02T08:31:57.976Z</time></trkpt><trkpt lat="45.6139254" lon="10.9196032"><ele>629.0</ele><time>2026-05-02T08:31:58.971Z</time></trkpt><trkpt lat="45.6140194" lon="10.9195938"><ele>629.0</ele><time>2026-05-02T08:32:00.05Z</time></trkpt><trkpt lat="45.6141081" lon="10.9196161"><ele>629.0</ele><time>2026-05-02T08:32:01.042Z</time></trkpt><trkpt lat="45.614177" lon="10.9196276"><ele>629.0</ele><time>2026-05-02T08:32:01.957Z</time></trkpt><trkpt lat="45.6142531" lon="10.919529"><ele>629.0</ele><time>2026-05-02T08:32:03.968Z</time></trkpt><trkpt lat="45.6142442" lon="10.9194206"><ele>629.0</ele><time>2026-05-02T08:32:05.044Z</time></trkpt><trkpt lat="45.6142135" lon="10.9193089"><ele>626.8</ele><time>2026-05-02T08:32:05.958Z</time></trkpt><trkpt lat="45.6141683" lon="10.919203"><ele>624.5999999999999</ele><time>2026-05-02T08:32:07.005Z</time></trkpt><trkpt lat="45.6141172" lon="10.9191041"><ele>622.4</ele><time>2026-05-02T08:32:07.96Z</time></trkpt><trkpt lat="45.6140431" lon="10.9190075"><ele>620.1999999999999</ele><time>2026-05-02T08:32:08.992Z</time></trkpt><trkpt lat="45.6139486" lon="10.9188977"><ele>618.0</ele><time>2026-05-02T08:32:09.955Z</time></trkpt><trkpt lat="45.6138506" lon="10.9187935"><ele>618.0</ele><time>2026-05-02T08:32:10.961Z</time></trkpt><trkpt lat="45.6137551" lon="10.9186723"><ele>618.0</ele><time>2026-05-02T08:32:11.965Z</time></trkpt><trkpt lat="45.6136865" lon="10.9185627"><ele>618.0</ele><time>2026-05-02T08:32:12.949Z</time></trkpt><trkpt lat="45.6136987" lon="10.9184657"><ele>618.0</ele><time>2026-05-02T08:32:14.986Z</time></trkpt><trkpt lat="45.6138206" lon="10.9184625"><ele>618.0</ele><time>2026-05-02T08:32:16.961Z</time></trkpt><trkpt lat="45.6139087" lon="10.9184895"><ele>618.0</ele><time>2026-05-02T08:32:17.954Z</time></trkpt><trkpt lat="45.6140099" lon="10.9185132"><ele>618.0</ele><time>2026-05-02T08:32:19.032Z</time></trkpt><trkpt lat="45.6141371" lon="10.9185271"><ele>618.0</ele><time>2026-05-02T08:32:19.954Z</time></trkpt><trkpt lat="45.6142806" lon="10.9185365"><ele>618.0</ele><time>2026-05-02T08:32:20.965Z</time></trkpt><trkpt lat="45.6144477" lon="10.9185513"><ele>621.0</ele><time>2026-05-02T08:32:21.956Z</time></trkpt><trkpt lat="45.6146187" lon="10.91857"><ele>624.0</ele><time>2026-05-02T08:32:22.981Z</time></trkpt><trkpt lat="45.6147689" lon="10.9185734"><ele>627.0</ele><time>2026-05-02T08:32:23.947Z</time></trkpt><trkpt lat="45.6149073" lon="10.9185777"><ele>627.0</ele><time>2026-05-02T08:32:24.955Z</time></trkpt><trkpt lat="45.6150419" lon="10.9185781"><ele>627.0</ele><time>2026-05-02T08:32:25.956Z</time></trkpt><trkpt lat="45.6151578" lon="10.9186065"><ele>627.0</ele><time>2026-05-02T08:32:26.958Z</time></trkpt><trkpt lat="45.6152613" lon="10.9186567"><ele>627.0</ele><time>2026-05-02T08:32:27.951Z</time></trkpt><trkpt lat="45.6153465" lon="10.9187084"><ele>626.8000000000001</ele><time>2026-05-02T08:32:28.961Z</time></trkpt><trkpt lat="45.6154593" lon="10.9187204"><ele>626.6</ele><time>2026-05-02T08:32:31.034Z</time></trkpt><trkpt lat="45.6155095" lon="10.9186513"><ele>626.4000000000001</ele><time>2026-05-02T08:32:31.953Z</time></trkpt><trkpt lat="45.6154945" lon="10.9184643"><ele>626.2</ele><time>2026-05-02T08:32:33.985Z</time></trkpt><trkpt lat="45.6154497" lon="10.9183389"><ele>626.0</ele><time>2026-05-02T08:32:35.036Z</time></trkpt><trkpt lat="45.6153904" lon="10.9182257"><ele>621.5</ele><time>2026-05-02T08:32:35.985Z</time></trkpt><trkpt lat="45.6153169" lon="10.9181009"><ele>617.0</ele><time>2026-05-02T08:32:36.964Z</time></trkpt><trkpt lat="45.6152112" lon="10.9179975"><ele>612.5</ele><time>2026-05-02T08:32:38.034Z</time></trkpt><trkpt lat="45.6151052" lon="10.9178888"><ele>608.0</ele><time>2026-05-02T08:32:38.986Z</time></trkpt><trkpt lat="45.6149873" lon="10.9177917"><ele>608.0</ele><time>2026-05-02T08:32:39.958Z</time></trkpt><trkpt lat="45.6148553" lon="10.9177015"><ele>608.0</ele><time>2026-05-02T08:32:41.015Z</time></trkpt><trkpt lat="45.6147281" lon="10.9176044"><ele>608.0</ele><time>2026-05-02T08:32:41.954Z</time></trkpt><trkpt lat="45.6146054" lon="10.91749"><ele>608.0</ele><time>2026-05-02T08:32:42.95Z</time></trkpt><trkpt lat="45.614473" lon="10.9173799"><ele>604.3333333333333</ele><time>2026-05-02T08:32:43.946Z</time></trkpt><trkpt lat="45.6143264" lon="10.9172884"><ele>600.6666666666666</ele><time>2026-05-02T08:32:44.963Z</time></trkpt><trkpt lat="45.6141893" lon="10.917194"><ele>597.0</ele><time>2026-05-02T08:32:45.966Z</time></trkpt><trkpt lat="45.6140502" lon="10.9170828"><ele>597.0</ele><time>2026-05-02T08:32:46.963Z</time></trkpt><trkpt lat="45.6139133" lon="10.9169543"><ele>597.0</ele><time>2026-05-02T08:32:47.957Z</time></trkpt><trkpt lat="45.6137773" lon="10.916845"><ele>597.0</ele><time>2026-05-02T08:32:48.955Z</time></trkpt><trkpt lat="45.6136272" lon="10.9167506"><ele>597.0</ele><time>2026-05-02T08:32:49.962Z</time></trkpt><trkpt lat="45.6134932" lon="10.9166507"><ele>597.0</ele><time>2026-05-02T08:32:50.955Z</time></trkpt><trkpt lat="45.6133624" lon="10.9165341"><ele>597.0</ele><time>2026-05-02T08:32:51.965Z</time></trkpt><trkpt lat="45.6132259" lon="10.9164356"><ele>597.0</ele><time>2026-05-02T08:32:52.963Z</time></trkpt><trkpt lat="45.6130965" lon="10.9163856"><ele>597.0</ele><time>2026-05-02T08:32:53.961Z</time></trkpt><trkpt lat="45.6129739" lon="10.9163542"><ele>597.0</ele><time>2026-05-02T08:32:54.959Z</time></trkpt><trkpt lat="45.6128513" lon="10.9163332"><ele>597.0</ele><time>2026-05-02T08:32:55.973Z</time></trkpt><trkpt lat="45.6127324" lon="10.9163036"><ele>596.8333333333334</ele><time>2026-05-02T08:32:56.959Z</time></trkpt><trkpt lat="45.6126331" lon="10.9162645"><ele>596.6666666666666</ele><time>2026-05-02T08:32:57.961Z</time></trkpt><trkpt lat="45.6125446" lon="10.9162093"><ele>596.5</ele><time>2026-05-02T08:32:58.955Z</time></trkpt><trkpt lat="45.6124696" lon="10.916148"><ele>596.3333333333333</ele><time>2026-05-02T08:32:59.962Z</time></trkpt><trkpt lat="45.6124201" lon="10.9160702"><ele>596.1666666666666</ele><time>2026-05-02T08:33:00.961Z</time></trkpt><trkpt lat="45.6123925" lon="10.9159787"><ele>596.0</ele><time>2026-05-02T08:33:01.958Z</time></trkpt><trkpt lat="45.6124302" lon="10.9157971"><ele>596.0</ele><time>2026-05-02T08:33:03.955Z</time></trkpt><trkpt lat="45.6124588" lon="10.9157024"><ele>596.0</ele><time>2026-05-02T08:33:04.951Z</time></trkpt><trkpt lat="45.6125017" lon="10.9156026"><ele>596.0</ele><time>2026-05-02T08:33:05.962Z</time></trkpt><trkpt lat="45.612562" lon="10.9155038"><ele>596.0</ele><time>2026-05-02T08:33:06.963Z</time></trkpt><trkpt lat="45.6126333" lon="10.9153997"><ele>596.0</ele><time>2026-05-02T08:33:07.961Z</time></trkpt><trkpt lat="45.612704" lon="10.9152795"><ele>596.0</ele><time>2026-05-02T08:33:08.958Z</time></trkpt><trkpt lat="45.612776" lon="10.9151484"><ele>596.0</ele><time>2026-05-02T08:33:09.961Z</time></trkpt><trkpt lat="45.6128449" lon="10.9150108"><ele>596.0</ele><time>2026-05-02T08:33:10.968Z</time></trkpt><trkpt lat="45.612913" lon="10.9148868"><ele>596.0</ele><time>2026-05-02T08:33:11.962Z</time></trkpt><trkpt lat="45.6129865" lon="10.914774"><ele>596.0</ele><time>2026-05-02T08:33:12.963Z</time></trkpt><trkpt lat="45.6130635" lon="10.9146357"><ele>596.0</ele><time>2026-05-02T08:33:13.965Z</time></trkpt><trkpt lat="45.613138" lon="10.9144529"><ele>596.0</ele><time>2026-05-02T08:33:14.955Z</time></trkpt><trkpt lat="45.6132072" lon="10.9142377"><ele>596.0</ele><time>2026-05-02T08:33:16.021Z</time></trkpt><trkpt lat="45.6132756" lon="10.9140098"><ele>596.0</ele><time>2026-05-02T08:33:16.958Z</time></trkpt><trkpt lat="45.6133541" lon="10.913782"><ele>596.0</ele><time>2026-05-02T08:33:17.961Z</time></trkpt><trkpt lat="45.6134444" lon="10.9135379"><ele>596.0</ele><time>2026-05-02T08:33:18.992Z</time></trkpt><trkpt lat="45.6135326" lon="10.9132805"><ele>600.0</ele><time>2026-05-02T08:33:20.016Z</time></trkpt><trkpt lat="45.6136087" lon="10.9130082"><ele>604.0</ele><time>2026-05-02T08:33:21.034Z</time></trkpt><trkpt lat="45.6136805" lon="10.9127414"><ele>608.0</ele><time>2026-05-02T08:33:21.964Z</time></trkpt><trkpt lat="45.6137148" lon="10.9124795"><ele>608.0</ele><time>2026-05-02T08:33:22.966Z</time></trkpt><trkpt lat="45.6137236" lon="10.9122316"><ele>608.0</ele><time>2026-05-02T08:33:23.951Z</time></trkpt><trkpt lat="45.6137232" lon="10.912006"><ele>608.0</ele><time>2026-05-02T08:33:25.034Z</time></trkpt><trkpt lat="45.6137219" lon="10.911787"><ele>604.5</ele><time>2026-05-02T08:33:26.031Z</time></trkpt><trkpt lat="45.6137332" lon="10.9115857"><ele>601.0</ele><time>2026-05-02T08:33:26.962Z</time></trkpt><trkpt lat="45.613756" lon="10.9114137"><ele>597.5</ele><time>2026-05-02T08:33:27.966Z</time></trkpt><trkpt lat="45.6138053" lon="10.911263"><ele>594.0</ele><time>2026-05-02T08:33:28.976Z</time></trkpt><trkpt lat="45.6138628" lon="10.9111433"><ele>594.0</ele><time>2026-05-02T08:33:29.958Z</time></trkpt><trkpt lat="45.6138947" lon="10.9110272"><ele>594.0</ele><time>2026-05-02T08:33:31.025Z</time></trkpt><trkpt lat="45.613878" lon="10.9108747"><ele>594.0</ele><time>2026-05-02T08:33:31.97Z</time></trkpt><trkpt lat="45.6138444" lon="10.9107144"><ele>594.0</ele><time>2026-05-02T08:33:32.971Z</time></trkpt><trkpt lat="45.6138375" lon="10.9105371"><ele>594.0</ele><time>2026-05-02T08:33:33.962Z</time></trkpt><trkpt lat="45.6138464" lon="10.9103772"><ele>595.2</ele><time>2026-05-02T08:33:35.061Z</time></trkpt><trkpt lat="45.6138447" lon="10.9102371"><ele>596.4</ele><time>2026-05-02T08:33:35.968Z</time></trkpt><trkpt lat="45.6138029" lon="10.9101355"><ele>597.6</ele><time>2026-05-02T08:33:36.976Z</time></trkpt><trkpt lat="45.6137078" lon="10.9100899"><ele>598.8</ele><time>2026-05-02T08:33:37.974Z</time></trkpt><trkpt lat="45.613614" lon="10.9100976"><ele>600.0</ele><time>2026-05-02T08:33:38.975Z</time></trkpt><trkpt lat="45.61354" lon="10.910162"><ele>595.8333333333334</ele><time>2026-05-02T08:33:39.972Z</time></trkpt><trkpt lat="45.6134726" lon="10.9102938"><ele>591.6666666666666</ele><time>2026-05-02T08:33:40.996Z</time></trkpt><trkpt lat="45.6134171" lon="10.9104035"><ele>587.5</ele><time>2026-05-02T08:33:41.976Z</time></trkpt><trkpt lat="45.6133671" lon="10.9104922"><ele>583.3333333333333</ele><time>2026-05-02T08:33:42.98Z</time></trkpt><trkpt lat="45.6133084" lon="10.9105302"><ele>579.1666666666666</ele><time>2026-05-02T08:33:43.974Z</time></trkpt><trkpt lat="45.6132327" lon="10.9104959"><ele>575.0</ele><time>2026-05-02T08:33:44.973Z</time></trkpt><trkpt lat="45.6131731" lon="10.9103846"><ele>575.0</ele><time>2026-05-02T08:33:45.97Z</time></trkpt><trkpt lat="45.6131561" lon="10.9102618"><ele>575.0</ele><time>2026-05-02T08:33:46.972Z</time></trkpt><trkpt lat="45.6131663" lon="10.9101233"><ele>575.0</ele><time>2026-05-02T08:33:47.965Z</time></trkpt><trkpt lat="45.61317" lon="10.909995"><ele>575.0</ele><time>2026-05-02T08:33:48.971Z</time></trkpt><trkpt lat="45.6131695" lon="10.9098656"><ele>575.0</ele><time>2026-05-02T08:33:50.066Z</time></trkpt><trkpt lat="45.6131577" lon="10.9097472"><ele>575.0</ele><time>2026-05-02T08:33:50.972Z</time></trkpt><trkpt lat="45.6131291" lon="10.9096447"><ele>577.0</ele><time>2026-05-02T08:33:51.972Z</time></trkpt><trkpt lat="45.6130632" lon="10.9095926"><ele>579.0</ele><time>2026-05-02T08:33:52.984Z</time></trkpt><trkpt lat="45.6129849" lon="10.9095752"><ele>581.0</ele><time>2026-05-02T08:33:53.969Z</time></trkpt><trkpt lat="45.6128917" lon="10.9096149"><ele>583.0</ele><time>2026-05-02T08:33:54.967Z</time></trkpt><trkpt lat="45.61281" lon="10.9097064"><ele>585.0</ele><time>2026-05-02T08:33:55.966Z</time></trkpt><trkpt lat="45.6127371" lon="10.9098123"><ele>585.4</ele><time>2026-05-02T08:33:56.968Z</time></trkpt><trkpt lat="45.6126843" lon="10.909893"><ele>585.8</ele><time>2026-05-02T08:33:58.041Z</time></trkpt><trkpt lat="45.6126071" lon="10.9099906"><ele>586.2</ele><time>2026-05-02T08:33:58.974Z</time></trkpt><trkpt lat="45.6125412" lon="10.9101059"><ele>586.6</ele><time>2026-05-02T08:33:59.951Z</time></trkpt><trkpt lat="45.6124827" lon="10.9102436"><ele>587.0</ele><time>2026-05-02T08:34:00.952Z</time></trkpt><trkpt lat="45.6124313" lon="10.9104042"><ele>587.0</ele><time>2026-05-02T08:34:01.961Z</time></trkpt><trkpt lat="45.6123928" lon="10.9105682"><ele>587.0</ele><time>2026-05-02T08:34:02.963Z</time></trkpt><trkpt lat="45.61234" lon="10.9107453"><ele>587.0</ele><time>2026-05-02T08:34:03.951Z</time></trkpt><trkpt lat="45.6122982" lon="10.9108852"><ele>587.0</ele><time>2026-05-02T08:34:04.954Z</time></trkpt><trkpt lat="45.6122622" lon="10.9110057"><ele>587.0</ele><time>2026-05-02T08:34:05.955Z</time></trkpt><trkpt lat="45.6122194" lon="10.9110902"><ele>587.0</ele><time>2026-05-02T08:34:06.942Z</time></trkpt><trkpt lat="45.6120938" lon="10.9111299"><ele>587.0</ele><time>2026-05-02T08:34:08.95Z</time></trkpt><trkpt lat="45.6120183" lon="10.9111345"><ele>587.0</ele><time>2026-05-02T08:34:09.951Z</time></trkpt><trkpt lat="45.611939" lon="10.9111185"><ele>587.0</ele><time>2026-05-02T08:34:10.963Z</time></trkpt><trkpt lat="45.6118528" lon="10.9110954"><ele>587.0</ele><time>2026-05-02T08:34:11.958Z</time></trkpt><trkpt lat="45.6117651" lon="10.911066"><ele>587.0</ele><time>2026-05-02T08:34:12.958Z</time></trkpt><trkpt lat="45.6116843" lon="10.9110332"><ele>587.0</ele><time>2026-05-02T08:34:13.956Z</time></trkpt><trkpt lat="45.6116073" lon="10.911001"><ele>587.0</ele><time>2026-05-02T08:34:14.948Z</time></trkpt><trkpt lat="45.6115346" lon="10.9109518"><ele>587.0</ele><time>2026-05-02T08:34:15.948Z</time></trkpt><trkpt lat="45.6114599" lon="10.9109021"><ele>587.0</ele><time>2026-05-02T08:34:16.951Z</time></trkpt><trkpt lat="45.6113907" lon="10.9108279"><ele>587.0</ele><time>2026-05-02T08:34:17.956Z</time></trkpt><trkpt lat="45.6113216" lon="10.9107352"><ele>588.2</ele><time>2026-05-02T08:34:18.949Z</time></trkpt><trkpt lat="45.6112437" lon="10.9106439"><ele>589.4000000000001</ele><time>2026-05-02T08:34:19.962Z</time></trkpt><trkpt lat="45.6111598" lon="10.9105434"><ele>590.5999999999999</ele><time>2026-05-02T08:34:20.956Z</time></trkpt><trkpt lat="45.6110839" lon="10.9104523"><ele>591.8</ele><time>2026-05-02T08:34:21.966Z</time></trkpt><trkpt lat="45.6110042" lon="10.9103723"><ele>593.0</ele><time>2026-05-02T08:34:22.957Z</time></trkpt><trkpt lat="45.6109154" lon="10.9103115"><ele>593.0</ele><time>2026-05-02T08:34:23.95Z</time></trkpt><trkpt lat="45.6108047" lon="10.9102987"><ele>593.0</ele><time>2026-05-02T08:34:24.948Z</time></trkpt><trkpt lat="45.6107164" lon="10.9103083"><ele>593.0</ele><time>2026-05-02T08:34:25.95Z</time></trkpt><trkpt lat="45.6106401" lon="10.9103368"><ele>593.0</ele><time>2026-05-02T08:34:26.96Z</time></trkpt><trkpt lat="45.6105544" lon="10.9103851"><ele>593.0</ele><time>2026-05-02T08:34:28.958Z</time></trkpt><trkpt lat="45.610569" lon="10.9102664"><ele>593.0</ele><time>2026-05-02T08:34:30.953Z</time></trkpt><trkpt lat="45.6106177" lon="10.9101937"><ele>593.0</ele><time>2026-05-02T08:34:31.949Z</time></trkpt><trkpt lat="45.6106728" lon="10.9101264"><ele>593.0</ele><time>2026-05-02T08:34:32.955Z</time></trkpt><trkpt lat="45.6107438" lon="10.91004"><ele>593.0</ele><time>2026-05-02T08:34:33.96Z</time></trkpt><trkpt lat="45.6108229" lon="10.9099632"><ele>593.0</ele><time>2026-05-02T08:34:34.951Z</time></trkpt><trkpt lat="45.6109116" lon="10.9099733"><ele>593.0</ele><time>2026-05-02T08:34:35.947Z</time></trkpt><trkpt lat="45.6110152" lon="10.9100488"><ele>593.0</ele><time>2026-05-02T08:34:36.954Z</time></trkpt><trkpt lat="45.6111122" lon="10.9100997"><ele>593.0</ele><time>2026-05-02T08:34:37.952Z</time></trkpt><trkpt lat="45.6112111" lon="10.9101322"><ele>593.0</ele><time>2026-05-02T08:34:38.963Z</time></trkpt><trkpt lat="45.6113167" lon="10.910145"><ele>593.0</ele><time>2026-05-02T08:34:39.953Z</time></trkpt><trkpt lat="45.6114157" lon="10.9101416"><ele>593.0</ele><time>2026-05-02T08:34:40.954Z</time></trkpt><trkpt lat="45.611511" lon="10.9101233"><ele>595.3333333333333</ele><time>2026-05-02T08:34:41.956Z</time></trkpt><trkpt lat="45.6115932" lon="10.9100655"><ele>597.6666666666666</ele><time>2026-05-02T08:34:42.949Z</time></trkpt><trkpt lat="45.6116632" lon="10.9099777"><ele>600.0</ele><time>2026-05-02T08:34:43.951Z</time></trkpt><trkpt lat="45.6117137" lon="10.9098933"><ele>602.3333333333334</ele><time>2026-05-02T08:34:44.954Z</time></trkpt><trkpt lat="45.6117523" lon="10.9098193"><ele>604.6666666666667</ele><time>2026-05-02T08:34:45.967Z</time></trkpt><trkpt lat="45.6118231" lon="10.9097008"><ele>607.0</ele><time>2026-05-02T08:34:47.96Z</time></trkpt><trkpt lat="45.6119002" lon="10.9095639"><ele>607.0</ele><time>2026-05-02T08:34:49.954Z</time></trkpt><trkpt lat="45.6119425" lon="10.9094667"><ele>607.0</ele><time>2026-05-02T08:34:50.957Z</time></trkpt><trkpt lat="45.6119799" lon="10.9093619"><ele>607.0</ele><time>2026-05-02T08:34:51.959Z</time></trkpt><trkpt lat="45.612021" lon="10.9092494"><ele>607.0</ele><time>2026-05-02T08:34:52.962Z</time></trkpt><trkpt lat="45.6120645" lon="10.9091437"><ele>607.0</ele><time>2026-05-02T08:34:53.967Z</time></trkpt><trkpt lat="45.6121028" lon="10.909043"><ele>607.0</ele><time>2026-05-02T08:34:54.959Z</time></trkpt><trkpt lat="45.6121404" lon="10.9089513"><ele>606.5</ele><time>2026-05-02T08:34:55.952Z</time></trkpt><trkpt lat="45.6121754" lon="10.9088626"><ele>606.0</ele><time>2026-05-02T08:34:56.949Z</time></trkpt><trkpt lat="45.6122121" lon="10.9087752"><ele>605.5</ele><time>2026-05-02T08:34:57.958Z</time></trkpt><trkpt lat="45.6122483" lon="10.9086839"><ele>605.0</ele><time>2026-05-02T08:34:58.959Z</time></trkpt><trkpt lat="45.6122836" lon="10.9086042"><ele>604.5</ele><time>2026-05-02T08:34:59.953Z</time></trkpt><trkpt lat="45.6123467" lon="10.9084826"><ele>604.0</ele><time>2026-05-02T08:35:01.953Z</time></trkpt><trkpt lat="45.612421" lon="10.9083443"><ele>607.4</ele><time>2026-05-02T08:35:03.954Z</time></trkpt><trkpt lat="45.6124663" lon="10.9082506"><ele>610.8</ele><time>2026-05-02T08:35:04.95Z</time></trkpt><trkpt lat="45.6125266" lon="10.9081678"><ele>614.2</ele><time>2026-05-02T08:35:05.953Z</time></trkpt><trkpt lat="45.6126108" lon="10.9080991"><ele>617.6</ele><time>2026-05-02T08:35:06.961Z</time></trkpt><trkpt lat="45.6127045" lon="10.9080225"><ele>621.0</ele><time>2026-05-02T08:35:07.953Z</time></trkpt><trkpt lat="45.6127998" lon="10.9079597"><ele>619.8</ele><time>2026-05-02T08:35:08.954Z</time></trkpt><trkpt lat="45.6128983" lon="10.9079053"><ele>618.6</ele><time>2026-05-02T08:35:09.957Z</time></trkpt><trkpt lat="45.6129922" lon="10.9078571"><ele>617.4</ele><time>2026-05-02T08:35:10.958Z</time></trkpt><trkpt lat="45.6130905" lon="10.907819"><ele>616.2</ele><time>2026-05-02T08:35:11.953Z</time></trkpt><trkpt lat="45.6131865" lon="10.9077854"><ele>615.0</ele><time>2026-05-02T08:35:12.95Z</time></trkpt><trkpt lat="45.6132829" lon="10.9077656"><ele>615.0</ele><time>2026-05-02T08:35:13.96Z</time></trkpt><trkpt lat="45.6133788" lon="10.9077564"><ele>615.0</ele><time>2026-05-02T08:35:14.955Z</time></trkpt><trkpt lat="45.613476" lon="10.9077513"><ele>615.0</ele><time>2026-05-02T08:35:15.959Z</time></trkpt><trkpt lat="45.6135788" lon="10.9077386"><ele>615.0</ele><time>2026-05-02T08:35:16.944Z</time></trkpt><trkpt lat="45.6136844" lon="10.9077184"><ele>615.0</ele><time>2026-05-02T08:35:17.958Z</time></trkpt><trkpt lat="45.6137934" lon="10.90769"><ele>615.75</ele><time>2026-05-02T08:35:18.955Z</time></trkpt><trkpt lat="45.6138994" lon="10.907624"><ele>616.5</ele><time>2026-05-02T08:35:19.961Z</time></trkpt><trkpt lat="45.6140048" lon="10.9075325"><ele>617.25</ele><time>2026-05-02T08:35:20.961Z</time></trkpt><trkpt lat="45.6141013" lon="10.9074226"><ele>618.0</ele><time>2026-05-02T08:35:21.961Z</time></trkpt><trkpt lat="45.6141959" lon="10.9072909"><ele>620.8</ele><time>2026-05-02T08:35:22.954Z</time></trkpt><trkpt lat="45.6142863" lon="10.9071486"><ele>623.5999999999999</ele><time>2026-05-02T08:35:23.954Z</time></trkpt><trkpt lat="45.614361" lon="10.9070267"><ele>626.4000000000001</ele><time>2026-05-02T08:35:24.954Z</time></trkpt><trkpt lat="45.6144353" lon="10.9069269"><ele>629.2</ele><time>2026-05-02T08:35:25.949Z</time></trkpt><trkpt lat="45.6145074" lon="10.9068683"><ele>632.0</ele><time>2026-05-02T08:35:26.959Z</time></trkpt><trkpt lat="45.6145997" lon="10.906867"><ele>634.2</ele><time>2026-05-02T08:35:27.957Z</time></trkpt><trkpt lat="45.6146772" lon="10.9069274"><ele>636.4000000000001</ele><time>2026-05-02T08:35:28.954Z</time></trkpt><trkpt lat="45.6147404" lon="10.9070422"><ele>638.5999999999999</ele><time>2026-05-02T08:35:29.951Z</time></trkpt><trkpt lat="45.6147978" lon="10.9071647"><ele>640.8</ele><time>2026-05-02T08:35:30.958Z</time></trkpt><trkpt lat="45.6148537" lon="10.9072874"><ele>643.0</ele><time>2026-05-02T08:35:31.947Z</time></trkpt><trkpt lat="45.6149006" lon="10.9074157"><ele>643.0</ele><time>2026-05-02T08:35:32.95Z</time></trkpt><trkpt lat="45.614908" lon="10.9075671"><ele>643.0</ele><time>2026-05-02T08:35:33.949Z</time></trkpt><trkpt lat="45.6149051" lon="10.9076946"><ele>643.0</ele><time>2026-05-02T08:35:34.94Z</time></trkpt><trkpt lat="45.6149324" lon="10.9077997"><ele>643.0</ele><time>2026-05-02T08:35:35.95Z</time></trkpt><trkpt lat="45.6150239" lon="10.9078172"><ele>643.0</ele><time>2026-05-02T08:35:37.957Z</time></trkpt><trkpt lat="45.6150612" lon="10.9077356"><ele>643.0</ele><time>2026-05-02T08:35:38.96Z</time></trkpt><trkpt lat="45.6150662" lon="10.9076193"><ele>643.0</ele><time>2026-05-02T08:35:39.957Z</time></trkpt><trkpt lat="45.6150674" lon="10.9074884"><ele>643.0</ele><time>2026-05-02T08:35:40.956Z</time></trkpt><trkpt lat="45.6150769" lon="10.9073527"><ele>643.0</ele><time>2026-05-02T08:35:41.947Z</time></trkpt><trkpt lat="45.6150641" lon="10.9072011"><ele>643.0</ele><time>2026-05-02T08:35:42.956Z</time></trkpt><trkpt lat="45.6150295" lon="10.9070723"><ele>643.0</ele><time>2026-05-02T08:35:43.957Z</time></trkpt><trkpt lat="45.615037" lon="10.9069723"><ele>643.0</ele><time>2026-05-02T08:35:44.952Z</time></trkpt><trkpt lat="45.6151306" lon="10.9069232"><ele>643.0</ele><time>2026-05-02T08:35:46.959Z</time></trkpt><trkpt lat="45.6151833" lon="10.9070797"><ele>643.0</ele><time>2026-05-02T08:35:48.955Z</time></trkpt><trkpt lat="45.6151956" lon="10.9072165"><ele>643.0</ele><time>2026-05-02T08:35:49.95Z</time></trkpt><trkpt lat="45.6152214" lon="10.9073642"><ele>643.0</ele><time>2026-05-02T08:35:50.95Z</time></trkpt><trkpt lat="45.6152839" lon="10.907491"><ele>648.0</ele><time>2026-05-02T08:35:51.956Z</time></trkpt><trkpt lat="45.6153627" lon="10.9075801"><ele>653.0</ele><time>2026-05-02T08:35:52.952Z</time></trkpt><trkpt lat="45.6154795" lon="10.9076104"><ele>658.0</ele><time>2026-05-02T08:35:53.959Z</time></trkpt><trkpt lat="45.615629" lon="10.9075999"><ele>663.0</ele><time>2026-05-02T08:35:54.961Z</time></trkpt><trkpt lat="45.6158007" lon="10.9075583"><ele>663.3333333333334</ele><time>2026-05-02T08:35:55.955Z</time></trkpt><trkpt lat="45.6159779" lon="10.9075155"><ele>663.6666666666667</ele><time>2026-05-02T08:35:56.961Z</time></trkpt><trkpt lat="45.6161424" lon="10.9074958"><ele>664.0</ele><time>2026-05-02T08:35:57.961Z</time></trkpt><trkpt lat="45.6162757" lon="10.9075084"><ele>667.5</ele><time>2026-05-02T08:35:58.961Z</time></trkpt><trkpt lat="45.6163462" lon="10.9075821"><ele>671.0</ele><time>2026-05-02T08:35:59.956Z</time></trkpt><trkpt lat="45.616339" lon="10.9077288"><ele>674.5</ele><time>2026-05-02T08:36:01.956Z</time></trkpt><trkpt lat="45.6163029" lon="10.907826"><ele>678.0</ele><time>2026-05-02T08:36:02.959Z</time></trkpt><trkpt lat="45.6162592" lon="10.907921"><ele>681.5</ele><time>2026-05-02T08:36:03.965Z</time></trkpt><trkpt lat="45.6162287" lon="10.9080338"><ele>685.0</ele><time>2026-05-02T08:36:04.963Z</time></trkpt><trkpt lat="45.6162178" lon="10.9081682"><ele>685.0</ele><time>2026-05-02T08:36:05.96Z</time></trkpt><trkpt lat="45.6162147" lon="10.9083224"><ele>685.0</ele><time>2026-05-02T08:36:06.937Z</time></trkpt><trkpt lat="45.6162387" lon="10.9084822"><ele>685.0</ele><time>2026-05-02T08:36:07.941Z</time></trkpt><trkpt lat="45.6162788" lon="10.9086483"><ele>685.0</ele><time>2026-05-02T08:36:08.952Z</time></trkpt><trkpt lat="45.6163155" lon="10.9088183"><ele>686.0</ele><time>2026-05-02T08:36:09.932Z</time></trkpt><trkpt lat="45.6163427" lon="10.908987"><ele>687.0</ele><time>2026-05-02T08:36:10.943Z</time></trkpt><trkpt lat="45.6163437" lon="10.9091423"><ele>688.0</ele><time>2026-05-02T08:36:11.949Z</time></trkpt><trkpt lat="45.6163264" lon="10.9092956"><ele>689.0</ele><time>2026-05-02T08:36:12.957Z</time></trkpt><trkpt lat="45.6162884" lon="10.9094497"><ele>689.75</ele><time>2026-05-02T08:36:13.98Z</time></trkpt><trkpt lat="45.6162624" lon="10.9096128"><ele>690.5</ele><time>2026-05-02T08:36:14.956Z</time></trkpt><trkpt lat="45.6162579" lon="10.9097903"><ele>691.25</ele><time>2026-05-02T08:36:15.95Z</time></trkpt><trkpt lat="45.6162701" lon="10.9099743"><ele>692.0</ele><time>2026-05-02T08:36:16.958Z</time></trkpt><trkpt lat="45.6163102" lon="10.9101489"><ele>690.25</ele><time>2026-05-02T08:36:17.963Z</time></trkpt><trkpt lat="45.6163786" lon="10.9103202"><ele>688.5</ele><time>2026-05-02T08:36:18.959Z</time></trkpt><trkpt lat="45.6164556" lon="10.9104943"><ele>686.75</ele><time>2026-05-02T08:36:19.954Z</time></trkpt><trkpt lat="45.616526" lon="10.9106574"><ele>685.0</ele><time>2026-05-02T08:36:20.957Z</time></trkpt><trkpt lat="45.6166041" lon="10.9108086"><ele>686.25</ele><time>2026-05-02T08:36:21.955Z</time></trkpt><trkpt lat="45.6166967" lon="10.9109236"><ele>687.5</ele><time>2026-05-02T08:36:22.955Z</time></trkpt><trkpt lat="45.6167945" lon="10.9110298"><ele>688.75</ele><time>2026-05-02T08:36:23.945Z</time></trkpt><trkpt lat="45.6169121" lon="10.9111086"><ele>690.0</ele><time>2026-05-02T08:36:24.956Z</time></trkpt><trkpt lat="45.6170384" lon="10.9111721"><ele>690.0</ele><time>2026-05-02T08:36:25.958Z</time></trkpt><trkpt lat="45.6171813" lon="10.9111974"><ele>690.0</ele><time>2026-05-02T08:36:26.961Z</time></trkpt><trkpt lat="45.6173404" lon="10.9111764"><ele>690.0</ele><time>2026-05-02T08:36:28.045Z</time></trkpt><trkpt lat="45.6174904" lon="10.9111155"><ele>690.0</ele><time>2026-05-02T08:36:29.036Z</time></trkpt><trkpt lat="45.6176423" lon="10.9110582"><ele>690.0</ele><time>2026-05-02T08:36:29.968Z</time></trkpt><trkpt lat="45.6178005" lon="10.9110057"><ele>690.0</ele><time>2026-05-02T08:36:31.02Z</time></trkpt><trkpt lat="45.6179546" lon="10.91094"><ele>696.6666666666666</ele><time>2026-05-02T08:36:31.964Z</time></trkpt><trkpt lat="45.6181251" lon="10.9108682"><ele>703.3333333333333</ele><time>2026-05-02T08:36:32.963Z</time></trkpt><trkpt lat="45.6183133" lon="10.9107828"><ele>710.0</ele><time>2026-05-02T08:36:33.999Z</time></trkpt><trkpt lat="45.6184999" lon="10.9107202"><ele>712.6666666666666</ele><time>2026-05-02T08:36:35.029Z</time></trkpt><trkpt lat="45.6186728" lon="10.9106792"><ele>715.3333333333334</ele><time>2026-05-02T08:36:36.031Z</time></trkpt><trkpt lat="45.6188241" lon="10.9106376"><ele>718.0</ele><time>2026-05-02T08:36:36.968Z</time></trkpt><trkpt lat="45.6189507" lon="10.9105654"><ele>718.0</ele><time>2026-05-02T08:36:38.048Z</time></trkpt><trkpt lat="45.6190602" lon="10.9105065"><ele>718.0</ele><time>2026-05-02T08:36:39.026Z</time></trkpt><trkpt lat="45.6191748" lon="10.9104824"><ele>718.0</ele><time>2026-05-02T08:36:40.021Z</time></trkpt><trkpt lat="45.6192759" lon="10.9105178"><ele>718.0</ele><time>2026-05-02T08:36:41.031Z</time></trkpt><trkpt lat="45.6193702" lon="10.9106249"><ele>718.0</ele><time>2026-05-02T08:36:41.966Z</time></trkpt><trkpt lat="45.6194324" lon="10.9107581"><ele>718.0</ele><time>2026-05-02T08:36:42.956Z</time></trkpt><trkpt lat="45.6194894" lon="10.9109021"><ele>718.0</ele><time>2026-05-02T08:36:43.968Z</time></trkpt><trkpt lat="45.6195598" lon="10.9110096"><ele>718.0</ele><time>2026-05-02T08:36:45.032Z</time></trkpt><trkpt lat="45.6196617" lon="10.9110919"><ele>718.0</ele><time>2026-05-02T08:36:46.014Z</time></trkpt><trkpt lat="45.6197882" lon="10.9111366"><ele>720.5</ele><time>2026-05-02T08:36:47.013Z</time></trkpt><trkpt lat="45.6199375" lon="10.9111558"><ele>723.0</ele><time>2026-05-02T08:36:47.995Z</time></trkpt><trkpt lat="45.620087" lon="10.9111291"><ele>725.5</ele><time>2026-05-02T08:36:49.003Z</time></trkpt><trkpt lat="45.620206" lon="10.9110976"><ele>728.0</ele><time>2026-05-02T08:36:49.971Z</time></trkpt><trkpt lat="45.6203138" lon="10.911095"><ele>731.25</ele><time>2026-05-02T08:36:50.973Z</time></trkpt><trkpt lat="45.6204203" lon="10.9111435"><ele>734.5</ele><time>2026-05-02T08:36:51.969Z</time></trkpt><trkpt lat="45.6204989" lon="10.9112406"><ele>737.75</ele><time>2026-05-02T08:36:52.951Z</time></trkpt><trkpt lat="45.6205685" lon="10.9113856"><ele>741.0</ele><time>2026-05-02T08:36:53.969Z</time></trkpt><trkpt lat="45.6206196" lon="10.9115465"><ele>741.0</ele><time>2026-05-02T08:36:54.975Z</time></trkpt><trkpt lat="45.6206658" lon="10.9117159"><ele>741.0</ele><time>2026-05-02T08:36:55.962Z</time></trkpt><trkpt lat="45.6207003" lon="10.9118967"><ele>741.0</ele><time>2026-05-02T08:36:56.971Z</time></trkpt><trkpt lat="45.6207213" lon="10.9120688"><ele>741.0</ele><time>2026-05-02T08:36:57.973Z</time></trkpt><trkpt lat="45.6207094" lon="10.9122169"><ele>741.5</ele><time>2026-05-02T08:36:58.965Z</time></trkpt><trkpt lat="45.6206662" lon="10.9123354"><ele>742.0</ele><time>2026-05-02T08:36:59.961Z</time></trkpt><trkpt lat="45.6205982" lon="10.9124156"><ele>742.5</ele><time>2026-05-02T08:37:00.967Z</time></trkpt><trkpt lat="45.6205103" lon="10.9124485"><ele>743.0</ele><time>2026-05-02T08:37:01.971Z</time></trkpt><trkpt lat="45.6204348" lon="10.9124714"><ele>743.5</ele><time>2026-05-02T08:37:02.971Z</time></trkpt><trkpt lat="45.6203416" lon="10.9124908"><ele>744.0</ele><time>2026-05-02T08:37:04.978Z</time></trkpt><trkpt lat="45.6204343" lon="10.9125012"><ele>744.0</ele><time>2026-05-02T08:37:09.972Z</time></trkpt><trkpt lat="45.6205198" lon="10.9124765"><ele>744.0</ele><time>2026-05-02T08:37:11.976Z</time></trkpt><trkpt lat="45.6205853" lon="10.9124783"><ele>744.0</ele><time>2026-05-02T08:37:14.968Z</time></trkpt><trkpt lat="45.6206659" lon="10.9125365"><ele>744.0</ele><time>2026-05-02T08:38:46.965Z</time></trkpt><trkpt lat="45.6207133" lon="10.9125959"><ele>744.0</ele><time>2026-05-02T08:38:47.959Z</time></trkpt><trkpt lat="45.6208159" lon="10.9126265"><ele>744.0</ele><time>2026-05-02T08:38:49.966Z</time></trkpt><trkpt lat="45.6208957" lon="10.9125696"><ele>744.0</ele><time>2026-05-02T08:38:51.961Z</time></trkpt><trkpt lat="45.6209195" lon="10.9124416"><ele>744.0</ele><time>2026-05-02T08:38:53.959Z</time></trkpt><trkpt lat="45.6209355" lon="10.9123231"><ele>744.0</ele><time>2026-05-02T08:38:54.963Z</time></trkpt><trkpt lat="45.620957" lon="10.9121912"><ele>744.0</ele><time>2026-05-02T08:38:55.973Z</time></trkpt><trkpt lat="45.6209975" lon="10.9120707"><ele>744.0</ele><time>2026-05-02T08:38:56.986Z</time></trkpt><trkpt lat="45.6210334" lon="10.9119367"><ele>744.0</ele><time>2026-05-02T08:38:58.046Z</time></trkpt><trkpt lat="45.6210654" lon="10.9118002"><ele>744.0</ele><time>2026-05-02T08:38:59.027Z</time></trkpt><trkpt lat="45.6211034" lon="10.911661"><ele>744.0</ele><time>2026-05-02T08:39:00.038Z</time></trkpt><trkpt lat="45.6211408" lon="10.911547"><ele>744.0</ele><time>2026-05-02T08:39:00.968Z</time></trkpt><trkpt lat="45.6211884" lon="10.9114401"><ele>744.0</ele><time>2026-05-02T08:39:01.966Z</time></trkpt><trkpt lat="45.6212213" lon="10.9113414"><ele>748.1666666666666</ele><time>2026-05-02T08:39:02.965Z</time></trkpt><trkpt lat="45.6212504" lon="10.9112471"><ele>752.3333333333333</ele><time>2026-05-02T08:39:03.962Z</time></trkpt><trkpt lat="45.6212665" lon="10.9111487"><ele>756.5</ele><time>2026-05-02T08:39:04.958Z</time></trkpt><trkpt lat="45.6213051" lon="10.9109944"><ele>760.6666666666666</ele><time>2026-05-02T08:39:06.956Z</time></trkpt><trkpt lat="45.6213752" lon="10.9108952"><ele>764.8333333333333</ele><time>2026-05-02T08:39:08.961Z</time></trkpt><trkpt lat="45.621413" lon="10.9108118"><ele>769.0</ele><time>2026-05-02T08:39:10.956Z</time></trkpt><trkpt lat="45.6214478" lon="10.9106975"><ele>769.1666666666666</ele><time>2026-05-02T08:39:12.961Z</time></trkpt><trkpt lat="45.6214572" lon="10.9105912"><ele>769.3333333333333</ele><time>2026-05-02T08:39:13.964Z</time></trkpt><trkpt lat="45.6214751" lon="10.9104859"><ele>769.5</ele><time>2026-05-02T08:39:14.952Z</time></trkpt><trkpt lat="45.6214699" lon="10.9103219"><ele>769.6666666666667</ele><time>2026-05-02T08:39:16.96Z</time></trkpt><trkpt lat="45.6214571" lon="10.9102253"><ele>769.8333333333334</ele><time>2026-05-02T08:39:18.966Z</time></trkpt><trkpt lat="45.6214292" lon="10.9101425"><ele>770.0</ele><time>2026-05-02T08:39:49.961Z</time></trkpt><trkpt lat="45.62143" lon="10.9100455"><ele>770.8333333333334</ele><time>2026-05-02T08:39:57.966Z</time></trkpt><trkpt lat="45.621418" lon="10.9099101"><ele>771.6666666666667</ele><time>2026-05-02T08:40:00.961Z</time></trkpt><trkpt lat="45.6213996" lon="10.9097658"><ele>772.5</ele><time>2026-05-02T08:40:02.964Z</time></trkpt><trkpt lat="45.6213561" lon="10.9096069"><ele>773.3333333333333</ele><time>2026-05-02T08:40:04.965Z</time></trkpt><trkpt lat="45.6213266" lon="10.9095252"><ele>774.1666666666666</ele><time>2026-05-02T08:40:05.96Z</time></trkpt><trkpt lat="45.6212966" lon="10.9094452"><ele>775.0</ele><time>2026-05-02T08:40:06.961Z</time></trkpt><trkpt lat="45.6212611" lon="10.9093568"><ele>774.9999999999999</ele><time>2026-05-02T08:40:07.964Z</time></trkpt><trkpt lat="45.6212305" lon="10.9092555"><ele>775.0</ele><time>2026-05-02T08:40:08.961Z</time></trkpt><trkpt lat="45.6211917" lon="10.9091586"><ele>775.0</ele><time>2026-05-02T08:40:09.958Z</time></trkpt><trkpt lat="45.6211522" lon="10.90906"><ele>775.0</ele><time>2026-05-02T08:40:10.961Z</time></trkpt><trkpt lat="45.6211191" lon="10.9089693"><ele>774.9999999999999</ele><time>2026-05-02T08:40:11.963Z</time></trkpt><trkpt lat="45.6210805" lon="10.9088812"><ele>775.0</ele><time>2026-05-02T08:40:12.964Z</time></trkpt><trkpt lat="45.6210324" lon="10.9088019"><ele>774.8333333333333</ele><time>2026-05-02T08:40:13.963Z</time></trkpt><trkpt lat="45.6209874" lon="10.9087333"><ele>774.6666666666666</ele><time>2026-05-02T08:40:14.961Z</time></trkpt><trkpt lat="45.620919" lon="10.908596"><ele>774.5</ele><time>2026-05-02T08:40:16.951Z</time></trkpt><trkpt lat="45.6209241" lon="10.9084472"><ele>774.3333333333333</ele><time>2026-05-02T08:40:18.955Z</time></trkpt><trkpt lat="45.6209342" lon="10.9083427"><ele>774.1666666666666</ele><time>2026-05-02T08:40:19.96Z</time></trkpt><trkpt lat="45.6209344" lon="10.9082326"><ele>774.0</ele><time>2026-05-02T08:40:20.96Z</time></trkpt><trkpt lat="45.62093" lon="10.9081171"><ele>774.0</ele><time>2026-05-02T08:40:21.97Z</time></trkpt><trkpt lat="45.6209386" lon="10.9079989"><ele>774.0</ele><time>2026-05-02T08:40:22.945Z</time></trkpt><trkpt lat="45.6209446" lon="10.9078931"><ele>774.0</ele><time>2026-05-02T08:40:23.959Z</time></trkpt><trkpt lat="45.6209505" lon="10.9077866"><ele>774.0</ele><time>2026-05-02T08:40:24.957Z</time></trkpt><trkpt lat="45.6209562" lon="10.9076857"><ele>774.0</ele><time>2026-05-02T08:40:25.964Z</time></trkpt><trkpt lat="45.6209624" lon="10.9075884"><ele>774.0</ele><time>2026-05-02T08:40:26.952Z</time></trkpt><trkpt lat="45.6209793" lon="10.9074956"><ele>774.0</ele><time>2026-05-02T08:40:27.966Z</time></trkpt><trkpt lat="45.6209898" lon="10.9074023"><ele>775.8571428571429</ele><time>2026-05-02T08:40:28.97Z</time></trkpt><trkpt lat="45.6209965" lon="10.9073073"><ele>777.7142857142858</ele><time>2026-05-02T08:40:29.963Z</time></trkpt><trkpt lat="45.6210039" lon="10.9072128"><ele>779.5714285714286</ele><time>2026-05-02T08:40:30.968Z</time></trkpt><trkpt lat="45.6210189" lon="10.9071209"><ele>781.4285714285714</ele><time>2026-05-02T08:40:31.959Z</time></trkpt><trkpt lat="45.6210392" lon="10.9070312"><ele>783.2857142857142</ele><time>2026-05-02T08:40:32.961Z</time></trkpt><trkpt lat="45.6210604" lon="10.9069416"><ele>785.1428571428571</ele><time>2026-05-02T08:40:33.957Z</time></trkpt><trkpt lat="45.6210872" lon="10.9068484"><ele>787.0</ele><time>2026-05-02T08:40:34.959Z</time></trkpt><trkpt lat="45.621117" lon="10.9067539"><ele>788.2</ele><time>2026-05-02T08:40:35.964Z</time></trkpt><trkpt lat="45.6211438" lon="10.9066495"><ele>789.4000000000001</ele><time>2026-05-02T08:40:36.96Z</time></trkpt><trkpt lat="45.6212019" lon="10.9065317"><ele>790.5999999999999</ele><time>2026-05-02T08:40:38.968Z</time></trkpt><trkpt lat="45.6212817" lon="10.9064636"><ele>791.8</ele><time>2026-05-02T08:40:40.958Z</time></trkpt><trkpt lat="45.6213449" lon="10.9063983"><ele>793.0</ele><time>2026-05-02T08:40:42.956Z</time></trkpt><trkpt lat="45.6213972" lon="10.9062639"><ele>797.3333333333333</ele><time>2026-05-02T08:40:59.955Z</time></trkpt><trkpt lat="45.6214395" lon="10.9061789"><ele>801.6666666666666</ele><time>2026-05-02T08:41:00.965Z</time></trkpt><trkpt lat="45.6214685" lon="10.9060901"><ele>806.0</ele><time>2026-05-02T08:41:01.962Z</time></trkpt><trkpt lat="45.6215063" lon="10.9060012"><ele>810.3333333333333</ele><time>2026-05-02T08:41:02.966Z</time></trkpt><trkpt lat="45.6215545" lon="10.9058806"><ele>814.6666666666666</ele><time>2026-05-02T08:41:03.96Z</time></trkpt><trkpt lat="45.6215988" lon="10.9057485"><ele>819.0</ele><time>2026-05-02T08:41:04.958Z</time></trkpt><trkpt lat="45.6216405" lon="10.9056096"><ele>819.0</ele><time>2026-05-02T08:41:05.956Z</time></trkpt><trkpt lat="45.6216783" lon="10.9054537"><ele>819.0</ele><time>2026-05-02T08:41:06.962Z</time></trkpt><trkpt lat="45.6217033" lon="10.905305"><ele>819.0</ele><time>2026-05-02T08:41:07.942Z</time></trkpt><trkpt lat="45.6217204" lon="10.9051569"><ele>819.0</ele><time>2026-05-02T08:41:08.969Z</time></trkpt><trkpt lat="45.6217345" lon="10.905031"><ele>819.0</ele><time>2026-05-02T08:41:09.96Z</time></trkpt><trkpt lat="45.6217412" lon="10.9049205"><ele>819.6666666666666</ele><time>2026-05-02T08:41:10.956Z</time></trkpt><trkpt lat="45.6217495" lon="10.9047921"><ele>820.3333333333333</ele><time>2026-05-02T08:41:12.976Z</time></trkpt><trkpt lat="45.6218379" lon="10.904725"><ele>821.0</ele><time>2026-05-02T08:41:49.962Z</time></trkpt><trkpt lat="45.6219009" lon="10.9046653"><ele>821.6666666666666</ele><time>2026-05-02T08:41:50.962Z</time></trkpt><trkpt lat="45.6219707" lon="10.9046022"><ele>822.3333333333333</ele><time>2026-05-02T08:41:51.962Z</time></trkpt><trkpt lat="45.6220415" lon="10.9045408"><ele>823.0</ele><time>2026-05-02T08:41:52.959Z</time></trkpt><trkpt lat="45.6221157" lon="10.9044751"><ele>825.4999999999999</ele><time>2026-05-02T08:41:53.969Z</time></trkpt><trkpt lat="45.6221973" lon="10.9044037"><ele>828.0</ele><time>2026-05-02T08:41:54.968Z</time></trkpt><trkpt lat="45.6222768" lon="10.9043306"><ele>830.5</ele><time>2026-05-02T08:41:55.967Z</time></trkpt><trkpt lat="45.622352" lon="10.9042697"><ele>833.0</ele><time>2026-05-02T08:41:56.966Z</time></trkpt><trkpt lat="45.6224459" lon="10.9042244"><ele>835.4999999999999</ele><time>2026-05-02T08:41:58.963Z</time></trkpt><trkpt lat="45.6225044" lon="10.90427"><ele>838.0</ele><time>2026-05-02T08:41:59.961Z</time></trkpt><trkpt lat="45.6225394" lon="10.9043602"><ele>838.0</ele><time>2026-05-02T08:42:00.962Z</time></trkpt><trkpt lat="45.6225543" lon="10.9045057"><ele>838.0</ele><time>2026-05-02T08:42:01.964Z</time></trkpt><trkpt lat="45.6225739" lon="10.9046964"><ele>838.0</ele><time>2026-05-02T08:42:02.965Z</time></trkpt><trkpt lat="45.6226089" lon="10.9049107"><ele>838.0</ele><time>2026-05-02T08:42:03.962Z</time></trkpt><trkpt lat="45.6226518" lon="10.905157"><ele>837.0</ele><time>2026-05-02T08:42:04.96Z</time></trkpt><trkpt lat="45.6226954" lon="10.9054357"><ele>836.0</ele><time>2026-05-02T08:42:05.973Z</time></trkpt><trkpt lat="45.6227293" lon="10.9057376"><ele>835.0</ele><time>2026-05-02T08:42:06.973Z</time></trkpt><trkpt lat="45.6227677" lon="10.906054"><ele>835.0</ele><time>2026-05-02T08:42:07.972Z</time></trkpt><trkpt lat="45.622813" lon="10.9063785"><ele>835.0</ele><time>2026-05-02T08:42:08.968Z</time></trkpt><trkpt lat="45.6228565" lon="10.906712"><ele>847.0</ele><time>2026-05-02T08:42:09.973Z</time></trkpt><trkpt lat="45.6228767" lon="10.9070602"><ele>859.0</ele><time>2026-05-02T08:42:10.963Z</time></trkpt><trkpt lat="45.6228596" lon="10.9073903"><ele>859.0</ele><time>2026-05-02T08:42:11.961Z</time></trkpt><trkpt lat="45.6228228" lon="10.9076964"><ele>859.0</ele><time>2026-05-02T08:42:12.968Z</time></trkpt><trkpt lat="45.6227993" lon="10.9079885"><ele>859.0</ele><time>2026-05-02T08:42:13.958Z</time></trkpt><trkpt lat="45.6228159" lon="10.9082311"><ele>857.5</ele><time>2026-05-02T08:42:14.956Z</time></trkpt><trkpt lat="45.622845" lon="10.9084247"><ele>856.0</ele><time>2026-05-02T08:42:15.958Z</time></trkpt><trkpt lat="45.6229111" lon="10.9085986"><ele>854.5</ele><time>2026-05-02T08:42:16.961Z</time></trkpt><trkpt lat="45.6229863" lon="10.9087772"><ele>853.0</ele><time>2026-05-02T08:42:17.972Z</time></trkpt><trkpt lat="45.6230663" lon="10.9089565"><ele>853.0</ele><time>2026-05-02T08:42:18.964Z</time></trkpt><trkpt lat="45.6231443" lon="10.9091364"><ele>853.0</ele><time>2026-05-02T08:42:19.967Z</time></trkpt><trkpt lat="45.6232106" lon="10.9093314"><ele>853.0</ele><time>2026-05-02T08:42:20.97Z</time></trkpt><trkpt lat="45.6232836" lon="10.9095403"><ele>851.25</ele><time>2026-05-02T08:42:21.971Z</time></trkpt><trkpt lat="45.6233489" lon="10.9097376"><ele>849.5</ele><time>2026-05-02T08:42:22.961Z</time></trkpt><trkpt lat="45.6234119" lon="10.9099357"><ele>847.75</ele><time>2026-05-02T08:42:23.966Z</time></trkpt><trkpt lat="45.6234859" lon="10.9101106"><ele>846.0</ele><time>2026-05-02T08:42:24.97Z</time></trkpt><trkpt lat="45.6235702" lon="10.9102666"><ele>849.25</ele><time>2026-05-02T08:42:25.965Z</time></trkpt><trkpt lat="45.6236756" lon="10.9103677"><ele>852.5</ele><time>2026-05-02T08:42:26.944Z</time></trkpt><trkpt lat="45.6237941" lon="10.9104283"><ele>855.75</ele><time>2026-05-02T08:42:27.962Z</time></trkpt><trkpt lat="45.6239128" lon="10.9104811"><ele>859.0</ele><time>2026-05-02T08:42:28.969Z</time></trkpt><trkpt lat="45.6240473" lon="10.9105505"><ele>859.0</ele><time>2026-05-02T08:42:29.966Z</time></trkpt><trkpt lat="45.624188" lon="10.9106312"><ele>859.0</ele><time>2026-05-02T08:42:30.96Z</time></trkpt><trkpt lat="45.6243309" lon="10.9107068"><ele>859.0</ele><time>2026-05-02T08:42:31.974Z</time></trkpt><trkpt lat="45.6244746" lon="10.9107888"><ele>858.0</ele><time>2026-05-02T08:42:32.975Z</time></trkpt><trkpt lat="45.6246235" lon="10.9108656"><ele>857.0</ele><time>2026-05-02T08:42:33.97Z</time></trkpt><trkpt lat="45.6247731" lon="10.9109436"><ele>856.0</ele><time>2026-05-02T08:42:34.972Z</time></trkpt><trkpt lat="45.6249201" lon="10.911028"><ele>856.0</ele><time>2026-05-02T08:42:35.956Z</time></trkpt><trkpt lat="45.6250707" lon="10.9111122"><ele>856.0</ele><time>2026-05-02T08:42:36.963Z</time></trkpt><trkpt lat="45.6252333" lon="10.9111834"><ele>856.0</ele><time>2026-05-02T08:42:37.96Z</time></trkpt><trkpt lat="45.6254161" lon="10.9112378"><ele>860.3333333333333</ele><time>2026-05-02T08:42:38.967Z</time></trkpt><trkpt lat="45.6255804" lon="10.9112767"><ele>864.6666666666667</ele><time>2026-05-02T08:42:39.966Z</time></trkpt><trkpt lat="45.6257439" lon="10.9113035"><ele>869.0</ele><time>2026-05-02T08:42:40.963Z</time></trkpt><trkpt lat="45.6259066" lon="10.9113182"><ele>869.0</ele><time>2026-05-02T08:42:41.964Z</time></trkpt><trkpt lat="45.6260886" lon="10.9113025"><ele>869.0</ele><time>2026-05-02T08:42:42.94Z</time></trkpt><trkpt lat="45.6262818" lon="10.9112414"><ele>869.0</ele><time>2026-05-02T08:42:43.958Z</time></trkpt><trkpt lat="45.6264785" lon="10.9111609"><ele>869.3333333333334</ele><time>2026-05-02T08:42:44.984Z</time></trkpt><trkpt lat="45.6266558" lon="10.9110927"><ele>869.6666666666667</ele><time>2026-05-02T08:42:45.955Z</time></trkpt><trkpt lat="45.6268169" lon="10.9110394"><ele>870.0</ele><time>2026-05-02T08:42:46.967Z</time></trkpt><trkpt lat="45.62696" lon="10.9109883"><ele>871.75</ele><time>2026-05-02T08:42:47.959Z</time></trkpt><trkpt lat="45.6270925" lon="10.9109703"><ele>873.5</ele><time>2026-05-02T08:42:48.956Z</time></trkpt><trkpt lat="45.6272081" lon="10.9109876"><ele>875.25</ele><time>2026-05-02T08:42:49.962Z</time></trkpt><trkpt lat="45.6273159" lon="10.9110292"><ele>877.0</ele><time>2026-05-02T08:42:50.963Z</time></trkpt><trkpt lat="45.6274251" lon="10.91108"><ele>877.0</ele><time>2026-05-02T08:42:51.968Z</time></trkpt><trkpt lat="45.6275478" lon="10.9111518"><ele>877.0</ele><time>2026-05-02T08:42:52.962Z</time></trkpt><trkpt lat="45.6276681" lon="10.9112186"><ele>877.0</ele><time>2026-05-02T08:42:53.969Z</time></trkpt><trkpt lat="45.6277874" lon="10.911306"><ele>877.0</ele><time>2026-05-02T08:42:54.964Z</time></trkpt><trkpt lat="45.6279052" lon="10.9114036"><ele>878.75</ele><time>2026-05-02T08:42:55.973Z</time></trkpt><trkpt lat="45.628024" lon="10.9115196"><ele>880.5</ele><time>2026-05-02T08:42:56.969Z</time></trkpt><trkpt lat="45.6281387" lon="10.9116543"><ele>882.25</ele><time>2026-05-02T08:42:57.974Z</time></trkpt><trkpt lat="45.6282479" lon="10.9118014"><ele>884.0</ele><time>2026-05-02T08:42:58.965Z</time></trkpt><trkpt lat="45.62835" lon="10.9119589"><ele>884.0</ele><time>2026-05-02T08:42:59.971Z</time></trkpt><trkpt lat="45.6284482" lon="10.912122"><ele>884.0</ele><time>2026-05-02T08:43:00.96Z</time></trkpt><trkpt lat="45.6285335" lon="10.9122861"><ele>884.0</ele><time>2026-05-02T08:43:01.965Z</time></trkpt><trkpt lat="45.6286196" lon="10.9124486"><ele>884.0</ele><time>2026-05-02T08:43:02.964Z</time></trkpt><trkpt lat="45.6287126" lon="10.9126208"><ele>890.3333333333334</ele><time>2026-05-02T08:43:03.957Z</time></trkpt><trkpt lat="45.6288018" lon="10.9128008"><ele>896.6666666666667</ele><time>2026-05-02T08:43:04.951Z</time></trkpt><trkpt lat="45.6288985" lon="10.9129806"><ele>903.0</ele><time>2026-05-02T08:43:05.966Z</time></trkpt><trkpt lat="45.6290014" lon="10.9131645"><ele>903.0</ele><time>2026-05-02T08:43:06.96Z</time></trkpt><trkpt lat="45.629099" lon="10.9133382"><ele>903.0</ele><time>2026-05-02T08:43:07.943Z</time></trkpt><trkpt lat="45.6291961" lon="10.9135144"><ele>903.0</ele><time>2026-05-02T08:43:08.962Z</time></trkpt><trkpt lat="45.6292889" lon="10.9136848"><ele>904.0</ele><time>2026-05-02T08:43:09.961Z</time></trkpt><trkpt lat="45.6293794" lon="10.9138437"><ele>905.0</ele><time>2026-05-02T08:43:10.946Z</time></trkpt><trkpt lat="45.6294614" lon="10.9139923"><ele>906.0</ele><time>2026-05-02T08:43:11.96Z</time></trkpt><trkpt lat="45.6295455" lon="10.9141309"><ele>907.0</ele><time>2026-05-02T08:43:12.963Z</time></trkpt><trkpt lat="45.629643" lon="10.9142478"><ele>907.0</ele><time>2026-05-02T08:43:13.961Z</time></trkpt><trkpt lat="45.6297504" lon="10.914332"><ele>907.0</ele><time>2026-05-02T08:43:14.959Z</time></trkpt><trkpt lat="45.6298593" lon="10.9143869"><ele>907.0</ele><time>2026-05-02T08:43:15.956Z</time></trkpt><trkpt lat="45.6299668" lon="10.9144443"><ele>907.0</ele><time>2026-05-02T08:43:16.971Z</time></trkpt><trkpt lat="45.6300678" lon="10.9145169"><ele>907.0</ele><time>2026-05-02T08:43:17.944Z</time></trkpt><trkpt lat="45.6301658" lon="10.9146074"><ele>907.0</ele><time>2026-05-02T08:43:18.965Z</time></trkpt><trkpt lat="45.6302521" lon="10.9147336"><ele>907.0</ele><time>2026-05-02T08:43:19.96Z</time></trkpt><trkpt lat="45.6303213" lon="10.9148776"><ele>907.0</ele><time>2026-05-02T08:43:20.987Z</time></trkpt><trkpt lat="45.6303802" lon="10.9150442"><ele>906.0</ele><time>2026-05-02T08:43:21.956Z</time></trkpt><trkpt lat="45.6304319" lon="10.9152264"><ele>905.0</ele><time>2026-05-02T08:43:22.959Z</time></trkpt><trkpt lat="45.6304938" lon="10.9154139"><ele>904.0</ele><time>2026-05-02T08:43:23.959Z</time></trkpt><trkpt lat="45.6305576" lon="10.9156192"><ele>903.0</ele><time>2026-05-02T08:43:24.963Z</time></trkpt><trkpt lat="45.6306224" lon="10.9158173"><ele>903.75</ele><time>2026-05-02T08:43:25.963Z</time></trkpt><trkpt lat="45.6306831" lon="10.9160018"><ele>904.5</ele><time>2026-05-02T08:43:26.953Z</time></trkpt><trkpt lat="45.6307341" lon="10.9161807"><ele>905.25</ele><time>2026-05-02T08:43:27.961Z</time></trkpt><trkpt lat="45.6307834" lon="10.9163472"><ele>906.0</ele><time>2026-05-02T08:43:28.944Z</time></trkpt><trkpt lat="45.6308356" lon="10.9165014"><ele>906.0</ele><time>2026-05-02T08:43:29.962Z</time></trkpt><trkpt lat="45.630877" lon="10.9166289"><ele>906.0</ele><time>2026-05-02T08:43:30.961Z</time></trkpt><trkpt lat="45.6309275" lon="10.9167217"><ele>906.0</ele><time>2026-05-02T08:43:31.955Z</time></trkpt><trkpt lat="45.6309827" lon="10.9167731"><ele>906.0</ele><time>2026-05-02T08:43:32.963Z</time></trkpt><trkpt lat="45.6310478" lon="10.9167741"><ele>906.0</ele><time>2026-05-02T08:43:33.97Z</time></trkpt><trkpt lat="45.631166" lon="10.9167238"><ele>906.0</ele><time>2026-05-02T08:43:35.958Z</time></trkpt><trkpt lat="45.6312554" lon="10.916708"><ele>906.1999999999999</ele><time>2026-05-02T08:43:36.958Z</time></trkpt><trkpt lat="45.6313592" lon="10.9167114"><ele>906.3999999999999</ele><time>2026-05-02T08:43:37.96Z</time></trkpt><trkpt lat="45.6314692" lon="10.9167268"><ele>906.6</ele><time>2026-05-02T08:43:38.962Z</time></trkpt><trkpt lat="45.6315752" lon="10.9167419"><ele>906.8</ele><time>2026-05-02T08:43:39.955Z</time></trkpt><trkpt lat="45.6316694" lon="10.9167679"><ele>907.0</ele><time>2026-05-02T08:43:40.967Z</time></trkpt><trkpt lat="45.6317526" lon="10.9168139"><ele>907.0</ele><time>2026-05-02T08:43:41.944Z</time></trkpt><trkpt lat="45.6318423" lon="10.9168767"><ele>907.0</ele><time>2026-05-02T08:43:42.955Z</time></trkpt><trkpt lat="45.631924" lon="10.9169371"><ele>907.0</ele><time>2026-05-02T08:43:43.957Z</time></trkpt><trkpt lat="45.6320158" lon="10.9169882"><ele>907.0</ele><time>2026-05-02T08:43:44.961Z</time></trkpt><trkpt lat="45.6321138" lon="10.9170395"><ele>907.0</ele><time>2026-05-02T08:43:45.957Z</time></trkpt><trkpt lat="45.6322093" lon="10.9170895"><ele>906.6666666666666</ele><time>2026-05-02T08:43:46.957Z</time></trkpt><trkpt lat="45.6322942" lon="10.9171339"><ele>906.3333333333333</ele><time>2026-05-02T08:43:47.957Z</time></trkpt><trkpt lat="45.6323774" lon="10.9171868"><ele>906.0</ele><time>2026-05-02T08:43:48.962Z</time></trkpt><trkpt lat="45.6324547" lon="10.9172514"><ele>905.6666666666667</ele><time>2026-05-02T08:43:49.981Z</time></trkpt><trkpt lat="45.6325319" lon="10.9173016"><ele>905.3333333333334</ele><time>2026-05-02T08:43:50.956Z</time></trkpt><trkpt lat="45.6326195" lon="10.9173298"><ele>905.0</ele><time>2026-05-02T08:43:51.969Z</time></trkpt><trkpt lat="45.6327101" lon="10.9173384"><ele>905.0</ele><time>2026-05-02T08:43:52.965Z</time></trkpt><trkpt lat="45.6328017" lon="10.9173484"><ele>905.0</ele><time>2026-05-02T08:43:53.971Z</time></trkpt><trkpt lat="45.6328858" lon="10.9173771"><ele>905.0</ele><time>2026-05-02T08:43:54.961Z</time></trkpt><trkpt lat="45.6329688" lon="10.9174377"><ele>905.0</ele><time>2026-05-02T08:43:55.964Z</time></trkpt><trkpt lat="45.6330487" lon="10.9174938"><ele>905.0</ele><time>2026-05-02T08:43:56.96Z</time></trkpt><trkpt lat="45.6331364" lon="10.9175611"><ele>905.6666666666667</ele><time>2026-05-02T08:43:57.964Z</time></trkpt><trkpt lat="45.6332258" lon="10.9175964"><ele>906.3333333333334</ele><time>2026-05-02T08:43:58.961Z</time></trkpt><trkpt lat="45.6333097" lon="10.9176145"><ele>907.0</ele><time>2026-05-02T08:43:59.967Z</time></trkpt><trkpt lat="45.6333886" lon="10.9176155"><ele>907.6666666666667</ele><time>2026-05-02T08:44:00.959Z</time></trkpt><trkpt lat="45.6334663" lon="10.9176227"><ele>908.3333333333334</ele><time>2026-05-02T08:44:01.961Z</time></trkpt><trkpt lat="45.6335346" lon="10.9176192"><ele>909.0</ele><time>2026-05-02T08:44:02.964Z</time></trkpt><trkpt lat="45.6336071" lon="10.9175874"><ele>910.0</ele><time>2026-05-02T08:44:03.951Z</time></trkpt><trkpt lat="45.6336626" lon="10.9175089"><ele>911.0</ele><time>2026-05-02T08:44:04.962Z</time></trkpt><trkpt lat="45.6336881" lon="10.9174192"><ele>912.0</ele><time>2026-05-02T08:44:05.957Z</time></trkpt><trkpt lat="45.6336933" lon="10.9173274"><ele>913.0</ele><time>2026-05-02T08:44:06.944Z</time></trkpt><trkpt lat="45.6337009" lon="10.917222"><ele>914.0</ele><time>2026-05-02T08:44:07.949Z</time></trkpt><trkpt lat="45.6337137" lon="10.9171045"><ele>915.0</ele><time>2026-05-02T08:44:08.957Z</time></trkpt><trkpt lat="45.6337353" lon="10.9169887"><ele>915.0</ele><time>2026-05-02T08:44:09.958Z</time></trkpt><trkpt lat="45.6337583" lon="10.916871"><ele>915.0</ele><time>2026-05-02T08:44:10.958Z</time></trkpt><trkpt lat="45.6337907" lon="10.9167455"><ele>915.0</ele><time>2026-05-02T08:44:11.962Z</time></trkpt><trkpt lat="45.633821" lon="10.9166132"><ele>915.0</ele><time>2026-05-02T08:44:12.955Z</time></trkpt><trkpt lat="45.6338452" lon="10.916471"><ele>915.0</ele><time>2026-05-02T08:44:13.959Z</time></trkpt><trkpt lat="45.6338697" lon="10.9163299"><ele>915.0</ele><time>2026-05-02T08:44:14.959Z</time></trkpt><trkpt lat="45.6338891" lon="10.9161999"><ele>915.0</ele><time>2026-05-02T08:44:15.957Z</time></trkpt><trkpt lat="45.6339139" lon="10.9161046"><ele>915.0</ele><time>2026-05-02T08:44:16.96Z</time></trkpt><trkpt lat="45.6339497" lon="10.9160173"><ele>915.0</ele><time>2026-05-02T08:44:18.948Z</time></trkpt><trkpt lat="45.6339944" lon="10.9159261"><ele>915.0</ele><time>2026-05-02T08:44:20.943Z</time></trkpt><trkpt lat="45.6340828" lon="10.9158507"><ele>915.0</ele><time>2026-05-02T08:44:22.96Z</time></trkpt><trkpt lat="45.6341877" lon="10.9158356"><ele>913.6</ele><time>2026-05-02T08:44:24.956Z</time></trkpt><trkpt lat="45.6343145" lon="10.9158274"><ele>912.2</ele><time>2026-05-02T08:44:26.949Z</time></trkpt><trkpt lat="45.6343844" lon="10.9157915"><ele>910.8</ele><time>2026-05-02T08:44:27.974Z</time></trkpt><trkpt lat="45.6344615" lon="10.9157262"><ele>909.4</ele><time>2026-05-02T08:44:28.972Z</time></trkpt><trkpt lat="45.634527" lon="10.9156348"><ele>908.0</ele><time>2026-05-02T08:44:29.972Z</time></trkpt><trkpt lat="45.6345715" lon="10.9155297"><ele>908.0</ele><time>2026-05-02T08:44:30.966Z</time></trkpt><trkpt lat="45.6346072" lon="10.9154186"><ele>908.0</ele><time>2026-05-02T08:44:31.968Z</time></trkpt><trkpt lat="45.6346494" lon="10.9153092"><ele>908.0</ele><time>2026-05-02T08:44:32.963Z</time></trkpt><trkpt lat="45.6346863" lon="10.9152006"><ele>908.0</ele><time>2026-05-02T08:44:33.97Z</time></trkpt><trkpt lat="45.6347354" lon="10.9150875"><ele>908.0</ele><time>2026-05-02T08:44:34.97Z</time></trkpt><trkpt lat="45.6347915" lon="10.9149692"><ele>906.8333333333334</ele><time>2026-05-02T08:44:35.962Z</time></trkpt><trkpt lat="45.6348367" lon="10.9148494"><ele>905.6666666666667</ele><time>2026-05-02T08:44:36.96Z</time></trkpt><trkpt lat="45.6348689" lon="10.914734"><ele>904.5</ele><time>2026-05-02T08:44:37.968Z</time></trkpt><trkpt lat="45.6348826" lon="10.9146056"><ele>903.3333333333333</ele><time>2026-05-02T08:44:38.964Z</time></trkpt><trkpt lat="45.6348707" lon="10.9144831"><ele>902.1666666666666</ele><time>2026-05-02T08:44:39.96Z</time></trkpt><trkpt lat="45.6348475" lon="10.9143656"><ele>901.0</ele><time>2026-05-02T08:44:40.974Z</time></trkpt><trkpt lat="45.6348256" lon="10.9142583"><ele>900.4999999999999</ele><time>2026-05-02T08:44:41.967Z</time></trkpt><trkpt lat="45.6348249" lon="10.9141484"><ele>900.0</ele><time>2026-05-02T08:44:42.967Z</time></trkpt><trkpt lat="45.6348368" lon="10.9140397"><ele>899.5</ele><time>2026-05-02T08:44:43.964Z</time></trkpt><trkpt lat="45.6348639" lon="10.913915"><ele>899.0</ele><time>2026-05-02T08:44:44.959Z</time></trkpt><trkpt lat="45.6349023" lon="10.9138067"><ele>898.4999999999999</ele><time>2026-05-02T08:44:45.958Z</time></trkpt><trkpt lat="45.6349479" lon="10.9137022"><ele>898.0</ele><time>2026-05-02T08:44:46.965Z</time></trkpt><trkpt lat="45.6349953" lon="10.9135952"><ele>898.0</ele><time>2026-05-02T08:44:47.958Z</time></trkpt><trkpt lat="45.6350521" lon="10.9134933"><ele>898.0</ele><time>2026-05-02T08:44:48.967Z</time></trkpt><trkpt lat="45.6351132" lon="10.913382"><ele>898.0</ele><time>2026-05-02T08:44:49.962Z</time></trkpt><trkpt lat="45.6351818" lon="10.9132793"><ele>898.0</ele><time>2026-05-02T08:44:50.967Z</time></trkpt><trkpt lat="45.6352619" lon="10.9131726"><ele>898.0</ele><time>2026-05-02T08:44:51.947Z</time></trkpt><trkpt lat="45.6353412" lon="10.9130767"><ele>900.4</ele><time>2026-05-02T08:44:52.955Z</time></trkpt><trkpt lat="45.635425" lon="10.9129927"><ele>902.8</ele><time>2026-05-02T08:44:53.945Z</time></trkpt><trkpt lat="45.6355193" lon="10.9129201"><ele>905.2</ele><time>2026-05-02T08:44:54.963Z</time></trkpt><trkpt lat="45.6356045" lon="10.9128556"><ele>907.6</ele><time>2026-05-02T08:44:55.958Z</time></trkpt><trkpt lat="45.6356921" lon="10.9128022"><ele>910.0</ele><time>2026-05-02T08:44:56.958Z</time></trkpt><trkpt lat="45.6357778" lon="10.9127582"><ele>909.9999999999999</ele><time>2026-05-02T08:44:57.963Z</time></trkpt><trkpt lat="45.6358503" lon="10.912715"><ele>910.0</ele><time>2026-05-02T08:44:58.96Z</time></trkpt><trkpt lat="45.6359177" lon="10.9126705"><ele>910.0</ele><time>2026-05-02T08:44:59.972Z</time></trkpt><trkpt lat="45.6359816" lon="10.9126325"><ele>910.0</ele><time>2026-05-02T08:45:00.971Z</time></trkpt><trkpt lat="45.6360987" lon="10.9125788"><ele>909.9999999999999</ele><time>2026-05-02T08:45:02.965Z</time></trkpt><trkpt lat="45.6361628" lon="10.9125634"><ele>910.0</ele><time>2026-05-02T08:45:03.97Z</time></trkpt><trkpt lat="45.6362388" lon="10.9125507"><ele>908.4999999999999</ele><time>2026-05-02T08:45:04.965Z</time></trkpt><trkpt lat="45.6363273" lon="10.9125396"><ele>907.0</ele><time>2026-05-02T08:45:05.963Z</time></trkpt><trkpt lat="45.6364107" lon="10.9125302"><ele>905.5</ele><time>2026-05-02T08:45:06.967Z</time></trkpt><trkpt lat="45.6364959" lon="10.9125127"><ele>904.0</ele><time>2026-05-02T08:45:07.966Z</time></trkpt><trkpt lat="45.6365846" lon="10.9124907"><ele>902.4999999999999</ele><time>2026-05-02T08:45:08.969Z</time></trkpt><trkpt lat="45.6366802" lon="10.9124658"><ele>901.0</ele><time>2026-05-02T08:45:09.968Z</time></trkpt><trkpt lat="45.6367937" lon="10.9124446"><ele>901.0</ele><time>2026-05-02T08:45:10.988Z</time></trkpt><trkpt lat="45.6369086" lon="10.9124135"><ele>900.9999999999999</ele><time>2026-05-02T08:45:11.958Z</time></trkpt><trkpt lat="45.6370093" lon="10.9123749"><ele>900.9999999999999</ele><time>2026-05-02T08:45:12.968Z</time></trkpt><trkpt lat="45.6371099" lon="10.9123392"><ele>901.0</ele><time>2026-05-02T08:45:13.97Z</time></trkpt><trkpt lat="45.6372036" lon="10.9122857"><ele>901.0</ele><time>2026-05-02T08:45:14.953Z</time></trkpt><trkpt lat="45.6372895" lon="10.9122231"><ele>901.8333333333333</ele><time>2026-05-02T08:45:15.964Z</time></trkpt><trkpt lat="45.6373678" lon="10.9121745"><ele>902.6666666666666</ele><time>2026-05-02T08:45:16.945Z</time></trkpt><trkpt lat="45.6374419" lon="10.9121282"><ele>903.5</ele><time>2026-05-02T08:45:17.958Z</time></trkpt><trkpt lat="45.6375096" lon="10.9120864"><ele>904.3333333333333</ele><time>2026-05-02T08:45:18.972Z</time></trkpt><trkpt lat="45.6375814" lon="10.9120553"><ele>905.1666666666666</ele><time>2026-05-02T08:45:19.964Z</time></trkpt><trkpt lat="45.6376638" lon="10.9120342"><ele>906.0</ele><time>2026-05-02T08:45:20.963Z</time></trkpt><trkpt lat="45.6377607" lon="10.9120075"><ele>906.8</ele><time>2026-05-02T08:45:21.96Z</time></trkpt><trkpt lat="45.637863" lon="10.9119698"><ele>907.5999999999999</ele><time>2026-05-02T08:45:22.959Z</time></trkpt><trkpt lat="45.637958" lon="10.9119348"><ele>908.4</ele><time>2026-05-02T08:45:23.954Z</time></trkpt><trkpt lat="45.6380694" lon="10.9118952"><ele>909.2</ele><time>2026-05-02T08:45:24.963Z</time></trkpt><trkpt lat="45.6381717" lon="10.9118672"><ele>910.0</ele><time>2026-05-02T08:45:25.955Z</time></trkpt><trkpt lat="45.638278" lon="10.9118499"><ele>910.0</ele><time>2026-05-02T08:45:26.949Z</time></trkpt><trkpt lat="45.6383892" lon="10.9118454"><ele>910.0</ele><time>2026-05-02T08:45:27.961Z</time></trkpt><trkpt lat="45.638495" lon="10.9118392"><ele>910.0</ele><time>2026-05-02T08:45:28.959Z</time></trkpt><trkpt lat="45.6385975" lon="10.9118346"><ele>910.0</ele><time>2026-05-02T08:45:29.968Z</time></trkpt><trkpt lat="45.6387047" lon="10.9118181"><ele>910.0</ele><time>2026-05-02T08:45:30.955Z</time></trkpt><trkpt lat="45.6388104" lon="10.9117927"><ele>909.8</ele><time>2026-05-02T08:45:31.953Z</time></trkpt><trkpt lat="45.6389093" lon="10.9117573"><ele>909.6</ele><time>2026-05-02T08:45:32.955Z</time></trkpt><trkpt lat="45.6390158" lon="10.9117192"><ele>909.4000000000001</ele><time>2026-05-02T08:45:33.957Z</time></trkpt><trkpt lat="45.6391217" lon="10.9116766"><ele>909.2</ele><time>2026-05-02T08:45:34.956Z</time></trkpt><trkpt lat="45.6392249" lon="10.9116275"><ele>909.0</ele><time>2026-05-02T08:45:35.953Z</time></trkpt><trkpt lat="45.6393209" lon="10.9115973"><ele>903.6</ele><time>2026-05-02T08:45:37.045Z</time></trkpt><trkpt lat="45.6394105" lon="10.9115847"><ele>898.2</ele><time>2026-05-02T08:45:38.013Z</time></trkpt><trkpt lat="45.6395026" lon="10.9116027"><ele>892.8000000000001</ele><time>2026-05-02T08:45:38.953Z</time></trkpt><trkpt lat="45.6396017" lon="10.9116176"><ele>887.4000000000001</ele><time>2026-05-02T08:45:39.951Z</time></trkpt><trkpt lat="45.6396991" lon="10.911633"><ele>882.0</ele><time>2026-05-02T08:45:40.953Z</time></trkpt><trkpt lat="45.6397905" lon="10.9116465"><ele>882.6666666666666</ele><time>2026-05-02T08:45:42.037Z</time></trkpt><trkpt lat="45.6398823" lon="10.9116768"><ele>883.3333333333333</ele><time>2026-05-02T08:45:43.022Z</time></trkpt><trkpt lat="45.639966" lon="10.9116954"><ele>884.0</ele><time>2026-05-02T08:45:43.964Z</time></trkpt><trkpt lat="45.6400569" lon="10.9117233"><ele>884.6666666666666</ele><time>2026-05-02T08:45:44.968Z</time></trkpt><trkpt lat="45.6401445" lon="10.911747"><ele>885.3333333333333</ele><time>2026-05-02T08:45:45.976Z</time></trkpt><trkpt lat="45.6402192" lon="10.9117741"><ele>886.0</ele><time>2026-05-02T08:45:46.964Z</time></trkpt><trkpt lat="45.6402934" lon="10.9117998"><ele>882.3333333333333</ele><time>2026-05-02T08:45:47.966Z</time></trkpt><trkpt lat="45.6403592" lon="10.9118444"><ele>878.6666666666666</ele><time>2026-05-02T08:45:48.955Z</time></trkpt><trkpt lat="45.6404156" lon="10.9118905"><ele>875.0</ele><time>2026-05-02T08:45:49.959Z</time></trkpt><trkpt lat="45.6404691" lon="10.9119469"><ele>871.3333333333333</ele><time>2026-05-02T08:45:51.099Z</time></trkpt><trkpt lat="45.6405275" lon="10.9120731"><ele>867.6666666666666</ele><time>2026-05-02T08:45:52.961Z</time></trkpt><trkpt lat="45.6405344" lon="10.9122304"><ele>864.0</ele><time>2026-05-02T08:45:54.965Z</time></trkpt><trkpt lat="45.6405307" lon="10.9124043"><ele>864.0</ele><time>2026-05-02T08:45:56.955Z</time></trkpt><trkpt lat="45.6405036" lon="10.9124941"><ele>864.0</ele><time>2026-05-02T08:45:57.96Z</time></trkpt><trkpt lat="45.6404665" lon="10.9125753"><ele>864.0</ele><time>2026-05-02T08:45:58.987Z</time></trkpt><trkpt lat="45.6404251" lon="10.9126605"><ele>864.0</ele><time>2026-05-02T08:45:59.969Z</time></trkpt><trkpt lat="45.6403851" lon="10.9127398"><ele>864.0</ele><time>2026-05-02T08:46:00.968Z</time></trkpt><trkpt lat="45.6403426" lon="10.9128163"><ele>864.0</ele><time>2026-05-02T08:46:01.958Z</time></trkpt><trkpt lat="45.6402974" lon="10.9129022"><ele>864.0</ele><time>2026-05-02T08:46:02.98Z</time></trkpt><trkpt lat="45.6402466" lon="10.9129927"><ele>865.6666666666666</ele><time>2026-05-02T08:46:03.965Z</time></trkpt><trkpt lat="45.640194" lon="10.9130869"><ele>867.3333333333333</ele><time>2026-05-02T08:46:04.965Z</time></trkpt><trkpt lat="45.6401371" lon="10.9131796"><ele>869.0</ele><time>2026-05-02T08:46:05.96Z</time></trkpt><trkpt lat="45.6400754" lon="10.9132695"><ele>870.6666666666666</ele><time>2026-05-02T08:46:07.021Z</time></trkpt><trkpt lat="45.640018" lon="10.9133603"><ele>872.3333333333333</ele><time>2026-05-02T08:46:08.031Z</time></trkpt><trkpt lat="45.6399654" lon="10.9134388"><ele>874.0</ele><time>2026-05-02T08:46:08.979Z</time></trkpt><trkpt lat="45.639916" lon="10.9135122"><ele>870.6666666666666</ele><time>2026-05-02T08:46:09.973Z</time></trkpt><trkpt lat="45.6398651" lon="10.9135937"><ele>867.3333333333333</ele><time>2026-05-02T08:46:11.053Z</time></trkpt><trkpt lat="45.6398076" lon="10.9136757"><ele>864.0</ele><time>2026-05-02T08:46:12.034Z</time></trkpt><trkpt lat="45.6397584" lon="10.9137574"><ele>860.6666666666667</ele><time>2026-05-02T08:46:13.038Z</time></trkpt><trkpt lat="45.6397013" lon="10.9138431"><ele>857.3333333333334</ele><time>2026-05-02T08:46:13.968Z</time></trkpt><trkpt lat="45.6396489" lon="10.9139251"><ele>854.0</ele><time>2026-05-02T08:46:14.967Z</time></trkpt><trkpt lat="45.6395937" lon="10.9140086"><ele>854.0</ele><time>2026-05-02T08:46:15.969Z</time></trkpt><trkpt lat="45.6395208" lon="10.9141076"><ele>854.0000000000001</ele><time>2026-05-02T08:46:17.075Z</time></trkpt><trkpt lat="45.6394487" lon="10.9142099"><ele>854.0000000000001</ele><time>2026-05-02T08:46:18.015Z</time></trkpt><trkpt lat="45.6393788" lon="10.9143152"><ele>854.0</ele><time>2026-05-02T08:46:18.966Z</time></trkpt><trkpt lat="45.6393106" lon="10.9144242"><ele>854.0</ele><time>2026-05-02T08:46:19.959Z</time></trkpt><trkpt lat="45.6392486" lon="10.9145246"><ele>856.8333333333334</ele><time>2026-05-02T08:46:21.048Z</time></trkpt><trkpt lat="45.6391901" lon="10.9146225"><ele>859.6666666666667</ele><time>2026-05-02T08:46:22.019Z</time></trkpt><trkpt lat="45.6391408" lon="10.9147208"><ele>862.5</ele><time>2026-05-02T08:46:22.97Z</time></trkpt><trkpt lat="45.6391001" lon="10.9148213"><ele>865.3333333333333</ele><time>2026-05-02T08:46:23.962Z</time></trkpt><trkpt lat="45.6390705" lon="10.9149265"><ele>868.1666666666666</ele><time>2026-05-02T08:46:24.968Z</time></trkpt><trkpt lat="45.6390461" lon="10.9150379"><ele>871.0</ele><time>2026-05-02T08:46:25.968Z</time></trkpt><trkpt lat="45.6390199" lon="10.9151597"><ele>871.8333333333333</ele><time>2026-05-02T08:46:26.966Z</time></trkpt><trkpt lat="45.6390321" lon="10.9152622"><ele>872.6666666666666</ele><time>2026-05-02T08:46:27.966Z</time></trkpt><trkpt lat="45.6390453" lon="10.9153639"><ele>873.5</ele><time>2026-05-02T08:46:28.97Z</time></trkpt><trkpt lat="45.6390616" lon="10.9154616"><ele>874.3333333333333</ele><time>2026-05-02T08:46:29.964Z</time></trkpt><trkpt lat="45.6390786" lon="10.9155766"><ele>875.1666666666666</ele><time>2026-05-02T08:46:30.976Z</time></trkpt><trkpt lat="45.6390936" lon="10.9157165"><ele>876.0</ele><time>2026-05-02T08:46:31.974Z</time></trkpt><trkpt lat="45.6391035" lon="10.9158453"><ele>879.1999999999999</ele><time>2026-05-02T08:46:32.977Z</time></trkpt><trkpt lat="45.6391338" lon="10.9159654"><ele>882.3999999999999</ele><time>2026-05-02T08:46:33.97Z</time></trkpt><trkpt lat="45.6391681" lon="10.9160869"><ele>885.6</ele><time>2026-05-02T08:46:34.971Z</time></trkpt><trkpt lat="45.6392075" lon="10.9162087"><ele>888.8</ele><time>2026-05-02T08:46:35.967Z</time></trkpt><trkpt lat="45.6392611" lon="10.9163256"><ele>892.0</ele><time>2026-05-02T08:46:36.971Z</time></trkpt><trkpt lat="45.6393182" lon="10.9164299"><ele>891.9999999999999</ele><time>2026-05-02T08:46:37.966Z</time></trkpt><trkpt lat="45.6393772" lon="10.9165164"><ele>892.0</ele><time>2026-05-02T08:46:38.973Z</time></trkpt><trkpt lat="45.6394258" lon="10.9166054"><ele>892.0</ele><time>2026-05-02T08:46:40.006Z</time></trkpt><trkpt lat="45.6394611" lon="10.9166875"><ele>892.0</ele><time>2026-05-02T08:46:41.038Z</time></trkpt><trkpt lat="45.6395261" lon="10.9168395"><ele>891.9999999999999</ele><time>2026-05-02T08:46:42.975Z</time></trkpt><trkpt lat="45.6395577" lon="10.9169328"><ele>892.0</ele><time>2026-05-02T08:46:43.975Z</time></trkpt><trkpt lat="45.6395937" lon="10.9170165"><ele>888.9999999999999</ele><time>2026-05-02T08:46:44.97Z</time></trkpt><trkpt lat="45.6396206" lon="10.9170998"><ele>886.0</ele><time>2026-05-02T08:46:45.982Z</time></trkpt><trkpt lat="45.6396516" lon="10.9171976"><ele>883.0</ele><time>2026-05-02T08:46:46.974Z</time></trkpt><trkpt lat="45.6396707" lon="10.9172982"><ele>880.0</ele><time>2026-05-02T08:46:47.969Z</time></trkpt><trkpt lat="45.6396912" lon="10.9174049"><ele>876.9999999999999</ele><time>2026-05-02T08:46:49.045Z</time></trkpt><trkpt lat="45.6397114" lon="10.917517"><ele>874.0</ele><time>2026-05-02T08:46:49.976Z</time></trkpt><trkpt lat="45.6397261" lon="10.9176285"><ele>874.0</ele><time>2026-05-02T08:46:50.989Z</time></trkpt><trkpt lat="45.6397288" lon="10.917725"><ele>874.0000000000001</ele><time>2026-05-02T08:46:51.996Z</time></trkpt><trkpt lat="45.6397521" lon="10.9178839"><ele>874.0000000000001</ele><time>2026-05-02T08:46:53.982Z</time></trkpt><trkpt lat="45.6398248" lon="10.9179732"><ele>874.0</ele><time>2026-05-02T08:46:55.976Z</time></trkpt><trkpt lat="45.6398898" lon="10.9180202"><ele>874.0</ele><time>2026-05-02T08:46:57.982Z</time></trkpt><trkpt lat="45.6400039" lon="10.9181013"><ele>874.0</ele><time>2026-05-02T08:46:59.973Z</time></trkpt><trkpt lat="45.6400726" lon="10.9181522"><ele>874.0000000000001</ele><time>2026-05-02T08:47:00.979Z</time></trkpt><trkpt lat="45.6401529" lon="10.9182165"><ele>874.0000000000001</ele><time>2026-05-02T08:47:02.008Z</time></trkpt><trkpt lat="45.6402289" lon="10.9183049"><ele>874.0</ele><time>2026-05-02T08:47:02.984Z</time></trkpt><trkpt lat="45.6403141" lon="10.9183977"><ele>874.0</ele><time>2026-05-02T08:47:03.974Z</time></trkpt><trkpt lat="45.6404012" lon="10.9184902"><ele>868.6666666666666</ele><time>2026-05-02T08:47:04.984Z</time></trkpt><trkpt lat="45.6404486" lon="10.9185915"><ele>863.3333333333333</ele><time>2026-05-02T08:47:05.978Z</time></trkpt><trkpt lat="45.6404703" lon="10.9186979"><ele>858.0</ele><time>2026-05-02T08:47:06.984Z</time></trkpt><trkpt lat="45.6404875" lon="10.9188053"><ele>852.6666666666667</ele><time>2026-05-02T08:47:07.973Z</time></trkpt><trkpt lat="45.6404898" lon="10.9189179"><ele>847.3333333333334</ele><time>2026-05-02T08:47:09.034Z</time></trkpt><trkpt lat="45.6404882" lon="10.9190267"><ele>842.0</ele><time>2026-05-02T08:47:09.979Z</time></trkpt><trkpt lat="45.6404836" lon="10.9191341"><ele>842.5000000000001</ele><time>2026-05-02T08:47:10.977Z</time></trkpt><trkpt lat="45.640484" lon="10.9192414"><ele>843.0</ele><time>2026-05-02T08:47:11.974Z</time></trkpt><trkpt lat="45.6404878" lon="10.9193476"><ele>843.5</ele><time>2026-05-02T08:47:13.04Z</time></trkpt><trkpt lat="45.6404883" lon="10.9194431"><ele>844.0</ele><time>2026-05-02T08:47:14.019Z</time></trkpt><trkpt lat="45.6404874" lon="10.9196099"><ele>844.5000000000001</ele><time>2026-05-02T08:47:15.965Z</time></trkpt><trkpt lat="45.6404877" lon="10.9197138"><ele>845.0</ele><time>2026-05-02T08:47:16.984Z</time></trkpt><trkpt lat="45.6404902" lon="10.9198066"><ele>845.0</ele><time>2026-05-02T08:47:17.988Z</time></trkpt><trkpt lat="45.6404779" lon="10.9200009"><ele>845.0</ele><time>2026-05-02T08:47:19.97Z</time></trkpt><trkpt lat="45.6404613" lon="10.9201153"><ele>845.0</ele><time>2026-05-02T08:47:20.972Z</time></trkpt><trkpt lat="45.6404173" lon="10.9202902"><ele>845.0</ele><time>2026-05-02T08:47:23.035Z</time></trkpt><trkpt lat="45.640395" lon="10.9203791"><ele>845.0</ele><time>2026-05-02T08:47:23.975Z</time></trkpt><trkpt lat="45.6403904" lon="10.9205213"><ele>847.7142857142857</ele><time>2026-05-02T08:47:25.972Z</time></trkpt><trkpt lat="45.6404384" lon="10.9205937"><ele>850.4285714285714</ele><time>2026-05-02T08:47:27.965Z</time></trkpt><trkpt lat="45.6405419" lon="10.9206465"><ele>853.1428571428571</ele><time>2026-05-02T08:47:29.969Z</time></trkpt><trkpt lat="45.6406046" lon="10.9206687"><ele>855.8571428571429</ele><time>2026-05-02T08:47:30.976Z</time></trkpt><trkpt lat="45.6406646" lon="10.9207008"><ele>858.5714285714286</ele><time>2026-05-02T08:47:31.989Z</time></trkpt><trkpt lat="45.6407276" lon="10.9207389"><ele>861.2857142857142</ele><time>2026-05-02T08:47:32.974Z</time></trkpt><trkpt lat="45.6407869" lon="10.9207917"><ele>864.0</ele><time>2026-05-02T08:47:33.969Z</time></trkpt><trkpt lat="45.6408426" lon="10.920835"><ele>864.0</ele><time>2026-05-02T08:47:34.975Z</time></trkpt><trkpt lat="45.6409544" lon="10.9208886"><ele>864.0000000000001</ele><time>2026-05-02T08:47:36.962Z</time></trkpt><trkpt lat="45.6410663" lon="10.9208903"><ele>864.0000000000001</ele><time>2026-05-02T08:47:39.028Z</time></trkpt><trkpt lat="45.6411817" lon="10.9208956"><ele>864.0</ele><time>2026-05-02T08:47:40.983Z</time></trkpt><trkpt lat="45.6412759" lon="10.920903"><ele>864.0</ele><time>2026-05-02T08:47:42.974Z</time></trkpt><trkpt lat="45.6413532" lon="10.9209287"><ele>867.0</ele><time>2026-05-02T08:47:44.974Z</time></trkpt><trkpt lat="45.6414494" lon="10.9209399"><ele>870.0</ele><time>2026-05-02T08:47:47.982Z</time></trkpt><trkpt lat="45.6415405" lon="10.9209691"><ele>873.0</ele><time>2026-05-02T08:47:49.993Z</time></trkpt><trkpt lat="45.6416367" lon="10.9210404"><ele>876.0</ele><time>2026-05-02T08:47:51.976Z</time></trkpt><trkpt lat="45.6417015" lon="10.9210669"><ele>879.0</ele><time>2026-05-02T08:47:52.983Z</time></trkpt><trkpt lat="45.6417589" lon="10.921113"><ele>882.0</ele><time>2026-05-02T08:47:53.969Z</time></trkpt><trkpt lat="45.6418161" lon="10.9211727"><ele>882.0</ele><time>2026-05-02T08:47:54.974Z</time></trkpt><trkpt lat="45.6418813" lon="10.9212456"><ele>882.0</ele><time>2026-05-02T08:47:55.972Z</time></trkpt><trkpt lat="45.6419448" lon="10.9213205"><ele>882.0</ele><time>2026-05-02T08:47:56.978Z</time></trkpt><trkpt lat="45.6420091" lon="10.9214046"><ele>882.0</ele><time>2026-05-02T08:47:57.951Z</time></trkpt><trkpt lat="45.6420764" lon="10.9214957"><ele>882.0</ele><time>2026-05-02T08:47:58.973Z</time></trkpt><trkpt lat="45.6421448" lon="10.9215786"><ele>882.0</ele><time>2026-05-02T08:47:59.972Z</time></trkpt><trkpt lat="45.6422062" lon="10.9216565"><ele>880.8</ele><time>2026-05-02T08:48:00.972Z</time></trkpt><trkpt lat="45.6422617" lon="10.9217322"><ele>879.6</ele><time>2026-05-02T08:48:01.965Z</time></trkpt><trkpt lat="45.6423275" lon="10.9218171"><ele>878.3999999999999</ele><time>2026-05-02T08:48:03.025Z</time></trkpt><trkpt lat="45.6423947" lon="10.9219079"><ele>877.1999999999999</ele><time>2026-05-02T08:48:04.027Z</time></trkpt><trkpt lat="45.6424661" lon="10.9220015"><ele>876.0</ele><time>2026-05-02T08:48:04.958Z</time></trkpt><trkpt lat="45.6425385" lon="10.9220947"><ele>876.0</ele><time>2026-05-02T08:48:06.041Z</time></trkpt><trkpt lat="45.6426091" lon="10.9221777"><ele>876.0</ele><time>2026-05-02T08:48:06.96Z</time></trkpt><trkpt lat="45.6426751" lon="10.9222429"><ele>876.0</ele><time>2026-05-02T08:48:07.955Z</time></trkpt><trkpt lat="45.6427414" lon="10.9222681"><ele>876.0</ele><time>2026-05-02T08:48:08.985Z</time></trkpt><trkpt lat="45.6428611" lon="10.9222054"><ele>876.0</ele><time>2026-05-02T08:48:10.951Z</time></trkpt><trkpt lat="45.6429269" lon="10.9221551"><ele>876.0</ele><time>2026-05-02T08:48:11.961Z</time></trkpt><trkpt lat="45.6430104" lon="10.9221103"><ele>875.5999999999999</ele><time>2026-05-02T08:48:13.026Z</time></trkpt><trkpt lat="45.6431132" lon="10.9220733"><ele>875.1999999999999</ele><time>2026-05-02T08:48:13.962Z</time></trkpt><trkpt lat="45.6432161" lon="10.9220259"><ele>874.8000000000001</ele><time>2026-05-02T08:48:14.962Z</time></trkpt><trkpt lat="45.6433115" lon="10.9219674"><ele>874.4000000000001</ele><time>2026-05-02T08:48:15.956Z</time></trkpt><trkpt lat="45.6434029" lon="10.9219121"><ele>874.0</ele><time>2026-05-02T08:48:16.953Z</time></trkpt><trkpt lat="45.6434913" lon="10.9218492"><ele>874.0</ele><time>2026-05-02T08:48:17.956Z</time></trkpt><trkpt lat="45.6435752" lon="10.9217929"><ele>874.0000000000001</ele><time>2026-05-02T08:48:19.04Z</time></trkpt><trkpt lat="45.6436593" lon="10.9217495"><ele>874.0000000000001</ele><time>2026-05-02T08:48:19.95Z</time></trkpt><trkpt lat="45.6437499" lon="10.9217094"><ele>874.0</ele><time>2026-05-02T08:48:20.951Z</time></trkpt><trkpt lat="45.643837" lon="10.9216814"><ele>874.0</ele><time>2026-05-02T08:48:21.991Z</time></trkpt><trkpt lat="45.6439293" lon="10.9216645"><ele>873.1666666666666</ele><time>2026-05-02T08:48:22.969Z</time></trkpt><trkpt lat="45.6440195" lon="10.9216739"><ele>872.3333333333333</ele><time>2026-05-02T08:48:23.962Z</time></trkpt><trkpt lat="45.6441083" lon="10.9217"><ele>871.5</ele><time>2026-05-02T08:48:24.968Z</time></trkpt><trkpt lat="45.6441943" lon="10.9217194"><ele>870.6666666666667</ele><time>2026-05-02T08:48:25.963Z</time></trkpt><trkpt lat="45.6442777" lon="10.9217111"><ele>869.8333333333334</ele><time>2026-05-02T08:48:26.95Z</time></trkpt><trkpt lat="45.644343" lon="10.9216722"><ele>869.0</ele><time>2026-05-02T08:48:27.945Z</time></trkpt><trkpt lat="45.6444129" lon="10.9215541"><ele>872.6666666666667</ele><time>2026-05-02T08:48:29.96Z</time></trkpt><trkpt lat="45.6444761" lon="10.9215719"><ele>876.3333333333334</ele><time>2026-05-02T08:48:32.964Z</time></trkpt><trkpt lat="45.6444704" lon="10.921686"><ele>880.0</ele><time>2026-05-02T08:48:34.965Z</time></trkpt><trkpt lat="45.6444303" lon="10.9217631"><ele>883.6666666666667</ele><time>2026-05-02T08:48:35.955Z</time></trkpt><trkpt lat="45.6443816" lon="10.9218359"><ele>887.3333333333334</ele><time>2026-05-02T08:48:36.953Z</time></trkpt><trkpt lat="45.6442785" lon="10.9219452"><ele>891.0</ele><time>2026-05-02T08:48:38.965Z</time></trkpt><trkpt lat="45.6442109" lon="10.9220048"><ele>891.0</ele><time>2026-05-02T08:48:39.959Z</time></trkpt><trkpt lat="45.64415" lon="10.9220794"><ele>890.9999999999999</ele><time>2026-05-02T08:48:40.956Z</time></trkpt><trkpt lat="45.6440938" lon="10.9221664"><ele>890.9999999999999</ele><time>2026-05-02T08:48:42.049Z</time></trkpt><trkpt lat="45.6440332" lon="10.9222708"><ele>891.0</ele><time>2026-05-02T08:48:42.965Z</time></trkpt><trkpt lat="45.6439666" lon="10.9223827"><ele>891.0</ele><time>2026-05-02T08:48:43.956Z</time></trkpt><trkpt lat="45.6439019" lon="10.9224962"><ele>897.0</ele><time>2026-05-02T08:48:44.963Z</time></trkpt><trkpt lat="45.6438402" lon="10.9226293"><ele>903.0</ele><time>2026-05-02T08:48:45.96Z</time></trkpt><trkpt lat="45.6437848" lon="10.9227913"><ele>909.0</ele><time>2026-05-02T08:48:47.001Z</time></trkpt><trkpt lat="45.6437354" lon="10.9229748"><ele>915.0</ele><time>2026-05-02T08:48:47.952Z</time></trkpt><trkpt lat="45.6436864" lon="10.9231864"><ele>915.0</ele><time>2026-05-02T08:48:49.017Z</time></trkpt><trkpt lat="45.6436393" lon="10.9233877"><ele>915.0</ele><time>2026-05-02T08:48:49.956Z</time></trkpt><trkpt lat="45.6435868" lon="10.9235587"><ele>915.0</ele><time>2026-05-02T08:48:50.963Z</time></trkpt><trkpt lat="45.6435358" lon="10.9236984"><ele>915.0</ele><time>2026-05-02T08:48:51.958Z</time></trkpt><trkpt lat="45.6434674" lon="10.9238223"><ele>915.6</ele><time>2026-05-02T08:48:52.952Z</time></trkpt><trkpt lat="45.6433695" lon="10.9239253"><ele>916.2</ele><time>2026-05-02T08:48:54.051Z</time></trkpt><trkpt lat="45.6432685" lon="10.9239954"><ele>916.8</ele><time>2026-05-02T08:48:54.983Z</time></trkpt><trkpt lat="45.6432047" lon="10.9240328"><ele>917.4</ele><time>2026-05-02T08:48:55.973Z</time></trkpt><trkpt lat="45.6432198" lon="10.9241241"><ele>918.0</ele><time>2026-05-02T08:48:57.958Z</time></trkpt><trkpt lat="45.6433075" lon="10.9241438"><ele>918.0</ele><time>2026-05-02T08:48:59.964Z</time></trkpt><trkpt lat="45.6433778" lon="10.9240987"><ele>918.0</ele><time>2026-05-02T08:49:00.957Z</time></trkpt><trkpt lat="45.6434557" lon="10.9240435"><ele>918.0</ele><time>2026-05-02T08:49:02.049Z</time></trkpt><trkpt lat="45.643525" lon="10.923981"><ele>918.0</ele><time>2026-05-02T08:49:03.016Z</time></trkpt><trkpt lat="45.6435979" lon="10.9239576"><ele>918.0</ele><time>2026-05-02T08:49:04.948Z</time></trkpt><trkpt lat="45.6435855" lon="10.9240691"><ele>918.0</ele><time>2026-05-02T08:49:07.956Z</time></trkpt><trkpt lat="45.6435301" lon="10.9242082"><ele>924.0</ele><time>2026-05-02T08:49:09.961Z</time></trkpt><trkpt lat="45.6434846" lon="10.924298"><ele>930.0</ele><time>2026-05-02T08:49:10.959Z</time></trkpt><trkpt lat="45.6434179" lon="10.9243962"><ele>936.0</ele><time>2026-05-02T08:49:11.955Z</time></trkpt><trkpt lat="45.6433295" lon="10.9244867"><ele>942.0</ele><time>2026-05-02T08:49:12.953Z</time></trkpt><trkpt lat="45.6432212" lon="10.9245908"><ele>948.0</ele><time>2026-05-02T08:49:13.955Z</time></trkpt><trkpt lat="45.6431308" lon="10.924702"><ele>948.0</ele><time>2026-05-02T08:49:14.951Z</time></trkpt><trkpt lat="45.6430502" lon="10.9247637"><ele>948.0</ele><time>2026-05-02T08:49:15.953Z</time></trkpt><trkpt lat="45.6429694" lon="10.9247853"><ele>948.0</ele><time>2026-05-02T08:49:16.939Z</time></trkpt><trkpt lat="45.6428654" lon="10.9248078"><ele>948.0</ele><time>2026-05-02T08:49:18.03Z</time></trkpt><trkpt lat="45.6427606" lon="10.9248273"><ele>948.0</ele><time>2026-05-02T08:49:18.965Z</time></trkpt><trkpt lat="45.6426703" lon="10.9248686"><ele>947.2</ele><time>2026-05-02T08:49:19.963Z</time></trkpt><trkpt lat="45.6425949" lon="10.9249384"><ele>946.4</ele><time>2026-05-02T08:49:20.968Z</time></trkpt><trkpt lat="45.6425307" lon="10.9250164"><ele>945.6000000000001</ele><time>2026-05-02T08:49:22.025Z</time></trkpt><trkpt lat="45.6424489" lon="10.9251028"><ele>944.8000000000001</ele><time>2026-05-02T08:49:23.033Z</time></trkpt><trkpt lat="45.6423523" lon="10.9252043"><ele>944.0</ele><time>2026-05-02T08:49:24.027Z</time></trkpt><trkpt lat="45.6422601" lon="10.9252845"><ele>944.0</ele><time>2026-05-02T08:49:24.961Z</time></trkpt><trkpt lat="45.6421919" lon="10.9253367"><ele>944.0000000000001</ele><time>2026-05-02T08:49:25.962Z</time></trkpt><trkpt lat="45.6421103" lon="10.9252269"><ele>944.0000000000001</ele><time>2026-05-02T08:49:28.964Z</time></trkpt><trkpt lat="45.642108" lon="10.9251212"><ele>944.0</ele><time>2026-05-02T08:49:29.953Z</time></trkpt><trkpt lat="45.6421071" lon="10.9249706"><ele>944.0</ele><time>2026-05-02T08:49:30.963Z</time></trkpt><trkpt lat="45.6421045" lon="10.9248502"><ele>944.0</ele><time>2026-05-02T08:49:31.969Z</time></trkpt><trkpt lat="45.6420935" lon="10.9247583"><ele>944.0</ele><time>2026-05-02T08:49:33.028Z</time></trkpt><trkpt lat="45.6420036" lon="10.9246071"><ele>944.0</ele><time>2026-05-02T08:49:34.965Z</time></trkpt><trkpt lat="45.6419143" lon="10.9245098"><ele>944.0</ele><time>2026-05-02T08:49:35.973Z</time></trkpt><trkpt lat="45.6418024" lon="10.9243862"><ele>946.25</ele><time>2026-05-02T08:49:36.97Z</time></trkpt><trkpt lat="45.6416872" lon="10.9242443"><ele>948.5</ele><time>2026-05-02T08:49:37.976Z</time></trkpt><trkpt lat="45.6415763" lon="10.9241073"><ele>950.75</ele><time>2026-05-02T08:49:38.983Z</time></trkpt><trkpt lat="45.6414711" lon="10.9239806"><ele>953.0</ele><time>2026-05-02T08:49:39.969Z</time></trkpt><trkpt lat="45.641378" lon="10.9238802"><ele>953.0000000000001</ele><time>2026-05-02T08:49:40.974Z</time></trkpt><trkpt lat="45.6412895" lon="10.9238056"><ele>953.0</ele><time>2026-05-02T08:49:41.98Z</time></trkpt><trkpt lat="45.6412161" lon="10.9237501"><ele>953.0</ele><time>2026-05-02T08:49:42.981Z</time></trkpt><trkpt lat="45.6411494" lon="10.9237106"><ele>953.0</ele><time>2026-05-02T08:49:43.98Z</time></trkpt><trkpt lat="45.6410594" lon="10.9236928"><ele>953.0000000000001</ele><time>2026-05-02T08:49:45.971Z</time></trkpt><trkpt lat="45.6409851" lon="10.9237584"><ele>953.0</ele><time>2026-05-02T08:49:48.972Z</time></trkpt><trkpt lat="45.641044" lon="10.9238063"><ele>953.0</ele><time>2026-05-02T08:49:52.96Z</time></trkpt><trkpt lat="45.6411398" lon="10.923858"><ele>953.0</ele><time>2026-05-02T08:49:54.979Z</time></trkpt><trkpt lat="45.641216" lon="10.9239078"><ele>953.0</ele><time>2026-05-02T08:49:57.001Z</time></trkpt><trkpt lat="45.6411666" lon="10.9238061"><ele>953.0</ele><time>2026-05-02T08:49:59.972Z</time></trkpt><trkpt lat="45.6410734" lon="10.9237747"><ele>953.0</ele><time>2026-05-02T08:50:00.98Z</time></trkpt><trkpt lat="45.6409556" lon="10.9237587"><ele>954.5999999999999</ele><time>2026-05-02T08:50:01.976Z</time></trkpt><trkpt lat="45.6408397" lon="10.9237747"><ele>956.1999999999999</ele><time>2026-05-02T08:50:02.978Z</time></trkpt><trkpt lat="45.6407435" lon="10.9237881"><ele>957.8</ele><time>2026-05-02T08:50:03.978Z</time></trkpt><trkpt lat="45.6406666" lon="10.9237538"><ele>959.4</ele><time>2026-05-02T08:50:04.968Z</time></trkpt><trkpt lat="45.6405945" lon="10.9236828"><ele>961.0</ele><time>2026-05-02T08:50:05.974Z</time></trkpt><trkpt lat="45.6405041" lon="10.9235548"><ele>961.0</ele><time>2026-05-02T08:50:06.975Z</time></trkpt><trkpt lat="45.6404107" lon="10.9234012"><ele>961.0</ele><time>2026-05-02T08:50:07.968Z</time></trkpt><trkpt lat="45.6403302" lon="10.923242"><ele>961.0</ele><time>2026-05-02T08:50:08.963Z</time></trkpt><trkpt lat="45.6402841" lon="10.9231161"><ele>961.0</ele><time>2026-05-02T08:50:09.973Z</time></trkpt><trkpt lat="45.6402301" lon="10.9230437"><ele>959.5999999999999</ele><time>2026-05-02T08:50:10.976Z</time></trkpt><trkpt lat="45.6401618" lon="10.9229992"><ele>958.1999999999999</ele><time>2026-05-02T08:50:11.976Z</time></trkpt><trkpt lat="45.6400762" lon="10.9229907"><ele>956.8000000000001</ele><time>2026-05-02T08:50:12.977Z</time></trkpt><trkpt lat="45.6399802" lon="10.9229907"><ele>955.4000000000001</ele><time>2026-05-02T08:50:13.978Z</time></trkpt><trkpt lat="45.6398903" lon="10.9230428"><ele>954.0</ele><time>2026-05-02T08:50:14.979Z</time></trkpt><trkpt lat="45.6397932" lon="10.9231395"><ele>954.0</ele><time>2026-05-02T08:50:15.968Z</time></trkpt><trkpt lat="45.639697" lon="10.9232437"><ele>954.0</ele><time>2026-05-02T08:50:17.002Z</time></trkpt><trkpt lat="45.6395985" lon="10.9233328"><ele>954.0</ele><time>2026-05-02T08:50:17.975Z</time></trkpt><trkpt lat="45.6394953" lon="10.9233819"><ele>954.0</ele><time>2026-05-02T08:50:18.966Z</time></trkpt><trkpt lat="45.6393897" lon="10.9234045"><ele>954.0</ele><time>2026-05-02T08:50:19.955Z</time></trkpt><trkpt lat="45.6393213" lon="10.9234195"><ele>954.0</ele><time>2026-05-02T08:50:20.971Z</time></trkpt><trkpt lat="45.6392289" lon="10.9234222"><ele>954.0</ele><time>2026-05-02T08:50:24.978Z</time></trkpt><trkpt lat="45.6391652" lon="10.9234079"><ele>954.0</ele><time>2026-05-02T08:50:25.97Z</time></trkpt><trkpt lat="45.6390949" lon="10.9233448"><ele>954.0</ele><time>2026-05-02T08:50:26.971Z</time></trkpt><trkpt lat="45.6389911" lon="10.9232718"><ele>954.0</ele><time>2026-05-02T08:50:27.974Z</time></trkpt><trkpt lat="45.6388692" lon="10.9231996"><ele>954.0</ele><time>2026-05-02T08:50:28.976Z</time></trkpt><trkpt lat="45.6387457" lon="10.9230928"><ele>954.0</ele><time>2026-05-02T08:50:29.962Z</time></trkpt><trkpt lat="45.6385776" lon="10.9229611"><ele>954.0</ele><time>2026-05-02T08:50:30.99Z</time></trkpt><trkpt lat="45.6383889" lon="10.92281"><ele>954.0</ele><time>2026-05-02T08:50:31.957Z</time></trkpt><trkpt lat="45.6382" lon="10.9226561"><ele>954.0</ele><time>2026-05-02T08:50:32.967Z</time></trkpt><trkpt lat="45.6380183" lon="10.9225081"><ele>954.0</ele><time>2026-05-02T08:50:33.976Z</time></trkpt><trkpt lat="45.6378547" lon="10.922378"><ele>954.3333333333333</ele><time>2026-05-02T08:50:34.965Z</time></trkpt><trkpt lat="45.6377" lon="10.9222626"><ele>954.6666666666666</ele><time>2026-05-02T08:50:35.976Z</time></trkpt><trkpt lat="45.6375447" lon="10.9221901"><ele>955.0</ele><time>2026-05-02T08:50:36.982Z</time></trkpt><trkpt lat="45.6374025" lon="10.9221374"><ele>955.0</ele><time>2026-05-02T08:50:37.981Z</time></trkpt><trkpt lat="45.6372664" lon="10.9221023"><ele>955.0</ele><time>2026-05-02T08:50:38.966Z</time></trkpt><trkpt lat="45.6371304" lon="10.9220913"><ele>955.0</ele><time>2026-05-02T08:50:39.974Z</time></trkpt><trkpt lat="45.6370004" lon="10.9220907"><ele>955.0</ele><time>2026-05-02T08:50:40.98Z</time></trkpt><trkpt lat="45.6368629" lon="10.9220617"><ele>955.0</ele><time>2026-05-02T08:50:41.98Z</time></trkpt><trkpt lat="45.6367246" lon="10.9220288"><ele>955.0</ele><time>2026-05-02T08:50:43.045Z</time></trkpt><trkpt lat="45.6365757" lon="10.9219989"><ele>955.0</ele><time>2026-05-02T08:50:44.024Z</time></trkpt><trkpt lat="45.636427" lon="10.9219749"><ele>955.0</ele><time>2026-05-02T08:50:44.985Z</time></trkpt><trkpt lat="45.6362835" lon="10.921956"><ele>955.0</ele><time>2026-05-02T08:50:45.979Z</time></trkpt><trkpt lat="45.6361391" lon="10.9219502"><ele>955.0</ele><time>2026-05-02T08:50:46.968Z</time></trkpt><trkpt lat="45.6359898" lon="10.9219326"><ele>955.0</ele><time>2026-05-02T08:50:48.045Z</time></trkpt><trkpt lat="45.635842" lon="10.9219129"><ele>955.0</ele><time>2026-05-02T08:50:49.029Z</time></trkpt><trkpt lat="45.6356889" lon="10.9218842"><ele>952.6666666666666</ele><time>2026-05-02T08:50:49.98Z</time></trkpt><trkpt lat="45.6355366" lon="10.9218444"><ele>950.3333333333333</ele><time>2026-05-02T08:50:50.975Z</time></trkpt><trkpt lat="45.6353709" lon="10.9217945"><ele>948.0</ele><time>2026-05-02T08:50:51.985Z</time></trkpt><trkpt lat="45.6352069" lon="10.9217309"><ele>945.0</ele><time>2026-05-02T08:50:52.969Z</time></trkpt><trkpt lat="45.6350401" lon="10.9216675"><ele>942.0</ele><time>2026-05-02T08:50:53.973Z</time></trkpt><trkpt lat="45.6348879" lon="10.9215859"><ele>939.0</ele><time>2026-05-02T08:50:54.986Z</time></trkpt><trkpt lat="45.6347464" lon="10.9215027"><ele>939.0</ele><time>2026-05-02T08:50:55.968Z</time></trkpt><trkpt lat="45.6346107" lon="10.9214068"><ele>939.0</ele><time>2026-05-02T08:50:57.016Z</time></trkpt><trkpt lat="45.6344884" lon="10.9213033"><ele>939.0</ele><time>2026-05-02T08:50:57.975Z</time></trkpt><trkpt lat="45.6343737" lon="10.9211986"><ele>939.0</ele><time>2026-05-02T08:50:59.035Z</time></trkpt><trkpt lat="45.6342613" lon="10.9211023"><ele>938.75</ele><time>2026-05-02T08:50:59.959Z</time></trkpt><trkpt lat="45.6341539" lon="10.921015"><ele>938.5</ele><time>2026-05-02T08:51:00.976Z</time></trkpt><trkpt lat="45.6340534" lon="10.9209238"><ele>938.25</ele><time>2026-05-02T08:51:02.033Z</time></trkpt><trkpt lat="45.6339385" lon="10.920837"><ele>938.0</ele><time>2026-05-02T08:51:03.06Z</time></trkpt><trkpt lat="45.6338078" lon="10.9207413"><ele>937.0</ele><time>2026-05-02T08:51:04.057Z</time></trkpt><trkpt lat="45.6336637" lon="10.9206454"><ele>936.0</ele><time>2026-05-02T08:51:04.976Z</time></trkpt><trkpt lat="45.6335301" lon="10.9205366"><ele>935.0</ele><time>2026-05-02T08:51:05.981Z</time></trkpt><trkpt lat="45.6334003" lon="10.9203998"><ele>935.0</ele><time>2026-05-02T08:51:06.976Z</time></trkpt><trkpt lat="45.6332737" lon="10.9202563"><ele>935.0</ele><time>2026-05-02T08:51:07.983Z</time></trkpt><trkpt lat="45.6331667" lon="10.9201123"><ele>935.0</ele><time>2026-05-02T08:51:08.989Z</time></trkpt><trkpt lat="45.6330655" lon="10.9199735"><ele>935.0</ele><time>2026-05-02T08:51:09.979Z</time></trkpt><trkpt lat="45.6329637" lon="10.9198409"><ele>933.0</ele><time>2026-05-02T08:51:10.98Z</time></trkpt><trkpt lat="45.6328612" lon="10.9197114"><ele>931.0</ele><time>2026-05-02T08:51:11.97Z</time></trkpt><trkpt lat="45.6327761" lon="10.9195841"><ele>929.0</ele><time>2026-05-02T08:51:12.986Z</time></trkpt><trkpt lat="45.6326957" lon="10.9194645"><ele>927.0</ele><time>2026-05-02T08:51:13.971Z</time></trkpt><trkpt lat="45.6326274" lon="10.9193594"><ele>926.4000000000001</ele><time>2026-05-02T08:51:14.97Z</time></trkpt><trkpt lat="45.6325529" lon="10.9192634"><ele>925.8000000000001</ele><time>2026-05-02T08:51:15.991Z</time></trkpt><trkpt lat="45.6324829" lon="10.9191719"><ele>925.2</ele><time>2026-05-02T08:51:16.988Z</time></trkpt><trkpt lat="45.6324104" lon="10.9190892"><ele>924.6</ele><time>2026-05-02T08:51:18.036Z</time></trkpt><trkpt lat="45.6323525" lon="10.9190126"><ele>924.0</ele><time>2026-05-02T08:51:18.991Z</time></trkpt><trkpt lat="45.6322701" lon="10.918967"><ele>924.0</ele><time>2026-05-02T08:51:20.988Z</time></trkpt><trkpt lat="45.632206" lon="10.9190104"><ele>924.0000000000001</ele><time>2026-05-02T08:51:24.044Z</time></trkpt><trkpt lat="45.6321633" lon="10.9190939"><ele>924.0000000000001</ele><time>2026-05-02T08:51:25.968Z</time></trkpt><trkpt lat="45.6321373" lon="10.9192295"><ele>924.0</ele><time>2026-05-02T08:51:27.968Z</time></trkpt><trkpt lat="45.632129" lon="10.9193894"><ele>924.0</ele><time>2026-05-02T08:51:29.963Z</time></trkpt><trkpt lat="45.6321075" lon="10.9195594"><ele>924.0</ele><time>2026-05-02T08:51:31.98Z</time></trkpt><trkpt lat="45.6320974" lon="10.9196514"><ele>924.0000000000001</ele><time>2026-05-02T08:51:32.972Z</time></trkpt><trkpt lat="45.6320808" lon="10.9197635"><ele>924.0000000000001</ele><time>2026-05-02T08:51:34.049Z</time></trkpt><trkpt lat="45.632056" lon="10.9198889"><ele>924.0</ele><time>2026-05-02T08:51:34.965Z</time></trkpt><trkpt lat="45.6320235" lon="10.9200374"><ele>924.0</ele><time>2026-05-02T08:51:35.968Z</time></trkpt><trkpt lat="45.6320009" lon="10.9202243"><ele>924.6666666666666</ele><time>2026-05-02T08:51:37.006Z</time></trkpt><trkpt lat="45.6319771" lon="10.9203743"><ele>925.3333333333333</ele><time>2026-05-02T08:51:38.037Z</time></trkpt><trkpt lat="45.6319611" lon="10.9205005"><ele>926.0</ele><time>2026-05-02T08:51:38.973Z</time></trkpt><trkpt lat="45.6319467" lon="10.9206238"><ele>926.6666666666666</ele><time>2026-05-02T08:51:39.958Z</time></trkpt><trkpt lat="45.6319404" lon="10.9207384"><ele>927.3333333333333</ele><time>2026-05-02T08:51:40.953Z</time></trkpt><trkpt lat="45.6319521" lon="10.9208453"><ele>928.0</ele><time>2026-05-02T08:51:41.964Z</time></trkpt><trkpt lat="45.6319805" lon="10.9209562"><ele>929.4999999999999</ele><time>2026-05-02T08:51:42.965Z</time></trkpt><trkpt lat="45.6320088" lon="10.9210651"><ele>931.0</ele><time>2026-05-02T08:51:43.972Z</time></trkpt><trkpt lat="45.6320397" lon="10.9211719"><ele>932.5</ele><time>2026-05-02T08:51:44.965Z</time></trkpt><trkpt lat="45.6320871" lon="10.9212728"><ele>934.0</ele><time>2026-05-02T08:51:45.976Z</time></trkpt><trkpt lat="45.6321311" lon="10.921367"><ele>935.4999999999999</ele><time>2026-05-02T08:51:47.015Z</time></trkpt><trkpt lat="45.6321834" lon="10.9214664"><ele>937.0</ele><time>2026-05-02T08:51:47.973Z</time></trkpt><trkpt lat="45.6322296" lon="10.9215608"><ele>937.0</ele><time>2026-05-02T08:51:48.998Z</time></trkpt><trkpt lat="45.6322718" lon="10.9216523"><ele>937.0</ele><time>2026-05-02T08:51:49.971Z</time></trkpt><trkpt lat="45.6323117" lon="10.9217424"><ele>937.0</ele><time>2026-05-02T08:51:50.967Z</time></trkpt><trkpt lat="45.6323476" lon="10.9218288"><ele>937.0</ele><time>2026-05-02T08:51:51.976Z</time></trkpt><trkpt lat="45.6323844" lon="10.921916"><ele>937.0</ele><time>2026-05-02T08:51:53.039Z</time></trkpt><trkpt lat="45.63242" lon="10.922002"><ele>937.0</ele><time>2026-05-02T08:51:54.049Z</time></trkpt><trkpt lat="45.6324526" lon="10.9221025"><ele>937.0</ele><time>2026-05-02T08:51:54.964Z</time></trkpt><trkpt lat="45.632492" lon="10.9222067"><ele>937.9999999999999</ele><time>2026-05-02T08:51:56.02Z</time></trkpt><trkpt lat="45.6325334" lon="10.9223128"><ele>939.0</ele><time>2026-05-02T08:51:57.049Z</time></trkpt><trkpt lat="45.6325674" lon="10.9224169"><ele>940.0</ele><time>2026-05-02T08:51:57.959Z</time></trkpt><trkpt lat="45.6326031" lon="10.9225164"><ele>941.0</ele><time>2026-05-02T08:51:58.965Z</time></trkpt><trkpt lat="45.6326373" lon="10.9226105"><ele>941.9999999999999</ele><time>2026-05-02T08:51:59.957Z</time></trkpt><trkpt lat="45.6326775" lon="10.922711"><ele>943.0</ele><time>2026-05-02T08:52:00.963Z</time></trkpt><trkpt lat="45.6327164" lon="10.9228194"><ele>943.9999999999999</ele><time>2026-05-02T08:52:01.959Z</time></trkpt><trkpt lat="45.6327542" lon="10.9229216"><ele>945.0</ele><time>2026-05-02T08:52:02.966Z</time></trkpt><trkpt lat="45.6327843" lon="10.9230188"><ele>946.0</ele><time>2026-05-02T08:52:03.964Z</time></trkpt><trkpt lat="45.6328064" lon="10.9231227"><ele>947.0</ele><time>2026-05-02T08:52:04.949Z</time></trkpt><trkpt lat="45.6328052" lon="10.9232209"><ele>947.9999999999999</ele><time>2026-05-02T08:52:05.969Z</time></trkpt><trkpt lat="45.6327811" lon="10.9233398"><ele>949.0</ele><time>2026-05-02T08:52:06.942Z</time></trkpt><trkpt lat="45.6327501" lon="10.9234763"><ele>949.8000000000001</ele><time>2026-05-02T08:52:07.964Z</time></trkpt><trkpt lat="45.6327214" lon="10.9236115"><ele>950.6000000000001</ele><time>2026-05-02T08:52:08.997Z</time></trkpt><trkpt lat="45.6326961" lon="10.9237473"><ele>951.4</ele><time>2026-05-02T08:52:09.954Z</time></trkpt><trkpt lat="45.6326811" lon="10.9238855"><ele>952.2</ele><time>2026-05-02T08:52:10.97Z</time></trkpt><trkpt lat="45.6326697" lon="10.9240151"><ele>953.0</ele><time>2026-05-02T08:52:11.969Z</time></trkpt><trkpt lat="45.6326699" lon="10.9241297"><ele>953.0000000000001</ele><time>2026-05-02T08:52:12.97Z</time></trkpt><trkpt lat="45.6326806" lon="10.924219"><ele>953.0</ele><time>2026-05-02T08:52:14.023Z</time></trkpt><trkpt lat="45.6326805" lon="10.9243246"><ele>953.0</ele><time>2026-05-02T08:52:16.961Z</time></trkpt><trkpt lat="45.6326799" lon="10.9244307"><ele>953.0</ele><time>2026-05-02T08:52:20.974Z</time></trkpt><trkpt lat="45.6326934" lon="10.9245427"><ele>953.0000000000001</ele><time>2026-05-02T08:52:23.968Z</time></trkpt><trkpt lat="45.6327361" lon="10.9246744"><ele>953.0</ele><time>2026-05-02T08:52:27.022Z</time></trkpt><trkpt lat="45.6327732" lon="10.9247898"><ele>954.0</ele><time>2026-05-02T08:52:28.959Z</time></trkpt><trkpt lat="45.632798" lon="10.9248794"><ele>955.0</ele><time>2026-05-02T08:52:29.962Z</time></trkpt><trkpt lat="45.632856" lon="10.9250394"><ele>956.0</ele><time>2026-05-02T08:52:31.955Z</time></trkpt><trkpt lat="45.6328893" lon="10.9251244"><ele>957.0</ele><time>2026-05-02T08:52:32.972Z</time></trkpt><trkpt lat="45.632953" lon="10.9252675"><ele>958.0</ele><time>2026-05-02T08:52:34.96Z</time></trkpt><trkpt lat="45.6329998" lon="10.9254023"><ele>960.4999999999999</ele><time>2026-05-02T08:52:36.963Z</time></trkpt><trkpt lat="45.6330275" lon="10.9255136"><ele>963.0</ele><time>2026-05-02T08:52:38.962Z</time></trkpt><trkpt lat="45.6330603" lon="10.9256229"><ele>965.5</ele><time>2026-05-02T08:52:40.958Z</time></trkpt><trkpt lat="45.6330879" lon="10.9258011"><ele>968.0</ele><time>2026-05-02T08:52:42.971Z</time></trkpt><trkpt lat="45.6330859" lon="10.9259015"><ele>970.4999999999999</ele><time>2026-05-02T08:52:43.959Z</time></trkpt><trkpt lat="45.6330939" lon="10.9259995"><ele>973.0</ele><time>2026-05-02T08:52:44.947Z</time></trkpt><trkpt lat="45.6331322" lon="10.926169"><ele>973.8333333333333</ele><time>2026-05-02T08:52:46.96Z</time></trkpt><trkpt lat="45.6331428" lon="10.9262846"><ele>974.6666666666666</ele><time>2026-05-02T08:52:48.012Z</time></trkpt><trkpt lat="45.6331483" lon="10.9264085"><ele>975.5</ele><time>2026-05-02T08:52:48.958Z</time></trkpt><trkpt lat="45.6331547" lon="10.9265193"><ele>976.3333333333333</ele><time>2026-05-02T08:52:49.966Z</time></trkpt><trkpt lat="45.6331545" lon="10.9266147"><ele>977.1666666666666</ele><time>2026-05-02T08:52:50.971Z</time></trkpt><trkpt lat="45.6331665" lon="10.9267501"><ele>978.0</ele><time>2026-05-02T08:52:52.962Z</time></trkpt><trkpt lat="45.6331731" lon="10.9268537"><ele>978.0</ele><time>2026-05-02T08:52:54.971Z</time></trkpt><trkpt lat="45.633196" lon="10.9269802"><ele>978.0</ele><time>2026-05-02T08:52:56.958Z</time></trkpt><trkpt lat="45.633254" lon="10.9271087"><ele>978.0</ele><time>2026-05-02T08:52:59.039Z</time></trkpt><trkpt lat="45.6333468" lon="10.9272417"><ele>978.0</ele><time>2026-05-02T08:53:00.979Z</time></trkpt><trkpt lat="45.6334025" lon="10.9273156"><ele>978.0</ele><time>2026-05-02T08:53:01.977Z</time></trkpt><trkpt lat="45.633445" lon="10.9273936"><ele>978.0</ele><time>2026-05-02T08:53:02.979Z</time></trkpt><trkpt lat="45.6334917" lon="10.9274748"><ele>978.0</ele><time>2026-05-02T08:53:03.978Z</time></trkpt><trkpt lat="45.6335342" lon="10.9275687"><ele>978.0</ele><time>2026-05-02T08:53:04.994Z</time></trkpt><trkpt lat="45.6335701" lon="10.9276754"><ele>978.0</ele><time>2026-05-02T08:53:06.055Z</time></trkpt><trkpt lat="45.6336133" lon="10.9277778"><ele>978.0</ele><time>2026-05-02T08:53:07.033Z</time></trkpt><trkpt lat="45.6336477" lon="10.9278757"><ele>978.0</ele><time>2026-05-02T08:53:08.037Z</time></trkpt><trkpt lat="45.6336946" lon="10.9279619"><ele>978.6666666666666</ele><time>2026-05-02T08:53:09.024Z</time></trkpt><trkpt lat="45.6337446" lon="10.9280444"><ele>979.3333333333333</ele><time>2026-05-02T08:53:09.967Z</time></trkpt><trkpt lat="45.6337981" lon="10.9281347"><ele>980.0</ele><time>2026-05-02T08:53:11.027Z</time></trkpt><trkpt lat="45.6338575" lon="10.9282362"><ele>980.6666666666666</ele><time>2026-05-02T08:53:12.024Z</time></trkpt><trkpt lat="45.6339278" lon="10.9283429"><ele>981.3333333333333</ele><time>2026-05-02T08:53:13.023Z</time></trkpt><trkpt lat="45.634" lon="10.9284295"><ele>982.0</ele><time>2026-05-02T08:53:14.05Z</time></trkpt><trkpt lat="45.634067" lon="10.9285262"><ele>981.9999999999999</ele><time>2026-05-02T08:53:14.98Z</time></trkpt><trkpt lat="45.6341447" lon="10.9286076"><ele>982.0</ele><time>2026-05-02T08:53:15.982Z</time></trkpt><trkpt lat="45.6342212" lon="10.9286818"><ele>982.0</ele><time>2026-05-02T08:53:17.003Z</time></trkpt><trkpt lat="45.6343017" lon="10.9287385"><ele>982.0</ele><time>2026-05-02T08:53:18.031Z</time></trkpt><trkpt lat="45.6343839" lon="10.9287801"><ele>981.9999999999999</ele><time>2026-05-02T08:53:19.027Z</time></trkpt><trkpt lat="45.6344612" lon="10.9287909"><ele>982.0</ele><time>2026-05-02T08:53:19.983Z</time></trkpt><trkpt lat="45.6345368" lon="10.9287884"><ele>984.3333333333333</ele><time>2026-05-02T08:53:20.986Z</time></trkpt><trkpt lat="45.6346203" lon="10.928778"><ele>986.6666666666666</ele><time>2026-05-02T08:53:21.999Z</time></trkpt><trkpt lat="45.6346879" lon="10.9287753"><ele>989.0</ele><time>2026-05-02T08:53:23.039Z</time></trkpt><trkpt lat="45.6347604" lon="10.9288114"><ele>991.3333333333333</ele><time>2026-05-02T08:53:23.979Z</time></trkpt><trkpt lat="45.6348418" lon="10.9288675"><ele>993.6666666666666</ele><time>2026-05-02T08:53:24.983Z</time></trkpt><trkpt lat="45.6349213" lon="10.9289214"><ele>996.0</ele><time>2026-05-02T08:53:25.978Z</time></trkpt><trkpt lat="45.6350026" lon="10.9289677"><ele>996.0</ele><time>2026-05-02T08:53:26.986Z</time></trkpt><trkpt lat="45.6350845" lon="10.9290038"><ele>996.0</ele><time>2026-05-02T08:53:27.964Z</time></trkpt><trkpt lat="45.6351656" lon="10.9290367"><ele>996.0</ele><time>2026-05-02T08:53:29.04Z</time></trkpt><trkpt lat="45.6352468" lon="10.9290748"><ele>996.0</ele><time>2026-05-02T08:53:29.958Z</time></trkpt><trkpt lat="45.6353211" lon="10.9291037"><ele>996.0</ele><time>2026-05-02T08:53:30.968Z</time></trkpt><trkpt lat="45.6354017" lon="10.9291384"><ele>996.0</ele><time>2026-05-02T08:53:31.97Z</time></trkpt><trkpt lat="45.6354734" lon="10.9291817"><ele>997.0</ele><time>2026-05-02T08:53:32.965Z</time></trkpt><trkpt lat="45.6355515" lon="10.9292399"><ele>997.9999999999999</ele><time>2026-05-02T08:53:33.968Z</time></trkpt><trkpt lat="45.6356277" lon="10.9293065"><ele>998.9999999999999</ele><time>2026-05-02T08:53:34.951Z</time></trkpt><trkpt lat="45.6357001" lon="10.9293837"><ele>1000.0</ele><time>2026-05-02T08:53:35.948Z</time></trkpt><trkpt lat="45.6357752" lon="10.929463"><ele>1001.0</ele><time>2026-05-02T08:53:36.966Z</time></trkpt><trkpt lat="45.6358493" lon="10.9295324"><ele>1001.0000000000001</ele><time>2026-05-02T08:53:38.038Z</time></trkpt><trkpt lat="45.6359332" lon="10.9295893"><ele>1001.0</ele><time>2026-05-02T08:53:39.044Z</time></trkpt><trkpt lat="45.6360173" lon="10.929641"><ele>1001.0</ele><time>2026-05-02T08:53:39.965Z</time></trkpt><trkpt lat="45.636097" lon="10.9296921"><ele>1001.0</ele><time>2026-05-02T08:53:40.97Z</time></trkpt><trkpt lat="45.636171" lon="10.9297468"><ele>1001.0000000000001</ele><time>2026-05-02T08:53:41.958Z</time></trkpt><trkpt lat="45.6362057" lon="10.929825"><ele>1001.0</ele><time>2026-05-02T08:53:42.967Z</time></trkpt><trkpt lat="45.6362505" lon="10.9299245"><ele>1002.5999999999999</ele><time>2026-05-02T08:53:43.96Z</time></trkpt><trkpt lat="45.6362775" lon="10.930044"><ele>1004.1999999999999</ele><time>2026-05-02T08:53:44.948Z</time></trkpt><trkpt lat="45.6363196" lon="10.9301542"><ele>1005.8000000000001</ele><time>2026-05-02T08:53:45.957Z</time></trkpt><trkpt lat="45.6363798" lon="10.9302496"><ele>1007.4000000000001</ele><time>2026-05-02T08:53:46.946Z</time></trkpt><trkpt lat="45.6364697" lon="10.9303489"><ele>1009.0</ele><time>2026-05-02T08:53:47.95Z</time></trkpt><trkpt lat="45.6365624" lon="10.9304445"><ele>1009.0</ele><time>2026-05-02T08:53:48.96Z</time></trkpt><trkpt lat="45.636658" lon="10.9305332"><ele>1009.0000000000001</ele><time>2026-05-02T08:53:49.971Z</time></trkpt><trkpt lat="45.6367418" lon="10.9306187"><ele>1009.0000000000001</ele><time>2026-05-02T08:53:50.969Z</time></trkpt><trkpt lat="45.6368208" lon="10.9306972"><ele>1009.0</ele><time>2026-05-02T08:53:51.966Z</time></trkpt><trkpt lat="45.6368901" lon="10.9307797"><ele>1009.0</ele><time>2026-05-02T08:53:52.949Z</time></trkpt><trkpt lat="45.6369529" lon="10.9308669"><ele>1009.8333333333333</ele><time>2026-05-02T08:53:53.96Z</time></trkpt><trkpt lat="45.6369997" lon="10.9309595"><ele>1010.6666666666666</ele><time>2026-05-02T08:53:54.963Z</time></trkpt><trkpt lat="45.6370396" lon="10.9310475"><ele>1011.5</ele><time>2026-05-02T08:53:56.019Z</time></trkpt><trkpt lat="45.6370845" lon="10.931139"><ele>1012.3333333333333</ele><time>2026-05-02T08:53:56.965Z</time></trkpt><trkpt lat="45.6371279" lon="10.9312287"><ele>1013.1666666666666</ele><time>2026-05-02T08:53:57.964Z</time></trkpt><trkpt lat="45.6371749" lon="10.9313121"><ele>1014.0</ele><time>2026-05-02T08:53:59.022Z</time></trkpt><trkpt lat="45.6372224" lon="10.931392"><ele>1014.0</ele><time>2026-05-02T08:53:59.961Z</time></trkpt><trkpt lat="45.637273" lon="10.9314496"><ele>1014.0</ele><time>2026-05-02T08:54:00.96Z</time></trkpt><trkpt lat="45.6373959" lon="10.9315173"><ele>1014.0</ele><time>2026-05-02T08:54:03.024Z</time></trkpt><trkpt lat="45.637462" lon="10.9315296"><ele>1014.0</ele><time>2026-05-02T08:54:04.023Z</time></trkpt><trkpt lat="45.637536" lon="10.9315261"><ele>1014.0</ele><time>2026-05-02T08:54:04.962Z</time></trkpt><trkpt lat="45.6376045" lon="10.931543"><ele>1014.0</ele><time>2026-05-02T08:54:05.971Z</time></trkpt><trkpt lat="45.6376768" lon="10.9315874"><ele>1014.0</ele><time>2026-05-02T08:54:06.973Z</time></trkpt><trkpt lat="45.6377345" lon="10.9316647"><ele>1014.0</ele><time>2026-05-02T08:54:08.053Z</time></trkpt><trkpt lat="45.6377649" lon="10.9317605"><ele>1014.0</ele><time>2026-05-02T08:54:09.026Z</time></trkpt><trkpt lat="45.6377873" lon="10.9318739"><ele>1014.0</ele><time>2026-05-02T08:54:09.965Z</time></trkpt><trkpt lat="45.6378081" lon="10.931982"><ele>1014.0</ele><time>2026-05-02T08:54:10.97Z</time></trkpt><trkpt lat="45.63785" lon="10.9320799"><ele>1014.0</ele><time>2026-05-02T08:54:11.977Z</time></trkpt><trkpt lat="45.6379117" lon="10.9321798"><ele>1012.4000000000001</ele><time>2026-05-02T08:54:13.041Z</time></trkpt><trkpt lat="45.6379695" lon="10.9322812"><ele>1010.8000000000001</ele><time>2026-05-02T08:54:14.033Z</time></trkpt><trkpt lat="45.6380498" lon="10.9323824"><ele>1009.1999999999999</ele><time>2026-05-02T08:54:14.967Z</time></trkpt><trkpt lat="45.6381191" lon="10.9324892"><ele>1007.5999999999999</ele><time>2026-05-02T08:54:15.972Z</time></trkpt><trkpt lat="45.63818" lon="10.9326036"><ele>1006.0</ele><time>2026-05-02T08:54:16.969Z</time></trkpt><trkpt lat="45.6382347" lon="10.9327195"><ele>1006.0</ele><time>2026-05-02T08:54:18.013Z</time></trkpt><trkpt lat="45.6382837" lon="10.9328444"><ele>1005.9999999999999</ele><time>2026-05-02T08:54:18.971Z</time></trkpt><trkpt lat="45.6383281" lon="10.9329766"><ele>1005.9999999999999</ele><time>2026-05-02T08:54:19.964Z</time></trkpt><trkpt lat="45.6383536" lon="10.9331096"><ele>1006.0</ele><time>2026-05-02T08:54:20.959Z</time></trkpt><trkpt lat="45.6383642" lon="10.9332494"><ele>1006.0</ele><time>2026-05-02T08:54:22.058Z</time></trkpt><trkpt lat="45.6383552" lon="10.9333775"><ele>1005.4999999999999</ele><time>2026-05-02T08:54:22.966Z</time></trkpt><trkpt lat="45.6383318" lon="10.9335018"><ele>1005.0</ele><time>2026-05-02T08:54:23.966Z</time></trkpt><trkpt lat="45.6383227" lon="10.9336146"><ele>1004.5</ele><time>2026-05-02T08:54:24.949Z</time></trkpt><trkpt lat="45.6383396" lon="10.9337118"><ele>1004.0</ele><time>2026-05-02T08:54:25.968Z</time></trkpt><trkpt lat="45.6383716" lon="10.9337967"><ele>1003.4999999999999</ele><time>2026-05-02T08:54:26.957Z</time></trkpt><trkpt lat="45.6384077" lon="10.9338944"><ele>1003.0</ele><time>2026-05-02T08:54:28.014Z</time></trkpt><trkpt lat="45.638459" lon="10.9339782"><ele>1002.9999999999999</ele><time>2026-05-02T08:54:28.958Z</time></trkpt><trkpt lat="45.6385249" lon="10.9340691"><ele>1003.0</ele><time>2026-05-02T08:54:29.968Z</time></trkpt><trkpt lat="45.6385925" lon="10.9341399"><ele>1003.0</ele><time>2026-05-02T08:54:30.966Z</time></trkpt><trkpt lat="45.6386538" lon="10.9341928"><ele>1003.0</ele><time>2026-05-02T08:54:31.954Z</time></trkpt><trkpt lat="45.6387147" lon="10.9342261"><ele>1002.9999999999999</ele><time>2026-05-02T08:54:32.957Z</time></trkpt><trkpt lat="45.6387752" lon="10.934256"><ele>1003.0</ele><time>2026-05-02T08:54:33.969Z</time></trkpt><trkpt lat="45.6388864" lon="10.9342943"><ele>1003.0</ele><time>2026-05-02T08:54:35.965Z</time></trkpt><trkpt lat="45.6389497" lon="10.9343503"><ele>1003.0</ele><time>2026-05-02T08:54:38.026Z</time></trkpt><trkpt lat="45.6390321" lon="10.9344097"><ele>1003.0</ele><time>2026-05-02T08:54:43.023Z</time></trkpt><trkpt lat="45.6391402" lon="10.9344306"><ele>1003.0</ele><time>2026-05-02T08:54:44.95Z</time></trkpt><trkpt lat="45.6392664" lon="10.9344494"><ele>1003.0</ele><time>2026-05-02T08:54:47.016Z</time></trkpt><trkpt lat="45.6393342" lon="10.9344684"><ele>1003.0</ele><time>2026-05-02T08:54:47.964Z</time></trkpt><trkpt lat="45.6394002" lon="10.9344855"><ele>1002.9999999999999</ele><time>2026-05-02T08:54:48.971Z</time></trkpt><trkpt lat="45.6394662" lon="10.9345037"><ele>1003.0</ele><time>2026-05-02T08:54:49.96Z</time></trkpt><trkpt lat="45.6395333" lon="10.934526"><ele>1003.0</ele><time>2026-05-02T08:54:50.979Z</time></trkpt><trkpt lat="45.6395958" lon="10.9345473"><ele>1002.9999999999999</ele><time>2026-05-02T08:54:51.977Z</time></trkpt><trkpt lat="45.6396624" lon="10.9345658"><ele>1003.0</ele><time>2026-05-02T08:54:52.974Z</time></trkpt><trkpt lat="45.6397331" lon="10.9345764"><ele>1003.0</ele><time>2026-05-02T08:54:53.966Z</time></trkpt><trkpt lat="45.6398019" lon="10.9345871"><ele>1002.1666666666666</ele><time>2026-05-02T08:54:54.95Z</time></trkpt><trkpt lat="45.6398779" lon="10.9346064"><ele>1001.3333333333333</ele><time>2026-05-02T08:54:55.941Z</time></trkpt><trkpt lat="45.639955" lon="10.9346271"><ele>1000.5</ele><time>2026-05-02T08:54:56.964Z</time></trkpt><trkpt lat="45.6400365" lon="10.9346473"><ele>999.6666666666667</ele><time>2026-05-02T08:54:57.962Z</time></trkpt><trkpt lat="45.6401161" lon="10.9346811"><ele>998.8333333333334</ele><time>2026-05-02T08:54:58.948Z</time></trkpt><trkpt lat="45.6402003" lon="10.9347188"><ele>998.0</ele><time>2026-05-02T08:54:59.971Z</time></trkpt><trkpt lat="45.6402821" lon="10.9347523"><ele>997.8333333333334</ele><time>2026-05-02T08:55:00.97Z</time></trkpt><trkpt lat="45.6403588" lon="10.9347946"><ele>997.6666666666667</ele><time>2026-05-02T08:55:02.013Z</time></trkpt><trkpt lat="45.6404353" lon="10.9348332"><ele>997.5</ele><time>2026-05-02T08:55:02.964Z</time></trkpt><trkpt lat="45.6405134" lon="10.9348695"><ele>997.3333333333333</ele><time>2026-05-02T08:55:03.956Z</time></trkpt><trkpt lat="45.6405835" lon="10.9349011"><ele>997.1666666666666</ele><time>2026-05-02T08:55:04.97Z</time></trkpt><trkpt lat="45.6406559" lon="10.9349103"><ele>997.0</ele><time>2026-05-02T08:55:05.969Z</time></trkpt><trkpt lat="45.6407258" lon="10.9348874"><ele>996.9999999999999</ele><time>2026-05-02T08:55:06.968Z</time></trkpt><trkpt lat="45.640803" lon="10.9348331"><ele>997.0</ele><time>2026-05-02T08:55:07.964Z</time></trkpt><trkpt lat="45.6408742" lon="10.9347794"><ele>997.0</ele><time>2026-05-02T08:55:08.967Z</time></trkpt><trkpt lat="45.6409491" lon="10.9347166"><ele>997.0</ele><time>2026-05-02T08:55:09.982Z</time></trkpt><trkpt lat="45.6410282" lon="10.9346455"><ele>996.9999999999999</ele><time>2026-05-02T08:55:10.963Z</time></trkpt><trkpt lat="45.6411008" lon="10.9345833"><ele>997.0</ele><time>2026-05-02T08:55:11.97Z</time></trkpt><trkpt lat="45.6411751" lon="10.9345155"><ele>997.6</ele><time>2026-05-02T08:55:12.967Z</time></trkpt><trkpt lat="45.641246" lon="10.9344426"><ele>998.2</ele><time>2026-05-02T08:55:13.973Z</time></trkpt><trkpt lat="45.6413186" lon="10.9343554"><ele>998.8</ele><time>2026-05-02T08:55:14.964Z</time></trkpt><trkpt lat="45.6413944" lon="10.934268"><ele>999.4</ele><time>2026-05-02T08:55:15.964Z</time></trkpt><trkpt lat="45.6414762" lon="10.9341836"><ele>1000.0</ele><time>2026-05-02T08:55:16.965Z</time></trkpt><trkpt lat="45.6415569" lon="10.9341078"><ele>1000.0</ele><time>2026-05-02T08:55:17.962Z</time></trkpt><trkpt lat="45.6416333" lon="10.9340254"><ele>1000.0</ele><time>2026-05-02T08:55:18.982Z</time></trkpt><trkpt lat="45.6417068" lon="10.9339304"><ele>1000.0</ele><time>2026-05-02T08:55:19.97Z</time></trkpt><trkpt lat="45.6417816" lon="10.9338355"><ele>1000.0</ele><time>2026-05-02T08:55:20.968Z</time></trkpt><trkpt lat="45.6418512" lon="10.9337437"><ele>1000.0</ele><time>2026-05-02T08:55:21.974Z</time></trkpt><trkpt lat="45.6419145" lon="10.9336583"><ele>1000.4999999999999</ele><time>2026-05-02T08:55:22.963Z</time></trkpt><trkpt lat="45.6419693" lon="10.9335765"><ele>1001.0</ele><time>2026-05-02T08:55:23.972Z</time></trkpt><trkpt lat="45.6420261" lon="10.9334928"><ele>1001.5</ele><time>2026-05-02T08:55:24.965Z</time></trkpt><trkpt lat="45.642077" lon="10.9334064"><ele>1002.0</ele><time>2026-05-02T08:55:25.966Z</time></trkpt><trkpt lat="45.6421317" lon="10.9333137"><ele>1002.4999999999999</ele><time>2026-05-02T08:55:26.966Z</time></trkpt><trkpt lat="45.6421898" lon="10.9332208"><ele>1003.0</ele><time>2026-05-02T08:55:27.958Z</time></trkpt><trkpt lat="45.6422335" lon="10.933126"><ele>1002.9999999999999</ele><time>2026-05-02T08:55:28.967Z</time></trkpt><trkpt lat="45.6422556" lon="10.9330165"><ele>1003.0</ele><time>2026-05-02T08:55:29.967Z</time></trkpt><trkpt lat="45.6422772" lon="10.9328945"><ele>1003.0</ele><time>2026-05-02T08:55:30.975Z</time></trkpt><trkpt lat="45.6422829" lon="10.9327766"><ele>1003.0</ele><time>2026-05-02T08:55:31.963Z</time></trkpt><trkpt lat="45.6422814" lon="10.9326473"><ele>1002.9999999999999</ele><time>2026-05-02T08:55:32.963Z</time></trkpt><trkpt lat="45.6422801" lon="10.9325074"><ele>1003.0</ele><time>2026-05-02T08:55:33.965Z</time></trkpt><trkpt lat="45.6422817" lon="10.9323762"><ele>1003.6666666666666</ele><time>2026-05-02T08:55:34.965Z</time></trkpt><trkpt lat="45.6422775" lon="10.9322511"><ele>1004.3333333333333</ele><time>2026-05-02T08:55:35.972Z</time></trkpt><trkpt lat="45.6422656" lon="10.9321278"><ele>1005.0</ele><time>2026-05-02T08:55:36.959Z</time></trkpt><trkpt lat="45.6422497" lon="10.9320192"><ele>1005.6666666666667</ele><time>2026-05-02T08:55:37.967Z</time></trkpt><trkpt lat="45.6422475" lon="10.9319061"><ele>1006.3333333333334</ele><time>2026-05-02T08:55:38.974Z</time></trkpt><trkpt lat="45.6422674" lon="10.9317924"><ele>1007.0</ele><time>2026-05-02T08:55:39.971Z</time></trkpt><trkpt lat="45.6422848" lon="10.9316965"><ele>1007.8333333333334</ele><time>2026-05-02T08:55:40.973Z</time></trkpt><trkpt lat="45.6423122" lon="10.9316094"><ele>1008.6666666666667</ele><time>2026-05-02T08:55:41.984Z</time></trkpt><trkpt lat="45.6423761" lon="10.9315172"><ele>1009.5</ele><time>2026-05-02T08:55:43.962Z</time></trkpt><trkpt lat="45.6424715" lon="10.9315125"><ele>1010.3333333333333</ele><time>2026-05-02T08:55:45.957Z</time></trkpt><trkpt lat="45.6425412" lon="10.9315305"><ele>1011.1666666666666</ele><time>2026-05-02T08:55:46.969Z</time></trkpt><trkpt lat="45.6426252" lon="10.9315262"><ele>1012.0</ele><time>2026-05-02T08:55:47.972Z</time></trkpt><trkpt lat="45.6426932" lon="10.9315049"><ele>1011.9999999999999</ele><time>2026-05-02T08:55:48.971Z</time></trkpt><trkpt lat="45.6427692" lon="10.9314647"><ele>1012.0</ele><time>2026-05-02T08:55:49.971Z</time></trkpt><trkpt lat="45.6428475" lon="10.9314235"><ele>1012.0</ele><time>2026-05-02T08:55:50.968Z</time></trkpt><trkpt lat="45.6429166" lon="10.9313713"><ele>1012.0</ele><time>2026-05-02T08:55:51.968Z</time></trkpt><trkpt lat="45.642979" lon="10.931307"><ele>1011.9999999999999</ele><time>2026-05-02T08:55:52.967Z</time></trkpt><trkpt lat="45.6430311" lon="10.9312356"><ele>1012.0</ele><time>2026-05-02T08:55:53.978Z</time></trkpt><trkpt lat="45.6430716" lon="10.931148"><ele>1010.3333333333333</ele><time>2026-05-02T08:55:54.975Z</time></trkpt><trkpt lat="45.6430929" lon="10.9310568"><ele>1008.6666666666666</ele><time>2026-05-02T08:55:55.965Z</time></trkpt><trkpt lat="45.6431278" lon="10.9309485"><ele>1007.0</ele><time>2026-05-02T08:55:57.971Z</time></trkpt><trkpt lat="45.6431995" lon="10.9309211"><ele>1005.3333333333333</ele><time>2026-05-02T08:55:59.974Z</time></trkpt><trkpt lat="45.6432924" lon="10.9309049"><ele>1003.6666666666666</ele><time>2026-05-02T08:56:01.959Z</time></trkpt><trkpt lat="45.6434021" lon="10.9309029"><ele>1002.0</ele><time>2026-05-02T08:56:03.969Z</time></trkpt><trkpt lat="45.6435278" lon="10.9308985"><ele>1001.3333333333334</ele><time>2026-05-02T08:56:05.974Z</time></trkpt><trkpt lat="45.6436515" lon="10.9308906"><ele>1000.6666666666667</ele><time>2026-05-02T08:56:07.946Z</time></trkpt><trkpt lat="45.6437188" lon="10.9308822"><ele>1000.0</ele><time>2026-05-02T08:56:08.961Z</time></trkpt><trkpt lat="45.6437907" lon="10.9308666"><ele>999.3333333333334</ele><time>2026-05-02T08:56:09.971Z</time></trkpt><trkpt lat="45.6438638" lon="10.9308525"><ele>998.6666666666667</ele><time>2026-05-02T08:56:10.968Z</time></trkpt><trkpt lat="45.6439333" lon="10.9308318"><ele>998.0</ele><time>2026-05-02T08:56:11.958Z</time></trkpt><trkpt lat="45.644004" lon="10.9308073"><ele>998.0000000000001</ele><time>2026-05-02T08:56:12.971Z</time></trkpt><trkpt lat="45.6440734" lon="10.9307896"><ele>998.0</ele><time>2026-05-02T08:56:13.95Z</time></trkpt><trkpt lat="45.6441431" lon="10.93078"><ele>998.0</ele><time>2026-05-02T08:56:14.97Z</time></trkpt><trkpt lat="45.6442462" lon="10.9307863"><ele>998.0</ele><time>2026-05-02T08:56:16.971Z</time></trkpt><trkpt lat="45.6443247" lon="10.9307348"><ele>998.0000000000001</ele><time>2026-05-02T08:56:18.972Z</time></trkpt><trkpt lat="45.644384" lon="10.9306481"><ele>998.0</ele><time>2026-05-02T08:56:20.962Z</time></trkpt><trkpt lat="45.6444279" lon="10.9304918"><ele>998.0000000000001</ele><time>2026-05-02T08:56:22.973Z</time></trkpt><trkpt lat="45.6444412" lon="10.9303107"><ele>998.0</ele><time>2026-05-02T08:56:24.97Z</time></trkpt><trkpt lat="45.6444475" lon="10.9302163"><ele>998.0</ele><time>2026-05-02T08:56:25.971Z</time></trkpt><trkpt lat="45.6444428" lon="10.9300498"><ele>998.0</ele><time>2026-05-02T08:56:27.962Z</time></trkpt><trkpt lat="45.6444262" lon="10.9299579"><ele>998.0000000000001</ele><time>2026-05-02T08:56:28.976Z</time></trkpt><trkpt lat="45.6443955" lon="10.9298651"><ele>998.0</ele><time>2026-05-02T08:56:29.969Z</time></trkpt><trkpt lat="45.6443676" lon="10.9297694"><ele>996.5000000000001</ele><time>2026-05-02T08:56:30.954Z</time></trkpt><trkpt lat="45.6443365" lon="10.9296697"><ele>995.0</ele><time>2026-05-02T08:56:31.972Z</time></trkpt><trkpt lat="45.6443077" lon="10.9295678"><ele>993.5</ele><time>2026-05-02T08:56:32.965Z</time></trkpt><trkpt lat="45.6442946" lon="10.9294551"><ele>992.0</ele><time>2026-05-02T08:56:33.965Z</time></trkpt><trkpt lat="45.6442844" lon="10.9293314"><ele>990.5000000000001</ele><time>2026-05-02T08:56:34.961Z</time></trkpt><trkpt lat="45.6442618" lon="10.9292251"><ele>989.0</ele><time>2026-05-02T08:56:35.967Z</time></trkpt><trkpt lat="45.6442342" lon="10.9291091"><ele>988.3333333333334</ele><time>2026-05-02T08:56:36.959Z</time></trkpt><trkpt lat="45.6442003" lon="10.9289962"><ele>987.6666666666667</ele><time>2026-05-02T08:56:37.97Z</time></trkpt><trkpt lat="45.6441677" lon="10.9288952"><ele>987.0</ele><time>2026-05-02T08:56:38.966Z</time></trkpt><trkpt lat="45.6441326" lon="10.9287995"><ele>986.3333333333333</ele><time>2026-05-02T08:56:39.965Z</time></trkpt><trkpt lat="45.6440887" lon="10.9287076"><ele>985.6666666666666</ele><time>2026-05-02T08:56:40.965Z</time></trkpt><trkpt lat="45.6440504" lon="10.9286102"><ele>985.0</ele><time>2026-05-02T08:56:41.975Z</time></trkpt><trkpt lat="45.6440056" lon="10.9285196"><ele>984.9999999999999</ele><time>2026-05-02T08:56:42.964Z</time></trkpt><trkpt lat="45.643953" lon="10.9284308"><ele>985.0</ele><time>2026-05-02T08:56:43.963Z</time></trkpt><trkpt lat="45.6438924" lon="10.9283583"><ele>985.0</ele><time>2026-05-02T08:56:44.966Z</time></trkpt><trkpt lat="45.6438237" lon="10.9282994"><ele>985.0</ele><time>2026-05-02T08:56:45.96Z</time></trkpt><trkpt lat="45.6437784" lon="10.9282062"><ele>984.9999999999999</ele><time>2026-05-02T08:56:46.967Z</time></trkpt><trkpt lat="45.6437873" lon="10.9281038"><ele>985.0</ele><time>2026-05-02T08:56:47.97Z</time></trkpt><trkpt lat="45.6438311" lon="10.9280322"><ele>983.9999999999999</ele><time>2026-05-02T08:56:48.97Z</time></trkpt><trkpt lat="45.6439369" lon="10.927974"><ele>983.0</ele><time>2026-05-02T08:56:50.984Z</time></trkpt><trkpt lat="45.6440201" lon="10.9280457"><ele>982.0</ele><time>2026-05-02T08:56:52.972Z</time></trkpt><trkpt lat="45.6440644" lon="10.9281259"><ele>981.0</ele><time>2026-05-02T08:56:53.975Z</time></trkpt><trkpt lat="45.6441159" lon="10.9281991"><ele>979.9999999999999</ele><time>2026-05-02T08:56:54.958Z</time></trkpt><trkpt lat="45.6441739" lon="10.9282739"><ele>979.0</ele><time>2026-05-02T08:56:55.961Z</time></trkpt><trkpt lat="45.6442251" lon="10.9283562"><ele>980.2</ele><time>2026-05-02T08:56:56.961Z</time></trkpt><trkpt lat="45.6442825" lon="10.9284502"><ele>981.4000000000001</ele><time>2026-05-02T08:56:57.951Z</time></trkpt><trkpt lat="45.6443384" lon="10.9285552"><ele>982.6</ele><time>2026-05-02T08:56:58.964Z</time></trkpt><trkpt lat="45.6443946" lon="10.9286837"><ele>983.8</ele><time>2026-05-02T08:56:59.959Z</time></trkpt><trkpt lat="45.6444571" lon="10.9288204"><ele>985.0</ele><time>2026-05-02T08:57:00.961Z</time></trkpt><trkpt lat="45.644512" lon="10.9289646"><ele>979.5</ele><time>2026-05-02T08:57:01.974Z</time></trkpt><trkpt lat="45.6445684" lon="10.9291162"><ele>974.0</ele><time>2026-05-02T08:57:02.947Z</time></trkpt><trkpt lat="45.6446303" lon="10.9292805"><ele>968.5</ele><time>2026-05-02T08:57:03.965Z</time></trkpt><trkpt lat="45.6446866" lon="10.9294632"><ele>963.0</ele><time>2026-05-02T08:57:04.972Z</time></trkpt><trkpt lat="45.6447477" lon="10.9296498"><ele>963.0</ele><time>2026-05-02T08:57:05.969Z</time></trkpt><trkpt lat="45.6448086" lon="10.9298252"><ele>963.0</ele><time>2026-05-02T08:57:06.965Z</time></trkpt><trkpt lat="45.6448655" lon="10.9299939"><ele>963.0</ele><time>2026-05-02T08:57:07.96Z</time></trkpt><trkpt lat="45.6449268" lon="10.9301547"><ele>963.0</ele><time>2026-05-02T08:57:08.962Z</time></trkpt><trkpt lat="45.6449929" lon="10.9303068"><ele>963.5</ele><time>2026-05-02T08:57:09.959Z</time></trkpt><trkpt lat="45.6450573" lon="10.9304647"><ele>964.0</ele><time>2026-05-02T08:57:10.969Z</time></trkpt><trkpt lat="45.6451194" lon="10.9306207"><ele>964.5</ele><time>2026-05-02T08:57:11.967Z</time></trkpt><trkpt lat="45.645185" lon="10.9307704"><ele>965.0</ele><time>2026-05-02T08:57:12.964Z</time></trkpt><trkpt lat="45.6452406" lon="10.9309195"><ele>965.0</ele><time>2026-05-02T08:57:13.964Z</time></trkpt><trkpt lat="45.6452827" lon="10.9310774"><ele>965.0</ele><time>2026-05-02T08:57:14.97Z</time></trkpt><trkpt lat="45.645305" lon="10.9312514"><ele>965.0</ele><time>2026-05-02T08:57:15.964Z</time></trkpt><trkpt lat="45.6453123" lon="10.9314283"><ele>965.0</ele><time>2026-05-02T08:57:16.96Z</time></trkpt><trkpt lat="45.6452977" lon="10.931607"><ele>960.5</ele><time>2026-05-02T08:57:17.958Z</time></trkpt><trkpt lat="45.6452739" lon="10.9317821"><ele>956.0</ele><time>2026-05-02T08:57:18.966Z</time></trkpt><trkpt lat="45.6452482" lon="10.9319494"><ele>951.5</ele><time>2026-05-02T08:57:19.96Z</time></trkpt><trkpt lat="45.6452076" lon="10.9321164"><ele>947.0</ele><time>2026-05-02T08:57:20.963Z</time></trkpt><trkpt lat="45.6451436" lon="10.9322607"><ele>947.0</ele><time>2026-05-02T08:57:21.963Z</time></trkpt><trkpt lat="45.6450548" lon="10.9323774"><ele>947.0</ele><time>2026-05-02T08:57:22.957Z</time></trkpt><trkpt lat="45.6449481" lon="10.9324614"><ele>947.0</ele><time>2026-05-02T08:57:23.959Z</time></trkpt><trkpt lat="45.6448259" lon="10.9325436"><ele>947.0</ele><time>2026-05-02T08:57:24.975Z</time></trkpt><trkpt lat="45.6447118" lon="10.9326322"><ele>947.75</ele><time>2026-05-02T08:57:25.957Z</time></trkpt><trkpt lat="45.6445828" lon="10.9327318"><ele>948.5</ele><time>2026-05-02T08:57:26.971Z</time></trkpt><trkpt lat="45.6444614" lon="10.9328248"><ele>949.25</ele><time>2026-05-02T08:57:27.964Z</time></trkpt><trkpt lat="45.6443384" lon="10.9329155"><ele>950.0</ele><time>2026-05-02T08:57:28.968Z</time></trkpt><trkpt lat="45.6442301" lon="10.9330009"><ele>950.0</ele><time>2026-05-02T08:57:29.966Z</time></trkpt><trkpt lat="45.6441286" lon="10.9330894"><ele>950.0</ele><time>2026-05-02T08:57:30.964Z</time></trkpt><trkpt lat="45.6440346" lon="10.9332004"><ele>950.0</ele><time>2026-05-02T08:57:31.974Z</time></trkpt><trkpt lat="45.6439767" lon="10.9333332"><ele>950.0</ele><time>2026-05-02T08:57:32.956Z</time></trkpt><trkpt lat="45.6439572" lon="10.9334851"><ele>948.0</ele><time>2026-05-02T08:57:33.963Z</time></trkpt><trkpt lat="45.6439697" lon="10.9336555"><ele>946.0</ele><time>2026-05-02T08:57:34.968Z</time></trkpt><trkpt lat="45.6439989" lon="10.933821"><ele>944.0</ele><time>2026-05-02T08:57:35.963Z</time></trkpt><trkpt lat="45.6440295" lon="10.9339999"><ele>942.0</ele><time>2026-05-02T08:57:36.96Z</time></trkpt><trkpt lat="45.6440499" lon="10.9341837"><ele>940.75</ele><time>2026-05-02T08:57:37.96Z</time></trkpt><trkpt lat="45.64406" lon="10.9343585"><ele>939.5</ele><time>2026-05-02T08:57:38.956Z</time></trkpt><trkpt lat="45.6440442" lon="10.9345363"><ele>938.25</ele><time>2026-05-02T08:57:39.963Z</time></trkpt><trkpt lat="45.6440047" lon="10.9347078"><ele>937.0</ele><time>2026-05-02T08:57:40.961Z</time></trkpt><trkpt lat="45.6439486" lon="10.934875"><ele>937.0</ele><time>2026-05-02T08:57:41.964Z</time></trkpt><trkpt lat="45.6438877" lon="10.9350342"><ele>937.0</ele><time>2026-05-02T08:57:42.956Z</time></trkpt><trkpt lat="45.6438291" lon="10.9351958"><ele>937.0</ele><time>2026-05-02T08:57:43.967Z</time></trkpt><trkpt lat="45.6437641" lon="10.9353564"><ele>937.0</ele><time>2026-05-02T08:57:44.961Z</time></trkpt><trkpt lat="45.6437023" lon="10.9355133"><ele>937.2</ele><time>2026-05-02T08:57:45.963Z</time></trkpt><trkpt lat="45.6436459" lon="10.9356651"><ele>937.4000000000001</ele><time>2026-05-02T08:57:46.965Z</time></trkpt><trkpt lat="45.6435933" lon="10.9358076"><ele>937.5999999999999</ele><time>2026-05-02T08:57:47.964Z</time></trkpt><trkpt lat="45.6435557" lon="10.9359536"><ele>937.8</ele><time>2026-05-02T08:57:48.965Z</time></trkpt><trkpt lat="45.6435408" lon="10.9360909"><ele>938.0</ele><time>2026-05-02T08:57:49.961Z</time></trkpt><trkpt lat="45.6435435" lon="10.9362051"><ele>938.0000000000001</ele><time>2026-05-02T08:57:50.959Z</time></trkpt><trkpt lat="45.6435161" lon="10.9363138"><ele>938.0</ele><time>2026-05-02T08:57:52.963Z</time></trkpt><trkpt lat="45.6435252" lon="10.9364344"><ele>938.0</ele><time>2026-05-02T08:57:57.968Z</time></trkpt><trkpt lat="45.6436391" lon="10.9364742"><ele>938.0</ele><time>2026-05-02T08:57:59.96Z</time></trkpt><trkpt lat="45.6437105" lon="10.9365073"><ele>938.0000000000001</ele><time>2026-05-02T08:58:00.962Z</time></trkpt><trkpt lat="45.6437883" lon="10.9365627"><ele>938.0</ele><time>2026-05-02T08:58:01.961Z</time></trkpt><trkpt lat="45.6438698" lon="10.9366059"><ele>938.1666666666667</ele><time>2026-05-02T08:58:02.963Z</time></trkpt><trkpt lat="45.6439522" lon="10.9366514"><ele>938.3333333333334</ele><time>2026-05-02T08:58:03.957Z</time></trkpt><trkpt lat="45.6440365" lon="10.9367047"><ele>938.5</ele><time>2026-05-02T08:58:04.964Z</time></trkpt><trkpt lat="45.6441194" lon="10.9367467"><ele>938.6666666666667</ele><time>2026-05-02T08:58:05.959Z</time></trkpt><trkpt lat="45.6442055" lon="10.9367713"><ele>938.8333333333334</ele><time>2026-05-02T08:58:06.963Z</time></trkpt><trkpt lat="45.6442842" lon="10.9367651"><ele>939.0</ele><time>2026-05-02T08:58:07.968Z</time></trkpt><trkpt lat="45.6443725" lon="10.9367662"><ele>938.4000000000001</ele><time>2026-05-02T08:58:08.963Z</time></trkpt><trkpt lat="45.6444654" lon="10.9367677"><ele>937.8000000000001</ele><time>2026-05-02T08:58:09.962Z</time></trkpt><trkpt lat="45.6445712" lon="10.9367636"><ele>937.1999999999999</ele><time>2026-05-02T08:58:10.969Z</time></trkpt><trkpt lat="45.6446702" lon="10.9367636"><ele>936.5999999999999</ele><time>2026-05-02T08:58:11.941Z</time></trkpt><trkpt lat="45.644774" lon="10.9367647"><ele>936.0</ele><time>2026-05-02T08:58:12.954Z</time></trkpt><trkpt lat="45.6448698" lon="10.9367627"><ele>936.0</ele><time>2026-05-02T08:58:13.964Z</time></trkpt><trkpt lat="45.6449649" lon="10.9367597"><ele>935.9999999999999</ele><time>2026-05-02T08:58:14.962Z</time></trkpt><trkpt lat="45.6450664" lon="10.9367599"><ele>935.9999999999999</ele><time>2026-05-02T08:58:15.961Z</time></trkpt><trkpt lat="45.6451682" lon="10.9367646"><ele>936.0</ele><time>2026-05-02T08:58:16.963Z</time></trkpt><trkpt lat="45.6452738" lon="10.9367577"><ele>936.0</ele><time>2026-05-02T08:58:17.971Z</time></trkpt><trkpt lat="45.6453822" lon="10.936759"><ele>935.5</ele><time>2026-05-02T08:58:18.959Z</time></trkpt><trkpt lat="45.6454845" lon="10.9367612"><ele>935.0</ele><time>2026-05-02T08:58:19.965Z</time></trkpt><trkpt lat="45.6455758" lon="10.9367622"><ele>934.5</ele><time>2026-05-02T08:58:20.963Z</time></trkpt><trkpt lat="45.6456753" lon="10.9367686"><ele>934.0</ele><time>2026-05-02T08:58:21.971Z</time></trkpt><trkpt lat="45.6457603" lon="10.9367882"><ele>933.5</ele><time>2026-05-02T08:58:22.963Z</time></trkpt><trkpt lat="45.6458262" lon="10.9368085"><ele>933.0</ele><time>2026-05-02T08:58:23.972Z</time></trkpt><trkpt lat="45.6459427" lon="10.9368465"><ele>933.0</ele><time>2026-05-02T08:58:25.967Z</time></trkpt><trkpt lat="45.6460697" lon="10.9368992"><ele>933.0</ele><time>2026-05-02T08:58:27.957Z</time></trkpt><trkpt lat="45.6461344" lon="10.9369376"><ele>933.0</ele><time>2026-05-02T08:58:28.955Z</time></trkpt><trkpt lat="45.6461887" lon="10.9369872"><ele>933.0</ele><time>2026-05-02T08:58:29.959Z</time></trkpt><trkpt lat="45.6462906" lon="10.9370883"><ele>933.0</ele><time>2026-05-02T08:58:31.969Z</time></trkpt><trkpt lat="45.64639" lon="10.9371877"><ele>932.8</ele><time>2026-05-02T08:58:34.041Z</time></trkpt><trkpt lat="45.6464772" lon="10.9372844"><ele>932.5999999999999</ele><time>2026-05-02T08:58:35.968Z</time></trkpt><trkpt lat="45.646594" lon="10.9373299"><ele>932.4000000000001</ele><time>2026-05-02T08:58:38.052Z</time></trkpt><trkpt lat="45.6466894" lon="10.9373409"><ele>932.2</ele><time>2026-05-02T08:58:38.986Z</time></trkpt><trkpt lat="45.6467847" lon="10.9373618"><ele>932.0</ele><time>2026-05-02T08:58:39.974Z</time></trkpt><trkpt lat="45.6468805" lon="10.9373652"><ele>933.2</ele><time>2026-05-02T08:58:40.973Z</time></trkpt><trkpt lat="45.6469802" lon="10.9373504"><ele>934.4000000000001</ele><time>2026-05-02T08:58:42Z</time></trkpt><trkpt lat="45.6470774" lon="10.9373316"><ele>935.5999999999999</ele><time>2026-05-02T08:58:42.972Z</time></trkpt><trkpt lat="45.6471776" lon="10.9373203"><ele>936.8</ele><time>2026-05-02T08:58:43.969Z</time></trkpt><trkpt lat="45.6472894" lon="10.9373226"><ele>938.0</ele><time>2026-05-02T08:58:44.975Z</time></trkpt><trkpt lat="45.6473985" lon="10.9373501"><ele>938.0</ele><time>2026-05-02T08:58:45.965Z</time></trkpt><trkpt lat="45.6474982" lon="10.9373987"><ele>938.0</ele><time>2026-05-02T08:58:46.978Z</time></trkpt><trkpt lat="45.6475953" lon="10.9374377"><ele>938.0</ele><time>2026-05-02T08:58:47.981Z</time></trkpt><trkpt lat="45.6476878" lon="10.9374064"><ele>938.0</ele><time>2026-05-02T08:58:48.98Z</time></trkpt><trkpt lat="45.6477829" lon="10.9373399"><ele>938.0</ele><time>2026-05-02T08:58:49.979Z</time></trkpt><trkpt lat="45.6478718" lon="10.9372861"><ele>940.0</ele><time>2026-05-02T08:58:50.979Z</time></trkpt><trkpt lat="45.6479748" lon="10.9372445"><ele>942.0</ele><time>2026-05-02T08:58:51.98Z</time></trkpt><trkpt lat="45.648099" lon="10.9372274"><ele>944.0</ele><time>2026-05-02T08:58:52.984Z</time></trkpt><trkpt lat="45.6482295" lon="10.9372202"><ele>946.0</ele><time>2026-05-02T08:58:53.985Z</time></trkpt><trkpt lat="45.6483737" lon="10.9372308"><ele>946.0</ele><time>2026-05-02T08:58:54.973Z</time></trkpt><trkpt lat="45.6485151" lon="10.9372507"><ele>946.0</ele><time>2026-05-02T08:58:55.98Z</time></trkpt><trkpt lat="45.6486497" lon="10.9372786"><ele>946.0</ele><time>2026-05-02T08:58:56.97Z</time></trkpt><trkpt lat="45.6487823" lon="10.9373026"><ele>946.0</ele><time>2026-05-02T08:58:57.979Z</time></trkpt><trkpt lat="45.6489044" lon="10.9373142"><ele>947.3333333333333</ele><time>2026-05-02T08:58:58.981Z</time></trkpt><trkpt lat="45.6490423" lon="10.9373201"><ele>948.6666666666667</ele><time>2026-05-02T08:58:59.969Z</time></trkpt><trkpt lat="45.6491964" lon="10.937322"><ele>950.0</ele><time>2026-05-02T08:59:00.978Z</time></trkpt><trkpt lat="45.6493727" lon="10.9373157"><ele>950.6666666666667</ele><time>2026-05-02T08:59:01.981Z</time></trkpt><trkpt lat="45.6495686" lon="10.9372945"><ele>951.3333333333333</ele><time>2026-05-02T08:59:02.973Z</time></trkpt><trkpt lat="45.6497705" lon="10.9372612"><ele>952.0</ele><time>2026-05-02T08:59:03.979Z</time></trkpt><trkpt lat="45.6499804" lon="10.9372148"><ele>952.0</ele><time>2026-05-02T08:59:04.981Z</time></trkpt><trkpt lat="45.6501957" lon="10.9371714"><ele>952.0</ele><time>2026-05-02T08:59:05.977Z</time></trkpt><trkpt lat="45.6503991" lon="10.9371399"><ele>952.0</ele><time>2026-05-02T08:59:06.975Z</time></trkpt><trkpt lat="45.6505807" lon="10.9371101"><ele>954.6666666666666</ele><time>2026-05-02T08:59:07.986Z</time></trkpt><trkpt lat="45.6507423" lon="10.9370813"><ele>957.3333333333333</ele><time>2026-05-02T08:59:08.982Z</time></trkpt><trkpt lat="45.6508878" lon="10.9370522"><ele>960.0</ele><time>2026-05-02T08:59:09.979Z</time></trkpt><trkpt lat="45.6510285" lon="10.9370327"><ele>960.75</ele><time>2026-05-02T08:59:10.958Z</time></trkpt><trkpt lat="45.6511658" lon="10.9370157"><ele>961.5</ele><time>2026-05-02T08:59:11.978Z</time></trkpt><trkpt lat="45.6513005" lon="10.9370119"><ele>962.25</ele><time>2026-05-02T08:59:12.979Z</time></trkpt><trkpt lat="45.6514415" lon="10.937007"><ele>963.0</ele><time>2026-05-02T08:59:13.978Z</time></trkpt><trkpt lat="45.6515918" lon="10.9369993"><ele>963.0</ele><time>2026-05-02T08:59:14.978Z</time></trkpt><trkpt lat="45.651748" lon="10.9369971"><ele>963.0</ele><time>2026-05-02T08:59:15.972Z</time></trkpt><trkpt lat="45.6519061" lon="10.9370043"><ele>963.0</ele><time>2026-05-02T08:59:16.981Z</time></trkpt><trkpt lat="45.6520671" lon="10.937027"><ele>962.3333333333333</ele><time>2026-05-02T08:59:17.982Z</time></trkpt><trkpt lat="45.6522235" lon="10.9370636"><ele>961.6666666666666</ele><time>2026-05-02T08:59:18.978Z</time></trkpt><trkpt lat="45.6523784" lon="10.9371011"><ele>961.0</ele><time>2026-05-02T08:59:19.984Z</time></trkpt><trkpt lat="45.652537" lon="10.9371259"><ele>961.0</ele><time>2026-05-02T08:59:20.991Z</time></trkpt><trkpt lat="45.6526948" lon="10.9371315"><ele>961.0</ele><time>2026-05-02T08:59:21.977Z</time></trkpt><trkpt lat="45.6528526" lon="10.9371231"><ele>961.0</ele><time>2026-05-02T08:59:22.983Z</time></trkpt><trkpt lat="45.6530025" lon="10.9371095"><ele>962.5</ele><time>2026-05-02T08:59:24.02Z</time></trkpt><trkpt lat="45.6531504" lon="10.9371123"><ele>964.0</ele><time>2026-05-02T08:59:24.982Z</time></trkpt><trkpt lat="45.6532945" lon="10.937144"><ele>965.5</ele><time>2026-05-02T08:59:25.989Z</time></trkpt><trkpt lat="45.6534291" lon="10.9372049"><ele>967.0</ele><time>2026-05-02T08:59:26.982Z</time></trkpt><trkpt lat="45.6535509" lon="10.9372885"><ele>966.75</ele><time>2026-05-02T08:59:27.984Z</time></trkpt><trkpt lat="45.653675" lon="10.9373868"><ele>966.5</ele><time>2026-05-02T08:59:28.982Z</time></trkpt><trkpt lat="45.6538032" lon="10.9374934"><ele>966.25</ele><time>2026-05-02T08:59:29.983Z</time></trkpt><trkpt lat="45.6539339" lon="10.9376084"><ele>966.0</ele><time>2026-05-02T08:59:30.983Z</time></trkpt><trkpt lat="45.6540621" lon="10.9377195"><ele>969.0</ele><time>2026-05-02T08:59:31.973Z</time></trkpt><trkpt lat="45.6541963" lon="10.9378459"><ele>972.0</ele><time>2026-05-02T08:59:32.978Z</time></trkpt><trkpt lat="45.6543388" lon="10.9379816"><ele>975.0</ele><time>2026-05-02T08:59:33.971Z</time></trkpt><trkpt lat="45.6544887" lon="10.9381155"><ele>976.0</ele><time>2026-05-02T08:59:34.988Z</time></trkpt><trkpt lat="45.654646" lon="10.9382532"><ele>977.0</ele><time>2026-05-02T08:59:35.978Z</time></trkpt><trkpt lat="45.6547995" lon="10.938385"><ele>978.0</ele><time>2026-05-02T08:59:36.983Z</time></trkpt><trkpt lat="45.6549478" lon="10.9385093"><ele>982.3333333333333</ele><time>2026-05-02T08:59:37.99Z</time></trkpt><trkpt lat="45.6550959" lon="10.9386241"><ele>986.6666666666666</ele><time>2026-05-02T08:59:38.973Z</time></trkpt><trkpt lat="45.6552413" lon="10.9387301"><ele>991.0</ele><time>2026-05-02T08:59:39.982Z</time></trkpt><trkpt lat="45.6553842" lon="10.9388251"><ele>991.0</ele><time>2026-05-02T08:59:40.977Z</time></trkpt><trkpt lat="45.6555227" lon="10.9389251"><ele>991.0</ele><time>2026-05-02T08:59:41.974Z</time></trkpt><trkpt lat="45.6556658" lon="10.9390217"><ele>991.0</ele><time>2026-05-02T08:59:42.981Z</time></trkpt><trkpt lat="45.655811" lon="10.9391055"><ele>991.0</ele><time>2026-05-02T08:59:43.975Z</time></trkpt><trkpt lat="45.6559511" lon="10.9391862"><ele>991.0</ele><time>2026-05-02T08:59:44.978Z</time></trkpt><trkpt lat="45.6560956" lon="10.9392429"><ele>991.0</ele><time>2026-05-02T08:59:45.98Z</time></trkpt><trkpt lat="45.6562479" lon="10.93931"><ele>993.3333333333333</ele><time>2026-05-02T08:59:46.977Z</time></trkpt><trkpt lat="45.6563926" lon="10.9393779"><ele>995.6666666666667</ele><time>2026-05-02T08:59:47.973Z</time></trkpt><trkpt lat="45.6565436" lon="10.9394487"><ele>998.0</ele><time>2026-05-02T08:59:48.974Z</time></trkpt><trkpt lat="45.6566999" lon="10.9395216"><ele>998.0</ele><time>2026-05-02T08:59:49.978Z</time></trkpt><trkpt lat="45.6568641" lon="10.9395834"><ele>998.0</ele><time>2026-05-02T08:59:50.98Z</time></trkpt><trkpt lat="45.6570306" lon="10.9396326"><ele>998.0</ele><time>2026-05-02T08:59:51.98Z</time></trkpt><trkpt lat="45.6571907" lon="10.9396802"><ele>1000.0</ele><time>2026-05-02T08:59:52.988Z</time></trkpt><trkpt lat="45.6573446" lon="10.9397255"><ele>1002.0</ele><time>2026-05-02T08:59:53.97Z</time></trkpt><trkpt lat="45.6574958" lon="10.9397652"><ele>1004.0</ele><time>2026-05-02T08:59:54.976Z</time></trkpt><trkpt lat="45.6576415" lon="10.939802"><ele>1006.6666666666667</ele><time>2026-05-02T08:59:55.976Z</time></trkpt><trkpt lat="45.6577933" lon="10.9398473"><ele>1009.3333333333333</ele><time>2026-05-02T08:59:56.974Z</time></trkpt><trkpt lat="45.6579389" lon="10.9398911"><ele>1012.0</ele><time>2026-05-02T08:59:57.984Z</time></trkpt><trkpt lat="45.6580846" lon="10.9399449"><ele>1012.0</ele><time>2026-05-02T08:59:58.964Z</time></trkpt><trkpt lat="45.65823" lon="10.9400064"><ele>1012.0</ele><time>2026-05-02T08:59:59.972Z</time></trkpt><trkpt lat="45.6583697" lon="10.9400798"><ele>1012.0</ele><time>2026-05-02T09:00:00.979Z</time></trkpt><trkpt lat="45.6585083" lon="10.9401636"><ele>1016.25</ele><time>2026-05-02T09:00:01.98Z</time></trkpt><trkpt lat="45.6586415" lon="10.9402559"><ele>1020.5</ele><time>2026-05-02T09:00:02.978Z</time></trkpt><trkpt lat="45.6587621" lon="10.940361"><ele>1024.75</ele><time>2026-05-02T09:00:03.979Z</time></trkpt><trkpt lat="45.658873" lon="10.9404548"><ele>1029.0</ele><time>2026-05-02T09:00:04.978Z</time></trkpt><trkpt lat="45.6589853" lon="10.9405627"><ele>1029.0</ele><time>2026-05-02T09:00:05.975Z</time></trkpt><trkpt lat="45.6590996" lon="10.9406804"><ele>1029.0</ele><time>2026-05-02T09:00:06.975Z</time></trkpt><trkpt lat="45.659207" lon="10.9408048"><ele>1029.0</ele><time>2026-05-02T09:00:07.969Z</time></trkpt><trkpt lat="45.6593053" lon="10.9409204"><ele>1029.0</ele><time>2026-05-02T09:00:08.977Z</time></trkpt><trkpt lat="45.6594002" lon="10.9410205"><ele>1032.0</ele><time>2026-05-02T09:00:09.975Z</time></trkpt><trkpt lat="45.6594969" lon="10.9411231"><ele>1035.0</ele><time>2026-05-02T09:00:11.033Z</time></trkpt><trkpt lat="45.659596" lon="10.9412357"><ele>1038.0</ele><time>2026-05-02T09:00:12.038Z</time></trkpt><trkpt lat="45.6596966" lon="10.9413482"><ele>1041.0</ele><time>2026-05-02T09:00:13.056Z</time></trkpt><trkpt lat="45.6598138" lon="10.9414757"><ele>1041.0</ele><time>2026-05-02T09:00:14.047Z</time></trkpt><trkpt lat="45.6599428" lon="10.9416125"><ele>1041.0</ele><time>2026-05-02T09:00:14.975Z</time></trkpt><trkpt lat="45.6600822" lon="10.9417529"><ele>1041.0</ele><time>2026-05-02T09:00:15.964Z</time></trkpt><trkpt lat="45.6602066" lon="10.9418778"><ele>1045.0</ele><time>2026-05-02T09:00:17.019Z</time></trkpt><trkpt lat="45.6603181" lon="10.9419956"><ele>1049.0</ele><time>2026-05-02T09:00:18.057Z</time></trkpt><trkpt lat="45.6604109" lon="10.9420863"><ele>1053.0</ele><time>2026-05-02T09:00:18.962Z</time></trkpt><trkpt lat="45.6605054" lon="10.9421679"><ele>1057.0</ele><time>2026-05-02T09:00:19.96Z</time></trkpt><trkpt lat="45.6605945" lon="10.9422522"><ele>1057.0</ele><time>2026-05-02T09:00:20.963Z</time></trkpt><trkpt lat="45.6606804" lon="10.9423277"><ele>1057.0</ele><time>2026-05-02T09:00:21.958Z</time></trkpt><trkpt lat="45.6607729" lon="10.9424064"><ele>1057.0</ele><time>2026-05-02T09:00:22.965Z</time></trkpt><trkpt lat="45.6608696" lon="10.9424645"><ele>1057.0</ele><time>2026-05-02T09:00:23.964Z</time></trkpt><trkpt lat="45.6609684" lon="10.9425054"><ele>1057.0</ele><time>2026-05-02T09:00:24.966Z</time></trkpt><trkpt lat="45.6610646" lon="10.9425474"><ele>1058.2</ele><time>2026-05-02T09:00:25.966Z</time></trkpt><trkpt lat="45.6611443" lon="10.9425649"><ele>1059.4</ele><time>2026-05-02T09:00:27.047Z</time></trkpt><trkpt lat="45.6612349" lon="10.9425712"><ele>1060.6</ele><time>2026-05-02T09:00:29.007Z</time></trkpt><trkpt lat="45.6613094" lon="10.9425833"><ele>1061.8</ele><time>2026-05-02T09:00:45.96Z</time></trkpt><trkpt lat="45.6613914" lon="10.9425803"><ele>1063.0</ele><time>2026-05-02T09:00:47.96Z</time></trkpt><trkpt lat="45.6615331" lon="10.9425406"><ele>1063.8</ele><time>2026-05-02T09:00:49.975Z</time></trkpt><trkpt lat="45.6616264" lon="10.9424863"><ele>1064.6</ele><time>2026-05-02T09:00:51.039Z</time></trkpt><trkpt lat="45.6617218" lon="10.942422"><ele>1065.4</ele><time>2026-05-02T09:00:52.024Z</time></trkpt><trkpt lat="45.6618149" lon="10.9423344"><ele>1066.2</ele><time>2026-05-02T09:00:52.967Z</time></trkpt><trkpt lat="45.6619114" lon="10.942228"><ele>1067.0</ele><time>2026-05-02T09:00:53.974Z</time></trkpt><trkpt lat="45.6619955" lon="10.9421056"><ele>1070.25</ele><time>2026-05-02T09:00:54.965Z</time></trkpt><trkpt lat="45.6620703" lon="10.9419658"><ele>1073.5</ele><time>2026-05-02T09:00:55.965Z</time></trkpt><trkpt lat="45.662149" lon="10.9418281"><ele>1076.75</ele><time>2026-05-02T09:00:56.955Z</time></trkpt><trkpt lat="45.6622251" lon="10.94169"><ele>1080.0</ele><time>2026-05-02T09:00:57.95Z</time></trkpt><trkpt lat="45.6623011" lon="10.9415534"><ele>1080.0</ele><time>2026-05-02T09:00:59.04Z</time></trkpt><trkpt lat="45.6623752" lon="10.9414208"><ele>1080.0</ele><time>2026-05-02T09:00:59.96Z</time></trkpt><trkpt lat="45.6624585" lon="10.9412939"><ele>1080.0</ele><time>2026-05-02T09:01:00.963Z</time></trkpt><trkpt lat="45.662548" lon="10.9411922"><ele>1080.0</ele><time>2026-05-02T09:01:01.985Z</time></trkpt><trkpt lat="45.6626422" lon="10.9411078"><ele>1080.0</ele><time>2026-05-02T09:01:02.97Z</time></trkpt><trkpt lat="45.6627451" lon="10.9410306"><ele>1080.0</ele><time>2026-05-02T09:01:03.963Z</time></trkpt><trkpt lat="45.6628428" lon="10.9409447"><ele>1080.0</ele><time>2026-05-02T09:01:04.974Z</time></trkpt><trkpt lat="45.6629407" lon="10.9408592"><ele>1080.0</ele><time>2026-05-02T09:01:05.966Z</time></trkpt><trkpt lat="45.6630386" lon="10.9407729"><ele>1083.0</ele><time>2026-05-02T09:01:07.049Z</time></trkpt><trkpt lat="45.6631382" lon="10.9406898"><ele>1086.0</ele><time>2026-05-02T09:01:08.037Z</time></trkpt><trkpt lat="45.6632375" lon="10.9406115"><ele>1089.0</ele><time>2026-05-02T09:01:08.967Z</time></trkpt><trkpt lat="45.6633385" lon="10.9405276"><ele>1092.0</ele><time>2026-05-02T09:01:09.95Z</time></trkpt><trkpt lat="45.6634402" lon="10.9404493"><ele>1092.0</ele><time>2026-05-02T09:01:11.038Z</time></trkpt><trkpt lat="45.6635348" lon="10.9403851"><ele>1092.0</ele><time>2026-05-02T09:01:12.043Z</time></trkpt><trkpt lat="45.6636254" lon="10.940338"><ele>1092.0</ele><time>2026-05-02T09:01:12.96Z</time></trkpt><trkpt lat="45.6637095" lon="10.9403296"><ele>1092.0</ele><time>2026-05-02T09:01:13.96Z</time></trkpt><trkpt lat="45.6637896" lon="10.9403674"><ele>1092.0</ele><time>2026-05-02T09:01:14.971Z</time></trkpt><trkpt lat="45.6638562" lon="10.9404464"><ele>1095.6</ele><time>2026-05-02T09:01:15.969Z</time></trkpt><trkpt lat="45.6639004" lon="10.9405649"><ele>1099.2</ele><time>2026-05-02T09:01:16.997Z</time></trkpt><trkpt lat="45.6639141" lon="10.9407083"><ele>1102.8</ele><time>2026-05-02T09:01:17.973Z</time></trkpt><trkpt lat="45.6638855" lon="10.9408747"><ele>1106.4</ele><time>2026-05-02T09:01:18.964Z</time></trkpt><trkpt lat="45.6638383" lon="10.94103"><ele>1110.0</ele><time>2026-05-02T09:01:19.951Z</time></trkpt><trkpt lat="45.6637898" lon="10.9411767"><ele>1113.0</ele><time>2026-05-02T09:01:20.968Z</time></trkpt><trkpt lat="45.6637415" lon="10.9413303"><ele>1116.0</ele><time>2026-05-02T09:01:21.96Z</time></trkpt><trkpt lat="45.6637012" lon="10.9414871"><ele>1119.0</ele><time>2026-05-02T09:01:22.967Z</time></trkpt><trkpt lat="45.6636771" lon="10.9416576"><ele>1122.0</ele><time>2026-05-02T09:01:23.959Z</time></trkpt><trkpt lat="45.6636627" lon="10.9418163"><ele>1122.0</ele><time>2026-05-02T09:01:24.965Z</time></trkpt><trkpt lat="45.6636665" lon="10.9419667"><ele>1122.0</ele><time>2026-05-02T09:01:25.958Z</time></trkpt><trkpt lat="45.6637001" lon="10.942123"><ele>1122.0</ele><time>2026-05-02T09:01:26.965Z</time></trkpt><trkpt lat="45.6637446" lon="10.9422709"><ele>1122.0</ele><time>2026-05-02T09:01:27.97Z</time></trkpt><trkpt lat="45.6637907" lon="10.9424278"><ele>1121.6</ele><time>2026-05-02T09:01:28.968Z</time></trkpt><trkpt lat="45.6638457" lon="10.942573"><ele>1121.2</ele><time>2026-05-02T09:01:29.967Z</time></trkpt><trkpt lat="45.6639064" lon="10.9427037"><ele>1120.8</ele><time>2026-05-02T09:01:31.025Z</time></trkpt><trkpt lat="45.6639678" lon="10.9428323"><ele>1120.4</ele><time>2026-05-02T09:01:31.961Z</time></trkpt><trkpt lat="45.6640216" lon="10.9429678"><ele>1120.0</ele><time>2026-05-02T09:01:32.963Z</time></trkpt><trkpt lat="45.6640749" lon="10.9430953"><ele>1120.0</ele><time>2026-05-02T09:01:33.958Z</time></trkpt><trkpt lat="45.6641335" lon="10.9432269"><ele>1120.0</ele><time>2026-05-02T09:01:34.969Z</time></trkpt><trkpt lat="45.6641885" lon="10.943355"><ele>1120.0</ele><time>2026-05-02T09:01:35.963Z</time></trkpt><trkpt lat="45.6642427" lon="10.9434935"><ele>1120.0</ele><time>2026-05-02T09:01:36.974Z</time></trkpt><trkpt lat="45.6642945" lon="10.9436435"><ele>1120.0</ele><time>2026-05-02T09:01:37.964Z</time></trkpt><trkpt lat="45.6643348" lon="10.9437979"><ele>1120.2</ele><time>2026-05-02T09:01:38.955Z</time></trkpt><trkpt lat="45.6643704" lon="10.9439495"><ele>1120.4</ele><time>2026-05-02T09:01:39.956Z</time></trkpt><trkpt lat="45.6644097" lon="10.9440966"><ele>1120.6</ele><time>2026-05-02T09:01:41.029Z</time></trkpt><trkpt lat="45.664451" lon="10.9442396"><ele>1120.8</ele><time>2026-05-02T09:01:42.041Z</time></trkpt><trkpt lat="45.6644918" lon="10.9443803"><ele>1121.0</ele><time>2026-05-02T09:01:42.97Z</time></trkpt><trkpt lat="45.6645227" lon="10.9445205"><ele>1124.8</ele><time>2026-05-02T09:01:43.955Z</time></trkpt><trkpt lat="45.6645523" lon="10.9446496"><ele>1128.6</ele><time>2026-05-02T09:01:44.96Z</time></trkpt><trkpt lat="45.6645847" lon="10.9447851"><ele>1132.4</ele><time>2026-05-02T09:01:45.968Z</time></trkpt><trkpt lat="45.6646271" lon="10.9449258"><ele>1136.2</ele><time>2026-05-02T09:01:46.964Z</time></trkpt><trkpt lat="45.6646779" lon="10.9450655"><ele>1140.0</ele><time>2026-05-02T09:01:48.022Z</time></trkpt><trkpt lat="45.6647374" lon="10.9452169"><ele>1140.0</ele><time>2026-05-02T09:01:49.041Z</time></trkpt><trkpt lat="45.6647994" lon="10.9453648"><ele>1140.0</ele><time>2026-05-02T09:01:49.964Z</time></trkpt><trkpt lat="45.6648622" lon="10.9455215"><ele>1140.0</ele><time>2026-05-02T09:01:50.971Z</time></trkpt><trkpt lat="45.6649218" lon="10.945657"><ele>1140.0</ele><time>2026-05-02T09:01:51.998Z</time></trkpt><trkpt lat="45.6649791" lon="10.9457753"><ele>1139.2</ele><time>2026-05-02T09:01:52.96Z</time></trkpt><trkpt lat="45.6650402" lon="10.9458973"><ele>1138.4</ele><time>2026-05-02T09:01:53.962Z</time></trkpt><trkpt lat="45.6650994" lon="10.9460172"><ele>1137.6</ele><time>2026-05-02T09:01:54.967Z</time></trkpt><trkpt lat="45.6651686" lon="10.9461423"><ele>1136.8</ele><time>2026-05-02T09:01:55.966Z</time></trkpt><trkpt lat="45.6652458" lon="10.946249"><ele>1136.0</ele><time>2026-05-02T09:01:56.977Z</time></trkpt><trkpt lat="45.6653194" lon="10.9463408"><ele>1139.1666666666667</ele><time>2026-05-02T09:01:57.976Z</time></trkpt><trkpt lat="45.6653912" lon="10.9464303"><ele>1142.3333333333335</ele><time>2026-05-02T09:01:58.973Z</time></trkpt><trkpt lat="45.6654654" lon="10.9465324"><ele>1145.5</ele><time>2026-05-02T09:01:59.969Z</time></trkpt><trkpt lat="45.6655313" lon="10.9466282"><ele>1148.6666666666667</ele><time>2026-05-02T09:02:00.968Z</time></trkpt><trkpt lat="45.6655869" lon="10.9467128"><ele>1151.8333333333333</ele><time>2026-05-02T09:02:01.972Z</time></trkpt><trkpt lat="45.6656264" lon="10.9468001"><ele>1155.0</ele><time>2026-05-02T09:02:02.964Z</time></trkpt><trkpt lat="45.6656512" lon="10.946898"><ele>1155.0</ele><time>2026-05-02T09:02:04.052Z</time></trkpt><trkpt lat="45.6656716" lon="10.9469847"><ele>1155.0</ele><time>2026-05-02T09:02:04.978Z</time></trkpt><trkpt lat="45.6657001" lon="10.9470741"><ele>1155.0</ele><time>2026-05-02T09:02:05.983Z</time></trkpt><trkpt lat="45.6657424" lon="10.9471677"><ele>1155.0</ele><time>2026-05-02T09:02:07.018Z</time></trkpt><trkpt lat="45.6657843" lon="10.9472631"><ele>1155.0</ele><time>2026-05-02T09:02:07.999Z</time></trkpt><trkpt lat="45.6658223" lon="10.947359"><ele>1155.0</ele><time>2026-05-02T09:02:08.984Z</time></trkpt><trkpt lat="45.6658721" lon="10.9475487"><ele>1155.0</ele><time>2026-05-02T09:02:10.98Z</time></trkpt><trkpt lat="45.6658932" lon="10.9476687"><ele>1155.0</ele><time>2026-05-02T09:02:12.063Z</time></trkpt><trkpt lat="45.665897" lon="10.9477849"><ele>1155.0</ele><time>2026-05-02T09:02:12.992Z</time></trkpt><trkpt lat="45.6658603" lon="10.9478692"><ele>1155.0</ele><time>2026-05-02T09:02:13.991Z</time></trkpt><trkpt lat="45.6657877" lon="10.9479519"><ele>1155.0</ele><time>2026-05-02T09:02:14.981Z</time></trkpt><trkpt lat="45.6657118" lon="10.9480193"><ele>1155.0</ele><time>2026-05-02T09:02:15.978Z</time></trkpt><trkpt lat="45.6656593" lon="10.948093"><ele>1155.0</ele><time>2026-05-02T09:02:16.981Z</time></trkpt><trkpt lat="45.6656373" lon="10.948181"><ele>1155.0</ele><time>2026-05-02T09:02:18.06Z</time></trkpt><trkpt lat="45.6656638" lon="10.9483102"><ele>1155.0</ele><time>2026-05-02T09:02:19.057Z</time></trkpt><trkpt lat="45.6657024" lon="10.9484291"><ele>1155.0</ele><time>2026-05-02T09:02:19.969Z</time></trkpt><trkpt lat="45.6657506" lon="10.9485493"><ele>1155.0</ele><time>2026-05-02T09:02:20.968Z</time></trkpt><trkpt lat="45.6657995" lon="10.9486718"><ele>1155.0</ele><time>2026-05-02T09:02:22.014Z</time></trkpt><trkpt lat="45.6658482" lon="10.9487989"><ele>1154.2</ele><time>2026-05-02T09:02:23.042Z</time></trkpt><trkpt lat="45.6658984" lon="10.9489325"><ele>1153.4</ele><time>2026-05-02T09:02:23.971Z</time></trkpt><trkpt lat="45.665938" lon="10.9490585"><ele>1152.6</ele><time>2026-05-02T09:02:24.982Z</time></trkpt><trkpt lat="45.6659751" lon="10.94918"><ele>1151.8</ele><time>2026-05-02T09:02:25.982Z</time></trkpt><trkpt lat="45.6660084" lon="10.9493051"><ele>1151.0</ele><time>2026-05-02T09:02:26.971Z</time></trkpt><trkpt lat="45.6660382" lon="10.949427"><ele>1153.2</ele><time>2026-05-02T09:02:27.976Z</time></trkpt><trkpt lat="45.6660771" lon="10.9495431"><ele>1155.3999999999999</ele><time>2026-05-02T09:02:29.037Z</time></trkpt><trkpt lat="45.6661336" lon="10.9496576"><ele>1157.6</ele><time>2026-05-02T09:02:29.962Z</time></trkpt><trkpt lat="45.6661901" lon="10.9497627"><ele>1159.8</ele><time>2026-05-02T09:02:30.959Z</time></trkpt><trkpt lat="45.6662463" lon="10.9498672"><ele>1162.0</ele><time>2026-05-02T09:02:31.961Z</time></trkpt><trkpt lat="45.6662937" lon="10.9499784"><ele>1158.0</ele><time>2026-05-02T09:02:32.971Z</time></trkpt><trkpt lat="45.6663344" lon="10.9500836"><ele>1154.0</ele><time>2026-05-02T09:02:33.967Z</time></trkpt><trkpt lat="45.6663928" lon="10.950173"><ele>1150.0</ele><time>2026-05-02T09:02:34.971Z</time></trkpt><trkpt lat="45.6664563" lon="10.95023"><ele>1146.0</ele><time>2026-05-02T09:02:35.965Z</time></trkpt><trkpt lat="45.6665176" lon="10.9502644"><ele>1142.0</ele><time>2026-05-02T09:02:36.971Z</time></trkpt><trkpt lat="45.6665681" lon="10.9503452"><ele>1138.0</ele><time>2026-05-02T09:02:38.967Z</time></trkpt><trkpt lat="45.6664515" lon="10.9503565"><ele>1138.0000000000002</ele><time>2026-05-02T09:02:41.97Z</time></trkpt><trkpt lat="45.6663921" lon="10.9503155"><ele>1138.0</ele><time>2026-05-02T09:02:42.973Z</time></trkpt><trkpt lat="45.666325" lon="10.9502876"><ele>1138.0</ele><time>2026-05-02T09:02:43.963Z</time></trkpt><trkpt lat="45.6662557" lon="10.9502504"><ele>1138.0</ele><time>2026-05-02T09:02:44.96Z</time></trkpt><trkpt lat="45.6661901" lon="10.9502023"><ele>1138.0</ele><time>2026-05-02T09:02:45.968Z</time></trkpt><trkpt lat="45.6661323" lon="10.9501528"><ele>1138.0000000000002</ele><time>2026-05-02T09:02:46.958Z</time></trkpt><trkpt lat="45.6660764" lon="10.9501102"><ele>1138.0</ele><time>2026-05-02T09:02:47.968Z</time></trkpt><trkpt lat="45.666002" lon="10.9501388"><ele>1138.0000000000002</ele><time>2026-05-02T09:02:50.966Z</time></trkpt><trkpt lat="45.6660286" lon="10.9502331"><ele>1138.0</ele><time>2026-05-02T09:02:52.974Z</time></trkpt><trkpt lat="45.6660804" lon="10.9503006"><ele>1138.0</ele><time>2026-05-02T09:02:53.968Z</time></trkpt><trkpt lat="45.6661384" lon="10.9503543"><ele>1138.0</ele><time>2026-05-02T09:02:54.969Z</time></trkpt><trkpt lat="45.6661955" lon="10.9504063"><ele>1138.0</ele><time>2026-05-02T09:02:55.957Z</time></trkpt><trkpt lat="45.6662471" lon="10.9504814"><ele>1138.0000000000002</ele><time>2026-05-02T09:02:56.964Z</time></trkpt><trkpt lat="45.6663037" lon="10.9505787"><ele>1138.0</ele><time>2026-05-02T09:02:57.975Z</time></trkpt><trkpt lat="45.6663642" lon="10.9506703"><ele>1138.0</ele><time>2026-05-02T09:02:58.967Z</time></trkpt><trkpt lat="45.6664264" lon="10.950763"><ele>1138.0</ele><time>2026-05-02T09:02:59.961Z</time></trkpt><trkpt lat="45.6664861" lon="10.9508563"><ele>1138.0</ele><time>2026-05-02T09:03:00.966Z</time></trkpt><trkpt lat="45.6665407" lon="10.9509536"><ele>1138.0</ele><time>2026-05-02T09:03:01.968Z</time></trkpt><trkpt lat="45.6665979" lon="10.9510425"><ele>1138.0</ele><time>2026-05-02T09:03:02.97Z</time></trkpt><trkpt lat="45.6666574" lon="10.9511413"><ele>1138.0</ele><time>2026-05-02T09:03:03.959Z</time></trkpt><trkpt lat="45.6667041" lon="10.9512405"><ele>1138.0</ele><time>2026-05-02T09:03:04.966Z</time></trkpt><trkpt lat="45.6667356" lon="10.9513342"><ele>1138.0</ele><time>2026-05-02T09:03:05.97Z</time></trkpt><trkpt lat="45.6667147" lon="10.9514834"><ele>1138.0</ele><time>2026-05-02T09:03:07.964Z</time></trkpt><trkpt lat="45.6666197" lon="10.9515384"><ele>1138.0</ele><time>2026-05-02T09:03:09.964Z</time></trkpt><trkpt lat="45.6665512" lon="10.9515432"><ele>1138.0</ele><time>2026-05-02T09:03:10.963Z</time></trkpt><trkpt lat="45.6664677" lon="10.9515316"><ele>1138.0</ele><time>2026-05-02T09:03:11.968Z</time></trkpt><trkpt lat="45.6663663" lon="10.9515371"><ele>1138.0</ele><time>2026-05-02T09:03:12.961Z</time></trkpt><trkpt lat="45.6662672" lon="10.9515477"><ele>1138.0</ele><time>2026-05-02T09:03:13.963Z</time></trkpt><trkpt lat="45.6661692" lon="10.9515887"><ele>1138.0</ele><time>2026-05-02T09:03:14.967Z</time></trkpt><trkpt lat="45.6660699" lon="10.9516393"><ele>1138.0</ele><time>2026-05-02T09:03:15.957Z</time></trkpt><trkpt lat="45.6659769" lon="10.9516829"><ele>1138.0</ele><time>2026-05-02T09:03:16.964Z</time></trkpt><trkpt lat="45.6658754" lon="10.9517301"><ele>1139.8</ele><time>2026-05-02T09:03:18.025Z</time></trkpt><trkpt lat="45.665777" lon="10.9517928"><ele>1141.6</ele><time>2026-05-02T09:03:18.97Z</time></trkpt><trkpt lat="45.6656894" lon="10.951833"><ele>1143.4</ele><time>2026-05-02T09:03:19.962Z</time></trkpt><trkpt lat="45.6656064" lon="10.9518742"><ele>1145.2</ele><time>2026-05-02T09:03:20.961Z</time></trkpt><trkpt lat="45.6655293" lon="10.9519336"><ele>1147.0</ele><time>2026-05-02T09:03:21.971Z</time></trkpt><trkpt lat="45.6654639" lon="10.9520094"><ele>1147.0</ele><time>2026-05-02T09:03:22.964Z</time></trkpt><trkpt lat="45.6654019" lon="10.9521028"><ele>1147.0</ele><time>2026-05-02T09:03:23.967Z</time></trkpt><trkpt lat="45.6653508" lon="10.9522083"><ele>1147.0</ele><time>2026-05-02T09:03:24.991Z</time></trkpt><trkpt lat="45.6652948" lon="10.9523247"><ele>1147.0</ele><time>2026-05-02T09:03:25.957Z</time></trkpt><trkpt lat="45.6652487" lon="10.9524467"><ele>1147.0</ele><time>2026-05-02T09:03:26.955Z</time></trkpt><trkpt lat="45.6652123" lon="10.9525734"><ele>1145.6</ele><time>2026-05-02T09:03:27.966Z</time></trkpt><trkpt lat="45.6651852" lon="10.9527045"><ele>1144.2</ele><time>2026-05-02T09:03:28.964Z</time></trkpt><trkpt lat="45.6651548" lon="10.9528317"><ele>1142.8</ele><time>2026-05-02T09:03:29.963Z</time></trkpt><trkpt lat="45.6651129" lon="10.9529564"><ele>1141.4</ele><time>2026-05-02T09:03:30.968Z</time></trkpt><trkpt lat="45.665055" lon="10.9530781"><ele>1140.0</ele><time>2026-05-02T09:03:31.965Z</time></trkpt><trkpt lat="45.6650004" lon="10.9531868"><ele>1140.0</ele><time>2026-05-02T09:03:33.039Z</time></trkpt><trkpt lat="45.6649541" lon="10.953264"><ele>1140.0</ele><time>2026-05-02T09:03:34.024Z</time></trkpt><trkpt lat="45.6648784" lon="10.9533741"><ele>1140.0</ele><time>2026-05-02T09:03:35.965Z</time></trkpt><trkpt lat="45.6648178" lon="10.9534761"><ele>1140.0</ele><time>2026-05-02T09:03:37.962Z</time></trkpt><trkpt lat="45.6647583" lon="10.9535766"><ele>1140.0</ele><time>2026-05-02T09:03:39.967Z</time></trkpt><trkpt lat="45.6647064" lon="10.9536845"><ele>1141.8333333333333</ele><time>2026-05-02T09:03:41.971Z</time></trkpt><trkpt lat="45.6646611" lon="10.9538188"><ele>1143.6666666666667</ele><time>2026-05-02T09:03:43.956Z</time></trkpt><trkpt lat="45.6646282" lon="10.9539029"><ele>1145.5</ele><time>2026-05-02T09:03:44.975Z</time></trkpt><trkpt lat="45.6645838" lon="10.9539917"><ele>1147.3333333333335</ele><time>2026-05-02T09:03:45.96Z</time></trkpt><trkpt lat="45.664533" lon="10.954085"><ele>1149.1666666666667</ele><time>2026-05-02T09:03:46.962Z</time></trkpt><trkpt lat="45.664476" lon="10.9541676"><ele>1151.0</ele><time>2026-05-02T09:03:47.965Z</time></trkpt><trkpt lat="45.6644205" lon="10.9542424"><ele>1151.0</ele><time>2026-05-02T09:03:48.964Z</time></trkpt><trkpt lat="45.664358" lon="10.9543244"><ele>1151.0</ele><time>2026-05-02T09:03:49.961Z</time></trkpt><trkpt lat="45.66429" lon="10.9544036"><ele>1151.0</ele><time>2026-05-02T09:03:50.961Z</time></trkpt><trkpt lat="45.664214" lon="10.9545051"><ele>1151.0</ele><time>2026-05-02T09:03:51.958Z</time></trkpt><trkpt lat="45.6641326" lon="10.9546097"><ele>1151.0</ele><time>2026-05-02T09:03:52.959Z</time></trkpt><trkpt lat="45.6640598" lon="10.9547075"><ele>1151.0</ele><time>2026-05-02T09:03:53.962Z</time></trkpt><trkpt lat="45.663996" lon="10.954828"><ele>1151.0</ele><time>2026-05-02T09:03:54.957Z</time></trkpt><trkpt lat="45.6639342" lon="10.9549403"><ele>1151.0</ele><time>2026-05-02T09:03:55.959Z</time></trkpt><trkpt lat="45.6638899" lon="10.9550451"><ele>1151.0</ele><time>2026-05-02T09:03:56.971Z</time></trkpt><trkpt lat="45.6638477" lon="10.9551581"><ele>1151.0</ele><time>2026-05-02T09:03:57.963Z</time></trkpt><trkpt lat="45.6638066" lon="10.9552764"><ele>1154.0</ele><time>2026-05-02T09:03:59.016Z</time></trkpt><trkpt lat="45.6637727" lon="10.9554038"><ele>1157.0</ele><time>2026-05-02T09:03:59.968Z</time></trkpt><trkpt lat="45.6637466" lon="10.9555268"><ele>1160.0</ele><time>2026-05-02T09:04:00.965Z</time></trkpt><trkpt lat="45.6637314" lon="10.9556672"><ele>1163.0</ele><time>2026-05-02T09:04:01.988Z</time></trkpt><trkpt lat="45.6637117" lon="10.9558206"><ele>1166.0</ele><time>2026-05-02T09:04:03.018Z</time></trkpt><trkpt lat="45.6636713" lon="10.9559631"><ele>1168.8</ele><time>2026-05-02T09:04:04.034Z</time></trkpt><trkpt lat="45.6636284" lon="10.9560973"><ele>1171.6</ele><time>2026-05-02T09:04:04.966Z</time></trkpt><trkpt lat="45.6635772" lon="10.9562354"><ele>1174.4</ele><time>2026-05-02T09:04:05.961Z</time></trkpt><trkpt lat="45.6635236" lon="10.9563625"><ele>1177.2</ele><time>2026-05-02T09:04:06.979Z</time></trkpt><trkpt lat="45.663476" lon="10.9564925"><ele>1180.0</ele><time>2026-05-02T09:04:08.017Z</time></trkpt><trkpt lat="45.6634317" lon="10.9566174"><ele>1176.8333333333333</ele><time>2026-05-02T09:04:09.033Z</time></trkpt><trkpt lat="45.6633891" lon="10.9567289"><ele>1173.6666666666665</ele><time>2026-05-02T09:04:09.969Z</time></trkpt><trkpt lat="45.6633427" lon="10.9568359"><ele>1170.5</ele><time>2026-05-02T09:04:10.979Z</time></trkpt><trkpt lat="45.6632934" lon="10.9569395"><ele>1167.3333333333333</ele><time>2026-05-02T09:04:11.989Z</time></trkpt><trkpt lat="45.6632279" lon="10.9570288"><ele>1164.1666666666667</ele><time>2026-05-02T09:04:12.976Z</time></trkpt><trkpt lat="45.6631532" lon="10.9570996"><ele>1161.0</ele><time>2026-05-02T09:04:13.985Z</time></trkpt><trkpt lat="45.6630836" lon="10.957147"><ele>1161.0</ele><time>2026-05-02T09:04:14.982Z</time></trkpt><trkpt lat="45.6630251" lon="10.9571831"><ele>1161.0</ele><time>2026-05-02T09:04:15.976Z</time></trkpt><trkpt lat="45.6629577" lon="10.9572867"><ele>1161.0</ele><time>2026-05-02T09:04:17.976Z</time></trkpt><trkpt lat="45.6629395" lon="10.9573987"><ele>1161.0</ele><time>2026-05-02T09:04:19.974Z</time></trkpt><trkpt lat="45.6629174" lon="10.9575085"><ele>1161.0</ele><time>2026-05-02T09:04:22.974Z</time></trkpt><trkpt lat="45.6629037" lon="10.957601"><ele>1161.0</ele><time>2026-05-02T09:04:25.973Z</time></trkpt><trkpt lat="45.6629402" lon="10.957711"><ele>1162.2</ele><time>2026-05-02T09:04:27.971Z</time></trkpt><trkpt lat="45.6629701" lon="10.9578352"><ele>1163.3999999999999</ele><time>2026-05-02T09:04:29.97Z</time></trkpt><trkpt lat="45.6629861" lon="10.9579671"><ele>1164.6</ele><time>2026-05-02T09:04:31.971Z</time></trkpt><trkpt lat="45.6629885" lon="10.958112"><ele>1165.8</ele><time>2026-05-02T09:04:34.036Z</time></trkpt><trkpt lat="45.6629828" lon="10.9582713"><ele>1167.0</ele><time>2026-05-02T09:04:35.98Z</time></trkpt><trkpt lat="45.6629584" lon="10.9584399"><ele>1167.8333333333333</ele><time>2026-05-02T09:04:37.995Z</time></trkpt><trkpt lat="45.6629409" lon="10.958537"><ele>1168.6666666666667</ele><time>2026-05-02T09:04:38.992Z</time></trkpt><trkpt lat="45.6629204" lon="10.9587034"><ele>1169.5</ele><time>2026-05-02T09:04:40.976Z</time></trkpt><trkpt lat="45.6629114" lon="10.9587988"><ele>1170.3333333333335</ele><time>2026-05-02T09:04:41.972Z</time></trkpt><trkpt lat="45.6628901" lon="10.9588955"><ele>1171.1666666666667</ele><time>2026-05-02T09:04:42.975Z</time></trkpt><trkpt lat="45.662868" lon="10.9589802"><ele>1172.0</ele><time>2026-05-02T09:04:43.981Z</time></trkpt><trkpt lat="45.6628482" lon="10.9590726"><ele>1172.6</ele><time>2026-05-02T09:04:44.978Z</time></trkpt><trkpt lat="45.6628133" lon="10.9592464"><ele>1173.2</ele><time>2026-05-02T09:04:46.981Z</time></trkpt><trkpt lat="45.6627845" lon="10.9594226"><ele>1173.8</ele><time>2026-05-02T09:04:48.976Z</time></trkpt><trkpt lat="45.6627695" lon="10.9595186"><ele>1174.4</ele><time>2026-05-02T09:04:49.977Z</time></trkpt><trkpt lat="45.6627557" lon="10.9596257"><ele>1175.0</ele><time>2026-05-02T09:04:50.976Z</time></trkpt><trkpt lat="45.6627384" lon="10.9597453"><ele>1168.1666666666667</ele><time>2026-05-02T09:04:51.972Z</time></trkpt><trkpt lat="45.662731" lon="10.9598613"><ele>1161.3333333333335</ele><time>2026-05-02T09:04:52.964Z</time></trkpt><trkpt lat="45.6627321" lon="10.9599735"><ele>1154.5</ele><time>2026-05-02T09:04:53.964Z</time></trkpt><trkpt lat="45.6627334" lon="10.9600763"><ele>1147.6666666666667</ele><time>2026-05-02T09:04:54.979Z</time></trkpt><trkpt lat="45.662732" lon="10.9601975"><ele>1140.8333333333333</ele><time>2026-05-02T09:04:55.985Z</time></trkpt><trkpt lat="45.6627247" lon="10.9603189"><ele>1134.0</ele><time>2026-05-02T09:04:56.977Z</time></trkpt><trkpt lat="45.662725" lon="10.9604391"><ele>1133.6666666666667</ele><time>2026-05-02T09:04:57.975Z</time></trkpt><trkpt lat="45.6627277" lon="10.9605516"><ele>1133.3333333333333</ele><time>2026-05-02T09:04:58.969Z</time></trkpt><trkpt lat="45.6627272" lon="10.9606745"><ele>1133.0</ele><time>2026-05-02T09:04:59.975Z</time></trkpt><trkpt lat="45.6627177" lon="10.960798"><ele>1132.6666666666665</ele><time>2026-05-02T09:05:00.979Z</time></trkpt><trkpt lat="45.6627158" lon="10.9609221"><ele>1132.3333333333333</ele><time>2026-05-02T09:05:01.985Z</time></trkpt><trkpt lat="45.6627072" lon="10.9610316"><ele>1132.0</ele><time>2026-05-02T09:05:02.983Z</time></trkpt><trkpt lat="45.6627028" lon="10.961134"><ele>1132.5714285714287</ele><time>2026-05-02T09:05:03.971Z</time></trkpt><trkpt lat="45.6626975" lon="10.9612366"><ele>1133.1428571428573</ele><time>2026-05-02T09:05:04.971Z</time></trkpt><trkpt lat="45.6626894" lon="10.961341"><ele>1133.7142857142858</ele><time>2026-05-02T09:05:05.98Z</time></trkpt><trkpt lat="45.6626867" lon="10.9614447"><ele>1134.2857142857142</ele><time>2026-05-02T09:05:06.983Z</time></trkpt><trkpt lat="45.6626838" lon="10.9615545"><ele>1134.8571428571427</ele><time>2026-05-02T09:05:07.978Z</time></trkpt><trkpt lat="45.6626809" lon="10.9616603"><ele>1135.4285714285713</ele><time>2026-05-02T09:05:08.978Z</time></trkpt><trkpt lat="45.6626785" lon="10.9617602"><ele>1136.0</ele><time>2026-05-02T09:05:09.985Z</time></trkpt><trkpt lat="45.6626735" lon="10.961878"><ele>1136.1666666666667</ele><time>2026-05-02T09:05:10.98Z</time></trkpt><trkpt lat="45.6626675" lon="10.9620081"><ele>1136.3333333333335</ele><time>2026-05-02T09:05:11.979Z</time></trkpt><trkpt lat="45.6626558" lon="10.9621349"><ele>1136.5</ele><time>2026-05-02T09:05:12.978Z</time></trkpt><trkpt lat="45.6626511" lon="10.9622504"><ele>1136.6666666666667</ele><time>2026-05-02T09:05:13.986Z</time></trkpt><trkpt lat="45.6626406" lon="10.96236"><ele>1136.8333333333333</ele><time>2026-05-02T09:05:14.977Z</time></trkpt><trkpt lat="45.6626215" lon="10.9624804"><ele>1137.0</ele><time>2026-05-02T09:05:15.987Z</time></trkpt><trkpt lat="45.6625943" lon="10.9626135"><ele>1137.2</ele><time>2026-05-02T09:05:16.984Z</time></trkpt><trkpt lat="45.6625672" lon="10.9627577"><ele>1137.4</ele><time>2026-05-02T09:05:17.968Z</time></trkpt><trkpt lat="45.6625423" lon="10.9629022"><ele>1137.6</ele><time>2026-05-02T09:05:18.975Z</time></trkpt><trkpt lat="45.6625172" lon="10.9630377"><ele>1137.8</ele><time>2026-05-02T09:05:19.98Z</time></trkpt><trkpt lat="45.6625033" lon="10.9631664"><ele>1138.0</ele><time>2026-05-02T09:05:20.98Z</time></trkpt><trkpt lat="45.6624907" lon="10.9632852"><ele>1137.6666666666665</ele><time>2026-05-02T09:05:21.971Z</time></trkpt><trkpt lat="45.6624781" lon="10.9633874"><ele>1137.3333333333333</ele><time>2026-05-02T09:05:22.978Z</time></trkpt><trkpt lat="45.6624716" lon="10.9634777"><ele>1137.0</ele><time>2026-05-02T09:05:23.977Z</time></trkpt><trkpt lat="45.6624518" lon="10.9636516"><ele>1136.6666666666667</ele><time>2026-05-02T09:05:25.971Z</time></trkpt><trkpt lat="45.6624283" lon="10.9637513"><ele>1136.3333333333335</ele><time>2026-05-02T09:05:26.987Z</time></trkpt><trkpt lat="45.6624095" lon="10.9638469"><ele>1136.0</ele><time>2026-05-02T09:05:27.975Z</time></trkpt><trkpt lat="45.6623905" lon="10.9639365"><ele>1136.0</ele><time>2026-05-02T09:05:28.977Z</time></trkpt><trkpt lat="45.6623705" lon="10.9640227"><ele>1136.0</ele><time>2026-05-02T09:05:29.983Z</time></trkpt><trkpt lat="45.6623431" lon="10.9641059"><ele>1136.0</ele><time>2026-05-02T09:05:30.978Z</time></trkpt><trkpt lat="45.6623095" lon="10.9641985"><ele>1136.0</ele><time>2026-05-02T09:05:31.985Z</time></trkpt><trkpt lat="45.6622859" lon="10.9643025"><ele>1136.0</ele><time>2026-05-02T09:05:32.98Z</time></trkpt><trkpt lat="45.662263" lon="10.9643959"><ele>1136.0</ele><time>2026-05-02T09:05:33.991Z</time></trkpt><trkpt lat="45.6622482" lon="10.9644918"><ele>1136.0</ele><time>2026-05-02T09:05:34.98Z</time></trkpt><trkpt lat="45.6622598" lon="10.9645856"><ele>1135.0</ele><time>2026-05-02T09:05:35.982Z</time></trkpt><trkpt lat="45.6622915" lon="10.9646768"><ele>1134.0</ele><time>2026-05-02T09:05:36.97Z</time></trkpt><trkpt lat="45.6623298" lon="10.9647641"><ele>1133.0</ele><time>2026-05-02T09:05:37.978Z</time></trkpt><trkpt lat="45.6623703" lon="10.9648471"><ele>1132.0</ele><time>2026-05-02T09:05:38.983Z</time></trkpt><trkpt lat="45.6624509" lon="10.9649775"><ele>1131.0</ele><time>2026-05-02T09:05:40.979Z</time></trkpt><trkpt lat="45.6625381" lon="10.9650979"><ele>1129.5714285714287</ele><time>2026-05-02T09:05:42.976Z</time></trkpt><trkpt lat="45.6625781" lon="10.9651695"><ele>1128.142857142857</ele><time>2026-05-02T09:05:43.971Z</time></trkpt><trkpt lat="45.6626186" lon="10.9652488"><ele>1126.7142857142858</ele><time>2026-05-02T09:05:44.972Z</time></trkpt><trkpt lat="45.6626527" lon="10.9653297"><ele>1125.2857142857142</ele><time>2026-05-02T09:05:45.987Z</time></trkpt><trkpt lat="45.6626897" lon="10.9654186"><ele>1123.857142857143</ele><time>2026-05-02T09:05:46.97Z</time></trkpt><trkpt lat="45.6627264" lon="10.9655187"><ele>1122.4285714285716</ele><time>2026-05-02T09:05:47.98Z</time></trkpt><trkpt lat="45.6627649" lon="10.9656362"><ele>1121.0</ele><time>2026-05-02T09:05:48.975Z</time></trkpt><trkpt lat="45.6627829" lon="10.9657471"><ele>1124.0</ele><time>2026-05-02T09:05:49.974Z</time></trkpt><trkpt lat="45.6627956" lon="10.9658591"><ele>1127.0</ele><time>2026-05-02T09:05:50.977Z</time></trkpt><trkpt lat="45.6628072" lon="10.9659652"><ele>1130.0</ele><time>2026-05-02T09:05:51.974Z</time></trkpt><trkpt lat="45.6628091" lon="10.9660745"><ele>1133.0</ele><time>2026-05-02T09:05:52.973Z</time></trkpt><trkpt lat="45.6628041" lon="10.9661937"><ele>1136.0</ele><time>2026-05-02T09:05:53.972Z</time></trkpt><trkpt lat="45.6627954" lon="10.9662871"><ele>1139.0</ele><time>2026-05-02T09:05:54.976Z</time></trkpt><trkpt lat="45.6628492" lon="10.9664568"><ele>1139.0</ele><time>2026-05-02T09:05:56.969Z</time></trkpt><trkpt lat="45.6628444" lon="10.9666229"><ele>1139.0</ele><time>2026-05-02T09:05:58.976Z</time></trkpt><trkpt lat="45.6627428" lon="10.9667067"><ele>1139.0</ele><time>2026-05-02T09:06:00.976Z</time></trkpt><trkpt lat="45.6626746" lon="10.9667177"><ele>1139.0</ele><time>2026-05-02T09:06:01.964Z</time></trkpt><trkpt lat="45.6626047" lon="10.9667393"><ele>1139.0</ele><time>2026-05-02T09:06:02.989Z</time></trkpt><trkpt lat="45.662546" lon="10.9667898"><ele>1139.0</ele><time>2026-05-02T09:06:03.981Z</time></trkpt><trkpt lat="45.6624799" lon="10.9668126"><ele>1140.4</ele><time>2026-05-02T09:06:04.982Z</time></trkpt><trkpt lat="45.6624144" lon="10.9668234"><ele>1141.8000000000002</ele><time>2026-05-02T09:06:05.986Z</time></trkpt><trkpt lat="45.6623252" lon="10.9667895"><ele>1143.1999999999998</ele><time>2026-05-02T09:06:06.989Z</time></trkpt><trkpt lat="45.6622199" lon="10.9667479"><ele>1144.6</ele><time>2026-05-02T09:06:07.975Z</time></trkpt><trkpt lat="45.6621136" lon="10.9667506"><ele>1146.0</ele><time>2026-05-02T09:06:08.984Z</time></trkpt><trkpt lat="45.6620185" lon="10.96674"><ele>1144.8</ele><time>2026-05-02T09:06:09.977Z</time></trkpt><trkpt lat="45.6619218" lon="10.9667183"><ele>1143.6</ele><time>2026-05-02T09:06:10.974Z</time></trkpt><trkpt lat="45.6618243" lon="10.966697"><ele>1142.4</ele><time>2026-05-02T09:06:11.975Z</time></trkpt><trkpt lat="45.661734" lon="10.9666646"><ele>1141.2</ele><time>2026-05-02T09:06:12.981Z</time></trkpt><trkpt lat="45.6616514" lon="10.9666379"><ele>1140.0</ele><time>2026-05-02T09:06:13.976Z</time></trkpt><trkpt lat="45.661563" lon="10.9666255"><ele>1140.0</ele><time>2026-05-02T09:06:14.973Z</time></trkpt><trkpt lat="45.6614677" lon="10.9666196"><ele>1140.0</ele><time>2026-05-02T09:06:15.982Z</time></trkpt><trkpt lat="45.6613842" lon="10.9666234"><ele>1140.0</ele><time>2026-05-02T09:06:16.993Z</time></trkpt><trkpt lat="45.6613073" lon="10.9666372"><ele>1140.0</ele><time>2026-05-02T09:06:17.976Z</time></trkpt><trkpt lat="45.6612269" lon="10.9666623"><ele>1140.0</ele><time>2026-05-02T09:06:18.977Z</time></trkpt><trkpt lat="45.6611547" lon="10.9667063"><ele>1140.0</ele><time>2026-05-02T09:06:19.975Z</time></trkpt><trkpt lat="45.661082" lon="10.9667606"><ele>1139.0</ele><time>2026-05-02T09:06:20.978Z</time></trkpt><trkpt lat="45.661013" lon="10.9668169"><ele>1138.0</ele><time>2026-05-02T09:06:21.974Z</time></trkpt><trkpt lat="45.6609466" lon="10.9668881"><ele>1137.0</ele><time>2026-05-02T09:06:22.977Z</time></trkpt><trkpt lat="45.6608774" lon="10.9669576"><ele>1136.0</ele><time>2026-05-02T09:06:23.983Z</time></trkpt><trkpt lat="45.6608103" lon="10.9670213"><ele>1135.0</ele><time>2026-05-02T09:06:24.979Z</time></trkpt><trkpt lat="45.6607623" lon="10.9670907"><ele>1134.0</ele><time>2026-05-02T09:06:25.977Z</time></trkpt><trkpt lat="45.6607306" lon="10.9671899"><ele>1134.0</ele><time>2026-05-02T09:06:27.955Z</time></trkpt><trkpt lat="45.6608422" lon="10.9672633"><ele>1134.0</ele><time>2026-05-02T09:06:30.981Z</time></trkpt><trkpt lat="45.6609215" lon="10.9672885"><ele>1134.0</ele><time>2026-05-02T09:06:31.988Z</time></trkpt><trkpt lat="45.6610041" lon="10.9673332"><ele>1134.0</ele><time>2026-05-02T09:06:32.975Z</time></trkpt><trkpt lat="45.661083" lon="10.9673854"><ele>1134.0</ele><time>2026-05-02T09:06:33.981Z</time></trkpt><trkpt lat="45.6611614" lon="10.9674419"><ele>1135.2</ele><time>2026-05-02T09:06:34.981Z</time></trkpt><trkpt lat="45.6612444" lon="10.9674947"><ele>1136.4</ele><time>2026-05-02T09:06:35.968Z</time></trkpt><trkpt lat="45.6613238" lon="10.9675553"><ele>1137.6</ele><time>2026-05-02T09:06:36.963Z</time></trkpt><trkpt lat="45.6614037" lon="10.9676209"><ele>1138.8</ele><time>2026-05-02T09:06:37.973Z</time></trkpt><trkpt lat="45.6614864" lon="10.9676882"><ele>1140.0</ele><time>2026-05-02T09:06:38.96Z</time></trkpt><trkpt lat="45.661567" lon="10.9677553"><ele>1140.0</ele><time>2026-05-02T09:06:39.967Z</time></trkpt><trkpt lat="45.6616535" lon="10.9678161"><ele>1140.0</ele><time>2026-05-02T09:06:40.974Z</time></trkpt><trkpt lat="45.6617456" lon="10.9678716"><ele>1140.0</ele><time>2026-05-02T09:06:41.973Z</time></trkpt><trkpt lat="45.6618394" lon="10.9679295"><ele>1140.0</ele><time>2026-05-02T09:06:42.98Z</time></trkpt><trkpt lat="45.6619347" lon="10.9679875"><ele>1140.0</ele><time>2026-05-02T09:06:43.98Z</time></trkpt><trkpt lat="45.6620259" lon="10.9680458"><ele>1141.2</ele><time>2026-05-02T09:06:44.976Z</time></trkpt><trkpt lat="45.6621227" lon="10.9681161"><ele>1142.4</ele><time>2026-05-02T09:06:45.984Z</time></trkpt><trkpt lat="45.6622097" lon="10.9681922"><ele>1143.6</ele><time>2026-05-02T09:06:46.961Z</time></trkpt><trkpt lat="45.6622991" lon="10.9682777"><ele>1144.8</ele><time>2026-05-02T09:06:47.963Z</time></trkpt><trkpt lat="45.6623835" lon="10.9683564"><ele>1146.0</ele><time>2026-05-02T09:06:48.972Z</time></trkpt><trkpt lat="45.6624701" lon="10.9684473"><ele>1146.0</ele><time>2026-05-02T09:06:49.975Z</time></trkpt><trkpt lat="45.6625565" lon="10.968538"><ele>1146.0</ele><time>2026-05-02T09:06:50.976Z</time></trkpt><trkpt lat="45.6626429" lon="10.9686328"><ele>1146.0</ele><time>2026-05-02T09:06:51.976Z</time></trkpt><trkpt lat="45.6627278" lon="10.9687339"><ele>1146.0</ele><time>2026-05-02T09:06:52.993Z</time></trkpt><trkpt lat="45.6628117" lon="10.9688255"><ele>1146.0</ele><time>2026-05-02T09:06:53.977Z</time></trkpt><trkpt lat="45.6628947" lon="10.9689073"><ele>1151.3999999999999</ele><time>2026-05-02T09:06:54.974Z</time></trkpt><trkpt lat="45.6629743" lon="10.9689789"><ele>1156.8</ele><time>2026-05-02T09:06:55.971Z</time></trkpt><trkpt lat="45.6630486" lon="10.969062"><ele>1162.1999999999998</ele><time>2026-05-02T09:06:56.973Z</time></trkpt><trkpt lat="45.6631114" lon="10.9691616"><ele>1167.6</ele><time>2026-05-02T09:06:57.974Z</time></trkpt><trkpt lat="45.6631722" lon="10.9692642"><ele>1173.0</ele><time>2026-05-02T09:06:58.976Z</time></trkpt><trkpt lat="45.6632255" lon="10.9693638"><ele>1173.0</ele><time>2026-05-02T09:06:59.977Z</time></trkpt><trkpt lat="45.6632716" lon="10.9694676"><ele>1173.0</ele><time>2026-05-02T09:07:00.968Z</time></trkpt><trkpt lat="45.6633085" lon="10.9695581"><ele>1173.0</ele><time>2026-05-02T09:07:01.981Z</time></trkpt><trkpt lat="45.6633348" lon="10.9696456"><ele>1173.0</ele><time>2026-05-02T09:07:02.978Z</time></trkpt><trkpt lat="45.6633607" lon="10.9697356"><ele>1173.0</ele><time>2026-05-02T09:07:03.979Z</time></trkpt><trkpt lat="45.6633926" lon="10.9699137"><ele>1173.0</ele><time>2026-05-02T09:07:05.974Z</time></trkpt><trkpt lat="45.6634179" lon="10.970017"><ele>1175.1666666666667</ele><time>2026-05-02T09:07:06.978Z</time></trkpt><trkpt lat="45.6634531" lon="10.9701197"><ele>1177.3333333333333</ele><time>2026-05-02T09:07:07.974Z</time></trkpt><trkpt lat="45.6635013" lon="10.9702157"><ele>1179.5</ele><time>2026-05-02T09:07:08.975Z</time></trkpt><trkpt lat="45.6635374" lon="10.9703256"><ele>1181.6666666666665</ele><time>2026-05-02T09:07:09.98Z</time></trkpt><trkpt lat="45.6635257" lon="10.9704275"><ele>1183.8333333333333</ele><time>2026-05-02T09:07:10.979Z</time></trkpt><trkpt lat="45.6634636" lon="10.9705107"><ele>1186.0</ele><time>2026-05-02T09:07:11.98Z</time></trkpt><trkpt lat="45.6633882" lon="10.9705784"><ele>1186.0</ele><time>2026-05-02T09:07:12.977Z</time></trkpt><trkpt lat="45.6632966" lon="10.9706173"><ele>1186.0</ele><time>2026-05-02T09:07:13.98Z</time></trkpt><trkpt lat="45.6631958" lon="10.9706745"><ele>1186.0</ele><time>2026-05-02T09:07:14.984Z</time></trkpt><trkpt lat="45.6630918" lon="10.9707405"><ele>1186.0</ele><time>2026-05-02T09:07:15.972Z</time></trkpt><trkpt lat="45.6629794" lon="10.9708203"><ele>1186.0</ele><time>2026-05-02T09:07:16.968Z</time></trkpt><trkpt lat="45.6628749" lon="10.9709078"><ele>1188.25</ele><time>2026-05-02T09:07:17.967Z</time></trkpt><trkpt lat="45.6627813" lon="10.9710144"><ele>1190.5</ele><time>2026-05-02T09:07:18.976Z</time></trkpt><trkpt lat="45.6626926" lon="10.9711339"><ele>1192.75</ele><time>2026-05-02T09:07:19.977Z</time></trkpt><trkpt lat="45.6626099" lon="10.9712511"><ele>1195.0</ele><time>2026-05-02T09:07:20.969Z</time></trkpt><trkpt lat="45.6625266" lon="10.9713712"><ele>1195.0</ele><time>2026-05-02T09:07:21.976Z</time></trkpt><trkpt lat="45.6624362" lon="10.9714883"><ele>1195.0</ele><time>2026-05-02T09:07:22.979Z</time></trkpt><trkpt lat="45.6623336" lon="10.9715862"><ele>1195.0</ele><time>2026-05-02T09:07:23.981Z</time></trkpt><trkpt lat="45.6622333" lon="10.9716691"><ele>1195.0</ele><time>2026-05-02T09:07:24.977Z</time></trkpt><trkpt lat="45.6621374" lon="10.9717627"><ele>1199.75</ele><time>2026-05-02T09:07:25.969Z</time></trkpt><trkpt lat="45.6620482" lon="10.9718604"><ele>1204.5</ele><time>2026-05-02T09:07:26.971Z</time></trkpt><trkpt lat="45.6619543" lon="10.9719602"><ele>1209.25</ele><time>2026-05-02T09:07:27.975Z</time></trkpt><trkpt lat="45.6618635" lon="10.9720615"><ele>1214.0</ele><time>2026-05-02T09:07:28.977Z</time></trkpt><trkpt lat="45.661764" lon="10.9721606"><ele>1214.0</ele><time>2026-05-02T09:07:29.969Z</time></trkpt><trkpt lat="45.6616624" lon="10.9722399"><ele>1214.0</ele><time>2026-05-02T09:07:30.974Z</time></trkpt><trkpt lat="45.6615465" lon="10.9723051"><ele>1214.0</ele><time>2026-05-02T09:07:31.972Z</time></trkpt><trkpt lat="45.6614345" lon="10.9723826"><ele>1214.0</ele><time>2026-05-02T09:07:32.968Z</time></trkpt><trkpt lat="45.6613294" lon="10.9724771"><ele>1216.25</ele><time>2026-05-02T09:07:33.98Z</time></trkpt><trkpt lat="45.6612235" lon="10.9725829"><ele>1218.5</ele><time>2026-05-02T09:07:34.989Z</time></trkpt><trkpt lat="45.6611236" lon="10.9727042"><ele>1220.75</ele><time>2026-05-02T09:07:35.98Z</time></trkpt><trkpt lat="45.6610227" lon="10.9728404"><ele>1223.0</ele><time>2026-05-02T09:07:36.985Z</time></trkpt><trkpt lat="45.6609242" lon="10.9729784"><ele>1223.0</ele><time>2026-05-02T09:07:37.982Z</time></trkpt><trkpt lat="45.660817" lon="10.9731111"><ele>1223.0</ele><time>2026-05-02T09:07:38.975Z</time></trkpt><trkpt lat="45.6607065" lon="10.9732249"><ele>1223.0</ele><time>2026-05-02T09:07:39.978Z</time></trkpt><trkpt lat="45.6605909" lon="10.9733361"><ele>1223.0</ele><time>2026-05-02T09:07:40.985Z</time></trkpt><trkpt lat="45.6604819" lon="10.9734509"><ele>1222.0</ele><time>2026-05-02T09:07:41.981Z</time></trkpt><trkpt lat="45.6603784" lon="10.97356"><ele>1221.0</ele><time>2026-05-02T09:07:42.963Z</time></trkpt><trkpt lat="45.6602806" lon="10.9736659"><ele>1220.0</ele><time>2026-05-02T09:07:43.968Z</time></trkpt><trkpt lat="45.6601838" lon="10.9737699"><ele>1219.0</ele><time>2026-05-02T09:07:44.971Z</time></trkpt><trkpt lat="45.6601012" lon="10.9738899"><ele>1219.0</ele><time>2026-05-02T09:07:45.975Z</time></trkpt><trkpt lat="45.660023" lon="10.9740186"><ele>1219.0</ele><time>2026-05-02T09:07:46.979Z</time></trkpt><trkpt lat="45.6599655" lon="10.9741558"><ele>1219.0</ele><time>2026-05-02T09:07:47.976Z</time></trkpt><trkpt lat="45.6599078" lon="10.9742988"><ele>1219.0</ele><time>2026-05-02T09:07:48.975Z</time></trkpt><trkpt lat="45.6598627" lon="10.9744452"><ele>1220.0</ele><time>2026-05-02T09:07:49.976Z</time></trkpt><trkpt lat="45.6598193" lon="10.9745795"><ele>1221.0</ele><time>2026-05-02T09:07:50.982Z</time></trkpt><trkpt lat="45.6597802" lon="10.97471"><ele>1222.0</ele><time>2026-05-02T09:07:51.987Z</time></trkpt><trkpt lat="45.659745" lon="10.9748166"><ele>1223.0</ele><time>2026-05-02T09:07:52.973Z</time></trkpt><trkpt lat="45.6597423" lon="10.9749112"><ele>1224.0</ele><time>2026-05-02T09:07:53.982Z</time></trkpt><trkpt lat="45.6597739" lon="10.9749935"><ele>1225.0</ele><time>2026-05-02T09:07:54.98Z</time></trkpt><trkpt lat="45.6598327" lon="10.9750755"><ele>1225.0</ele><time>2026-05-02T09:07:55.977Z</time></trkpt><trkpt lat="45.6599043" lon="10.9751472"><ele>1225.0</ele><time>2026-05-02T09:07:56.973Z</time></trkpt><trkpt lat="45.6599818" lon="10.9752076"><ele>1225.0</ele><time>2026-05-02T09:07:57.975Z</time></trkpt><trkpt lat="45.6600687" lon="10.9752658"><ele>1225.0</ele><time>2026-05-02T09:07:58.975Z</time></trkpt><trkpt lat="45.6601626" lon="10.9752887"><ele>1225.0</ele><time>2026-05-02T09:07:59.978Z</time></trkpt><trkpt lat="45.6602535" lon="10.9752865"><ele>1231.0</ele><time>2026-05-02T09:08:00.976Z</time></trkpt><trkpt lat="45.6603386" lon="10.9752687"><ele>1237.0</ele><time>2026-05-02T09:08:01.981Z</time></trkpt><trkpt lat="45.6604197" lon="10.9752475"><ele>1243.0</ele><time>2026-05-02T09:08:02.981Z</time></trkpt><trkpt lat="45.6605096" lon="10.9752571"><ele>1249.0</ele><time>2026-05-02T09:08:03.969Z</time></trkpt><trkpt lat="45.6605735" lon="10.9753246"><ele>1255.0</ele><time>2026-05-02T09:08:04.974Z</time></trkpt><trkpt lat="45.660602" lon="10.9754182"><ele>1261.0</ele><time>2026-05-02T09:08:05.978Z</time></trkpt><trkpt lat="45.6606033" lon="10.9755205"><ele>1261.0</ele><time>2026-05-02T09:08:06.978Z</time></trkpt><trkpt lat="45.660591" lon="10.9756263"><ele>1261.0</ele><time>2026-05-02T09:08:07.982Z</time></trkpt><trkpt lat="45.6605513" lon="10.9757368"><ele>1261.0</ele><time>2026-05-02T09:08:08.974Z</time></trkpt><trkpt lat="45.6605077" lon="10.9758085"><ele>1261.0</ele><time>2026-05-02T09:08:09.976Z</time></trkpt><trkpt lat="45.6604751" lon="10.9759412"><ele>1261.0</ele><time>2026-05-02T09:08:11.982Z</time></trkpt><trkpt lat="45.6605173" lon="10.9760206"><ele>1261.0</ele><time>2026-05-02T09:08:12.985Z</time></trkpt><trkpt lat="45.6606422" lon="10.9760216"><ele>1261.0</ele><time>2026-05-02T09:08:14.973Z</time></trkpt><trkpt lat="45.6607082" lon="10.9759475"><ele>1261.0</ele><time>2026-05-02T09:08:15.98Z</time></trkpt><trkpt lat="45.660773" lon="10.9758741"><ele>1261.0</ele><time>2026-05-02T09:08:16.957Z</time></trkpt><trkpt lat="45.6608347" lon="10.9758222"><ele>1261.0</ele><time>2026-05-02T09:08:17.961Z</time></trkpt><trkpt lat="45.6609111" lon="10.9757908"><ele>1261.0</ele><time>2026-05-02T09:08:18.958Z</time></trkpt><trkpt lat="45.6609896" lon="10.9757694"><ele>1261.0</ele><time>2026-05-02T09:08:19.978Z</time></trkpt><trkpt lat="45.6610766" lon="10.9757627"><ele>1265.1999999999998</ele><time>2026-05-02T09:08:20.957Z</time></trkpt><trkpt lat="45.6611667" lon="10.975772"><ele>1269.3999999999999</ele><time>2026-05-02T09:08:21.971Z</time></trkpt><trkpt lat="45.6612573" lon="10.9757946"><ele>1273.6</ele><time>2026-05-02T09:08:22.98Z</time></trkpt><trkpt lat="45.6613553" lon="10.9758221"><ele>1277.8</ele><time>2026-05-02T09:08:23.973Z</time></trkpt><trkpt lat="45.6614571" lon="10.975855"><ele>1282.0</ele><time>2026-05-02T09:08:24.977Z</time></trkpt><trkpt lat="45.6615578" lon="10.9758834"><ele>1283.6</ele><time>2026-05-02T09:08:25.984Z</time></trkpt><trkpt lat="45.6616612" lon="10.9759032"><ele>1285.1999999999998</ele><time>2026-05-02T09:08:26.98Z</time></trkpt><trkpt lat="45.6617565" lon="10.9759319"><ele>1286.8</ele><time>2026-05-02T09:08:27.963Z</time></trkpt><trkpt lat="45.6618431" lon="10.9759616"><ele>1288.4</ele><time>2026-05-02T09:08:28.983Z</time></trkpt><trkpt lat="45.6619108" lon="10.975959"><ele>1290.0</ele><time>2026-05-02T09:08:29.983Z</time></trkpt><trkpt lat="45.6619665" lon="10.9758085"><ele>1291.0</ele><time>2026-05-02T09:08:31.989Z</time></trkpt><trkpt lat="45.6618765" lon="10.9756988"><ele>1292.0</ele><time>2026-05-02T09:08:33.973Z</time></trkpt><trkpt lat="45.6618388" lon="10.9756109"><ele>1293.0</ele><time>2026-05-02T09:08:35.981Z</time></trkpt><trkpt lat="45.6619371" lon="10.9755841"><ele>1294.0</ele><time>2026-05-02T09:08:37.978Z</time></trkpt><trkpt lat="45.6620596" lon="10.97565"><ele>1295.0</ele><time>2026-05-02T09:08:39.986Z</time></trkpt><trkpt lat="45.6621562" lon="10.9756876"><ele>1295.0</ele><time>2026-05-02T09:08:40.984Z</time></trkpt><trkpt lat="45.6622657" lon="10.9757599"><ele>1295.0</ele><time>2026-05-02T09:08:41.987Z</time></trkpt><trkpt lat="45.6623731" lon="10.9758341"><ele>1295.0</ele><time>2026-05-02T09:08:42.98Z</time></trkpt><trkpt lat="45.6624677" lon="10.9759098"><ele>1295.0</ele><time>2026-05-02T09:08:43.977Z</time></trkpt><trkpt lat="45.6625471" lon="10.9760036"><ele>1295.0</ele><time>2026-05-02T09:08:44.984Z</time></trkpt><trkpt lat="45.6626044" lon="10.9761183"><ele>1295.0</ele><time>2026-05-02T09:08:45.975Z</time></trkpt><trkpt lat="45.6626418" lon="10.976254"><ele>1295.0</ele><time>2026-05-02T09:08:46.988Z</time></trkpt><trkpt lat="45.662679" lon="10.9763975"><ele>1295.0</ele><time>2026-05-02T09:08:47.98Z</time></trkpt><trkpt lat="45.6627222" lon="10.97656"><ele>1295.0</ele><time>2026-05-02T09:08:48.975Z</time></trkpt><trkpt lat="45.6627979" lon="10.9767224"><ele>1298.5</ele><time>2026-05-02T09:08:49.978Z</time></trkpt><trkpt lat="45.6628841" lon="10.9768952"><ele>1302.0</ele><time>2026-05-02T09:08:50.969Z</time></trkpt><trkpt lat="45.6629712" lon="10.977037"><ele>1305.5</ele><time>2026-05-02T09:08:51.982Z</time></trkpt><trkpt lat="45.6630502" lon="10.9771706"><ele>1309.0</ele><time>2026-05-02T09:08:52.964Z</time></trkpt><trkpt lat="45.6631178" lon="10.9772912"><ele>1309.0</ele><time>2026-05-02T09:08:53.973Z</time></trkpt><trkpt lat="45.6631861" lon="10.9773968"><ele>1309.0</ele><time>2026-05-02T09:08:54.984Z</time></trkpt><trkpt lat="45.6632742" lon="10.97747"><ele>1309.0</ele><time>2026-05-02T09:08:55.975Z</time></trkpt><trkpt lat="45.6633651" lon="10.9775255"><ele>1309.0</ele><time>2026-05-02T09:08:56.982Z</time></trkpt><trkpt lat="45.6634576" lon="10.9775828"><ele>1309.0</ele><time>2026-05-02T09:08:57.969Z</time></trkpt><trkpt lat="45.6635617" lon="10.9776463"><ele>1311.6</ele><time>2026-05-02T09:08:58.984Z</time></trkpt><trkpt lat="45.6636604" lon="10.977707"><ele>1314.2</ele><time>2026-05-02T09:08:59.981Z</time></trkpt><trkpt lat="45.6637688" lon="10.9777601"><ele>1316.8</ele><time>2026-05-02T09:09:00.985Z</time></trkpt><trkpt lat="45.663866" lon="10.9778048"><ele>1319.3999999999999</ele><time>2026-05-02T09:09:01.983Z</time></trkpt><trkpt lat="45.663948" lon="10.9778458"><ele>1322.0</ele><time>2026-05-02T09:09:02.975Z</time></trkpt><trkpt lat="45.6640343" lon="10.9779778"><ele>1322.0</ele><time>2026-05-02T09:09:04.981Z</time></trkpt><trkpt lat="45.6640725" lon="10.9780701"><ele>1322.0</ele><time>2026-05-02T09:09:05.979Z</time></trkpt><trkpt lat="45.664098" lon="10.9781599"><ele>1322.0</ele><time>2026-05-02T09:09:06.976Z</time></trkpt><trkpt lat="45.6641251" lon="10.9782686"><ele>1322.0</ele><time>2026-05-02T09:09:07.977Z</time></trkpt><trkpt lat="45.6641574" lon="10.9783836"><ele>1322.0</ele><time>2026-05-02T09:09:08.98Z</time></trkpt><trkpt lat="45.6642031" lon="10.9784873"><ele>1322.0</ele><time>2026-05-02T09:09:09.981Z</time></trkpt><trkpt lat="45.6642491" lon="10.9785837"><ele>1321.6666666666667</ele><time>2026-05-02T09:09:10.98Z</time></trkpt><trkpt lat="45.6642944" lon="10.9786763"><ele>1321.3333333333335</ele><time>2026-05-02T09:09:11.974Z</time></trkpt><trkpt lat="45.6643488" lon="10.9787614"><ele>1321.0</ele><time>2026-05-02T09:09:12.977Z</time></trkpt><trkpt lat="45.6643901" lon="10.9788704"><ele>1320.6666666666667</ele><time>2026-05-02T09:09:13.979Z</time></trkpt><trkpt lat="45.6644131" lon="10.9789953"><ele>1320.3333333333333</ele><time>2026-05-02T09:09:14.977Z</time></trkpt><trkpt lat="45.6644365" lon="10.9790819"><ele>1320.0</ele><time>2026-05-02T09:09:15.975Z</time></trkpt><trkpt lat="45.6645017" lon="10.9791599"><ele>1322.8333333333333</ele><time>2026-05-02T09:09:17.981Z</time></trkpt><trkpt lat="45.6645574" lon="10.9791157"><ele>1325.6666666666667</ele><time>2026-05-02T09:09:19.967Z</time></trkpt><trkpt lat="45.664583" lon="10.9789852"><ele>1328.5</ele><time>2026-05-02T09:09:21.977Z</time></trkpt><trkpt lat="45.6645977" lon="10.9788881"><ele>1331.3333333333335</ele><time>2026-05-02T09:09:22.972Z</time></trkpt><trkpt lat="45.6646224" lon="10.9787772"><ele>1334.1666666666667</ele><time>2026-05-02T09:09:23.983Z</time></trkpt><trkpt lat="45.6646633" lon="10.9786829"><ele>1337.0</ele><time>2026-05-02T09:09:24.983Z</time></trkpt><trkpt lat="45.6647107" lon="10.9785329"><ele>1337.0</ele><time>2026-05-02T09:09:26.977Z</time></trkpt><trkpt lat="45.6647696" lon="10.9783867"><ele>1337.0</ele><time>2026-05-02T09:09:28.981Z</time></trkpt><trkpt lat="45.6648497" lon="10.978232"><ele>1337.0</ele><time>2026-05-02T09:09:30.982Z</time></trkpt><trkpt lat="45.6649148" lon="10.9781673"><ele>1337.0</ele><time>2026-05-02T09:09:31.989Z</time></trkpt><trkpt lat="45.6649866" lon="10.9781056"><ele>1337.0</ele><time>2026-05-02T09:09:32.979Z</time></trkpt><trkpt lat="45.6650666" lon="10.9780496"><ele>1337.5</ele><time>2026-05-02T09:09:34.008Z</time></trkpt><trkpt lat="45.6651419" lon="10.9780056"><ele>1338.0</ele><time>2026-05-02T09:09:34.985Z</time></trkpt><trkpt lat="45.6652191" lon="10.9779939"><ele>1338.5</ele><time>2026-05-02T09:09:35.978Z</time></trkpt><trkpt lat="45.6652973" lon="10.9779984"><ele>1339.0</ele><time>2026-05-02T09:09:36.987Z</time></trkpt><trkpt lat="45.6653788" lon="10.9780114"><ele>1339.5</ele><time>2026-05-02T09:09:37.985Z</time></trkpt><trkpt lat="45.665468" lon="10.9780349"><ele>1340.0</ele><time>2026-05-02T09:09:38.984Z</time></trkpt><trkpt lat="45.665559" lon="10.9780846"><ele>1340.8</ele><time>2026-05-02T09:09:39.98Z</time></trkpt><trkpt lat="45.6656585" lon="10.9781448"><ele>1341.6</ele><time>2026-05-02T09:09:40.98Z</time></trkpt><trkpt lat="45.6657511" lon="10.9782198"><ele>1342.4</ele><time>2026-05-02T09:09:41.983Z</time></trkpt><trkpt lat="45.6658406" lon="10.9782951"><ele>1343.2</ele><time>2026-05-02T09:09:42.982Z</time></trkpt><trkpt lat="45.6659427" lon="10.9783615"><ele>1344.0</ele><time>2026-05-02T09:09:43.979Z</time></trkpt><trkpt lat="45.6660575" lon="10.978403"><ele>1345.0</ele><time>2026-05-02T09:09:44.977Z</time></trkpt><trkpt lat="45.6661652" lon="10.9784205"><ele>1346.0</ele><time>2026-05-02T09:09:45.976Z</time></trkpt><trkpt lat="45.666273" lon="10.9784046"><ele>1347.0</ele><time>2026-05-02T09:09:46.982Z</time></trkpt><trkpt lat="45.6663889" lon="10.9783643"><ele>1348.0</ele><time>2026-05-02T09:09:47.978Z</time></trkpt><trkpt lat="45.6664983" lon="10.9783177"><ele>1350.5</ele><time>2026-05-02T09:09:48.974Z</time></trkpt><trkpt lat="45.6666024" lon="10.9782565"><ele>1353.0</ele><time>2026-05-02T09:09:49.975Z</time></trkpt><trkpt lat="45.6667036" lon="10.9781777"><ele>1355.5</ele><time>2026-05-02T09:09:50.986Z</time></trkpt><trkpt lat="45.6667999" lon="10.9780872"><ele>1358.0</ele><time>2026-05-02T09:09:51.975Z</time></trkpt><trkpt lat="45.6668831" lon="10.9779825"><ele>1358.0</ele><time>2026-05-02T09:09:52.979Z</time></trkpt><trkpt lat="45.6669417" lon="10.9778907"><ele>1358.0</ele><time>2026-05-02T09:09:53.974Z</time></trkpt><trkpt lat="45.6669889" lon="10.9778114"><ele>1358.0</ele><time>2026-05-02T09:09:54.988Z</time></trkpt><trkpt lat="45.6670359" lon="10.9777441"><ele>1358.0</ele><time>2026-05-02T09:09:55.979Z</time></trkpt><trkpt lat="45.6671314" lon="10.9776578"><ele>1358.0</ele><time>2026-05-02T09:09:57.99Z</time></trkpt><trkpt lat="45.6672554" lon="10.9776768"><ele>1359.3333333333335</ele><time>2026-05-02T09:09:59.98Z</time></trkpt><trkpt lat="45.6673176" lon="10.9777049"><ele>1360.6666666666667</ele><time>2026-05-02T09:10:00.997Z</time></trkpt><trkpt lat="45.6673821" lon="10.9777269"><ele>1362.0</ele><time>2026-05-02T09:10:01.98Z</time></trkpt><trkpt lat="45.6674627" lon="10.9777385"><ele>1363.3333333333333</ele><time>2026-05-02T09:10:02.985Z</time></trkpt><trkpt lat="45.6675457" lon="10.9777397"><ele>1364.6666666666665</ele><time>2026-05-02T09:10:03.975Z</time></trkpt><trkpt lat="45.6676359" lon="10.9777434"><ele>1366.0</ele><time>2026-05-02T09:10:04.979Z</time></trkpt><trkpt lat="45.6677268" lon="10.9777399"><ele>1366.75</ele><time>2026-05-02T09:10:05.984Z</time></trkpt><trkpt lat="45.667834" lon="10.9777212"><ele>1367.5</ele><time>2026-05-02T09:10:06.994Z</time></trkpt><trkpt lat="45.6679651" lon="10.9776868"><ele>1368.25</ele><time>2026-05-02T09:10:07.975Z</time></trkpt><trkpt lat="45.6681081" lon="10.9776486"><ele>1369.0</ele><time>2026-05-02T09:10:08.983Z</time></trkpt><trkpt lat="45.6682448" lon="10.9776125"><ele>1369.0</ele><time>2026-05-02T09:10:09.979Z</time></trkpt><trkpt lat="45.6683819" lon="10.9775948"><ele>1369.0</ele><time>2026-05-02T09:10:10.986Z</time></trkpt><trkpt lat="45.6685151" lon="10.9775986"><ele>1369.0</ele><time>2026-05-02T09:10:11.977Z</time></trkpt><trkpt lat="45.6686504" lon="10.9776161"><ele>1369.0</ele><time>2026-05-02T09:10:12.98Z</time></trkpt><trkpt lat="45.6687744" lon="10.9776417"><ele>1371.25</ele><time>2026-05-02T09:10:13.971Z</time></trkpt><trkpt lat="45.6689082" lon="10.9776677"><ele>1373.5</ele><time>2026-05-02T09:10:14.977Z</time></trkpt><trkpt lat="45.6690263" lon="10.9777042"><ele>1375.75</ele><time>2026-05-02T09:10:15.975Z</time></trkpt><trkpt lat="45.6691466" lon="10.9777539"><ele>1378.0</ele><time>2026-05-02T09:10:16.977Z</time></trkpt><trkpt lat="45.6692693" lon="10.9777988"><ele>1378.0</ele><time>2026-05-02T09:10:17.981Z</time></trkpt><trkpt lat="45.6693884" lon="10.9778214"><ele>1378.0</ele><time>2026-05-02T09:10:18.98Z</time></trkpt><trkpt lat="45.6695076" lon="10.9778292"><ele>1378.0</ele><time>2026-05-02T09:10:19.967Z</time></trkpt><trkpt lat="45.6696212" lon="10.9778069"><ele>1378.0</ele><time>2026-05-02T09:10:20.981Z</time></trkpt><trkpt lat="45.6697325" lon="10.9777803"><ele>1379.4</ele><time>2026-05-02T09:10:21.97Z</time></trkpt><trkpt lat="45.6698451" lon="10.9777777"><ele>1380.8000000000002</ele><time>2026-05-02T09:10:22.971Z</time></trkpt><trkpt lat="45.6699596" lon="10.9777814"><ele>1382.2</ele><time>2026-05-02T09:10:23.979Z</time></trkpt><trkpt lat="45.6700733" lon="10.9777628"><ele>1383.6</ele><time>2026-05-02T09:10:24.974Z</time></trkpt><trkpt lat="45.670174" lon="10.9777311"><ele>1385.0</ele><time>2026-05-02T09:10:25.985Z</time></trkpt><trkpt lat="45.6702702" lon="10.9777021"><ele>1386.3333333333335</ele><time>2026-05-02T09:10:26.985Z</time></trkpt><trkpt lat="45.6703476" lon="10.9776508"><ele>1387.6666666666667</ele><time>2026-05-02T09:10:27.985Z</time></trkpt><trkpt lat="45.6704125" lon="10.9775845"><ele>1389.0</ele><time>2026-05-02T09:10:28.986Z</time></trkpt><trkpt lat="45.6704687" lon="10.9774893"><ele>1390.3333333333333</ele><time>2026-05-02T09:10:29.985Z</time></trkpt><trkpt lat="45.6705323" lon="10.977402"><ele>1391.6666666666665</ele><time>2026-05-02T09:10:30.989Z</time></trkpt><trkpt lat="45.6706085" lon="10.9773239"><ele>1393.0</ele><time>2026-05-02T09:10:31.985Z</time></trkpt><trkpt lat="45.6706911" lon="10.9772516"><ele>1393.1666666666665</ele><time>2026-05-02T09:10:32.982Z</time></trkpt><trkpt lat="45.6707604" lon="10.9771836"><ele>1393.3333333333333</ele><time>2026-05-02T09:10:33.991Z</time></trkpt><trkpt lat="45.6708243" lon="10.9771177"><ele>1393.5</ele><time>2026-05-02T09:10:34.975Z</time></trkpt><trkpt lat="45.6708726" lon="10.9770431"><ele>1393.6666666666667</ele><time>2026-05-02T09:10:35.986Z</time></trkpt><trkpt lat="45.6709162" lon="10.9769524"><ele>1393.8333333333335</ele><time>2026-05-02T09:10:36.991Z</time></trkpt><trkpt lat="45.6709549" lon="10.9768513"><ele>1394.0</ele><time>2026-05-02T09:10:37.994Z</time></trkpt><trkpt lat="45.6709979" lon="10.9767299"><ele>1394.6</ele><time>2026-05-02T09:10:38.99Z</time></trkpt><trkpt lat="45.6710321" lon="10.9766036"><ele>1395.2</ele><time>2026-05-02T09:10:39.988Z</time></trkpt><trkpt lat="45.6710757" lon="10.9764604"><ele>1395.8</ele><time>2026-05-02T09:10:40.979Z</time></trkpt><trkpt lat="45.6711281" lon="10.9763138"><ele>1396.3999999999999</ele><time>2026-05-02T09:10:41.981Z</time></trkpt><trkpt lat="45.6711851" lon="10.9761491"><ele>1397.0</ele><time>2026-05-02T09:10:42.971Z</time></trkpt><trkpt lat="45.6712381" lon="10.9759932"><ele>1394.8333333333335</ele><time>2026-05-02T09:10:43.986Z</time></trkpt><trkpt lat="45.6712796" lon="10.9758482"><ele>1392.6666666666667</ele><time>2026-05-02T09:10:44.977Z</time></trkpt><trkpt lat="45.6713144" lon="10.975721"><ele>1390.5</ele><time>2026-05-02T09:10:45.987Z</time></trkpt><trkpt lat="45.6713607" lon="10.9756146"><ele>1388.3333333333333</ele><time>2026-05-02T09:10:46.985Z</time></trkpt><trkpt lat="45.6714163" lon="10.9755265"><ele>1386.1666666666665</ele><time>2026-05-02T09:10:47.984Z</time></trkpt><trkpt lat="45.6714785" lon="10.9754884"><ele>1384.0</ele><time>2026-05-02T09:10:48.977Z</time></trkpt><trkpt lat="45.6715656" lon="10.9754609"><ele>1384.0</ele><time>2026-05-02T09:10:49.981Z</time></trkpt><trkpt lat="45.6716591" lon="10.9754172"><ele>1384.0</ele><time>2026-05-02T09:10:50.98Z</time></trkpt><trkpt lat="45.6717662" lon="10.9753812"><ele>1384.0</ele><time>2026-05-02T09:10:51.978Z</time></trkpt><trkpt lat="45.6718805" lon="10.975371"><ele>1384.0</ele><time>2026-05-02T09:10:52.977Z</time></trkpt><trkpt lat="45.6720027" lon="10.9753795"><ele>1384.0</ele><time>2026-05-02T09:10:53.981Z</time></trkpt><trkpt lat="45.6721269" lon="10.9753898"><ele>1381.75</ele><time>2026-05-02T09:10:54.995Z</time></trkpt><trkpt lat="45.6722443" lon="10.9754138"><ele>1379.5</ele><time>2026-05-02T09:10:55.982Z</time></trkpt><trkpt lat="45.6723627" lon="10.9754367"><ele>1377.25</ele><time>2026-05-02T09:10:56.992Z</time></trkpt><trkpt lat="45.6724812" lon="10.9754604"><ele>1375.0</ele><time>2026-05-02T09:10:57.979Z</time></trkpt><trkpt lat="45.6725969" lon="10.9754692"><ele>1375.0</ele><time>2026-05-02T09:10:58.981Z</time></trkpt><trkpt lat="45.6727126" lon="10.9754565"><ele>1375.0</ele><time>2026-05-02T09:10:59.975Z</time></trkpt><trkpt lat="45.6728244" lon="10.9754318"><ele>1375.0</ele><time>2026-05-02T09:11:00.989Z</time></trkpt><trkpt lat="45.6729362" lon="10.9754089"><ele>1375.0</ele><time>2026-05-02T09:11:01.975Z</time></trkpt><trkpt lat="45.6730451" lon="10.97538"><ele>1374.2</ele><time>2026-05-02T09:11:02.976Z</time></trkpt><trkpt lat="45.6731593" lon="10.975354"><ele>1373.4</ele><time>2026-05-02T09:11:03.985Z</time></trkpt><trkpt lat="45.6732672" lon="10.9753239"><ele>1372.6</ele><time>2026-05-02T09:11:04.983Z</time></trkpt><trkpt lat="45.6733739" lon="10.9752965"><ele>1371.8</ele><time>2026-05-02T09:11:05.98Z</time></trkpt><trkpt lat="45.6734773" lon="10.9752594"><ele>1371.0</ele><time>2026-05-02T09:11:06.992Z</time></trkpt><trkpt lat="45.6735787" lon="10.9752383"><ele>1371.0</ele><time>2026-05-02T09:11:07.997Z</time></trkpt><trkpt lat="45.6736774" lon="10.9752447"><ele>1371.0</ele><time>2026-05-02T09:11:08.991Z</time></trkpt><trkpt lat="45.673776" lon="10.9752811"><ele>1371.0</ele><time>2026-05-02T09:11:09.983Z</time></trkpt><trkpt lat="45.6738792" lon="10.9753379"><ele>1371.0</ele><time>2026-05-02T09:11:10.99Z</time></trkpt><trkpt lat="45.6739885" lon="10.9754035"><ele>1371.0</ele><time>2026-05-02T09:11:12.008Z</time></trkpt><trkpt lat="45.6741014" lon="10.9754584"><ele>1371.0</ele><time>2026-05-02T09:11:12.979Z</time></trkpt><trkpt lat="45.6741999" lon="10.9755083"><ele>1371.0</ele><time>2026-05-02T09:11:13.982Z</time></trkpt><trkpt lat="45.6742847" lon="10.975566"><ele>1371.0</ele><time>2026-05-02T09:11:14.978Z</time></trkpt><trkpt lat="45.6743607" lon="10.9756459"><ele>1371.0</ele><time>2026-05-02T09:11:15.989Z</time></trkpt><trkpt lat="45.6744147" lon="10.9757479"><ele>1371.0</ele><time>2026-05-02T09:11:16.982Z</time></trkpt><trkpt lat="45.6744454" lon="10.9758602"><ele>1374.4</ele><time>2026-05-02T09:11:17.979Z</time></trkpt><trkpt lat="45.6744753" lon="10.9759911"><ele>1377.8</ele><time>2026-05-02T09:11:18.985Z</time></trkpt><trkpt lat="45.6744933" lon="10.9761299"><ele>1381.2</ele><time>2026-05-02T09:11:19.978Z</time></trkpt><trkpt lat="45.6745109" lon="10.9762672"><ele>1384.6000000000001</ele><time>2026-05-02T09:11:20.984Z</time></trkpt><trkpt lat="45.6745269" lon="10.9764161"><ele>1388.0</ele><time>2026-05-02T09:11:21.981Z</time></trkpt><trkpt lat="45.6745329" lon="10.9765607"><ele>1387.6000000000001</ele><time>2026-05-02T09:11:22.976Z</time></trkpt><trkpt lat="45.6745421" lon="10.9766954"><ele>1387.2</ele><time>2026-05-02T09:11:23.973Z</time></trkpt><trkpt lat="45.674566" lon="10.976811"><ele>1386.8</ele><time>2026-05-02T09:11:24.983Z</time></trkpt><trkpt lat="45.6746072" lon="10.9769255"><ele>1386.4</ele><time>2026-05-02T09:11:25.975Z</time></trkpt><trkpt lat="45.674657" lon="10.9770327"><ele>1386.0</ele><time>2026-05-02T09:11:26.976Z</time></trkpt><trkpt lat="45.674717" lon="10.9771316"><ele>1386.0</ele><time>2026-05-02T09:11:27.975Z</time></trkpt><trkpt lat="45.674785" lon="10.9772245"><ele>1386.0</ele><time>2026-05-02T09:11:28.976Z</time></trkpt><trkpt lat="45.6748622" lon="10.977312"><ele>1386.0</ele><time>2026-05-02T09:11:29.978Z</time></trkpt><trkpt lat="45.6749375" lon="10.9773804"><ele>1386.0</ele><time>2026-05-02T09:11:30.987Z</time></trkpt><trkpt lat="45.6750184" lon="10.977436"><ele>1386.0</ele><time>2026-05-02T09:11:31.983Z</time></trkpt><trkpt lat="45.675106" lon="10.9774831"><ele>1386.4</ele><time>2026-05-02T09:11:32.988Z</time></trkpt><trkpt lat="45.6751942" lon="10.9775192"><ele>1386.8</ele><time>2026-05-02T09:11:33.977Z</time></trkpt><trkpt lat="45.6752839" lon="10.9775194"><ele>1387.2</ele><time>2026-05-02T09:11:34.979Z</time></trkpt><trkpt lat="45.6753731" lon="10.9774954"><ele>1387.6000000000001</ele><time>2026-05-02T09:11:35.979Z</time></trkpt><trkpt lat="45.675463" lon="10.9774608"><ele>1388.0</ele><time>2026-05-02T09:11:36.989Z</time></trkpt><trkpt lat="45.6755534" lon="10.9774022"><ele>1388.0</ele><time>2026-05-02T09:11:37.983Z</time></trkpt><trkpt lat="45.6756417" lon="10.9773256"><ele>1388.0</ele><time>2026-05-02T09:11:38.98Z</time></trkpt><trkpt lat="45.6757494" lon="10.9772409"><ele>1388.0</ele><time>2026-05-02T09:11:39.977Z</time></trkpt><trkpt lat="45.6758639" lon="10.9771556"><ele>1388.0</ele><time>2026-05-02T09:11:40.981Z</time></trkpt><trkpt lat="45.6759735" lon="10.9770916"><ele>1388.0</ele><time>2026-05-02T09:11:41.982Z</time></trkpt><trkpt lat="45.6760898" lon="10.9770704"><ele>1388.0</ele><time>2026-05-02T09:11:42.974Z</time></trkpt><trkpt lat="45.6762029" lon="10.9770778"><ele>1388.0</ele><time>2026-05-02T09:11:43.975Z</time></trkpt><trkpt lat="45.6763208" lon="10.9771156"><ele>1388.0</ele><time>2026-05-02T09:11:44.979Z</time></trkpt><trkpt lat="45.6764446" lon="10.9771925"><ele>1390.0</ele><time>2026-05-02T09:11:45.971Z</time></trkpt><trkpt lat="45.6765548" lon="10.9772813"><ele>1392.0</ele><time>2026-05-02T09:11:46.975Z</time></trkpt><trkpt lat="45.6766525" lon="10.9773889"><ele>1394.0</ele><time>2026-05-02T09:11:47.981Z</time></trkpt><trkpt lat="45.6767446" lon="10.9775104"><ele>1396.0</ele><time>2026-05-02T09:11:48.979Z</time></trkpt><trkpt lat="45.6768067" lon="10.9776456"><ele>1396.0</ele><time>2026-05-02T09:11:49.983Z</time></trkpt><trkpt lat="45.6768651" lon="10.9777876"><ele>1396.0</ele><time>2026-05-02T09:11:50.978Z</time></trkpt><trkpt lat="45.6769288" lon="10.9779276"><ele>1396.0</ele><time>2026-05-02T09:11:51.985Z</time></trkpt><trkpt lat="45.6769867" lon="10.9780735"><ele>1396.0</ele><time>2026-05-02T09:11:52.991Z</time></trkpt><trkpt lat="45.6770501" lon="10.9782093"><ele>1396.1999999999998</ele><time>2026-05-02T09:11:53.994Z</time></trkpt><trkpt lat="45.6771025" lon="10.9783289"><ele>1396.3999999999999</ele><time>2026-05-02T09:11:54.983Z</time></trkpt><trkpt lat="45.6771598" lon="10.978444"><ele>1396.6</ele><time>2026-05-02T09:11:55.967Z</time></trkpt><trkpt lat="45.6772306" lon="10.9785447"><ele>1396.8</ele><time>2026-05-02T09:11:56.984Z</time></trkpt><trkpt lat="45.6772969" lon="10.9786231"><ele>1397.0</ele><time>2026-05-02T09:11:57.986Z</time></trkpt><trkpt lat="45.6773663" lon="10.9786775"><ele>1397.0</ele><time>2026-05-02T09:11:58.98Z</time></trkpt><trkpt lat="45.6774786" lon="10.9786547"><ele>1397.0</ele><time>2026-05-02T09:12:00.981Z</time></trkpt><trkpt lat="45.6775736" lon="10.978526"><ele>1397.0</ele><time>2026-05-02T09:12:02.981Z</time></trkpt><trkpt lat="45.6776131" lon="10.978438"><ele>1397.0</ele><time>2026-05-02T09:12:03.995Z</time></trkpt><trkpt lat="45.6776537" lon="10.9783544"><ele>1397.0</ele><time>2026-05-02T09:12:04.982Z</time></trkpt><trkpt lat="45.6776917" lon="10.9782664"><ele>1397.0</ele><time>2026-05-02T09:12:05.987Z</time></trkpt><trkpt lat="45.677726" lon="10.9781777"><ele>1397.0</ele><time>2026-05-02T09:12:06.977Z</time></trkpt><trkpt lat="45.6777545" lon="10.9780754"><ele>1397.0</ele><time>2026-05-02T09:12:07.978Z</time></trkpt><trkpt lat="45.6777834" lon="10.9779511"><ele>1397.0</ele><time>2026-05-02T09:12:08.982Z</time></trkpt><trkpt lat="45.6778102" lon="10.977819"><ele>1397.0</ele><time>2026-05-02T09:12:09.986Z</time></trkpt><trkpt lat="45.6778412" lon="10.9776916"><ele>1397.0</ele><time>2026-05-02T09:12:10.985Z</time></trkpt><trkpt lat="45.6778826" lon="10.9775807"><ele>1394.6666666666667</ele><time>2026-05-02T09:12:11.98Z</time></trkpt><trkpt lat="45.6779512" lon="10.9774987"><ele>1392.3333333333335</ele><time>2026-05-02T09:12:12.986Z</time></trkpt><trkpt lat="45.6780272" lon="10.9774384"><ele>1390.0</ele><time>2026-05-02T09:12:13.987Z</time></trkpt><trkpt lat="45.6781023" lon="10.9774071"><ele>1387.6666666666667</ele><time>2026-05-02T09:12:14.99Z</time></trkpt><trkpt lat="45.6781862" lon="10.9773951"><ele>1385.3333333333333</ele><time>2026-05-02T09:12:15.991Z</time></trkpt><trkpt lat="45.6782795" lon="10.9773814"><ele>1383.0</ele><time>2026-05-02T09:12:16.971Z</time></trkpt><trkpt lat="45.6783719" lon="10.9773685"><ele>1383.0</ele><time>2026-05-02T09:12:17.981Z</time></trkpt><trkpt lat="45.678459" lon="10.9773649"><ele>1383.0</ele><time>2026-05-02T09:12:18.981Z</time></trkpt><trkpt lat="45.6785524" lon="10.9773602"><ele>1383.0</ele><time>2026-05-02T09:12:19.994Z</time></trkpt><trkpt lat="45.6786477" lon="10.9773545"><ele>1383.0</ele><time>2026-05-02T09:12:20.989Z</time></trkpt><trkpt lat="45.6787357" lon="10.977337"><ele>1383.0</ele><time>2026-05-02T09:12:21.982Z</time></trkpt><trkpt lat="45.6788196" lon="10.9772994"><ele>1381.3333333333333</ele><time>2026-05-02T09:12:22.98Z</time></trkpt><trkpt lat="45.6788946" lon="10.9772352"><ele>1379.6666666666667</ele><time>2026-05-02T09:12:23.989Z</time></trkpt><trkpt lat="45.6789608" lon="10.9771471"><ele>1378.0</ele><time>2026-05-02T09:12:24.988Z</time></trkpt><trkpt lat="45.6790176" lon="10.9770441"><ele>1376.3333333333335</ele><time>2026-05-02T09:12:25.974Z</time></trkpt><trkpt lat="45.6790734" lon="10.9769424"><ele>1374.6666666666667</ele><time>2026-05-02T09:12:26.976Z</time></trkpt><trkpt lat="45.6791266" lon="10.976845"><ele>1373.0</ele><time>2026-05-02T09:12:27.98Z</time></trkpt><trkpt lat="45.6791703" lon="10.9767493"><ele>1373.0</ele><time>2026-05-02T09:12:28.993Z</time></trkpt><trkpt lat="45.6792776" lon="10.9766476"><ele>1373.0</ele><time>2026-05-02T09:12:30.976Z</time></trkpt><trkpt lat="45.6793416" lon="10.9766707"><ele>1373.0</ele><time>2026-05-02T09:12:31.976Z</time></trkpt><trkpt lat="45.6794007" lon="10.9767321"><ele>1373.0</ele><time>2026-05-02T09:12:32.981Z</time></trkpt><trkpt lat="45.6794446" lon="10.9768"><ele>1373.0</ele><time>2026-05-02T09:12:33.975Z</time></trkpt><trkpt lat="45.6794712" lon="10.9768884"><ele>1373.0</ele><time>2026-05-02T09:12:34.977Z</time></trkpt><trkpt lat="45.6794896" lon="10.9769815"><ele>1372.8333333333335</ele><time>2026-05-02T09:12:35.979Z</time></trkpt><trkpt lat="45.679503" lon="10.9770931"><ele>1372.6666666666667</ele><time>2026-05-02T09:12:36.973Z</time></trkpt><trkpt lat="45.6795165" lon="10.9772106"><ele>1372.5</ele><time>2026-05-02T09:12:37.981Z</time></trkpt><trkpt lat="45.6795244" lon="10.9773313"><ele>1372.3333333333333</ele><time>2026-05-02T09:12:38.987Z</time></trkpt><trkpt lat="45.6795329" lon="10.9774529"><ele>1372.1666666666665</ele><time>2026-05-02T09:12:39.966Z</time></trkpt><trkpt lat="45.6795442" lon="10.9775731"><ele>1372.0</ele><time>2026-05-02T09:12:40.979Z</time></trkpt><trkpt lat="45.6795611" lon="10.9776955"><ele>1372.0</ele><time>2026-05-02T09:12:41.972Z</time></trkpt><trkpt lat="45.6796171" lon="10.977841"><ele>1372.0</ele><time>2026-05-02T09:12:42.979Z</time></trkpt><trkpt lat="45.6796787" lon="10.9779872"><ele>1372.0</ele><time>2026-05-02T09:12:43.972Z</time></trkpt><trkpt lat="45.6797412" lon="10.9781127"><ele>1372.0</ele><time>2026-05-02T09:12:44.983Z</time></trkpt><trkpt lat="45.6797813" lon="10.9782486"><ele>1372.0</ele><time>2026-05-02T09:12:45.979Z</time></trkpt><trkpt lat="45.6797975" lon="10.9783866"><ele>1370.6</ele><time>2026-05-02T09:12:46.981Z</time></trkpt><trkpt lat="45.6798133" lon="10.9785299"><ele>1369.1999999999998</ele><time>2026-05-02T09:12:47.986Z</time></trkpt><trkpt lat="45.6798244" lon="10.9786747"><ele>1367.8</ele><time>2026-05-02T09:12:48.992Z</time></trkpt><trkpt lat="45.6798216" lon="10.9788189"><ele>1366.4</ele><time>2026-05-02T09:12:49.983Z</time></trkpt><trkpt lat="45.6797988" lon="10.9789526"><ele>1365.0</ele><time>2026-05-02T09:12:50.982Z</time></trkpt><trkpt lat="45.6797608" lon="10.9790903"><ele>1363.4</ele><time>2026-05-02T09:12:51.979Z</time></trkpt><trkpt lat="45.6797235" lon="10.9792214"><ele>1361.8</ele><time>2026-05-02T09:12:52.984Z</time></trkpt><trkpt lat="45.6797167" lon="10.979351"><ele>1360.1999999999998</ele><time>2026-05-02T09:12:53.975Z</time></trkpt><trkpt lat="45.6797376" lon="10.979479"><ele>1358.6</ele><time>2026-05-02T09:12:54.985Z</time></trkpt><trkpt lat="45.6797708" lon="10.9795948"><ele>1357.0</ele><time>2026-05-02T09:12:55.979Z</time></trkpt><trkpt lat="45.6798298" lon="10.9797104"><ele>1357.0</ele><time>2026-05-02T09:12:56.966Z</time></trkpt><trkpt lat="45.67989" lon="10.9798326"><ele>1357.0</ele><time>2026-05-02T09:12:57.977Z</time></trkpt><trkpt lat="45.6799506" lon="10.9799335"><ele>1357.0</ele><time>2026-05-02T09:12:58.983Z</time></trkpt><trkpt lat="45.6800088" lon="10.9800238"><ele>1357.0</ele><time>2026-05-02T09:12:59.972Z</time></trkpt><trkpt lat="45.6800725" lon="10.9801011"><ele>1357.0</ele><time>2026-05-02T09:13:00.97Z</time></trkpt><trkpt lat="45.6801452" lon="10.980124"><ele>1357.0</ele><time>2026-05-02T09:13:01.988Z</time></trkpt><trkpt lat="45.6802125" lon="10.9801226"><ele>1357.6666666666665</ele><time>2026-05-02T09:13:02.988Z</time></trkpt><trkpt lat="45.6802802" lon="10.9800994"><ele>1358.3333333333333</ele><time>2026-05-02T09:13:03.983Z</time></trkpt><trkpt lat="45.6803519" lon="10.9800467"><ele>1359.0</ele><time>2026-05-02T09:13:04.985Z</time></trkpt><trkpt lat="45.6804245" lon="10.9800062"><ele>1359.6666666666667</ele><time>2026-05-02T09:13:05.987Z</time></trkpt><trkpt lat="45.6805086" lon="10.9800117"><ele>1360.3333333333335</ele><time>2026-05-02T09:13:06.962Z</time></trkpt><trkpt lat="45.6805996" lon="10.9800625"><ele>1361.0</ele><time>2026-05-02T09:13:07.979Z</time></trkpt><trkpt lat="45.6806979" lon="10.9800932"><ele>1358.75</ele><time>2026-05-02T09:13:08.98Z</time></trkpt><trkpt lat="45.6808095" lon="10.9801211"><ele>1356.5</ele><time>2026-05-02T09:13:09.982Z</time></trkpt><trkpt lat="45.6809233" lon="10.9801564"><ele>1354.25</ele><time>2026-05-02T09:13:10.975Z</time></trkpt><trkpt lat="45.6810399" lon="10.9801981"><ele>1352.0</ele><time>2026-05-02T09:13:11.986Z</time></trkpt><trkpt lat="45.6811565" lon="10.9802435"><ele>1352.0</ele><time>2026-05-02T09:13:12.989Z</time></trkpt><trkpt lat="45.6812678" lon="10.9802952"><ele>1352.0</ele><time>2026-05-02T09:13:13.979Z</time></trkpt><trkpt lat="45.6813709" lon="10.9803524"><ele>1352.0</ele><time>2026-05-02T09:13:14.983Z</time></trkpt><trkpt lat="45.6814722" lon="10.9804009"><ele>1352.0</ele><time>2026-05-02T09:13:15.984Z</time></trkpt><trkpt lat="45.6815776" lon="10.9804277"><ele>1352.0</ele><time>2026-05-02T09:13:16.98Z</time></trkpt><trkpt lat="45.6816835" lon="10.9804201"><ele>1352.0</ele><time>2026-05-02T09:13:17.985Z</time></trkpt><trkpt lat="45.6817844" lon="10.9803593"><ele>1352.0</ele><time>2026-05-02T09:13:18.987Z</time></trkpt><trkpt lat="45.6818745" lon="10.9802489"><ele>1352.0</ele><time>2026-05-02T09:13:19.986Z</time></trkpt><trkpt lat="45.6819409" lon="10.9801024"><ele>1352.0</ele><time>2026-05-02T09:13:20.976Z</time></trkpt><trkpt lat="45.6819958" lon="10.9799561"><ele>1354.0</ele><time>2026-05-02T09:13:21.985Z</time></trkpt><trkpt lat="45.6820461" lon="10.9798203"><ele>1356.0</ele><time>2026-05-02T09:13:22.993Z</time></trkpt><trkpt lat="45.6820801" lon="10.9796793"><ele>1358.0</ele><time>2026-05-02T09:13:23.976Z</time></trkpt><trkpt lat="45.6820783" lon="10.979544"><ele>1360.0</ele><time>2026-05-02T09:13:24.985Z</time></trkpt><trkpt lat="45.6820707" lon="10.9794027"><ele>1362.0</ele><time>2026-05-02T09:13:25.976Z</time></trkpt><trkpt lat="45.6820628" lon="10.9792773"><ele>1363.6666666666667</ele><time>2026-05-02T09:13:26.988Z</time></trkpt><trkpt lat="45.6820603" lon="10.9791649"><ele>1365.3333333333333</ele><time>2026-05-02T09:13:27.989Z</time></trkpt><trkpt lat="45.6820787" lon="10.9790577"><ele>1367.0</ele><time>2026-05-02T09:13:28.994Z</time></trkpt><trkpt lat="45.6821176" lon="10.9789593"><ele>1368.6666666666665</ele><time>2026-05-02T09:13:29.99Z</time></trkpt><trkpt lat="45.6821744" lon="10.9788852"><ele>1370.3333333333333</ele><time>2026-05-02T09:13:30.984Z</time></trkpt><trkpt lat="45.6822917" lon="10.9788408"><ele>1372.0</ele><time>2026-05-02T09:13:32.959Z</time></trkpt><trkpt lat="45.6823591" lon="10.9788518"><ele>1372.0</ele><time>2026-05-02T09:13:33.989Z</time></trkpt><trkpt lat="45.6824305" lon="10.9788853"><ele>1372.0</ele><time>2026-05-02T09:13:34.973Z</time></trkpt><trkpt lat="45.6825037" lon="10.978944"><ele>1372.0</ele><time>2026-05-02T09:13:35.978Z</time></trkpt><trkpt lat="45.6825647" lon="10.9790109"><ele>1372.0</ele><time>2026-05-02T09:13:36.977Z</time></trkpt><trkpt lat="45.6826289" lon="10.979073"><ele>1372.0</ele><time>2026-05-02T09:13:37.973Z</time></trkpt><trkpt lat="45.6827502" lon="10.9791743"><ele>1371.8333333333333</ele><time>2026-05-02T09:13:39.98Z</time></trkpt><trkpt lat="45.682857" lon="10.9792342"><ele>1371.6666666666665</ele><time>2026-05-02T09:13:41.977Z</time></trkpt><trkpt lat="45.6829677" lon="10.9792783"><ele>1371.5</ele><time>2026-05-02T09:13:43.965Z</time></trkpt><trkpt lat="45.6830322" lon="10.9792941"><ele>1371.3333333333333</ele><time>2026-05-02T09:13:44.975Z</time></trkpt><trkpt lat="45.683102" lon="10.9793048"><ele>1371.1666666666667</ele><time>2026-05-02T09:13:45.981Z</time></trkpt><trkpt lat="45.6831658" lon="10.9793048"><ele>1371.0</ele><time>2026-05-02T09:13:46.979Z</time></trkpt><trkpt lat="45.6832674" lon="10.9793089"><ele>1371.0</ele><time>2026-05-02T09:13:48.983Z</time></trkpt><trkpt lat="45.6833603" lon="10.9793136"><ele>1371.0</ele><time>2026-05-02T09:13:50.992Z</time></trkpt><trkpt lat="45.6834339" lon="10.9793185"><ele>1371.0</ele><time>2026-05-02T09:13:52.984Z</time></trkpt><trkpt lat="45.6834965" lon="10.9793366"><ele>1371.0</ele><time>2026-05-02T09:13:54.975Z</time></trkpt><trkpt lat="45.6835662" lon="10.9793523"><ele>1371.0</ele><time>2026-05-02T09:13:56.964Z</time></trkpt><trkpt lat="45.6836281" lon="10.9793777"><ele>1371.0</ele><time>2026-05-02T09:13:58.978Z</time></trkpt><trkpt lat="45.6837047" lon="10.9793932"><ele>1371.0</ele><time>2026-05-02T09:14:01.979Z</time></trkpt><trkpt lat="45.6837635" lon="10.9794286"><ele>1379.0</ele><time>2026-05-02T09:14:05.976Z</time></trkpt><trkpt lat="45.6837007" lon="10.9794687"><ele>1379.0</ele><time>2026-05-02T09:16:41.953Z</time></trkpt></trkseg><trkseg><trkpt lat="45.6837098" lon="10.9794137"><ele>1379.0</ele><time>2026-05-02T09:39:01.043Z</time></trkpt><trkpt lat="45.683656" lon="10.9793563"><ele>1379.0</ele><time>2026-05-02T09:39:07.899Z</time></trkpt><trkpt lat="45.6837156" lon="10.9794052"><ele>1379.0</ele><time>2026-05-02T09:41:38.953Z</time></trkpt><trkpt lat="45.68372" lon="10.9795"><ele>1379.0</ele><time>2026-05-02T09:49:34.972Z</time></trkpt><trkpt lat="45.6837701" lon="10.9794414"><ele>1379.0</ele><time>2026-05-02T09:49:43.988Z</time></trkpt><trkpt lat="45.6838328" lon="10.9794909"><ele>1379.0</ele><time>2026-05-02T09:54:04.04Z</time></trkpt><trkpt lat="45.6838791" lon="10.9795622"><ele>1379.0</ele><time>2026-05-02T09:54:06.058Z</time></trkpt><trkpt lat="45.6838857" lon="10.9796563"><ele>1379.0</ele><time>2026-05-02T09:54:08.049Z</time></trkpt><trkpt lat="45.6838464" lon="10.9797714"><ele>1379.0</ele><time>2026-05-02T09:54:10.041Z</time></trkpt><trkpt lat="45.6838114" lon="10.9798874"><ele>1379.0</ele><time>2026-05-02T09:54:11.967Z</time></trkpt><trkpt lat="45.6837767" lon="10.9799911"><ele>1379.0</ele><time>2026-05-02T09:54:13.962Z</time></trkpt><trkpt lat="45.6837604" lon="10.9800813"><ele>1379.0</ele><time>2026-05-02T09:54:15.952Z</time></trkpt><trkpt lat="45.6837332" lon="10.9801839"><ele>1379.0</ele><time>2026-05-02T09:54:18.968Z</time></trkpt><trkpt lat="45.6837197" lon="10.9803122"><ele>1379.1666666666667</ele><time>2026-05-02T09:54:20.962Z</time></trkpt><trkpt lat="45.6837145" lon="10.9804661"><ele>1379.3333333333335</ele><time>2026-05-02T09:54:22.959Z</time></trkpt><trkpt lat="45.6837151" lon="10.9805651"><ele>1379.5</ele><time>2026-05-02T09:54:23.958Z</time></trkpt><trkpt lat="45.6837072" lon="10.9806668"><ele>1379.6666666666667</ele><time>2026-05-02T09:54:24.965Z</time></trkpt><trkpt lat="45.6836932" lon="10.9807754"><ele>1379.8333333333333</ele><time>2026-05-02T09:54:25.961Z</time></trkpt><trkpt lat="45.6836833" lon="10.9808893"><ele>1380.0</ele><time>2026-05-02T09:54:26.962Z</time></trkpt><trkpt lat="45.6836743" lon="10.9809988"><ele>1380.0</ele><time>2026-05-02T09:54:28.033Z</time></trkpt><trkpt lat="45.6836635" lon="10.9811053"><ele>1380.0</ele><time>2026-05-02T09:54:28.974Z</time></trkpt><trkpt lat="45.6836537" lon="10.9812114"><ele>1380.0</ele><time>2026-05-02T09:54:30.048Z</time></trkpt><trkpt lat="45.68365" lon="10.9813199"><ele>1380.0</ele><time>2026-05-02T09:54:30.984Z</time></trkpt><trkpt lat="45.6836409" lon="10.9814189"><ele>1380.0</ele><time>2026-05-02T09:54:31.981Z</time></trkpt><trkpt lat="45.6836225" lon="10.9815161"><ele>1380.0</ele><time>2026-05-02T09:54:32.971Z</time></trkpt><trkpt lat="45.6836029" lon="10.981618"><ele>1380.0</ele><time>2026-05-02T09:54:33.983Z</time></trkpt><trkpt lat="45.6835786" lon="10.9817173"><ele>1379.2857142857142</ele><time>2026-05-02T09:54:34.97Z</time></trkpt><trkpt lat="45.6835518" lon="10.9818204"><ele>1378.5714285714284</ele><time>2026-05-02T09:54:35.986Z</time></trkpt><trkpt lat="45.6835326" lon="10.9819183"><ele>1377.8571428571427</ele><time>2026-05-02T09:54:36.988Z</time></trkpt><trkpt lat="45.6835327" lon="10.98201"><ele>1377.142857142857</ele><time>2026-05-02T09:54:38.044Z</time></trkpt><trkpt lat="45.6835517" lon="10.9821068"><ele>1376.4285714285713</ele><time>2026-05-02T09:54:38.987Z</time></trkpt><trkpt lat="45.6836008" lon="10.9821723"><ele>1375.7142857142856</ele><time>2026-05-02T09:54:40.051Z</time></trkpt><trkpt lat="45.6836891" lon="10.9822114"><ele>1375.0</ele><time>2026-05-02T09:54:40.959Z</time></trkpt><trkpt lat="45.6837845" lon="10.9822286"><ele>1375.0</ele><time>2026-05-02T09:54:41.963Z</time></trkpt><trkpt lat="45.6838911" lon="10.9822292"><ele>1375.0</ele><time>2026-05-02T09:54:42.972Z</time></trkpt><trkpt lat="45.6840038" lon="10.9822388"><ele>1375.0</ele><time>2026-05-02T09:54:44.034Z</time></trkpt><trkpt lat="45.6841192" lon="10.9822542"><ele>1375.0</ele><time>2026-05-02T09:54:45.047Z</time></trkpt><trkpt lat="45.6842382" lon="10.9822693"><ele>1375.0</ele><time>2026-05-02T09:54:45.958Z</time></trkpt><trkpt lat="45.6843599" lon="10.9822889"><ele>1375.0</ele><time>2026-05-02T09:54:47.052Z</time></trkpt><trkpt lat="45.6844862" lon="10.982316"><ele>1375.0</ele><time>2026-05-02T09:54:48.048Z</time></trkpt><trkpt lat="45.6846054" lon="10.9823508"><ele>1375.0</ele><time>2026-05-02T09:54:48.979Z</time></trkpt><trkpt lat="45.6847204" lon="10.9823971"><ele>1374.0</ele><time>2026-05-02T09:54:50.062Z</time></trkpt><trkpt lat="45.6848437" lon="10.9824512"><ele>1373.0</ele><time>2026-05-02T09:54:50.962Z</time></trkpt><trkpt lat="45.6849639" lon="10.9825108"><ele>1372.0</ele><time>2026-05-02T09:54:51.971Z</time></trkpt><trkpt lat="45.6850832" lon="10.9825761"><ele>1371.0</ele><time>2026-05-02T09:54:52.986Z</time></trkpt><trkpt lat="45.6851906" lon="10.9826585"><ele>1368.8</ele><time>2026-05-02T09:54:53.966Z</time></trkpt><trkpt lat="45.6852768" lon="10.9827563"><ele>1366.6</ele><time>2026-05-02T09:54:55.035Z</time></trkpt><trkpt lat="45.6853587" lon="10.9828342"><ele>1364.4</ele><time>2026-05-02T09:54:55.975Z</time></trkpt><trkpt lat="45.6854626" lon="10.9828819"><ele>1362.2</ele><time>2026-05-02T09:54:56.97Z</time></trkpt><trkpt lat="45.6855755" lon="10.9829086"><ele>1360.0</ele><time>2026-05-02T09:54:57.974Z</time></trkpt><trkpt lat="45.6856989" lon="10.982921"><ele>1360.0</ele><time>2026-05-02T09:54:59.095Z</time></trkpt><trkpt lat="45.6859414" lon="10.9829138"><ele>1360.0</ele><time>2026-05-02T09:55:00.973Z</time></trkpt><trkpt lat="45.6860718" lon="10.982899"><ele>1360.0</ele><time>2026-05-02T09:55:01.979Z</time></trkpt><trkpt lat="45.6862042" lon="10.9828829"><ele>1361.5</ele><time>2026-05-02T09:55:03.035Z</time></trkpt><trkpt lat="45.6863278" lon="10.9828796"><ele>1363.0</ele><time>2026-05-02T09:55:03.965Z</time></trkpt><trkpt lat="45.6864485" lon="10.9828874"><ele>1364.5</ele><time>2026-05-02T09:55:04.971Z</time></trkpt><trkpt lat="45.6865694" lon="10.9829082"><ele>1366.0</ele><time>2026-05-02T09:55:05.974Z</time></trkpt><trkpt lat="45.686694" lon="10.9829374"><ele>1366.0</ele><time>2026-05-02T09:55:06.977Z</time></trkpt><trkpt lat="45.686808" lon="10.9829817"><ele>1366.0</ele><time>2026-05-02T09:55:07.975Z</time></trkpt><trkpt lat="45.6869209" lon="10.9830491"><ele>1366.0</ele><time>2026-05-02T09:55:09.042Z</time></trkpt><trkpt lat="45.6870269" lon="10.9831399"><ele>1366.0</ele><time>2026-05-02T09:55:10.018Z</time></trkpt><trkpt lat="45.6871198" lon="10.9832503"><ele>1368.0</ele><time>2026-05-02T09:55:10.959Z</time></trkpt><trkpt lat="45.6872076" lon="10.9833564"><ele>1370.0</ele><time>2026-05-02T09:55:11.965Z</time></trkpt><trkpt lat="45.6872897" lon="10.9834549"><ele>1372.0</ele><time>2026-05-02T09:55:12.957Z</time></trkpt><trkpt lat="45.687363" lon="10.9835407"><ele>1374.0</ele><time>2026-05-02T09:55:13.961Z</time></trkpt><trkpt lat="45.6874407" lon="10.9836116"><ele>1376.0</ele><time>2026-05-02T09:55:14.967Z</time></trkpt><trkpt lat="45.6875128" lon="10.9836652"><ele>1376.0</ele><time>2026-05-02T09:55:15.972Z</time></trkpt><trkpt lat="45.687586" lon="10.9837131"><ele>1376.0</ele><time>2026-05-02T09:55:16.942Z</time></trkpt><trkpt lat="45.68766" lon="10.9837781"><ele>1376.0</ele><time>2026-05-02T09:55:17.943Z</time></trkpt><trkpt lat="45.687726" lon="10.9838544"><ele>1376.0</ele><time>2026-05-02T09:55:18.936Z</time></trkpt><trkpt lat="45.6877844" lon="10.9839501"><ele>1376.0</ele><time>2026-05-02T09:55:19.938Z</time></trkpt><trkpt lat="45.6878416" lon="10.9840581"><ele>1376.0</ele><time>2026-05-02T09:55:20.957Z</time></trkpt><trkpt lat="45.6878961" lon="10.9841724"><ele>1377.1999999999998</ele><time>2026-05-02T09:55:21.946Z</time></trkpt><trkpt lat="45.6879454" lon="10.9842896"><ele>1378.3999999999999</ele><time>2026-05-02T09:55:22.957Z</time></trkpt><trkpt lat="45.6880008" lon="10.9844106"><ele>1379.6</ele><time>2026-05-02T09:55:23.954Z</time></trkpt><trkpt lat="45.6880517" lon="10.9845226"><ele>1380.8</ele><time>2026-05-02T09:55:24.966Z</time></trkpt><trkpt lat="45.6880986" lon="10.9846308"><ele>1382.0</ele><time>2026-05-02T09:55:25.953Z</time></trkpt><trkpt lat="45.6881403" lon="10.9847469"><ele>1382.0</ele><time>2026-05-02T09:55:26.961Z</time></trkpt><trkpt lat="45.688171" lon="10.9848662"><ele>1382.0</ele><time>2026-05-02T09:55:27.971Z</time></trkpt><trkpt lat="45.6881895" lon="10.9849833"><ele>1382.0</ele><time>2026-05-02T09:55:28.959Z</time></trkpt><trkpt lat="45.6881929" lon="10.9851086"><ele>1382.0</ele><time>2026-05-02T09:55:29.943Z</time></trkpt><trkpt lat="45.6881948" lon="10.9852348"><ele>1382.0</ele><time>2026-05-02T09:55:30.947Z</time></trkpt><trkpt lat="45.6881972" lon="10.9853624"><ele>1382.0</ele><time>2026-05-02T09:55:31.949Z</time></trkpt><trkpt lat="45.6881954" lon="10.9854889"><ele>1383.8</ele><time>2026-05-02T09:55:33.043Z</time></trkpt><trkpt lat="45.6881883" lon="10.9856079"><ele>1385.6</ele><time>2026-05-02T09:55:33.967Z</time></trkpt><trkpt lat="45.6881618" lon="10.9857173"><ele>1387.3999999999999</ele><time>2026-05-02T09:55:35.04Z</time></trkpt><trkpt lat="45.6881198" lon="10.9858428"><ele>1389.1999999999998</ele><time>2026-05-02T09:55:35.995Z</time></trkpt><trkpt lat="45.6880541" lon="10.9859451"><ele>1391.0</ele><time>2026-05-02T09:55:37.037Z</time></trkpt><trkpt lat="45.6879675" lon="10.986029"><ele>1391.8</ele><time>2026-05-02T09:55:37.965Z</time></trkpt><trkpt lat="45.6878711" lon="10.9861115"><ele>1392.6</ele><time>2026-05-02T09:55:39.018Z</time></trkpt><trkpt lat="45.6877766" lon="10.9861847"><ele>1393.4</ele><time>2026-05-02T09:55:40.013Z</time></trkpt><trkpt lat="45.6876929" lon="10.9862393"><ele>1394.2</ele><time>2026-05-02T09:55:40.963Z</time></trkpt><trkpt lat="45.6876311" lon="10.9862999"><ele>1395.0</ele><time>2026-05-02T09:55:41.953Z</time></trkpt><trkpt lat="45.687589" lon="10.9863741"><ele>1395.0</ele><time>2026-05-02T09:55:42.962Z</time></trkpt><trkpt lat="45.6875498" lon="10.9864654"><ele>1395.0</ele><time>2026-05-02T09:55:43.95Z</time></trkpt><trkpt lat="45.6875174" lon="10.98658"><ele>1395.0</ele><time>2026-05-02T09:55:45.045Z</time></trkpt><trkpt lat="45.6874933" lon="10.9867004"><ele>1395.0</ele><time>2026-05-02T09:55:45.965Z</time></trkpt><trkpt lat="45.6874607" lon="10.9868324"><ele>1395.0</ele><time>2026-05-02T09:55:46.966Z</time></trkpt><trkpt lat="45.6874094" lon="10.9869619"><ele>1398.0</ele><time>2026-05-02T09:55:48.034Z</time></trkpt><trkpt lat="45.6873547" lon="10.9870795"><ele>1401.0</ele><time>2026-05-02T09:55:48.96Z</time></trkpt><trkpt lat="45.6873009" lon="10.9871909"><ele>1404.0</ele><time>2026-05-02T09:55:49.958Z</time></trkpt><trkpt lat="45.6872497" lon="10.9872935"><ele>1407.0</ele><time>2026-05-02T09:55:50.963Z</time></trkpt><trkpt lat="45.6871959" lon="10.9873936"><ele>1410.0</ele><time>2026-05-02T09:55:52.058Z</time></trkpt><trkpt lat="45.6870597" lon="10.9875841"><ele>1408.6666666666667</ele><time>2026-05-02T09:55:53.969Z</time></trkpt><trkpt lat="45.6869882" lon="10.987671"><ele>1407.3333333333333</ele><time>2026-05-02T09:55:54.952Z</time></trkpt><trkpt lat="45.6869242" lon="10.9877504"><ele>1406.0</ele><time>2026-05-02T09:55:55.949Z</time></trkpt><trkpt lat="45.6868647" lon="10.9878164"><ele>1404.6666666666665</ele><time>2026-05-02T09:55:56.958Z</time></trkpt><trkpt lat="45.6868076" lon="10.9878783"><ele>1403.3333333333333</ele><time>2026-05-02T09:55:57.952Z</time></trkpt><trkpt lat="45.6867934" lon="10.9880488"><ele>1402.0</ele><time>2026-05-02T09:56:00.041Z</time></trkpt><trkpt lat="45.6868336" lon="10.9881503"><ele>1402.0</ele><time>2026-05-02T09:56:00.987Z</time></trkpt><trkpt lat="45.6868538" lon="10.9882441"><ele>1402.0</ele><time>2026-05-02T09:56:01.945Z</time></trkpt><trkpt lat="45.6868232" lon="10.9883995"><ele>1402.0</ele><time>2026-05-02T09:56:03.968Z</time></trkpt><trkpt lat="45.6867579" lon="10.9884445"><ele>1402.0</ele><time>2026-05-02T09:56:04.945Z</time></trkpt><trkpt lat="45.6866798" lon="10.9884377"><ele>1402.0</ele><time>2026-05-02T09:56:05.956Z</time></trkpt><trkpt lat="45.6865914" lon="10.9884374"><ele>1402.0</ele><time>2026-05-02T09:56:07.042Z</time></trkpt><trkpt lat="45.686519" lon="10.9884443"><ele>1405.6666666666665</ele><time>2026-05-02T09:56:08.039Z</time></trkpt><trkpt lat="45.6864495" lon="10.9884732"><ele>1409.3333333333333</ele><time>2026-05-02T09:56:08.96Z</time></trkpt><trkpt lat="45.686382" lon="10.9885205"><ele>1413.0</ele><time>2026-05-02T09:56:09.954Z</time></trkpt><trkpt lat="45.6863138" lon="10.98858"><ele>1416.6666666666667</ele><time>2026-05-02T09:56:10.955Z</time></trkpt><trkpt lat="45.6862439" lon="10.9886529"><ele>1420.3333333333335</ele><time>2026-05-02T09:56:11.964Z</time></trkpt><trkpt lat="45.6861617" lon="10.9887196"><ele>1424.0</ele><time>2026-05-02T09:56:12.968Z</time></trkpt><trkpt lat="45.6860671" lon="10.9887667"><ele>1424.0</ele><time>2026-05-02T09:56:13.971Z</time></trkpt><trkpt lat="45.6859687" lon="10.9888078"><ele>1424.0</ele><time>2026-05-02T09:56:14.954Z</time></trkpt><trkpt lat="45.6858641" lon="10.9888351"><ele>1424.0</ele><time>2026-05-02T09:56:15.971Z</time></trkpt><trkpt lat="45.6857593" lon="10.9888636"><ele>1424.0</ele><time>2026-05-02T09:56:16.948Z</time></trkpt><trkpt lat="45.6856524" lon="10.9888787"><ele>1424.0</ele><time>2026-05-02T09:56:17.979Z</time></trkpt><trkpt lat="45.6855513" lon="10.9888745"><ele>1424.0</ele><time>2026-05-02T09:56:18.971Z</time></trkpt><trkpt lat="45.6854582" lon="10.9888681"><ele>1424.0</ele><time>2026-05-02T09:56:19.976Z</time></trkpt><trkpt lat="45.6853752" lon="10.9888704"><ele>1424.0</ele><time>2026-05-02T09:56:20.974Z</time></trkpt><trkpt lat="45.6852987" lon="10.9888696"><ele>1424.0</ele><time>2026-05-02T09:56:21.977Z</time></trkpt><trkpt lat="45.685235" lon="10.9888672"><ele>1424.0</ele><time>2026-05-02T09:56:23.037Z</time></trkpt><trkpt lat="45.6851448" lon="10.9888833"><ele>1424.0</ele><time>2026-05-02T09:56:25.044Z</time></trkpt><trkpt lat="45.6850644" lon="10.9889623"><ele>1422.0</ele><time>2026-05-02T09:56:26.97Z</time></trkpt><trkpt lat="45.6850122" lon="10.9890989"><ele>1420.0</ele><time>2026-05-02T09:56:29.031Z</time></trkpt><trkpt lat="45.6849663" lon="10.9892592"><ele>1418.0</ele><time>2026-05-02T09:56:30.97Z</time></trkpt><trkpt lat="45.6849897" lon="10.9894155"><ele>1416.0</ele><time>2026-05-02T09:56:32.969Z</time></trkpt><trkpt lat="45.6850545" lon="10.9895038"><ele>1414.0</ele><time>2026-05-02T09:56:34.966Z</time></trkpt><trkpt lat="45.6851806" lon="10.9895469"><ele>1414.0</ele><time>2026-05-02T09:56:36.973Z</time></trkpt><trkpt lat="45.6852419" lon="10.9896034"><ele>1414.0</ele><time>2026-05-02T09:56:38.027Z</time></trkpt><trkpt lat="45.685275" lon="10.9896997"><ele>1414.0</ele><time>2026-05-02T09:56:39.035Z</time></trkpt><trkpt lat="45.6852949" lon="10.9898056"><ele>1414.0</ele><time>2026-05-02T09:56:40.031Z</time></trkpt><trkpt lat="45.6852847" lon="10.9899005"><ele>1414.0</ele><time>2026-05-02T09:56:41.01Z</time></trkpt><trkpt lat="45.6852515" lon="10.9900088"><ele>1414.0</ele><time>2026-05-02T09:56:41.972Z</time></trkpt><trkpt lat="45.6852461" lon="10.990108"><ele>1414.0</ele><time>2026-05-02T09:56:42.96Z</time></trkpt><trkpt lat="45.6852962" lon="10.9902712"><ele>1421.0</ele><time>2026-05-02T09:56:44.969Z</time></trkpt><trkpt lat="45.6853927" lon="10.9903677"><ele>1428.0</ele><time>2026-05-02T09:56:46.983Z</time></trkpt><trkpt lat="45.6854609" lon="10.990398"><ele>1435.0</ele><time>2026-05-02T09:56:47.973Z</time></trkpt><trkpt lat="45.6855228" lon="10.9904272"><ele>1442.0</ele><time>2026-05-02T09:56:49.045Z</time></trkpt><trkpt lat="45.6855623" lon="10.9906155"><ele>1449.0</ele><time>2026-05-02T09:56:50.97Z</time></trkpt><trkpt lat="45.6855707" lon="10.9907279"><ele>1447.3333333333333</ele><time>2026-05-02T09:56:51.974Z</time></trkpt><trkpt lat="45.6855988" lon="10.9908587"><ele>1445.6666666666667</ele><time>2026-05-02T09:56:52.974Z</time></trkpt><trkpt lat="45.6856129" lon="10.9909836"><ele>1444.0</ele><time>2026-05-02T09:56:53.971Z</time></trkpt><trkpt lat="45.6856233" lon="10.9911065"><ele>1442.3333333333335</ele><time>2026-05-02T09:56:55.032Z</time></trkpt><trkpt lat="45.6856266" lon="10.9912123"><ele>1440.6666666666667</ele><time>2026-05-02T09:56:55.947Z</time></trkpt><trkpt lat="45.6856318" lon="10.9913098"><ele>1439.0</ele><time>2026-05-02T09:56:56.978Z</time></trkpt><trkpt lat="45.6856381" lon="10.9914231"><ele>1439.0</ele><time>2026-05-02T09:56:57.984Z</time></trkpt><trkpt lat="45.6856626" lon="10.9915151"><ele>1439.0</ele><time>2026-05-02T09:56:58.963Z</time></trkpt><trkpt lat="45.6857102" lon="10.9915851"><ele>1439.0</ele><time>2026-05-02T09:57:00.031Z</time></trkpt><trkpt lat="45.6857766" lon="10.9916426"><ele>1439.0</ele><time>2026-05-02T09:57:00.967Z</time></trkpt><trkpt lat="45.6858576" lon="10.9916982"><ele>1439.0</ele><time>2026-05-02T09:57:01.97Z</time></trkpt><trkpt lat="45.6859405" lon="10.9917633"><ele>1439.0</ele><time>2026-05-02T09:57:02.98Z</time></trkpt><trkpt lat="45.6860255" lon="10.9918387"><ele>1441.2</ele><time>2026-05-02T09:57:04.019Z</time></trkpt><trkpt lat="45.6861113" lon="10.991922"><ele>1443.4</ele><time>2026-05-02T09:57:05.022Z</time></trkpt><trkpt lat="45.6861908" lon="10.9919932"><ele>1445.6</ele><time>2026-05-02T09:57:05.96Z</time></trkpt><trkpt lat="45.6862684" lon="10.9920196"><ele>1447.8</ele><time>2026-05-02T09:57:06.97Z</time></trkpt><trkpt lat="45.6863578" lon="10.9920055"><ele>1450.0</ele><time>2026-05-02T09:57:07.981Z</time></trkpt><trkpt lat="45.6864427" lon="10.9919887"><ele>1450.0</ele><time>2026-05-02T09:57:09.027Z</time></trkpt><trkpt lat="45.6865293" lon="10.9919843"><ele>1450.0</ele><time>2026-05-02T09:57:10.025Z</time></trkpt><trkpt lat="45.6866166" lon="10.991982"><ele>1450.0</ele><time>2026-05-02T09:57:10.974Z</time></trkpt><trkpt lat="45.6867017" lon="10.9919776"><ele>1450.0</ele><time>2026-05-02T09:57:11.976Z</time></trkpt><trkpt lat="45.6867827" lon="10.9919733"><ele>1450.0</ele><time>2026-05-02T09:57:13.008Z</time></trkpt><trkpt lat="45.6868509" lon="10.9919707"><ele>1450.0</ele><time>2026-05-02T09:57:14.034Z</time></trkpt><trkpt lat="45.6869534" lon="10.9919809"><ele>1452.2</ele><time>2026-05-02T09:57:15.969Z</time></trkpt><trkpt lat="45.6870359" lon="10.9919687"><ele>1454.4</ele><time>2026-05-02T09:57:17.97Z</time></trkpt><trkpt lat="45.687155" lon="10.9919082"><ele>1456.6</ele><time>2026-05-02T09:57:20.034Z</time></trkpt><trkpt lat="45.6872656" lon="10.991876"><ele>1458.8</ele><time>2026-05-02T09:57:21.976Z</time></trkpt><trkpt lat="45.6873154" lon="10.9917941"><ele>1461.0</ele><time>2026-05-02T09:57:29.037Z</time></trkpt><trkpt lat="45.687306" lon="10.9916389"><ele>1461.0</ele><time>2026-05-02T09:57:30.967Z</time></trkpt><trkpt lat="45.6872918" lon="10.9915484"><ele>1461.0</ele><time>2026-05-02T09:57:32.975Z</time></trkpt><trkpt lat="45.6873509" lon="10.991488"><ele>1461.0</ele><time>2026-05-02T09:57:35.961Z</time></trkpt><trkpt lat="45.6874549" lon="10.9914699"><ele>1461.0</ele><time>2026-05-02T09:57:38.04Z</time></trkpt><trkpt lat="45.6875268" lon="10.9915575"><ele>1461.0</ele><time>2026-05-02T09:57:39.018Z</time></trkpt><trkpt lat="45.6876026" lon="10.9916861"><ele>1462.6</ele><time>2026-05-02T09:57:40.032Z</time></trkpt><trkpt lat="45.687663" lon="10.9918522"><ele>1464.1999999999998</ele><time>2026-05-02T09:57:40.96Z</time></trkpt><trkpt lat="45.6877446" lon="10.9919821"><ele>1465.8000000000002</ele><time>2026-05-02T09:57:41.965Z</time></trkpt><trkpt lat="45.6878222" lon="10.9920487"><ele>1467.4</ele><time>2026-05-02T09:57:42.971Z</time></trkpt><trkpt lat="45.6879189" lon="10.9920323"><ele>1469.0</ele><time>2026-05-02T09:57:44.038Z</time></trkpt><trkpt lat="45.6880227" lon="10.9919504"><ele>1470.0</ele><time>2026-05-02T09:57:45.038Z</time></trkpt><trkpt lat="45.6881254" lon="10.9918443"><ele>1471.0</ele><time>2026-05-02T09:57:45.963Z</time></trkpt><trkpt lat="45.6882234" lon="10.991791"><ele>1472.0</ele><time>2026-05-02T09:57:46.963Z</time></trkpt><trkpt lat="45.6883112" lon="10.9918198"><ele>1473.0</ele><time>2026-05-02T09:57:47.995Z</time></trkpt><trkpt lat="45.68839" lon="10.9918991"><ele>1474.0</ele><time>2026-05-02T09:57:48.963Z</time></trkpt><trkpt lat="45.6884531" lon="10.9920014"><ele>1474.0</ele><time>2026-05-02T09:57:49.957Z</time></trkpt><trkpt lat="45.6885036" lon="10.9921248"><ele>1474.0</ele><time>2026-05-02T09:57:50.967Z</time></trkpt><trkpt lat="45.6885446" lon="10.9922598"><ele>1474.0</ele><time>2026-05-02T09:57:51.969Z</time></trkpt><trkpt lat="45.6885825" lon="10.992397"><ele>1474.0</ele><time>2026-05-02T09:57:52.971Z</time></trkpt><trkpt lat="45.6886302" lon="10.9925227"><ele>1474.0</ele><time>2026-05-02T09:57:54.031Z</time></trkpt><trkpt lat="45.6887064" lon="10.992593"><ele>1476.5</ele><time>2026-05-02T09:57:55.028Z</time></trkpt><trkpt lat="45.6888122" lon="10.9926389"><ele>1479.0</ele><time>2026-05-02T09:57:55.959Z</time></trkpt><trkpt lat="45.6888941" lon="10.9927039"><ele>1481.5</ele><time>2026-05-02T09:57:56.971Z</time></trkpt><trkpt lat="45.6889583" lon="10.9927897"><ele>1484.0</ele><time>2026-05-02T09:57:57.983Z</time></trkpt><trkpt lat="45.6890151" lon="10.9928457"><ele>1486.5</ele><time>2026-05-02T09:57:59.046Z</time></trkpt><trkpt lat="45.6890732" lon="10.9928837"><ele>1489.0</ele><time>2026-05-02T09:58:00.047Z</time></trkpt><trkpt lat="45.6891848" lon="10.9928688"><ele>1489.0</ele><time>2026-05-02T09:58:01.979Z</time></trkpt><trkpt lat="45.6892568" lon="10.9927218"><ele>1489.0</ele><time>2026-05-02T09:58:03.971Z</time></trkpt><trkpt lat="45.6892784" lon="10.9926269"><ele>1489.0</ele><time>2026-05-02T09:58:04.971Z</time></trkpt><trkpt lat="45.6892916" lon="10.9925244"><ele>1489.0</ele><time>2026-05-02T09:58:05.956Z</time></trkpt><trkpt lat="45.6893128" lon="10.9924332"><ele>1489.0</ele><time>2026-05-02T09:58:06.966Z</time></trkpt><trkpt lat="45.6893554" lon="10.9923576"><ele>1489.0</ele><time>2026-05-02T09:58:08.015Z</time></trkpt><trkpt lat="45.6894143" lon="10.9922703"><ele>1489.5</ele><time>2026-05-02T09:58:08.973Z</time></trkpt><trkpt lat="45.6894873" lon="10.9922159"><ele>1490.0</ele><time>2026-05-02T09:58:10.054Z</time></trkpt><trkpt lat="45.6895681" lon="10.9921814"><ele>1490.5</ele><time>2026-05-02T09:58:10.965Z</time></trkpt><trkpt lat="45.6896377" lon="10.9921472"><ele>1491.0</ele><time>2026-05-02T09:58:11.969Z</time></trkpt><trkpt lat="45.689714" lon="10.9921012"><ele>1491.5</ele><time>2026-05-02T09:58:12.965Z</time></trkpt><trkpt lat="45.6897855" lon="10.9921077"><ele>1492.0</ele><time>2026-05-02T09:58:13.966Z</time></trkpt><trkpt lat="45.6898428" lon="10.9921746"><ele>1492.0</ele><time>2026-05-02T09:58:14.968Z</time></trkpt><trkpt lat="45.6898825" lon="10.9922608"><ele>1492.0</ele><time>2026-05-02T09:58:15.963Z</time></trkpt><trkpt lat="45.6898955" lon="10.992369"><ele>1492.0</ele><time>2026-05-02T09:58:17.068Z</time></trkpt><trkpt lat="45.689897" lon="10.9924773"><ele>1492.0</ele><time>2026-05-02T09:58:17.972Z</time></trkpt><trkpt lat="45.6899287" lon="10.9925866"><ele>1492.0</ele><time>2026-05-02T09:58:18.986Z</time></trkpt><trkpt lat="45.6899887" lon="10.992663"><ele>1492.0</ele><time>2026-05-02T09:58:19.998Z</time></trkpt><trkpt lat="45.6900701" lon="10.9927255"><ele>1492.6</ele><time>2026-05-02T09:58:20.974Z</time></trkpt><trkpt lat="45.6901436" lon="10.9927901"><ele>1493.1999999999998</ele><time>2026-05-02T09:58:21.968Z</time></trkpt><trkpt lat="45.6902056" lon="10.9928917"><ele>1493.8</ele><time>2026-05-02T09:58:22.973Z</time></trkpt><trkpt lat="45.6902548" lon="10.9930033"><ele>1494.4</ele><time>2026-05-02T09:58:23.973Z</time></trkpt><trkpt lat="45.6903187" lon="10.9931348"><ele>1495.0</ele><time>2026-05-02T09:58:25.047Z</time></trkpt><trkpt lat="45.6903839" lon="10.993276"><ele>1497.25</ele><time>2026-05-02T09:58:25.972Z</time></trkpt><trkpt lat="45.6904543" lon="10.9934213"><ele>1499.5</ele><time>2026-05-02T09:58:26.977Z</time></trkpt><trkpt lat="45.6905172" lon="10.9935729"><ele>1501.75</ele><time>2026-05-02T09:58:27.989Z</time></trkpt><trkpt lat="45.6905897" lon="10.9937002"><ele>1504.0</ele><time>2026-05-02T09:58:29.026Z</time></trkpt><trkpt lat="45.6906816" lon="10.9938023"><ele>1504.0</ele><time>2026-05-02T09:58:30.038Z</time></trkpt><trkpt lat="45.6908038" lon="10.9938697"><ele>1504.0</ele><time>2026-05-02T09:58:30.972Z</time></trkpt><trkpt lat="45.6909186" lon="10.9939432"><ele>1504.0</ele><time>2026-05-02T09:58:31.967Z</time></trkpt><trkpt lat="45.6910182" lon="10.9940569"><ele>1504.0</ele><time>2026-05-02T09:58:33.007Z</time></trkpt><trkpt lat="45.6910991" lon="10.9942038"><ele>1507.25</ele><time>2026-05-02T09:58:34.027Z</time></trkpt><trkpt lat="45.69117" lon="10.9943816"><ele>1510.5</ele><time>2026-05-02T09:58:35.03Z</time></trkpt><trkpt lat="45.6912213" lon="10.9945542"><ele>1513.75</ele><time>2026-05-02T09:58:35.972Z</time></trkpt><trkpt lat="45.691282" lon="10.9947278"><ele>1517.0</ele><time>2026-05-02T09:58:36.983Z</time></trkpt><trkpt lat="45.6913523" lon="10.99489"><ele>1516.75</ele><time>2026-05-02T09:58:37.988Z</time></trkpt><trkpt lat="45.6914322" lon="10.9950406"><ele>1516.5</ele><time>2026-05-02T09:58:38.965Z</time></trkpt><trkpt lat="45.6915165" lon="10.9951913"><ele>1516.25</ele><time>2026-05-02T09:58:40.04Z</time></trkpt><trkpt lat="45.6916043" lon="10.9953403"><ele>1516.0</ele><time>2026-05-02T09:58:40.968Z</time></trkpt><trkpt lat="45.6916965" lon="10.9954976"><ele>1516.0</ele><time>2026-05-02T09:58:41.969Z</time></trkpt><trkpt lat="45.6918015" lon="10.9956414"><ele>1516.0</ele><time>2026-05-02T09:58:42.957Z</time></trkpt><trkpt lat="45.6919166" lon="10.9957721"><ele>1516.0</ele><time>2026-05-02T09:58:44.054Z</time></trkpt><trkpt lat="45.6920316" lon="10.9959104"><ele>1516.0</ele><time>2026-05-02T09:58:45.035Z</time></trkpt><trkpt lat="45.6921266" lon="10.9960633"><ele>1519.25</ele><time>2026-05-02T09:58:45.964Z</time></trkpt><trkpt lat="45.6922061" lon="10.996227"><ele>1522.5</ele><time>2026-05-02T09:58:46.969Z</time></trkpt><trkpt lat="45.6922749" lon="10.9963675"><ele>1525.75</ele><time>2026-05-02T09:58:47.984Z</time></trkpt><trkpt lat="45.6923349" lon="10.9965019"><ele>1529.0</ele><time>2026-05-02T09:58:49.032Z</time></trkpt><trkpt lat="45.6923581" lon="10.9966501"><ele>1530.4</ele><time>2026-05-02T09:58:50.022Z</time></trkpt><trkpt lat="45.6923406" lon="10.9967939"><ele>1531.8000000000002</ele><time>2026-05-02T09:58:50.976Z</time></trkpt><trkpt lat="45.6922712" lon="10.9968911"><ele>1533.1999999999998</ele><time>2026-05-02T09:58:51.971Z</time></trkpt><trkpt lat="45.6921794" lon="10.9969246"><ele>1534.6</ele><time>2026-05-02T09:58:52.971Z</time></trkpt><trkpt lat="45.6920745" lon="10.9969223"><ele>1536.0</ele><time>2026-05-02T09:58:53.954Z</time></trkpt><trkpt lat="45.6919579" lon="10.9969187"><ele>1535.25</ele><time>2026-05-02T09:58:54.972Z</time></trkpt><trkpt lat="45.6918416" lon="10.9969146"><ele>1534.5</ele><time>2026-05-02T09:58:55.97Z</time></trkpt><trkpt lat="45.6917162" lon="10.9969322"><ele>1533.75</ele><time>2026-05-02T09:58:56.977Z</time></trkpt><trkpt lat="45.6915904" lon="10.99696"><ele>1533.0</ele><time>2026-05-02T09:58:58.026Z</time></trkpt><trkpt lat="45.6914723" lon="10.9969946"><ele>1533.0</ele><time>2026-05-02T09:58:59.024Z</time></trkpt><trkpt lat="45.6913616" lon="10.9970356"><ele>1533.0</ele><time>2026-05-02T09:59:00.043Z</time></trkpt><trkpt lat="45.6912688" lon="10.9971088"><ele>1533.0</ele><time>2026-05-02T09:59:00.978Z</time></trkpt><trkpt lat="45.6912054" lon="10.9972132"><ele>1533.0</ele><time>2026-05-02T09:59:01.964Z</time></trkpt><trkpt lat="45.6911657" lon="10.9973368"><ele>1533.0</ele><time>2026-05-02T09:59:02.959Z</time></trkpt><trkpt lat="45.6911564" lon="10.9974786"><ele>1535.5</ele><time>2026-05-02T09:59:03.969Z</time></trkpt><trkpt lat="45.6911484" lon="10.9976434"><ele>1538.0</ele><time>2026-05-02T09:59:04.968Z</time></trkpt><trkpt lat="45.6911356" lon="10.9978099"><ele>1540.5</ele><time>2026-05-02T09:59:05.969Z</time></trkpt><trkpt lat="45.6911204" lon="10.9979832"><ele>1543.0</ele><time>2026-05-02T09:59:06.968Z</time></trkpt><trkpt lat="45.691095" lon="10.9981399"><ele>1542.75</ele><time>2026-05-02T09:59:07.955Z</time></trkpt><trkpt lat="45.6910388" lon="10.9982628"><ele>1542.5</ele><time>2026-05-02T09:59:08.973Z</time></trkpt><trkpt lat="45.690958" lon="10.9983531"><ele>1542.25</ele><time>2026-05-02T09:59:09.976Z</time></trkpt><trkpt lat="45.6908403" lon="10.9984044"><ele>1542.0</ele><time>2026-05-02T09:59:10.971Z</time></trkpt><trkpt lat="45.6907169" lon="10.9984233"><ele>1542.0</ele><time>2026-05-02T09:59:11.968Z</time></trkpt><trkpt lat="45.6905959" lon="10.9984319"><ele>1542.0</ele><time>2026-05-02T09:59:12.967Z</time></trkpt><trkpt lat="45.6904781" lon="10.9984485"><ele>1542.0</ele><time>2026-05-02T09:59:13.975Z</time></trkpt><trkpt lat="45.6903515" lon="10.9984529"><ele>1542.0</ele><time>2026-05-02T09:59:15.063Z</time></trkpt><trkpt lat="45.6902251" lon="10.9984251"><ele>1543.25</ele><time>2026-05-02T09:59:15.967Z</time></trkpt><trkpt lat="45.6901038" lon="10.9983562"><ele>1544.5</ele><time>2026-05-02T09:59:16.967Z</time></trkpt><trkpt lat="45.6899945" lon="10.9982613"><ele>1545.75</ele><time>2026-05-02T09:59:17.994Z</time></trkpt><trkpt lat="45.6898869" lon="10.9981741"><ele>1547.0</ele><time>2026-05-02T09:59:19.054Z</time></trkpt><trkpt lat="45.6897673" lon="10.9981302"><ele>1545.5</ele><time>2026-05-02T09:59:20.031Z</time></trkpt><trkpt lat="45.6896498" lon="10.9981397"><ele>1544.0</ele><time>2026-05-02T09:59:20.975Z</time></trkpt><trkpt lat="45.689539" lon="10.9981935"><ele>1542.5</ele><time>2026-05-02T09:59:21.966Z</time></trkpt><trkpt lat="45.6894345" lon="10.9982693"><ele>1541.0</ele><time>2026-05-02T09:59:22.998Z</time></trkpt><trkpt lat="45.6893199" lon="10.9983557"><ele>1541.0</ele><time>2026-05-02T09:59:24.051Z</time></trkpt><trkpt lat="45.6892026" lon="10.9984435"><ele>1541.0</ele><time>2026-05-02T09:59:25.032Z</time></trkpt><trkpt lat="45.6890812" lon="10.9985254"><ele>1541.0</ele><time>2026-05-02T09:59:25.967Z</time></trkpt><trkpt lat="45.6889568" lon="10.9986136"><ele>1541.0</ele><time>2026-05-02T09:59:26.969Z</time></trkpt><trkpt lat="45.688827" lon="10.9987003"><ele>1541.0</ele><time>2026-05-02T09:59:27.967Z</time></trkpt><trkpt lat="45.6886954" lon="10.9987798"><ele>1541.0</ele><time>2026-05-02T09:59:28.973Z</time></trkpt><trkpt lat="45.6885679" lon="10.9988538"><ele>1541.0</ele><time>2026-05-02T09:59:30.036Z</time></trkpt><trkpt lat="45.6884581" lon="10.9989249"><ele>1541.0</ele><time>2026-05-02T09:59:30.97Z</time></trkpt><trkpt lat="45.6883722" lon="10.9990192"><ele>1538.1999999999998</ele><time>2026-05-02T09:59:31.973Z</time></trkpt><trkpt lat="45.6883173" lon="10.9991442"><ele>1535.3999999999999</ele><time>2026-05-02T09:59:33.024Z</time></trkpt><trkpt lat="45.6883008" lon="10.99928"><ele>1532.6</ele><time>2026-05-02T09:59:34.023Z</time></trkpt><trkpt lat="45.6883079" lon="10.9994442"><ele>1529.8</ele><time>2026-05-02T09:59:34.97Z</time></trkpt><trkpt lat="45.6883273" lon="10.9995935"><ele>1527.0</ele><time>2026-05-02T09:59:35.968Z</time></trkpt><trkpt lat="45.6883682" lon="10.9997433"><ele>1526.5</ele><time>2026-05-02T09:59:36.976Z</time></trkpt><trkpt lat="45.688431" lon="10.9998643"><ele>1526.0</ele><time>2026-05-02T09:59:37.975Z</time></trkpt><trkpt lat="45.6885233" lon="10.9999796"><ele>1525.5</ele><time>2026-05-02T09:59:38.972Z</time></trkpt><trkpt lat="45.6886247" lon="11.0000923"><ele>1525.0</ele><time>2026-05-02T09:59:39.972Z</time></trkpt><trkpt lat="45.6887178" lon="11.0002092"><ele>1530.0</ele><time>2026-05-02T09:59:40.953Z</time></trkpt><trkpt lat="45.6888119" lon="11.0003285"><ele>1535.0</ele><time>2026-05-02T09:59:41.97Z</time></trkpt><trkpt lat="45.6889195" lon="11.0004329"><ele>1540.0</ele><time>2026-05-02T09:59:42.963Z</time></trkpt><trkpt lat="45.6890353" lon="11.000519"><ele>1545.0</ele><time>2026-05-02T09:59:43.947Z</time></trkpt><trkpt lat="45.6891469" lon="11.0006133"><ele>1545.0</ele><time>2026-05-02T09:59:44.969Z</time></trkpt><trkpt lat="45.6892421" lon="11.0007128"><ele>1545.0</ele><time>2026-05-02T09:59:45.943Z</time></trkpt><trkpt lat="45.6893027" lon="11.000847"><ele>1545.0</ele><time>2026-05-02T09:59:46.948Z</time></trkpt><trkpt lat="45.6893484" lon="11.000982"><ele>1545.0</ele><time>2026-05-02T09:59:47.942Z</time></trkpt><trkpt lat="45.6894141" lon="11.001083"><ele>1545.0</ele><time>2026-05-02T09:59:48.974Z</time></trkpt><trkpt lat="45.6895011" lon="11.0011417"><ele>1545.0</ele><time>2026-05-02T09:59:49.959Z</time></trkpt><trkpt lat="45.689603" lon="11.0011493"><ele>1545.0</ele><time>2026-05-02T09:59:50.965Z</time></trkpt><trkpt lat="45.6896895" lon="11.0011172"><ele>1545.0</ele><time>2026-05-02T09:59:51.966Z</time></trkpt><trkpt lat="45.6897803" lon="11.0010592"><ele>1545.0</ele><time>2026-05-02T09:59:52.964Z</time></trkpt><trkpt lat="45.6898711" lon="11.0009923"><ele>1545.0</ele><time>2026-05-02T09:59:53.968Z</time></trkpt><trkpt lat="45.6899666" lon="11.0009366"><ele>1545.0</ele><time>2026-05-02T09:59:54.97Z</time></trkpt><trkpt lat="45.6900712" lon="11.0008793"><ele>1545.0</ele><time>2026-05-02T09:59:55.964Z</time></trkpt><trkpt lat="45.6901815" lon="11.0008231"><ele>1545.0</ele><time>2026-05-02T09:59:56.968Z</time></trkpt><trkpt lat="45.6902949" lon="11.0007659"><ele>1545.0</ele><time>2026-05-02T09:59:57.967Z</time></trkpt><trkpt lat="45.6904113" lon="11.0007162"><ele>1546.25</ele><time>2026-05-02T09:59:58.959Z</time></trkpt><trkpt lat="45.6905322" lon="11.0006624"><ele>1547.5</ele><time>2026-05-02T09:59:59.968Z</time></trkpt><trkpt lat="45.6906506" lon="11.0006067"><ele>1548.75</ele><time>2026-05-02T10:00:00.969Z</time></trkpt><trkpt lat="45.6907615" lon="11.0005495"><ele>1550.0</ele><time>2026-05-02T10:00:01.965Z</time></trkpt><trkpt lat="45.690866" lon="11.0005031"><ele>1550.0</ele><time>2026-05-02T10:00:02.965Z</time></trkpt><trkpt lat="45.6909748" lon="11.0004705"><ele>1550.0</ele><time>2026-05-02T10:00:03.983Z</time></trkpt><trkpt lat="45.6910892" lon="11.0004422"><ele>1550.0</ele><time>2026-05-02T10:00:04.968Z</time></trkpt><trkpt lat="45.6912031" lon="11.0004379"><ele>1550.0</ele><time>2026-05-02T10:00:05.969Z</time></trkpt><trkpt lat="45.6913031" lon="11.0005036"><ele>1550.4</ele><time>2026-05-02T10:00:06.968Z</time></trkpt><trkpt lat="45.691406" lon="11.0005799"><ele>1550.8</ele><time>2026-05-02T10:00:07.974Z</time></trkpt><trkpt lat="45.6914991" lon="11.0006571"><ele>1551.1999999999998</ele><time>2026-05-02T10:00:08.975Z</time></trkpt><trkpt lat="45.6915918" lon="11.0007103"><ele>1551.6</ele><time>2026-05-02T10:00:09.97Z</time></trkpt><trkpt lat="45.6916798" lon="11.0007684"><ele>1552.0</ele><time>2026-05-02T10:00:10.962Z</time></trkpt><trkpt lat="45.6917634" lon="11.000834"><ele>1552.0</ele><time>2026-05-02T10:00:11.968Z</time></trkpt><trkpt lat="45.6918551" lon="11.0009027"><ele>1552.0</ele><time>2026-05-02T10:00:12.969Z</time></trkpt><trkpt lat="45.6919364" lon="11.0010042"><ele>1552.0</ele><time>2026-05-02T10:00:13.975Z</time></trkpt><trkpt lat="45.6919948" lon="11.0011461"><ele>1552.0</ele><time>2026-05-02T10:00:14.97Z</time></trkpt><trkpt lat="45.6920298" lon="11.0013101"><ele>1552.0</ele><time>2026-05-02T10:00:15.973Z</time></trkpt><trkpt lat="45.6920422" lon="11.0014583"><ele>1552.8333333333335</ele><time>2026-05-02T10:00:16.975Z</time></trkpt><trkpt lat="45.6920529" lon="11.0015801"><ele>1553.6666666666667</ele><time>2026-05-02T10:00:17.968Z</time></trkpt><trkpt lat="45.6920493" lon="11.0017051"><ele>1554.5</ele><time>2026-05-02T10:00:18.967Z</time></trkpt><trkpt lat="45.6920326" lon="11.0018263"><ele>1555.3333333333335</ele><time>2026-05-02T10:00:20.029Z</time></trkpt><trkpt lat="45.692016" lon="11.0019512"><ele>1556.1666666666667</ele><time>2026-05-02T10:00:20.963Z</time></trkpt><trkpt lat="45.6920004" lon="11.0020776"><ele>1557.0</ele><time>2026-05-02T10:00:21.969Z</time></trkpt><trkpt lat="45.6919849" lon="11.0022096"><ele>1557.0</ele><time>2026-05-02T10:00:22.985Z</time></trkpt><trkpt lat="45.6919676" lon="11.0023396"><ele>1557.0</ele><time>2026-05-02T10:00:23.97Z</time></trkpt><trkpt lat="45.6919465" lon="11.0024589"><ele>1557.0</ele><time>2026-05-02T10:00:25.02Z</time></trkpt><trkpt lat="45.6919274" lon="11.0025639"><ele>1557.0</ele><time>2026-05-02T10:00:25.97Z</time></trkpt><trkpt lat="45.6919069" lon="11.0026509"><ele>1557.0</ele><time>2026-05-02T10:00:26.969Z</time></trkpt><trkpt lat="45.6918555" lon="11.0027886"><ele>1557.0</ele><time>2026-05-02T10:00:29.052Z</time></trkpt><trkpt lat="45.6918109" lon="11.0028791"><ele>1557.7142857142856</ele><time>2026-05-02T10:00:30.975Z</time></trkpt><trkpt lat="45.6918422" lon="11.0029586"><ele>1558.4285714285713</ele><time>2026-05-02T10:00:32.975Z</time></trkpt><trkpt lat="45.6919359" lon="11.0028943"><ele>1559.142857142857</ele><time>2026-05-02T10:00:34.975Z</time></trkpt><trkpt lat="45.6919844" lon="11.0028326"><ele>1559.8571428571427</ele><time>2026-05-02T10:00:35.967Z</time></trkpt><trkpt lat="45.6920383" lon="11.0027685"><ele>1560.5714285714287</ele><time>2026-05-02T10:00:36.964Z</time></trkpt><trkpt lat="45.6920979" lon="11.0027089"><ele>1561.2857142857142</ele><time>2026-05-02T10:00:37.966Z</time></trkpt><trkpt lat="45.6921529" lon="11.0026581"><ele>1562.0</ele><time>2026-05-02T10:00:38.969Z</time></trkpt><trkpt lat="45.6922393" lon="11.0025752"><ele>1563.1999999999998</ele><time>2026-05-02T10:00:40.97Z</time></trkpt><trkpt lat="45.692303" lon="11.0025744"><ele>1564.4</ele><time>2026-05-02T10:00:42.971Z</time></trkpt><trkpt lat="45.6923821" lon="11.0025778"><ele>1565.6</ele><time>2026-05-02T10:00:45.03Z</time></trkpt><trkpt lat="45.6924964" lon="11.0026012"><ele>1566.8000000000002</ele><time>2026-05-02T10:00:46.963Z</time></trkpt><trkpt lat="45.6926049" lon="11.0026239"><ele>1568.0</ele><time>2026-05-02T10:00:48.978Z</time></trkpt><trkpt lat="45.6927117" lon="11.0026734"><ele>1567.3333333333333</ele><time>2026-05-02T10:00:50.96Z</time></trkpt><trkpt lat="45.6927972" lon="11.0027097"><ele>1566.6666666666665</ele><time>2026-05-02T10:00:52.967Z</time></trkpt><trkpt lat="45.692868" lon="11.0027688"><ele>1566.0</ele><time>2026-05-02T10:00:54.972Z</time></trkpt><trkpt lat="45.6929329" lon="11.0028285"><ele>1565.3333333333335</ele><time>2026-05-02T10:00:56.965Z</time></trkpt><trkpt lat="45.6929989" lon="11.0028987"><ele>1564.6666666666667</ele><time>2026-05-02T10:00:58.991Z</time></trkpt><trkpt lat="45.6930538" lon="11.0029788"><ele>1564.0</ele><time>2026-05-02T10:01:00.954Z</time></trkpt><trkpt lat="45.6931002" lon="11.0030733"><ele>1564.0000000000002</ele><time>2026-05-02T10:01:02.953Z</time></trkpt><trkpt lat="45.6931245" lon="11.003159"><ele>1564.0</ele><time>2026-05-02T10:01:03.943Z</time></trkpt><trkpt lat="45.6931472" lon="11.0032726"><ele>1564.0</ele><time>2026-05-02T10:01:04.975Z</time></trkpt><trkpt lat="45.6931555" lon="11.0033948"><ele>1564.0</ele><time>2026-05-02T10:01:05.969Z</time></trkpt><trkpt lat="45.6931735" lon="11.0035357"><ele>1564.0000000000002</ele><time>2026-05-02T10:01:07.027Z</time></trkpt><trkpt lat="45.6931806" lon="11.0036839"><ele>1564.0</ele><time>2026-05-02T10:01:08.024Z</time></trkpt><trkpt lat="45.6931798" lon="11.0038331"><ele>1565.6</ele><time>2026-05-02T10:01:09.006Z</time></trkpt><trkpt lat="45.6931708" lon="11.0039787"><ele>1567.2</ele><time>2026-05-02T10:01:10.049Z</time></trkpt><trkpt lat="45.6931739" lon="11.0041267"><ele>1568.8</ele><time>2026-05-02T10:01:10.962Z</time></trkpt><trkpt lat="45.6931779" lon="11.0042708"><ele>1570.3999999999999</ele><time>2026-05-02T10:01:11.95Z</time></trkpt><trkpt lat="45.6931868" lon="11.0043894"><ele>1572.0</ele><time>2026-05-02T10:01:12.96Z</time></trkpt><trkpt lat="45.6931928" lon="11.0044905"><ele>1573.6</ele><time>2026-05-02T10:01:13.969Z</time></trkpt><trkpt lat="45.6932126" lon="11.0046324"><ele>1575.1999999999998</ele><time>2026-05-02T10:01:15.948Z</time></trkpt><trkpt lat="45.6932663" lon="11.0046927"><ele>1576.8</ele><time>2026-05-02T10:01:28.97Z</time></trkpt><trkpt lat="45.6933366" lon="11.0047588"><ele>1578.4</ele><time>2026-05-02T10:01:30.969Z</time></trkpt><trkpt lat="45.6934273" lon="11.0048588"><ele>1580.0</ele><time>2026-05-02T10:01:32.97Z</time></trkpt><trkpt lat="45.6935224" lon="11.0049461"><ele>1580.3333333333333</ele><time>2026-05-02T10:01:34.972Z</time></trkpt><trkpt lat="45.6935944" lon="11.0050116"><ele>1580.6666666666665</ele><time>2026-05-02T10:01:36.963Z</time></trkpt><trkpt lat="45.6936637" lon="11.0050577"><ele>1581.0</ele><time>2026-05-02T10:05:20.959Z</time></trkpt><trkpt lat="45.693768" lon="11.0050965"><ele>1581.3333333333335</ele><time>2026-05-02T10:05:22.982Z</time></trkpt><trkpt lat="45.6938301" lon="11.0051174"><ele>1581.6666666666667</ele><time>2026-05-02T10:05:23.974Z</time></trkpt><trkpt lat="45.6938946" lon="11.0051419"><ele>1582.0</ele><time>2026-05-02T10:05:24.967Z</time></trkpt><trkpt lat="45.6939596" lon="11.0051621"><ele>1582.0000000000002</ele><time>2026-05-02T10:05:25.98Z</time></trkpt><trkpt lat="45.6940292" lon="11.0051764"><ele>1582.0</ele><time>2026-05-02T10:05:26.969Z</time></trkpt><trkpt lat="45.6940966" lon="11.0051891"><ele>1582.0</ele><time>2026-05-02T10:05:27.97Z</time></trkpt><trkpt lat="45.6941738" lon="11.0051939"><ele>1582.0</ele><time>2026-05-02T10:05:28.97Z</time></trkpt><trkpt lat="45.694251" lon="11.0052074"><ele>1582.0000000000002</ele><time>2026-05-02T10:05:29.963Z</time></trkpt><trkpt lat="45.6943263" lon="11.0052269"><ele>1582.0</ele><time>2026-05-02T10:05:30.971Z</time></trkpt><trkpt lat="45.6944082" lon="11.0052514"><ele>1582.5000000000002</ele><time>2026-05-02T10:05:31.969Z</time></trkpt><trkpt lat="45.6944812" lon="11.0052889"><ele>1583.0</ele><time>2026-05-02T10:05:32.981Z</time></trkpt><trkpt lat="45.6945532" lon="11.0053421"><ele>1583.5</ele><time>2026-05-02T10:05:33.966Z</time></trkpt><trkpt lat="45.69462" lon="11.0054008"><ele>1584.0</ele><time>2026-05-02T10:05:34.971Z</time></trkpt><trkpt lat="45.694684" lon="11.0054683"><ele>1584.5000000000002</ele><time>2026-05-02T10:05:35.964Z</time></trkpt><trkpt lat="45.6947519" lon="11.0055301"><ele>1585.0</ele><time>2026-05-02T10:05:36.966Z</time></trkpt><trkpt lat="45.6948142" lon="11.0055934"><ele>1585.0000000000002</ele><time>2026-05-02T10:05:37.971Z</time></trkpt><trkpt lat="45.6948842" lon="11.0056682"><ele>1585.0</ele><time>2026-05-02T10:05:38.971Z</time></trkpt><trkpt lat="45.6949557" lon="11.0057497"><ele>1585.0</ele><time>2026-05-02T10:05:39.968Z</time></trkpt><trkpt lat="45.695023" lon="11.0058271"><ele>1585.0</ele><time>2026-05-02T10:05:40.974Z</time></trkpt><trkpt lat="45.6950808" lon="11.0058941"><ele>1585.0000000000002</ele><time>2026-05-02T10:05:41.974Z</time></trkpt><trkpt lat="45.6951309" lon="11.0059572"><ele>1585.0</ele><time>2026-05-02T10:05:42.978Z</time></trkpt><trkpt lat="45.6951827" lon="11.006028"><ele>1586.0000000000002</ele><time>2026-05-02T10:05:43.98Z</time></trkpt><trkpt lat="45.6952423" lon="11.006101"><ele>1587.0</ele><time>2026-05-02T10:05:45.044Z</time></trkpt><trkpt lat="45.6953062" lon="11.0061757"><ele>1588.0</ele><time>2026-05-02T10:05:45.96Z</time></trkpt><trkpt lat="45.6953711" lon="11.0062447"><ele>1589.0</ele><time>2026-05-02T10:05:46.972Z</time></trkpt><trkpt lat="45.6954358" lon="11.0063194"><ele>1590.0000000000002</ele><time>2026-05-02T10:05:47.972Z</time></trkpt><trkpt lat="45.6954976" lon="11.0063936"><ele>1591.0</ele><time>2026-05-02T10:05:49.043Z</time></trkpt><trkpt lat="45.6955642" lon="11.0064622"><ele>1591.0000000000002</ele><time>2026-05-02T10:05:50.038Z</time></trkpt><trkpt lat="45.6956361" lon="11.00653"><ele>1591.0</ele><time>2026-05-02T10:05:50.982Z</time></trkpt><trkpt lat="45.6957009" lon="11.0065927"><ele>1591.0</ele><time>2026-05-02T10:05:51.967Z</time></trkpt><trkpt lat="45.6957638" lon="11.0066485"><ele>1591.0</ele><time>2026-05-02T10:05:52.971Z</time></trkpt><trkpt lat="45.6958283" lon="11.0067089"><ele>1591.0000000000002</ele><time>2026-05-02T10:05:53.965Z</time></trkpt><trkpt lat="45.6958953" lon="11.0067738"><ele>1591.0</ele><time>2026-05-02T10:05:54.979Z</time></trkpt><trkpt lat="45.6959584" lon="11.006854"><ele>1591.0</ele><time>2026-05-02T10:05:55.967Z</time></trkpt><trkpt lat="45.6960159" lon="11.0069277"><ele>1591.0</ele><time>2026-05-02T10:05:56.97Z</time></trkpt><trkpt lat="45.6960662" lon="11.0070041"><ele>1591.0</ele><time>2026-05-02T10:05:57.978Z</time></trkpt><trkpt lat="45.6961155" lon="11.0070867"><ele>1591.0</ele><time>2026-05-02T10:05:58.969Z</time></trkpt><trkpt lat="45.6961525" lon="11.00717"><ele>1591.0</ele><time>2026-05-02T10:05:59.965Z</time></trkpt><trkpt lat="45.6961935" lon="11.0072561"><ele>1591.0</ele><time>2026-05-02T10:06:00.965Z</time></trkpt><trkpt lat="45.6962422" lon="11.0073348"><ele>1591.0</ele><time>2026-05-02T10:06:01.962Z</time></trkpt><trkpt lat="45.6962943" lon="11.0074043"><ele>1591.0</ele><time>2026-05-02T10:06:02.97Z</time></trkpt><trkpt lat="45.6963468" lon="11.0074758"><ele>1591.0</ele><time>2026-05-02T10:06:03.974Z</time></trkpt><trkpt lat="45.6963956" lon="11.0075525"><ele>1591.0</ele><time>2026-05-02T10:06:04.976Z</time></trkpt><trkpt lat="45.6964491" lon="11.0076259"><ele>1591.0</ele><time>2026-05-02T10:06:05.975Z</time></trkpt><trkpt lat="45.6965087" lon="11.0076928"><ele>1591.0</ele><time>2026-05-02T10:06:06.969Z</time></trkpt><trkpt lat="45.6965622" lon="11.007755"><ele>1591.0</ele><time>2026-05-02T10:06:07.968Z</time></trkpt><trkpt lat="45.6966207" lon="11.0078164"><ele>1591.0</ele><time>2026-05-02T10:06:08.975Z</time></trkpt><trkpt lat="45.6966763" lon="11.0078777"><ele>1594.1999999999998</ele><time>2026-05-02T10:06:09.973Z</time></trkpt><trkpt lat="45.6967692" lon="11.0079746"><ele>1597.3999999999999</ele><time>2026-05-02T10:06:11.987Z</time></trkpt><trkpt lat="45.6968769" lon="11.0080187"><ele>1600.6</ele><time>2026-05-02T10:06:14.035Z</time></trkpt><trkpt lat="45.696969" lon="11.0080508"><ele>1603.8</ele><time>2026-05-02T10:06:15.977Z</time></trkpt><trkpt lat="45.6970701" lon="11.0080436"><ele>1607.0</ele><time>2026-05-02T10:06:17.992Z</time></trkpt><trkpt lat="45.6971942" lon="11.0080628"><ele>1607.0000000000002</ele><time>2026-05-02T10:06:19.967Z</time></trkpt><trkpt lat="45.6972665" lon="11.0080691"><ele>1607.0</ele><time>2026-05-02T10:06:20.984Z</time></trkpt><trkpt lat="45.6973351" lon="11.0080709"><ele>1607.0</ele><time>2026-05-02T10:06:21.974Z</time></trkpt><trkpt lat="45.6974038" lon="11.0080751"><ele>1607.0</ele><time>2026-05-02T10:06:22.975Z</time></trkpt><trkpt lat="45.6974782" lon="11.0080724"><ele>1607.0</ele><time>2026-05-02T10:06:23.965Z</time></trkpt><trkpt lat="45.697558" lon="11.0080777"><ele>1607.0000000000002</ele><time>2026-05-02T10:06:24.995Z</time></trkpt><trkpt lat="45.6976376" lon="11.0080818"><ele>1607.0</ele><time>2026-05-02T10:06:25.97Z</time></trkpt><trkpt lat="45.697721" lon="11.0080819"><ele>1607.4999999999998</ele><time>2026-05-02T10:06:26.969Z</time></trkpt><trkpt lat="45.6978071" lon="11.0080823"><ele>1608.0</ele><time>2026-05-02T10:06:27.984Z</time></trkpt><trkpt lat="45.6978935" lon="11.0080868"><ele>1608.5</ele><time>2026-05-02T10:06:28.974Z</time></trkpt><trkpt lat="45.6979855" lon="11.0080903"><ele>1609.0</ele><time>2026-05-02T10:06:29.971Z</time></trkpt><trkpt lat="45.6980749" lon="11.0080948"><ele>1609.4999999999998</ele><time>2026-05-02T10:06:30.984Z</time></trkpt><trkpt lat="45.6981575" lon="11.0080934"><ele>1610.0</ele><time>2026-05-02T10:06:32.04Z</time></trkpt><trkpt lat="45.6982458" lon="11.008092"><ele>1609.9999999999998</ele><time>2026-05-02T10:06:32.974Z</time></trkpt><trkpt lat="45.6983405" lon="11.0080922"><ele>1610.0</ele><time>2026-05-02T10:06:33.975Z</time></trkpt><trkpt lat="45.6984298" lon="11.0081064"><ele>1610.0</ele><time>2026-05-02T10:06:34.973Z</time></trkpt><trkpt lat="45.6985097" lon="11.0081324"><ele>1610.0</ele><time>2026-05-02T10:06:35.981Z</time></trkpt><trkpt lat="45.6985833" lon="11.0081601"><ele>1609.9999999999998</ele><time>2026-05-02T10:06:36.98Z</time></trkpt><trkpt lat="45.6986502" lon="11.0081946"><ele>1610.0</ele><time>2026-05-02T10:06:37.972Z</time></trkpt><trkpt lat="45.6987099" lon="11.0082357"><ele>1609.2857142857142</ele><time>2026-05-02T10:06:39.039Z</time></trkpt><trkpt lat="45.6987745" lon="11.0082859"><ele>1608.5714285714284</ele><time>2026-05-02T10:06:40.028Z</time></trkpt><trkpt lat="45.6988366" lon="11.0083372"><ele>1607.857142857143</ele><time>2026-05-02T10:06:40.979Z</time></trkpt><trkpt lat="45.6988972" lon="11.0083937"><ele>1607.142857142857</ele><time>2026-05-02T10:06:41.974Z</time></trkpt><trkpt lat="45.6989599" lon="11.0084479"><ele>1606.4285714285713</ele><time>2026-05-02T10:06:42.983Z</time></trkpt><trkpt lat="45.6990224" lon="11.0085056"><ele>1605.7142857142858</ele><time>2026-05-02T10:06:43.971Z</time></trkpt><trkpt lat="45.699085" lon="11.0085537"><ele>1605.0</ele><time>2026-05-02T10:06:44.976Z</time></trkpt><trkpt lat="45.699152" lon="11.008597"><ele>1608.3333333333333</ele><time>2026-05-02T10:06:45.976Z</time></trkpt><trkpt lat="45.6992153" lon="11.0086298"><ele>1611.6666666666665</ele><time>2026-05-02T10:06:46.975Z</time></trkpt><trkpt lat="45.6993355" lon="11.0086533"><ele>1615.0</ele><time>2026-05-02T10:06:48.976Z</time></trkpt><trkpt lat="45.6994026" lon="11.0086439"><ele>1618.3333333333333</ele><time>2026-05-02T10:06:49.984Z</time></trkpt><trkpt lat="45.6994674" lon="11.0086309"><ele>1621.6666666666665</ele><time>2026-05-02T10:06:50.975Z</time></trkpt><trkpt lat="45.699533" lon="11.0086175"><ele>1625.0</ele><time>2026-05-02T10:06:51.971Z</time></trkpt><trkpt lat="45.6996071" lon="11.0086018"><ele>1625.4999999999998</ele><time>2026-05-02T10:06:52.981Z</time></trkpt><trkpt lat="45.6996846" lon="11.0086022"><ele>1626.0</ele><time>2026-05-02T10:06:53.981Z</time></trkpt><trkpt lat="45.6997593" lon="11.0086371"><ele>1626.5</ele><time>2026-05-02T10:06:54.986Z</time></trkpt><trkpt lat="45.699828" lon="11.008691"><ele>1627.0</ele><time>2026-05-02T10:06:55.971Z</time></trkpt><trkpt lat="45.6998952" lon="11.0087568"><ele>1627.4999999999998</ele><time>2026-05-02T10:06:56.976Z</time></trkpt><trkpt lat="45.6999614" lon="11.0088273"><ele>1628.0</ele><time>2026-05-02T10:06:57.973Z</time></trkpt><trkpt lat="45.7000326" lon="11.0088939"><ele>1627.9999999999998</ele><time>2026-05-02T10:06:59.049Z</time></trkpt><trkpt lat="45.7000983" lon="11.0089642"><ele>1628.0</ele><time>2026-05-02T10:07:00.044Z</time></trkpt><trkpt lat="45.7001657" lon="11.0090354"><ele>1628.0</ele><time>2026-05-02T10:07:00.962Z</time></trkpt><trkpt lat="45.7002284" lon="11.0091113"><ele>1628.0</ele><time>2026-05-02T10:07:01.968Z</time></trkpt><trkpt lat="45.7002892" lon="11.0091826"><ele>1627.9999999999998</ele><time>2026-05-02T10:07:02.955Z</time></trkpt><trkpt lat="45.7003489" lon="11.0092443"><ele>1628.0</ele><time>2026-05-02T10:07:04.02Z</time></trkpt><trkpt lat="45.700413" lon="11.00931"><ele>1629.4285714285716</ele><time>2026-05-02T10:07:05.036Z</time></trkpt><trkpt lat="45.7004715" lon="11.0093622"><ele>1630.857142857143</ele><time>2026-05-02T10:07:05.959Z</time></trkpt><trkpt lat="45.7005368" lon="11.0094028"><ele>1632.2857142857142</ele><time>2026-05-02T10:07:06.971Z</time></trkpt><trkpt lat="45.7006101" lon="11.0094258"><ele>1633.7142857142858</ele><time>2026-05-02T10:07:07.973Z</time></trkpt><trkpt lat="45.700681" lon="11.0094472"><ele>1635.142857142857</ele><time>2026-05-02T10:07:08.982Z</time></trkpt><trkpt lat="45.7007532" lon="11.0094669"><ele>1636.5714285714287</ele><time>2026-05-02T10:07:10.058Z</time></trkpt><trkpt lat="45.7008285" lon="11.0094882"><ele>1638.0</ele><time>2026-05-02T10:07:11.005Z</time></trkpt><trkpt lat="45.7009072" lon="11.0095084"><ele>1638.0</ele><time>2026-05-02T10:07:11.977Z</time></trkpt><trkpt lat="45.7009799" lon="11.0095362"><ele>1638.0</ele><time>2026-05-02T10:07:13.067Z</time></trkpt><trkpt lat="45.7010536" lon="11.0095716"><ele>1638.0</ele><time>2026-05-02T10:07:14.03Z</time></trkpt><trkpt lat="45.7011229" lon="11.0096183"><ele>1638.0</ele><time>2026-05-02T10:07:15.034Z</time></trkpt><trkpt lat="45.7011849" lon="11.0096577"><ele>1638.0</ele><time>2026-05-02T10:07:15.975Z</time></trkpt><trkpt lat="45.7012998" lon="11.0097265"><ele>1638.0</ele><time>2026-05-02T10:07:18.024Z</time></trkpt><trkpt lat="45.7013614" lon="11.009755"><ele>1638.5</ele><time>2026-05-02T10:07:19.033Z</time></trkpt><trkpt lat="45.7014268" lon="11.0097769"><ele>1639.0</ele><time>2026-05-02T10:07:19.96Z</time></trkpt><trkpt lat="45.701489" lon="11.0098083"><ele>1639.5</ele><time>2026-05-02T10:07:20.967Z</time></trkpt><trkpt lat="45.7015522" lon="11.0098351"><ele>1640.0</ele><time>2026-05-02T10:07:22.061Z</time></trkpt><trkpt lat="45.701617" lon="11.0098562"><ele>1640.5</ele><time>2026-05-02T10:07:22.962Z</time></trkpt><trkpt lat="45.7016815" lon="11.0098678"><ele>1641.0</ele><time>2026-05-02T10:07:23.978Z</time></trkpt><trkpt lat="45.7018072" lon="11.0098729"><ele>1641.0</ele><time>2026-05-02T10:07:25.964Z</time></trkpt><trkpt lat="45.7019149" lon="11.009876"><ele>1641.0</ele><time>2026-05-02T10:07:28.022Z</time></trkpt><trkpt lat="45.7020283" lon="11.0099013"><ele>1641.0</ele><time>2026-05-02T10:07:30.021Z</time></trkpt><trkpt lat="45.7020913" lon="11.0099236"><ele>1641.0</ele><time>2026-05-02T10:07:30.955Z</time></trkpt><trkpt lat="45.7021536" lon="11.0099396"><ele>1641.0</ele><time>2026-05-02T10:07:31.968Z</time></trkpt><trkpt lat="45.7022231" lon="11.0099516"><ele>1641.0</ele><time>2026-05-02T10:07:32.969Z</time></trkpt><trkpt lat="45.7022982" lon="11.0099622"><ele>1641.9999999999998</ele><time>2026-05-02T10:07:33.96Z</time></trkpt><trkpt lat="45.7023678" lon="11.0099755"><ele>1643.0</ele><time>2026-05-02T10:07:34.963Z</time></trkpt><trkpt lat="45.7024346" lon="11.0099942"><ele>1644.0</ele><time>2026-05-02T10:07:35.965Z</time></trkpt><trkpt lat="45.7025047" lon="11.0100167"><ele>1645.0</ele><time>2026-05-02T10:07:37.041Z</time></trkpt><trkpt lat="45.7025712" lon="11.0100424"><ele>1646.0</ele><time>2026-05-02T10:07:38.049Z</time></trkpt><trkpt lat="45.7026369" lon="11.0100695"><ele>1646.9999999999998</ele><time>2026-05-02T10:07:38.971Z</time></trkpt><trkpt lat="45.7026984" lon="11.0100994"><ele>1648.0</ele><time>2026-05-02T10:07:39.97Z</time></trkpt><trkpt lat="45.702767" lon="11.0101365"><ele>1650.6666666666667</ele><time>2026-05-02T10:07:40.974Z</time></trkpt><trkpt lat="45.7028336" lon="11.0101707"><ele>1653.3333333333335</ele><time>2026-05-02T10:07:41.969Z</time></trkpt><trkpt lat="45.7028949" lon="11.0102083"><ele>1656.0</ele><time>2026-05-02T10:07:42.971Z</time></trkpt><trkpt lat="45.7029522" lon="11.0102513"><ele>1658.6666666666665</ele><time>2026-05-02T10:07:43.979Z</time></trkpt><trkpt lat="45.7030345" lon="11.0103173"><ele>1661.3333333333333</ele><time>2026-05-02T10:07:45.972Z</time></trkpt><trkpt lat="45.7031147" lon="11.0104071"><ele>1664.0</ele><time>2026-05-02T10:07:47.996Z</time></trkpt><trkpt lat="45.703198" lon="11.0105218"><ele>1664.0</ele><time>2026-05-02T10:07:50.041Z</time></trkpt><trkpt lat="45.7032798" lon="11.0106182"><ele>1664.0</ele><time>2026-05-02T10:07:51.976Z</time></trkpt><trkpt lat="45.7033703" lon="11.0106753"><ele>1664.0</ele><time>2026-05-02T10:07:54.048Z</time></trkpt><trkpt lat="45.7034944" lon="11.0106934"><ele>1664.0</ele><time>2026-05-02T10:07:55.968Z</time></trkpt><trkpt lat="45.7036178" lon="11.0107058"><ele>1665.25</ele><time>2026-05-02T10:07:57.964Z</time></trkpt><trkpt lat="45.7037467" lon="11.0107162"><ele>1666.5</ele><time>2026-05-02T10:08:00.052Z</time></trkpt><trkpt lat="45.7038621" lon="11.0107309"><ele>1667.75</ele><time>2026-05-02T10:08:01.962Z</time></trkpt><trkpt lat="45.7039795" lon="11.0107639"><ele>1669.0</ele><time>2026-05-02T10:08:04.037Z</time></trkpt><trkpt lat="45.7041005" lon="11.0108133"><ele>1671.0</ele><time>2026-05-02T10:08:05.972Z</time></trkpt><trkpt lat="45.7041619" lon="11.0108379"><ele>1673.0</ele><time>2026-05-02T10:08:06.975Z</time></trkpt><trkpt lat="45.7042792" lon="11.0108766"><ele>1675.0</ele><time>2026-05-02T10:08:09.024Z</time></trkpt><trkpt lat="45.7043941" lon="11.0109106"><ele>1677.0</ele><time>2026-05-02T10:08:10.951Z</time></trkpt><trkpt lat="45.7045038" lon="11.0109764"><ele>1679.0</ele><time>2026-05-02T10:08:12.969Z</time></trkpt><trkpt lat="45.7046099" lon="11.0110323"><ele>1679.8333333333333</ele><time>2026-05-02T10:08:14.976Z</time></trkpt><trkpt lat="45.7046722" lon="11.0110556"><ele>1680.6666666666665</ele><time>2026-05-02T10:08:15.965Z</time></trkpt><trkpt lat="45.7047388" lon="11.0110793"><ele>1681.5</ele><time>2026-05-02T10:08:16.965Z</time></trkpt><trkpt lat="45.7048583" lon="11.011127"><ele>1682.3333333333335</ele><time>2026-05-02T10:08:19.033Z</time></trkpt><trkpt lat="45.70498" lon="11.0111751"><ele>1683.1666666666667</ele><time>2026-05-02T10:08:20.972Z</time></trkpt><trkpt lat="45.7050396" lon="11.0112043"><ele>1684.0</ele><time>2026-05-02T10:08:21.971Z</time></trkpt><trkpt lat="45.7051551" lon="11.0112824"><ele>1684.0000000000002</ele><time>2026-05-02T10:08:23.968Z</time></trkpt><trkpt lat="45.7052113" lon="11.0113358"><ele>1684.0</ele><time>2026-05-02T10:08:24.971Z</time></trkpt><trkpt lat="45.705267" lon="11.0113896"><ele>1684.0</ele><time>2026-05-02T10:08:25.965Z</time></trkpt><trkpt lat="45.705322" lon="11.011452"><ele>1684.0</ele><time>2026-05-02T10:08:26.961Z</time></trkpt><trkpt lat="45.7053739" lon="11.0115168"><ele>1684.0</ele><time>2026-05-02T10:08:28.071Z</time></trkpt><trkpt lat="45.7054206" lon="11.0115848"><ele>1684.0000000000002</ele><time>2026-05-02T10:08:29.033Z</time></trkpt><trkpt lat="45.7054656" lon="11.0116479"><ele>1684.0</ele><time>2026-05-02T10:08:30.037Z</time></trkpt><trkpt lat="45.7055421" lon="11.011772"><ele>1686.6</ele><time>2026-05-02T10:08:31.975Z</time></trkpt><trkpt lat="45.7056429" lon="11.0118807"><ele>1689.2</ele><time>2026-05-02T10:08:34.047Z</time></trkpt><trkpt lat="45.7056983" lon="11.0119324"><ele>1691.8</ele><time>2026-05-02T10:08:35.025Z</time></trkpt><trkpt lat="45.7057538" lon="11.0119818"><ele>1694.3999999999999</ele><time>2026-05-02T10:08:35.97Z</time></trkpt><trkpt lat="45.7058647" lon="11.0120736"><ele>1697.0</ele><time>2026-05-02T10:08:37.983Z</time></trkpt><trkpt lat="45.7059184" lon="11.0121234"><ele>1696.9999999999998</ele><time>2026-05-02T10:08:39.058Z</time></trkpt><trkpt lat="45.7059726" lon="11.0121786"><ele>1697.0</ele><time>2026-05-02T10:08:39.978Z</time></trkpt><trkpt lat="45.7060337" lon="11.0122265"><ele>1697.0</ele><time>2026-05-02T10:08:40.978Z</time></trkpt><trkpt lat="45.7060987" lon="11.0122656"><ele>1697.0</ele><time>2026-05-02T10:08:42.058Z</time></trkpt><trkpt lat="45.7062051" lon="11.0123391"><ele>1696.9999999999998</ele><time>2026-05-02T10:08:44.04Z</time></trkpt><trkpt lat="45.7063143" lon="11.0124052"><ele>1697.0</ele><time>2026-05-02T10:08:45.985Z</time></trkpt><trkpt lat="45.7064053" lon="11.0124761"><ele>1697.1666666666665</ele><time>2026-05-02T10:08:47.978Z</time></trkpt><trkpt lat="45.7064604" lon="11.0125222"><ele>1697.3333333333333</ele><time>2026-05-02T10:08:49.003Z</time></trkpt><trkpt lat="45.7065751" lon="11.012612"><ele>1697.5</ele><time>2026-05-02T10:08:50.983Z</time></trkpt><trkpt lat="45.7066374" lon="11.0126489"><ele>1697.6666666666665</ele><time>2026-05-02T10:08:52.043Z</time></trkpt><trkpt lat="45.7067071" lon="11.0126752"><ele>1697.8333333333333</ele><time>2026-05-02T10:08:52.984Z</time></trkpt><trkpt lat="45.7067708" lon="11.0126963"><ele>1698.0</ele><time>2026-05-02T10:08:53.981Z</time></trkpt><trkpt lat="45.7068301" lon="11.0127326"><ele>1698.0</ele><time>2026-05-02T10:08:54.975Z</time></trkpt><trkpt lat="45.7068849" lon="11.0127878"><ele>1698.0</ele><time>2026-05-02T10:08:55.976Z</time></trkpt><trkpt lat="45.7069329" lon="11.0128498"><ele>1698.0</ele><time>2026-05-02T10:08:56.993Z</time></trkpt><trkpt lat="45.706978" lon="11.0129317"><ele>1698.0</ele><time>2026-05-02T10:08:57.996Z</time></trkpt><trkpt lat="45.7070237" lon="11.0130113"><ele>1698.0</ele><time>2026-05-02T10:08:58.986Z</time></trkpt><trkpt lat="45.7070614" lon="11.0130917"><ele>1698.0</ele><time>2026-05-02T10:09:00.037Z</time></trkpt><trkpt lat="45.7071467" lon="11.0132289"><ele>1698.1666666666667</ele><time>2026-05-02T10:09:01.97Z</time></trkpt><trkpt lat="45.707189" lon="11.0133067"><ele>1698.3333333333335</ele><time>2026-05-02T10:09:02.96Z</time></trkpt><trkpt lat="45.7072271" lon="11.0133946"><ele>1698.5</ele><time>2026-05-02T10:09:03.966Z</time></trkpt><trkpt lat="45.7072621" lon="11.0134773"><ele>1698.6666666666667</ele><time>2026-05-02T10:09:04.964Z</time></trkpt><trkpt lat="45.7072599" lon="11.0136616"><ele>1698.8333333333335</ele><time>2026-05-02T10:09:06.961Z</time></trkpt><trkpt lat="45.7072265" lon="11.0137494"><ele>1699.0</ele><time>2026-05-02T10:09:08.025Z</time></trkpt><trkpt lat="45.7071723" lon="11.0138075"><ele>1699.0000000000002</ele><time>2026-05-02T10:09:09.028Z</time></trkpt><trkpt lat="45.7071076" lon="11.0138594"><ele>1699.0</ele><time>2026-05-02T10:09:10.013Z</time></trkpt><trkpt lat="45.7070423" lon="11.0139218"><ele>1699.0</ele><time>2026-05-02T10:09:10.966Z</time></trkpt><trkpt lat="45.7069717" lon="11.0139984"><ele>1699.0</ele><time>2026-05-02T10:09:11.97Z</time></trkpt><trkpt lat="45.7069129" lon="11.0140928"><ele>1699.0000000000002</ele><time>2026-05-02T10:09:12.965Z</time></trkpt><trkpt lat="45.7068618" lon="11.0141935"><ele>1699.0</ele><time>2026-05-02T10:09:13.952Z</time></trkpt><trkpt lat="45.7068127" lon="11.0142995"><ele>1696.8333333333335</ele><time>2026-05-02T10:09:15.04Z</time></trkpt><trkpt lat="45.7067731" lon="11.0144177"><ele>1694.6666666666667</ele><time>2026-05-02T10:09:15.974Z</time></trkpt><trkpt lat="45.7067329" lon="11.0145296"><ele>1692.5</ele><time>2026-05-02T10:09:17.035Z</time></trkpt><trkpt lat="45.7066831" lon="11.0146343"><ele>1690.3333333333335</ele><time>2026-05-02T10:09:18.027Z</time></trkpt><trkpt lat="45.7066514" lon="11.0147395"><ele>1688.1666666666667</ele><time>2026-05-02T10:09:19.036Z</time></trkpt><trkpt lat="45.7066446" lon="11.0148433"><ele>1686.0</ele><time>2026-05-02T10:09:19.97Z</time></trkpt><trkpt lat="45.7066614" lon="11.0149412"><ele>1686.8333333333333</ele><time>2026-05-02T10:09:20.979Z</time></trkpt><trkpt lat="45.7066945" lon="11.0150431"><ele>1687.6666666666665</ele><time>2026-05-02T10:09:21.977Z</time></trkpt><trkpt lat="45.7067375" lon="11.0151443"><ele>1688.5</ele><time>2026-05-02T10:09:22.991Z</time></trkpt><trkpt lat="45.7067764" lon="11.0152401"><ele>1689.3333333333333</ele><time>2026-05-02T10:09:24.021Z</time></trkpt><trkpt lat="45.7067961" lon="11.0153467"><ele>1690.1666666666665</ele><time>2026-05-02T10:09:24.978Z</time></trkpt><trkpt lat="45.7067909" lon="11.015461"><ele>1691.0</ele><time>2026-05-02T10:09:25.977Z</time></trkpt><trkpt lat="45.7067532" lon="11.015572"><ele>1690.9999999999998</ele><time>2026-05-02T10:09:26.981Z</time></trkpt><trkpt lat="45.7066883" lon="11.0156385"><ele>1691.0</ele><time>2026-05-02T10:09:27.968Z</time></trkpt><trkpt lat="45.7066147" lon="11.0156883"><ele>1691.0</ele><time>2026-05-02T10:09:28.979Z</time></trkpt><trkpt lat="45.7065245" lon="11.0157338"><ele>1691.0</ele><time>2026-05-02T10:09:30.033Z</time></trkpt><trkpt lat="45.7064341" lon="11.0157846"><ele>1690.9999999999998</ele><time>2026-05-02T10:09:30.976Z</time></trkpt><trkpt lat="45.7063488" lon="11.015838"><ele>1691.0</ele><time>2026-05-02T10:09:31.968Z</time></trkpt><trkpt lat="45.706273" lon="11.0159053"><ele>1691.3333333333333</ele><time>2026-05-02T10:09:33.01Z</time></trkpt><trkpt lat="45.7062089" lon="11.0159863"><ele>1691.6666666666665</ele><time>2026-05-02T10:09:34.054Z</time></trkpt><trkpt lat="45.7061535" lon="11.0160815"><ele>1692.0</ele><time>2026-05-02T10:09:34.983Z</time></trkpt><trkpt lat="45.7061238" lon="11.0161857"><ele>1692.3333333333335</ele><time>2026-05-02T10:09:35.963Z</time></trkpt><trkpt lat="45.7061122" lon="11.0162911"><ele>1692.6666666666667</ele><time>2026-05-02T10:09:36.985Z</time></trkpt><trkpt lat="45.7061309" lon="11.0164044"><ele>1693.0</ele><time>2026-05-02T10:09:37.977Z</time></trkpt><trkpt lat="45.7061708" lon="11.0165294"><ele>1694.0</ele><time>2026-05-02T10:09:38.982Z</time></trkpt><trkpt lat="45.7062267" lon="11.0166669"><ele>1695.0</ele><time>2026-05-02T10:09:39.979Z</time></trkpt><trkpt lat="45.7062913" lon="11.0168285"><ele>1696.0</ele><time>2026-05-02T10:09:40.982Z</time></trkpt><trkpt lat="45.7063546" lon="11.0169816"><ele>1697.0</ele><time>2026-05-02T10:09:41.976Z</time></trkpt><trkpt lat="45.7064008" lon="11.0171393"><ele>1697.0</ele><time>2026-05-02T10:09:42.969Z</time></trkpt><trkpt lat="45.7064126" lon="11.0172983"><ele>1697.0</ele><time>2026-05-02T10:09:43.983Z</time></trkpt><trkpt lat="45.7064001" lon="11.017449"><ele>1697.0</ele><time>2026-05-02T10:09:44.97Z</time></trkpt><trkpt lat="45.7063648" lon="11.0176014"><ele>1697.0</ele><time>2026-05-02T10:09:45.966Z</time></trkpt><trkpt lat="45.7063007" lon="11.0177699"><ele>1694.6666666666665</ele><time>2026-05-02T10:09:46.976Z</time></trkpt><trkpt lat="45.7062044" lon="11.0179401"><ele>1692.3333333333335</ele><time>2026-05-02T10:09:47.973Z</time></trkpt><trkpt lat="45.7060793" lon="11.0181248"><ele>1690.0</ele><time>2026-05-02T10:09:48.969Z</time></trkpt><trkpt lat="45.705941" lon="11.0183047"><ele>1685.0</ele><time>2026-05-02T10:09:50.041Z</time></trkpt><trkpt lat="45.7058104" lon="11.0184708"><ele>1680.0</ele><time>2026-05-02T10:09:50.972Z</time></trkpt><trkpt lat="45.7056816" lon="11.0186102"><ele>1675.0</ele><time>2026-05-02T10:09:51.977Z</time></trkpt><trkpt lat="45.7055637" lon="11.0187435"><ele>1675.0</ele><time>2026-05-02T10:09:53.002Z</time></trkpt><trkpt lat="45.7054605" lon="11.0188759"><ele>1675.0</ele><time>2026-05-02T10:09:53.981Z</time></trkpt><trkpt lat="45.705363" lon="11.0190066"><ele>1675.0</ele><time>2026-05-02T10:09:55.048Z</time></trkpt><trkpt lat="45.7052684" lon="11.0191294"><ele>1675.0</ele><time>2026-05-02T10:09:55.976Z</time></trkpt><trkpt lat="45.7051795" lon="11.019256"><ele>1672.75</ele><time>2026-05-02T10:09:56.985Z</time></trkpt><trkpt lat="45.7050899" lon="11.0193815"><ele>1670.5</ele><time>2026-05-02T10:09:58.007Z</time></trkpt><trkpt lat="45.7050107" lon="11.0195045"><ele>1668.25</ele><time>2026-05-02T10:09:59.041Z</time></trkpt><trkpt lat="45.7049362" lon="11.0196211"><ele>1666.0</ele><time>2026-05-02T10:10:00.035Z</time></trkpt><trkpt lat="45.7048826" lon="11.0197401"><ele>1666.0</ele><time>2026-05-02T10:10:00.978Z</time></trkpt><trkpt lat="45.7048394" lon="11.0198633"><ele>1666.0</ele><time>2026-05-02T10:10:01.975Z</time></trkpt><trkpt lat="45.7048116" lon="11.0199958"><ele>1666.0</ele><time>2026-05-02T10:10:02.975Z</time></trkpt><trkpt lat="45.704794" lon="11.0201215"><ele>1666.0</ele><time>2026-05-02T10:10:03.969Z</time></trkpt><trkpt lat="45.7047908" lon="11.0202661"><ele>1666.0</ele><time>2026-05-02T10:10:05.039Z</time></trkpt><trkpt lat="45.7047917" lon="11.0204194"><ele>1667.1999999999998</ele><time>2026-05-02T10:10:05.982Z</time></trkpt><trkpt lat="45.7047926" lon="11.0205688"><ele>1668.3999999999999</ele><time>2026-05-02T10:10:07.035Z</time></trkpt><trkpt lat="45.7047962" lon="11.0207221"><ele>1669.6</ele><time>2026-05-02T10:10:08.027Z</time></trkpt><trkpt lat="45.7048102" lon="11.0208796"><ele>1670.8</ele><time>2026-05-02T10:10:09.036Z</time></trkpt><trkpt lat="45.7048415" lon="11.0210351"><ele>1672.0</ele><time>2026-05-02T10:10:10.05Z</time></trkpt><trkpt lat="45.7048832" lon="11.021188"><ele>1672.0</ele><time>2026-05-02T10:10:10.974Z</time></trkpt><trkpt lat="45.7049307" lon="11.0213372"><ele>1672.0</ele><time>2026-05-02T10:10:11.976Z</time></trkpt><trkpt lat="45.7049901" lon="11.0214823"><ele>1672.0</ele><time>2026-05-02T10:10:12.971Z</time></trkpt><trkpt lat="45.705046" lon="11.0216262"><ele>1672.0</ele><time>2026-05-02T10:10:14.041Z</time></trkpt><trkpt lat="45.7050977" lon="11.0217671"><ele>1670.6</ele><time>2026-05-02T10:10:15.026Z</time></trkpt><trkpt lat="45.7051543" lon="11.0218935"><ele>1669.1999999999998</ele><time>2026-05-02T10:10:15.971Z</time></trkpt><trkpt lat="45.7052032" lon="11.0220204"><ele>1667.8</ele><time>2026-05-02T10:10:16.979Z</time></trkpt><trkpt lat="45.7052312" lon="11.0221439"><ele>1666.4</ele><time>2026-05-02T10:10:17.97Z</time></trkpt><trkpt lat="45.7052323" lon="11.022282"><ele>1665.0</ele><time>2026-05-02T10:10:18.964Z</time></trkpt><trkpt lat="45.7052129" lon="11.0224183"><ele>1664.0</ele><time>2026-05-02T10:10:19.965Z</time></trkpt><trkpt lat="45.7051807" lon="11.0225513"><ele>1663.0</ele><time>2026-05-02T10:10:20.982Z</time></trkpt><trkpt lat="45.705135" lon="11.0226648"><ele>1662.0</ele><time>2026-05-02T10:10:21.953Z</time></trkpt><trkpt lat="45.7050672" lon="11.0227969"><ele>1661.0</ele><time>2026-05-02T10:10:22.971Z</time></trkpt><trkpt lat="45.7049973" lon="11.0229607"><ele>1660.0</ele><time>2026-05-02T10:10:23.98Z</time></trkpt><trkpt lat="45.7049275" lon="11.0231454"><ele>1660.6666666666667</ele><time>2026-05-02T10:10:24.969Z</time></trkpt><trkpt lat="45.7048609" lon="11.0233409"><ele>1661.3333333333335</ele><time>2026-05-02T10:10:25.963Z</time></trkpt><trkpt lat="45.7047946" lon="11.0235462"><ele>1662.0</ele><time>2026-05-02T10:10:26.962Z</time></trkpt><trkpt lat="45.7047326" lon="11.0237418"><ele>1662.0</ele><time>2026-05-02T10:10:27.969Z</time></trkpt><trkpt lat="45.7046683" lon="11.0239381"><ele>1662.0</ele><time>2026-05-02T10:10:28.982Z</time></trkpt><trkpt lat="45.7045994" lon="11.0241249"><ele>1662.0</ele><time>2026-05-02T10:10:29.974Z</time></trkpt><trkpt lat="45.7045484" lon="11.0242744"><ele>1662.0</ele><time>2026-05-02T10:10:30.978Z</time></trkpt><trkpt lat="45.7045071" lon="11.0244032"><ele>1662.8</ele><time>2026-05-02T10:10:31.96Z</time></trkpt><trkpt lat="45.7044535" lon="11.0245102"><ele>1663.6</ele><time>2026-05-02T10:10:32.984Z</time></trkpt><trkpt lat="45.704383" lon="11.0245967"><ele>1664.3999999999999</ele><time>2026-05-02T10:10:33.978Z</time></trkpt><trkpt lat="45.704291" lon="11.0246564"><ele>1665.1999999999998</ele><time>2026-05-02T10:10:34.98Z</time></trkpt><trkpt lat="45.7041867" lon="11.024698"><ele>1666.0</ele><time>2026-05-02T10:10:35.979Z</time></trkpt><trkpt lat="45.7040704" lon="11.024721"><ele>1662.0</ele><time>2026-05-02T10:10:36.977Z</time></trkpt><trkpt lat="45.7039494" lon="11.0247575"><ele>1658.0</ele><time>2026-05-02T10:10:37.978Z</time></trkpt><trkpt lat="45.7038323" lon="11.0247996"><ele>1654.0</ele><time>2026-05-02T10:10:38.978Z</time></trkpt><trkpt lat="45.7037156" lon="11.0248529"><ele>1650.0</ele><time>2026-05-02T10:10:39.973Z</time></trkpt><trkpt lat="45.7035984" lon="11.0249197"><ele>1649.75</ele><time>2026-05-02T10:10:40.977Z</time></trkpt><trkpt lat="45.7034865" lon="11.0250049"><ele>1649.5</ele><time>2026-05-02T10:10:41.974Z</time></trkpt><trkpt lat="45.7033812" lon="11.0250928"><ele>1649.25</ele><time>2026-05-02T10:10:42.977Z</time></trkpt><trkpt lat="45.7032864" lon="11.0251819"><ele>1649.0</ele><time>2026-05-02T10:10:43.971Z</time></trkpt><trkpt lat="45.7032016" lon="11.0252713"><ele>1649.0</ele><time>2026-05-02T10:10:45.031Z</time></trkpt><trkpt lat="45.703114" lon="11.025365"><ele>1649.0</ele><time>2026-05-02T10:10:45.978Z</time></trkpt><trkpt lat="45.7030369" lon="11.0254619"><ele>1649.0</ele><time>2026-05-02T10:10:46.967Z</time></trkpt><trkpt lat="45.7029655" lon="11.0255651"><ele>1649.0</ele><time>2026-05-02T10:10:48.006Z</time></trkpt><trkpt lat="45.7028988" lon="11.0256904"><ele>1649.0</ele><time>2026-05-02T10:10:49.02Z</time></trkpt><trkpt lat="45.7028427" lon="11.025819"><ele>1651.8000000000002</ele><time>2026-05-02T10:10:50.036Z</time></trkpt><trkpt lat="45.7027958" lon="11.0259577"><ele>1654.6000000000001</ele><time>2026-05-02T10:10:50.984Z</time></trkpt><trkpt lat="45.7027637" lon="11.0260972"><ele>1657.4</ele><time>2026-05-02T10:10:51.976Z</time></trkpt><trkpt lat="45.7027518" lon="11.0262268"><ele>1660.2</ele><time>2026-05-02T10:10:53.008Z</time></trkpt><trkpt lat="45.7027577" lon="11.0263586"><ele>1663.0</ele><time>2026-05-02T10:10:54.037Z</time></trkpt><trkpt lat="45.7027724" lon="11.0264959"><ele>1663.0</ele><time>2026-05-02T10:10:55.032Z</time></trkpt><trkpt lat="45.7028038" lon="11.026633"><ele>1663.0</ele><time>2026-05-02T10:10:55.972Z</time></trkpt><trkpt lat="45.702848" lon="11.0267739"><ele>1663.0</ele><time>2026-05-02T10:10:56.982Z</time></trkpt><trkpt lat="45.702899" lon="11.0269123"><ele>1663.0</ele><time>2026-05-02T10:10:57.968Z</time></trkpt><trkpt lat="45.702947" lon="11.0270462"><ele>1663.0</ele><time>2026-05-02T10:10:58.963Z</time></trkpt><trkpt lat="45.7029968" lon="11.0271764"><ele>1662.6666666666667</ele><time>2026-05-02T10:10:59.977Z</time></trkpt><trkpt lat="45.7030398" lon="11.0273024"><ele>1662.3333333333335</ele><time>2026-05-02T10:11:00.975Z</time></trkpt><trkpt lat="45.7030741" lon="11.0274314"><ele>1662.0</ele><time>2026-05-02T10:11:01.977Z</time></trkpt><trkpt lat="45.7030965" lon="11.0275528"><ele>1661.6666666666665</ele><time>2026-05-02T10:11:03.039Z</time></trkpt><trkpt lat="45.7031209" lon="11.0276631"><ele>1661.3333333333333</ele><time>2026-05-02T10:11:04.033Z</time></trkpt><trkpt lat="45.7031472" lon="11.0277633"><ele>1661.0</ele><time>2026-05-02T10:11:05.041Z</time></trkpt><trkpt lat="45.7031699" lon="11.0278604"><ele>1659.4999999999998</ele><time>2026-05-02T10:11:05.98Z</time></trkpt><trkpt lat="45.7031767" lon="11.0279595"><ele>1658.0</ele><time>2026-05-02T10:11:06.983Z</time></trkpt><trkpt lat="45.7031593" lon="11.0280633"><ele>1656.5</ele><time>2026-05-02T10:11:07.975Z</time></trkpt><trkpt lat="45.7031121" lon="11.0281676"><ele>1655.0</ele><time>2026-05-02T10:11:08.978Z</time></trkpt><trkpt lat="45.7030311" lon="11.0282455"><ele>1653.4999999999998</ele><time>2026-05-02T10:11:09.969Z</time></trkpt><trkpt lat="45.7029318" lon="11.0283102"><ele>1652.0</ele><time>2026-05-02T10:11:10.963Z</time></trkpt><trkpt lat="45.7028231" lon="11.0283764"><ele>1647.25</ele><time>2026-05-02T10:11:11.994Z</time></trkpt><trkpt lat="45.7027046" lon="11.0284385"><ele>1642.5</ele><time>2026-05-02T10:11:13.024Z</time></trkpt><trkpt lat="45.7025868" lon="11.0284852"><ele>1637.75</ele><time>2026-05-02T10:11:13.98Z</time></trkpt><trkpt lat="45.7024827" lon="11.0285385"><ele>1633.0</ele><time>2026-05-02T10:11:15.032Z</time></trkpt><trkpt lat="45.7023888" lon="11.0285867"><ele>1633.0000000000002</ele><time>2026-05-02T10:11:15.954Z</time></trkpt><trkpt lat="45.7023066" lon="11.0286455"><ele>1633.0</ele><time>2026-05-02T10:11:16.957Z</time></trkpt><trkpt lat="45.702243" lon="11.0287138"><ele>1633.0</ele><time>2026-05-02T10:11:17.975Z</time></trkpt><trkpt lat="45.7022037" lon="11.0288124"><ele>1633.0</ele><time>2026-05-02T10:11:18.977Z</time></trkpt><trkpt lat="45.7021934" lon="11.0289216"><ele>1633.0000000000002</ele><time>2026-05-02T10:11:19.978Z</time></trkpt><trkpt lat="45.7022182" lon="11.0290205"><ele>1633.0</ele><time>2026-05-02T10:11:20.961Z</time></trkpt><trkpt lat="45.7022638" lon="11.0291032"><ele>1634.0</ele><time>2026-05-02T10:11:21.953Z</time></trkpt><trkpt lat="45.7023221" lon="11.0291705"><ele>1635.0</ele><time>2026-05-02T10:11:22.949Z</time></trkpt><trkpt lat="45.7023995" lon="11.0292465"><ele>1636.0</ele><time>2026-05-02T10:11:23.95Z</time></trkpt><trkpt lat="45.702492" lon="11.0293204"><ele>1637.0</ele><time>2026-05-02T10:11:24.968Z</time></trkpt><trkpt lat="45.7025942" lon="11.0293869"><ele>1638.0</ele><time>2026-05-02T10:11:25.985Z</time></trkpt><trkpt lat="45.7027089" lon="11.0294528"><ele>1640.5</ele><time>2026-05-02T10:11:27.032Z</time></trkpt><trkpt lat="45.7028293" lon="11.029508"><ele>1643.0</ele><time>2026-05-02T10:11:27.975Z</time></trkpt><trkpt lat="45.702946" lon="11.0295485"><ele>1645.5</ele><time>2026-05-02T10:11:28.967Z</time></trkpt><trkpt lat="45.7030701" lon="11.0295601"><ele>1648.0</ele><time>2026-05-02T10:11:30.064Z</time></trkpt><trkpt lat="45.7031986" lon="11.0295658"><ele>1648.0</ele><time>2026-05-02T10:11:30.964Z</time></trkpt><trkpt lat="45.7033298" lon="11.0295645"><ele>1648.0</ele><time>2026-05-02T10:11:31.977Z</time></trkpt><trkpt lat="45.7034634" lon="11.0295471"><ele>1648.0</ele><time>2026-05-02T10:11:32.963Z</time></trkpt><trkpt lat="45.7035961" lon="11.0295259"><ele>1648.0</ele><time>2026-05-02T10:11:33.972Z</time></trkpt><trkpt lat="45.7037192" lon="11.0295076"><ele>1647.5</ele><time>2026-05-02T10:11:35.029Z</time></trkpt><trkpt lat="45.703838" lon="11.0294892"><ele>1647.0</ele><time>2026-05-02T10:11:35.956Z</time></trkpt><trkpt lat="45.7039478" lon="11.0294746"><ele>1646.5</ele><time>2026-05-02T10:11:36.969Z</time></trkpt><trkpt lat="45.7040616" lon="11.0294629"><ele>1646.0</ele><time>2026-05-02T10:11:37.972Z</time></trkpt><trkpt lat="45.7041807" lon="11.0294471"><ele>1646.0</ele><time>2026-05-02T10:11:38.981Z</time></trkpt><trkpt lat="45.704287" lon="11.0294137"><ele>1646.0</ele><time>2026-05-02T10:11:39.981Z</time></trkpt><trkpt lat="45.7043887" lon="11.0293879"><ele>1646.0</ele><time>2026-05-02T10:11:40.971Z</time></trkpt><trkpt lat="45.7044936" lon="11.0293855"><ele>1646.0</ele><time>2026-05-02T10:11:41.974Z</time></trkpt><trkpt lat="45.7046051" lon="11.0293803"><ele>1646.0</ele><time>2026-05-02T10:11:42.969Z</time></trkpt><trkpt lat="45.7047124" lon="11.0293909"><ele>1645.8</ele><time>2026-05-02T10:11:43.953Z</time></trkpt><trkpt lat="45.7048227" lon="11.0294157"><ele>1645.6</ele><time>2026-05-02T10:11:44.959Z</time></trkpt><trkpt lat="45.7049323" lon="11.0294503"><ele>1645.4</ele><time>2026-05-02T10:11:45.973Z</time></trkpt><trkpt lat="45.7050326" lon="11.0294948"><ele>1645.2</ele><time>2026-05-02T10:11:46.969Z</time></trkpt><trkpt lat="45.7051168" lon="11.0295386"><ele>1645.0</ele><time>2026-05-02T10:11:47.971Z</time></trkpt><trkpt lat="45.7051945" lon="11.0296139"><ele>1645.6</ele><time>2026-05-02T10:11:48.966Z</time></trkpt><trkpt lat="45.7052478" lon="11.0297205"><ele>1646.2</ele><time>2026-05-02T10:11:49.973Z</time></trkpt><trkpt lat="45.7052844" lon="11.0298551"><ele>1646.8000000000002</ele><time>2026-05-02T10:11:50.968Z</time></trkpt><trkpt lat="45.7052913" lon="11.0300113"><ele>1647.4</ele><time>2026-05-02T10:11:51.965Z</time></trkpt><trkpt lat="45.7052639" lon="11.0301697"><ele>1648.0</ele><time>2026-05-02T10:11:52.969Z</time></trkpt><trkpt lat="45.7052211" lon="11.0303251"><ele>1644.75</ele><time>2026-05-02T10:11:53.974Z</time></trkpt><trkpt lat="45.7051601" lon="11.0304816"><ele>1641.5</ele><time>2026-05-02T10:11:54.967Z</time></trkpt><trkpt lat="45.7050931" lon="11.0306391"><ele>1638.25</ele><time>2026-05-02T10:11:55.973Z</time></trkpt><trkpt lat="45.7050222" lon="11.030808"><ele>1635.0</ele><time>2026-05-02T10:11:57.031Z</time></trkpt><trkpt lat="45.7049533" lon="11.0309683"><ele>1635.0</ele><time>2026-05-02T10:11:58.05Z</time></trkpt><trkpt lat="45.7048816" lon="11.0311164"><ele>1635.0</ele><time>2026-05-02T10:11:58.967Z</time></trkpt><trkpt lat="45.7048166" lon="11.031251"><ele>1635.0</ele><time>2026-05-02T10:12:00.039Z</time></trkpt><trkpt lat="45.7047566" lon="11.0313833"><ele>1635.0</ele><time>2026-05-02T10:12:00.968Z</time></trkpt><trkpt lat="45.7047056" lon="11.0315201"><ele>1638.25</ele><time>2026-05-02T10:12:01.958Z</time></trkpt><trkpt lat="45.7046757" lon="11.0316635"><ele>1641.5</ele><time>2026-05-02T10:12:03.039Z</time></trkpt><trkpt lat="45.7046553" lon="11.0318256"><ele>1644.75</ele><time>2026-05-02T10:12:04.041Z</time></trkpt><trkpt lat="45.7046458" lon="11.0319942"><ele>1648.0</ele><time>2026-05-02T10:12:04.997Z</time></trkpt><trkpt lat="45.7046473" lon="11.0321641"><ele>1648.0</ele><time>2026-05-02T10:12:05.97Z</time></trkpt><trkpt lat="45.7046479" lon="11.0323368"><ele>1648.0</ele><time>2026-05-02T10:12:06.962Z</time></trkpt><trkpt lat="45.7046263" lon="11.0324968"><ele>1648.0</ele><time>2026-05-02T10:12:08.071Z</time></trkpt><trkpt lat="45.7045848" lon="11.0326571"><ele>1648.0</ele><time>2026-05-02T10:12:09.035Z</time></trkpt><trkpt lat="45.7045282" lon="11.0328064"><ele>1646.25</ele><time>2026-05-02T10:12:09.974Z</time></trkpt><trkpt lat="45.7044465" lon="11.0329518"><ele>1644.5</ele><time>2026-05-02T10:12:10.962Z</time></trkpt><trkpt lat="45.7043549" lon="11.0330855"><ele>1642.75</ele><time>2026-05-02T10:12:11.963Z</time></trkpt><trkpt lat="45.7042532" lon="11.0332209"><ele>1641.0</ele><time>2026-05-02T10:12:12.989Z</time></trkpt><trkpt lat="45.7041467" lon="11.0333475"><ele>1641.0</ele><time>2026-05-02T10:12:13.971Z</time></trkpt><trkpt lat="45.704045" lon="11.0334648"><ele>1641.0</ele><time>2026-05-02T10:12:15.029Z</time></trkpt><trkpt lat="45.7039482" lon="11.0336257"><ele>1641.0</ele><time>2026-05-02T10:12:15.952Z</time></trkpt><trkpt lat="45.7038628" lon="11.0338009"><ele>1641.0</ele><time>2026-05-02T10:12:16.951Z</time></trkpt><trkpt lat="45.7037848" lon="11.0339525"><ele>1641.0</ele><time>2026-05-02T10:12:17.963Z</time></trkpt><trkpt lat="45.7036966" lon="11.0340925"><ele>1641.0</ele><time>2026-05-02T10:12:19.021Z</time></trkpt><trkpt lat="45.7035838" lon="11.0342357"><ele>1641.0</ele><time>2026-05-02T10:12:19.96Z</time></trkpt><trkpt lat="45.7034478" lon="11.0343379"><ele>1641.0</ele><time>2026-05-02T10:12:20.95Z</time></trkpt><trkpt lat="45.7032943" lon="11.0344284"><ele>1640.3333333333335</ele><time>2026-05-02T10:12:21.95Z</time></trkpt><trkpt lat="45.7031406" lon="11.0345117"><ele>1639.6666666666667</ele><time>2026-05-02T10:12:22.957Z</time></trkpt><trkpt lat="45.7029994" lon="11.034589"><ele>1639.0</ele><time>2026-05-02T10:12:23.974Z</time></trkpt><trkpt lat="45.7028709" lon="11.034655"><ele>1639.0</ele><time>2026-05-02T10:12:24.959Z</time></trkpt><trkpt lat="45.7027544" lon="11.0347133"><ele>1639.0</ele><time>2026-05-02T10:12:25.953Z</time></trkpt><trkpt lat="45.7026465" lon="11.0347662"><ele>1639.0</ele><time>2026-05-02T10:12:26.957Z</time></trkpt><trkpt lat="45.7025586" lon="11.0348313"><ele>1639.0</ele><time>2026-05-02T10:12:27.958Z</time></trkpt><trkpt lat="45.7024979" lon="11.0349132"><ele>1639.0</ele><time>2026-05-02T10:12:28.952Z</time></trkpt><trkpt lat="45.7024575" lon="11.0350207"><ele>1639.4</ele><time>2026-05-02T10:12:29.957Z</time></trkpt><trkpt lat="45.7024452" lon="11.035153"><ele>1639.8000000000002</ele><time>2026-05-02T10:12:30.956Z</time></trkpt><trkpt lat="45.7024667" lon="11.0352703"><ele>1640.1999999999998</ele><time>2026-05-02T10:12:31.956Z</time></trkpt><trkpt lat="45.7025111" lon="11.0353831"><ele>1640.6</ele><time>2026-05-02T10:12:32.965Z</time></trkpt><trkpt lat="45.7025809" lon="11.0354811"><ele>1641.0</ele><time>2026-05-02T10:12:34.023Z</time></trkpt><trkpt lat="45.702679" lon="11.03557"><ele>1643.25</ele><time>2026-05-02T10:12:35.019Z</time></trkpt><trkpt lat="45.7027858" lon="11.0356607"><ele>1645.5</ele><time>2026-05-02T10:12:35.964Z</time></trkpt><trkpt lat="45.702901" lon="11.0357768"><ele>1647.75</ele><time>2026-05-02T10:12:36.948Z</time></trkpt><trkpt lat="45.7030256" lon="11.0358893"><ele>1650.0</ele><time>2026-05-02T10:12:37.958Z</time></trkpt><trkpt lat="45.7031596" lon="11.0360201"><ele>1650.0</ele><time>2026-05-02T10:12:39.019Z</time></trkpt><trkpt lat="45.7033031" lon="11.0361688"><ele>1650.0</ele><time>2026-05-02T10:12:40.026Z</time></trkpt><trkpt lat="45.7034292" lon="11.0363014"><ele>1650.0</ele><time>2026-05-02T10:12:40.957Z</time></trkpt><trkpt lat="45.7035435" lon="11.0364253"><ele>1650.5</ele><time>2026-05-02T10:12:41.968Z</time></trkpt><trkpt lat="45.7036464" lon="11.0365504"><ele>1651.0</ele><time>2026-05-02T10:12:42.984Z</time></trkpt><trkpt lat="45.7037661" lon="11.0366709"><ele>1651.5</ele><time>2026-05-02T10:12:43.962Z</time></trkpt><trkpt lat="45.7038878" lon="11.0367796"><ele>1652.0</ele><time>2026-05-02T10:12:44.98Z</time></trkpt><trkpt lat="45.704014" lon="11.0368769"><ele>1652.0</ele><time>2026-05-02T10:12:45.957Z</time></trkpt><trkpt lat="45.7041319" lon="11.0369594"><ele>1652.0</ele><time>2026-05-02T10:12:47.051Z</time></trkpt><trkpt lat="45.7042571" lon="11.0370187"><ele>1652.0</ele><time>2026-05-02T10:12:48.055Z</time></trkpt><trkpt lat="45.7043842" lon="11.0370552"><ele>1652.0</ele><time>2026-05-02T10:12:48.967Z</time></trkpt><trkpt lat="45.7045236" lon="11.0370636"><ele>1654.0</ele><time>2026-05-02T10:12:50.035Z</time></trkpt><trkpt lat="45.7046706" lon="11.0370609"><ele>1656.0</ele><time>2026-05-02T10:12:50.973Z</time></trkpt><trkpt lat="45.7048269" lon="11.037062"><ele>1658.0</ele><time>2026-05-02T10:12:51.97Z</time></trkpt><trkpt lat="45.7049827" lon="11.0370591"><ele>1658.0</ele><time>2026-05-02T10:12:52.975Z</time></trkpt><trkpt lat="45.7051324" lon="11.0370527"><ele>1658.0</ele><time>2026-05-02T10:12:54.05Z</time></trkpt><trkpt lat="45.7052782" lon="11.0370557"><ele>1658.0</ele><time>2026-05-02T10:12:55.038Z</time></trkpt><trkpt lat="45.7054102" lon="11.0370678"><ele>1658.0</ele><time>2026-05-02T10:12:55.963Z</time></trkpt><trkpt lat="45.7055325" lon="11.0370773"><ele>1658.5</ele><time>2026-05-02T10:12:56.976Z</time></trkpt><trkpt lat="45.7056573" lon="11.0370711"><ele>1659.0</ele><time>2026-05-02T10:12:58.004Z</time></trkpt><trkpt lat="45.7057707" lon="11.0370465"><ele>1659.5</ele><time>2026-05-02T10:12:58.974Z</time></trkpt><trkpt lat="45.70588" lon="11.0370191"><ele>1660.0</ele><time>2026-05-02T10:13:00.044Z</time></trkpt><trkpt lat="45.7059785" lon="11.0369867"><ele>1660.0000000000002</ele><time>2026-05-02T10:13:00.963Z</time></trkpt><trkpt lat="45.706068" lon="11.0369452"><ele>1660.0</ele><time>2026-05-02T10:13:01.959Z</time></trkpt><trkpt lat="45.7061464" lon="11.0368996"><ele>1660.0</ele><time>2026-05-02T10:13:02.959Z</time></trkpt><trkpt lat="45.706217" lon="11.0368729"><ele>1660.0</ele><time>2026-05-02T10:13:03.957Z</time></trkpt><trkpt lat="45.7062854" lon="11.0368659"><ele>1660.0000000000002</ele><time>2026-05-02T10:13:04.963Z</time></trkpt><trkpt lat="45.7063509" lon="11.0369162"><ele>1660.0</ele><time>2026-05-02T10:13:05.955Z</time></trkpt><trkpt lat="45.7063932" lon="11.0369892"><ele>1661.0000000000002</ele><time>2026-05-02T10:13:07.022Z</time></trkpt><trkpt lat="45.7064061" lon="11.0370849"><ele>1662.0</ele><time>2026-05-02T10:13:08.019Z</time></trkpt><trkpt lat="45.7063932" lon="11.0371973"><ele>1663.0</ele><time>2026-05-02T10:13:09.025Z</time></trkpt><trkpt lat="45.7063547" lon="11.0372976"><ele>1664.0</ele><time>2026-05-02T10:13:09.954Z</time></trkpt><trkpt lat="45.7063014" lon="11.0374059"><ele>1665.0000000000002</ele><time>2026-05-02T10:13:10.974Z</time></trkpt><trkpt lat="45.7062455" lon="11.0375262"><ele>1666.0</ele><time>2026-05-02T10:13:11.963Z</time></trkpt><trkpt lat="45.706195" lon="11.0376688"><ele>1666.0000000000002</ele><time>2026-05-02T10:13:12.964Z</time></trkpt><trkpt lat="45.7061581" lon="11.0377973"><ele>1666.0</ele><time>2026-05-02T10:13:13.966Z</time></trkpt><trkpt lat="45.7061388" lon="11.0379125"><ele>1666.0</ele><time>2026-05-02T10:13:15.042Z</time></trkpt><trkpt lat="45.7061417" lon="11.0380343"><ele>1666.0</ele><time>2026-05-02T10:13:15.968Z</time></trkpt><trkpt lat="45.706151" lon="11.0381615"><ele>1666.0000000000002</ele><time>2026-05-02T10:13:17.041Z</time></trkpt><trkpt lat="45.7061459" lon="11.0382805"><ele>1666.0</ele><time>2026-05-02T10:13:17.952Z</time></trkpt><trkpt lat="45.706114" lon="11.0383867"><ele>1663.8333333333335</ele><time>2026-05-02T10:13:19.033Z</time></trkpt><trkpt lat="45.7060472" lon="11.0384673"><ele>1661.6666666666667</ele><time>2026-05-02T10:13:20.045Z</time></trkpt><trkpt lat="45.7059754" lon="11.0385392"><ele>1659.5</ele><time>2026-05-02T10:13:20.982Z</time></trkpt><trkpt lat="45.7059098" lon="11.0386104"><ele>1657.3333333333335</ele><time>2026-05-02T10:13:21.981Z</time></trkpt><trkpt lat="45.7058502" lon="11.0386978"><ele>1655.1666666666667</ele><time>2026-05-02T10:13:22.969Z</time></trkpt><trkpt lat="45.7058095" lon="11.0388066"><ele>1653.0</ele><time>2026-05-02T10:13:24.044Z</time></trkpt><trkpt lat="45.7057819" lon="11.0389179"><ele>1653.0</ele><time>2026-05-02T10:13:25.042Z</time></trkpt><trkpt lat="45.7057432" lon="11.0390211"><ele>1653.0</ele><time>2026-05-02T10:13:25.964Z</time></trkpt><trkpt lat="45.7056874" lon="11.039106"><ele>1653.0</ele><time>2026-05-02T10:13:26.966Z</time></trkpt><trkpt lat="45.7056192" lon="11.0391616"><ele>1653.0</ele><time>2026-05-02T10:13:27.981Z</time></trkpt><trkpt lat="45.7055515" lon="11.0391833"><ele>1653.0</ele><time>2026-05-02T10:13:29.039Z</time></trkpt><trkpt lat="45.7054774" lon="11.039222"><ele>1653.0</ele><time>2026-05-02T10:13:30.04Z</time></trkpt><trkpt lat="45.7054122" lon="11.039291"><ele>1655.2</ele><time>2026-05-02T10:13:31.006Z</time></trkpt><trkpt lat="45.7053704" lon="11.0393718"><ele>1657.4</ele><time>2026-05-02T10:13:31.999Z</time></trkpt><trkpt lat="45.7053377" lon="11.0394829"><ele>1659.6000000000001</ele><time>2026-05-02T10:13:33.006Z</time></trkpt><trkpt lat="45.7053209" lon="11.039617"><ele>1661.8000000000002</ele><time>2026-05-02T10:13:34.062Z</time></trkpt><trkpt lat="45.7053197" lon="11.0397667"><ele>1664.0</ele><time>2026-05-02T10:13:34.986Z</time></trkpt><trkpt lat="45.7053199" lon="11.0399102"><ele>1665.2</ele><time>2026-05-02T10:13:35.979Z</time></trkpt><trkpt lat="45.7053153" lon="11.0400538"><ele>1666.4</ele><time>2026-05-02T10:13:36.965Z</time></trkpt><trkpt lat="45.7053115" lon="11.0401948"><ele>1667.6</ele><time>2026-05-02T10:13:37.958Z</time></trkpt><trkpt lat="45.7053098" lon="11.0403302"><ele>1668.8</ele><time>2026-05-02T10:13:38.97Z</time></trkpt><trkpt lat="45.7053048" lon="11.0404556"><ele>1670.0</ele><time>2026-05-02T10:13:40.021Z</time></trkpt><trkpt lat="45.7053072" lon="11.0405601"><ele>1669.9999999999998</ele><time>2026-05-02T10:13:40.974Z</time></trkpt><trkpt lat="45.7053035" lon="11.0406643"><ele>1670.0</ele><time>2026-05-02T10:13:41.966Z</time></trkpt><trkpt lat="45.7052995" lon="11.0407596"><ele>1670.0</ele><time>2026-05-02T10:13:42.968Z</time></trkpt><trkpt lat="45.7053057" lon="11.0409283"><ele>1670.0</ele><time>2026-05-02T10:13:44.971Z</time></trkpt><trkpt lat="45.7053071" lon="11.04103"><ele>1669.9999999999998</ele><time>2026-05-02T10:13:45.97Z</time></trkpt><trkpt lat="45.7052984" lon="11.0411241"><ele>1670.0</ele><time>2026-05-02T10:13:46.973Z</time></trkpt><trkpt lat="45.705214" lon="11.0412715"><ele>1667.4999999999998</ele><time>2026-05-02T10:13:49.024Z</time></trkpt><trkpt lat="45.7051418" lon="11.041308"><ele>1665.0</ele><time>2026-05-02T10:13:50.032Z</time></trkpt><trkpt lat="45.7050637" lon="11.0413221"><ele>1662.5</ele><time>2026-05-02T10:13:50.969Z</time></trkpt><trkpt lat="45.7049759" lon="11.0413247"><ele>1660.0</ele><time>2026-05-02T10:13:51.973Z</time></trkpt><trkpt lat="45.7048811" lon="11.0413329"><ele>1657.4999999999998</ele><time>2026-05-02T10:13:52.973Z</time></trkpt><trkpt lat="45.7047893" lon="11.0413566"><ele>1655.0</ele><time>2026-05-02T10:13:53.973Z</time></trkpt><trkpt lat="45.7047057" lon="11.0413982"><ele>1654.9999999999998</ele><time>2026-05-02T10:13:54.973Z</time></trkpt><trkpt lat="45.7046379" lon="11.0414546"><ele>1655.0</ele><time>2026-05-02T10:13:55.973Z</time></trkpt><trkpt lat="45.7045826" lon="11.0415406"><ele>1655.0</ele><time>2026-05-02T10:13:56.978Z</time></trkpt><trkpt lat="45.7045312" lon="11.0416375"><ele>1655.0</ele><time>2026-05-02T10:13:57.98Z</time></trkpt><trkpt lat="45.7044823" lon="11.041723"><ele>1654.9999999999998</ele><time>2026-05-02T10:13:58.994Z</time></trkpt><trkpt lat="45.704377" lon="11.0418051"><ele>1655.0</ele><time>2026-05-02T10:14:00.975Z</time></trkpt><trkpt lat="45.7042646" lon="11.0417752"><ele>1654.5714285714284</ele><time>2026-05-02T10:14:02.971Z</time></trkpt><trkpt lat="45.7041901" lon="11.0417272"><ele>1654.142857142857</ele><time>2026-05-02T10:14:05.05Z</time></trkpt><trkpt lat="45.7041266" lon="11.0416787"><ele>1653.7142857142858</ele><time>2026-05-02T10:14:07.973Z</time></trkpt><trkpt lat="45.7041126" lon="11.0415835"><ele>1653.2857142857142</ele><time>2026-05-02T10:16:43.969Z</time></trkpt><trkpt lat="45.7040631" lon="11.0415178"><ele>1652.857142857143</ele><time>2026-05-02T10:16:46.965Z</time></trkpt><trkpt lat="45.70401" lon="11.0414608"><ele>1652.4285714285713</ele><time>2026-05-02T10:16:48.971Z</time></trkpt><trkpt lat="45.7039207" lon="11.0414399"><ele>1652.0</ele><time>2026-05-02T10:16:50.963Z</time></trkpt><trkpt lat="45.7038331" lon="11.0414506"><ele>1652.0</ele><time>2026-05-02T10:16:52.974Z</time></trkpt><trkpt lat="45.7037615" lon="11.0414707"><ele>1652.0</ele><time>2026-05-02T10:16:54.97Z</time></trkpt><trkpt lat="45.7036824" lon="11.0415219"><ele>1652.0</ele><time>2026-05-02T10:16:56.972Z</time></trkpt><trkpt lat="45.7036086" lon="11.041632"><ele>1652.0</ele><time>2026-05-02T10:16:58.971Z</time></trkpt><trkpt lat="45.7035311" lon="11.0417856"><ele>1652.0</ele><time>2026-05-02T10:17:00.951Z</time></trkpt><trkpt lat="45.703498" lon="11.0418754"><ele>1652.7142857142858</ele><time>2026-05-02T10:17:01.955Z</time></trkpt><trkpt lat="45.7034679" lon="11.0419703"><ele>1653.4285714285716</ele><time>2026-05-02T10:17:02.97Z</time></trkpt><trkpt lat="45.7034472" lon="11.0420597"><ele>1654.142857142857</ele><time>2026-05-02T10:17:03.983Z</time></trkpt><trkpt lat="45.7034355" lon="11.0421566"><ele>1654.857142857143</ele><time>2026-05-02T10:17:05.039Z</time></trkpt><trkpt lat="45.703441" lon="11.0422557"><ele>1655.5714285714287</ele><time>2026-05-02T10:17:05.972Z</time></trkpt><trkpt lat="45.7034591" lon="11.0423653"><ele>1656.2857142857142</ele><time>2026-05-02T10:17:06.974Z</time></trkpt><trkpt lat="45.7034898" lon="11.042471"><ele>1657.0</ele><time>2026-05-02T10:17:07.993Z</time></trkpt><trkpt lat="45.7035255" lon="11.0425826"><ele>1657.3333333333335</ele><time>2026-05-02T10:17:08.993Z</time></trkpt><trkpt lat="45.703571" lon="11.0426974"><ele>1657.6666666666667</ele><time>2026-05-02T10:17:09.96Z</time></trkpt><trkpt lat="45.7036253" lon="11.0427999"><ele>1658.0</ele><time>2026-05-02T10:17:10.985Z</time></trkpt><trkpt lat="45.7036779" lon="11.0429005"><ele>1658.3333333333335</ele><time>2026-05-02T10:17:11.969Z</time></trkpt><trkpt lat="45.7037306" lon="11.0429938"><ele>1658.6666666666667</ele><time>2026-05-02T10:17:12.963Z</time></trkpt><trkpt lat="45.7037825" lon="11.0430952"><ele>1659.0</ele><time>2026-05-02T10:17:13.966Z</time></trkpt><trkpt lat="45.7038364" lon="11.0431991"><ele>1660.8333333333333</ele><time>2026-05-02T10:17:14.992Z</time></trkpt><trkpt lat="45.7038953" lon="11.0432973"><ele>1662.6666666666665</ele><time>2026-05-02T10:17:15.97Z</time></trkpt><trkpt lat="45.7039686" lon="11.043383"><ele>1664.5</ele><time>2026-05-02T10:17:17.007Z</time></trkpt><trkpt lat="45.7040437" lon="11.0434581"><ele>1666.3333333333333</ele><time>2026-05-02T10:17:17.987Z</time></trkpt><trkpt lat="45.7041217" lon="11.0435252"><ele>1668.1666666666665</ele><time>2026-05-02T10:17:18.972Z</time></trkpt><trkpt lat="45.7041837" lon="11.0435979"><ele>1670.0</ele><time>2026-05-02T10:17:19.963Z</time></trkpt><trkpt lat="45.7042316" lon="11.0436924"><ele>1669.9999999999998</ele><time>2026-05-02T10:17:20.979Z</time></trkpt><trkpt lat="45.7042566" lon="11.0438082"><ele>1670.0</ele><time>2026-05-02T10:17:21.979Z</time></trkpt><trkpt lat="45.7042632" lon="11.043933"><ele>1670.0</ele><time>2026-05-02T10:17:22.97Z</time></trkpt><trkpt lat="45.704257" lon="11.0440654"><ele>1670.0</ele><time>2026-05-02T10:17:23.963Z</time></trkpt><trkpt lat="45.7042601" lon="11.0441923"><ele>1669.9999999999998</ele><time>2026-05-02T10:17:24.971Z</time></trkpt><trkpt lat="45.704267" lon="11.0443136"><ele>1670.0</ele><time>2026-05-02T10:17:25.973Z</time></trkpt><trkpt lat="45.7042867" lon="11.0444316"><ele>1669.2</ele><time>2026-05-02T10:17:26.973Z</time></trkpt><trkpt lat="45.7043192" lon="11.0445541"><ele>1668.4</ele><time>2026-05-02T10:17:27.975Z</time></trkpt><trkpt lat="45.7043649" lon="11.0446656"><ele>1667.6</ele><time>2026-05-02T10:17:28.966Z</time></trkpt><trkpt lat="45.704428" lon="11.0447691"><ele>1666.8</ele><time>2026-05-02T10:17:29.97Z</time></trkpt><trkpt lat="45.7045098" lon="11.0448661"><ele>1666.0</ele><time>2026-05-02T10:17:30.976Z</time></trkpt><trkpt lat="45.7045927" lon="11.0449549"><ele>1667.8</ele><time>2026-05-02T10:17:31.972Z</time></trkpt><trkpt lat="45.704677" lon="11.0450462"><ele>1669.6</ele><time>2026-05-02T10:17:32.968Z</time></trkpt><trkpt lat="45.7047519" lon="11.045143"><ele>1671.4</ele><time>2026-05-02T10:17:33.97Z</time></trkpt><trkpt lat="45.7048258" lon="11.0452539"><ele>1673.2</ele><time>2026-05-02T10:17:34.976Z</time></trkpt><trkpt lat="45.7048931" lon="11.045378"><ele>1675.0</ele><time>2026-05-02T10:17:35.977Z</time></trkpt><trkpt lat="45.7049393" lon="11.0455201"><ele>1675.0</ele><time>2026-05-02T10:17:36.968Z</time></trkpt><trkpt lat="45.7049754" lon="11.0456813"><ele>1675.0</ele><time>2026-05-02T10:17:37.958Z</time></trkpt><trkpt lat="45.7050041" lon="11.0458436"><ele>1675.0</ele><time>2026-05-02T10:17:38.965Z</time></trkpt><trkpt lat="45.705033" lon="11.0460073"><ele>1675.0</ele><time>2026-05-02T10:17:39.969Z</time></trkpt><trkpt lat="45.7050631" lon="11.0461748"><ele>1673.5</ele><time>2026-05-02T10:17:40.979Z</time></trkpt><trkpt lat="45.7050639" lon="11.0463534"><ele>1672.0</ele><time>2026-05-02T10:17:41.958Z</time></trkpt><trkpt lat="45.7050321" lon="11.0465446"><ele>1670.5</ele><time>2026-05-02T10:17:42.984Z</time></trkpt><trkpt lat="45.7049764" lon="11.0467339"><ele>1669.0</ele><time>2026-05-02T10:17:43.978Z</time></trkpt><trkpt lat="45.7049047" lon="11.0469199"><ele>1669.0</ele><time>2026-05-02T10:17:44.974Z</time></trkpt><trkpt lat="45.70484" lon="11.0471029"><ele>1669.0</ele><time>2026-05-02T10:17:45.974Z</time></trkpt><trkpt lat="45.7047856" lon="11.0472771"><ele>1669.0</ele><time>2026-05-02T10:17:46.971Z</time></trkpt><trkpt lat="45.7047332" lon="11.0474407"><ele>1669.0</ele><time>2026-05-02T10:17:47.975Z</time></trkpt><trkpt lat="45.7046872" lon="11.0475885"><ele>1668.6</ele><time>2026-05-02T10:17:48.972Z</time></trkpt><trkpt lat="45.7046432" lon="11.0477255"><ele>1668.2</ele><time>2026-05-02T10:17:49.975Z</time></trkpt><trkpt lat="45.7046059" lon="11.0478542"><ele>1667.8</ele><time>2026-05-02T10:17:50.972Z</time></trkpt><trkpt lat="45.7045629" lon="11.0479644"><ele>1667.3999999999999</ele><time>2026-05-02T10:17:51.974Z</time></trkpt><trkpt lat="45.704513" lon="11.0480586"><ele>1667.0</ele><time>2026-05-02T10:17:52.975Z</time></trkpt><trkpt lat="45.7044563" lon="11.0481525"><ele>1666.3999999999999</ele><time>2026-05-02T10:17:53.968Z</time></trkpt><trkpt lat="45.7043915" lon="11.0482368"><ele>1665.8</ele><time>2026-05-02T10:17:54.974Z</time></trkpt><trkpt lat="45.7043161" lon="11.0483173"><ele>1665.2</ele><time>2026-05-02T10:17:55.976Z</time></trkpt><trkpt lat="45.7042275" lon="11.0483726"><ele>1664.6</ele><time>2026-05-02T10:17:56.987Z</time></trkpt><trkpt lat="45.7041246" lon="11.0484074"><ele>1664.0</ele><time>2026-05-02T10:17:57.97Z</time></trkpt><trkpt lat="45.7040183" lon="11.0484296"><ele>1664.8000000000002</ele><time>2026-05-02T10:17:58.974Z</time></trkpt><trkpt lat="45.7039163" lon="11.0484284"><ele>1665.6000000000001</ele><time>2026-05-02T10:17:59.982Z</time></trkpt><trkpt lat="45.7038235" lon="11.0484372"><ele>1666.4</ele><time>2026-05-02T10:18:00.981Z</time></trkpt><trkpt lat="45.7037362" lon="11.0484616"><ele>1667.2</ele><time>2026-05-02T10:18:01.966Z</time></trkpt><trkpt lat="45.70365" lon="11.0485084"><ele>1668.0</ele><time>2026-05-02T10:18:02.954Z</time></trkpt><trkpt lat="45.703571" lon="11.0485738"><ele>1668.0</ele><time>2026-05-02T10:18:03.956Z</time></trkpt><trkpt lat="45.703517" lon="11.0486795"><ele>1668.0</ele><time>2026-05-02T10:18:04.974Z</time></trkpt><trkpt lat="45.7034886" lon="11.0488116"><ele>1668.0</ele><time>2026-05-02T10:18:05.969Z</time></trkpt><trkpt lat="45.7034679" lon="11.0489435"><ele>1668.0</ele><time>2026-05-02T10:18:07.045Z</time></trkpt><trkpt lat="45.7034267" lon="11.0490547"><ele>1668.0</ele><time>2026-05-02T10:18:07.982Z</time></trkpt><trkpt lat="45.7033547" lon="11.0491511"><ele>1669.2</ele><time>2026-05-02T10:18:08.984Z</time></trkpt><trkpt lat="45.7032606" lon="11.0492127"><ele>1670.4</ele><time>2026-05-02T10:18:10.025Z</time></trkpt><trkpt lat="45.7031633" lon="11.0492348"><ele>1671.6000000000001</ele><time>2026-05-02T10:18:10.98Z</time></trkpt><trkpt lat="45.7030725" lon="11.0492557"><ele>1672.8000000000002</ele><time>2026-05-02T10:18:11.973Z</time></trkpt><trkpt lat="45.7029999" lon="11.0493225"><ele>1674.0</ele><time>2026-05-02T10:18:12.977Z</time></trkpt><trkpt lat="45.7029343" lon="11.0494228"><ele>1674.0</ele><time>2026-05-02T10:18:13.972Z</time></trkpt><trkpt lat="45.7028959" lon="11.0495439"><ele>1674.0</ele><time>2026-05-02T10:18:14.958Z</time></trkpt><trkpt lat="45.702881" lon="11.0496636"><ele>1674.0</ele><time>2026-05-02T10:18:15.975Z</time></trkpt><trkpt lat="45.7028839" lon="11.0497816"><ele>1674.0</ele><time>2026-05-02T10:18:16.974Z</time></trkpt><trkpt lat="45.7029009" lon="11.0499146"><ele>1674.0</ele><time>2026-05-02T10:18:17.974Z</time></trkpt><trkpt lat="45.7029463" lon="11.0500577"><ele>1675.0</ele><time>2026-05-02T10:18:18.976Z</time></trkpt><trkpt lat="45.7029961" lon="11.0501917"><ele>1676.0</ele><time>2026-05-02T10:18:19.978Z</time></trkpt><trkpt lat="45.7030513" lon="11.0503066"><ele>1677.0</ele><time>2026-05-02T10:18:20.977Z</time></trkpt><trkpt lat="45.703095" lon="11.0504063"><ele>1678.0</ele><time>2026-05-02T10:18:21.973Z</time></trkpt><trkpt lat="45.7031403" lon="11.0504908"><ele>1679.0</ele><time>2026-05-02T10:18:22.979Z</time></trkpt><trkpt lat="45.7031876" lon="11.0505792"><ele>1680.0</ele><time>2026-05-02T10:18:23.979Z</time></trkpt><trkpt lat="45.7032388" lon="11.0506586"><ele>1680.0</ele><time>2026-05-02T10:18:24.984Z</time></trkpt><trkpt lat="45.7032894" lon="11.0507354"><ele>1680.0</ele><time>2026-05-02T10:18:25.978Z</time></trkpt><trkpt lat="45.7033395" lon="11.0508129"><ele>1680.0</ele><time>2026-05-02T10:18:26.986Z</time></trkpt><trkpt lat="45.7033874" lon="11.0508864"><ele>1680.0</ele><time>2026-05-02T10:18:27.982Z</time></trkpt><trkpt lat="45.7034343" lon="11.0509565"><ele>1680.0</ele><time>2026-05-02T10:18:28.984Z</time></trkpt><trkpt lat="45.7035231" lon="11.0510808"><ele>1680.0</ele><time>2026-05-02T10:18:30.98Z</time></trkpt><trkpt lat="45.7036116" lon="11.0511686"><ele>1681.1666666666667</ele><time>2026-05-02T10:18:32.993Z</time></trkpt><trkpt lat="45.7037064" lon="11.0512469"><ele>1682.3333333333335</ele><time>2026-05-02T10:18:34.982Z</time></trkpt><trkpt lat="45.7037658" lon="11.0512965"><ele>1683.5</ele><time>2026-05-02T10:18:35.981Z</time></trkpt><trkpt lat="45.7038279" lon="11.0513628"><ele>1684.6666666666667</ele><time>2026-05-02T10:18:36.986Z</time></trkpt><trkpt lat="45.7038837" lon="11.0514407"><ele>1685.8333333333335</ele><time>2026-05-02T10:18:37.985Z</time></trkpt><trkpt lat="45.7039228" lon="11.0515347"><ele>1687.0</ele><time>2026-05-02T10:18:38.988Z</time></trkpt><trkpt lat="45.7039512" lon="11.0516453"><ele>1687.0000000000002</ele><time>2026-05-02T10:18:39.983Z</time></trkpt><trkpt lat="45.703971" lon="11.0517593"><ele>1687.0</ele><time>2026-05-02T10:18:40.979Z</time></trkpt><trkpt lat="45.703984" lon="11.0518682"><ele>1687.0</ele><time>2026-05-02T10:18:41.979Z</time></trkpt><trkpt lat="45.704003" lon="11.0519795"><ele>1687.0</ele><time>2026-05-02T10:18:42.971Z</time></trkpt><trkpt lat="45.7040376" lon="11.0520905"><ele>1687.0000000000002</ele><time>2026-05-02T10:18:43.981Z</time></trkpt><trkpt lat="45.7040921" lon="11.0522004"><ele>1687.0</ele><time>2026-05-02T10:18:44.971Z</time></trkpt><trkpt lat="45.7041495" lon="11.052301"><ele>1687.0000000000002</ele><time>2026-05-02T10:18:45.979Z</time></trkpt><trkpt lat="45.704206" lon="11.052399"><ele>1687.0</ele><time>2026-05-02T10:18:47.064Z</time></trkpt><trkpt lat="45.7042369" lon="11.0525"><ele>1687.0</ele><time>2026-05-02T10:18:48.033Z</time></trkpt><trkpt lat="45.7042537" lon="11.0526032"><ele>1687.0</ele><time>2026-05-02T10:18:49.042Z</time></trkpt><trkpt lat="45.7042333" lon="11.0526948"><ele>1687.0000000000002</ele><time>2026-05-02T10:18:50.042Z</time></trkpt><trkpt lat="45.7041335" lon="11.0528353"><ele>1687.0</ele><time>2026-05-02T10:18:51.978Z</time></trkpt><trkpt lat="45.7040613" lon="11.0528933"><ele>1687.0000000000002</ele><time>2026-05-02T10:18:52.99Z</time></trkpt><trkpt lat="45.703974" lon="11.0528971"><ele>1687.0</ele><time>2026-05-02T10:18:53.967Z</time></trkpt><trkpt lat="45.7038843" lon="11.0528928"><ele>1687.0</ele><time>2026-05-02T10:18:54.966Z</time></trkpt><trkpt lat="45.7038093" lon="11.0528968"><ele>1687.0</ele><time>2026-05-02T10:18:55.969Z</time></trkpt><trkpt lat="45.7037381" lon="11.052899"><ele>1687.0000000000002</ele><time>2026-05-02T10:18:56.968Z</time></trkpt><trkpt lat="45.7036687" lon="11.052902"><ele>1687.0</ele><time>2026-05-02T10:18:57.975Z</time></trkpt><trkpt lat="45.703606" lon="11.0529219"><ele>1686.6666666666667</ele><time>2026-05-02T10:18:59.045Z</time></trkpt><trkpt lat="45.7035475" lon="11.0529844"><ele>1686.3333333333335</ele><time>2026-05-02T10:18:59.979Z</time></trkpt><trkpt lat="45.7035201" lon="11.0530807"><ele>1686.0</ele><time>2026-05-02T10:19:00.961Z</time></trkpt><trkpt lat="45.7035145" lon="11.0531772"><ele>1685.6666666666665</ele><time>2026-05-02T10:19:01.972Z</time></trkpt><trkpt lat="45.7035308" lon="11.0532794"><ele>1685.3333333333333</ele><time>2026-05-02T10:19:02.98Z</time></trkpt><trkpt lat="45.7035697" lon="11.0533853"><ele>1685.0</ele><time>2026-05-02T10:19:03.976Z</time></trkpt><trkpt lat="45.7036083" lon="11.0534975"><ele>1685.0</ele><time>2026-05-02T10:19:04.967Z</time></trkpt><trkpt lat="45.7036061" lon="11.0536164"><ele>1685.0</ele><time>2026-05-02T10:19:05.97Z</time></trkpt><trkpt lat="45.7035771" lon="11.0537274"><ele>1685.0</ele><time>2026-05-02T10:19:06.973Z</time></trkpt><trkpt lat="45.7035162" lon="11.05383"><ele>1685.0</ele><time>2026-05-02T10:19:08.04Z</time></trkpt><trkpt lat="45.7034344" lon="11.0539172"><ele>1685.0</ele><time>2026-05-02T10:19:09.035Z</time></trkpt><trkpt lat="45.7033411" lon="11.0539797"><ele>1684.9999999999998</ele><time>2026-05-02T10:19:09.958Z</time></trkpt><trkpt lat="45.7032548" lon="11.0540308"><ele>1685.0</ele><time>2026-05-02T10:19:10.962Z</time></trkpt><trkpt lat="45.7031814" lon="11.0540759"><ele>1685.0</ele><time>2026-05-02T10:19:11.953Z</time></trkpt><trkpt lat="45.7031191" lon="11.0541453"><ele>1685.0</ele><time>2026-05-02T10:19:13.058Z</time></trkpt><trkpt lat="45.7030754" lon="11.0542469"><ele>1684.9999999999998</ele><time>2026-05-02T10:19:14.047Z</time></trkpt><trkpt lat="45.7030492" lon="11.0543893"><ele>1685.0</ele><time>2026-05-02T10:19:15.042Z</time></trkpt><trkpt lat="45.7030487" lon="11.0545434"><ele>1686.8</ele><time>2026-05-02T10:19:15.961Z</time></trkpt><trkpt lat="45.703068" lon="11.0546864"><ele>1688.6</ele><time>2026-05-02T10:19:16.974Z</time></trkpt><trkpt lat="45.7030897" lon="11.0548304"><ele>1690.4</ele><time>2026-05-02T10:19:17.991Z</time></trkpt><trkpt lat="45.7031039" lon="11.0549687"><ele>1692.2</ele><time>2026-05-02T10:19:19.051Z</time></trkpt><trkpt lat="45.7031118" lon="11.0550983"><ele>1694.0</ele><time>2026-05-02T10:19:20.046Z</time></trkpt><trkpt lat="45.7031056" lon="11.0552176"><ele>1695.1666666666665</ele><time>2026-05-02T10:19:20.956Z</time></trkpt><trkpt lat="45.7030709" lon="11.0553193"><ele>1696.3333333333333</ele><time>2026-05-02T10:19:21.967Z</time></trkpt><trkpt lat="45.7030217" lon="11.0554066"><ele>1697.5</ele><time>2026-05-02T10:19:22.985Z</time></trkpt><trkpt lat="45.7029418" lon="11.0554704"><ele>1698.6666666666665</ele><time>2026-05-02T10:19:24.044Z</time></trkpt><trkpt lat="45.7028595" lon="11.0554867"><ele>1699.8333333333333</ele><time>2026-05-02T10:19:24.964Z</time></trkpt><trkpt lat="45.7027671" lon="11.0554911"><ele>1701.0</ele><time>2026-05-02T10:19:25.963Z</time></trkpt><trkpt lat="45.70268" lon="11.0554817"><ele>1700.6666666666667</ele><time>2026-05-02T10:19:26.973Z</time></trkpt><trkpt lat="45.7025914" lon="11.0554974"><ele>1700.3333333333335</ele><time>2026-05-02T10:19:28.04Z</time></trkpt><trkpt lat="45.7025149" lon="11.0555236"><ele>1700.0</ele><time>2026-05-02T10:19:28.972Z</time></trkpt><trkpt lat="45.7024535" lon="11.055576"><ele>1699.6666666666667</ele><time>2026-05-02T10:19:30.06Z</time></trkpt><trkpt lat="45.7023972" lon="11.0556446"><ele>1699.3333333333335</ele><time>2026-05-02T10:19:30.966Z</time></trkpt><trkpt lat="45.7023521" lon="11.0557269"><ele>1699.0</ele><time>2026-05-02T10:19:31.976Z</time></trkpt><trkpt lat="45.7023176" lon="11.0558169"><ele>1699.0000000000002</ele><time>2026-05-02T10:19:32.963Z</time></trkpt><trkpt lat="45.7022908" lon="11.0559049"><ele>1699.0</ele><time>2026-05-02T10:19:34.067Z</time></trkpt><trkpt lat="45.702254" lon="11.0560479"><ele>1699.0</ele><time>2026-05-02T10:19:35.966Z</time></trkpt><trkpt lat="45.7022083" lon="11.0561867"><ele>1699.0</ele><time>2026-05-02T10:19:37.98Z</time></trkpt><trkpt lat="45.7021743" lon="11.0562738"><ele>1699.0000000000002</ele><time>2026-05-02T10:19:38.981Z</time></trkpt><trkpt lat="45.7021389" lon="11.0563609"><ele>1699.0</ele><time>2026-05-02T10:19:40.039Z</time></trkpt><trkpt lat="45.7021035" lon="11.0564545"><ele>1699.0000000000002</ele><time>2026-05-02T10:19:41Z</time></trkpt><trkpt lat="45.7020677" lon="11.0565454"><ele>1699.0</ele><time>2026-05-02T10:19:42.03Z</time></trkpt><trkpt lat="45.7020301" lon="11.0566362"><ele>1699.0</ele><time>2026-05-02T10:19:42.966Z</time></trkpt><trkpt lat="45.7019865" lon="11.0567254"><ele>1699.0</ele><time>2026-05-02T10:19:43.952Z</time></trkpt><trkpt lat="45.7019372" lon="11.0568017"><ele>1699.0000000000002</ele><time>2026-05-02T10:19:44.971Z</time></trkpt><trkpt lat="45.7018679" lon="11.0568742"><ele>1699.0</ele><time>2026-05-02T10:19:45.959Z</time></trkpt><trkpt lat="45.7017972" lon="11.0569117"><ele>1699.1666666666667</ele><time>2026-05-02T10:19:46.959Z</time></trkpt><trkpt lat="45.7017158" lon="11.0569107"><ele>1699.3333333333335</ele><time>2026-05-02T10:19:47.964Z</time></trkpt><trkpt lat="45.7016344" lon="11.0568876"><ele>1699.5</ele><time>2026-05-02T10:19:48.979Z</time></trkpt><trkpt lat="45.701558" lon="11.0568548"><ele>1699.6666666666665</ele><time>2026-05-02T10:19:49.975Z</time></trkpt><trkpt lat="45.7014789" lon="11.0568346"><ele>1699.8333333333333</ele><time>2026-05-02T10:19:50.966Z</time></trkpt><trkpt lat="45.7014016" lon="11.0568511"><ele>1700.0</ele><time>2026-05-02T10:19:51.965Z</time></trkpt><trkpt lat="45.7013227" lon="11.0569028"><ele>1699.9999999999998</ele><time>2026-05-02T10:19:52.969Z</time></trkpt><trkpt lat="45.7012589" lon="11.0569842"><ele>1700.0</ele><time>2026-05-02T10:19:53.96Z</time></trkpt><trkpt lat="45.7012141" lon="11.0570774"><ele>1700.0</ele><time>2026-05-02T10:19:54.972Z</time></trkpt><trkpt lat="45.7011714" lon="11.0571549"><ele>1700.0</ele><time>2026-05-02T10:19:55.963Z</time></trkpt><trkpt lat="45.7011182" lon="11.05721"><ele>1699.9999999999998</ele><time>2026-05-02T10:19:56.964Z</time></trkpt><trkpt lat="45.7010391" lon="11.0572189"><ele>1700.0</ele><time>2026-05-02T10:19:57.978Z</time></trkpt><trkpt lat="45.700964" lon="11.0571898"><ele>1700.4999999999998</ele><time>2026-05-02T10:19:58.969Z</time></trkpt><trkpt lat="45.7009005" lon="11.0571178"><ele>1701.0</ele><time>2026-05-02T10:19:59.973Z</time></trkpt><trkpt lat="45.7008553" lon="11.0570297"><ele>1701.5</ele><time>2026-05-02T10:20:00.974Z</time></trkpt><trkpt lat="45.7008167" lon="11.0569188"><ele>1702.0</ele><time>2026-05-02T10:20:01.963Z</time></trkpt><trkpt lat="45.7007857" lon="11.0568102"><ele>1702.4999999999998</ele><time>2026-05-02T10:20:02.965Z</time></trkpt><trkpt lat="45.7007454" lon="11.0567071"><ele>1703.0</ele><time>2026-05-02T10:20:03.96Z</time></trkpt><trkpt lat="45.7007003" lon="11.0566171"><ele>1700.8333333333333</ele><time>2026-05-02T10:20:04.966Z</time></trkpt><trkpt lat="45.70065" lon="11.0565476"><ele>1698.6666666666665</ele><time>2026-05-02T10:20:05.969Z</time></trkpt><trkpt lat="45.7006005" lon="11.0564912"><ele>1696.5</ele><time>2026-05-02T10:20:06.98Z</time></trkpt><trkpt lat="45.7005118" lon="11.0563862"><ele>1694.3333333333335</ele><time>2026-05-02T10:20:08.97Z</time></trkpt><trkpt lat="45.7004205" lon="11.0562795"><ele>1692.1666666666667</ele><time>2026-05-02T10:20:10.97Z</time></trkpt><trkpt lat="45.7003666" lon="11.0562312"><ele>1690.0</ele><time>2026-05-02T10:20:11.967Z</time></trkpt><trkpt lat="45.700305" lon="11.0561951"><ele>1691.6666666666667</ele><time>2026-05-02T10:20:12.966Z</time></trkpt><trkpt lat="45.7001949" lon="11.0561181"><ele>1693.3333333333335</ele><time>2026-05-02T10:20:14.973Z</time></trkpt><trkpt lat="45.7001344" lon="11.0560822"><ele>1695.0</ele><time>2026-05-02T10:20:15.957Z</time></trkpt><trkpt lat="45.700069" lon="11.0560439"><ele>1696.6666666666665</ele><time>2026-05-02T10:20:16.971Z</time></trkpt><trkpt lat="45.6999995" lon="11.056011"><ele>1698.3333333333333</ele><time>2026-05-02T10:20:17.972Z</time></trkpt><trkpt lat="45.6999327" lon="11.0559955"><ele>1700.0</ele><time>2026-05-02T10:20:18.973Z</time></trkpt><trkpt lat="45.699867" lon="11.0559977"><ele>1700.0</ele><time>2026-05-02T10:20:19.964Z</time></trkpt><trkpt lat="45.6998012" lon="11.0560084"><ele>1700.0</ele><time>2026-05-02T10:20:20.988Z</time></trkpt><trkpt lat="45.6997383" lon="11.0560391"><ele>1700.0</ele><time>2026-05-02T10:20:21.976Z</time></trkpt><trkpt lat="45.699673" lon="11.0560817"><ele>1700.0</ele><time>2026-05-02T10:20:22.977Z</time></trkpt><trkpt lat="45.6996106" lon="11.0561335"><ele>1700.0</ele><time>2026-05-02T10:20:24.016Z</time></trkpt><trkpt lat="45.6995507" lon="11.0561885"><ele>1700.0</ele><time>2026-05-02T10:20:24.966Z</time></trkpt><trkpt lat="45.6994973" lon="11.056242"><ele>1700.0</ele><time>2026-05-02T10:20:25.96Z</time></trkpt><trkpt lat="45.6994515" lon="11.0563069"><ele>1700.2</ele><time>2026-05-02T10:20:26.972Z</time></trkpt><trkpt lat="45.699404" lon="11.0563711"><ele>1700.4</ele><time>2026-05-02T10:20:27.97Z</time></trkpt><trkpt lat="45.699311" lon="11.0564899"><ele>1700.6</ele><time>2026-05-02T10:20:29.972Z</time></trkpt><trkpt lat="45.6992138" lon="11.0565955"><ele>1700.8</ele><time>2026-05-02T10:20:31.965Z</time></trkpt><trkpt lat="45.6991599" lon="11.0566548"><ele>1701.0</ele><time>2026-05-02T10:20:33.067Z</time></trkpt><trkpt lat="45.6991011" lon="11.0567112"><ele>1701.0</ele><time>2026-05-02T10:20:34.055Z</time></trkpt><trkpt lat="45.699039" lon="11.0567592"><ele>1701.0</ele><time>2026-05-02T10:20:35.037Z</time></trkpt><trkpt lat="45.6989755" lon="11.0568034"><ele>1701.0</ele><time>2026-05-02T10:20:35.982Z</time></trkpt><trkpt lat="45.6989122" lon="11.0568334"><ele>1701.0</ele><time>2026-05-02T10:20:36.98Z</time></trkpt><trkpt lat="45.6988445" lon="11.0568621"><ele>1701.0</ele><time>2026-05-02T10:20:37.972Z</time></trkpt><trkpt lat="45.6987764" lon="11.0568805"><ele>1701.0</ele><time>2026-05-02T10:20:39.028Z</time></trkpt><trkpt lat="45.6987018" lon="11.0568743"><ele>1701.0</ele><time>2026-05-02T10:20:40.039Z</time></trkpt><trkpt lat="45.6986273" lon="11.0568628"><ele>1699.8333333333333</ele><time>2026-05-02T10:20:40.971Z</time></trkpt><trkpt lat="45.6985492" lon="11.0568439"><ele>1698.6666666666665</ele><time>2026-05-02T10:20:41.979Z</time></trkpt><trkpt lat="45.6984741" lon="11.0568171"><ele>1697.5</ele><time>2026-05-02T10:20:42.962Z</time></trkpt><trkpt lat="45.6984006" lon="11.0567967"><ele>1696.3333333333333</ele><time>2026-05-02T10:20:43.988Z</time></trkpt><trkpt lat="45.6983244" lon="11.0567789"><ele>1695.1666666666665</ele><time>2026-05-02T10:20:44.995Z</time></trkpt><trkpt lat="45.698249" lon="11.0567681"><ele>1694.0</ele><time>2026-05-02T10:20:45.969Z</time></trkpt><trkpt lat="45.6981706" lon="11.0567748"><ele>1693.9999999999998</ele><time>2026-05-02T10:20:47.051Z</time></trkpt><trkpt lat="45.6980931" lon="11.0568005"><ele>1694.0</ele><time>2026-05-02T10:20:48.041Z</time></trkpt><trkpt lat="45.6980141" lon="11.0568462"><ele>1694.0</ele><time>2026-05-02T10:20:49.044Z</time></trkpt><trkpt lat="45.697932" lon="11.0569043"><ele>1694.0</ele><time>2026-05-02T10:20:50.063Z</time></trkpt><trkpt lat="45.6978503" lon="11.0569773"><ele>1693.9999999999998</ele><time>2026-05-02T10:20:50.977Z</time></trkpt><trkpt lat="45.6977793" lon="11.0570529"><ele>1694.0</ele><time>2026-05-02T10:20:51.972Z</time></trkpt><trkpt lat="45.6977146" lon="11.0571307"><ele>1693.9999999999998</ele><time>2026-05-02T10:20:53.005Z</time></trkpt><trkpt lat="45.6976489" lon="11.0572112"><ele>1694.0</ele><time>2026-05-02T10:20:54.05Z</time></trkpt><trkpt lat="45.697579" lon="11.0572943"><ele>1694.0</ele><time>2026-05-02T10:20:54.981Z</time></trkpt><trkpt lat="45.6975095" lon="11.0573778"><ele>1694.0</ele><time>2026-05-02T10:20:55.97Z</time></trkpt><trkpt lat="45.6974463" lon="11.0574482"><ele>1693.9999999999998</ele><time>2026-05-02T10:20:56.975Z</time></trkpt><trkpt lat="45.6973882" lon="11.0575077"><ele>1694.0</ele><time>2026-05-02T10:20:57.978Z</time></trkpt><trkpt lat="45.6973279" lon="11.0575637"><ele>1694.0</ele><time>2026-05-02T10:20:58.974Z</time></trkpt><trkpt lat="45.6972716" lon="11.0576098"><ele>1694.0</ele><time>2026-05-02T10:20:59.983Z</time></trkpt><trkpt lat="45.6972124" lon="11.0576539"><ele>1694.0</ele><time>2026-05-02T10:21:00.982Z</time></trkpt><trkpt lat="45.6970999" lon="11.0577217"><ele>1694.0</ele><time>2026-05-02T10:21:02.976Z</time></trkpt><trkpt lat="45.6969936" lon="11.0577657"><ele>1694.0</ele><time>2026-05-02T10:21:04.979Z</time></trkpt><trkpt lat="45.6969018" lon="11.0578128"><ele>1691.4</ele><time>2026-05-02T10:21:06.975Z</time></trkpt><trkpt lat="45.6968037" lon="11.0578746"><ele>1688.8000000000002</ele><time>2026-05-02T10:21:08.976Z</time></trkpt><trkpt lat="45.6967044" lon="11.0579492"><ele>1686.1999999999998</ele><time>2026-05-02T10:21:10.992Z</time></trkpt><trkpt lat="45.6965976" lon="11.0580126"><ele>1683.6</ele><time>2026-05-02T10:21:13.012Z</time></trkpt><trkpt lat="45.6964972" lon="11.0580614"><ele>1681.0</ele><time>2026-05-02T10:21:14.984Z</time></trkpt><trkpt lat="45.6964123" lon="11.0581029"><ele>1681.0</ele><time>2026-05-02T10:21:16.987Z</time></trkpt><trkpt lat="45.6963165" lon="11.0581468"><ele>1681.0</ele><time>2026-05-02T10:21:18.982Z</time></trkpt><trkpt lat="45.6962129" lon="11.0581969"><ele>1681.0</ele><time>2026-05-02T10:21:20.983Z</time></trkpt><trkpt lat="45.696109" lon="11.0582381"><ele>1681.0</ele><time>2026-05-02T10:21:22.981Z</time></trkpt><trkpt lat="45.6960096" lon="11.0582937"><ele>1681.0</ele><time>2026-05-02T10:21:24.979Z</time></trkpt><trkpt lat="45.6959004" lon="11.0583294"><ele>1681.1999999999998</ele><time>2026-05-02T10:21:26.98Z</time></trkpt><trkpt lat="45.6957916" lon="11.0583401"><ele>1681.3999999999999</ele><time>2026-05-02T10:21:29.036Z</time></trkpt><trkpt lat="45.6956805" lon="11.0583479"><ele>1681.6</ele><time>2026-05-02T10:21:30.981Z</time></trkpt><trkpt lat="45.6955647" lon="11.0583671"><ele>1681.8</ele><time>2026-05-02T10:21:33.004Z</time></trkpt><trkpt lat="45.6954568" lon="11.0583644"><ele>1682.0</ele><time>2026-05-02T10:21:35.043Z</time></trkpt><trkpt lat="45.6953791" lon="11.058254"><ele>1682.0</ele><time>2026-05-02T10:21:36.98Z</time></trkpt><trkpt lat="45.6953751" lon="11.0580848"><ele>1682.0</ele><time>2026-05-02T10:21:38.981Z</time></trkpt><trkpt lat="45.6954003" lon="11.0579979"><ele>1682.0</ele><time>2026-05-02T10:21:40.056Z</time></trkpt><trkpt lat="45.6954297" lon="11.0579108"><ele>1682.0</ele><time>2026-05-02T10:21:40.984Z</time></trkpt><trkpt lat="45.6954645" lon="11.0577435"><ele>1682.0</ele><time>2026-05-02T10:21:42.981Z</time></trkpt><trkpt lat="45.6954443" lon="11.0575955"><ele>1682.0</ele><time>2026-05-02T10:21:45.041Z</time></trkpt><trkpt lat="45.6953342" lon="11.057484"><ele>1682.0</ele><time>2026-05-02T10:21:46.979Z</time></trkpt><trkpt lat="45.6952612" lon="11.0574367"><ele>1682.0</ele><time>2026-05-02T10:21:47.976Z</time></trkpt><trkpt lat="45.6951874" lon="11.0574023"><ele>1682.0</ele><time>2026-05-02T10:21:48.986Z</time></trkpt><trkpt lat="45.695112" lon="11.0573753"><ele>1682.0</ele><time>2026-05-02T10:21:49.979Z</time></trkpt><trkpt lat="45.6950363" lon="11.0573419"><ele>1682.4999999999998</ele><time>2026-05-02T10:21:50.978Z</time></trkpt><trkpt lat="45.6949669" lon="11.0573152"><ele>1683.0</ele><time>2026-05-02T10:21:52.046Z</time></trkpt><trkpt lat="45.6948485" lon="11.0572948"><ele>1683.5</ele><time>2026-05-02T10:21:54.04Z</time></trkpt><trkpt lat="45.6947313" lon="11.0572757"><ele>1684.0</ele><time>2026-05-02T10:21:55.981Z</time></trkpt><trkpt lat="45.6946747" lon="11.0572205"><ele>1684.4999999999998</ele><time>2026-05-02T10:21:56.987Z</time></trkpt><trkpt lat="45.6946243" lon="11.0571504"><ele>1685.0</ele><time>2026-05-02T10:21:57.974Z</time></trkpt><trkpt lat="45.6945762" lon="11.0570796"><ele>1684.9999999999998</ele><time>2026-05-02T10:21:58.988Z</time></trkpt><trkpt lat="45.6945242" lon="11.0569933"><ele>1685.0</ele><time>2026-05-02T10:21:59.997Z</time></trkpt><trkpt lat="45.6944813" lon="11.0568929"><ele>1685.0</ele><time>2026-05-02T10:22:00.98Z</time></trkpt><trkpt lat="45.6944648" lon="11.0567891"><ele>1685.0</ele><time>2026-05-02T10:22:01.998Z</time></trkpt><trkpt lat="45.6944715" lon="11.0566839"><ele>1684.9999999999998</ele><time>2026-05-02T10:22:02.974Z</time></trkpt><trkpt lat="45.6944986" lon="11.0565807"><ele>1685.0</ele><time>2026-05-02T10:22:03.984Z</time></trkpt><trkpt lat="45.6945367" lon="11.0564749"><ele>1685.8333333333333</ele><time>2026-05-02T10:22:04.966Z</time></trkpt><trkpt lat="45.6945834" lon="11.0563825"><ele>1686.6666666666665</ele><time>2026-05-02T10:22:05.978Z</time></trkpt><trkpt lat="45.6946368" lon="11.056293"><ele>1687.5</ele><time>2026-05-02T10:22:06.985Z</time></trkpt><trkpt lat="45.6946876" lon="11.056213"><ele>1688.3333333333335</ele><time>2026-05-02T10:22:07.973Z</time></trkpt><trkpt lat="45.6947273" lon="11.0561331"><ele>1689.1666666666667</ele><time>2026-05-02T10:22:08.98Z</time></trkpt><trkpt lat="45.6947671" lon="11.0560426"><ele>1690.0</ele><time>2026-05-02T10:22:09.983Z</time></trkpt><trkpt lat="45.6948022" lon="11.0559548"><ele>1688.8333333333335</ele><time>2026-05-02T10:22:10.989Z</time></trkpt><trkpt lat="45.694816" lon="11.0557854"><ele>1687.6666666666667</ele><time>2026-05-02T10:22:13.061Z</time></trkpt><trkpt lat="45.6947802" lon="11.0556977"><ele>1686.5</ele><time>2026-05-02T10:22:13.966Z</time></trkpt><trkpt lat="45.6947174" lon="11.0556407"><ele>1685.3333333333335</ele><time>2026-05-02T10:22:14.965Z</time></trkpt><trkpt lat="45.6946414" lon="11.0556094"><ele>1684.1666666666667</ele><time>2026-05-02T10:22:15.958Z</time></trkpt><trkpt lat="45.6945625" lon="11.055595"><ele>1683.0</ele><time>2026-05-02T10:22:16.969Z</time></trkpt><trkpt lat="45.6944742" lon="11.0556004"><ele>1684.1666666666667</ele><time>2026-05-02T10:22:17.986Z</time></trkpt><trkpt lat="45.6943911" lon="11.0555864"><ele>1685.3333333333335</ele><time>2026-05-02T10:22:18.965Z</time></trkpt><trkpt lat="45.6943076" lon="11.0555687"><ele>1686.5</ele><time>2026-05-02T10:22:19.972Z</time></trkpt><trkpt lat="45.6942286" lon="11.055543"><ele>1687.6666666666667</ele><time>2026-05-02T10:22:20.972Z</time></trkpt><trkpt lat="45.694157" lon="11.0555264"><ele>1688.8333333333335</ele><time>2026-05-02T10:22:21.971Z</time></trkpt><trkpt lat="45.6940897" lon="11.0555183"><ele>1690.0</ele><time>2026-05-02T10:22:22.964Z</time></trkpt><trkpt lat="45.6940174" lon="11.0554995"><ele>1689.9999999999998</ele><time>2026-05-02T10:22:24.044Z</time></trkpt><trkpt lat="45.6939435" lon="11.055472"><ele>1690.0</ele><time>2026-05-02T10:22:25.045Z</time></trkpt><trkpt lat="45.6938831" lon="11.055429"><ele>1690.0</ele><time>2026-05-02T10:22:25.979Z</time></trkpt><trkpt lat="45.6938259" lon="11.0553768"><ele>1690.0</ele><time>2026-05-02T10:22:26.983Z</time></trkpt><trkpt lat="45.693763" lon="11.0553146"><ele>1690.0</ele><time>2026-05-02T10:22:27.97Z</time></trkpt><trkpt lat="45.6937097" lon="11.0552534"><ele>1689.9999999999998</ele><time>2026-05-02T10:22:29.048Z</time></trkpt><trkpt lat="45.6936635" lon="11.0551723"><ele>1690.0</ele><time>2026-05-02T10:22:30.036Z</time></trkpt><trkpt lat="45.6936224" lon="11.055076"><ele>1689.9999999999998</ele><time>2026-05-02T10:22:30.953Z</time></trkpt><trkpt lat="45.693595" lon="11.0549834"><ele>1690.0</ele><time>2026-05-02T10:22:31.99Z</time></trkpt><trkpt lat="45.6935737" lon="11.0548804"><ele>1690.0</ele><time>2026-05-02T10:22:32.973Z</time></trkpt><trkpt lat="45.6935659" lon="11.0547874"><ele>1690.0</ele><time>2026-05-02T10:22:33.972Z</time></trkpt><trkpt lat="45.6935627" lon="11.0546948"><ele>1690.0</ele><time>2026-05-02T10:22:34.975Z</time></trkpt><trkpt lat="45.6935543" lon="11.0546049"><ele>1689.9999999999998</ele><time>2026-05-02T10:22:35.969Z</time></trkpt><trkpt lat="45.6935312" lon="11.0545201"><ele>1690.0</ele><time>2026-05-02T10:22:36.966Z</time></trkpt><trkpt lat="45.6934971" lon="11.0544266"><ele>1690.8333333333335</ele><time>2026-05-02T10:22:37.959Z</time></trkpt><trkpt lat="45.6934617" lon="11.054344"><ele>1691.6666666666667</ele><time>2026-05-02T10:22:38.977Z</time></trkpt><trkpt lat="45.6934271" lon="11.0542646"><ele>1692.5</ele><time>2026-05-02T10:22:39.975Z</time></trkpt><trkpt lat="45.6933885" lon="11.0541909"><ele>1693.3333333333335</ele><time>2026-05-02T10:22:40.968Z</time></trkpt><trkpt lat="45.6933227" lon="11.0540469"><ele>1694.1666666666667</ele><time>2026-05-02T10:22:42.971Z</time></trkpt><trkpt lat="45.6932919" lon="11.0538867"><ele>1695.0</ele><time>2026-05-02T10:22:44.969Z</time></trkpt><trkpt lat="45.6932925" lon="11.0536873"><ele>1695.0</ele><time>2026-05-02T10:22:46.964Z</time></trkpt><trkpt lat="45.6933106" lon="11.0535727"><ele>1695.0</ele><time>2026-05-02T10:22:47.972Z</time></trkpt><trkpt lat="45.6933307" lon="11.05347"><ele>1695.0</ele><time>2026-05-02T10:22:48.964Z</time></trkpt><trkpt lat="45.6933579" lon="11.0533766"><ele>1695.0</ele><time>2026-05-02T10:22:49.964Z</time></trkpt><trkpt lat="45.6933853" lon="11.0532862"><ele>1695.0</ele><time>2026-05-02T10:22:50.962Z</time></trkpt><trkpt lat="45.6934133" lon="11.0531964"><ele>1695.0</ele><time>2026-05-02T10:22:52.052Z</time></trkpt><trkpt lat="45.693457" lon="11.0530403"><ele>1695.0</ele><time>2026-05-02T10:22:53.983Z</time></trkpt><trkpt lat="45.6934345" lon="11.0529388"><ele>1695.0</ele><time>2026-05-02T10:22:56.972Z</time></trkpt><trkpt lat="45.6933678" lon="11.0529654"><ele>1695.0</ele><time>2026-05-02T10:22:59.055Z</time></trkpt><trkpt lat="45.6932861" lon="11.0530658"><ele>1695.0</ele><time>2026-05-02T10:23:00.968Z</time></trkpt><trkpt lat="45.6932429" lon="11.0531356"><ele>1695.0</ele><time>2026-05-02T10:23:01.961Z</time></trkpt><trkpt lat="45.6931926" lon="11.0532109"><ele>1695.0</ele><time>2026-05-02T10:23:02.996Z</time></trkpt><trkpt lat="45.6931434" lon="11.0532903"><ele>1695.0</ele><time>2026-05-02T10:23:03.97Z</time></trkpt><trkpt lat="45.693093" lon="11.053383"><ele>1695.0</ele><time>2026-05-02T10:23:04.96Z</time></trkpt><trkpt lat="45.6930494" lon="11.0534949"><ele>1695.0</ele><time>2026-05-02T10:23:05.944Z</time></trkpt><trkpt lat="45.6930118" lon="11.0536043"><ele>1695.0</ele><time>2026-05-02T10:23:06.956Z</time></trkpt><trkpt lat="45.6929712" lon="11.0537079"><ele>1695.0</ele><time>2026-05-02T10:23:07.957Z</time></trkpt><trkpt lat="45.6929344" lon="11.0538155"><ele>1695.0</ele><time>2026-05-02T10:23:08.957Z</time></trkpt><trkpt lat="45.692901" lon="11.0539216"><ele>1695.0</ele><time>2026-05-02T10:23:09.958Z</time></trkpt><trkpt lat="45.6928663" lon="11.0540347"><ele>1695.0</ele><time>2026-05-02T10:23:10.952Z</time></trkpt><trkpt lat="45.692836" lon="11.0541516"><ele>1695.0</ele><time>2026-05-02T10:23:11.962Z</time></trkpt><trkpt lat="45.6928032" lon="11.0542684"><ele>1695.0</ele><time>2026-05-02T10:23:12.954Z</time></trkpt><trkpt lat="45.6927741" lon="11.0543892"><ele>1695.0</ele><time>2026-05-02T10:23:13.959Z</time></trkpt><trkpt lat="45.69274" lon="11.054495"><ele>1695.0</ele><time>2026-05-02T10:23:14.963Z</time></trkpt><trkpt lat="45.6926986" lon="11.054595"><ele>1696.8</ele><time>2026-05-02T10:23:15.962Z</time></trkpt><trkpt lat="45.6926484" lon="11.0546851"><ele>1698.6</ele><time>2026-05-02T10:23:16.968Z</time></trkpt><trkpt lat="45.6925966" lon="11.0547835"><ele>1700.4</ele><time>2026-05-02T10:23:17.959Z</time></trkpt><trkpt lat="45.6925371" lon="11.0548821"><ele>1702.2</ele><time>2026-05-02T10:23:18.959Z</time></trkpt><trkpt lat="45.6924757" lon="11.0549827"><ele>1704.0</ele><time>2026-05-02T10:23:19.965Z</time></trkpt><trkpt lat="45.6924089" lon="11.0550875"><ele>1706.8000000000002</ele><time>2026-05-02T10:23:20.957Z</time></trkpt><trkpt lat="45.6923409" lon="11.0551829"><ele>1709.6000000000001</ele><time>2026-05-02T10:23:21.962Z</time></trkpt><trkpt lat="45.6922862" lon="11.0552632"><ele>1712.4</ele><time>2026-05-02T10:23:22.972Z</time></trkpt><trkpt lat="45.6922533" lon="11.0553893"><ele>1715.2</ele><time>2026-05-02T10:23:24.966Z</time></trkpt><trkpt lat="45.6923184" lon="11.0554525"><ele>1718.0</ele><time>2026-05-02T10:23:26.961Z</time></trkpt><trkpt lat="45.692424" lon="11.0554322"><ele>1717.9999999999998</ele><time>2026-05-02T10:23:28.972Z</time></trkpt><trkpt lat="45.6924897" lon="11.0554521"><ele>1718.0</ele><time>2026-05-02T10:23:30.019Z</time></trkpt><trkpt lat="45.6925537" lon="11.05549"><ele>1718.0</ele><time>2026-05-02T10:23:30.961Z</time></trkpt><trkpt lat="45.6926148" lon="11.0555348"><ele>1718.0</ele><time>2026-05-02T10:23:31.968Z</time></trkpt><trkpt lat="45.6926775" lon="11.055587"><ele>1718.0</ele><time>2026-05-02T10:23:32.958Z</time></trkpt><trkpt lat="45.6927341" lon="11.0556534"><ele>1717.9999999999998</ele><time>2026-05-02T10:23:33.969Z</time></trkpt><trkpt lat="45.6927849" lon="11.055728"><ele>1718.0</ele><time>2026-05-02T10:23:34.964Z</time></trkpt><trkpt lat="45.6928313" lon="11.055808"><ele>1718.7142857142856</ele><time>2026-05-02T10:23:35.977Z</time></trkpt><trkpt lat="45.6928787" lon="11.0558902"><ele>1719.4285714285713</ele><time>2026-05-02T10:23:36.963Z</time></trkpt><trkpt lat="45.6929242" lon="11.055975"><ele>1720.142857142857</ele><time>2026-05-02T10:23:37.953Z</time></trkpt><trkpt lat="45.6929682" lon="11.0560635"><ele>1720.8571428571427</ele><time>2026-05-02T10:23:39.034Z</time></trkpt><trkpt lat="45.6930103" lon="11.0561374"><ele>1721.5714285714287</ele><time>2026-05-02T10:23:40.035Z</time></trkpt><trkpt lat="45.6930577" lon="11.0562007"><ele>1722.2857142857142</ele><time>2026-05-02T10:23:40.973Z</time></trkpt><trkpt lat="45.6930917" lon="11.0563136"><ele>1723.0</ele><time>2026-05-02T10:23:42.976Z</time></trkpt><trkpt lat="45.6930232" lon="11.0563743"><ele>1723.0</ele><time>2026-05-02T10:23:44.981Z</time></trkpt><trkpt lat="45.6929249" lon="11.0563402"><ele>1723.0000000000002</ele><time>2026-05-02T10:23:46.971Z</time></trkpt><trkpt lat="45.6928182" lon="11.0563766"><ele>1723.0000000000002</ele><time>2026-05-02T10:23:49.042Z</time></trkpt><trkpt lat="45.6927333" lon="11.0564578"><ele>1723.0</ele><time>2026-05-02T10:23:50.976Z</time></trkpt><trkpt lat="45.6926509" lon="11.0565501"><ele>1723.0</ele><time>2026-05-02T10:23:52.983Z</time></trkpt><trkpt lat="45.6925645" lon="11.0566487"><ele>1728.0</ele><time>2026-05-02T10:23:54.968Z</time></trkpt><trkpt lat="45.6924791" lon="11.056772"><ele>1733.0000000000002</ele><time>2026-05-02T10:23:56.97Z</time></trkpt><trkpt lat="45.6924313" lon="11.0569087"><ele>1738.0000000000002</ele><time>2026-05-02T10:23:58.965Z</time></trkpt><trkpt lat="45.6923889" lon="11.0570416"><ele>1743.0</ele><time>2026-05-02T10:24:00.982Z</time></trkpt><trkpt lat="45.6924312" lon="11.0571586"><ele>1748.0</ele><time>2026-05-02T10:24:02.975Z</time></trkpt><trkpt lat="45.6925526" lon="11.0571636"><ele>1747.9999999999998</ele><time>2026-05-02T10:24:04.973Z</time></trkpt><trkpt lat="45.6926239" lon="11.0571647"><ele>1748.0</ele><time>2026-05-02T10:24:05.987Z</time></trkpt><trkpt lat="45.6926859" lon="11.0571982"><ele>1748.0</ele><time>2026-05-02T10:24:06.97Z</time></trkpt><trkpt lat="45.6927387" lon="11.0572559"><ele>1748.0</ele><time>2026-05-02T10:24:07.97Z</time></trkpt><trkpt lat="45.692764" lon="11.0574165"><ele>1747.9999999999998</ele><time>2026-05-02T10:24:09.984Z</time></trkpt><trkpt lat="45.6927456" lon="11.0575933"><ele>1748.0</ele><time>2026-05-02T10:24:11.982Z</time></trkpt><trkpt lat="45.6927276" lon="11.0577372"><ele>1747.9999999999998</ele><time>2026-05-02T10:24:13.974Z</time></trkpt><trkpt lat="45.6926595" lon="11.0577978"><ele>1748.0</ele><time>2026-05-02T10:24:15.981Z</time></trkpt><trkpt lat="45.6925687" lon="11.0577797"><ele>1748.0</ele><time>2026-05-02T10:24:17.971Z</time></trkpt><trkpt lat="45.6924786" lon="11.057727"><ele>1748.0</ele><time>2026-05-02T10:24:20.036Z</time></trkpt><trkpt lat="45.6924249" lon="11.0576388"><ele>1747.9999999999998</ele><time>2026-05-02T10:24:21.972Z</time></trkpt><trkpt lat="45.6924071" lon="11.0575523"><ele>1748.0</ele><time>2026-05-02T10:24:23.974Z</time></trkpt><trkpt lat="45.6923778" lon="11.0574361"><ele>1749.5714285714284</ele><time>2026-05-02T10:24:26.978Z</time></trkpt><trkpt lat="45.6923034" lon="11.0574593"><ele>1751.1428571428573</ele><time>2026-05-02T10:32:58.962Z</time></trkpt><trkpt lat="45.6922455" lon="11.0574979"><ele>1752.7142857142858</ele><time>2026-05-02T10:33:15.966Z</time></trkpt><trkpt lat="45.6923003" lon="11.057562"><ele>1754.2857142857142</ele><time>2026-05-02T10:33:27.952Z</time></trkpt><trkpt lat="45.6922455" lon="11.0576279"><ele>1755.8571428571427</ele><time>2026-05-02T10:33:45.951Z</time></trkpt><trkpt lat="45.6921734" lon="11.0576073"><ele>1757.4285714285716</ele><time>2026-05-02T10:33:56.961Z</time></trkpt><trkpt lat="45.692101" lon="11.0576332"><ele>1759.0</ele><time>2026-05-02T10:34:03.955Z</time></trkpt><trkpt lat="45.6920678" lon="11.0577251"><ele>1759.0</ele><time>2026-05-02T10:34:13.963Z</time></trkpt><trkpt lat="45.6920384" lon="11.0578053"><ele>1759.0</ele><time>2026-05-02T10:34:18.954Z</time></trkpt><trkpt lat="45.6920382" lon="11.0577055"><ele>1759.0</ele><time>2026-05-02T11:04:39.863Z</time></trkpt><trkpt lat="45.6920889" lon="11.057652"><ele>1759.0</ele><time>2026-05-02T11:04:45.973Z</time></trkpt><trkpt lat="45.6921549" lon="11.0576268"><ele>1759.0</ele><time>2026-05-02T11:04:55.978Z</time></trkpt><trkpt lat="45.6922195" lon="11.0576239"><ele>1759.0</ele><time>2026-05-02T11:05:02.974Z</time></trkpt><trkpt lat="45.6922827" lon="11.0576137"><ele>1759.0</ele><time>2026-05-02T11:05:08.96Z</time></trkpt><trkpt lat="45.6923387" lon="11.0575695"><ele>1759.0</ele><time>2026-05-02T11:05:21.962Z</time></trkpt><trkpt lat="45.6923468" lon="11.0574736"><ele>1759.0</ele><time>2026-05-02T11:05:32.973Z</time></trkpt><trkpt lat="45.692396" lon="11.0575663"><ele>1759.0</ele><time>2026-05-02T11:11:02.961Z</time></trkpt><trkpt lat="45.6924724" lon="11.0576654"><ele>1759.0</ele><time>2026-05-02T11:11:04.977Z</time></trkpt><trkpt lat="45.692551" lon="11.0577601"><ele>1759.0</ele><time>2026-05-02T11:11:06.984Z</time></trkpt><trkpt lat="45.6926446" lon="11.0577949"><ele>1759.0</ele><time>2026-05-02T11:11:08.99Z</time></trkpt><trkpt lat="45.6927081" lon="11.0578012"><ele>1759.0</ele><time>2026-05-02T11:11:10.982Z</time></trkpt><trkpt lat="45.6927531" lon="11.0577233"><ele>1759.0</ele><time>2026-05-02T11:12:00.968Z</time></trkpt><trkpt lat="45.6927504" lon="11.0575587"><ele>1759.0</ele><time>2026-05-02T11:12:02.977Z</time></trkpt><trkpt lat="45.6927527" lon="11.057396"><ele>1759.0</ele><time>2026-05-02T11:12:04.97Z</time></trkpt><trkpt lat="45.6927544" lon="11.0572356"><ele>1756.8000000000002</ele><time>2026-05-02T11:12:06.981Z</time></trkpt><trkpt lat="45.6926562" lon="11.0571781"><ele>1754.6000000000001</ele><time>2026-05-02T11:12:08.976Z</time></trkpt><trkpt lat="45.6925877" lon="11.0571627"><ele>1752.4</ele><time>2026-05-02T11:12:09.974Z</time></trkpt><trkpt lat="45.6925209" lon="11.0571534"><ele>1750.2</ele><time>2026-05-02T11:12:10.976Z</time></trkpt><trkpt lat="45.6924219" lon="11.0571327"><ele>1748.0</ele><time>2026-05-02T11:12:12.979Z</time></trkpt><trkpt lat="45.6924072" lon="11.056976"><ele>1747.9999999999998</ele><time>2026-05-02T11:12:15.048Z</time></trkpt><trkpt lat="45.692439" lon="11.0568778"><ele>1748.0</ele><time>2026-05-02T11:12:15.967Z</time></trkpt><trkpt lat="45.6924796" lon="11.0567765"><ele>1748.0</ele><time>2026-05-02T11:12:16.973Z</time></trkpt><trkpt lat="45.6925366" lon="11.0566877"><ele>1748.0</ele><time>2026-05-02T11:12:17.984Z</time></trkpt><trkpt lat="45.6926108" lon="11.0565981"><ele>1747.9999999999998</ele><time>2026-05-02T11:12:18.971Z</time></trkpt><trkpt lat="45.6926878" lon="11.0565044"><ele>1748.0</ele><time>2026-05-02T11:12:20.033Z</time></trkpt><trkpt lat="45.6927618" lon="11.0564329"><ele>1743.8333333333333</ele><time>2026-05-02T11:12:20.962Z</time></trkpt><trkpt lat="45.692827" lon="11.0563827"><ele>1739.6666666666665</ele><time>2026-05-02T11:12:21.972Z</time></trkpt><trkpt lat="45.6929044" lon="11.0563495"><ele>1735.5</ele><time>2026-05-02T11:12:22.978Z</time></trkpt><trkpt lat="45.6929756" lon="11.0563453"><ele>1731.3333333333335</ele><time>2026-05-02T11:12:24.033Z</time></trkpt><trkpt lat="45.6930379" lon="11.0563586"><ele>1727.1666666666667</ele><time>2026-05-02T11:12:25.044Z</time></trkpt><trkpt lat="45.6930836" lon="11.0562763"><ele>1723.0</ele><time>2026-05-02T11:12:26.974Z</time></trkpt><trkpt lat="45.6930013" lon="11.0561129"><ele>1723.0</ele><time>2026-05-02T11:12:28.967Z</time></trkpt><trkpt lat="45.6929415" lon="11.0560091"><ele>1723.0000000000002</ele><time>2026-05-02T11:12:29.975Z</time></trkpt><trkpt lat="45.6928828" lon="11.0558884"><ele>1723.0000000000002</ele><time>2026-05-02T11:12:30.972Z</time></trkpt><trkpt lat="45.6928242" lon="11.0557827"><ele>1723.0</ele><time>2026-05-02T11:12:31.969Z</time></trkpt><trkpt lat="45.6927521" lon="11.0556736"><ele>1723.0</ele><time>2026-05-02T11:12:32.955Z</time></trkpt><trkpt lat="45.692678" lon="11.0555773"><ele>1722.1666666666667</ele><time>2026-05-02T11:12:33.973Z</time></trkpt><trkpt lat="45.6926003" lon="11.0555017"><ele>1721.3333333333335</ele><time>2026-05-02T11:12:34.964Z</time></trkpt><trkpt lat="45.6925272" lon="11.0554554"><ele>1720.5</ele><time>2026-05-02T11:12:35.969Z</time></trkpt><trkpt lat="45.6924482" lon="11.0554337"><ele>1719.6666666666665</ele><time>2026-05-02T11:12:36.979Z</time></trkpt><trkpt lat="45.6923708" lon="11.0554331"><ele>1718.8333333333333</ele><time>2026-05-02T11:12:37.952Z</time></trkpt><trkpt lat="45.6922752" lon="11.0554071"><ele>1718.0</ele><time>2026-05-02T11:12:39.973Z</time></trkpt><trkpt lat="45.6922898" lon="11.0552606"><ele>1718.0</ele><time>2026-05-02T11:12:42.968Z</time></trkpt><trkpt lat="45.6923547" lon="11.0551292"><ele>1718.0000000000002</ele><time>2026-05-02T11:12:44.952Z</time></trkpt><trkpt lat="45.6924449" lon="11.0550065"><ele>1718.0000000000002</ele><time>2026-05-02T11:12:46.977Z</time></trkpt><trkpt lat="45.6924927" lon="11.0549339"><ele>1718.0</ele><time>2026-05-02T11:12:47.971Z</time></trkpt><trkpt lat="45.692542" lon="11.054859"><ele>1718.0</ele><time>2026-05-02T11:12:48.97Z</time></trkpt><trkpt lat="45.6925899" lon="11.0547789"><ele>1715.6666666666665</ele><time>2026-05-02T11:12:49.976Z</time></trkpt><trkpt lat="45.6926376" lon="11.0546921"><ele>1713.3333333333333</ele><time>2026-05-02T11:12:50.978Z</time></trkpt><trkpt lat="45.6926864" lon="11.0545937"><ele>1711.0</ele><time>2026-05-02T11:12:51.98Z</time></trkpt><trkpt lat="45.6927319" lon="11.0544907"><ele>1708.6666666666665</ele><time>2026-05-02T11:12:52.965Z</time></trkpt><trkpt lat="45.6927704" lon="11.0543791"><ele>1706.3333333333333</ele><time>2026-05-02T11:12:53.979Z</time></trkpt><trkpt lat="45.6928028" lon="11.0542472"><ele>1704.0</ele><time>2026-05-02T11:12:54.982Z</time></trkpt><trkpt lat="45.6928321" lon="11.0541247"><ele>1702.5</ele><time>2026-05-02T11:12:55.977Z</time></trkpt><trkpt lat="45.6928642" lon="11.0540094"><ele>1701.0</ele><time>2026-05-02T11:12:56.979Z</time></trkpt><trkpt lat="45.6928975" lon="11.0538943"><ele>1699.5</ele><time>2026-05-02T11:12:57.979Z</time></trkpt><trkpt lat="45.6929332" lon="11.05378"><ele>1698.0</ele><time>2026-05-02T11:12:58.969Z</time></trkpt><trkpt lat="45.6929736" lon="11.0536805"><ele>1696.5</ele><time>2026-05-02T11:12:59.971Z</time></trkpt><trkpt lat="45.693015" lon="11.0535852"><ele>1695.0</ele><time>2026-05-02T11:13:00.975Z</time></trkpt><trkpt lat="45.693057" lon="11.0534893"><ele>1695.0</ele><time>2026-05-02T11:13:01.979Z</time></trkpt><trkpt lat="45.6931055" lon="11.0534033"><ele>1695.0</ele><time>2026-05-02T11:13:02.983Z</time></trkpt><trkpt lat="45.6931514" lon="11.0533177"><ele>1695.0</ele><time>2026-05-02T11:13:03.967Z</time></trkpt><trkpt lat="45.6931989" lon="11.0532409"><ele>1695.0</ele><time>2026-05-02T11:13:04.984Z</time></trkpt><trkpt lat="45.6932458" lon="11.0531636"><ele>1695.0</ele><time>2026-05-02T11:13:05.985Z</time></trkpt><trkpt lat="45.6932915" lon="11.0530963"><ele>1695.0</ele><time>2026-05-02T11:13:06.977Z</time></trkpt><trkpt lat="45.6933394" lon="11.0530181"><ele>1695.0</ele><time>2026-05-02T11:13:07.973Z</time></trkpt><trkpt lat="45.693386" lon="11.052945"><ele>1694.3333333333333</ele><time>2026-05-02T11:13:09.052Z</time></trkpt><trkpt lat="45.6934555" lon="11.0528089"><ele>1693.6666666666665</ele><time>2026-05-02T11:13:10.973Z</time></trkpt><trkpt lat="45.6934635" lon="11.0526413"><ele>1693.0</ele><time>2026-05-02T11:13:12.969Z</time></trkpt><trkpt lat="45.6934334" lon="11.0525597"><ele>1692.3333333333333</ele><time>2026-05-02T11:13:13.981Z</time></trkpt><trkpt lat="45.6933976" lon="11.0524824"><ele>1691.6666666666665</ele><time>2026-05-02T11:13:14.975Z</time></trkpt><trkpt lat="45.6933353" lon="11.0524281"><ele>1691.0</ele><time>2026-05-02T11:13:15.978Z</time></trkpt><trkpt lat="45.6932527" lon="11.0524011"><ele>1690.9999999999998</ele><time>2026-05-02T11:13:16.98Z</time></trkpt><trkpt lat="45.693171" lon="11.0524077"><ele>1691.0</ele><time>2026-05-02T11:13:18.063Z</time></trkpt><trkpt lat="45.6930953" lon="11.0524355"><ele>1691.0</ele><time>2026-05-02T11:13:19.037Z</time></trkpt><trkpt lat="45.6930217" lon="11.0524778"><ele>1691.0</ele><time>2026-05-02T11:13:20.041Z</time></trkpt><trkpt lat="45.6929554" lon="11.0525089"><ele>1690.9999999999998</ele><time>2026-05-02T11:13:20.976Z</time></trkpt><trkpt lat="45.6928793" lon="11.052496"><ele>1691.0</ele><time>2026-05-02T11:13:21.994Z</time></trkpt><trkpt lat="45.6928165" lon="11.0524574"><ele>1689.6666666666665</ele><time>2026-05-02T11:13:22.975Z</time></trkpt><trkpt lat="45.6927665" lon="11.0523843"><ele>1688.3333333333333</ele><time>2026-05-02T11:13:23.979Z</time></trkpt><trkpt lat="45.6927503" lon="11.0522859"><ele>1687.0</ele><time>2026-05-02T11:13:24.974Z</time></trkpt><trkpt lat="45.6927365" lon="11.052174"><ele>1685.6666666666665</ele><time>2026-05-02T11:13:25.972Z</time></trkpt><trkpt lat="45.6927168" lon="11.0520564"><ele>1684.3333333333333</ele><time>2026-05-02T11:13:26.975Z</time></trkpt><trkpt lat="45.6926916" lon="11.0519271"><ele>1683.0</ele><time>2026-05-02T11:13:27.975Z</time></trkpt><trkpt lat="45.6926584" lon="11.0517823"><ele>1683.0</ele><time>2026-05-02T11:13:28.978Z</time></trkpt><trkpt lat="45.6926152" lon="11.0516524"><ele>1683.0</ele><time>2026-05-02T11:13:29.97Z</time></trkpt><trkpt lat="45.6925672" lon="11.0515465"><ele>1683.0</ele><time>2026-05-02T11:13:30.978Z</time></trkpt><trkpt lat="45.6925017" lon="11.0514493"><ele>1683.0</ele><time>2026-05-02T11:13:31.97Z</time></trkpt><trkpt lat="45.6924263" lon="11.0513768"><ele>1683.0</ele><time>2026-05-02T11:13:32.976Z</time></trkpt><trkpt lat="45.692339" lon="11.0513426"><ele>1681.6000000000001</ele><time>2026-05-02T11:13:33.976Z</time></trkpt><trkpt lat="45.6922395" lon="11.0513258"><ele>1680.2</ele><time>2026-05-02T11:13:35.046Z</time></trkpt><trkpt lat="45.6921325" lon="11.0513491"><ele>1678.8</ele><time>2026-05-02T11:13:35.988Z</time></trkpt><trkpt lat="45.692036" lon="11.0514097"><ele>1677.4</ele><time>2026-05-02T11:13:36.982Z</time></trkpt><trkpt lat="45.6919443" lon="11.0514861"><ele>1676.0</ele><time>2026-05-02T11:13:38.029Z</time></trkpt><trkpt lat="45.6918501" lon="11.05154"><ele>1675.0</ele><time>2026-05-02T11:13:39.052Z</time></trkpt><trkpt lat="45.691745" lon="11.0515666"><ele>1674.0</ele><time>2026-05-02T11:13:40.043Z</time></trkpt><trkpt lat="45.6916348" lon="11.0515808"><ele>1673.0</ele><time>2026-05-02T11:13:40.969Z</time></trkpt><trkpt lat="45.6915195" lon="11.0515819"><ele>1672.0</ele><time>2026-05-02T11:13:41.962Z</time></trkpt><trkpt lat="45.6914143" lon="11.0515783"><ele>1671.0</ele><time>2026-05-02T11:13:42.998Z</time></trkpt><trkpt lat="45.6913179" lon="11.0515734"><ele>1671.0</ele><time>2026-05-02T11:13:43.967Z</time></trkpt><trkpt lat="45.6912323" lon="11.0515543"><ele>1671.0</ele><time>2026-05-02T11:13:45.059Z</time></trkpt><trkpt lat="45.6911638" lon="11.0515334"><ele>1671.0</ele><time>2026-05-02T11:13:45.981Z</time></trkpt><trkpt lat="45.6910408" lon="11.0514909"><ele>1671.0</ele><time>2026-05-02T11:13:48Z</time></trkpt><trkpt lat="45.6909774" lon="11.0514495"><ele>1671.0</ele><time>2026-05-02T11:13:49.037Z</time></trkpt><trkpt lat="45.6909121" lon="11.0513916"><ele>1671.0</ele><time>2026-05-02T11:13:50.029Z</time></trkpt><trkpt lat="45.6908381" lon="11.0513238"><ele>1670.8</ele><time>2026-05-02T11:13:50.979Z</time></trkpt><trkpt lat="45.6907588" lon="11.0512568"><ele>1670.6</ele><time>2026-05-02T11:13:51.977Z</time></trkpt><trkpt lat="45.6906758" lon="11.0512131"><ele>1670.4</ele><time>2026-05-02T11:13:52.977Z</time></trkpt><trkpt lat="45.6905749" lon="11.0511929"><ele>1670.2</ele><time>2026-05-02T11:13:53.99Z</time></trkpt><trkpt lat="45.6904659" lon="11.0511866"><ele>1670.0</ele><time>2026-05-02T11:13:55.055Z</time></trkpt><trkpt lat="45.6903594" lon="11.0511792"><ele>1669.25</ele><time>2026-05-02T11:13:55.976Z</time></trkpt><trkpt lat="45.6902581" lon="11.0511499"><ele>1668.5</ele><time>2026-05-02T11:13:56.984Z</time></trkpt><trkpt lat="45.690149" lon="11.0510852"><ele>1667.75</ele><time>2026-05-02T11:13:58.015Z</time></trkpt><trkpt lat="45.6900421" lon="11.0510022"><ele>1667.0</ele><time>2026-05-02T11:13:59.056Z</time></trkpt><trkpt lat="45.6899459" lon="11.0509153"><ele>1667.0</ele><time>2026-05-02T11:14:00.031Z</time></trkpt><trkpt lat="45.6898451" lon="11.050836"><ele>1667.0</ele><time>2026-05-02T11:14:00.97Z</time></trkpt><trkpt lat="45.689729" lon="11.0507648"><ele>1667.0</ele><time>2026-05-02T11:14:01.964Z</time></trkpt><trkpt lat="45.6896184" lon="11.0506923"><ele>1667.0</ele><time>2026-05-02T11:14:02.975Z</time></trkpt><trkpt lat="45.6895333" lon="11.0506021"><ele>1667.8</ele><time>2026-05-02T11:14:03.973Z</time></trkpt><trkpt lat="45.6894601" lon="11.0505088"><ele>1668.6</ele><time>2026-05-02T11:14:04.974Z</time></trkpt><trkpt lat="45.6894109" lon="11.0504082"><ele>1669.3999999999999</ele><time>2026-05-02T11:14:05.97Z</time></trkpt><trkpt lat="45.6893788" lon="11.0503143"><ele>1670.1999999999998</ele><time>2026-05-02T11:14:07.04Z</time></trkpt><trkpt lat="45.6893114" lon="11.0501879"><ele>1671.0</ele><time>2026-05-02T11:14:09.045Z</time></trkpt><trkpt lat="45.6892161" lon="11.0502242"><ele>1668.4</ele><time>2026-05-02T11:14:10.98Z</time></trkpt><trkpt lat="45.6891806" lon="11.0503961"><ele>1665.8</ele><time>2026-05-02T11:14:12.974Z</time></trkpt><trkpt lat="45.6892014" lon="11.0504932"><ele>1663.2</ele><time>2026-05-02T11:14:13.975Z</time></trkpt><trkpt lat="45.6892287" lon="11.050599"><ele>1660.6000000000001</ele><time>2026-05-02T11:14:14.976Z</time></trkpt><trkpt lat="45.6892854" lon="11.0507072"><ele>1658.0</ele><time>2026-05-02T11:14:15.963Z</time></trkpt><trkpt lat="45.6893547" lon="11.0508229"><ele>1659.8000000000002</ele><time>2026-05-02T11:14:16.966Z</time></trkpt><trkpt lat="45.6894301" lon="11.0509349"><ele>1661.6</ele><time>2026-05-02T11:14:18.011Z</time></trkpt><trkpt lat="45.6895146" lon="11.0510488"><ele>1663.4</ele><time>2026-05-02T11:14:18.978Z</time></trkpt><trkpt lat="45.6896031" lon="11.0511492"><ele>1665.1999999999998</ele><time>2026-05-02T11:14:19.971Z</time></trkpt><trkpt lat="45.6896872" lon="11.0512351"><ele>1667.0</ele><time>2026-05-02T11:14:20.975Z</time></trkpt><trkpt lat="45.6897773" lon="11.0513071"><ele>1666.9999999999998</ele><time>2026-05-02T11:14:21.97Z</time></trkpt><trkpt lat="45.6898597" lon="11.0513708"><ele>1667.0</ele><time>2026-05-02T11:14:22.979Z</time></trkpt><trkpt lat="45.6899359" lon="11.0514359"><ele>1667.0</ele><time>2026-05-02T11:14:23.969Z</time></trkpt><trkpt lat="45.6900081" lon="11.0515032"><ele>1667.0</ele><time>2026-05-02T11:14:24.963Z</time></trkpt><trkpt lat="45.6900602" lon="11.0515886"><ele>1666.9999999999998</ele><time>2026-05-02T11:14:25.955Z</time></trkpt><trkpt lat="45.6900955" lon="11.0516827"><ele>1667.0</ele><time>2026-05-02T11:14:26.967Z</time></trkpt><trkpt lat="45.6901065" lon="11.051783"><ele>1665.3333333333333</ele><time>2026-05-02T11:14:27.964Z</time></trkpt><trkpt lat="45.690102" lon="11.0518836"><ele>1663.6666666666665</ele><time>2026-05-02T11:14:28.974Z</time></trkpt><trkpt lat="45.6900899" lon="11.0519859"><ele>1662.0</ele><time>2026-05-02T11:14:29.965Z</time></trkpt><trkpt lat="45.6900781" lon="11.0520769"><ele>1660.3333333333335</ele><time>2026-05-02T11:14:30.965Z</time></trkpt><trkpt lat="45.6900445" lon="11.0522268"><ele>1658.6666666666667</ele><time>2026-05-02T11:14:33.032Z</time></trkpt><trkpt lat="45.6899813" lon="11.0523498"><ele>1657.0</ele><time>2026-05-02T11:14:35.006Z</time></trkpt><trkpt lat="45.6898795" lon="11.0524437"><ele>1656.8333333333335</ele><time>2026-05-02T11:14:36.97Z</time></trkpt><trkpt lat="45.6898012" lon="11.0524741"><ele>1656.6666666666667</ele><time>2026-05-02T11:14:37.967Z</time></trkpt><trkpt lat="45.6897159" lon="11.0524945"><ele>1656.5</ele><time>2026-05-02T11:14:38.97Z</time></trkpt><trkpt lat="45.6896295" lon="11.0525059"><ele>1656.3333333333335</ele><time>2026-05-02T11:14:39.966Z</time></trkpt><trkpt lat="45.6895413" lon="11.052509"><ele>1656.1666666666667</ele><time>2026-05-02T11:14:40.973Z</time></trkpt><trkpt lat="45.6894504" lon="11.0525119"><ele>1656.0</ele><time>2026-05-02T11:14:41.973Z</time></trkpt><trkpt lat="45.689362" lon="11.0525002"><ele>1654.1666666666667</ele><time>2026-05-02T11:14:42.969Z</time></trkpt><trkpt lat="45.689276" lon="11.0524707"><ele>1652.3333333333335</ele><time>2026-05-02T11:14:43.97Z</time></trkpt><trkpt lat="45.6891937" lon="11.0524418"><ele>1650.5</ele><time>2026-05-02T11:14:44.963Z</time></trkpt><trkpt lat="45.6891073" lon="11.0524101"><ele>1648.6666666666667</ele><time>2026-05-02T11:14:45.974Z</time></trkpt><trkpt lat="45.6890233" lon="11.0523949"><ele>1646.8333333333335</ele><time>2026-05-02T11:14:46.978Z</time></trkpt><trkpt lat="45.6889314" lon="11.0523953"><ele>1645.0</ele><time>2026-05-02T11:14:47.966Z</time></trkpt><trkpt lat="45.6888362" lon="11.0524121"><ele>1645.0</ele><time>2026-05-02T11:14:49.035Z</time></trkpt><trkpt lat="45.6887453" lon="11.0524455"><ele>1645.0</ele><time>2026-05-02T11:14:50.025Z</time></trkpt><trkpt lat="45.6886602" lon="11.0524905"><ele>1645.0</ele><time>2026-05-02T11:14:50.974Z</time></trkpt><trkpt lat="45.6885745" lon="11.052547"><ele>1645.0</ele><time>2026-05-02T11:14:51.98Z</time></trkpt><trkpt lat="45.6884898" lon="11.0526112"><ele>1645.0</ele><time>2026-05-02T11:14:52.968Z</time></trkpt><trkpt lat="45.6884038" lon="11.052658"><ele>1644.0000000000002</ele><time>2026-05-02T11:14:53.976Z</time></trkpt><trkpt lat="45.6883195" lon="11.052688"><ele>1643.0</ele><time>2026-05-02T11:14:54.975Z</time></trkpt><trkpt lat="45.6882361" lon="11.0527024"><ele>1642.0</ele><time>2026-05-02T11:14:55.955Z</time></trkpt><trkpt lat="45.6881459" lon="11.0527029"><ele>1641.0</ele><time>2026-05-02T11:14:56.974Z</time></trkpt><trkpt lat="45.6880546" lon="11.0526603"><ele>1640.0000000000002</ele><time>2026-05-02T11:14:57.97Z</time></trkpt><trkpt lat="45.6879789" lon="11.0526006"><ele>1639.0</ele><time>2026-05-02T11:14:59.043Z</time></trkpt><trkpt lat="45.6879117" lon="11.0525225"><ele>1639.0000000000002</ele><time>2026-05-02T11:14:59.97Z</time></trkpt><trkpt lat="45.6878422" lon="11.0524658"><ele>1639.0</ele><time>2026-05-02T11:15:00.983Z</time></trkpt><trkpt lat="45.6877702" lon="11.0524333"><ele>1639.0</ele><time>2026-05-02T11:15:02.029Z</time></trkpt><trkpt lat="45.687692" lon="11.0524299"><ele>1639.0</ele><time>2026-05-02T11:15:03.061Z</time></trkpt><trkpt lat="45.6876191" lon="11.0524778"><ele>1639.0000000000002</ele><time>2026-05-02T11:15:04.036Z</time></trkpt><trkpt lat="45.6875629" lon="11.0525559"><ele>1639.0</ele><time>2026-05-02T11:15:05.034Z</time></trkpt><trkpt lat="45.687522" lon="11.0526591"><ele>1637.8000000000002</ele><time>2026-05-02T11:15:05.991Z</time></trkpt><trkpt lat="45.6874862" lon="11.0527738"><ele>1636.6000000000001</ele><time>2026-05-02T11:15:06.982Z</time></trkpt><trkpt lat="45.6874486" lon="11.0528816"><ele>1635.4</ele><time>2026-05-02T11:15:07.979Z</time></trkpt><trkpt lat="45.6873939" lon="11.0529853"><ele>1634.2</ele><time>2026-05-02T11:15:08.998Z</time></trkpt><trkpt lat="45.6873168" lon="11.0530712"><ele>1633.0</ele><time>2026-05-02T11:15:09.985Z</time></trkpt><trkpt lat="45.6872291" lon="11.0531466"><ele>1633.0</ele><time>2026-05-02T11:15:10.974Z</time></trkpt><trkpt lat="45.6871382" lon="11.053201"><ele>1633.0</ele><time>2026-05-02T11:15:12.054Z</time></trkpt><trkpt lat="45.6870294" lon="11.0532295"><ele>1633.0</ele><time>2026-05-02T11:15:13.032Z</time></trkpt><trkpt lat="45.6869219" lon="11.0532626"><ele>1633.0</ele><time>2026-05-02T11:15:14.018Z</time></trkpt><trkpt lat="45.6868157" lon="11.0532812"><ele>1633.0</ele><time>2026-05-02T11:15:14.958Z</time></trkpt><trkpt lat="45.6867121" lon="11.0532972"><ele>1632.0</ele><time>2026-05-02T11:15:15.963Z</time></trkpt><trkpt lat="45.6866121" lon="11.053304"><ele>1631.0</ele><time>2026-05-02T11:15:16.959Z</time></trkpt><trkpt lat="45.6865166" lon="11.0532917"><ele>1630.0</ele><time>2026-05-02T11:15:17.964Z</time></trkpt><trkpt lat="45.6864208" lon="11.0532724"><ele>1629.0</ele><time>2026-05-02T11:15:19.053Z</time></trkpt><trkpt lat="45.6863332" lon="11.0532846"><ele>1628.0</ele><time>2026-05-02T11:15:20.036Z</time></trkpt><trkpt lat="45.6862639" lon="11.053327"><ele>1627.9999999999998</ele><time>2026-05-02T11:15:20.95Z</time></trkpt><trkpt lat="45.6862085" lon="11.0534171"><ele>1628.0</ele><time>2026-05-02T11:15:21.974Z</time></trkpt><trkpt lat="45.6861663" lon="11.0535119"><ele>1628.0</ele><time>2026-05-02T11:15:22.97Z</time></trkpt><trkpt lat="45.6861459" lon="11.0536291"><ele>1628.0</ele><time>2026-05-02T11:15:23.972Z</time></trkpt><trkpt lat="45.6861353" lon="11.0537528"><ele>1627.9999999999998</ele><time>2026-05-02T11:15:24.973Z</time></trkpt><trkpt lat="45.6861246" lon="11.0538812"><ele>1628.0</ele><time>2026-05-02T11:15:25.974Z</time></trkpt><trkpt lat="45.6860927" lon="11.0539866"><ele>1627.3333333333333</ele><time>2026-05-02T11:15:26.971Z</time></trkpt><trkpt lat="45.6860464" lon="11.0540702"><ele>1626.6666666666665</ele><time>2026-05-02T11:15:27.971Z</time></trkpt><trkpt lat="45.6859765" lon="11.0541191"><ele>1626.0</ele><time>2026-05-02T11:15:29.007Z</time></trkpt><trkpt lat="45.6858968" lon="11.0541307"><ele>1625.3333333333335</ele><time>2026-05-02T11:15:29.971Z</time></trkpt><trkpt lat="45.6858144" lon="11.0541064"><ele>1624.6666666666667</ele><time>2026-05-02T11:15:30.966Z</time></trkpt><trkpt lat="45.6857416" lon="11.054054"><ele>1624.0</ele><time>2026-05-02T11:15:31.968Z</time></trkpt><trkpt lat="45.6856662" lon="11.053988"><ele>1623.4</ele><time>2026-05-02T11:15:32.97Z</time></trkpt><trkpt lat="45.6855746" lon="11.0539318"><ele>1622.8000000000002</ele><time>2026-05-02T11:15:33.973Z</time></trkpt><trkpt lat="45.6854754" lon="11.0538873"><ele>1622.1999999999998</ele><time>2026-05-02T11:15:34.977Z</time></trkpt><trkpt lat="45.685373" lon="11.0538384"><ele>1621.6</ele><time>2026-05-02T11:15:35.976Z</time></trkpt><trkpt lat="45.6852787" lon="11.0537922"><ele>1621.0</ele><time>2026-05-02T11:15:36.97Z</time></trkpt><trkpt lat="45.6851867" lon="11.0537505"><ele>1619.5000000000002</ele><time>2026-05-02T11:15:38.051Z</time></trkpt><trkpt lat="45.6850944" lon="11.0537126"><ele>1618.0</ele><time>2026-05-02T11:15:39.035Z</time></trkpt><trkpt lat="45.6850071" lon="11.0536931"><ele>1616.5</ele><time>2026-05-02T11:15:40.043Z</time></trkpt><trkpt lat="45.6849167" lon="11.0536987"><ele>1615.0</ele><time>2026-05-02T11:15:40.979Z</time></trkpt><trkpt lat="45.68483" lon="11.0537195"><ele>1613.5000000000002</ele><time>2026-05-02T11:15:41.983Z</time></trkpt><trkpt lat="45.6847477" lon="11.0537503"><ele>1612.0</ele><time>2026-05-02T11:15:42.992Z</time></trkpt><trkpt lat="45.6846753" lon="11.0538018"><ele>1612.0</ele><time>2026-05-02T11:15:43.982Z</time></trkpt><trkpt lat="45.6846066" lon="11.0538566"><ele>1612.0</ele><time>2026-05-02T11:15:45.086Z</time></trkpt><trkpt lat="45.6844759" lon="11.0539534"><ele>1612.0</ele><time>2026-05-02T11:15:47.042Z</time></trkpt><trkpt lat="45.6844083" lon="11.0540154"><ele>1612.0</ele><time>2026-05-02T11:15:48.047Z</time></trkpt><trkpt lat="45.6843404" lon="11.0540721"><ele>1612.0</ele><time>2026-05-02T11:15:49.035Z</time></trkpt><trkpt lat="45.6842711" lon="11.0541205"><ele>1610.6666666666667</ele><time>2026-05-02T11:15:50.038Z</time></trkpt><trkpt lat="45.6842049" lon="11.0541713"><ele>1609.3333333333335</ele><time>2026-05-02T11:15:50.975Z</time></trkpt><trkpt lat="45.6841448" lon="11.0542097"><ele>1608.0</ele><time>2026-05-02T11:15:51.967Z</time></trkpt><trkpt lat="45.6840107" lon="11.0542359"><ele>1606.6666666666665</ele><time>2026-05-02T11:15:54.054Z</time></trkpt><trkpt lat="45.6839359" lon="11.0542481"><ele>1605.3333333333333</ele><time>2026-05-02T11:15:54.977Z</time></trkpt><trkpt lat="45.6838652" lon="11.0542629"><ele>1604.0</ele><time>2026-05-02T11:15:55.965Z</time></trkpt><trkpt lat="45.6837969" lon="11.0542899"><ele>1603.9999999999998</ele><time>2026-05-02T11:15:56.972Z</time></trkpt><trkpt lat="45.6837272" lon="11.054318"><ele>1604.0</ele><time>2026-05-02T11:15:58.072Z</time></trkpt><trkpt lat="45.6836583" lon="11.0543428"><ele>1604.0</ele><time>2026-05-02T11:15:58.974Z</time></trkpt><trkpt lat="45.6835854" lon="11.0543655"><ele>1604.0</ele><time>2026-05-02T11:16:00.061Z</time></trkpt><trkpt lat="45.6835072" lon="11.0543892"><ele>1603.9999999999998</ele><time>2026-05-02T11:16:00.975Z</time></trkpt><trkpt lat="45.6834274" lon="11.0544111"><ele>1604.0</ele><time>2026-05-02T11:16:01.977Z</time></trkpt><trkpt lat="45.6833533" lon="11.0544281"><ele>1604.0</ele><time>2026-05-02T11:16:03.037Z</time></trkpt><trkpt lat="45.6832847" lon="11.0544527"><ele>1604.0</ele><time>2026-05-02T11:16:04.042Z</time></trkpt><trkpt lat="45.6832212" lon="11.0544809"><ele>1604.0</ele><time>2026-05-02T11:16:04.97Z</time></trkpt><trkpt lat="45.6831529" lon="11.0545105"><ele>1604.0</ele><time>2026-05-02T11:16:05.974Z</time></trkpt><trkpt lat="45.68309" lon="11.0545282"><ele>1604.0</ele><time>2026-05-02T11:16:06.971Z</time></trkpt><trkpt lat="45.6830244" lon="11.0545392"><ele>1604.0</ele><time>2026-05-02T11:16:07.986Z</time></trkpt><trkpt lat="45.6829503" lon="11.0545562"><ele>1604.0</ele><time>2026-05-02T11:16:08.974Z</time></trkpt><trkpt lat="45.6828682" lon="11.0545613"><ele>1603.9999999999998</ele><time>2026-05-02T11:16:10.003Z</time></trkpt><trkpt lat="45.682784" lon="11.0545497"><ele>1604.0</ele><time>2026-05-02T11:16:10.978Z</time></trkpt><trkpt lat="45.6826933" lon="11.0545414"><ele>1604.0</ele><time>2026-05-02T11:16:11.965Z</time></trkpt><trkpt lat="45.6826012" lon="11.0545229"><ele>1604.0</ele><time>2026-05-02T11:16:13.011Z</time></trkpt><trkpt lat="45.6825177" lon="11.0544872"><ele>1603.9999999999998</ele><time>2026-05-02T11:16:13.966Z</time></trkpt><trkpt lat="45.6824349" lon="11.0544437"><ele>1604.0</ele><time>2026-05-02T11:16:14.967Z</time></trkpt><trkpt lat="45.6823523" lon="11.0544128"><ele>1603.5714285714287</ele><time>2026-05-02T11:16:15.967Z</time></trkpt><trkpt lat="45.6822739" lon="11.0543955"><ele>1603.1428571428573</ele><time>2026-05-02T11:16:16.974Z</time></trkpt><trkpt lat="45.6821951" lon="11.0543824"><ele>1602.7142857142858</ele><time>2026-05-02T11:16:17.974Z</time></trkpt><trkpt lat="45.6821223" lon="11.054364"><ele>1602.2857142857142</ele><time>2026-05-02T11:16:18.97Z</time></trkpt><trkpt lat="45.6820566" lon="11.0543491"><ele>1601.857142857143</ele><time>2026-05-02T11:16:19.978Z</time></trkpt><trkpt lat="45.6819882" lon="11.054324"><ele>1601.4285714285713</ele><time>2026-05-02T11:16:20.98Z</time></trkpt><trkpt lat="45.6819199" lon="11.0542994"><ele>1601.0</ele><time>2026-05-02T11:16:21.972Z</time></trkpt><trkpt lat="45.6818528" lon="11.0542733"><ele>1600.1666666666665</ele><time>2026-05-02T11:16:22.971Z</time></trkpt><trkpt lat="45.6817909" lon="11.0542473"><ele>1599.3333333333333</ele><time>2026-05-02T11:16:23.98Z</time></trkpt><trkpt lat="45.6817278" lon="11.0542168"><ele>1598.5</ele><time>2026-05-02T11:16:24.985Z</time></trkpt><trkpt lat="45.6816664" lon="11.0541801"><ele>1597.6666666666665</ele><time>2026-05-02T11:16:25.974Z</time></trkpt><trkpt lat="45.6815784" lon="11.0540673"><ele>1596.8333333333333</ele><time>2026-05-02T11:16:28.064Z</time></trkpt><trkpt lat="45.6814966" lon="11.0539366"><ele>1596.0</ele><time>2026-05-02T11:16:29.971Z</time></trkpt><trkpt lat="45.6814258" lon="11.0538004"><ele>1596.0</ele><time>2026-05-02T11:16:31.976Z</time></trkpt><trkpt lat="45.6814031" lon="11.0537131"><ele>1596.0</ele><time>2026-05-02T11:16:33.091Z</time></trkpt><trkpt lat="45.6813437" lon="11.0535488"><ele>1596.0</ele><time>2026-05-02T11:16:35.035Z</time></trkpt><trkpt lat="45.681295" lon="11.0534685"><ele>1596.0</ele><time>2026-05-02T11:16:35.958Z</time></trkpt><trkpt lat="45.6812352" lon="11.0533882"><ele>1596.0</ele><time>2026-05-02T11:16:36.965Z</time></trkpt><trkpt lat="45.6811626" lon="11.0533224"><ele>1596.0</ele><time>2026-05-02T11:16:37.978Z</time></trkpt><trkpt lat="45.6810942" lon="11.0532679"><ele>1593.2857142857142</ele><time>2026-05-02T11:16:39.033Z</time></trkpt><trkpt lat="45.6810272" lon="11.0532137"><ele>1590.5714285714284</ele><time>2026-05-02T11:16:40.024Z</time></trkpt><trkpt lat="45.6809679" lon="11.0531679"><ele>1587.857142857143</ele><time>2026-05-02T11:16:40.974Z</time></trkpt><trkpt lat="45.6809057" lon="11.0531356"><ele>1585.142857142857</ele><time>2026-05-02T11:16:41.966Z</time></trkpt><trkpt lat="45.6808365" lon="11.0531109"><ele>1582.4285714285713</ele><time>2026-05-02T11:16:42.962Z</time></trkpt><trkpt lat="45.6807591" lon="11.0530916"><ele>1579.7142857142858</ele><time>2026-05-02T11:16:44.039Z</time></trkpt><trkpt lat="45.6806763" lon="11.0530789"><ele>1577.0</ele><time>2026-05-02T11:16:45.048Z</time></trkpt><trkpt lat="45.6805935" lon="11.0530866"><ele>1576.9999999999998</ele><time>2026-05-02T11:16:45.951Z</time></trkpt><trkpt lat="45.6805115" lon="11.0530952"><ele>1577.0</ele><time>2026-05-02T11:16:46.964Z</time></trkpt><trkpt lat="45.6804326" lon="11.0530891"><ele>1577.0</ele><time>2026-05-02T11:16:47.966Z</time></trkpt><trkpt lat="45.6803621" lon="11.0530508"><ele>1577.0</ele><time>2026-05-02T11:16:48.971Z</time></trkpt><trkpt lat="45.6802955" lon="11.052994"><ele>1576.9999999999998</ele><time>2026-05-02T11:16:49.969Z</time></trkpt><trkpt lat="45.680222" lon="11.0529226"><ele>1577.0</ele><time>2026-05-02T11:16:50.976Z</time></trkpt><trkpt lat="45.6801556" lon="11.0528423"><ele>1577.6666666666665</ele><time>2026-05-02T11:16:52.036Z</time></trkpt><trkpt lat="45.6801034" lon="11.0527431"><ele>1578.3333333333333</ele><time>2026-05-02T11:16:53.036Z</time></trkpt><trkpt lat="45.6800585" lon="11.0526359"><ele>1579.0</ele><time>2026-05-02T11:16:53.968Z</time></trkpt><trkpt lat="45.680026" lon="11.0525214"><ele>1579.6666666666665</ele><time>2026-05-02T11:16:54.974Z</time></trkpt><trkpt lat="45.6800076" lon="11.0524047"><ele>1580.3333333333333</ele><time>2026-05-02T11:16:55.982Z</time></trkpt><trkpt lat="45.6799886" lon="11.0522816"><ele>1581.0</ele><time>2026-05-02T11:16:56.965Z</time></trkpt><trkpt lat="45.6799697" lon="11.0521575"><ele>1579.3333333333333</ele><time>2026-05-02T11:16:57.972Z</time></trkpt><trkpt lat="45.6799444" lon="11.052044"><ele>1577.6666666666665</ele><time>2026-05-02T11:16:58.98Z</time></trkpt><trkpt lat="45.6799074" lon="11.0519371"><ele>1576.0</ele><time>2026-05-02T11:17:00.059Z</time></trkpt><trkpt lat="45.6798663" lon="11.0518328"><ele>1574.3333333333333</ele><time>2026-05-02T11:17:00.975Z</time></trkpt><trkpt lat="45.6798287" lon="11.0517234"><ele>1572.6666666666665</ele><time>2026-05-02T11:17:02.045Z</time></trkpt><trkpt lat="45.6797866" lon="11.0516078"><ele>1571.0</ele><time>2026-05-02T11:17:02.981Z</time></trkpt><trkpt lat="45.679739" lon="11.0514975"><ele>1569.3333333333333</ele><time>2026-05-02T11:17:03.973Z</time></trkpt><trkpt lat="45.6796949" lon="11.0513924"><ele>1567.6666666666665</ele><time>2026-05-02T11:17:05.017Z</time></trkpt><trkpt lat="45.6796544" lon="11.0512857"><ele>1566.0</ele><time>2026-05-02T11:17:05.973Z</time></trkpt><trkpt lat="45.6796132" lon="11.0511807"><ele>1564.3333333333335</ele><time>2026-05-02T11:17:06.981Z</time></trkpt><trkpt lat="45.6795799" lon="11.0510797"><ele>1562.6666666666667</ele><time>2026-05-02T11:17:07.999Z</time></trkpt><trkpt lat="45.679538" lon="11.0509985"><ele>1561.0</ele><time>2026-05-02T11:17:08.968Z</time></trkpt><trkpt lat="45.6794864" lon="11.0509259"><ele>1562.8333333333335</ele><time>2026-05-02T11:17:09.978Z</time></trkpt><trkpt lat="45.6794253" lon="11.050865"><ele>1564.6666666666667</ele><time>2026-05-02T11:17:10.973Z</time></trkpt><trkpt lat="45.6793573" lon="11.0508259"><ele>1566.5</ele><time>2026-05-02T11:17:11.965Z</time></trkpt><trkpt lat="45.6792716" lon="11.0508025"><ele>1568.3333333333335</ele><time>2026-05-02T11:17:12.969Z</time></trkpt><trkpt lat="45.6791848" lon="11.050801"><ele>1570.1666666666667</ele><time>2026-05-02T11:17:13.968Z</time></trkpt><trkpt lat="45.6790974" lon="11.0508083"><ele>1572.0</ele><time>2026-05-02T11:17:14.98Z</time></trkpt><trkpt lat="45.6790045" lon="11.0508197"><ele>1572.0</ele><time>2026-05-02T11:17:15.986Z</time></trkpt><trkpt lat="45.6789138" lon="11.0508528"><ele>1572.0</ele><time>2026-05-02T11:17:16.974Z</time></trkpt><trkpt lat="45.6788251" lon="11.0508979"><ele>1572.0</ele><time>2026-05-02T11:17:18.049Z</time></trkpt><trkpt lat="45.6787358" lon="11.05095"><ele>1572.0</ele><time>2026-05-02T11:17:19.03Z</time></trkpt><trkpt lat="45.6786494" lon="11.0509955"><ele>1572.0</ele><time>2026-05-02T11:17:20.036Z</time></trkpt><trkpt lat="45.6785623" lon="11.0510394"><ele>1570.1999999999998</ele><time>2026-05-02T11:17:20.979Z</time></trkpt><trkpt lat="45.6784734" lon="11.0510755"><ele>1568.4</ele><time>2026-05-02T11:17:21.976Z</time></trkpt><trkpt lat="45.6783846" lon="11.0511072"><ele>1566.6</ele><time>2026-05-02T11:17:22.959Z</time></trkpt><trkpt lat="45.6782996" lon="11.0511453"><ele>1564.8000000000002</ele><time>2026-05-02T11:17:24.034Z</time></trkpt><trkpt lat="45.6782172" lon="11.0511917"><ele>1563.0</ele><time>2026-05-02T11:17:25.045Z</time></trkpt><trkpt lat="45.678136" lon="11.0512485"><ele>1563.0</ele><time>2026-05-02T11:17:25.982Z</time></trkpt><trkpt lat="45.6780546" lon="11.0513008"><ele>1563.0</ele><time>2026-05-02T11:17:26.984Z</time></trkpt><trkpt lat="45.6779705" lon="11.0513545"><ele>1563.0</ele><time>2026-05-02T11:17:28.009Z</time></trkpt><trkpt lat="45.6778901" lon="11.0514087"><ele>1563.0</ele><time>2026-05-02T11:17:28.973Z</time></trkpt><trkpt lat="45.6778174" lon="11.0514414"><ele>1563.0</ele><time>2026-05-02T11:17:29.981Z</time></trkpt><trkpt lat="45.6777456" lon="11.05144"><ele>1563.0</ele><time>2026-05-02T11:17:30.973Z</time></trkpt><trkpt lat="45.6776749" lon="11.051387"><ele>1561.1666666666667</ele><time>2026-05-02T11:17:31.976Z</time></trkpt><trkpt lat="45.6776288" lon="11.0512949"><ele>1559.3333333333335</ele><time>2026-05-02T11:17:32.966Z</time></trkpt><trkpt lat="45.6776032" lon="11.0511856"><ele>1557.5</ele><time>2026-05-02T11:17:34.074Z</time></trkpt><trkpt lat="45.6775777" lon="11.0510784"><ele>1555.6666666666667</ele><time>2026-05-02T11:17:35.028Z</time></trkpt><trkpt lat="45.677535" lon="11.0509683"><ele>1553.8333333333335</ele><time>2026-05-02T11:17:35.97Z</time></trkpt><trkpt lat="45.6774827" lon="11.0508789"><ele>1552.0</ele><time>2026-05-02T11:17:36.973Z</time></trkpt><trkpt lat="45.6774227" lon="11.0508046"><ele>1551.6666666666667</ele><time>2026-05-02T11:17:37.969Z</time></trkpt><trkpt lat="45.6773498" lon="11.0507441"><ele>1551.3333333333335</ele><time>2026-05-02T11:17:38.969Z</time></trkpt><trkpt lat="45.6772725" lon="11.0506984"><ele>1551.0</ele><time>2026-05-02T11:17:39.973Z</time></trkpt><trkpt lat="45.6771869" lon="11.0506614"><ele>1550.6666666666665</ele><time>2026-05-02T11:17:40.979Z</time></trkpt><trkpt lat="45.677099" lon="11.0506244"><ele>1550.3333333333333</ele><time>2026-05-02T11:17:41.972Z</time></trkpt><trkpt lat="45.6770022" lon="11.0505934"><ele>1550.0</ele><time>2026-05-02T11:17:43.037Z</time></trkpt><trkpt lat="45.6769065" lon="11.0505765"><ele>1548.6</ele><time>2026-05-02T11:17:43.971Z</time></trkpt><trkpt lat="45.6768057" lon="11.0505622"><ele>1547.2</ele><time>2026-05-02T11:17:44.982Z</time></trkpt><trkpt lat="45.6767088" lon="11.0505327"><ele>1545.8000000000002</ele><time>2026-05-02T11:17:45.97Z</time></trkpt><trkpt lat="45.6766173" lon="11.0504944"><ele>1544.4</ele><time>2026-05-02T11:17:46.976Z</time></trkpt><trkpt lat="45.6765314" lon="11.0504483"><ele>1543.0</ele><time>2026-05-02T11:17:47.974Z</time></trkpt><trkpt lat="45.676439" lon="11.0503871"><ele>1543.0</ele><time>2026-05-02T11:17:48.975Z</time></trkpt><trkpt lat="45.6763439" lon="11.0503028"><ele>1543.0</ele><time>2026-05-02T11:17:49.987Z</time></trkpt><trkpt lat="45.6762477" lon="11.0501951"><ele>1543.0</ele><time>2026-05-02T11:17:50.98Z</time></trkpt><trkpt lat="45.6761556" lon="11.0500853"><ele>1543.0</ele><time>2026-05-02T11:17:51.977Z</time></trkpt><trkpt lat="45.6760642" lon="11.0499828"><ele>1540.8000000000002</ele><time>2026-05-02T11:17:52.987Z</time></trkpt><trkpt lat="45.6759787" lon="11.0498824"><ele>1538.6</ele><time>2026-05-02T11:17:54.071Z</time></trkpt><trkpt lat="45.675898" lon="11.0497766"><ele>1536.4</ele><time>2026-05-02T11:17:55.031Z</time></trkpt><trkpt lat="45.6758245" lon="11.0496563"><ele>1534.1999999999998</ele><time>2026-05-02T11:17:55.977Z</time></trkpt><trkpt lat="45.6757565" lon="11.0495337"><ele>1532.0</ele><time>2026-05-02T11:17:57.035Z</time></trkpt><trkpt lat="45.675694" lon="11.0494091"><ele>1532.0</ele><time>2026-05-02T11:17:57.999Z</time></trkpt><trkpt lat="45.6756394" lon="11.0492831"><ele>1532.0</ele><time>2026-05-02T11:17:58.998Z</time></trkpt><trkpt lat="45.6756011" lon="11.0491338"><ele>1532.0</ele><time>2026-05-02T11:18:00.03Z</time></trkpt><trkpt lat="45.6755666" lon="11.0489838"><ele>1532.0</ele><time>2026-05-02T11:18:00.966Z</time></trkpt><trkpt lat="45.6755269" lon="11.0488359"><ele>1532.0</ele><time>2026-05-02T11:18:01.974Z</time></trkpt><trkpt lat="45.6754784" lon="11.0487034"><ele>1532.1999999999998</ele><time>2026-05-02T11:18:02.981Z</time></trkpt><trkpt lat="45.6754274" lon="11.0485761"><ele>1532.4</ele><time>2026-05-02T11:18:04.032Z</time></trkpt><trkpt lat="45.6753604" lon="11.0484607"><ele>1532.6</ele><time>2026-05-02T11:18:04.968Z</time></trkpt><trkpt lat="45.6752768" lon="11.0483745"><ele>1532.8000000000002</ele><time>2026-05-02T11:18:05.961Z</time></trkpt><trkpt lat="45.6751783" lon="11.0483137"><ele>1533.0</ele><time>2026-05-02T11:18:07.044Z</time></trkpt><trkpt lat="45.6750691" lon="11.0482732"><ele>1533.0</ele><time>2026-05-02T11:18:08.04Z</time></trkpt><trkpt lat="45.6749536" lon="11.0482303"><ele>1533.0</ele><time>2026-05-02T11:18:08.96Z</time></trkpt><trkpt lat="45.674835" lon="11.0481792"><ele>1533.0</ele><time>2026-05-02T11:18:10.041Z</time></trkpt><trkpt lat="45.6747083" lon="11.0481287"><ele>1533.0</ele><time>2026-05-02T11:18:10.972Z</time></trkpt><trkpt lat="45.6745802" lon="11.0480978"><ele>1533.0</ele><time>2026-05-02T11:18:11.974Z</time></trkpt><trkpt lat="45.6744563" lon="11.0480908"><ele>1533.0</ele><time>2026-05-02T11:18:13.02Z</time></trkpt><trkpt lat="45.6743311" lon="11.0480903"><ele>1533.0</ele><time>2026-05-02T11:18:13.981Z</time></trkpt><trkpt lat="45.6742132" lon="11.0481118"><ele>1533.0</ele><time>2026-05-02T11:18:14.977Z</time></trkpt><trkpt lat="45.6740913" lon="11.0481582"><ele>1534.25</ele><time>2026-05-02T11:18:15.98Z</time></trkpt><trkpt lat="45.6739572" lon="11.0482054"><ele>1535.5</ele><time>2026-05-02T11:18:16.981Z</time></trkpt><trkpt lat="45.673815" lon="11.0482558"><ele>1536.75</ele><time>2026-05-02T11:18:17.972Z</time></trkpt><trkpt lat="45.6736585" lon="11.0483067"><ele>1538.0</ele><time>2026-05-02T11:18:18.975Z</time></trkpt><trkpt lat="45.6734965" lon="11.0483582"><ele>1530.3333333333333</ele><time>2026-05-02T11:18:19.974Z</time></trkpt><trkpt lat="45.6733455" lon="11.0484298"><ele>1522.6666666666665</ele><time>2026-05-02T11:18:20.971Z</time></trkpt><trkpt lat="45.6732092" lon="11.0485341"><ele>1515.0</ele><time>2026-05-02T11:18:21.973Z</time></trkpt><trkpt lat="45.6730826" lon="11.0486431"><ele>1515.0</ele><time>2026-05-02T11:18:22.971Z</time></trkpt><trkpt lat="45.6729589" lon="11.0487578"><ele>1515.0</ele><time>2026-05-02T11:18:23.985Z</time></trkpt><trkpt lat="45.672821" lon="11.0488821"><ele>1515.0</ele><time>2026-05-02T11:18:24.976Z</time></trkpt><trkpt lat="45.6726758" lon="11.0489948"><ele>1515.75</ele><time>2026-05-02T11:18:25.978Z</time></trkpt><trkpt lat="45.6725257" lon="11.0490778"><ele>1516.5</ele><time>2026-05-02T11:18:26.977Z</time></trkpt><trkpt lat="45.6723769" lon="11.0491293"><ele>1517.25</ele><time>2026-05-02T11:18:27.978Z</time></trkpt><trkpt lat="45.6722446" lon="11.0491257"><ele>1518.0</ele><time>2026-05-02T11:18:28.972Z</time></trkpt><trkpt lat="45.6721072" lon="11.0490741"><ele>1518.0</ele><time>2026-05-02T11:18:29.971Z</time></trkpt><trkpt lat="45.6719568" lon="11.0490697"><ele>1518.0</ele><time>2026-05-02T11:18:30.957Z</time></trkpt><trkpt lat="45.6717963" lon="11.0491545"><ele>1518.0</ele><time>2026-05-02T11:18:31.973Z</time></trkpt><trkpt lat="45.6716567" lon="11.0492788"><ele>1513.0</ele><time>2026-05-02T11:18:32.968Z</time></trkpt><trkpt lat="45.6715311" lon="11.0494451"><ele>1508.0</ele><time>2026-05-02T11:18:33.971Z</time></trkpt><trkpt lat="45.6714311" lon="11.0496187"><ele>1503.0</ele><time>2026-05-02T11:18:34.969Z</time></trkpt><trkpt lat="45.6713171" lon="11.0497758"><ele>1503.0</ele><time>2026-05-02T11:18:35.976Z</time></trkpt><trkpt lat="45.6711875" lon="11.0498863"><ele>1503.0</ele><time>2026-05-02T11:18:36.971Z</time></trkpt><trkpt lat="45.6710547" lon="11.0499649"><ele>1503.0</ele><time>2026-05-02T11:18:37.974Z</time></trkpt><trkpt lat="45.6709265" lon="11.0500215"><ele>1503.0</ele><time>2026-05-02T11:18:38.973Z</time></trkpt><trkpt lat="45.6708216" lon="11.050056"><ele>1500.5</ele><time>2026-05-02T11:18:39.979Z</time></trkpt><trkpt lat="45.6707347" lon="11.0500836"><ele>1498.0</ele><time>2026-05-02T11:18:40.974Z</time></trkpt><trkpt lat="45.6706822" lon="11.050146"><ele>1495.5</ele><time>2026-05-02T11:18:41.968Z</time></trkpt><trkpt lat="45.670671" lon="11.0502455"><ele>1493.0</ele><time>2026-05-02T11:18:42.971Z</time></trkpt><trkpt lat="45.6707753" lon="11.050334"><ele>1490.5</ele><time>2026-05-02T11:18:44.978Z</time></trkpt><trkpt lat="45.6708547" lon="11.0503209"><ele>1488.0</ele><time>2026-05-02T11:18:45.975Z</time></trkpt><trkpt lat="45.6709568" lon="11.0502717"><ele>1488.0</ele><time>2026-05-02T11:18:46.976Z</time></trkpt><trkpt lat="45.6710596" lon="11.0502249"><ele>1488.0</ele><time>2026-05-02T11:18:47.975Z</time></trkpt><trkpt lat="45.6711691" lon="11.0501857"><ele>1488.0</ele><time>2026-05-02T11:18:48.955Z</time></trkpt><trkpt lat="45.6712755" lon="11.0501513"><ele>1488.0</ele><time>2026-05-02T11:18:49.976Z</time></trkpt><trkpt lat="45.6713824" lon="11.0501157"><ele>1488.0</ele><time>2026-05-02T11:18:50.976Z</time></trkpt><trkpt lat="45.6714824" lon="11.0500706"><ele>1486.6000000000001</ele><time>2026-05-02T11:18:51.969Z</time></trkpt><trkpt lat="45.671588" lon="11.0500265"><ele>1485.2</ele><time>2026-05-02T11:18:52.967Z</time></trkpt><trkpt lat="45.6716959" lon="11.0500386"><ele>1483.8</ele><time>2026-05-02T11:18:53.972Z</time></trkpt><trkpt lat="45.6717874" lon="11.0501285"><ele>1482.4</ele><time>2026-05-02T11:18:54.973Z</time></trkpt><trkpt lat="45.6718501" lon="11.0502526"><ele>1481.0</ele><time>2026-05-02T11:18:55.971Z</time></trkpt><trkpt lat="45.6718843" lon="11.0504196"><ele>1481.0</ele><time>2026-05-02T11:18:56.974Z</time></trkpt><trkpt lat="45.6718903" lon="11.0506036"><ele>1481.0</ele><time>2026-05-02T11:18:57.965Z</time></trkpt><trkpt lat="45.6718966" lon="11.0507945"><ele>1481.0</ele><time>2026-05-02T11:18:58.974Z</time></trkpt><trkpt lat="45.6718992" lon="11.0509806"><ele>1481.0</ele><time>2026-05-02T11:18:59.971Z</time></trkpt><trkpt lat="45.6718829" lon="11.0511582"><ele>1478.25</ele><time>2026-05-02T11:19:00.977Z</time></trkpt><trkpt lat="45.6718456" lon="11.0513313"><ele>1475.5</ele><time>2026-05-02T11:19:01.965Z</time></trkpt><trkpt lat="45.6717993" lon="11.0515062"><ele>1472.75</ele><time>2026-05-02T11:19:02.973Z</time></trkpt><trkpt lat="45.6717505" lon="11.0516767"><ele>1470.0</ele><time>2026-05-02T11:19:03.984Z</time></trkpt><trkpt lat="45.6717145" lon="11.0518501"><ele>1468.25</ele><time>2026-05-02T11:19:04.981Z</time></trkpt><trkpt lat="45.6717195" lon="11.0520218"><ele>1466.5</ele><time>2026-05-02T11:19:05.975Z</time></trkpt><trkpt lat="45.6717407" lon="11.0521882"><ele>1464.75</ele><time>2026-05-02T11:19:06.967Z</time></trkpt><trkpt lat="45.6717849" lon="11.0523451"><ele>1463.0</ele><time>2026-05-02T11:19:07.97Z</time></trkpt><trkpt lat="45.6718438" lon="11.0525014"><ele>1465.25</ele><time>2026-05-02T11:19:08.974Z</time></trkpt><trkpt lat="45.6719163" lon="11.0526602"><ele>1467.5</ele><time>2026-05-02T11:19:09.972Z</time></trkpt><trkpt lat="45.6720078" lon="11.0528035"><ele>1469.75</ele><time>2026-05-02T11:19:10.973Z</time></trkpt><trkpt lat="45.6721057" lon="11.0529177"><ele>1472.0</ele><time>2026-05-02T11:19:12.048Z</time></trkpt><trkpt lat="45.6722182" lon="11.0530169"><ele>1472.0</ele><time>2026-05-02T11:19:12.967Z</time></trkpt><trkpt lat="45.67232" lon="11.0531111"><ele>1472.0</ele><time>2026-05-02T11:19:13.979Z</time></trkpt><trkpt lat="45.6723866" lon="11.0532554"><ele>1472.0</ele><time>2026-05-02T11:19:14.974Z</time></trkpt><trkpt lat="45.6724181" lon="11.0534075"><ele>1472.0</ele><time>2026-05-02T11:19:15.966Z</time></trkpt><trkpt lat="45.672402" lon="11.0535754"><ele>1467.75</ele><time>2026-05-02T11:19:16.964Z</time></trkpt><trkpt lat="45.6723542" lon="11.0537289"><ele>1463.5</ele><time>2026-05-02T11:19:17.966Z</time></trkpt><trkpt lat="45.6722804" lon="11.0538654"><ele>1459.25</ele><time>2026-05-02T11:19:18.981Z</time></trkpt><trkpt lat="45.6721772" lon="11.0539544"><ele>1455.0</ele><time>2026-05-02T11:19:20.013Z</time></trkpt><trkpt lat="45.6720621" lon="11.0539808"><ele>1451.25</ele><time>2026-05-02T11:19:20.96Z</time></trkpt><trkpt lat="45.6719353" lon="11.0539387"><ele>1447.5</ele><time>2026-05-02T11:19:21.97Z</time></trkpt><trkpt lat="45.6718252" lon="11.0538833"><ele>1443.75</ele><time>2026-05-02T11:19:22.989Z</time></trkpt><trkpt lat="45.6717109" lon="11.0538216"><ele>1440.0</ele><time>2026-05-02T11:19:23.965Z</time></trkpt><trkpt lat="45.6715997" lon="11.0537717"><ele>1440.0</ele><time>2026-05-02T11:19:24.964Z</time></trkpt><trkpt lat="45.6714865" lon="11.0537209"><ele>1440.0</ele><time>2026-05-02T11:19:25.973Z</time></trkpt><trkpt lat="45.6713781" lon="11.0536693"><ele>1440.0</ele><time>2026-05-02T11:19:26.966Z</time></trkpt><trkpt lat="45.6712757" lon="11.0536127"><ele>1440.0</ele><time>2026-05-02T11:19:27.965Z</time></trkpt><trkpt lat="45.6711705" lon="11.0535671"><ele>1436.0</ele><time>2026-05-02T11:19:29.026Z</time></trkpt><trkpt lat="45.6710606" lon="11.0535285"><ele>1432.0</ele><time>2026-05-02T11:19:30.028Z</time></trkpt><trkpt lat="45.6709561" lon="11.0535141"><ele>1428.0</ele><time>2026-05-02T11:19:30.967Z</time></trkpt><trkpt lat="45.6708517" lon="11.0535526"><ele>1424.0</ele><time>2026-05-02T11:19:31.966Z</time></trkpt><trkpt lat="45.6707825" lon="11.053639"><ele>1420.0</ele><time>2026-05-02T11:19:32.988Z</time></trkpt><trkpt lat="45.6707429" lon="11.0537524"><ele>1420.0</ele><time>2026-05-02T11:19:33.962Z</time></trkpt><trkpt lat="45.6707203" lon="11.0538783"><ele>1420.0</ele><time>2026-05-02T11:19:35.038Z</time></trkpt><trkpt lat="45.6706875" lon="11.0540226"><ele>1420.0</ele><time>2026-05-02T11:19:35.968Z</time></trkpt><trkpt lat="45.6706287" lon="11.0541673"><ele>1420.0</ele><time>2026-05-02T11:19:36.972Z</time></trkpt><trkpt lat="45.6705557" lon="11.0542974"><ele>1420.0</ele><time>2026-05-02T11:19:38.006Z</time></trkpt><trkpt lat="45.6704803" lon="11.0544179"><ele>1422.4</ele><time>2026-05-02T11:19:38.971Z</time></trkpt><trkpt lat="45.6704069" lon="11.0545355"><ele>1424.8</ele><time>2026-05-02T11:19:39.978Z</time></trkpt><trkpt lat="45.6703874" lon="11.0546726"><ele>1427.1999999999998</ele><time>2026-05-02T11:19:40.973Z</time></trkpt><trkpt lat="45.6704102" lon="11.0548238"><ele>1429.6</ele><time>2026-05-02T11:19:41.976Z</time></trkpt><trkpt lat="45.6704298" lon="11.0549606"><ele>1432.0</ele><time>2026-05-02T11:19:43.008Z</time></trkpt><trkpt lat="45.670415" lon="11.0550889"><ele>1432.6</ele><time>2026-05-02T11:19:43.972Z</time></trkpt><trkpt lat="45.6703585" lon="11.0551974"><ele>1433.1999999999998</ele><time>2026-05-02T11:19:45.045Z</time></trkpt><trkpt lat="45.6702775" lon="11.0552294"><ele>1433.8</ele><time>2026-05-02T11:19:45.974Z</time></trkpt><trkpt lat="45.6701887" lon="11.0552275"><ele>1434.4</ele><time>2026-05-02T11:19:46.974Z</time></trkpt><trkpt lat="45.6700918" lon="11.0551863"><ele>1435.0</ele><time>2026-05-02T11:19:47.985Z</time></trkpt><trkpt lat="45.6699832" lon="11.0551549"><ele>1430.0</ele><time>2026-05-02T11:19:48.976Z</time></trkpt><trkpt lat="45.6698532" lon="11.0551338"><ele>1425.0</ele><time>2026-05-02T11:19:50.044Z</time></trkpt><trkpt lat="45.6697372" lon="11.0551399"><ele>1420.0</ele><time>2026-05-02T11:19:50.974Z</time></trkpt><trkpt lat="45.6696235" lon="11.0551731"><ele>1415.0</ele><time>2026-05-02T11:19:51.976Z</time></trkpt><trkpt lat="45.6695249" lon="11.0552492"><ele>1410.0</ele><time>2026-05-02T11:19:52.982Z</time></trkpt><trkpt lat="45.6694268" lon="11.0553577"><ele>1405.0</ele><time>2026-05-02T11:19:54.052Z</time></trkpt><trkpt lat="45.6693246" lon="11.0554576"><ele>1400.0</ele><time>2026-05-02T11:19:55.028Z</time></trkpt><trkpt lat="45.669222" lon="11.0555514"><ele>1395.0</ele><time>2026-05-02T11:19:55.979Z</time></trkpt><trkpt lat="45.6691233" lon="11.0556429"><ele>1395.0</ele><time>2026-05-02T11:19:56.978Z</time></trkpt><trkpt lat="45.6690244" lon="11.0557323"><ele>1395.0</ele><time>2026-05-02T11:19:57.973Z</time></trkpt><trkpt lat="45.6689321" lon="11.0558236"><ele>1395.0</ele><time>2026-05-02T11:19:58.975Z</time></trkpt><trkpt lat="45.6688629" lon="11.0559449"><ele>1395.0</ele><time>2026-05-02T11:19:59.962Z</time></trkpt><trkpt lat="45.668823" lon="11.0560795"><ele>1395.0</ele><time>2026-05-02T11:20:00.982Z</time></trkpt><trkpt lat="45.6687938" lon="11.0561982"><ele>1396.6666666666667</ele><time>2026-05-02T11:20:02.043Z</time></trkpt><trkpt lat="45.6687618" lon="11.0562968"><ele>1398.3333333333333</ele><time>2026-05-02T11:20:03.054Z</time></trkpt><trkpt lat="45.668663" lon="11.0563704"><ele>1400.0</ele><time>2026-05-02T11:20:04.976Z</time></trkpt><trkpt lat="45.6685982" lon="11.0563318"><ele>1401.6666666666665</ele><time>2026-05-02T11:20:05.968Z</time></trkpt><trkpt lat="45.6685441" lon="11.0562401"><ele>1403.3333333333333</ele><time>2026-05-02T11:20:06.973Z</time></trkpt><trkpt lat="45.6685524" lon="11.0561159"><ele>1405.0</ele><time>2026-05-02T11:20:07.983Z</time></trkpt><trkpt lat="45.6685923" lon="11.0559917"><ele>1405.0</ele><time>2026-05-02T11:20:08.963Z</time></trkpt><trkpt lat="45.6686522" lon="11.0558407"><ele>1405.0</ele><time>2026-05-02T11:20:09.975Z</time></trkpt><trkpt lat="45.6687095" lon="11.0556812"><ele>1405.0</ele><time>2026-05-02T11:20:10.982Z</time></trkpt><trkpt lat="45.6687673" lon="11.0555109"><ele>1405.0</ele><time>2026-05-02T11:20:11.982Z</time></trkpt><trkpt lat="45.6688281" lon="11.0553337"><ele>1402.5</ele><time>2026-05-02T11:20:12.987Z</time></trkpt><trkpt lat="45.6688914" lon="11.055152"><ele>1400.0</ele><time>2026-05-02T11:20:13.984Z</time></trkpt><trkpt lat="45.6689586" lon="11.0549632"><ele>1397.5</ele><time>2026-05-02T11:20:14.982Z</time></trkpt><trkpt lat="45.6690271" lon="11.0547721"><ele>1395.0</ele><time>2026-05-02T11:20:15.973Z</time></trkpt><trkpt lat="45.6690897" lon="11.054586"><ele>1391.75</ele><time>2026-05-02T11:20:16.971Z</time></trkpt><trkpt lat="45.6691591" lon="11.0544078"><ele>1388.5</ele><time>2026-05-02T11:20:17.981Z</time></trkpt><trkpt lat="45.6692259" lon="11.0542329"><ele>1385.25</ele><time>2026-05-02T11:20:19.031Z</time></trkpt><trkpt lat="45.6692857" lon="11.0540556"><ele>1382.0</ele><time>2026-05-02T11:20:20.049Z</time></trkpt><trkpt lat="45.6693434" lon="11.0538833"><ele>1381.0</ele><time>2026-05-02T11:20:20.988Z</time></trkpt><trkpt lat="45.6693896" lon="11.0537123"><ele>1380.0</ele><time>2026-05-02T11:20:21.979Z</time></trkpt><trkpt lat="45.6693959" lon="11.053542"><ele>1379.0</ele><time>2026-05-02T11:20:22.999Z</time></trkpt><trkpt lat="45.6693502" lon="11.05338"><ele>1378.0</ele><time>2026-05-02T11:20:23.973Z</time></trkpt><trkpt lat="45.6692665" lon="11.0532501"><ele>1380.75</ele><time>2026-05-02T11:20:25.037Z</time></trkpt><trkpt lat="45.6691523" lon="11.053187"><ele>1383.5</ele><time>2026-05-02T11:20:25.973Z</time></trkpt><trkpt lat="45.6690285" lon="11.0531498"><ele>1386.25</ele><time>2026-05-02T11:20:26.966Z</time></trkpt><trkpt lat="45.6689006" lon="11.0531288"><ele>1389.0</ele><time>2026-05-02T11:20:27.994Z</time></trkpt><trkpt lat="45.668759" lon="11.0530975"><ele>1389.0</ele><time>2026-05-02T11:20:28.97Z</time></trkpt><trkpt lat="45.6686131" lon="11.0530546"><ele>1389.0</ele><time>2026-05-02T11:20:29.971Z</time></trkpt><trkpt lat="45.6684617" lon="11.0530057"><ele>1389.0</ele><time>2026-05-02T11:20:30.966Z</time></trkpt><trkpt lat="45.6683156" lon="11.052957"><ele>1387.0</ele><time>2026-05-02T11:20:32.034Z</time></trkpt><trkpt lat="45.6681721" lon="11.0529109"><ele>1385.0</ele><time>2026-05-02T11:20:32.972Z</time></trkpt><trkpt lat="45.6680305" lon="11.0528628"><ele>1383.0</ele><time>2026-05-02T11:20:34.037Z</time></trkpt><trkpt lat="45.6678886" lon="11.0528184"><ele>1381.0</ele><time>2026-05-02T11:20:35.035Z</time></trkpt><trkpt lat="45.6677454" lon="11.0528027"><ele>1381.0</ele><time>2026-05-02T11:20:35.962Z</time></trkpt><trkpt lat="45.6675996" lon="11.0527911"><ele>1381.0</ele><time>2026-05-02T11:20:36.976Z</time></trkpt><trkpt lat="45.6674564" lon="11.0528259"><ele>1381.0</ele><time>2026-05-02T11:20:37.966Z</time></trkpt><trkpt lat="45.6673105" lon="11.0528978"><ele>1381.0</ele><time>2026-05-02T11:20:39.056Z</time></trkpt><trkpt lat="45.6671599" lon="11.0529921"><ele>1381.0</ele><time>2026-05-02T11:20:40.038Z</time></trkpt><trkpt lat="45.667008" lon="11.0531013"><ele>1381.0</ele><time>2026-05-02T11:20:40.97Z</time></trkpt><trkpt lat="45.6668619" lon="11.0532256"><ele>1381.0</ele><time>2026-05-02T11:20:41.961Z</time></trkpt><trkpt lat="45.6667158" lon="11.0533396"><ele>1372.0</ele><time>2026-05-02T11:20:42.992Z</time></trkpt><trkpt lat="45.6665707" lon="11.0534409"><ele>1363.0</ele><time>2026-05-02T11:20:44.033Z</time></trkpt><trkpt lat="45.6664344" lon="11.0535372"><ele>1354.0</ele><time>2026-05-02T11:20:45.05Z</time></trkpt><trkpt lat="45.666294" lon="11.0536041"><ele>1354.0</ele><time>2026-05-02T11:20:45.964Z</time></trkpt><trkpt lat="45.6661479" lon="11.0536484"><ele>1354.0</ele><time>2026-05-02T11:20:46.959Z</time></trkpt><trkpt lat="45.6659911" lon="11.0536677"><ele>1354.0</ele><time>2026-05-02T11:20:47.951Z</time></trkpt><trkpt lat="45.6658319" lon="11.0536935"><ele>1354.0</ele><time>2026-05-02T11:20:48.96Z</time></trkpt><trkpt lat="45.6656719" lon="11.0537151"><ele>1354.0</ele><time>2026-05-02T11:20:49.957Z</time></trkpt><trkpt lat="45.6655097" lon="11.053744"><ele>1354.0</ele><time>2026-05-02T11:20:50.954Z</time></trkpt><trkpt lat="45.6653403" lon="11.0537707"><ele>1354.3333333333333</ele><time>2026-05-02T11:20:51.963Z</time></trkpt><trkpt lat="45.6651736" lon="11.0537988"><ele>1354.6666666666667</ele><time>2026-05-02T11:20:53.05Z</time></trkpt><trkpt lat="45.6650106" lon="11.0538205"><ele>1355.0</ele><time>2026-05-02T11:20:53.955Z</time></trkpt><trkpt lat="45.664852" lon="11.0538402"><ele>1355.0</ele><time>2026-05-02T11:20:54.963Z</time></trkpt><trkpt lat="45.6646871" lon="11.0538596"><ele>1355.0</ele><time>2026-05-02T11:20:55.966Z</time></trkpt><trkpt lat="45.664526" lon="11.0538582"><ele>1355.0</ele><time>2026-05-02T11:20:56.959Z</time></trkpt><trkpt lat="45.6643672" lon="11.0538395"><ele>1354.0</ele><time>2026-05-02T11:20:57.957Z</time></trkpt><trkpt lat="45.6642139" lon="11.0538019"><ele>1353.0</ele><time>2026-05-02T11:20:58.95Z</time></trkpt><trkpt lat="45.6640579" lon="11.0537552"><ele>1352.0</ele><time>2026-05-02T11:21:00.085Z</time></trkpt><trkpt lat="45.6637301" lon="11.0536708"><ele>1346.6666666666667</ele><time>2026-05-02T11:21:01.963Z</time></trkpt><trkpt lat="45.6635647" lon="11.0536245"><ele>1341.3333333333333</ele><time>2026-05-02T11:21:02.989Z</time></trkpt><trkpt lat="45.6634028" lon="11.053573"><ele>1336.0</ele><time>2026-05-02T11:21:03.967Z</time></trkpt><trkpt lat="45.6632485" lon="11.053528"><ele>1336.0</ele><time>2026-05-02T11:21:04.957Z</time></trkpt><trkpt lat="45.6630859" lon="11.0534985"><ele>1336.0</ele><time>2026-05-02T11:21:05.957Z</time></trkpt><trkpt lat="45.6629239" lon="11.0534902"><ele>1336.0</ele><time>2026-05-02T11:21:06.963Z</time></trkpt><trkpt lat="45.6627605" lon="11.0535"><ele>1331.6666666666665</ele><time>2026-05-02T11:21:08.042Z</time></trkpt><trkpt lat="45.6625926" lon="11.0535275"><ele>1327.3333333333333</ele><time>2026-05-02T11:21:09.03Z</time></trkpt><trkpt lat="45.6624269" lon="11.053541"><ele>1323.0</ele><time>2026-05-02T11:21:10.051Z</time></trkpt><trkpt lat="45.6622664" lon="11.0535422"><ele>1323.0</ele><time>2026-05-02T11:21:10.975Z</time></trkpt><trkpt lat="45.6621108" lon="11.0535176"><ele>1323.0</ele><time>2026-05-02T11:21:11.973Z</time></trkpt><trkpt lat="45.6619629" lon="11.0534593"><ele>1323.0</ele><time>2026-05-02T11:21:12.979Z</time></trkpt><trkpt lat="45.6618193" lon="11.0533789"><ele>1329.0</ele><time>2026-05-02T11:21:13.972Z</time></trkpt><trkpt lat="45.661677" lon="11.0532758"><ele>1335.0</ele><time>2026-05-02T11:21:14.979Z</time></trkpt><trkpt lat="45.6615355" lon="11.05316"><ele>1341.0</ele><time>2026-05-02T11:21:15.975Z</time></trkpt><trkpt lat="45.6613925" lon="11.0530482"><ele>1341.0</ele><time>2026-05-02T11:21:16.978Z</time></trkpt><trkpt lat="45.6612514" lon="11.0529435"><ele>1341.0</ele><time>2026-05-02T11:21:17.966Z</time></trkpt><trkpt lat="45.661108" lon="11.0528337"><ele>1341.0</ele><time>2026-05-02T11:21:18.972Z</time></trkpt><trkpt lat="45.6609803" lon="11.0527222"><ele>1343.0</ele><time>2026-05-02T11:21:19.973Z</time></trkpt><trkpt lat="45.6608637" lon="11.0525836"><ele>1345.0</ele><time>2026-05-02T11:21:20.964Z</time></trkpt><trkpt lat="45.6607487" lon="11.0524411"><ele>1347.0</ele><time>2026-05-02T11:21:21.969Z</time></trkpt><trkpt lat="45.6606256" lon="11.0523101"><ele>1347.0</ele><time>2026-05-02T11:21:22.972Z</time></trkpt><trkpt lat="45.6605005" lon="11.0521736"><ele>1347.0</ele><time>2026-05-02T11:21:23.97Z</time></trkpt><trkpt lat="45.6603682" lon="11.0520426"><ele>1347.0</ele><time>2026-05-02T11:21:25.029Z</time></trkpt><trkpt lat="45.660236" lon="11.051912"><ele>1335.6666666666667</ele><time>2026-05-02T11:21:25.974Z</time></trkpt><trkpt lat="45.6601037" lon="11.051796"><ele>1324.3333333333335</ele><time>2026-05-02T11:21:26.976Z</time></trkpt><trkpt lat="45.6599558" lon="11.0517071"><ele>1313.0</ele><time>2026-05-02T11:21:27.99Z</time></trkpt><trkpt lat="45.6597913" lon="11.0516532"><ele>1317.6666666666667</ele><time>2026-05-02T11:21:29.063Z</time></trkpt><trkpt lat="45.6596295" lon="11.0516085"><ele>1322.3333333333333</ele><time>2026-05-02T11:21:29.97Z</time></trkpt><trkpt lat="45.6594628" lon="11.051562"><ele>1327.0</ele><time>2026-05-02T11:21:30.974Z</time></trkpt><trkpt lat="45.6593008" lon="11.0515132"><ele>1327.0</ele><time>2026-05-02T11:21:31.982Z</time></trkpt><trkpt lat="45.6591439" lon="11.0514434"><ele>1327.0</ele><time>2026-05-02T11:21:33.036Z</time></trkpt><trkpt lat="45.6589918" lon="11.0513662"><ele>1327.0</ele><time>2026-05-02T11:21:33.968Z</time></trkpt><trkpt lat="45.6588393" lon="11.0512833"><ele>1327.0</ele><time>2026-05-02T11:21:35.038Z</time></trkpt><trkpt lat="45.6586706" lon="11.0512072"><ele>1327.0</ele><time>2026-05-02T11:21:35.962Z</time></trkpt><trkpt lat="45.6585008" lon="11.05113"><ele>1327.0</ele><time>2026-05-02T11:21:36.96Z</time></trkpt><trkpt lat="45.6583425" lon="11.0510635"><ele>1321.6666666666665</ele><time>2026-05-02T11:21:37.961Z</time></trkpt><trkpt lat="45.6581881" lon="11.0510002"><ele>1316.3333333333333</ele><time>2026-05-02T11:21:38.964Z</time></trkpt><trkpt lat="45.6580369" lon="11.05094"><ele>1311.0</ele><time>2026-05-02T11:21:39.957Z</time></trkpt><trkpt lat="45.6578863" lon="11.0508917"><ele>1306.6666666666667</ele><time>2026-05-02T11:21:40.955Z</time></trkpt><trkpt lat="45.6577284" lon="11.0508478"><ele>1302.3333333333335</ele><time>2026-05-02T11:21:41.948Z</time></trkpt><trkpt lat="45.6575684" lon="11.0508175"><ele>1298.0</ele><time>2026-05-02T11:21:42.967Z</time></trkpt><trkpt lat="45.6574066" lon="11.0507927"><ele>1300.75</ele><time>2026-05-02T11:21:43.952Z</time></trkpt><trkpt lat="45.6572626" lon="11.0507601"><ele>1303.5</ele><time>2026-05-02T11:21:44.958Z</time></trkpt><trkpt lat="45.6571256" lon="11.0506989"><ele>1306.25</ele><time>2026-05-02T11:21:45.943Z</time></trkpt><trkpt lat="45.6569817" lon="11.0506184"><ele>1309.0</ele><time>2026-05-02T11:21:46.957Z</time></trkpt><trkpt lat="45.656841" lon="11.0505447"><ele>1309.0</ele><time>2026-05-02T11:21:47.957Z</time></trkpt><trkpt lat="45.6567007" lon="11.0504843"><ele>1309.0</ele><time>2026-05-02T11:21:48.97Z</time></trkpt><trkpt lat="45.6565546" lon="11.050463"><ele>1309.0</ele><time>2026-05-02T11:21:49.984Z</time></trkpt><trkpt lat="45.6564181" lon="11.05049"><ele>1309.0</ele><time>2026-05-02T11:21:50.958Z</time></trkpt><trkpt lat="45.6562852" lon="11.0505493"><ele>1309.0</ele><time>2026-05-02T11:21:51.956Z</time></trkpt><trkpt lat="45.6561542" lon="11.0506286"><ele>1309.0</ele><time>2026-05-02T11:21:52.953Z</time></trkpt><trkpt lat="45.6560177" lon="11.0507239"><ele>1309.0</ele><time>2026-05-02T11:21:53.959Z</time></trkpt><trkpt lat="45.6558783" lon="11.0508161"><ele>1309.0</ele><time>2026-05-02T11:21:54.959Z</time></trkpt><trkpt lat="45.6557346" lon="11.0509057"><ele>1306.0</ele><time>2026-05-02T11:21:55.962Z</time></trkpt><trkpt lat="45.6556031" lon="11.0509938"><ele>1303.0</ele><time>2026-05-02T11:21:56.961Z</time></trkpt><trkpt lat="45.6554758" lon="11.0510787"><ele>1300.0</ele><time>2026-05-02T11:21:57.96Z</time></trkpt><trkpt lat="45.6553552" lon="11.0511787"><ele>1297.0</ele><time>2026-05-02T11:21:58.959Z</time></trkpt><trkpt lat="45.6552476" lon="11.0513067"><ele>1297.0</ele><time>2026-05-02T11:21:59.955Z</time></trkpt><trkpt lat="45.6551508" lon="11.0514696"><ele>1297.0</ele><time>2026-05-02T11:22:00.967Z</time></trkpt><trkpt lat="45.6550754" lon="11.0516287"><ele>1297.0</ele><time>2026-05-02T11:22:01.959Z</time></trkpt><trkpt lat="45.6549853" lon="11.0517863"><ele>1297.0</ele><time>2026-05-02T11:22:02.957Z</time></trkpt><trkpt lat="45.6548889" lon="11.051928"><ele>1296.25</ele><time>2026-05-02T11:22:03.964Z</time></trkpt><trkpt lat="45.6547854" lon="11.0520599"><ele>1295.5</ele><time>2026-05-02T11:22:04.964Z</time></trkpt><trkpt lat="45.6546791" lon="11.0521837"><ele>1294.75</ele><time>2026-05-02T11:22:05.963Z</time></trkpt><trkpt lat="45.6545679" lon="11.0523045"><ele>1294.0</ele><time>2026-05-02T11:22:06.957Z</time></trkpt><trkpt lat="45.6544524" lon="11.052424"><ele>1287.5</ele><time>2026-05-02T11:22:07.966Z</time></trkpt><trkpt lat="45.6543437" lon="11.0525373"><ele>1281.0</ele><time>2026-05-02T11:22:08.971Z</time></trkpt><trkpt lat="45.65423" lon="11.0526434"><ele>1274.5</ele><time>2026-05-02T11:22:09.967Z</time></trkpt><trkpt lat="45.6541176" lon="11.0527484"><ele>1268.0</ele><time>2026-05-02T11:22:10.962Z</time></trkpt><trkpt lat="45.6540076" lon="11.0528289"><ele>1268.0</ele><time>2026-05-02T11:22:11.967Z</time></trkpt><trkpt lat="45.6538843" lon="11.0528685"><ele>1268.0</ele><time>2026-05-02T11:22:12.958Z</time></trkpt><trkpt lat="45.6537673" lon="11.0528355"><ele>1268.0</ele><time>2026-05-02T11:22:14.051Z</time></trkpt><trkpt lat="45.6536589" lon="11.0527581"><ele>1268.0</ele><time>2026-05-02T11:22:15.022Z</time></trkpt><trkpt lat="45.6535733" lon="11.052646"><ele>1266.0</ele><time>2026-05-02T11:22:15.958Z</time></trkpt><trkpt lat="45.6534702" lon="11.0525229"><ele>1264.0</ele><time>2026-05-02T11:22:16.971Z</time></trkpt><trkpt lat="45.6533459" lon="11.0523968"><ele>1262.0</ele><time>2026-05-02T11:22:17.979Z</time></trkpt><trkpt lat="45.6532378" lon="11.0522614"><ele>1260.0</ele><time>2026-05-02T11:22:18.965Z</time></trkpt><trkpt lat="45.6531162" lon="11.0521562"><ele>1262.3333333333333</ele><time>2026-05-02T11:22:20.037Z</time></trkpt><trkpt lat="45.6529873" lon="11.0520497"><ele>1264.6666666666665</ele><time>2026-05-02T11:22:20.977Z</time></trkpt><trkpt lat="45.6528415" lon="11.0519678"><ele>1267.0</ele><time>2026-05-02T11:22:21.979Z</time></trkpt><trkpt lat="45.652695" lon="11.0518854"><ele>1267.0</ele><time>2026-05-02T11:22:23.007Z</time></trkpt><trkpt lat="45.6525513" lon="11.0517985"><ele>1267.0</ele><time>2026-05-02T11:22:24.059Z</time></trkpt><trkpt lat="45.6524176" lon="11.0517181"><ele>1267.0</ele><time>2026-05-02T11:22:24.974Z</time></trkpt><trkpt lat="45.652304" lon="11.0516164"><ele>1267.0</ele><time>2026-05-02T11:22:25.977Z</time></trkpt><trkpt lat="45.6522217" lon="11.051485"><ele>1271.0</ele><time>2026-05-02T11:22:26.976Z</time></trkpt><trkpt lat="45.6521681" lon="11.051327"><ele>1275.0</ele><time>2026-05-02T11:22:27.981Z</time></trkpt><trkpt lat="45.6521176" lon="11.0511767"><ele>1279.0</ele><time>2026-05-02T11:22:28.981Z</time></trkpt><trkpt lat="45.6520653" lon="11.0510103"><ele>1283.0</ele><time>2026-05-02T11:22:29.978Z</time></trkpt><trkpt lat="45.6520048" lon="11.0508594"><ele>1280.25</ele><time>2026-05-02T11:22:30.974Z</time></trkpt><trkpt lat="45.6519157" lon="11.0507366"><ele>1277.5</ele><time>2026-05-02T11:22:31.978Z</time></trkpt><trkpt lat="45.6518036" lon="11.0506527"><ele>1274.75</ele><time>2026-05-02T11:22:33.066Z</time></trkpt><trkpt lat="45.6516728" lon="11.050602"><ele>1272.0</ele><time>2026-05-02T11:22:33.98Z</time></trkpt><trkpt lat="45.6515307" lon="11.0506006"><ele>1272.0</ele><time>2026-05-02T11:22:34.974Z</time></trkpt><trkpt lat="45.6513883" lon="11.050606"><ele>1272.0</ele><time>2026-05-02T11:22:35.979Z</time></trkpt><trkpt lat="45.6512479" lon="11.0506067"><ele>1272.0</ele><time>2026-05-02T11:22:36.976Z</time></trkpt><trkpt lat="45.6510939" lon="11.0506047"><ele>1272.0</ele><time>2026-05-02T11:22:37.98Z</time></trkpt><trkpt lat="45.6509322" lon="11.0505776"><ele>1271.6666666666667</ele><time>2026-05-02T11:22:38.981Z</time></trkpt><trkpt lat="45.6507514" lon="11.0505295"><ele>1271.3333333333335</ele><time>2026-05-02T11:22:39.975Z</time></trkpt><trkpt lat="45.6505561" lon="11.0504732"><ele>1271.0</ele><time>2026-05-02T11:22:40.996Z</time></trkpt><trkpt lat="45.650366" lon="11.0504183"><ele>1266.6666666666667</ele><time>2026-05-02T11:22:41.987Z</time></trkpt><trkpt lat="45.6501841" lon="11.0503719"><ele>1262.3333333333333</ele><time>2026-05-02T11:22:43.008Z</time></trkpt><trkpt lat="45.6500178" lon="11.0503283"><ele>1258.0</ele><time>2026-05-02T11:22:43.975Z</time></trkpt><trkpt lat="45.6498689" lon="11.0502707"><ele>1258.0</ele><time>2026-05-02T11:22:44.978Z</time></trkpt><trkpt lat="45.6497315" lon="11.0501806"><ele>1258.0</ele><time>2026-05-02T11:22:45.985Z</time></trkpt><trkpt lat="45.649606" lon="11.0500565"><ele>1258.0</ele><time>2026-05-02T11:22:46.99Z</time></trkpt><trkpt lat="45.6495064" lon="11.0498977"><ele>1254.25</ele><time>2026-05-02T11:22:48.039Z</time></trkpt><trkpt lat="45.6494361" lon="11.0497402"><ele>1250.5</ele><time>2026-05-02T11:22:49.037Z</time></trkpt><trkpt lat="45.6494128" lon="11.04957"><ele>1246.75</ele><time>2026-05-02T11:22:50.043Z</time></trkpt><trkpt lat="45.6494222" lon="11.0493886"><ele>1243.0</ele><time>2026-05-02T11:22:50.974Z</time></trkpt><trkpt lat="45.649425" lon="11.0492336"><ele>1249.75</ele><time>2026-05-02T11:22:51.976Z</time></trkpt><trkpt lat="45.6493955" lon="11.0490865"><ele>1256.5</ele><time>2026-05-02T11:22:52.98Z</time></trkpt><trkpt lat="45.6493463" lon="11.0489467"><ele>1263.25</ele><time>2026-05-02T11:22:54.042Z</time></trkpt><trkpt lat="45.6492548" lon="11.0488166"><ele>1270.0</ele><time>2026-05-02T11:22:54.972Z</time></trkpt><trkpt lat="45.6491398" lon="11.0487219"><ele>1270.0</ele><time>2026-05-02T11:22:55.961Z</time></trkpt><trkpt lat="45.6490036" lon="11.048671"><ele>1270.0</ele><time>2026-05-02T11:22:56.963Z</time></trkpt><trkpt lat="45.6488614" lon="11.0486608"><ele>1270.0</ele><time>2026-05-02T11:22:58.06Z</time></trkpt><trkpt lat="45.6487157" lon="11.0486722"><ele>1270.0</ele><time>2026-05-02T11:22:59.045Z</time></trkpt><trkpt lat="45.6485656" lon="11.0486777"><ele>1270.75</ele><time>2026-05-02T11:23:00.037Z</time></trkpt><trkpt lat="45.6484222" lon="11.0486784"><ele>1271.5</ele><time>2026-05-02T11:23:00.991Z</time></trkpt><trkpt lat="45.6482868" lon="11.0486769"><ele>1272.25</ele><time>2026-05-02T11:23:01.963Z</time></trkpt><trkpt lat="45.6481646" lon="11.0486591"><ele>1273.0</ele><time>2026-05-02T11:23:02.958Z</time></trkpt><trkpt lat="45.6480344" lon="11.0486149"><ele>1273.0</ele><time>2026-05-02T11:23:04.029Z</time></trkpt><trkpt lat="45.6479055" lon="11.0485403"><ele>1273.0</ele><time>2026-05-02T11:23:04.965Z</time></trkpt><trkpt lat="45.6477752" lon="11.0484564"><ele>1273.0</ele><time>2026-05-02T11:23:05.969Z</time></trkpt><trkpt lat="45.6476387" lon="11.0483678"><ele>1273.0</ele><time>2026-05-02T11:23:06.979Z</time></trkpt><trkpt lat="45.6474949" lon="11.0482952"><ele>1283.3333333333333</ele><time>2026-05-02T11:23:07.968Z</time></trkpt><trkpt lat="45.6473436" lon="11.0482361"><ele>1293.6666666666667</ele><time>2026-05-02T11:23:09.032Z</time></trkpt><trkpt lat="45.6472" lon="11.0481796"><ele>1304.0</ele><time>2026-05-02T11:23:10.024Z</time></trkpt><trkpt lat="45.6470556" lon="11.0481282"><ele>1302.25</ele><time>2026-05-02T11:23:10.967Z</time></trkpt><trkpt lat="45.6469174" lon="11.0480875"><ele>1300.5</ele><time>2026-05-02T11:23:11.97Z</time></trkpt><trkpt lat="45.6467733" lon="11.0480673"><ele>1298.75</ele><time>2026-05-02T11:23:12.969Z</time></trkpt><trkpt lat="45.6466186" lon="11.0480707"><ele>1297.0</ele><time>2026-05-02T11:23:14.034Z</time></trkpt><trkpt lat="45.6464549" lon="11.0481112"><ele>1297.0</ele><time>2026-05-02T11:23:14.974Z</time></trkpt><trkpt lat="45.6462826" lon="11.0481721"><ele>1297.0</ele><time>2026-05-02T11:23:15.973Z</time></trkpt><trkpt lat="45.6461109" lon="11.0482335"><ele>1297.0</ele><time>2026-05-02T11:23:16.973Z</time></trkpt><trkpt lat="45.6459351" lon="11.0482797"><ele>1290.0</ele><time>2026-05-02T11:23:17.966Z</time></trkpt><trkpt lat="45.6457694" lon="11.0483181"><ele>1283.0</ele><time>2026-05-02T11:23:18.974Z</time></trkpt><trkpt lat="45.6456192" lon="11.0483389"><ele>1276.0</ele><time>2026-05-02T11:23:19.989Z</time></trkpt><trkpt lat="45.6454878" lon="11.0483486"><ele>1276.0</ele><time>2026-05-02T11:23:20.972Z</time></trkpt><trkpt lat="45.6453597" lon="11.048346"><ele>1276.0</ele><time>2026-05-02T11:23:21.963Z</time></trkpt><trkpt lat="45.6452387" lon="11.0483481"><ele>1276.0</ele><time>2026-05-02T11:23:23.097Z</time></trkpt><trkpt lat="45.6450519" lon="11.0483537"><ele>1276.0</ele><time>2026-05-02T11:23:24.968Z</time></trkpt><trkpt lat="45.6449631" lon="11.0483703"><ele>1278.6666666666665</ele><time>2026-05-02T11:23:26.961Z</time></trkpt><trkpt lat="45.6450001" lon="11.0482721"><ele>1281.3333333333333</ele><time>2026-05-02T11:23:29.964Z</time></trkpt><trkpt lat="45.6450634" lon="11.0482787"><ele>1284.0</ele><time>2026-05-02T11:23:31.964Z</time></trkpt><trkpt lat="45.645156" lon="11.0482556"><ele>1286.6666666666667</ele><time>2026-05-02T11:23:33.963Z</time></trkpt><trkpt lat="45.6452436" lon="11.0482115"><ele>1289.3333333333335</ele><time>2026-05-02T11:23:35.972Z</time></trkpt><trkpt lat="45.6453378" lon="11.048162"><ele>1292.0</ele><time>2026-05-02T11:23:37.972Z</time></trkpt><trkpt lat="45.6454469" lon="11.0481177"><ele>1292.5</ele><time>2026-05-02T11:23:39.967Z</time></trkpt><trkpt lat="45.6455147" lon="11.0480965"><ele>1293.0</ele><time>2026-05-02T11:23:40.975Z</time></trkpt><trkpt lat="45.6455833" lon="11.04807"><ele>1293.5</ele><time>2026-05-02T11:23:41.97Z</time></trkpt><trkpt lat="45.6456519" lon="11.0480453"><ele>1294.0</ele><time>2026-05-02T11:23:42.975Z</time></trkpt><trkpt lat="45.6457655" lon="11.04801"><ele>1294.5</ele><time>2026-05-02T11:23:44.974Z</time></trkpt><trkpt lat="45.6458764" lon="11.0479754"><ele>1295.0</ele><time>2026-05-02T11:23:46.979Z</time></trkpt><trkpt lat="45.6459376" lon="11.0479408"><ele>1295.0</ele><time>2026-05-02T11:23:48.049Z</time></trkpt><trkpt lat="45.6460002" lon="11.0478925"><ele>1295.0</ele><time>2026-05-02T11:23:48.975Z</time></trkpt><trkpt lat="45.6460609" lon="11.0478469"><ele>1295.0</ele><time>2026-05-02T11:23:50.053Z</time></trkpt><trkpt lat="45.6461193" lon="11.0477987"><ele>1295.0</ele><time>2026-05-02T11:23:50.968Z</time></trkpt><trkpt lat="45.6461839" lon="11.047758"><ele>1295.0</ele><time>2026-05-02T11:23:51.966Z</time></trkpt><trkpt lat="45.6462547" lon="11.0477155"><ele>1295.0</ele><time>2026-05-02T11:23:52.958Z</time></trkpt><trkpt lat="45.6463195" lon="11.0476779"><ele>1295.0</ele><time>2026-05-02T11:23:54.065Z</time></trkpt><trkpt lat="45.6463927" lon="11.0476417"><ele>1295.3333333333335</ele><time>2026-05-02T11:23:54.985Z</time></trkpt><trkpt lat="45.646481" lon="11.0476111"><ele>1295.6666666666667</ele><time>2026-05-02T11:23:55.973Z</time></trkpt><trkpt lat="45.6465684" lon="11.0475791"><ele>1296.0</ele><time>2026-05-02T11:23:56.986Z</time></trkpt><trkpt lat="45.6466484" lon="11.0475527"><ele>1296.3333333333333</ele><time>2026-05-02T11:23:58.006Z</time></trkpt><trkpt lat="45.646724" lon="11.0475438"><ele>1296.6666666666665</ele><time>2026-05-02T11:23:58.975Z</time></trkpt><trkpt lat="45.646792" lon="11.0475243"><ele>1297.0</ele><time>2026-05-02T11:24:00.062Z</time></trkpt><trkpt lat="45.6468573" lon="11.0475227"><ele>1298.3999999999999</ele><time>2026-05-02T11:24:00.962Z</time></trkpt><trkpt lat="45.6469624" lon="11.0475312"><ele>1299.8</ele><time>2026-05-02T11:24:02.965Z</time></trkpt><trkpt lat="45.6470248" lon="11.0475031"><ele>1301.2</ele><time>2026-05-02T11:24:04.96Z</time></trkpt><trkpt lat="45.6469451" lon="11.0474483"><ele>1302.6</ele><time>2026-05-02T11:24:09.956Z</time></trkpt><trkpt lat="45.6468272" lon="11.0474159"><ele>1304.0</ele><time>2026-05-02T11:24:11.963Z</time></trkpt><trkpt lat="45.6467575" lon="11.0473756"><ele>1308.1666666666667</ele><time>2026-05-02T11:24:12.954Z</time></trkpt><trkpt lat="45.6466945" lon="11.0473278"><ele>1312.3333333333335</ele><time>2026-05-02T11:24:14.041Z</time></trkpt><trkpt lat="45.6466173" lon="11.0472849"><ele>1316.5</ele><time>2026-05-02T11:24:14.974Z</time></trkpt><trkpt lat="45.646524" lon="11.0472477"><ele>1320.6666666666667</ele><time>2026-05-02T11:24:15.978Z</time></trkpt><trkpt lat="45.6464353" lon="11.0472229"><ele>1324.8333333333333</ele><time>2026-05-02T11:24:16.978Z</time></trkpt><trkpt lat="45.646347" lon="11.0472075"><ele>1329.0</ele><time>2026-05-02T11:24:17.953Z</time></trkpt><trkpt lat="45.6462481" lon="11.0471982"><ele>1329.0</ele><time>2026-05-02T11:24:19.047Z</time></trkpt><trkpt lat="45.646166" lon="11.0472152"><ele>1329.0</ele><time>2026-05-02T11:24:19.977Z</time></trkpt><trkpt lat="45.6460904" lon="11.0472439"><ele>1329.0</ele><time>2026-05-02T11:24:20.962Z</time></trkpt><trkpt lat="45.6460092" lon="11.0471924"><ele>1329.0</ele><time>2026-05-02T11:24:23.043Z</time></trkpt><trkpt lat="45.6460826" lon="11.0471157"><ele>1329.0</ele><time>2026-05-02T11:24:25.968Z</time></trkpt><trkpt lat="45.6461771" lon="11.0471071"><ele>1329.0</ele><time>2026-05-02T11:24:28.027Z</time></trkpt><trkpt lat="45.6462871" lon="11.0470949"><ele>1329.0</ele><time>2026-05-02T11:24:29.969Z</time></trkpt><trkpt lat="45.6463597" lon="11.0470664"><ele>1329.0</ele><time>2026-05-02T11:24:30.976Z</time></trkpt><trkpt lat="45.6464623" lon="11.0470451"><ele>1329.0</ele><time>2026-05-02T11:24:31.968Z</time></trkpt><trkpt lat="45.6465898" lon="11.0470493"><ele>1329.0</ele><time>2026-05-02T11:24:32.978Z</time></trkpt><trkpt lat="45.6467213" lon="11.0470671"><ele>1329.0</ele><time>2026-05-02T11:24:33.982Z</time></trkpt><trkpt lat="45.6468591" lon="11.0470913"><ele>1330.5</ele><time>2026-05-02T11:24:34.964Z</time></trkpt><trkpt lat="45.646994" lon="11.0471131"><ele>1332.0</ele><time>2026-05-02T11:24:35.967Z</time></trkpt><trkpt lat="45.647124" lon="11.0471323"><ele>1333.5</ele><time>2026-05-02T11:24:36.97Z</time></trkpt><trkpt lat="45.6472359" lon="11.047132"><ele>1335.0</ele><time>2026-05-02T11:24:37.953Z</time></trkpt><trkpt lat="45.6473575" lon="11.0471318"><ele>1335.0</ele><time>2026-05-02T11:24:38.968Z</time></trkpt><trkpt lat="45.6474748" lon="11.0471308"><ele>1335.0</ele><time>2026-05-02T11:24:39.96Z</time></trkpt><trkpt lat="45.64759" lon="11.047133"><ele>1335.0</ele><time>2026-05-02T11:24:40.963Z</time></trkpt><trkpt lat="45.6476956" lon="11.0471323"><ele>1335.0</ele><time>2026-05-02T11:24:41.965Z</time></trkpt><trkpt lat="45.6477947" lon="11.0471281"><ele>1335.0</ele><time>2026-05-02T11:24:42.966Z</time></trkpt><trkpt lat="45.647872" lon="11.0471191"><ele>1335.0</ele><time>2026-05-02T11:24:43.965Z</time></trkpt><trkpt lat="45.6479852" lon="11.047108"><ele>1335.0</ele><time>2026-05-02T11:24:45.962Z</time></trkpt><trkpt lat="45.6480605" lon="11.0471175"><ele>1335.0</ele><time>2026-05-02T11:24:47.966Z</time></trkpt><trkpt lat="45.6481351" lon="11.0471146"><ele>1335.0</ele><time>2026-05-02T11:24:49.967Z</time></trkpt><trkpt lat="45.6482059" lon="11.0471003"><ele>1335.0</ele><time>2026-05-02T11:24:51.975Z</time></trkpt><trkpt lat="45.6482734" lon="11.0470714"><ele>1335.0</ele><time>2026-05-02T11:24:53.968Z</time></trkpt><trkpt lat="45.6483585" lon="11.0470617"><ele>1335.0</ele><time>2026-05-02T11:24:55.975Z</time></trkpt><trkpt lat="45.6484576" lon="11.0470477"><ele>1335.0</ele><time>2026-05-02T11:24:57.959Z</time></trkpt><trkpt lat="45.6485667" lon="11.047032"><ele>1335.0</ele><time>2026-05-02T11:24:59.969Z</time></trkpt><trkpt lat="45.6486832" lon="11.0470262"><ele>1335.0</ele><time>2026-05-02T11:25:01.967Z</time></trkpt><trkpt lat="45.6487953" lon="11.0470276"><ele>1335.0</ele><time>2026-05-02T11:25:03.968Z</time></trkpt><trkpt lat="45.648886" lon="11.0470294"><ele>1334.1666666666667</ele><time>2026-05-02T11:25:05.972Z</time></trkpt><trkpt lat="45.6489563" lon="11.0470307"><ele>1333.3333333333333</ele><time>2026-05-02T11:25:07.956Z</time></trkpt><trkpt lat="45.6490279" lon="11.0470186"><ele>1332.5</ele><time>2026-05-02T11:25:09.969Z</time></trkpt><trkpt lat="45.6490921" lon="11.0469852"><ele>1331.6666666666665</ele><time>2026-05-02T11:25:11.966Z</time></trkpt><trkpt lat="45.6491602" lon="11.0469419"><ele>1330.8333333333333</ele><time>2026-05-02T11:25:13.975Z</time></trkpt><trkpt lat="45.6492546" lon="11.046885"><ele>1330.0</ele><time>2026-05-02T11:25:15.967Z</time></trkpt><trkpt lat="45.649359" lon="11.0468097"><ele>1330.0</ele><time>2026-05-02T11:25:17.96Z</time></trkpt><trkpt lat="45.6494563" lon="11.0467461"><ele>1330.0</ele><time>2026-05-02T11:25:19.977Z</time></trkpt><trkpt lat="45.6495635" lon="11.0466854"><ele>1330.0</ele><time>2026-05-02T11:25:21.981Z</time></trkpt><trkpt lat="45.6496873" lon="11.0466501"><ele>1330.0</ele><time>2026-05-02T11:25:23.985Z</time></trkpt><trkpt lat="45.6497526" lon="11.0466236"><ele>1330.0</ele><time>2026-05-02T11:25:24.98Z</time></trkpt><trkpt lat="45.6498144" lon="11.0465878"><ele>1330.0</ele><time>2026-05-02T11:25:25.987Z</time></trkpt><trkpt lat="45.6498749" lon="11.0465608"><ele>1330.0</ele><time>2026-05-02T11:25:26.977Z</time></trkpt><trkpt lat="45.6499772" lon="11.0464898"><ele>1330.0</ele><time>2026-05-02T11:25:28.969Z</time></trkpt><trkpt lat="45.650072" lon="11.0464161"><ele>1330.0</ele><time>2026-05-02T11:25:30.976Z</time></trkpt><trkpt lat="45.6501727" lon="11.0463554"><ele>1330.0</ele><time>2026-05-02T11:25:32.969Z</time></trkpt><trkpt lat="45.6502709" lon="11.0462889"><ele>1329.3333333333333</ele><time>2026-05-02T11:25:34.983Z</time></trkpt><trkpt lat="45.6503887" lon="11.0462251"><ele>1328.6666666666665</ele><time>2026-05-02T11:25:36.976Z</time></trkpt><trkpt lat="45.6504527" lon="11.046197"><ele>1328.0</ele><time>2026-05-02T11:25:37.972Z</time></trkpt><trkpt lat="45.6505164" lon="11.046173"><ele>1327.3333333333333</ele><time>2026-05-02T11:25:38.966Z</time></trkpt><trkpt lat="45.6505827" lon="11.0461487"><ele>1326.6666666666667</ele><time>2026-05-02T11:25:39.969Z</time></trkpt><trkpt lat="45.6506586" lon="11.046134"><ele>1326.0</ele><time>2026-05-02T11:25:40.978Z</time></trkpt><trkpt lat="45.6507337" lon="11.0461249"><ele>1326.0</ele><time>2026-05-02T11:25:41.962Z</time></trkpt><trkpt lat="45.6508072" lon="11.046113"><ele>1326.0</ele><time>2026-05-02T11:25:42.975Z</time></trkpt><trkpt lat="45.6508747" lon="11.0460875"><ele>1326.0</ele><time>2026-05-02T11:25:43.971Z</time></trkpt><trkpt lat="45.6509888" lon="11.0460711"><ele>1326.0</ele><time>2026-05-02T11:25:45.978Z</time></trkpt><trkpt lat="45.6510774" lon="11.046052"><ele>1326.0</ele><time>2026-05-02T11:25:47.98Z</time></trkpt><trkpt lat="45.6511209" lon="11.0459227"><ele>1326.0</ele><time>2026-05-02T11:25:49.974Z</time></trkpt><trkpt lat="45.6511056" lon="11.0457676"><ele>1325.8333333333333</ele><time>2026-05-02T11:25:51.975Z</time></trkpt><trkpt lat="45.650997" lon="11.0457152"><ele>1325.6666666666667</ele><time>2026-05-02T11:25:53.972Z</time></trkpt><trkpt lat="45.6509335" lon="11.0457069"><ele>1325.5</ele><time>2026-05-02T11:25:54.969Z</time></trkpt><trkpt lat="45.6508357" lon="11.0456288"><ele>1325.3333333333335</ele><time>2026-05-02T11:25:56.982Z</time></trkpt><trkpt lat="45.6508091" lon="11.0455426"><ele>1325.1666666666667</ele><time>2026-05-02T11:25:57.975Z</time></trkpt><trkpt lat="45.6508137" lon="11.0454523"><ele>1325.0</ele><time>2026-05-02T11:25:58.961Z</time></trkpt><trkpt lat="45.6508542" lon="11.0453682"><ele>1325.0</ele><time>2026-05-02T11:25:59.969Z</time></trkpt><trkpt lat="45.6509164" lon="11.045304"><ele>1325.0</ele><time>2026-05-02T11:26:00.967Z</time></trkpt><trkpt lat="45.6509784" lon="11.0452711"><ele>1325.0</ele><time>2026-05-02T11:26:01.979Z</time></trkpt><trkpt lat="45.6510388" lon="11.0452331"><ele>1325.0</ele><time>2026-05-02T11:26:02.977Z</time></trkpt><trkpt lat="45.6511032" lon="11.0451862"><ele>1325.0</ele><time>2026-05-02T11:26:03.961Z</time></trkpt><trkpt lat="45.6511661" lon="11.0451257"><ele>1325.0</ele><time>2026-05-02T11:26:04.98Z</time></trkpt><trkpt lat="45.6512225" lon="11.0450649"><ele>1325.0</ele><time>2026-05-02T11:26:05.975Z</time></trkpt><trkpt lat="45.651272" lon="11.0449984"><ele>1325.0</ele><time>2026-05-02T11:26:06.953Z</time></trkpt><trkpt lat="45.6512957" lon="11.04489"><ele>1325.0</ele><time>2026-05-02T11:26:07.968Z</time></trkpt><trkpt lat="45.65128" lon="11.0447546"><ele>1325.0</ele><time>2026-05-02T11:26:08.968Z</time></trkpt><trkpt lat="45.6512323" lon="11.0446823"><ele>1325.0</ele><time>2026-05-02T11:26:09.968Z</time></trkpt><trkpt lat="45.6511393" lon="11.0445964"><ele>1325.0</ele><time>2026-05-02T11:26:11.974Z</time></trkpt><trkpt lat="45.6510709" lon="11.0445586"><ele>1325.0</ele><time>2026-05-02T11:26:12.976Z</time></trkpt><trkpt lat="45.650998" lon="11.0445113"><ele>1325.0</ele><time>2026-05-02T11:26:13.979Z</time></trkpt><trkpt lat="45.6509163" lon="11.0444498"><ele>1325.0</ele><time>2026-05-02T11:26:14.967Z</time></trkpt><trkpt lat="45.6508344" lon="11.0443881"><ele>1325.0</ele><time>2026-05-02T11:26:15.974Z</time></trkpt><trkpt lat="45.6507501" lon="11.0443235"><ele>1325.0</ele><time>2026-05-02T11:26:16.97Z</time></trkpt><trkpt lat="45.6506614" lon="11.0442591"><ele>1325.0</ele><time>2026-05-02T11:26:17.967Z</time></trkpt><trkpt lat="45.6505752" lon="11.0442034"><ele>1325.0</ele><time>2026-05-02T11:26:18.956Z</time></trkpt><trkpt lat="45.6504941" lon="11.0441525"><ele>1325.0</ele><time>2026-05-02T11:26:19.974Z</time></trkpt><trkpt lat="45.650417" lon="11.044097"><ele>1325.0</ele><time>2026-05-02T11:26:20.981Z</time></trkpt><trkpt lat="45.6503397" lon="11.0440333"><ele>1325.0</ele><time>2026-05-02T11:26:21.977Z</time></trkpt><trkpt lat="45.6502667" lon="11.0439607"><ele>1325.0</ele><time>2026-05-02T11:26:22.983Z</time></trkpt><trkpt lat="45.6501963" lon="11.0438862"><ele>1325.0</ele><time>2026-05-02T11:26:23.984Z</time></trkpt><trkpt lat="45.6501324" lon="11.0437893"><ele>1323.8</ele><time>2026-05-02T11:26:24.974Z</time></trkpt><trkpt lat="45.6500805" lon="11.0436694"><ele>1322.6</ele><time>2026-05-02T11:26:25.963Z</time></trkpt><trkpt lat="45.6500299" lon="11.0435451"><ele>1321.4</ele><time>2026-05-02T11:26:26.97Z</time></trkpt><trkpt lat="45.6499769" lon="11.0434287"><ele>1320.2</ele><time>2026-05-02T11:26:27.971Z</time></trkpt><trkpt lat="45.6499026" lon="11.0433146"><ele>1319.0</ele><time>2026-05-02T11:26:29.04Z</time></trkpt><trkpt lat="45.6497978" lon="11.0431967"><ele>1319.0</ele><time>2026-05-02T11:26:30.002Z</time></trkpt><trkpt lat="45.6496964" lon="11.0430983"><ele>1319.0</ele><time>2026-05-02T11:26:30.977Z</time></trkpt><trkpt lat="45.6496141" lon="11.0430226"><ele>1319.0</ele><time>2026-05-02T11:26:31.972Z</time></trkpt><trkpt lat="45.6495391" lon="11.0429325"><ele>1319.0</ele><time>2026-05-02T11:26:33.012Z</time></trkpt><trkpt lat="45.6494763" lon="11.042838"><ele>1319.0</ele><time>2026-05-02T11:26:34.044Z</time></trkpt><trkpt lat="45.6494324" lon="11.04274"><ele>1316.0</ele><time>2026-05-02T11:26:34.985Z</time></trkpt><trkpt lat="45.6494001" lon="11.0426212"><ele>1313.0</ele><time>2026-05-02T11:26:35.972Z</time></trkpt><trkpt lat="45.6493784" lon="11.0424966"><ele>1310.0</ele><time>2026-05-02T11:26:36.957Z</time></trkpt><trkpt lat="45.6493524" lon="11.0423664"><ele>1307.0</ele><time>2026-05-02T11:26:37.965Z</time></trkpt><trkpt lat="45.6493151" lon="11.0422474"><ele>1304.0</ele><time>2026-05-02T11:26:38.968Z</time></trkpt><trkpt lat="45.6492522" lon="11.042159"><ele>1304.0</ele><time>2026-05-02T11:26:39.98Z</time></trkpt><trkpt lat="45.6491787" lon="11.0420869"><ele>1304.0</ele><time>2026-05-02T11:26:40.962Z</time></trkpt><trkpt lat="45.6491052" lon="11.042013"><ele>1304.0</ele><time>2026-05-02T11:26:41.96Z</time></trkpt><trkpt lat="45.6490437" lon="11.0419251"><ele>1304.0</ele><time>2026-05-02T11:26:42.971Z</time></trkpt><trkpt lat="45.6489916" lon="11.0418228"><ele>1304.0</ele><time>2026-05-02T11:26:43.972Z</time></trkpt><trkpt lat="45.6489417" lon="11.0417131"><ele>1304.0</ele><time>2026-05-02T11:26:44.97Z</time></trkpt><trkpt lat="45.6488971" lon="11.0415979"><ele>1302.6</ele><time>2026-05-02T11:26:45.974Z</time></trkpt><trkpt lat="45.6488632" lon="11.041475"><ele>1301.2</ele><time>2026-05-02T11:26:46.974Z</time></trkpt><trkpt lat="45.6488311" lon="11.0413509"><ele>1299.8</ele><time>2026-05-02T11:26:47.962Z</time></trkpt><trkpt lat="45.6488054" lon="11.0412112"><ele>1298.3999999999999</ele><time>2026-05-02T11:26:49.065Z</time></trkpt><trkpt lat="45.6487919" lon="11.0410682"><ele>1297.0</ele><time>2026-05-02T11:26:49.976Z</time></trkpt><trkpt lat="45.6487793" lon="11.0409315"><ele>1294.1999999999998</ele><time>2026-05-02T11:26:50.957Z</time></trkpt><trkpt lat="45.6487642" lon="11.0407908"><ele>1291.4</ele><time>2026-05-02T11:26:51.965Z</time></trkpt><trkpt lat="45.6487504" lon="11.040635"><ele>1288.6</ele><time>2026-05-02T11:26:53.032Z</time></trkpt><trkpt lat="45.6487404" lon="11.0404722"><ele>1285.8000000000002</ele><time>2026-05-02T11:26:54.036Z</time></trkpt><trkpt lat="45.6487258" lon="11.0403197"><ele>1283.0</ele><time>2026-05-02T11:26:55.017Z</time></trkpt><trkpt lat="45.6487232" lon="11.0401666"><ele>1283.0</ele><time>2026-05-02T11:26:55.964Z</time></trkpt><trkpt lat="45.648739" lon="11.0399936"><ele>1283.0</ele><time>2026-05-02T11:26:56.97Z</time></trkpt><trkpt lat="45.6487392" lon="11.0398204"><ele>1283.0</ele><time>2026-05-02T11:26:57.979Z</time></trkpt><trkpt lat="45.6487595" lon="11.0396618"><ele>1283.0</ele><time>2026-05-02T11:26:59.055Z</time></trkpt><trkpt lat="45.6487852" lon="11.0395065"><ele>1280.75</ele><time>2026-05-02T11:27:00.029Z</time></trkpt><trkpt lat="45.6488179" lon="11.0393349"><ele>1278.5</ele><time>2026-05-02T11:27:00.964Z</time></trkpt><trkpt lat="45.6488497" lon="11.0391446"><ele>1276.25</ele><time>2026-05-02T11:27:01.974Z</time></trkpt><trkpt lat="45.6488598" lon="11.0389464"><ele>1274.0</ele><time>2026-05-02T11:27:02.963Z</time></trkpt><trkpt lat="45.6488594" lon="11.0387618"><ele>1273.75</ele><time>2026-05-02T11:27:04.055Z</time></trkpt><trkpt lat="45.6488202" lon="11.0385979"><ele>1273.5</ele><time>2026-05-02T11:27:05.026Z</time></trkpt><trkpt lat="45.6487698" lon="11.0384484"><ele>1273.25</ele><time>2026-05-02T11:27:05.972Z</time></trkpt><trkpt lat="45.6487117" lon="11.038303"><ele>1273.0</ele><time>2026-05-02T11:27:06.972Z</time></trkpt><trkpt lat="45.6486543" lon="11.0381486"><ele>1267.5</ele><time>2026-05-02T11:27:07.966Z</time></trkpt><trkpt lat="45.6486042" lon="11.0380016"><ele>1262.0</ele><time>2026-05-02T11:27:09.049Z</time></trkpt><trkpt lat="45.6485711" lon="11.037849"><ele>1256.5</ele><time>2026-05-02T11:27:10.049Z</time></trkpt><trkpt lat="45.6485675" lon="11.0376868"><ele>1251.0</ele><time>2026-05-02T11:27:10.976Z</time></trkpt><trkpt lat="45.6485722" lon="11.0375267"><ele>1248.8</ele><time>2026-05-02T11:27:11.986Z</time></trkpt><trkpt lat="45.6485786" lon="11.0373708"><ele>1246.6</ele><time>2026-05-02T11:27:12.978Z</time></trkpt><trkpt lat="45.6486004" lon="11.0372168"><ele>1244.4</ele><time>2026-05-02T11:27:13.963Z</time></trkpt><trkpt lat="45.6486301" lon="11.0370715"><ele>1242.2</ele><time>2026-05-02T11:27:14.963Z</time></trkpt><trkpt lat="45.6486696" lon="11.0369295"><ele>1240.0</ele><time>2026-05-02T11:27:15.959Z</time></trkpt><trkpt lat="45.6462826" lon="11.0481721"><ele>1252.0</ele><time>2026-05-02T11:23:15.973Z</time></trkpt><trkpt lat="45.6461109" lon="11.0482335"><ele>1264.0</ele><time>2026-05-02T11:23:16.973Z</time></trkpt><trkpt lat="45.6459351" lon="11.0482797"><ele>1276.0</ele><time>2026-05-02T11:23:17.966Z</time></trkpt><trkpt lat="45.6457694" lon="11.0483181"><ele>1276.0</ele><time>2026-05-02T11:23:18.974Z</time></trkpt><trkpt lat="45.6456192" lon="11.0483389"><ele>1276.0</ele><time>2026-05-02T11:23:19.989Z</time></trkpt><trkpt lat="45.6454878" lon="11.0483486"><ele>1276.0</ele><time>2026-05-02T11:23:20.972Z</time></trkpt><trkpt lat="45.6453597" lon="11.048346"><ele>1276.0</ele><time>2026-05-02T11:23:21.963Z</time></trkpt><trkpt lat="45.6452387" lon="11.0483481"><ele>1274.8</ele><time>2026-05-02T11:23:23.097Z</time></trkpt><trkpt lat="45.6450519" lon="11.0483537"><ele>1273.6</ele><time>2026-05-02T11:23:24.968Z</time></trkpt><trkpt lat="45.6449631" lon="11.0483703"><ele>1272.4</ele><time>2026-05-02T11:23:26.961Z</time></trkpt><trkpt lat="45.6450001" lon="11.0482721"><ele>1271.2</ele><time>2026-05-02T11:23:29.964Z</time></trkpt><trkpt lat="45.6450634" lon="11.0482787"><ele>1270.0</ele><time>2026-05-02T11:23:31.964Z</time></trkpt><trkpt lat="45.645156" lon="11.0482556"><ele>1273.6666666666665</ele><time>2026-05-02T11:23:33.963Z</time></trkpt><trkpt lat="45.6452436" lon="11.0482115"><ele>1277.3333333333333</ele><time>2026-05-02T11:23:35.972Z</time></trkpt><trkpt lat="45.6453378" lon="11.048162"><ele>1281.0</ele><time>2026-05-02T11:23:37.972Z</time></trkpt><trkpt lat="45.6454469" lon="11.0481177"><ele>1284.6666666666667</ele><time>2026-05-02T11:23:39.967Z</time></trkpt><trkpt lat="45.6455147" lon="11.0480965"><ele>1288.3333333333335</ele><time>2026-05-02T11:23:40.975Z</time></trkpt><trkpt lat="45.6455833" lon="11.04807"><ele>1292.0</ele><time>2026-05-02T11:23:41.97Z</time></trkpt><trkpt lat="45.6456519" lon="11.0480453"><ele>1292.5</ele><time>2026-05-02T11:23:42.975Z</time></trkpt><trkpt lat="45.6457655" lon="11.04801"><ele>1293.0</ele><time>2026-05-02T11:23:44.974Z</time></trkpt><trkpt lat="45.6458764" lon="11.0479754"><ele>1293.5</ele><time>2026-05-02T11:23:46.979Z</time></trkpt><trkpt lat="45.6459376" lon="11.0479408"><ele>1294.0</ele><time>2026-05-02T11:23:48.049Z</time></trkpt><trkpt lat="45.6460002" lon="11.0478925"><ele>1294.5</ele><time>2026-05-02T11:23:48.975Z</time></trkpt><trkpt lat="45.6460609" lon="11.0478469"><ele>1295.0</ele><time>2026-05-02T11:23:50.053Z</time></trkpt><trkpt lat="45.6461193" lon="11.0477987"><ele>1295.3333333333335</ele><time>2026-05-02T11:23:50.968Z</time></trkpt><trkpt lat="45.6461839" lon="11.047758"><ele>1295.6666666666667</ele><time>2026-05-02T11:23:51.966Z</time></trkpt><trkpt lat="45.6462547" lon="11.0477155"><ele>1296.0</ele><time>2026-05-02T11:23:52.958Z</time></trkpt><trkpt lat="45.6463195" lon="11.0476779"><ele>1296.3333333333333</ele><time>2026-05-02T11:23:54.065Z</time></trkpt><trkpt lat="45.6463927" lon="11.0476417"><ele>1296.6666666666665</ele><time>2026-05-02T11:23:54.985Z</time></trkpt><trkpt lat="45.646481" lon="11.0476111"><ele>1297.0</ele><time>2026-05-02T11:23:55.973Z</time></trkpt><trkpt lat="45.6465684" lon="11.0475791"><ele>1297.0</ele><time>2026-05-02T11:23:56.986Z</time></trkpt><trkpt lat="45.6466484" lon="11.0475527"><ele>1297.0</ele><time>2026-05-02T11:23:58.006Z</time></trkpt><trkpt lat="45.646724" lon="11.0475438"><ele>1297.0</ele><time>2026-05-02T11:23:58.975Z</time></trkpt><trkpt lat="45.646792" lon="11.0475243"><ele>1297.0</ele><time>2026-05-02T11:24:00.062Z</time></trkpt><trkpt lat="45.6468573" lon="11.0475227"><ele>1297.0</ele><time>2026-05-02T11:24:00.962Z</time></trkpt><trkpt lat="45.6469624" lon="11.0475312"><ele>1297.0</ele><time>2026-05-02T11:24:02.965Z</time></trkpt><trkpt lat="45.6470248" lon="11.0475031"><ele>1302.3333333333333</ele><time>2026-05-02T11:24:04.96Z</time></trkpt><trkpt lat="45.6469451" lon="11.0474483"><ele>1307.6666666666665</ele><time>2026-05-02T11:24:09.956Z</time></trkpt><trkpt lat="45.6468272" lon="11.0474159"><ele>1313.0</ele><time>2026-05-02T11:24:11.963Z</time></trkpt><trkpt lat="45.6467575" lon="11.0473756"><ele>1318.3333333333333</ele><time>2026-05-02T11:24:12.954Z</time></trkpt><trkpt lat="45.6466945" lon="11.0473278"><ele>1323.6666666666667</ele><time>2026-05-02T11:24:14.041Z</time></trkpt><trkpt lat="45.6466173" lon="11.0472849"><ele>1329.0</ele><time>2026-05-02T11:24:14.974Z</time></trkpt><trkpt lat="45.646524" lon="11.0472477"><ele>1329.0</ele><time>2026-05-02T11:24:15.978Z</time></trkpt><trkpt lat="45.6464353" lon="11.0472229"><ele>1329.0</ele><time>2026-05-02T11:24:16.978Z</time></trkpt><trkpt lat="45.646347" lon="11.0472075"><ele>1329.0</ele><time>2026-05-02T11:24:17.953Z</time></trkpt><trkpt lat="45.6462481" lon="11.0471982"><ele>1329.0</ele><time>2026-05-02T11:24:19.047Z</time></trkpt><trkpt lat="45.646166" lon="11.0472152"><ele>1329.0</ele><time>2026-05-02T11:24:19.977Z</time></trkpt><trkpt lat="45.6460904" lon="11.0472439"><ele>1329.0</ele><time>2026-05-02T11:24:20.962Z</time></trkpt><trkpt lat="45.6460092" lon="11.0471924"><ele>1329.0</ele><time>2026-05-02T11:24:23.043Z</time></trkpt><trkpt lat="45.6460826" lon="11.0471157"><ele>1329.0</ele><time>2026-05-02T11:24:25.968Z</time></trkpt><trkpt lat="45.6461771" lon="11.0471071"><ele>1329.0</ele><time>2026-05-02T11:24:28.027Z</time></trkpt><trkpt lat="45.6462871" lon="11.0470949"><ele>1329.0</ele><time>2026-05-02T11:24:29.969Z</time></trkpt><trkpt lat="45.6463597" lon="11.0470664"><ele>1329.0</ele><time>2026-05-02T11:24:30.976Z</time></trkpt><trkpt lat="45.6464623" lon="11.0470451"><ele>1329.0</ele><time>2026-05-02T11:24:31.968Z</time></trkpt><trkpt lat="45.6465898" lon="11.0470493"><ele>1329.0</ele><time>2026-05-02T11:24:32.978Z</time></trkpt><trkpt lat="45.6467213" lon="11.0470671"><ele>1329.0</ele><time>2026-05-02T11:24:33.982Z</time></trkpt><trkpt lat="45.6468591" lon="11.0470913"><ele>1329.0</ele><time>2026-05-02T11:24:34.964Z</time></trkpt><trkpt lat="45.646994" lon="11.0471131"><ele>1330.5</ele><time>2026-05-02T11:24:35.967Z</time></trkpt><trkpt lat="45.647124" lon="11.0471323"><ele>1332.0</ele><time>2026-05-02T11:24:36.97Z</time></trkpt><trkpt lat="45.6472359" lon="11.047132"><ele>1333.5</ele><time>2026-05-02T11:24:37.953Z</time></trkpt><trkpt lat="45.6473575" lon="11.0471318"><ele>1335.0</ele><time>2026-05-02T11:24:38.968Z</time></trkpt><trkpt lat="45.6474748" lon="11.0471308"><ele>1335.0</ele><time>2026-05-02T11:24:39.96Z</time></trkpt><trkpt lat="45.64759" lon="11.047133"><ele>1335.0</ele><time>2026-05-02T11:24:40.963Z</time></trkpt><trkpt lat="45.6476956" lon="11.0471323"><ele>1335.0</ele><time>2026-05-02T11:24:41.965Z</time></trkpt><trkpt lat="45.6477947" lon="11.0471281"><ele>1335.0</ele><time>2026-05-02T11:24:42.966Z</time></trkpt><trkpt lat="45.647872" lon="11.0471191"><ele>1335.0</ele><time>2026-05-02T11:24:43.965Z</time></trkpt><trkpt lat="45.6479852" lon="11.047108"><ele>1335.0</ele><time>2026-05-02T11:24:45.962Z</time></trkpt><trkpt lat="45.6480605" lon="11.0471175"><ele>1335.0</ele><time>2026-05-02T11:24:47.966Z</time></trkpt><trkpt lat="45.6481351" lon="11.0471146"><ele>1335.0</ele><time>2026-05-02T11:24:49.967Z</time></trkpt><trkpt lat="45.6482059" lon="11.0471003"><ele>1335.0</ele><time>2026-05-02T11:24:51.975Z</time></trkpt><trkpt lat="45.6482734" lon="11.0470714"><ele>1335.0</ele><time>2026-05-02T11:24:53.968Z</time></trkpt><trkpt lat="45.6483585" lon="11.0470617"><ele>1335.0</ele><time>2026-05-02T11:24:55.975Z</time></trkpt><trkpt lat="45.6484576" lon="11.0470477"><ele>1335.0</ele><time>2026-05-02T11:24:57.959Z</time></trkpt><trkpt lat="45.6485667" lon="11.047032"><ele>1335.0</ele><time>2026-05-02T11:24:59.969Z</time></trkpt><trkpt lat="45.6486832" lon="11.0470262"><ele>1335.0</ele><time>2026-05-02T11:25:01.967Z</time></trkpt><trkpt lat="45.6487953" lon="11.0470276"><ele>1335.0</ele><time>2026-05-02T11:25:03.968Z</time></trkpt><trkpt lat="45.648886" lon="11.0470294"><ele>1335.0</ele><time>2026-05-02T11:25:05.972Z</time></trkpt><trkpt lat="45.6489563" lon="11.0470307"><ele>1334.1666666666667</ele><time>2026-05-02T11:25:07.956Z</time></trkpt><trkpt lat="45.6490279" lon="11.0470186"><ele>1333.3333333333333</ele><time>2026-05-02T11:25:09.969Z</time></trkpt><trkpt lat="45.6490921" lon="11.0469852"><ele>1332.5</ele><time>2026-05-02T11:25:11.966Z</time></trkpt><trkpt lat="45.6491602" lon="11.0469419"><ele>1331.6666666666665</ele><time>2026-05-02T11:25:13.975Z</time></trkpt><trkpt lat="45.6492546" lon="11.046885"><ele>1330.8333333333333</ele><time>2026-05-02T11:25:15.967Z</time></trkpt><trkpt lat="45.649359" lon="11.0468097"><ele>1330.0</ele><time>2026-05-02T11:25:17.96Z</time></trkpt><trkpt lat="45.6494563" lon="11.0467461"><ele>1330.0</ele><time>2026-05-02T11:25:19.977Z</time></trkpt><trkpt lat="45.6495635" lon="11.0466854"><ele>1330.0</ele><time>2026-05-02T11:25:21.981Z</time></trkpt><trkpt lat="45.6496873" lon="11.0466501"><ele>1330.0</ele><time>2026-05-02T11:25:23.985Z</time></trkpt><trkpt lat="45.6497526" lon="11.0466236"><ele>1330.0</ele><time>2026-05-02T11:25:24.98Z</time></trkpt><trkpt lat="45.6498144" lon="11.0465878"><ele>1330.0</ele><time>2026-05-02T11:25:25.987Z</time></trkpt><trkpt lat="45.6498749" lon="11.0465608"><ele>1330.0</ele><time>2026-05-02T11:25:26.977Z</time></trkpt><trkpt lat="45.6499772" lon="11.0464898"><ele>1330.0</ele><time>2026-05-02T11:25:28.969Z</time></trkpt><trkpt lat="45.650072" lon="11.0464161"><ele>1330.0</ele><time>2026-05-02T11:25:30.976Z</time></trkpt><trkpt lat="45.6501727" lon="11.0463554"><ele>1330.0</ele><time>2026-05-02T11:25:32.969Z</time></trkpt><trkpt lat="45.6502709" lon="11.0462889"><ele>1330.0</ele><time>2026-05-02T11:25:34.983Z</time></trkpt><trkpt lat="45.6503887" lon="11.0462251"><ele>1329.4285714285713</ele><time>2026-05-02T11:25:36.976Z</time></trkpt><trkpt lat="45.6504527" lon="11.046197"><ele>1328.857142857143</ele><time>2026-05-02T11:25:37.972Z</time></trkpt><trkpt lat="45.6505164" lon="11.046173"><ele>1328.2857142857142</ele><time>2026-05-02T11:25:38.966Z</time></trkpt><trkpt lat="45.6505827" lon="11.0461487"><ele>1327.7142857142858</ele><time>2026-05-02T11:25:39.969Z</time></trkpt><trkpt lat="45.6506586" lon="11.046134"><ele>1327.142857142857</ele><time>2026-05-02T11:25:40.978Z</time></trkpt><trkpt lat="45.6507337" lon="11.0461249"><ele>1326.5714285714284</ele><time>2026-05-02T11:25:41.962Z</time></trkpt><trkpt lat="45.6508072" lon="11.046113"><ele>1326.0</ele><time>2026-05-02T11:25:42.975Z</time></trkpt><trkpt lat="45.6508747" lon="11.0460875"><ele>1326.0</ele><time>2026-05-02T11:25:43.971Z</time></trkpt><trkpt lat="45.6509888" lon="11.0460711"><ele>1326.0</ele><time>2026-05-02T11:25:45.978Z</time></trkpt><trkpt lat="45.6510774" lon="11.046052"><ele>1326.0</ele><time>2026-05-02T11:25:47.98Z</time></trkpt><trkpt lat="45.6511209" lon="11.0459227"><ele>1326.0</ele><time>2026-05-02T11:25:49.974Z</time></trkpt><trkpt lat="45.6511056" lon="11.0457676"><ele>1326.0</ele><time>2026-05-02T11:25:51.975Z</time></trkpt><trkpt lat="45.650997" lon="11.0457152"><ele>1325.8333333333333</ele><time>2026-05-02T11:25:53.972Z</time></trkpt><trkpt lat="45.6509335" lon="11.0457069"><ele>1325.6666666666667</ele><time>2026-05-02T11:25:54.969Z</time></trkpt><trkpt lat="45.6508357" lon="11.0456288"><ele>1325.5</ele><time>2026-05-02T11:25:56.982Z</time></trkpt><trkpt lat="45.6508091" lon="11.0455426"><ele>1325.3333333333335</ele><time>2026-05-02T11:25:57.975Z</time></trkpt><trkpt lat="45.6508137" lon="11.0454523"><ele>1325.1666666666667</ele><time>2026-05-02T11:25:58.961Z</time></trkpt><trkpt lat="45.6508542" lon="11.0453682"><ele>1325.0</ele><time>2026-05-02T11:25:59.969Z</time></trkpt><trkpt lat="45.6509164" lon="11.045304"><ele>1325.0</ele><time>2026-05-02T11:26:00.967Z</time></trkpt><trkpt lat="45.6509784" lon="11.0452711"><ele>1325.0</ele><time>2026-05-02T11:26:01.979Z</time></trkpt><trkpt lat="45.6510388" lon="11.0452331"><ele>1325.0</ele><time>2026-05-02T11:26:02.977Z</time></trkpt><trkpt lat="45.6511032" lon="11.0451862"><ele>1325.0</ele><time>2026-05-02T11:26:03.961Z</time></trkpt><trkpt lat="45.6511661" lon="11.0451257"><ele>1325.0</ele><time>2026-05-02T11:26:04.98Z</time></trkpt><trkpt lat="45.6512225" lon="11.0450649"><ele>1325.0</ele><time>2026-05-02T11:26:05.975Z</time></trkpt><trkpt lat="45.651272" lon="11.0449984"><ele>1325.0</ele><time>2026-05-02T11:26:06.953Z</time></trkpt><trkpt lat="45.6512957" lon="11.04489"><ele>1325.0</ele><time>2026-05-02T11:26:07.968Z</time></trkpt><trkpt lat="45.65128" lon="11.0447546"><ele>1325.0</ele><time>2026-05-02T11:26:08.968Z</time></trkpt><trkpt lat="45.6512323" lon="11.0446823"><ele>1325.0</ele><time>2026-05-02T11:26:09.968Z</time></trkpt><trkpt lat="45.6511393" lon="11.0445964"><ele>1325.0</ele><time>2026-05-02T11:26:11.974Z</time></trkpt><trkpt lat="45.6510709" lon="11.0445586"><ele>1325.0</ele><time>2026-05-02T11:26:12.976Z</time></trkpt><trkpt lat="45.650998" lon="11.0445113"><ele>1325.0</ele><time>2026-05-02T11:26:13.979Z</time></trkpt><trkpt lat="45.6509163" lon="11.0444498"><ele>1325.0</ele><time>2026-05-02T11:26:14.967Z</time></trkpt><trkpt lat="45.6508344" lon="11.0443881"><ele>1325.0</ele><time>2026-05-02T11:26:15.974Z</time></trkpt><trkpt lat="45.6507501" lon="11.0443235"><ele>1325.0</ele><time>2026-05-02T11:26:16.97Z</time></trkpt><trkpt lat="45.6506614" lon="11.0442591"><ele>1325.0</ele><time>2026-05-02T11:26:17.967Z</time></trkpt><trkpt lat="45.6505752" lon="11.0442034"><ele>1325.0</ele><time>2026-05-02T11:26:18.956Z</time></trkpt><trkpt lat="45.6504941" lon="11.0441525"><ele>1326.1666666666667</ele><time>2026-05-02T11:26:19.974Z</time></trkpt><trkpt lat="45.650417" lon="11.044097"><ele>1327.3333333333335</ele><time>2026-05-02T11:26:20.981Z</time></trkpt><trkpt lat="45.6503397" lon="11.0440333"><ele>1328.5</ele><time>2026-05-02T11:26:21.977Z</time></trkpt><trkpt lat="45.6502667" lon="11.0439607"><ele>1329.6666666666667</ele><time>2026-05-02T11:26:22.983Z</time></trkpt><trkpt lat="45.6501963" lon="11.0438862"><ele>1330.8333333333333</ele><time>2026-05-02T11:26:23.984Z</time></trkpt><trkpt lat="45.6501324" lon="11.0437893"><ele>1332.0</ele><time>2026-05-02T11:26:24.974Z</time></trkpt><trkpt lat="45.6500805" lon="11.0436694"><ele>1329.3999999999999</ele><time>2026-05-02T11:26:25.963Z</time></trkpt><trkpt lat="45.6500299" lon="11.0435451"><ele>1326.8</ele><time>2026-05-02T11:26:26.97Z</time></trkpt><trkpt lat="45.6499769" lon="11.0434287"><ele>1324.2</ele><time>2026-05-02T11:26:27.971Z</time></trkpt><trkpt lat="45.6499026" lon="11.0433146"><ele>1321.6</ele><time>2026-05-02T11:26:29.04Z</time></trkpt><trkpt lat="45.6497978" lon="11.0431967"><ele>1319.0</ele><time>2026-05-02T11:26:30.002Z</time></trkpt><trkpt lat="45.6496964" lon="11.0430983"><ele>1319.0</ele><time>2026-05-02T11:26:30.977Z</time></trkpt><trkpt lat="45.6496141" lon="11.0430226"><ele>1319.0</ele><time>2026-05-02T11:26:31.972Z</time></trkpt><trkpt lat="45.6495391" lon="11.0429325"><ele>1319.0</ele><time>2026-05-02T11:26:33.012Z</time></trkpt><trkpt lat="45.6494763" lon="11.042838"><ele>1319.0</ele><time>2026-05-02T11:26:34.044Z</time></trkpt><trkpt lat="45.6494324" lon="11.04274"><ele>1319.0</ele><time>2026-05-02T11:26:34.985Z</time></trkpt><trkpt lat="45.6494001" lon="11.0426212"><ele>1316.0</ele><time>2026-05-02T11:26:35.972Z</time></trkpt><trkpt lat="45.6493784" lon="11.0424966"><ele>1313.0</ele><time>2026-05-02T11:26:36.957Z</time></trkpt><trkpt lat="45.6493524" lon="11.0423664"><ele>1310.0</ele><time>2026-05-02T11:26:37.965Z</time></trkpt><trkpt lat="45.6493151" lon="11.0422474"><ele>1307.0</ele><time>2026-05-02T11:26:38.968Z</time></trkpt><trkpt lat="45.6492522" lon="11.042159"><ele>1304.0</ele><time>2026-05-02T11:26:39.98Z</time></trkpt><trkpt lat="45.6491787" lon="11.0420869"><ele>1304.0</ele><time>2026-05-02T11:26:40.962Z</time></trkpt><trkpt lat="45.6491052" lon="11.042013"><ele>1304.0</ele><time>2026-05-02T11:26:41.96Z</time></trkpt><trkpt lat="45.6490437" lon="11.0419251"><ele>1304.0</ele><time>2026-05-02T11:26:42.971Z</time></trkpt><trkpt lat="45.6489916" lon="11.0418228"><ele>1304.0</ele><time>2026-05-02T11:26:43.972Z</time></trkpt><trkpt lat="45.6489417" lon="11.0417131"><ele>1304.0</ele><time>2026-05-02T11:26:44.97Z</time></trkpt><trkpt lat="45.6488971" lon="11.0415979"><ele>1304.0</ele><time>2026-05-02T11:26:45.974Z</time></trkpt><trkpt lat="45.6488632" lon="11.041475"><ele>1302.6</ele><time>2026-05-02T11:26:46.974Z</time></trkpt><trkpt lat="45.6488311" lon="11.0413509"><ele>1301.2</ele><time>2026-05-02T11:26:47.962Z</time></trkpt><trkpt lat="45.6488054" lon="11.0412112"><ele>1299.8</ele><time>2026-05-02T11:26:49.065Z</time></trkpt><trkpt lat="45.6487919" lon="11.0410682"><ele>1298.3999999999999</ele><time>2026-05-02T11:26:49.976Z</time></trkpt><trkpt lat="45.6487793" lon="11.0409315"><ele>1297.0</ele><time>2026-05-02T11:26:50.957Z</time></trkpt><trkpt lat="45.6487642" lon="11.0407908"><ele>1294.1999999999998</ele><time>2026-05-02T11:26:51.965Z</time></trkpt><trkpt lat="45.6487504" lon="11.040635"><ele>1291.4</ele><time>2026-05-02T11:26:53.032Z</time></trkpt><trkpt lat="45.6487404" lon="11.0404722"><ele>1288.6</ele><time>2026-05-02T11:26:54.036Z</time></trkpt><trkpt lat="45.6487258" lon="11.0403197"><ele>1285.8000000000002</ele><time>2026-05-02T11:26:55.017Z</time></trkpt><trkpt lat="45.6487232" lon="11.0401666"><ele>1283.0</ele><time>2026-05-02T11:26:55.964Z</time></trkpt><trkpt lat="45.648739" lon="11.0399936"><ele>1280.75</ele><time>2026-05-02T11:26:56.97Z</time></trkpt><trkpt lat="45.6487392" lon="11.0398204"><ele>1278.5</ele><time>2026-05-02T11:26:57.979Z</time></trkpt><trkpt lat="45.6487595" lon="11.0396618"><ele>1276.25</ele><time>2026-05-02T11:26:59.055Z</time></trkpt><trkpt lat="45.6487852" lon="11.0395065"><ele>1274.0</ele><time>2026-05-02T11:27:00.029Z</time></trkpt><trkpt lat="45.6488179" lon="11.0393349"><ele>1274.0</ele><time>2026-05-02T11:27:00.964Z</time></trkpt><trkpt lat="45.6488497" lon="11.0391446"><ele>1274.0</ele><time>2026-05-02T11:27:01.974Z</time></trkpt><trkpt lat="45.6488598" lon="11.0389464"><ele>1274.0</ele><time>2026-05-02T11:27:02.963Z</time></trkpt><trkpt lat="45.6488594" lon="11.0387618"><ele>1274.0</ele><time>2026-05-02T11:27:04.055Z</time></trkpt><trkpt lat="45.6488202" lon="11.0385979"><ele>1273.75</ele><time>2026-05-02T11:27:05.026Z</time></trkpt><trkpt lat="45.6487698" lon="11.0384484"><ele>1273.5</ele><time>2026-05-02T11:27:05.972Z</time></trkpt><trkpt lat="45.6487117" lon="11.038303"><ele>1273.25</ele><time>2026-05-02T11:27:06.972Z</time></trkpt><trkpt lat="45.6486543" lon="11.0381486"><ele>1273.0</ele><time>2026-05-02T11:27:07.966Z</time></trkpt><trkpt lat="45.6486042" lon="11.0380016"><ele>1268.6</ele><time>2026-05-02T11:27:09.049Z</time></trkpt><trkpt lat="45.6485711" lon="11.037849"><ele>1264.1999999999998</ele><time>2026-05-02T11:27:10.049Z</time></trkpt><trkpt lat="45.6485675" lon="11.0376868"><ele>1259.8</ele><time>2026-05-02T11:27:10.976Z</time></trkpt><trkpt lat="45.6485722" lon="11.0375267"><ele>1255.3999999999999</ele><time>2026-05-02T11:27:11.986Z</time></trkpt><trkpt lat="45.6485786" lon="11.0373708"><ele>1251.0</ele><time>2026-05-02T11:27:12.978Z</time></trkpt><trkpt lat="45.6486004" lon="11.0372168"><ele>1250.8</ele><time>2026-05-02T11:27:13.963Z</time></trkpt><trkpt lat="45.6486301" lon="11.0370715"><ele>1250.6</ele><time>2026-05-02T11:27:14.963Z</time></trkpt><trkpt lat="45.6486696" lon="11.0369295"><ele>1250.4</ele><time>2026-05-02T11:27:15.959Z</time></trkpt><trkpt lat="45.648705" lon="11.0367848"><ele>1250.2</ele><time>2026-05-02T11:27:16.966Z</time></trkpt><trkpt lat="45.6487367" lon="11.0366447"><ele>1250.0</ele><time>2026-05-02T11:27:17.956Z</time></trkpt><trkpt lat="45.6487775" lon="11.036513"><ele>1250.0</ele><time>2026-05-02T11:27:18.968Z</time></trkpt><trkpt lat="45.6488208" lon="11.0363838"><ele>1250.0</ele><time>2026-05-02T11:27:19.968Z</time></trkpt><trkpt lat="45.6488564" lon="11.0362515"><ele>1250.0</ele><time>2026-05-02T11:27:20.963Z</time></trkpt><trkpt lat="45.6488717" lon="11.0361111"><ele>1250.0</ele><time>2026-05-02T11:27:21.969Z</time></trkpt><trkpt lat="45.6488599" lon="11.0359664"><ele>1250.0</ele><time>2026-05-02T11:27:22.961Z</time></trkpt><trkpt lat="45.6488324" lon="11.0358174"><ele>1247.4</ele><time>2026-05-02T11:27:23.961Z</time></trkpt><trkpt lat="45.6488136" lon="11.0356945"><ele>1244.8</ele><time>2026-05-02T11:27:24.966Z</time></trkpt><trkpt lat="45.6487948" lon="11.0355595"><ele>1242.2</ele><time>2026-05-02T11:27:25.97Z</time></trkpt><trkpt lat="45.6487713" lon="11.0354175"><ele>1239.6</ele><time>2026-05-02T11:27:26.961Z</time></trkpt><trkpt lat="45.6487461" lon="11.035276"><ele>1237.0</ele><time>2026-05-02T11:27:27.963Z</time></trkpt><trkpt lat="45.6487278" lon="11.0351325"><ele>1237.0</ele><time>2026-05-02T11:27:28.962Z</time></trkpt><trkpt lat="45.6487125" lon="11.0349871"><ele>1237.0</ele><time>2026-05-02T11:27:29.965Z</time></trkpt><trkpt lat="45.6487089" lon="11.034849"><ele>1237.0</ele><time>2026-05-02T11:27:30.965Z</time></trkpt><trkpt lat="45.648726" lon="11.0347315"><ele>1237.0</ele><time>2026-05-02T11:27:32.039Z</time></trkpt><trkpt lat="45.6487672" lon="11.034624"><ele>1237.0</ele><time>2026-05-02T11:27:32.965Z</time></trkpt><trkpt lat="45.6488335" lon="11.0345224"><ele>1234.4</ele><time>2026-05-02T11:27:33.96Z</time></trkpt><trkpt lat="45.6489063" lon="11.0344419"><ele>1231.8000000000002</ele><time>2026-05-02T11:27:34.966Z</time></trkpt><trkpt lat="45.6489835" lon="11.0343719"><ele>1229.2</ele><time>2026-05-02T11:27:35.97Z</time></trkpt><trkpt lat="45.6490496" lon="11.0343087"><ele>1226.6000000000001</ele><time>2026-05-02T11:27:36.982Z</time></trkpt><trkpt lat="45.6491002" lon="11.0341547"><ele>1224.0</ele><time>2026-05-02T11:27:38.966Z</time></trkpt><trkpt lat="45.6490668" lon="11.0340044"><ele>1223.3333333333333</ele><time>2026-05-02T11:27:40.974Z</time></trkpt><trkpt lat="45.6490141" lon="11.0339497"><ele>1222.6666666666667</ele><time>2026-05-02T11:27:41.956Z</time></trkpt><trkpt lat="45.6489492" lon="11.0339227"><ele>1222.0</ele><time>2026-05-02T11:27:42.97Z</time></trkpt><trkpt lat="45.6488727" lon="11.0339257"><ele>1221.3333333333335</ele><time>2026-05-02T11:27:43.957Z</time></trkpt><trkpt lat="45.6487777" lon="11.0339451"><ele>1220.6666666666667</ele><time>2026-05-02T11:27:44.969Z</time></trkpt><trkpt lat="45.6486705" lon="11.0339697"><ele>1220.0</ele><time>2026-05-02T11:27:45.966Z</time></trkpt><trkpt lat="45.6485569" lon="11.0339999"><ele>1220.0</ele><time>2026-05-02T11:27:46.963Z</time></trkpt><trkpt lat="45.6484321" lon="11.0340342"><ele>1220.0</ele><time>2026-05-02T11:27:47.966Z</time></trkpt><trkpt lat="45.6482986" lon="11.0340376"><ele>1220.0</ele><time>2026-05-02T11:27:48.964Z</time></trkpt><trkpt lat="45.6481756" lon="11.0340214"><ele>1220.0</ele><time>2026-05-02T11:27:49.974Z</time></trkpt><trkpt lat="45.6480472" lon="11.0339876"><ele>1220.0</ele><time>2026-05-02T11:27:50.962Z</time></trkpt><trkpt lat="45.6479119" lon="11.0339502"><ele>1220.0</ele><time>2026-05-02T11:27:51.969Z</time></trkpt><trkpt lat="45.647762" lon="11.0339064"><ele>1220.0</ele><time>2026-05-02T11:27:52.967Z</time></trkpt><trkpt lat="45.6476039" lon="11.0338412"><ele>1222.6666666666667</ele><time>2026-05-02T11:27:53.968Z</time></trkpt><trkpt lat="45.6474424" lon="11.0337658"><ele>1225.3333333333333</ele><time>2026-05-02T11:27:54.973Z</time></trkpt><trkpt lat="45.6472842" lon="11.0336799"><ele>1228.0</ele><time>2026-05-02T11:27:55.962Z</time></trkpt><trkpt lat="45.6471242" lon="11.0335876"><ele>1230.0</ele><time>2026-05-02T11:27:56.961Z</time></trkpt><trkpt lat="45.6469575" lon="11.0335006"><ele>1232.0</ele><time>2026-05-02T11:27:57.959Z</time></trkpt><trkpt lat="45.6467911" lon="11.0334243"><ele>1234.0</ele><time>2026-05-02T11:27:58.967Z</time></trkpt><trkpt lat="45.6466395" lon="11.0333607"><ele>1234.0</ele><time>2026-05-02T11:27:59.971Z</time></trkpt><trkpt lat="45.6464977" lon="11.0333142"><ele>1234.0</ele><time>2026-05-02T11:28:00.96Z</time></trkpt><trkpt lat="45.6463719" lon="11.033261"><ele>1234.0</ele><time>2026-05-02T11:28:01.975Z</time></trkpt><trkpt lat="45.646247" lon="11.0331929"><ele>1234.0</ele><time>2026-05-02T11:28:02.972Z</time></trkpt><trkpt lat="45.6461287" lon="11.0331162"><ele>1240.5</ele><time>2026-05-02T11:28:03.98Z</time></trkpt><trkpt lat="45.6460149" lon="11.033053"><ele>1247.0</ele><time>2026-05-02T11:28:04.963Z</time></trkpt><trkpt lat="45.6459005" lon="11.0330048"><ele>1253.5</ele><time>2026-05-02T11:28:05.965Z</time></trkpt><trkpt lat="45.6457858" lon="11.0329651"><ele>1260.0</ele><time>2026-05-02T11:28:06.978Z</time></trkpt><trkpt lat="45.6456733" lon="11.0329442"><ele>1260.0</ele><time>2026-05-02T11:28:07.972Z</time></trkpt><trkpt lat="45.6455575" lon="11.0329354"><ele>1260.0</ele><time>2026-05-02T11:28:08.977Z</time></trkpt><trkpt lat="45.6454305" lon="11.0329417"><ele>1260.0</ele><time>2026-05-02T11:28:09.971Z</time></trkpt><trkpt lat="45.6452954" lon="11.0329549"><ele>1260.0</ele><time>2026-05-02T11:28:10.972Z</time></trkpt><trkpt lat="45.6451557" lon="11.0329603"><ele>1261.6666666666667</ele><time>2026-05-02T11:28:11.959Z</time></trkpt><trkpt lat="45.6450133" lon="11.0329707"><ele>1263.3333333333335</ele><time>2026-05-02T11:28:12.963Z</time></trkpt><trkpt lat="45.6448638" lon="11.0329753"><ele>1265.0</ele><time>2026-05-02T11:28:13.962Z</time></trkpt><trkpt lat="45.6446967" lon="11.0329931"><ele>1265.0</ele><time>2026-05-02T11:28:14.963Z</time></trkpt><trkpt lat="45.6445179" lon="11.0330375"><ele>1265.0</ele><time>2026-05-02T11:28:15.961Z</time></trkpt><trkpt lat="45.6443428" lon="11.0330981"><ele>1265.0</ele><time>2026-05-02T11:28:16.971Z</time></trkpt><trkpt lat="45.6441832" lon="11.0331589"><ele>1267.0</ele><time>2026-05-02T11:28:17.962Z</time></trkpt><trkpt lat="45.6440391" lon="11.0332036"><ele>1269.0</ele><time>2026-05-02T11:28:18.969Z</time></trkpt><trkpt lat="45.6439152" lon="11.0332281"><ele>1271.0</ele><time>2026-05-02T11:28:20.044Z</time></trkpt><trkpt lat="45.6438172" lon="11.0332149"><ele>1273.0</ele><time>2026-05-02T11:28:20.963Z</time></trkpt><trkpt lat="45.6437421" lon="11.0331796"><ele>1273.0</ele><time>2026-05-02T11:28:21.965Z</time></trkpt><trkpt lat="45.6436813" lon="11.0331144"><ele>1273.0</ele><time>2026-05-02T11:28:22.975Z</time></trkpt><trkpt lat="45.6436096" lon="11.0330518"><ele>1273.0</ele><time>2026-05-02T11:28:24.048Z</time></trkpt><trkpt lat="45.6435332" lon="11.0330066"><ele>1273.0</ele><time>2026-05-02T11:28:25.037Z</time></trkpt><trkpt lat="45.6434313" lon="11.0329847"><ele>1273.0</ele><time>2026-05-02T11:28:25.962Z</time></trkpt><trkpt lat="45.6433118" lon="11.0330241"><ele>1271.75</ele><time>2026-05-02T11:28:26.966Z</time></trkpt><trkpt lat="45.6431897" lon="11.0331047"><ele>1270.5</ele><time>2026-05-02T11:28:27.964Z</time></trkpt><trkpt lat="45.6430731" lon="11.0331782"><ele>1269.25</ele><time>2026-05-02T11:28:29.01Z</time></trkpt><trkpt lat="45.642932" lon="11.0332282"><ele>1268.0</ele><time>2026-05-02T11:28:29.95Z</time></trkpt><trkpt lat="45.6427916" lon="11.0332602"><ele>1263.5</ele><time>2026-05-02T11:28:30.956Z</time></trkpt><trkpt lat="45.6426567" lon="11.0332616"><ele>1259.0</ele><time>2026-05-02T11:28:31.984Z</time></trkpt><trkpt lat="45.6425312" lon="11.0332484"><ele>1254.5</ele><time>2026-05-02T11:28:32.952Z</time></trkpt><trkpt lat="45.6424229" lon="11.033254"><ele>1250.0</ele><time>2026-05-02T11:28:33.959Z</time></trkpt><trkpt lat="45.6423145" lon="11.033267"><ele>1250.0</ele><time>2026-05-02T11:28:34.961Z</time></trkpt><trkpt lat="45.6421943" lon="11.0332691"><ele>1250.0</ele><time>2026-05-02T11:28:35.945Z</time></trkpt><trkpt lat="45.6420634" lon="11.0332648"><ele>1250.0</ele><time>2026-05-02T11:28:36.961Z</time></trkpt><trkpt lat="45.6419374" lon="11.0332511"><ele>1250.0</ele><time>2026-05-02T11:28:37.962Z</time></trkpt><trkpt lat="45.6418215" lon="11.03323"><ele>1248.8</ele><time>2026-05-02T11:28:38.97Z</time></trkpt><trkpt lat="45.6417188" lon="11.0332325"><ele>1247.6</ele><time>2026-05-02T11:28:39.973Z</time></trkpt><trkpt lat="45.6416289" lon="11.0332732"><ele>1246.4</ele><time>2026-05-02T11:28:40.972Z</time></trkpt><trkpt lat="45.6415584" lon="11.0333577"><ele>1245.2</ele><time>2026-05-02T11:28:41.968Z</time></trkpt><trkpt lat="45.6414792" lon="11.0334556"><ele>1244.0</ele><time>2026-05-02T11:28:43.055Z</time></trkpt><trkpt lat="45.6413956" lon="11.0335411"><ele>1244.0</ele><time>2026-05-02T11:28:43.968Z</time></trkpt><trkpt lat="45.6413133" lon="11.033628"><ele>1244.0</ele><time>2026-05-02T11:28:44.976Z</time></trkpt><trkpt lat="45.6412246" lon="11.0336934"><ele>1244.0</ele><time>2026-05-02T11:28:45.965Z</time></trkpt><trkpt lat="45.6411171" lon="11.0337431"><ele>1244.0</ele><time>2026-05-02T11:28:46.969Z</time></trkpt><trkpt lat="45.6409973" lon="11.0337568"><ele>1244.0</ele><time>2026-05-02T11:28:47.97Z</time></trkpt><trkpt lat="45.6408875" lon="11.0337339"><ele>1240.25</ele><time>2026-05-02T11:28:48.964Z</time></trkpt><trkpt lat="45.6407787" lon="11.0336927"><ele>1236.5</ele><time>2026-05-02T11:28:49.966Z</time></trkpt><trkpt lat="45.6406641" lon="11.0336559"><ele>1232.75</ele><time>2026-05-02T11:28:50.964Z</time></trkpt><trkpt lat="45.6405462" lon="11.0336181"><ele>1229.0</ele><time>2026-05-02T11:28:52.027Z</time></trkpt><trkpt lat="45.6404253" lon="11.0335669"><ele>1229.0</ele><time>2026-05-02T11:28:52.952Z</time></trkpt><trkpt lat="45.6403048" lon="11.033514"><ele>1229.0</ele><time>2026-05-02T11:28:53.957Z</time></trkpt><trkpt lat="45.640179" lon="11.0334496"><ele>1229.0</ele><time>2026-05-02T11:28:55.04Z</time></trkpt><trkpt lat="45.6400583" lon="11.0333932"><ele>1229.0</ele><time>2026-05-02T11:28:55.961Z</time></trkpt><trkpt lat="45.6399416" lon="11.0333544"><ele>1226.8</ele><time>2026-05-02T11:28:56.96Z</time></trkpt><trkpt lat="45.6398353" lon="11.0333247"><ele>1224.6000000000001</ele><time>2026-05-02T11:28:57.965Z</time></trkpt><trkpt lat="45.6397315" lon="11.0333498"><ele>1222.4</ele><time>2026-05-02T11:28:58.96Z</time></trkpt><trkpt lat="45.6396334" lon="11.0334253"><ele>1220.2</ele><time>2026-05-02T11:28:59.969Z</time></trkpt><trkpt lat="45.6395381" lon="11.0335207"><ele>1218.0</ele><time>2026-05-02T11:29:00.96Z</time></trkpt><trkpt lat="45.6394478" lon="11.0336032"><ele>1217.2</ele><time>2026-05-02T11:29:01.945Z</time></trkpt><trkpt lat="45.6393525" lon="11.0336384"><ele>1216.4</ele><time>2026-05-02T11:29:02.947Z</time></trkpt><trkpt lat="45.6392705" lon="11.0336008"><ele>1215.6000000000001</ele><time>2026-05-02T11:29:03.968Z</time></trkpt><trkpt lat="45.63918" lon="11.0335382"><ele>1214.8</ele><time>2026-05-02T11:29:04.963Z</time></trkpt><trkpt lat="45.6390856" lon="11.0334569"><ele>1214.0</ele><time>2026-05-02T11:29:05.957Z</time></trkpt><trkpt lat="45.6389804" lon="11.0333664"><ele>1207.75</ele><time>2026-05-02T11:29:06.971Z</time></trkpt><trkpt lat="45.6388699" lon="11.0332825"><ele>1201.5</ele><time>2026-05-02T11:29:07.961Z</time></trkpt><trkpt lat="45.6387627" lon="11.0331984"><ele>1195.25</ele><time>2026-05-02T11:29:08.975Z</time></trkpt><trkpt lat="45.6386502" lon="11.0331368"><ele>1189.0</ele><time>2026-05-02T11:29:09.962Z</time></trkpt><trkpt lat="45.6385335" lon="11.0330798"><ele>1188.25</ele><time>2026-05-02T11:29:10.965Z</time></trkpt><trkpt lat="45.6384082" lon="11.0330504"><ele>1187.5</ele><time>2026-05-02T11:29:11.969Z</time></trkpt><trkpt lat="45.6382892" lon="11.0330451"><ele>1186.75</ele><time>2026-05-02T11:29:12.961Z</time></trkpt><trkpt lat="45.6381735" lon="11.0330538"><ele>1186.0</ele><time>2026-05-02T11:29:13.964Z</time></trkpt><trkpt lat="45.638047" lon="11.0330727"><ele>1186.0</ele><time>2026-05-02T11:29:14.967Z</time></trkpt><trkpt lat="45.6379192" lon="11.0330895"><ele>1186.0</ele><time>2026-05-02T11:29:15.97Z</time></trkpt><trkpt lat="45.6377884" lon="11.0331052"><ele>1186.0</ele><time>2026-05-02T11:29:16.962Z</time></trkpt><trkpt lat="45.6376542" lon="11.0331199"><ele>1186.0</ele><time>2026-05-02T11:29:17.968Z</time></trkpt><trkpt lat="45.6375181" lon="11.0331366"><ele>1184.2</ele><time>2026-05-02T11:29:18.968Z</time></trkpt><trkpt lat="45.6373997" lon="11.03316"><ele>1182.3999999999999</ele><time>2026-05-02T11:29:19.961Z</time></trkpt><trkpt lat="45.6373243" lon="11.0332421"><ele>1180.6</ele><time>2026-05-02T11:29:20.957Z</time></trkpt><trkpt lat="45.637282" lon="11.0333363"><ele>1178.8</ele><time>2026-05-02T11:29:21.962Z</time></trkpt><trkpt lat="45.6372572" lon="11.0334584"><ele>1177.0</ele><time>2026-05-02T11:29:22.966Z</time></trkpt><trkpt lat="45.6372504" lon="11.0336046"><ele>1183.25</ele><time>2026-05-02T11:29:23.971Z</time></trkpt><trkpt lat="45.6372648" lon="11.0337755"><ele>1189.5</ele><time>2026-05-02T11:29:24.968Z</time></trkpt><trkpt lat="45.6372837" lon="11.0339495"><ele>1195.75</ele><time>2026-05-02T11:29:25.962Z</time></trkpt><trkpt lat="45.6373064" lon="11.0341196"><ele>1202.0</ele><time>2026-05-02T11:29:26.949Z</time></trkpt><trkpt lat="45.6373261" lon="11.0342721"><ele>1203.1666666666667</ele><time>2026-05-02T11:29:27.974Z</time></trkpt><trkpt lat="45.6373481" lon="11.0344011"><ele>1204.3333333333335</ele><time>2026-05-02T11:29:28.971Z</time></trkpt><trkpt lat="45.6373626" lon="11.0344952"><ele>1205.5</ele><time>2026-05-02T11:29:29.967Z</time></trkpt><trkpt lat="45.6373242" lon="11.0345845"><ele>1206.6666666666667</ele><time>2026-05-02T11:29:31.964Z</time></trkpt><trkpt lat="45.6372535" lon="11.0345176"><ele>1207.8333333333333</ele><time>2026-05-02T11:29:33.967Z</time></trkpt><trkpt lat="45.637228" lon="11.0344273"><ele>1209.0</ele><time>2026-05-02T11:29:34.975Z</time></trkpt><trkpt lat="45.6371956" lon="11.0343372"><ele>1209.0</ele><time>2026-05-02T11:29:35.974Z</time></trkpt><trkpt lat="45.6371536" lon="11.0342251"><ele>1209.0</ele><time>2026-05-02T11:29:36.974Z</time></trkpt><trkpt lat="45.6370912" lon="11.0340938"><ele>1209.0</ele><time>2026-05-02T11:29:37.994Z</time></trkpt><trkpt lat="45.6370059" lon="11.0339437"><ele>1209.0</ele><time>2026-05-02T11:29:38.96Z</time></trkpt><trkpt lat="45.6369205" lon="11.0337831"><ele>1200.5</ele><time>2026-05-02T11:29:39.965Z</time></trkpt><trkpt lat="45.6368403" lon="11.0336378"><ele>1192.0</ele><time>2026-05-02T11:29:40.97Z</time></trkpt><trkpt lat="45.6367655" lon="11.0334887"><ele>1183.5</ele><time>2026-05-02T11:29:41.961Z</time></trkpt><trkpt lat="45.6367055" lon="11.0333316"><ele>1175.0</ele><time>2026-05-02T11:29:42.962Z</time></trkpt><trkpt lat="45.636648" lon="11.0331647"><ele>1173.25</ele><time>2026-05-02T11:29:43.979Z</time></trkpt><trkpt lat="45.6366191" lon="11.0329955"><ele>1171.5</ele><time>2026-05-02T11:29:44.974Z</time></trkpt><trkpt lat="45.6366197" lon="11.0328299"><ele>1169.75</ele><time>2026-05-02T11:29:45.949Z</time></trkpt><trkpt lat="45.6366462" lon="11.0326637"><ele>1168.0</ele><time>2026-05-02T11:29:46.96Z</time></trkpt><trkpt lat="45.636692" lon="11.032516"><ele>1164.5</ele><time>2026-05-02T11:29:47.977Z</time></trkpt><trkpt lat="45.6367479" lon="11.0323751"><ele>1161.0</ele><time>2026-05-02T11:29:48.966Z</time></trkpt><trkpt lat="45.63683" lon="11.0322652"><ele>1157.5</ele><time>2026-05-02T11:29:49.978Z</time></trkpt><trkpt lat="45.6369225" lon="11.0321701"><ele>1154.0</ele><time>2026-05-02T11:29:50.971Z</time></trkpt><trkpt lat="45.637019" lon="11.0320802"><ele>1154.0</ele><time>2026-05-02T11:29:51.967Z</time></trkpt><trkpt lat="45.6371397" lon="11.0319834"><ele>1154.0</ele><time>2026-05-02T11:29:53.056Z</time></trkpt><trkpt lat="45.6372622" lon="11.0318823"><ele>1154.0</ele><time>2026-05-02T11:29:54.05Z</time></trkpt><trkpt lat="45.6373937" lon="11.0317922"><ele>1154.0</ele><time>2026-05-02T11:29:55.006Z</time></trkpt><trkpt lat="45.6375232" lon="11.0316964"><ele>1152.0</ele><time>2026-05-02T11:29:55.993Z</time></trkpt><trkpt lat="45.6376511" lon="11.0316092"><ele>1150.0</ele><time>2026-05-02T11:29:56.946Z</time></trkpt><trkpt lat="45.6377806" lon="11.0315221"><ele>1148.0</ele><time>2026-05-02T11:29:57.965Z</time></trkpt><trkpt lat="45.6378975" lon="11.0314338"><ele>1146.0</ele><time>2026-05-02T11:29:58.956Z</time></trkpt><trkpt lat="45.6380071" lon="11.0313483"><ele>1146.0</ele><time>2026-05-02T11:29:59.964Z</time></trkpt><trkpt lat="45.6381018" lon="11.0312696"><ele>1146.0</ele><time>2026-05-02T11:30:00.969Z</time></trkpt><trkpt lat="45.6381802" lon="11.0312123"><ele>1146.0</ele><time>2026-05-02T11:30:01.961Z</time></trkpt><trkpt lat="45.6382434" lon="11.0311587"><ele>1146.0</ele><time>2026-05-02T11:30:02.965Z</time></trkpt><trkpt lat="45.6383035" lon="11.0310443"><ele>1146.0</ele><time>2026-05-02T11:30:04.975Z</time></trkpt><trkpt lat="45.6382675" lon="11.0309457"><ele>1146.0</ele><time>2026-05-02T11:30:06.972Z</time></trkpt><trkpt lat="45.6382018" lon="11.0309634"><ele>1146.0</ele><time>2026-05-02T11:30:08.97Z</time></trkpt><trkpt lat="45.6381476" lon="11.0310182"><ele>1146.0</ele><time>2026-05-02T11:30:11.956Z</time></trkpt><trkpt lat="45.6381608" lon="11.0309028"><ele>1146.0</ele><time>2026-05-02T11:30:15.965Z</time></trkpt><trkpt lat="45.6380847" lon="11.0308178"><ele>1146.0</ele><time>2026-05-02T11:30:18.967Z</time></trkpt><trkpt lat="45.6379717" lon="11.0308386"><ele>1146.0</ele><time>2026-05-02T11:30:20.983Z</time></trkpt><trkpt lat="45.6378594" lon="11.0308548"><ele>1145.3999999999999</ele><time>2026-05-02T11:30:22.977Z</time></trkpt><trkpt lat="45.6377449" lon="11.0308779"><ele>1144.8</ele><time>2026-05-02T11:30:24.99Z</time></trkpt><trkpt lat="45.6376336" lon="11.0308982"><ele>1144.1999999999998</ele><time>2026-05-02T11:30:27.049Z</time></trkpt><trkpt lat="45.6375379" lon="11.0309096"><ele>1143.6</ele><time>2026-05-02T11:30:29.037Z</time></trkpt><trkpt lat="45.6374538" lon="11.0309184"><ele>1143.0</ele><time>2026-05-02T11:30:30.961Z</time></trkpt><trkpt lat="45.6373616" lon="11.0309105"><ele>1143.0</ele><time>2026-05-02T11:30:33.048Z</time></trkpt><trkpt lat="45.6372588" lon="11.0309016"><ele>1143.0</ele><time>2026-05-02T11:30:34.995Z</time></trkpt><trkpt lat="45.6371556" lon="11.0308628"><ele>1143.0</ele><time>2026-05-02T11:30:36.974Z</time></trkpt><trkpt lat="45.6370531" lon="11.0308105"><ele>1143.0</ele><time>2026-05-02T11:30:38.977Z</time></trkpt><trkpt lat="45.6369439" lon="11.030784"><ele>1143.0</ele><time>2026-05-02T11:30:40.989Z</time></trkpt><trkpt lat="45.6368342" lon="11.0307544"><ele>1142.75</ele><time>2026-05-02T11:30:43.053Z</time></trkpt><trkpt lat="45.636728" lon="11.0307051"><ele>1142.5</ele><time>2026-05-02T11:30:44.961Z</time></trkpt><trkpt lat="45.6366157" lon="11.030658"><ele>1142.25</ele><time>2026-05-02T11:30:46.969Z</time></trkpt><trkpt lat="45.6365034" lon="11.0306002"><ele>1142.0</ele><time>2026-05-02T11:30:48.959Z</time></trkpt><trkpt lat="45.6364006" lon="11.0305737"><ele>1142.0</ele><time>2026-05-02T11:30:50.961Z</time></trkpt><trkpt lat="45.6363319" lon="11.0305567"><ele>1142.0</ele><time>2026-05-02T11:30:52.961Z</time></trkpt><trkpt lat="45.6362375" lon="11.030542"><ele>1142.0</ele><time>2026-05-02T11:30:55.974Z</time></trkpt><trkpt lat="45.6361525" lon="11.0305167"><ele>1142.0</ele><time>2026-05-02T11:30:58.972Z</time></trkpt><trkpt lat="45.6360911" lon="11.0304878"><ele>1142.0</ele><time>2026-05-02T11:31:04.04Z</time></trkpt><trkpt lat="45.6360085" lon="11.0304505"><ele>1142.0</ele><time>2026-05-02T11:31:06.957Z</time></trkpt><trkpt lat="45.6358873" lon="11.030397"><ele>1137.0</ele><time>2026-05-02T11:31:08.96Z</time></trkpt><trkpt lat="45.6358239" lon="11.0303817"><ele>1132.0</ele><time>2026-05-02T11:31:09.956Z</time></trkpt><trkpt lat="45.6357286" lon="11.0303779"><ele>1127.0</ele><time>2026-05-02T11:31:11.955Z</time></trkpt><trkpt lat="45.6356015" lon="11.0303433"><ele>1122.0</ele><time>2026-05-02T11:31:13.958Z</time></trkpt><trkpt lat="45.6355428" lon="11.0303037"><ele>1117.0</ele><time>2026-05-02T11:31:14.962Z</time></trkpt><trkpt lat="45.6354688" lon="11.0302588"><ele>1112.0</ele><time>2026-05-02T11:31:15.96Z</time></trkpt><trkpt lat="45.6353915" lon="11.0302175"><ele>1112.0</ele><time>2026-05-02T11:31:16.961Z</time></trkpt><trkpt lat="45.635312" lon="11.0301729"><ele>1112.0</ele><time>2026-05-02T11:31:17.982Z</time></trkpt><trkpt lat="45.6352365" lon="11.0301386"><ele>1112.0</ele><time>2026-05-02T11:31:18.985Z</time></trkpt><trkpt lat="45.6351539" lon="11.0300896"><ele>1112.0</ele><time>2026-05-02T11:31:19.971Z</time></trkpt><trkpt lat="45.6350758" lon="11.0300289"><ele>1112.0</ele><time>2026-05-02T11:31:20.955Z</time></trkpt><trkpt lat="45.6350088" lon="11.0299722"><ele>1112.0</ele><time>2026-05-02T11:31:21.96Z</time></trkpt><trkpt lat="45.6349146" lon="11.0298989"><ele>1108.4</ele><time>2026-05-02T11:31:23.943Z</time></trkpt><trkpt lat="45.6347995" lon="11.0299274"><ele>1104.8000000000002</ele><time>2026-05-02T11:31:25.965Z</time></trkpt><trkpt lat="45.634748" lon="11.0299994"><ele>1101.2</ele><time>2026-05-02T11:31:26.963Z</time></trkpt><trkpt lat="45.6346877" lon="11.0300489"><ele>1097.6000000000001</ele><time>2026-05-02T11:31:27.978Z</time></trkpt><trkpt lat="45.6346188" lon="11.0300647"><ele>1094.0</ele><time>2026-05-02T11:31:28.951Z</time></trkpt><trkpt lat="45.6344875" lon="11.0300594"><ele>1092.5</ele><time>2026-05-02T11:31:30.949Z</time></trkpt><trkpt lat="45.6344155" lon="11.0300587"><ele>1091.0</ele><time>2026-05-02T11:31:32.023Z</time></trkpt><trkpt lat="45.6343502" lon="11.030056"><ele>1089.5</ele><time>2026-05-02T11:31:32.943Z</time></trkpt><trkpt lat="45.6342855" lon="11.0300702"><ele>1088.0</ele><time>2026-05-02T11:31:33.953Z</time></trkpt><trkpt lat="45.6341716" lon="11.0301242"><ele>1086.5</ele><time>2026-05-02T11:31:35.972Z</time></trkpt><trkpt lat="45.634088" lon="11.0300874"><ele>1085.0</ele><time>2026-05-02T11:31:38.031Z</time></trkpt><trkpt lat="45.634057" lon="11.0299569"><ele>1084.5</ele><time>2026-05-02T11:31:39.972Z</time></trkpt><trkpt lat="45.6341154" lon="11.0298847"><ele>1084.0</ele><time>2026-05-02T11:31:41.966Z</time></trkpt><trkpt lat="45.6342244" lon="11.0298503"><ele>1083.5</ele><time>2026-05-02T11:31:43.965Z</time></trkpt><trkpt lat="45.6342786" lon="11.0297917"><ele>1083.0</ele><time>2026-05-02T11:31:44.964Z</time></trkpt><trkpt lat="45.6343278" lon="11.0297229"><ele>1082.5</ele><time>2026-05-02T11:31:45.975Z</time></trkpt><trkpt lat="45.6343625" lon="11.0296475"><ele>1082.0</ele><time>2026-05-02T11:31:46.968Z</time></trkpt><trkpt lat="45.634423" lon="11.0295146"><ele>1083.6</ele><time>2026-05-02T11:31:48.971Z</time></trkpt><trkpt lat="45.6345249" lon="11.0294948"><ele>1085.2</ele><time>2026-05-02T11:31:50.964Z</time></trkpt><trkpt lat="45.6346408" lon="11.029429"><ele>1086.8</ele><time>2026-05-02T11:31:52.956Z</time></trkpt><trkpt lat="45.6347065" lon="11.0293743"><ele>1088.4</ele><time>2026-05-02T11:31:54.053Z</time></trkpt><trkpt lat="45.6347604" lon="11.0293083"><ele>1090.0</ele><time>2026-05-02T11:31:55.05Z</time></trkpt><trkpt lat="45.6348064" lon="11.0292216"><ele>1090.3333333333333</ele><time>2026-05-02T11:31:55.975Z</time></trkpt><trkpt lat="45.6348273" lon="11.0291066"><ele>1090.6666666666665</ele><time>2026-05-02T11:31:57.05Z</time></trkpt><trkpt lat="45.6348219" lon="11.0289747"><ele>1091.0</ele><time>2026-05-02T11:31:58.001Z</time></trkpt><trkpt lat="45.6348142" lon="11.0288524"><ele>1091.3333333333333</ele><time>2026-05-02T11:31:59.032Z</time></trkpt><trkpt lat="45.6348072" lon="11.0287291"><ele>1091.6666666666667</ele><time>2026-05-02T11:32:00.034Z</time></trkpt><trkpt lat="45.6347943" lon="11.0285962"><ele>1092.0</ele><time>2026-05-02T11:32:00.97Z</time></trkpt><trkpt lat="45.6347946" lon="11.0284603"><ele>1092.0</ele><time>2026-05-02T11:32:02.051Z</time></trkpt><trkpt lat="45.6347929" lon="11.0283204"><ele>1092.0</ele><time>2026-05-02T11:32:03.046Z</time></trkpt><trkpt lat="45.6348067" lon="11.0281783"><ele>1092.0</ele><time>2026-05-02T11:32:04.056Z</time></trkpt><trkpt lat="45.6348186" lon="11.0280387"><ele>1092.0</ele><time>2026-05-02T11:32:05.037Z</time></trkpt><trkpt lat="45.6348285" lon="11.0279032"><ele>1092.0</ele><time>2026-05-02T11:32:05.967Z</time></trkpt><trkpt lat="45.6348385" lon="11.0277584"><ele>1091.8</ele><time>2026-05-02T11:32:06.975Z</time></trkpt><trkpt lat="45.6348507" lon="11.0276195"><ele>1091.6</ele><time>2026-05-02T11:32:07.988Z</time></trkpt><trkpt lat="45.6348726" lon="11.0274884"><ele>1091.3999999999999</ele><time>2026-05-02T11:32:09.054Z</time></trkpt><trkpt lat="45.6348961" lon="11.0273561"><ele>1091.2</ele><time>2026-05-02T11:32:10.039Z</time></trkpt><trkpt lat="45.6349193" lon="11.027216"><ele>1091.0</ele><time>2026-05-02T11:32:10.965Z</time></trkpt><trkpt lat="45.6349436" lon="11.0270754"><ele>1089.6</ele><time>2026-05-02T11:32:12.029Z</time></trkpt><trkpt lat="45.6349726" lon="11.0269352"><ele>1088.1999999999998</ele><time>2026-05-02T11:32:13.05Z</time></trkpt><trkpt lat="45.6350054" lon="11.0267932"><ele>1086.8000000000002</ele><time>2026-05-02T11:32:14.031Z</time></trkpt><trkpt lat="45.6350519" lon="11.0266536"><ele>1085.4</ele><time>2026-05-02T11:32:15.032Z</time></trkpt><trkpt lat="45.6351096" lon="11.0265115"><ele>1084.0</ele><time>2026-05-02T11:32:15.98Z</time></trkpt><trkpt lat="45.6351676" lon="11.0263678"><ele>1082.75</ele><time>2026-05-02T11:32:16.981Z</time></trkpt><trkpt lat="45.635219" lon="11.0262113"><ele>1081.5</ele><time>2026-05-02T11:32:18.002Z</time></trkpt><trkpt lat="45.6352658" lon="11.0260627"><ele>1080.25</ele><time>2026-05-02T11:32:19.035Z</time></trkpt><trkpt lat="45.6353073" lon="11.0259076"><ele>1079.0</ele><time>2026-05-02T11:32:20.036Z</time></trkpt><trkpt lat="45.635347" lon="11.0257443"><ele>1081.5</ele><time>2026-05-02T11:32:20.975Z</time></trkpt><trkpt lat="45.6353905" lon="11.0255696"><ele>1084.0</ele><time>2026-05-02T11:32:21.978Z</time></trkpt><trkpt lat="45.6354328" lon="11.0253953"><ele>1086.5</ele><time>2026-05-02T11:32:22.974Z</time></trkpt><trkpt lat="45.6354789" lon="11.0252185"><ele>1089.0</ele><time>2026-05-02T11:32:23.975Z</time></trkpt><trkpt lat="45.6355287" lon="11.0250617"><ele>1089.4</ele><time>2026-05-02T11:32:24.97Z</time></trkpt><trkpt lat="45.6355806" lon="11.0249249"><ele>1089.8000000000002</ele><time>2026-05-02T11:32:25.974Z</time></trkpt><trkpt lat="45.6356354" lon="11.0247919"><ele>1090.1999999999998</ele><time>2026-05-02T11:32:26.97Z</time></trkpt><trkpt lat="45.6356741" lon="11.02466"><ele>1090.6</ele><time>2026-05-02T11:32:27.975Z</time></trkpt><trkpt lat="45.6356959" lon="11.024527"><ele>1091.0</ele><time>2026-05-02T11:32:28.971Z</time></trkpt><trkpt lat="45.6356915" lon="11.0243765"><ele>1091.0</ele><time>2026-05-02T11:32:29.973Z</time></trkpt><trkpt lat="45.6356668" lon="11.0242198"><ele>1091.0</ele><time>2026-05-02T11:32:30.976Z</time></trkpt><trkpt lat="45.6356303" lon="11.0240585"><ele>1091.0</ele><time>2026-05-02T11:32:31.972Z</time></trkpt><trkpt lat="45.6356034" lon="11.0238746"><ele>1091.0</ele><time>2026-05-02T11:32:32.968Z</time></trkpt><trkpt lat="45.6355904" lon="11.0236726"><ele>1092.25</ele><time>2026-05-02T11:32:33.957Z</time></trkpt><trkpt lat="45.6355817" lon="11.0234399"><ele>1093.5</ele><time>2026-05-02T11:32:34.968Z</time></trkpt><trkpt lat="45.6355742" lon="11.0232321"><ele>1094.75</ele><time>2026-05-02T11:32:35.969Z</time></trkpt><trkpt lat="45.6355654" lon="11.0230392"><ele>1096.0</ele><time>2026-05-02T11:32:36.969Z</time></trkpt><trkpt lat="45.6355617" lon="11.0228624"><ele>1096.0</ele><time>2026-05-02T11:32:37.97Z</time></trkpt><trkpt lat="45.6355615" lon="11.0226992"><ele>1096.0</ele><time>2026-05-02T11:32:38.977Z</time></trkpt><trkpt lat="45.6355711" lon="11.022537"><ele>1096.0</ele><time>2026-05-02T11:32:39.979Z</time></trkpt><trkpt lat="45.6355762" lon="11.0223806"><ele>1096.0</ele><time>2026-05-02T11:32:40.973Z</time></trkpt><trkpt lat="45.6355663" lon="11.0222314"><ele>1096.0</ele><time>2026-05-02T11:32:41.973Z</time></trkpt><trkpt lat="45.6355252" lon="11.0221002"><ele>1098.5</ele><time>2026-05-02T11:32:42.969Z</time></trkpt><trkpt lat="45.6354598" lon="11.0219704"><ele>1101.0</ele><time>2026-05-02T11:32:43.976Z</time></trkpt><trkpt lat="45.6353945" lon="11.0218365"><ele>1103.5</ele><time>2026-05-02T11:32:44.967Z</time></trkpt><trkpt lat="45.6353462" lon="11.0216956"><ele>1106.0</ele><time>2026-05-02T11:32:45.974Z</time></trkpt><trkpt lat="45.6353063" lon="11.0215315"><ele>1096.0</ele><time>2026-05-02T11:32:46.976Z</time></trkpt><trkpt lat="45.6352646" lon="11.0213572"><ele>1086.0</ele><time>2026-05-02T11:32:47.973Z</time></trkpt><trkpt lat="45.6352223" lon="11.0211833"><ele>1076.0</ele><time>2026-05-02T11:32:48.978Z</time></trkpt><trkpt lat="45.6351789" lon="11.0210212"><ele>1066.0</ele><time>2026-05-02T11:32:49.967Z</time></trkpt><trkpt lat="45.6351442" lon="11.0208723"><ele>1066.0</ele><time>2026-05-02T11:32:50.958Z</time></trkpt><trkpt lat="45.6351167" lon="11.0207249"><ele>1066.0</ele><time>2026-05-02T11:32:51.967Z</time></trkpt><trkpt lat="45.6350942" lon="11.0205568"><ele>1066.0</ele><time>2026-05-02T11:32:52.97Z</time></trkpt><trkpt lat="45.6350763" lon="11.0203892"><ele>1066.0</ele><time>2026-05-02T11:32:53.968Z</time></trkpt><trkpt lat="45.6350661" lon="11.0202275"><ele>1066.0</ele><time>2026-05-02T11:32:54.972Z</time></trkpt><trkpt lat="45.6350631" lon="11.0200804"><ele>1066.0</ele><time>2026-05-02T11:32:55.972Z</time></trkpt><trkpt lat="45.6350582" lon="11.0199417"><ele>1066.0</ele><time>2026-05-02T11:32:56.971Z</time></trkpt><trkpt lat="45.6350518" lon="11.0198067"><ele>1066.0</ele><time>2026-05-02T11:32:57.973Z</time></trkpt><trkpt lat="45.6350446" lon="11.0196669"><ele>1066.0</ele><time>2026-05-02T11:32:58.95Z</time></trkpt><trkpt lat="45.6350471" lon="11.0195376"><ele>1065.3333333333333</ele><time>2026-05-02T11:32:59.952Z</time></trkpt><trkpt lat="45.6350614" lon="11.0194272"><ele>1064.6666666666665</ele><time>2026-05-02T11:33:00.967Z</time></trkpt><trkpt lat="45.6350899" lon="11.0193294"><ele>1064.0</ele><time>2026-05-02T11:33:01.965Z</time></trkpt><trkpt lat="45.6351243" lon="11.0192366"><ele>1063.3333333333333</ele><time>2026-05-02T11:33:02.972Z</time></trkpt><trkpt lat="45.6351633" lon="11.0191484"><ele>1062.6666666666667</ele><time>2026-05-02T11:33:03.959Z</time></trkpt><trkpt lat="45.6352048" lon="11.0190685"><ele>1062.0</ele><time>2026-05-02T11:33:04.968Z</time></trkpt><trkpt lat="45.6352734" lon="11.0189455"><ele>1067.8333333333333</ele><time>2026-05-02T11:33:06.973Z</time></trkpt><trkpt lat="45.635337" lon="11.0188383"><ele>1073.6666666666667</ele><time>2026-05-02T11:33:08.972Z</time></trkpt><trkpt lat="45.6353952" lon="11.0187272"><ele>1079.5</ele><time>2026-05-02T11:33:10.977Z</time></trkpt><trkpt lat="45.635399" lon="11.0186372"><ele>1085.3333333333335</ele><time>2026-05-02T11:33:11.971Z</time></trkpt><trkpt lat="45.635393" lon="11.0185455"><ele>1091.1666666666667</ele><time>2026-05-02T11:33:12.966Z</time></trkpt><trkpt lat="45.6353854" lon="11.0184528"><ele>1097.0</ele><time>2026-05-02T11:33:13.974Z</time></trkpt><trkpt lat="45.6353789" lon="11.0183613"><ele>1095.6666666666667</ele><time>2026-05-02T11:33:14.971Z</time></trkpt><trkpt lat="45.635368" lon="11.0182654"><ele>1094.3333333333335</ele><time>2026-05-02T11:33:15.985Z</time></trkpt><trkpt lat="45.6353537" lon="11.0181725"><ele>1093.0</ele><time>2026-05-02T11:33:16.979Z</time></trkpt><trkpt lat="45.6353517" lon="11.0180808"><ele>1091.6666666666667</ele><time>2026-05-02T11:33:17.975Z</time></trkpt><trkpt lat="45.635359" lon="11.0179898"><ele>1090.3333333333333</ele><time>2026-05-02T11:33:18.979Z</time></trkpt><trkpt lat="45.6353991" lon="11.0178032"><ele>1089.0</ele><time>2026-05-02T11:33:20.975Z</time></trkpt><trkpt lat="45.6354124" lon="11.0177063"><ele>1089.0</ele><time>2026-05-02T11:33:21.97Z</time></trkpt><trkpt lat="45.6354297" lon="11.0176136"><ele>1089.0</ele><time>2026-05-02T11:33:22.98Z</time></trkpt><trkpt lat="45.6354573" lon="11.0175279"><ele>1089.0</ele><time>2026-05-02T11:33:23.971Z</time></trkpt><trkpt lat="45.6354967" lon="11.0174213"><ele>1089.0</ele><time>2026-05-02T11:33:25.974Z</time></trkpt><trkpt lat="45.6355344" lon="11.0173275"><ele>1089.0</ele><time>2026-05-02T11:33:28.986Z</time></trkpt><trkpt lat="45.6355844" lon="11.01722"><ele>1089.0</ele><time>2026-05-02T11:33:32.97Z</time></trkpt><trkpt lat="45.6356217" lon="11.017139"><ele>1085.4</ele><time>2026-05-02T11:33:34.967Z</time></trkpt><trkpt lat="45.6356814" lon="11.0170357"><ele>1081.8000000000002</ele><time>2026-05-02T11:33:36.98Z</time></trkpt><trkpt lat="45.6357267" lon="11.0169608"><ele>1078.1999999999998</ele><time>2026-05-02T11:33:37.995Z</time></trkpt><trkpt lat="45.6358009" lon="11.0168217"><ele>1074.6</ele><time>2026-05-02T11:33:39.975Z</time></trkpt><trkpt lat="45.635872" lon="11.0166818"><ele>1071.0</ele><time>2026-05-02T11:33:41.962Z</time></trkpt><trkpt lat="45.6359386" lon="11.0165584"><ele>1072.6</ele><time>2026-05-02T11:33:43.969Z</time></trkpt><trkpt lat="45.6360155" lon="11.0164111"><ele>1074.1999999999998</ele><time>2026-05-02T11:33:45.979Z</time></trkpt><trkpt lat="45.6360603" lon="11.0163301"><ele>1075.8000000000002</ele><time>2026-05-02T11:33:46.981Z</time></trkpt><trkpt lat="45.6361065" lon="11.0162563"><ele>1077.4</ele><time>2026-05-02T11:33:47.988Z</time></trkpt><trkpt lat="45.636143" lon="11.0161817"><ele>1079.0</ele><time>2026-05-02T11:33:48.969Z</time></trkpt><trkpt lat="45.6362263" lon="11.0160457"><ele>1079.0</ele><time>2026-05-02T11:33:50.962Z</time></trkpt><trkpt lat="45.6362757" lon="11.0159836"><ele>1079.0</ele><time>2026-05-02T11:33:51.961Z</time></trkpt><trkpt lat="45.6363305" lon="11.0159204"><ele>1079.0</ele><time>2026-05-02T11:33:52.971Z</time></trkpt><trkpt lat="45.6363985" lon="11.0158622"><ele>1079.0</ele><time>2026-05-02T11:33:53.98Z</time></trkpt><trkpt lat="45.6364584" lon="11.0158067"><ele>1079.0</ele><time>2026-05-02T11:33:54.985Z</time></trkpt><trkpt lat="45.6365285" lon="11.0157685"><ele>1079.0</ele><time>2026-05-02T11:33:55.979Z</time></trkpt><trkpt lat="45.6366017" lon="11.0157258"><ele>1079.0</ele><time>2026-05-02T11:33:56.98Z</time></trkpt><trkpt lat="45.6366768" lon="11.0156755"><ele>1075.0</ele><time>2026-05-02T11:33:57.976Z</time></trkpt><trkpt lat="45.6367457" lon="11.0156209"><ele>1071.0</ele><time>2026-05-02T11:33:58.98Z</time></trkpt><trkpt lat="45.6368107" lon="11.015567"><ele>1067.0</ele><time>2026-05-02T11:33:59.968Z</time></trkpt><trkpt lat="45.6368707" lon="11.0155054"><ele>1063.0</ele><time>2026-05-02T11:34:00.97Z</time></trkpt><trkpt lat="45.6369256" lon="11.0154456"><ele>1059.0</ele><time>2026-05-02T11:34:01.966Z</time></trkpt><trkpt lat="45.6369733" lon="11.015377"><ele>1055.0</ele><time>2026-05-02T11:34:02.982Z</time></trkpt><trkpt lat="45.6370749" lon="11.0152833"><ele>1055.0</ele><time>2026-05-02T11:34:04.968Z</time></trkpt><trkpt lat="45.6371389" lon="11.0152634"><ele>1055.0</ele><time>2026-05-02T11:34:05.969Z</time></trkpt><trkpt lat="45.637213" lon="11.0152557"><ele>1055.0</ele><time>2026-05-02T11:34:06.966Z</time></trkpt><trkpt lat="45.6372926" lon="11.0152568"><ele>1055.0</ele><time>2026-05-02T11:34:07.974Z</time></trkpt><trkpt lat="45.637371" lon="11.0152627"><ele>1055.0</ele><time>2026-05-02T11:34:08.973Z</time></trkpt><trkpt lat="45.6374469" lon="11.0152805"><ele>1055.0</ele><time>2026-05-02T11:34:09.973Z</time></trkpt><trkpt lat="45.637517" lon="11.0153111"><ele>1055.0</ele><time>2026-05-02T11:34:10.971Z</time></trkpt><trkpt lat="45.6375873" lon="11.0153534"><ele>1055.0</ele><time>2026-05-02T11:34:11.983Z</time></trkpt><trkpt lat="45.6376516" lon="11.015397"><ele>1055.0</ele><time>2026-05-02T11:34:12.979Z</time></trkpt><trkpt lat="45.6377142" lon="11.0154407"><ele>1055.0</ele><time>2026-05-02T11:34:13.975Z</time></trkpt><trkpt lat="45.6377823" lon="11.015484"><ele>1055.0</ele><time>2026-05-02T11:34:14.973Z</time></trkpt><trkpt lat="45.6378434" lon="11.0155253"><ele>1055.0</ele><time>2026-05-02T11:34:15.974Z</time></trkpt><trkpt lat="45.6379045" lon="11.0155733"><ele>1055.0</ele><time>2026-05-02T11:34:16.974Z</time></trkpt><trkpt lat="45.6379619" lon="11.0156369"><ele>1055.0</ele><time>2026-05-02T11:34:17.987Z</time></trkpt><trkpt lat="45.6380163" lon="11.0156945"><ele>1056.4</ele><time>2026-05-02T11:34:18.968Z</time></trkpt><trkpt lat="45.6380703" lon="11.0157549"><ele>1057.8</ele><time>2026-05-02T11:34:19.982Z</time></trkpt><trkpt lat="45.6381672" lon="11.0158573"><ele>1059.2</ele><time>2026-05-02T11:34:21.969Z</time></trkpt><trkpt lat="45.6382697" lon="11.0159365"><ele>1060.6</ele><time>2026-05-02T11:34:23.977Z</time></trkpt><trkpt lat="45.6383753" lon="11.0160355"><ele>1062.0</ele><time>2026-05-02T11:34:25.97Z</time></trkpt><trkpt lat="45.6384233" lon="11.0160994"><ele>1062.0</ele><time>2026-05-02T11:34:26.978Z</time></trkpt><trkpt lat="45.6384752" lon="11.016172"><ele>1062.0</ele><time>2026-05-02T11:34:28.034Z</time></trkpt><trkpt lat="45.6385209" lon="11.016249"><ele>1062.0</ele><time>2026-05-02T11:34:29.026Z</time></trkpt><trkpt lat="45.6385586" lon="11.0163305"><ele>1062.0</ele><time>2026-05-02T11:34:29.966Z</time></trkpt><trkpt lat="45.6385943" lon="11.0164223"><ele>1062.0</ele><time>2026-05-02T11:34:30.969Z</time></trkpt><trkpt lat="45.6386257" lon="11.0165123"><ele>1062.0</ele><time>2026-05-02T11:34:32.036Z</time></trkpt><trkpt lat="45.6386616" lon="11.0165891"><ele>1062.0</ele><time>2026-05-02T11:34:33.037Z</time></trkpt><trkpt lat="45.6387076" lon="11.0166585"><ele>1062.5</ele><time>2026-05-02T11:34:33.988Z</time></trkpt><trkpt lat="45.6387667" lon="11.0167176"><ele>1063.0</ele><time>2026-05-02T11:34:35.04Z</time></trkpt><trkpt lat="45.6388233" lon="11.0167591"><ele>1063.5</ele><time>2026-05-02T11:34:35.96Z</time></trkpt><trkpt lat="45.6389396" lon="11.0167735"><ele>1064.0</ele><time>2026-05-02T11:34:37.99Z</time></trkpt><trkpt lat="45.639039" lon="11.0166979"><ele>1064.5</ele><time>2026-05-02T11:34:39.972Z</time></trkpt><trkpt lat="45.6390916" lon="11.0166482"><ele>1065.0</ele><time>2026-05-02T11:34:40.975Z</time></trkpt><trkpt lat="45.6391945" lon="11.0165295"><ele>1062.8</ele><time>2026-05-02T11:34:43.051Z</time></trkpt><trkpt lat="45.6392529" lon="11.0164734"><ele>1060.6</ele><time>2026-05-02T11:34:44.032Z</time></trkpt><trkpt lat="45.6393073" lon="11.0164236"><ele>1058.4</ele><time>2026-05-02T11:34:45.033Z</time></trkpt><trkpt lat="45.6393843" lon="11.0163442"><ele>1056.2</ele><time>2026-05-02T11:34:46.965Z</time></trkpt><trkpt lat="45.6394458" lon="11.0162119"><ele>1054.0</ele><time>2026-05-02T11:34:48.958Z</time></trkpt><trkpt lat="45.6395217" lon="11.0160946"><ele>1053.0</ele><time>2026-05-02T11:34:50.961Z</time></trkpt><trkpt lat="45.6395785" lon="11.0159717"><ele>1052.0</ele><time>2026-05-02T11:34:52.974Z</time></trkpt><trkpt lat="45.6396222" lon="11.0158323"><ele>1051.0</ele><time>2026-05-02T11:34:54.955Z</time></trkpt><trkpt lat="45.6397188" lon="11.0157366"><ele>1050.0</ele><time>2026-05-02T11:34:56.965Z</time></trkpt><trkpt lat="45.6398315" lon="11.015681"><ele>1049.0</ele><time>2026-05-02T11:34:58.952Z</time></trkpt><trkpt lat="45.6399317" lon="11.0156372"><ele>1049.0</ele><time>2026-05-02T11:35:00.962Z</time></trkpt><trkpt lat="45.639999" lon="11.0156272"><ele>1049.0</ele><time>2026-05-02T11:35:04.96Z</time></trkpt><trkpt lat="45.6400845" lon="11.0155976"><ele>1049.0</ele><time>2026-05-02T11:35:08.956Z</time></trkpt><trkpt lat="45.6401576" lon="11.015561"><ele>1049.0</ele><time>2026-05-02T11:35:10.957Z</time></trkpt><trkpt lat="45.6402724" lon="11.0155524"><ele>1049.0</ele><time>2026-05-02T11:35:12.97Z</time></trkpt><trkpt lat="45.6403391" lon="11.0155568"><ele>1049.0</ele><time>2026-05-02T11:35:13.966Z</time></trkpt><trkpt lat="45.6404112" lon="11.0155595"><ele>1049.6000000000001</ele><time>2026-05-02T11:35:14.952Z</time></trkpt><trkpt lat="45.6404865" lon="11.0155675"><ele>1050.2</ele><time>2026-05-02T11:35:15.969Z</time></trkpt><trkpt lat="45.6405491" lon="11.015581"><ele>1050.8000000000002</ele><time>2026-05-02T11:35:16.971Z</time></trkpt><trkpt lat="45.6406691" lon="11.0156048"><ele>1051.4</ele><time>2026-05-02T11:35:18.963Z</time></trkpt><trkpt lat="45.6407789" lon="11.0156199"><ele>1052.0</ele><time>2026-05-02T11:35:20.972Z</time></trkpt><trkpt lat="45.6408752" lon="11.0156153"><ele>1052.0</ele><time>2026-05-02T11:35:22.969Z</time></trkpt><trkpt lat="45.6409507" lon="11.0156116"><ele>1052.0</ele><time>2026-05-02T11:35:26.968Z</time></trkpt><trkpt lat="45.6410109" lon="11.0155821"><ele>1052.0</ele><time>2026-05-02T11:35:29.963Z</time></trkpt><trkpt lat="45.6410695" lon="11.0155276"><ele>1052.0</ele><time>2026-05-02T11:35:31.951Z</time></trkpt><trkpt lat="45.6411367" lon="11.0154819"><ele>1052.0</ele><time>2026-05-02T11:35:34.078Z</time></trkpt><trkpt lat="45.6412401" lon="11.0154524"><ele>1052.0</ele><time>2026-05-02T11:35:36.957Z</time></trkpt><trkpt lat="45.6413324" lon="11.0154132"><ele>1052.0</ele><time>2026-05-02T11:35:38.953Z</time></trkpt><trkpt lat="45.641435" lon="11.0154056"><ele>1052.0</ele><time>2026-05-02T11:35:40.976Z</time></trkpt><trkpt lat="45.6415011" lon="11.0153992"><ele>1052.0</ele><time>2026-05-02T11:35:42.961Z</time></trkpt><trkpt lat="45.6415701" lon="11.0153868"><ele>1052.0</ele><time>2026-05-02T11:35:44.958Z</time></trkpt><trkpt lat="45.6416426" lon="11.0153823"><ele>1052.0</ele><time>2026-05-02T11:35:47.031Z</time></trkpt><trkpt lat="45.6417272" lon="11.0153599"><ele>1052.0</ele><time>2026-05-02T11:35:48.973Z</time></trkpt><trkpt lat="45.6418221" lon="11.0153429"><ele>1052.0</ele><time>2026-05-02T11:35:50.962Z</time></trkpt><trkpt lat="45.641895" lon="11.0153338"><ele>1052.0</ele><time>2026-05-02T11:35:52.96Z</time></trkpt><trkpt lat="45.6419581" lon="11.015335"><ele>1052.0</ele><time>2026-05-02T11:35:54.963Z</time></trkpt><trkpt lat="45.64202" lon="11.0153845"><ele>1052.0</ele><time>2026-05-02T11:35:56.958Z</time></trkpt><trkpt lat="45.6420804" lon="11.01543"><ele>1052.0</ele><time>2026-05-02T11:35:58.956Z</time></trkpt><trkpt lat="45.6421446" lon="11.0154838"><ele>1052.0</ele><time>2026-05-02T11:36:00.968Z</time></trkpt><trkpt lat="45.6422144" lon="11.0155532"><ele>1052.0</ele><time>2026-05-02T11:36:02.961Z</time></trkpt><trkpt lat="45.6422661" lon="11.0156204"><ele>1049.0</ele><time>2026-05-02T11:36:04.976Z</time></trkpt><trkpt lat="45.6423348" lon="11.0156787"><ele>1046.0</ele><time>2026-05-02T11:36:07.965Z</time></trkpt><trkpt lat="45.6424003" lon="11.0156869"><ele>1043.0</ele><time>2026-05-02T11:36:11.964Z</time></trkpt><trkpt lat="45.6424396" lon="11.0156115"><ele>1040.0</ele><time>2026-05-02T11:36:14.972Z</time></trkpt><trkpt lat="45.6424619" lon="11.0155034"><ele>1037.0</ele><time>2026-05-02T11:36:17.035Z</time></trkpt><trkpt lat="45.642473" lon="11.0153873"><ele>1034.0</ele><time>2026-05-02T11:36:18.97Z</time></trkpt><trkpt lat="45.6424866" lon="11.0152415"><ele>1034.0</ele><time>2026-05-02T11:36:20.961Z</time></trkpt><trkpt lat="45.6424955" lon="11.0151345"><ele>1034.0</ele><time>2026-05-02T11:36:22.966Z</time></trkpt><trkpt lat="45.642513" lon="11.0150201"><ele>1034.0</ele><time>2026-05-02T11:36:24.973Z</time></trkpt><trkpt lat="45.6425711" lon="11.0149757"><ele>1034.0</ele><time>2026-05-02T11:36:27.953Z</time></trkpt><trkpt lat="45.6426318" lon="11.0150114"><ele>1034.0</ele><time>2026-05-02T11:36:29.96Z</time></trkpt><trkpt lat="45.6426867" lon="11.0150771"><ele>1034.0</ele><time>2026-05-02T11:36:31.977Z</time></trkpt><trkpt lat="45.6427416" lon="11.0151805"><ele>1034.0</ele><time>2026-05-02T11:36:34.965Z</time></trkpt><trkpt lat="45.6427921" lon="11.0152539"><ele>1034.0</ele><time>2026-05-02T11:36:36.957Z</time></trkpt><trkpt lat="45.6428499" lon="11.0153462"><ele>1034.0</ele><time>2026-05-02T11:36:38.954Z</time></trkpt><trkpt lat="45.64289" lon="11.0154836"><ele>1034.0</ele><time>2026-05-02T11:36:40.957Z</time></trkpt><trkpt lat="45.6429152" lon="11.0156101"><ele>1034.0</ele><time>2026-05-02T11:36:42.955Z</time></trkpt><trkpt lat="45.6429448" lon="11.015733"><ele>1034.0</ele><time>2026-05-02T11:36:44.957Z</time></trkpt><trkpt lat="45.642973" lon="11.0158927"><ele>1030.2</ele><time>2026-05-02T11:36:46.972Z</time></trkpt><trkpt lat="45.6429685" lon="11.0160499"><ele>1026.4</ele><time>2026-05-02T11:36:48.969Z</time></trkpt><trkpt lat="45.6429658" lon="11.0161912"><ele>1022.6</ele><time>2026-05-02T11:36:50.972Z</time></trkpt><trkpt lat="45.642983" lon="11.0162882"><ele>1018.8</ele><time>2026-05-02T11:36:52.966Z</time></trkpt><trkpt lat="45.6430656" lon="11.0163077"><ele>1015.0</ele><time>2026-05-02T11:36:55.96Z</time></trkpt><trkpt lat="45.6431377" lon="11.0162286"><ele>1014.9999999999999</ele><time>2026-05-02T11:36:58.009Z</time></trkpt><trkpt lat="45.6432424" lon="11.0161317"><ele>1015.0</ele><time>2026-05-02T11:36:59.956Z</time></trkpt><trkpt lat="45.6433168" lon="11.0160817"><ele>1015.0</ele><time>2026-05-02T11:37:00.968Z</time></trkpt><trkpt lat="45.6433847" lon="11.0160393"><ele>1015.0</ele><time>2026-05-02T11:37:01.963Z</time></trkpt><trkpt lat="45.6434551" lon="11.0159929"><ele>1014.9999999999999</ele><time>2026-05-02T11:37:02.962Z</time></trkpt><trkpt lat="45.6435296" lon="11.0159554"><ele>1015.0</ele><time>2026-05-02T11:37:03.978Z</time></trkpt><trkpt lat="45.6435991" lon="11.0159245"><ele>1017.2</ele><time>2026-05-02T11:37:04.96Z</time></trkpt><trkpt lat="45.6437096" lon="11.0158981"><ele>1019.4</ele><time>2026-05-02T11:37:07.021Z</time></trkpt><trkpt lat="45.6437893" lon="11.0159208"><ele>1021.5999999999999</ele><time>2026-05-02T11:37:08.965Z</time></trkpt><trkpt lat="45.6438509" lon="11.0159627"><ele>1023.8</ele><time>2026-05-02T11:37:09.958Z</time></trkpt><trkpt lat="45.6439561" lon="11.0160685"><ele>1026.0</ele><time>2026-05-02T11:37:12.043Z</time></trkpt><trkpt lat="45.6440179" lon="11.0161266"><ele>1026.0</ele><time>2026-05-02T11:37:12.976Z</time></trkpt><trkpt lat="45.6440771" lon="11.016187"><ele>1026.0</ele><time>2026-05-02T11:37:13.973Z</time></trkpt><trkpt lat="45.6441352" lon="11.0162524"><ele>1026.0</ele><time>2026-05-02T11:37:14.974Z</time></trkpt><trkpt lat="45.6441982" lon="11.0163164"><ele>1026.0</ele><time>2026-05-02T11:37:15.958Z</time></trkpt><trkpt lat="45.6442612" lon="11.0163837"><ele>1026.0</ele><time>2026-05-02T11:37:16.969Z</time></trkpt><trkpt lat="45.6443265" lon="11.0164514"><ele>1026.0</ele><time>2026-05-02T11:37:17.971Z</time></trkpt><trkpt lat="45.6443893" lon="11.0165292"><ele>1026.0</ele><time>2026-05-02T11:37:18.959Z</time></trkpt><trkpt lat="45.6444427" lon="11.0166238"><ele>1026.0</ele><time>2026-05-02T11:37:20.039Z</time></trkpt><trkpt lat="45.6444971" lon="11.0167339"><ele>1026.0</ele><time>2026-05-02T11:37:20.963Z</time></trkpt><trkpt lat="45.6445412" lon="11.0168387"><ele>1026.0</ele><time>2026-05-02T11:37:21.971Z</time></trkpt><trkpt lat="45.644594" lon="11.0169376"><ele>1026.0</ele><time>2026-05-02T11:37:22.98Z</time></trkpt><trkpt lat="45.6446424" lon="11.0170323"><ele>1026.0</ele><time>2026-05-02T11:37:24.041Z</time></trkpt><trkpt lat="45.6446895" lon="11.017136"><ele>1029.3333333333333</ele><time>2026-05-02T11:37:24.965Z</time></trkpt><trkpt lat="45.6447352" lon="11.0172369"><ele>1032.6666666666667</ele><time>2026-05-02T11:37:25.969Z</time></trkpt><trkpt lat="45.6447867" lon="11.017344"><ele>1036.0</ele><time>2026-05-02T11:37:26.979Z</time></trkpt><trkpt lat="45.6448361" lon="11.0174406"><ele>1039.3333333333335</ele><time>2026-05-02T11:37:28.001Z</time></trkpt><trkpt lat="45.6448805" lon="11.0175245"><ele>1042.6666666666667</ele><time>2026-05-02T11:37:28.984Z</time></trkpt><trkpt lat="45.6449322" lon="11.0176096"><ele>1046.0</ele><time>2026-05-02T11:37:29.979Z</time></trkpt><trkpt lat="45.6449801" lon="11.017694"><ele>1045.9999999999998</ele><time>2026-05-02T11:37:30.979Z</time></trkpt><trkpt lat="45.645025" lon="11.0177741"><ele>1046.0</ele><time>2026-05-02T11:37:31.977Z</time></trkpt><trkpt lat="45.645057" lon="11.0178648"><ele>1046.0</ele><time>2026-05-02T11:37:32.973Z</time></trkpt><trkpt lat="45.6450632" lon="11.0179666"><ele>1046.0</ele><time>2026-05-02T11:37:33.976Z</time></trkpt><trkpt lat="45.6450647" lon="11.0180739"><ele>1046.0</ele><time>2026-05-02T11:37:34.972Z</time></trkpt><trkpt lat="45.6450614" lon="11.0181742"><ele>1045.9999999999998</ele><time>2026-05-02T11:37:35.977Z</time></trkpt><trkpt lat="45.6450682" lon="11.018269"><ele>1046.0</ele><time>2026-05-02T11:37:36.967Z</time></trkpt><trkpt lat="45.6450778" lon="11.0183607"><ele>1046.1666666666667</ele><time>2026-05-02T11:37:37.966Z</time></trkpt><trkpt lat="45.6451004" lon="11.0185301"><ele>1046.3333333333335</ele><time>2026-05-02T11:37:39.981Z</time></trkpt><trkpt lat="45.6450915" lon="11.0186237"><ele>1046.5</ele><time>2026-05-02T11:37:40.958Z</time></trkpt><trkpt lat="45.6450501" lon="11.0187218"><ele>1046.6666666666667</ele><time>2026-05-02T11:37:41.973Z</time></trkpt><trkpt lat="45.6449974" lon="11.0188068"><ele>1046.8333333333333</ele><time>2026-05-02T11:37:42.992Z</time></trkpt><trkpt lat="45.6449433" lon="11.0188784"><ele>1047.0</ele><time>2026-05-02T11:37:43.959Z</time></trkpt><trkpt lat="45.6448965" lon="11.0189605"><ele>1047.0</ele><time>2026-05-02T11:37:44.972Z</time></trkpt><trkpt lat="45.644855" lon="11.0190666"><ele>1047.0</ele><time>2026-05-02T11:37:45.968Z</time></trkpt><trkpt lat="45.6448308" lon="11.0191675"><ele>1047.0</ele><time>2026-05-02T11:37:46.97Z</time></trkpt><trkpt lat="45.6448137" lon="11.0193016"><ele>1047.0</ele><time>2026-05-02T11:37:47.969Z</time></trkpt><trkpt lat="45.6448012" lon="11.0194545"><ele>1047.0</ele><time>2026-05-02T11:37:48.975Z</time></trkpt><trkpt lat="45.6447872" lon="11.0196068"><ele>1048.8</ele><time>2026-05-02T11:37:49.975Z</time></trkpt><trkpt lat="45.6447787" lon="11.0197604"><ele>1050.6</ele><time>2026-05-02T11:37:50.975Z</time></trkpt><trkpt lat="45.6447739" lon="11.0199105"><ele>1052.3999999999999</ele><time>2026-05-02T11:37:51.962Z</time></trkpt><trkpt lat="45.6447704" lon="11.0200576"><ele>1054.2</ele><time>2026-05-02T11:37:52.969Z</time></trkpt><trkpt lat="45.6447616" lon="11.0202038"><ele>1056.0</ele><time>2026-05-02T11:37:53.969Z</time></trkpt><trkpt lat="45.6447476" lon="11.0203411"><ele>1057.5</ele><time>2026-05-02T11:37:54.98Z</time></trkpt><trkpt lat="45.6447339" lon="11.0204731"><ele>1059.0</ele><time>2026-05-02T11:37:56.005Z</time></trkpt><trkpt lat="45.6447211" lon="11.0205902"><ele>1060.5</ele><time>2026-05-02T11:37:56.977Z</time></trkpt><trkpt lat="45.6447041" lon="11.0206864"><ele>1062.0</ele><time>2026-05-02T11:37:57.97Z</time></trkpt><trkpt lat="45.6446886" lon="11.020812"><ele>1063.5</ele><time>2026-05-02T11:37:59.966Z</time></trkpt><trkpt lat="45.6447505" lon="11.0208893"><ele>1065.0</ele><time>2026-05-02T11:38:02.968Z</time></trkpt><trkpt lat="45.6448216" lon="11.0208047"><ele>1065.0</ele><time>2026-05-02T11:38:04.977Z</time></trkpt><trkpt lat="45.644883" lon="11.0206527"><ele>1065.0</ele><time>2026-05-02T11:38:06.969Z</time></trkpt><trkpt lat="45.6449289" lon="11.0205671"><ele>1065.0</ele><time>2026-05-02T11:38:07.967Z</time></trkpt><trkpt lat="45.6449867" lon="11.0204868"><ele>1065.0</ele><time>2026-05-02T11:38:08.966Z</time></trkpt><trkpt lat="45.6450385" lon="11.0204066"><ele>1065.0</ele><time>2026-05-02T11:38:09.954Z</time></trkpt><trkpt lat="45.6450789" lon="11.0203195"><ele>1065.0</ele><time>2026-05-02T11:38:10.982Z</time></trkpt><trkpt lat="45.6451138" lon="11.0202331"><ele>1065.0</ele><time>2026-05-02T11:38:11.978Z</time></trkpt><trkpt lat="45.6451311" lon="11.020126"><ele>1065.0</ele><time>2026-05-02T11:38:12.98Z</time></trkpt><trkpt lat="45.6451579" lon="11.0199889"><ele>1065.0</ele><time>2026-05-02T11:38:13.975Z</time></trkpt><trkpt lat="45.6451815" lon="11.0198261"><ele>1065.0</ele><time>2026-05-02T11:38:14.98Z</time></trkpt><trkpt lat="45.6452191" lon="11.0196609"><ele>1065.0</ele><time>2026-05-02T11:38:15.968Z</time></trkpt><trkpt lat="45.6452567" lon="11.019533"><ele>1064.4</ele><time>2026-05-02T11:38:16.973Z</time></trkpt><trkpt lat="45.6452924" lon="11.0194523"><ele>1063.8</ele><time>2026-05-02T11:38:17.981Z</time></trkpt><trkpt lat="45.6453871" lon="11.0193429"><ele>1063.2</ele><time>2026-05-02T11:38:19.982Z</time></trkpt><trkpt lat="45.6454313" lon="11.0192715"><ele>1062.6</ele><time>2026-05-02T11:38:20.976Z</time></trkpt><trkpt lat="45.6455148" lon="11.0191517"><ele>1062.0</ele><time>2026-05-02T11:38:22.975Z</time></trkpt><trkpt lat="45.6455718" lon="11.0190771"><ele>1062.0</ele><time>2026-05-02T11:38:23.971Z</time></trkpt><trkpt lat="45.6456399" lon="11.0190042"><ele>1062.0</ele><time>2026-05-02T11:38:24.978Z</time></trkpt><trkpt lat="45.6457106" lon="11.0189308"><ele>1062.0</ele><time>2026-05-02T11:38:25.979Z</time></trkpt><trkpt lat="45.6457848" lon="11.0188445"><ele>1062.0</ele><time>2026-05-02T11:38:26.968Z</time></trkpt><trkpt lat="45.6458538" lon="11.0187577"><ele>1062.0</ele><time>2026-05-02T11:38:27.975Z</time></trkpt><trkpt lat="45.6459325" lon="11.0186812"><ele>1062.0</ele><time>2026-05-02T11:38:28.973Z</time></trkpt><trkpt lat="45.646017" lon="11.0186084"><ele>1062.0</ele><time>2026-05-02T11:38:29.978Z</time></trkpt><trkpt lat="45.6460974" lon="11.0185229"><ele>1062.0</ele><time>2026-05-02T11:38:30.982Z</time></trkpt><trkpt lat="45.6461453" lon="11.0184513"><ele>1062.0</ele><time>2026-05-02T11:38:31.972Z</time></trkpt><trkpt lat="45.6462391" lon="11.018482"><ele>1062.0</ele><time>2026-05-02T11:38:34.979Z</time></trkpt><trkpt lat="45.6463169" lon="11.0185673"><ele>1062.8</ele><time>2026-05-02T11:38:36.971Z</time></trkpt><trkpt lat="45.6464284" lon="11.0186513"><ele>1063.6</ele><time>2026-05-02T11:38:38.973Z</time></trkpt><trkpt lat="45.6465057" lon="11.0187013"><ele>1064.3999999999999</ele><time>2026-05-02T11:38:39.982Z</time></trkpt><trkpt lat="45.6465987" lon="11.0187455"><ele>1065.2</ele><time>2026-05-02T11:38:40.978Z</time></trkpt><trkpt lat="45.6467209" lon="11.0187973"><ele>1066.0</ele><time>2026-05-02T11:38:41.965Z</time></trkpt><trkpt lat="45.6468339" lon="11.0188404"><ele>1066.0</ele><time>2026-05-02T11:38:42.968Z</time></trkpt><trkpt lat="45.6469464" lon="11.0188874"><ele>1066.0</ele><time>2026-05-02T11:38:43.97Z</time></trkpt><trkpt lat="45.6470529" lon="11.0189314"><ele>1066.0</ele><time>2026-05-02T11:38:44.98Z</time></trkpt><trkpt lat="45.64716" lon="11.0189756"><ele>1066.0</ele><time>2026-05-02T11:38:45.972Z</time></trkpt><trkpt lat="45.6472702" lon="11.0190182"><ele>1066.0</ele><time>2026-05-02T11:38:46.979Z</time></trkpt><trkpt lat="45.6473723" lon="11.0190586"><ele>1066.0</ele><time>2026-05-02T11:38:47.97Z</time></trkpt><trkpt lat="45.6474786" lon="11.0190884"><ele>1066.0</ele><time>2026-05-02T11:38:48.971Z</time></trkpt><trkpt lat="45.6475841" lon="11.0191053"><ele>1066.0</ele><time>2026-05-02T11:38:49.97Z</time></trkpt><trkpt lat="45.6476915" lon="11.0191061"><ele>1066.0</ele><time>2026-05-02T11:38:50.97Z</time></trkpt><trkpt lat="45.6477955" lon="11.0191027"><ele>1066.3999999999999</ele><time>2026-05-02T11:38:51.97Z</time></trkpt><trkpt lat="45.6478997" lon="11.0190931"><ele>1066.8</ele><time>2026-05-02T11:38:52.98Z</time></trkpt><trkpt lat="45.6480041" lon="11.0190804"><ele>1067.1999999999998</ele><time>2026-05-02T11:38:53.971Z</time></trkpt><trkpt lat="45.6481162" lon="11.0190486"><ele>1067.6</ele><time>2026-05-02T11:38:54.971Z</time></trkpt><trkpt lat="45.6482247" lon="11.0189927"><ele>1068.0</ele><time>2026-05-02T11:38:55.983Z</time></trkpt><trkpt lat="45.6483267" lon="11.0189499"><ele>1068.0</ele><time>2026-05-02T11:38:56.972Z</time></trkpt><trkpt lat="45.6484229" lon="11.0188974"><ele>1068.0</ele><time>2026-05-02T11:38:57.97Z</time></trkpt><trkpt lat="45.6485238" lon="11.0188476"><ele>1068.0</ele><time>2026-05-02T11:38:58.96Z</time></trkpt><trkpt lat="45.6486292" lon="11.0188095"><ele>1068.0</ele><time>2026-05-02T11:38:59.967Z</time></trkpt><trkpt lat="45.6487322" lon="11.0187741"><ele>1068.0</ele><time>2026-05-02T11:39:00.975Z</time></trkpt><trkpt lat="45.6488339" lon="11.01874"><ele>1069.8</ele><time>2026-05-02T11:39:01.974Z</time></trkpt><trkpt lat="45.648935" lon="11.0187036"><ele>1071.6</ele><time>2026-05-02T11:39:02.975Z</time></trkpt><trkpt lat="45.6490308" lon="11.018657"><ele>1073.4</ele><time>2026-05-02T11:39:03.975Z</time></trkpt><trkpt lat="45.6491285" lon="11.0185891"><ele>1075.2</ele><time>2026-05-02T11:39:04.976Z</time></trkpt><trkpt lat="45.6492249" lon="11.0184955"><ele>1077.0</ele><time>2026-05-02T11:39:05.98Z</time></trkpt><trkpt lat="45.6493" lon="11.0183861"><ele>1076.5</ele><time>2026-05-02T11:39:06.979Z</time></trkpt><trkpt lat="45.6493543" lon="11.018243"><ele>1076.0</ele><time>2026-05-02T11:39:07.977Z</time></trkpt><trkpt lat="45.6493853" lon="11.0180836"><ele>1075.5</ele><time>2026-05-02T11:39:08.971Z</time></trkpt><trkpt lat="45.6493962" lon="11.0179095"><ele>1075.0</ele><time>2026-05-02T11:39:09.974Z</time></trkpt><trkpt lat="45.6494025" lon="11.0177317"><ele>1075.0</ele><time>2026-05-02T11:39:10.978Z</time></trkpt><trkpt lat="45.6493997" lon="11.0175591"><ele>1075.0</ele><time>2026-05-02T11:39:11.975Z</time></trkpt><trkpt lat="45.6494292" lon="11.0174013"><ele>1075.0</ele><time>2026-05-02T11:39:12.981Z</time></trkpt><trkpt lat="45.6494879" lon="11.0172723"><ele>1075.0</ele><time>2026-05-02T11:39:14.029Z</time></trkpt><trkpt lat="45.6495726" lon="11.0171616"><ele>1073.25</ele><time>2026-05-02T11:39:15.033Z</time></trkpt><trkpt lat="45.6496746" lon="11.0170825"><ele>1071.5</ele><time>2026-05-02T11:39:15.957Z</time></trkpt><trkpt lat="45.6497988" lon="11.0170352"><ele>1069.75</ele><time>2026-05-02T11:39:17.007Z</time></trkpt><trkpt lat="45.6499223" lon="11.017026"><ele>1068.0</ele><time>2026-05-02T11:39:17.968Z</time></trkpt><trkpt lat="45.6500577" lon="11.017053"><ele>1068.0</ele><time>2026-05-02T11:39:18.964Z</time></trkpt><trkpt lat="45.6501943" lon="11.0170984"><ele>1068.0</ele><time>2026-05-02T11:39:20.025Z</time></trkpt><trkpt lat="45.6503143" lon="11.0171491"><ele>1068.0</ele><time>2026-05-02T11:39:20.953Z</time></trkpt><trkpt lat="45.6504408" lon="11.0172193"><ele>1068.0</ele><time>2026-05-02T11:39:21.977Z</time></trkpt><trkpt lat="45.6505558" lon="11.01732"><ele>1069.5</ele><time>2026-05-02T11:39:22.971Z</time></trkpt><trkpt lat="45.6506603" lon="11.0174493"><ele>1071.0</ele><time>2026-05-02T11:39:23.975Z</time></trkpt><trkpt lat="45.6507471" lon="11.0175933"><ele>1072.5</ele><time>2026-05-02T11:39:24.971Z</time></trkpt><trkpt lat="45.6508301" lon="11.0176995"><ele>1074.0</ele><time>2026-05-02T11:39:25.969Z</time></trkpt><trkpt lat="45.6509359" lon="11.0177307"><ele>1074.0</ele><time>2026-05-02T11:39:27.045Z</time></trkpt><trkpt lat="45.6510602" lon="11.0177116"><ele>1074.0</ele><time>2026-05-02T11:39:28.025Z</time></trkpt><trkpt lat="45.6511856" lon="11.0176613"><ele>1074.0</ele><time>2026-05-02T11:39:29.029Z</time></trkpt><trkpt lat="45.6513111" lon="11.0176007"><ele>1074.0</ele><time>2026-05-02T11:39:29.967Z</time></trkpt><trkpt lat="45.6514319" lon="11.0175354"><ele>1072.5</ele><time>2026-05-02T11:39:30.968Z</time></trkpt><trkpt lat="45.6515554" lon="11.0174858"><ele>1071.0</ele><time>2026-05-02T11:39:31.958Z</time></trkpt><trkpt lat="45.6516912" lon="11.0174842"><ele>1069.5</ele><time>2026-05-02T11:39:32.965Z</time></trkpt><trkpt lat="45.6518252" lon="11.017518"><ele>1068.0</ele><time>2026-05-02T11:39:33.975Z</time></trkpt><trkpt lat="45.6519453" lon="11.0175481"><ele>1062.75</ele><time>2026-05-02T11:39:35.048Z</time></trkpt><trkpt lat="45.6520607" lon="11.0175839"><ele>1057.5</ele><time>2026-05-02T11:39:35.973Z</time></trkpt><trkpt lat="45.6521793" lon="11.0176279"><ele>1052.25</ele><time>2026-05-02T11:39:36.979Z</time></trkpt><trkpt lat="45.6522876" lon="11.0176649"><ele>1047.0</ele><time>2026-05-02T11:39:37.98Z</time></trkpt><trkpt lat="45.6524044" lon="11.0177096"><ele>1047.0</ele><time>2026-05-02T11:39:38.981Z</time></trkpt><trkpt lat="45.6525238" lon="11.0177883"><ele>1047.0</ele><time>2026-05-02T11:39:39.972Z</time></trkpt><trkpt lat="45.6526262" lon="11.0179099"><ele>1047.0</ele><time>2026-05-02T11:39:40.979Z</time></trkpt><trkpt lat="45.6527273" lon="11.0180548"><ele>1047.0</ele><time>2026-05-02T11:39:41.978Z</time></trkpt><trkpt lat="45.6528187" lon="11.0182077"><ele>1043.75</ele><time>2026-05-02T11:39:42.978Z</time></trkpt><trkpt lat="45.6528945" lon="11.018369"><ele>1040.5</ele><time>2026-05-02T11:39:43.974Z</time></trkpt><trkpt lat="45.6529674" lon="11.0185385"><ele>1037.25</ele><time>2026-05-02T11:39:44.998Z</time></trkpt><trkpt lat="45.6530459" lon="11.0187133"><ele>1034.0</ele><time>2026-05-02T11:39:45.976Z</time></trkpt><trkpt lat="45.653123" lon="11.0188834"><ele>1034.0</ele><time>2026-05-02T11:39:46.972Z</time></trkpt><trkpt lat="45.6531912" lon="11.0190483"><ele>1034.0</ele><time>2026-05-02T11:39:47.973Z</time></trkpt><trkpt lat="45.6532447" lon="11.0192192"><ele>1034.0</ele><time>2026-05-02T11:39:48.983Z</time></trkpt><trkpt lat="45.6533015" lon="11.019383"><ele>1034.0</ele><time>2026-05-02T11:39:49.986Z</time></trkpt><trkpt lat="45.6533754" lon="11.0195346"><ele>1039.6000000000001</ele><time>2026-05-02T11:39:50.96Z</time></trkpt><trkpt lat="45.6534565" lon="11.0196493"><ele>1045.2</ele><time>2026-05-02T11:39:51.973Z</time></trkpt><trkpt lat="45.6535335" lon="11.019737"><ele>1050.8000000000002</ele><time>2026-05-02T11:39:52.975Z</time></trkpt><trkpt lat="45.6536089" lon="11.0197946"><ele>1056.4</ele><time>2026-05-02T11:39:53.977Z</time></trkpt><trkpt lat="45.6536819" lon="11.0197477"><ele>1062.0</ele><time>2026-05-02T11:39:54.976Z</time></trkpt><trkpt lat="45.6537582" lon="11.0196396"><ele>1063.75</ele><time>2026-05-02T11:39:55.977Z</time></trkpt><trkpt lat="45.653812" lon="11.0195091"><ele>1065.5</ele><time>2026-05-02T11:39:57.027Z</time></trkpt><trkpt lat="45.6538482" lon="11.0193542"><ele>1067.25</ele><time>2026-05-02T11:39:57.969Z</time></trkpt><trkpt lat="45.6538845" lon="11.0191661"><ele>1069.0</ele><time>2026-05-02T11:39:59.036Z</time></trkpt><trkpt lat="45.6539192" lon="11.018984"><ele>1064.0</ele><time>2026-05-02T11:40:00.041Z</time></trkpt><trkpt lat="45.6539437" lon="11.01881"><ele>1059.0</ele><time>2026-05-02T11:40:00.96Z</time></trkpt><trkpt lat="45.6539866" lon="11.0186547"><ele>1054.0</ele><time>2026-05-02T11:40:01.964Z</time></trkpt><trkpt lat="45.6540264" lon="11.0185189"><ele>1049.0</ele><time>2026-05-02T11:40:02.988Z</time></trkpt><trkpt lat="45.654078" lon="11.0183949"><ele>1044.0</ele><time>2026-05-02T11:40:04.028Z</time></trkpt><trkpt lat="45.6541304" lon="11.0182912"><ele>1038.8333333333333</ele><time>2026-05-02T11:40:05.013Z</time></trkpt><trkpt lat="45.6541813" lon="11.0181866"><ele>1033.6666666666667</ele><time>2026-05-02T11:40:05.96Z</time></trkpt><trkpt lat="45.6542453" lon="11.0181119"><ele>1028.5</ele><time>2026-05-02T11:40:06.962Z</time></trkpt><trkpt lat="45.6543142" lon="11.0180856"><ele>1023.3333333333334</ele><time>2026-05-02T11:40:07.952Z</time></trkpt><trkpt lat="45.6543914" lon="11.0180965"><ele>1018.1666666666667</ele><time>2026-05-02T11:40:08.959Z</time></trkpt><trkpt lat="45.6544724" lon="11.0181261"><ele>1013.0</ele><time>2026-05-02T11:40:09.994Z</time></trkpt><trkpt lat="45.6545565" lon="11.0181607"><ele>1013.0</ele><time>2026-05-02T11:40:10.959Z</time></trkpt><trkpt lat="45.6546561" lon="11.0181778"><ele>1013.0</ele><time>2026-05-02T11:40:11.965Z</time></trkpt><trkpt lat="45.654763" lon="11.0181622"><ele>1013.0</ele><time>2026-05-02T11:40:12.959Z</time></trkpt><trkpt lat="45.6548608" lon="11.0181111"><ele>1013.0</ele><time>2026-05-02T11:40:13.973Z</time></trkpt><trkpt lat="45.6549562" lon="11.0180481"><ele>1013.0</ele><time>2026-05-02T11:40:14.96Z</time></trkpt><trkpt lat="45.6550636" lon="11.0179753"><ele>1013.0</ele><time>2026-05-02T11:40:15.965Z</time></trkpt><trkpt lat="45.6551738" lon="11.0178914"><ele>1013.0</ele><time>2026-05-02T11:40:16.967Z</time></trkpt><trkpt lat="45.6552742" lon="11.0177958"><ele>1013.0</ele><time>2026-05-02T11:40:17.959Z</time></trkpt><trkpt lat="45.6553753" lon="11.0176919"><ele>1013.0</ele><time>2026-05-02T11:40:18.962Z</time></trkpt><trkpt lat="45.6554795" lon="11.0175793"><ele>1012.75</ele><time>2026-05-02T11:40:19.964Z</time></trkpt><trkpt lat="45.655594" lon="11.0175089"><ele>1012.5</ele><time>2026-05-02T11:40:20.977Z</time></trkpt><trkpt lat="45.6557125" lon="11.0174423"><ele>1012.25</ele><time>2026-05-02T11:40:21.96Z</time></trkpt><trkpt lat="45.6558465" lon="11.0173995"><ele>1012.0</ele><time>2026-05-02T11:40:22.96Z</time></trkpt><trkpt lat="45.6559651" lon="11.0173524"><ele>1012.0</ele><time>2026-05-02T11:40:23.963Z</time></trkpt><trkpt lat="45.6560817" lon="11.0173058"><ele>1012.0</ele><time>2026-05-02T11:40:25.045Z</time></trkpt><trkpt lat="45.6561969" lon="11.0172677"><ele>1012.0</ele><time>2026-05-02T11:40:25.974Z</time></trkpt><trkpt lat="45.6563206" lon="11.0172282"><ele>1012.0</ele><time>2026-05-02T11:40:26.965Z</time></trkpt><trkpt lat="45.6564514" lon="11.0172012"><ele>1012.0</ele><time>2026-05-02T11:40:27.973Z</time></trkpt><trkpt lat="45.6565735" lon="11.0171752"><ele>1012.0</ele><time>2026-05-02T11:40:28.963Z</time></trkpt><trkpt lat="45.6566958" lon="11.0171448"><ele>1012.0</ele><time>2026-05-02T11:40:29.964Z</time></trkpt><trkpt lat="45.6568183" lon="11.017113"><ele>1012.0</ele><time>2026-05-02T11:40:30.969Z</time></trkpt><trkpt lat="45.656937" lon="11.0170741"><ele>1015.0</ele><time>2026-05-02T11:40:31.964Z</time></trkpt><trkpt lat="45.6570477" lon="11.0170401"><ele>1018.0</ele><time>2026-05-02T11:40:33.087Z</time></trkpt><trkpt lat="45.6571558" lon="11.017009"><ele>1021.0</ele><time>2026-05-02T11:40:34.1Z</time></trkpt><trkpt lat="45.6572563" lon="11.0169658"><ele>1024.0</ele><time>2026-05-02T11:40:35.148Z</time></trkpt><trkpt lat="45.6573562" lon="11.0169134"><ele>1027.0</ele><time>2026-05-02T11:40:36.086Z</time></trkpt><trkpt lat="45.6574005" lon="11.0168048"><ele>1027.0</ele><time>2026-05-02T11:40:37.157Z</time></trkpt><trkpt lat="45.6573738" lon="11.0166596"><ele>1027.0</ele><time>2026-05-02T11:40:38.086Z</time></trkpt><trkpt lat="45.6573316" lon="11.0165437"><ele>1027.0</ele><time>2026-05-02T11:40:39.153Z</time></trkpt><trkpt lat="45.6573194" lon="11.0163835"><ele>1027.0</ele><time>2026-05-02T11:40:41.086Z</time></trkpt><trkpt lat="45.6573048" lon="11.0162687"><ele>1027.0</ele><time>2026-05-02T11:40:43.094Z</time></trkpt><trkpt lat="45.6572506" lon="11.0161767"><ele>1031.2</ele><time>2026-05-02T11:40:45.093Z</time></trkpt><trkpt lat="45.6571485" lon="11.0161287"><ele>1035.4</ele><time>2026-05-02T11:40:47.177Z</time></trkpt><trkpt lat="45.6570209" lon="11.0160921"><ele>1039.6</ele><time>2026-05-02T11:40:49.161Z</time></trkpt><trkpt lat="45.6569317" lon="11.0160712"><ele>1043.8</ele><time>2026-05-02T11:40:50.096Z</time></trkpt><trkpt lat="45.6568366" lon="11.0160509"><ele>1048.0</ele><time>2026-05-02T11:40:51.094Z</time></trkpt><trkpt lat="45.6567401" lon="11.0160548"><ele>1048.0</ele><time>2026-05-02T11:40:52.089Z</time></trkpt><trkpt lat="45.6566377" lon="11.0160839"><ele>1048.0</ele><time>2026-05-02T11:40:53.1Z</time></trkpt><trkpt lat="45.6565362" lon="11.0161131"><ele>1048.0</ele><time>2026-05-02T11:40:54.093Z</time></trkpt><trkpt lat="45.6564324" lon="11.0161413"><ele>1048.0</ele><time>2026-05-02T11:40:55.152Z</time></trkpt><trkpt lat="45.6563203" lon="11.0161692"><ele>1048.0</ele><time>2026-05-02T11:40:56.09Z</time></trkpt><trkpt lat="45.6562047" lon="11.0161902"><ele>1049.75</ele><time>2026-05-02T11:40:57.089Z</time></trkpt><trkpt lat="45.6560868" lon="11.0161786"><ele>1051.5</ele><time>2026-05-02T11:40:58.087Z</time></trkpt><trkpt lat="45.6559689" lon="11.0161514"><ele>1053.25</ele><time>2026-05-02T11:40:59.126Z</time></trkpt><trkpt lat="45.6558557" lon="11.0161089"><ele>1055.0</ele><time>2026-05-02T11:41:00.092Z</time></trkpt><trkpt lat="45.6557473" lon="11.0160727"><ele>1055.0</ele><time>2026-05-02T11:41:01.085Z</time></trkpt><trkpt lat="45.6556302" lon="11.0160363"><ele>1055.0</ele><time>2026-05-02T11:41:02.087Z</time></trkpt><trkpt lat="45.6555143" lon="11.0160074"><ele>1055.0</ele><time>2026-05-02T11:41:03.097Z</time></trkpt><trkpt lat="45.6553927" lon="11.0159946"><ele>1055.0</ele><time>2026-05-02T11:41:04.15Z</time></trkpt><trkpt lat="45.6552832" lon="11.0159928"><ele>1057.25</ele><time>2026-05-02T11:41:05.151Z</time></trkpt><trkpt lat="45.6551741" lon="11.016027"><ele>1059.5</ele><time>2026-05-02T11:41:06.092Z</time></trkpt><trkpt lat="45.6550618" lon="11.0160726"><ele>1061.75</ele><time>2026-05-02T11:41:07.097Z</time></trkpt><trkpt lat="45.6549527" lon="11.0161182"><ele>1064.0</ele><time>2026-05-02T11:41:08.093Z</time></trkpt><trkpt lat="45.6548436" lon="11.0161482"><ele>1064.0</ele><time>2026-05-02T11:41:09.159Z</time></trkpt><trkpt lat="45.6547295" lon="11.016163"><ele>1064.0</ele><time>2026-05-02T11:41:10.15Z</time></trkpt><trkpt lat="45.6546064" lon="11.0161543"><ele>1064.0</ele><time>2026-05-02T11:41:11.088Z</time></trkpt><trkpt lat="45.6544995" lon="11.0161173"><ele>1064.0</ele><time>2026-05-02T11:41:12.097Z</time></trkpt><trkpt lat="45.6544014" lon="11.0160774"><ele>1058.5</ele><time>2026-05-02T11:41:13.099Z</time></trkpt><trkpt lat="45.6543018" lon="11.0160384"><ele>1053.0</ele><time>2026-05-02T11:41:14.158Z</time></trkpt><trkpt lat="45.6541985" lon="11.0159797"><ele>1047.5</ele><time>2026-05-02T11:41:15.151Z</time></trkpt><trkpt lat="45.6540966" lon="11.0158925"><ele>1042.0</ele><time>2026-05-02T11:41:16.091Z</time></trkpt><trkpt lat="45.6539987" lon="11.0158011"><ele>1046.4</ele><time>2026-05-02T11:41:17.095Z</time></trkpt><trkpt lat="45.6538977" lon="11.0157308"><ele>1050.8000000000002</ele><time>2026-05-02T11:41:18.109Z</time></trkpt><trkpt lat="45.6538051" lon="11.0156606"><ele>1055.2</ele><time>2026-05-02T11:41:19.144Z</time></trkpt><trkpt lat="45.6537208" lon="11.0155948"><ele>1059.6000000000001</ele><time>2026-05-02T11:41:20.097Z</time></trkpt><trkpt lat="45.6536443" lon="11.0155107"><ele>1064.0</ele><time>2026-05-02T11:41:21.096Z</time></trkpt><trkpt lat="45.6535782" lon="11.0154146"><ele>1064.0</ele><time>2026-05-02T11:41:22.13Z</time></trkpt><trkpt lat="45.6535117" lon="11.0153237"><ele>1064.0</ele><time>2026-05-02T11:41:23.098Z</time></trkpt><trkpt lat="45.6534413" lon="11.0152404"><ele>1064.0</ele><time>2026-05-02T11:41:24.1Z</time></trkpt><trkpt lat="45.6533708" lon="11.0151521"><ele>1064.0</ele><time>2026-05-02T11:41:25.16Z</time></trkpt><trkpt lat="45.6532882" lon="11.0150762"><ele>1064.0</ele><time>2026-05-02T11:41:26.093Z</time></trkpt><trkpt lat="45.6531972" lon="11.0150165"><ele>1066.8</ele><time>2026-05-02T11:41:27.098Z</time></trkpt><trkpt lat="45.6531039" lon="11.014971"><ele>1069.6000000000001</ele><time>2026-05-02T11:41:28.089Z</time></trkpt><trkpt lat="45.6530079" lon="11.0149319"><ele>1072.4</ele><time>2026-05-02T11:41:29.164Z</time></trkpt><trkpt lat="45.6529128" lon="11.0148952"><ele>1075.2</ele><time>2026-05-02T11:41:30.16Z</time></trkpt><trkpt lat="45.6528167" lon="11.0148607"><ele>1078.0</ele><time>2026-05-02T11:41:31.098Z</time></trkpt><trkpt lat="45.6527299" lon="11.014825"><ele>1078.0</ele><time>2026-05-02T11:41:32.096Z</time></trkpt><trkpt lat="45.6526411" lon="11.014783"><ele>1078.0</ele><time>2026-05-02T11:41:33.121Z</time></trkpt><trkpt lat="45.6525556" lon="11.0147362"><ele>1078.0</ele><time>2026-05-02T11:41:34.087Z</time></trkpt><trkpt lat="45.6524736" lon="11.0146814"><ele>1078.0</ele><time>2026-05-02T11:41:35.092Z</time></trkpt><trkpt lat="45.6523904" lon="11.0146233"><ele>1078.0</ele><time>2026-05-02T11:41:36.099Z</time></trkpt><trkpt lat="45.6523065" lon="11.0145741"><ele>1078.0</ele><time>2026-05-02T11:41:37.09Z</time></trkpt><trkpt lat="45.6522253" lon="11.014519"><ele>1078.0</ele><time>2026-05-02T11:41:38.101Z</time></trkpt><trkpt lat="45.6521475" lon="11.0144699"><ele>1078.0</ele><time>2026-05-02T11:41:39.081Z</time></trkpt><trkpt lat="45.6520735" lon="11.0144057"><ele>1078.0</ele><time>2026-05-02T11:41:40.089Z</time></trkpt><trkpt lat="45.6520143" lon="11.0143187"><ele>1078.0</ele><time>2026-05-02T11:41:41.098Z</time></trkpt><trkpt lat="45.6519681" lon="11.0142062"><ele>1078.0</ele><time>2026-05-02T11:41:42.094Z</time></trkpt><trkpt lat="45.6519309" lon="11.0141091"><ele>1071.8333333333333</ele><time>2026-05-02T11:41:43.106Z</time></trkpt><trkpt lat="45.651894" lon="11.0140206"><ele>1065.6666666666665</ele><time>2026-05-02T11:41:44.104Z</time></trkpt><trkpt lat="45.6518576" lon="11.0139286"><ele>1059.5</ele><time>2026-05-02T11:41:45.112Z</time></trkpt><trkpt lat="45.6518243" lon="11.0138247"><ele>1053.3333333333333</ele><time>2026-05-02T11:41:46.09Z</time></trkpt><trkpt lat="45.651795" lon="11.0137147"><ele>1047.1666666666667</ele><time>2026-05-02T11:41:47.093Z</time></trkpt><trkpt lat="45.6517734" lon="11.0135975"><ele>1041.0</ele><time>2026-05-02T11:41:48.106Z</time></trkpt><trkpt lat="45.6517694" lon="11.0134676"><ele>1041.0</ele><time>2026-05-02T11:41:49.129Z</time></trkpt><trkpt lat="45.6517701" lon="11.0133371"><ele>1041.0</ele><time>2026-05-02T11:41:50.096Z</time></trkpt><trkpt lat="45.6517652" lon="11.0131984"><ele>1041.0</ele><time>2026-05-02T11:41:51.095Z</time></trkpt><trkpt lat="45.6517632" lon="11.0130645"><ele>1041.0</ele><time>2026-05-02T11:41:52.107Z</time></trkpt><trkpt lat="45.6517619" lon="11.0129216"><ele>1041.0</ele><time>2026-05-02T11:41:53.097Z</time></trkpt><trkpt lat="45.6517594" lon="11.0127783"><ele>1042.3999999999999</ele><time>2026-05-02T11:41:54.148Z</time></trkpt><trkpt lat="45.651756" lon="11.0126354"><ele>1043.8</ele><time>2026-05-02T11:41:55.156Z</time></trkpt><trkpt lat="45.6517498" lon="11.0124916"><ele>1045.1999999999998</ele><time>2026-05-02T11:41:56.095Z</time></trkpt><trkpt lat="45.6517676" lon="11.0123466"><ele>1046.6</ele><time>2026-05-02T11:41:57.149Z</time></trkpt><trkpt lat="45.6517969" lon="11.0122065"><ele>1048.0</ele><time>2026-05-02T11:41:58.171Z</time></trkpt><trkpt lat="45.6518259" lon="11.012068"><ele>1052.2</ele><time>2026-05-02T11:41:59.168Z</time></trkpt><trkpt lat="45.6518319" lon="11.0119361"><ele>1056.4</ele><time>2026-05-02T11:42:00.164Z</time></trkpt><trkpt lat="45.6518111" lon="11.011811"><ele>1060.6000000000001</ele><time>2026-05-02T11:42:01.096Z</time></trkpt><trkpt lat="45.6517707" lon="11.0116988"><ele>1064.8</ele><time>2026-05-02T11:42:02.096Z</time></trkpt><trkpt lat="45.6517052" lon="11.0116069"><ele>1069.0</ele><time>2026-05-02T11:42:03.107Z</time></trkpt><trkpt lat="45.6516206" lon="11.0115324"><ele>1076.4</ele><time>2026-05-02T11:42:04.157Z</time></trkpt><trkpt lat="45.6515455" lon="11.0114686"><ele>1083.8000000000002</ele><time>2026-05-02T11:42:05.152Z</time></trkpt><trkpt lat="45.6514732" lon="11.0113831"><ele>1091.1999999999998</ele><time>2026-05-02T11:42:06.096Z</time></trkpt><trkpt lat="45.6514185" lon="11.0112753"><ele>1098.6</ele><time>2026-05-02T11:42:07.084Z</time></trkpt><trkpt lat="45.6513734" lon="11.0111627"><ele>1106.0</ele><time>2026-05-02T11:42:08.132Z</time></trkpt><trkpt lat="45.651321" lon="11.0110366"><ele>1106.0</ele><time>2026-05-02T11:42:09.151Z</time></trkpt><trkpt lat="45.6512672" lon="11.0109111"><ele>1106.0</ele><time>2026-05-02T11:42:10.156Z</time></trkpt><trkpt lat="45.6512087" lon="11.0108071"><ele>1106.0</ele><time>2026-05-02T11:42:11.103Z</time></trkpt><trkpt lat="45.6511391" lon="11.0107076"><ele>1106.0</ele><time>2026-05-02T11:42:12.1Z</time></trkpt><trkpt lat="45.6510585" lon="11.0106097"><ele>1106.0</ele><time>2026-05-02T11:42:13.09Z</time></trkpt><trkpt lat="45.650982" lon="11.0105235"><ele>1101.0</ele><time>2026-05-02T11:42:14.096Z</time></trkpt><trkpt lat="45.6509095" lon="11.0104381"><ele>1096.0</ele><time>2026-05-02T11:42:15.093Z</time></trkpt><trkpt lat="45.6508512" lon="11.0103526"><ele>1091.0</ele><time>2026-05-02T11:42:16.092Z</time></trkpt><trkpt lat="45.650806" lon="11.0102641"><ele>1086.0</ele><time>2026-05-02T11:42:17.098Z</time></trkpt><trkpt lat="45.6507772" lon="11.0101595"><ele>1081.0</ele><time>2026-05-02T11:42:18.152Z</time></trkpt><trkpt lat="45.6507567" lon="11.010058"><ele>1076.0</ele><time>2026-05-02T11:42:19.155Z</time></trkpt><trkpt lat="45.6507495" lon="11.0099543"><ele>1076.0</ele><time>2026-05-02T11:42:20.163Z</time></trkpt><trkpt lat="45.6507491" lon="11.0097778"><ele>1076.0</ele><time>2026-05-02T11:42:22.111Z</time></trkpt><trkpt lat="45.6507526" lon="11.0096842"><ele>1076.0</ele><time>2026-05-02T11:42:23.093Z</time></trkpt><trkpt lat="45.6507517" lon="11.009583"><ele>1076.0</ele><time>2026-05-02T11:42:24.105Z</time></trkpt><trkpt lat="45.6507501" lon="11.0094769"><ele>1076.0</ele><time>2026-05-02T11:42:25.099Z</time></trkpt><trkpt lat="45.6507589" lon="11.0093634"><ele>1076.0</ele><time>2026-05-02T11:42:26.104Z</time></trkpt><trkpt lat="45.6507825" lon="11.009234"><ele>1075.6</ele><time>2026-05-02T11:42:27.162Z</time></trkpt><trkpt lat="45.6508221" lon="11.0091045"><ele>1075.1999999999998</ele><time>2026-05-02T11:42:28.152Z</time></trkpt><trkpt lat="45.6508714" lon="11.0089766"><ele>1074.8000000000002</ele><time>2026-05-02T11:42:29.17Z</time></trkpt><trkpt lat="45.6509172" lon="11.0088542"><ele>1074.4</ele><time>2026-05-02T11:42:30.102Z</time></trkpt><trkpt lat="45.6509666" lon="11.0087409"><ele>1074.0</ele><time>2026-05-02T11:42:31.092Z</time></trkpt><trkpt lat="45.6510135" lon="11.0086294"><ele>1074.0</ele><time>2026-05-02T11:42:32.08Z</time></trkpt><trkpt lat="45.6510502" lon="11.0085247"><ele>1074.0</ele><time>2026-05-02T11:42:33.102Z</time></trkpt><trkpt lat="45.6510707" lon="11.0084234"><ele>1074.0</ele><time>2026-05-02T11:42:34.096Z</time></trkpt><trkpt lat="45.6510729" lon="11.008331"><ele>1074.0</ele><time>2026-05-02T11:42:35.096Z</time></trkpt><trkpt lat="45.6510733" lon="11.0082101"><ele>1074.0</ele><time>2026-05-02T11:42:37.107Z</time></trkpt><trkpt lat="45.6510974" lon="11.0080922"><ele>1074.0</ele><time>2026-05-02T11:42:40.092Z</time></trkpt><trkpt lat="45.65111" lon="11.0080006"><ele>1075.3333333333333</ele><time>2026-05-02T11:42:43.145Z</time></trkpt><trkpt lat="45.6510308" lon="11.0080405"><ele>1076.6666666666667</ele><time>2026-05-02T11:44:28.971Z</time></trkpt><trkpt lat="45.6510402" lon="11.0081603"><ele>1078.0</ele><time>2026-05-02T11:44:31.961Z</time></trkpt><trkpt lat="45.651027" lon="11.0082835"><ele>1079.3333333333335</ele><time>2026-05-02T11:44:34.969Z</time></trkpt><trkpt lat="45.6510552" lon="11.0081888"><ele>1080.6666666666667</ele><time>2026-05-02T11:44:39.979Z</time></trkpt><trkpt lat="45.650999" lon="11.0080946"><ele>1082.0</ele><time>2026-05-02T11:57:02.982Z</time></trkpt><trkpt lat="45.6509374" lon="11.0080595"><ele>1082.0</ele><time>2026-05-02T11:57:03.984Z</time></trkpt><trkpt lat="45.6508322" lon="11.0080181"><ele>1082.0</ele><time>2026-05-02T11:57:04.979Z</time></trkpt><trkpt lat="45.6507288" lon="11.0079877"><ele>1082.0</ele><time>2026-05-02T11:57:05.968Z</time></trkpt><trkpt lat="45.6506358" lon="11.0079688"><ele>1082.0</ele><time>2026-05-02T11:57:06.972Z</time></trkpt><trkpt lat="45.6505357" lon="11.0079412"><ele>1082.0</ele><time>2026-05-02T11:57:07.977Z</time></trkpt><trkpt lat="45.6504295" lon="11.0079036"><ele>1082.0</ele><time>2026-05-02T11:57:08.976Z</time></trkpt><trkpt lat="45.6503217" lon="11.0078525"><ele>1082.0</ele><time>2026-05-02T11:57:09.977Z</time></trkpt><trkpt lat="45.650209" lon="11.0077964"><ele>1082.0</ele><time>2026-05-02T11:57:10.983Z</time></trkpt><trkpt lat="45.6500965" lon="11.007728"><ele>1082.0</ele><time>2026-05-02T11:57:11.982Z</time></trkpt><trkpt lat="45.6499848" lon="11.0076514"><ele>1082.75</ele><time>2026-05-02T11:57:12.986Z</time></trkpt><trkpt lat="45.649871" lon="11.0075659"><ele>1083.5</ele><time>2026-05-02T11:57:13.982Z</time></trkpt><trkpt lat="45.649761" lon="11.0074699"><ele>1084.25</ele><time>2026-05-02T11:57:14.984Z</time></trkpt><trkpt lat="45.6496483" lon="11.0073623"><ele>1085.0</ele><time>2026-05-02T11:57:15.977Z</time></trkpt><trkpt lat="45.6495478" lon="11.0072414"><ele>1085.2</ele><time>2026-05-02T11:57:16.981Z</time></trkpt><trkpt lat="45.6495055" lon="11.0071066"><ele>1085.4</ele><time>2026-05-02T11:57:17.979Z</time></trkpt><trkpt lat="45.649514" lon="11.0069604"><ele>1085.6</ele><time>2026-05-02T11:57:18.971Z</time></trkpt><trkpt lat="45.6495892" lon="11.0068373"><ele>1085.8</ele><time>2026-05-02T11:57:19.969Z</time></trkpt><trkpt lat="45.6496534" lon="11.0066939"><ele>1086.0</ele><time>2026-05-02T11:57:20.974Z</time></trkpt><trkpt lat="45.6497362" lon="11.0065284"><ele>1086.25</ele><time>2026-05-02T11:57:21.982Z</time></trkpt><trkpt lat="45.6498525" lon="11.006398"><ele>1086.5</ele><time>2026-05-02T11:57:22.987Z</time></trkpt><trkpt lat="45.6499611" lon="11.0063082"><ele>1086.75</ele><time>2026-05-02T11:57:23.981Z</time></trkpt><trkpt lat="45.6500506" lon="11.006238"><ele>1087.0</ele><time>2026-05-02T11:57:24.995Z</time></trkpt><trkpt lat="45.6501085" lon="11.0061235"><ele>1087.0</ele><time>2026-05-02T11:57:25.984Z</time></trkpt><trkpt lat="45.6501153" lon="11.0059834"><ele>1087.0</ele><time>2026-05-02T11:57:26.986Z</time></trkpt><trkpt lat="45.6500653" lon="11.0058738"><ele>1087.0</ele><time>2026-05-02T11:57:27.985Z</time></trkpt><trkpt lat="45.6499854" lon="11.0057917"><ele>1087.0</ele><time>2026-05-02T11:57:28.974Z</time></trkpt><trkpt lat="45.649861" lon="11.005749"><ele>1087.0</ele><time>2026-05-02T11:57:29.977Z</time></trkpt><trkpt lat="45.649725" lon="11.0057299"><ele>1092.5</ele><time>2026-05-02T11:57:30.971Z</time></trkpt><trkpt lat="45.6495985" lon="11.0057089"><ele>1098.0</ele><time>2026-05-02T11:57:31.965Z</time></trkpt><trkpt lat="45.6494657" lon="11.0056896"><ele>1103.5</ele><time>2026-05-02T11:57:32.986Z</time></trkpt><trkpt lat="45.6493413" lon="11.0056663"><ele>1109.0</ele><time>2026-05-02T11:57:33.966Z</time></trkpt><trkpt lat="45.6492287" lon="11.0056486"><ele>1109.0</ele><time>2026-05-02T11:57:34.971Z</time></trkpt><trkpt lat="45.6491168" lon="11.0056331"><ele>1109.0</ele><time>2026-05-02T11:57:35.979Z</time></trkpt><trkpt lat="45.6490067" lon="11.0055946"><ele>1109.0</ele><time>2026-05-02T11:57:36.964Z</time></trkpt><trkpt lat="45.6489108" lon="11.0055192"><ele>1109.0</ele><time>2026-05-02T11:57:37.973Z</time></trkpt><trkpt lat="45.6488239" lon="11.0054142"><ele>1109.0</ele><time>2026-05-02T11:57:38.97Z</time></trkpt><trkpt lat="45.6487548" lon="11.0052723"><ele>1109.0</ele><time>2026-05-02T11:57:39.976Z</time></trkpt><trkpt lat="45.6486867" lon="11.0051283"><ele>1109.0</ele><time>2026-05-02T11:57:40.97Z</time></trkpt><trkpt lat="45.6486245" lon="11.0049976"><ele>1109.0</ele><time>2026-05-02T11:57:41.982Z</time></trkpt><trkpt lat="45.6485683" lon="11.0048671"><ele>1109.0</ele><time>2026-05-02T11:57:42.975Z</time></trkpt><trkpt lat="45.6485186" lon="11.004735"><ele>1109.0</ele><time>2026-05-02T11:57:43.977Z</time></trkpt><trkpt lat="45.648451" lon="11.0046458"><ele>1109.6000000000001</ele><time>2026-05-02T11:57:44.974Z</time></trkpt><trkpt lat="45.6483763" lon="11.0046149"><ele>1110.2</ele><time>2026-05-02T11:57:45.982Z</time></trkpt><trkpt lat="45.6482965" lon="11.0046465"><ele>1110.8000000000002</ele><time>2026-05-02T11:57:46.989Z</time></trkpt><trkpt lat="45.6482325" lon="11.0047278"><ele>1111.4</ele><time>2026-05-02T11:57:47.981Z</time></trkpt><trkpt lat="45.6481654" lon="11.0048671"><ele>1112.0</ele><time>2026-05-02T11:57:48.971Z</time></trkpt><trkpt lat="45.6481042" lon="11.0050179"><ele>1110.75</ele><time>2026-05-02T11:57:49.98Z</time></trkpt><trkpt lat="45.6480286" lon="11.0051536"><ele>1109.5</ele><time>2026-05-02T11:57:50.971Z</time></trkpt><trkpt lat="45.6479281" lon="11.0052402"><ele>1108.25</ele><time>2026-05-02T11:57:51.982Z</time></trkpt><trkpt lat="45.6478117" lon="11.005311"><ele>1107.0</ele><time>2026-05-02T11:57:52.973Z</time></trkpt><trkpt lat="45.6477013" lon="11.0053631"><ele>1107.0</ele><time>2026-05-02T11:57:53.983Z</time></trkpt><trkpt lat="45.6475927" lon="11.0053939"><ele>1107.0</ele><time>2026-05-02T11:57:54.981Z</time></trkpt><trkpt lat="45.6475017" lon="11.0053664"><ele>1107.0</ele><time>2026-05-02T11:57:55.986Z</time></trkpt><trkpt lat="45.6473985" lon="11.0052732"><ele>1107.0</ele><time>2026-05-02T11:57:56.982Z</time></trkpt><trkpt lat="45.6472964" lon="11.0051741"><ele>1107.0</ele><time>2026-05-02T11:57:57.99Z</time></trkpt><trkpt lat="45.6471932" lon="11.0050697"><ele>1107.75</ele><time>2026-05-02T11:57:58.982Z</time></trkpt><trkpt lat="45.6470798" lon="11.0049578"><ele>1108.5</ele><time>2026-05-02T11:57:59.976Z</time></trkpt><trkpt lat="45.6469683" lon="11.0048469"><ele>1109.25</ele><time>2026-05-02T11:58:00.982Z</time></trkpt><trkpt lat="45.6468551" lon="11.0047287"><ele>1110.0</ele><time>2026-05-02T11:58:01.969Z</time></trkpt><trkpt lat="45.6467469" lon="11.0045886"><ele>1110.0</ele><time>2026-05-02T11:58:02.975Z</time></trkpt><trkpt lat="45.646649" lon="11.0044437"><ele>1110.0</ele><time>2026-05-02T11:58:03.98Z</time></trkpt><trkpt lat="45.6465537" lon="11.0043027"><ele>1110.0</ele><time>2026-05-02T11:58:04.976Z</time></trkpt><trkpt lat="45.6464561" lon="11.0041556"><ele>1110.0</ele><time>2026-05-02T11:58:05.982Z</time></trkpt><trkpt lat="45.6463684" lon="11.0040166"><ele>1113.75</ele><time>2026-05-02T11:58:06.974Z</time></trkpt><trkpt lat="45.6463037" lon="11.0038735"><ele>1117.5</ele><time>2026-05-02T11:58:07.973Z</time></trkpt><trkpt lat="45.6462565" lon="11.0037098"><ele>1121.25</ele><time>2026-05-02T11:58:08.984Z</time></trkpt><trkpt lat="45.6462218" lon="11.0035378"><ele>1125.0</ele><time>2026-05-02T11:58:09.986Z</time></trkpt><trkpt lat="45.6461892" lon="11.0033682"><ele>1123.75</ele><time>2026-05-02T11:58:10.983Z</time></trkpt><trkpt lat="45.6461481" lon="11.003183"><ele>1122.5</ele><time>2026-05-02T11:58:11.979Z</time></trkpt><trkpt lat="45.6461053" lon="11.0029939"><ele>1121.25</ele><time>2026-05-02T11:58:12.978Z</time></trkpt><trkpt lat="45.6460542" lon="11.0028278"><ele>1120.0</ele><time>2026-05-02T11:58:13.995Z</time></trkpt><trkpt lat="45.6459957" lon="11.0027044"><ele>1120.0</ele><time>2026-05-02T11:58:14.976Z</time></trkpt><trkpt lat="45.6458964" lon="11.0026206"><ele>1120.0</ele><time>2026-05-02T11:58:15.971Z</time></trkpt><trkpt lat="45.6457896" lon="11.0026093"><ele>1120.0</ele><time>2026-05-02T11:58:16.973Z</time></trkpt><trkpt lat="45.6456709" lon="11.0026693"><ele>1120.0</ele><time>2026-05-02T11:58:17.975Z</time></trkpt><trkpt lat="45.6455661" lon="11.0027702"><ele>1120.0</ele><time>2026-05-02T11:58:18.966Z</time></trkpt><trkpt lat="45.6454625" lon="11.002857"><ele>1120.0</ele><time>2026-05-02T11:58:19.968Z</time></trkpt><trkpt lat="45.6453625" lon="11.0029069"><ele>1120.0</ele><time>2026-05-02T11:58:20.97Z</time></trkpt><trkpt lat="45.6452647" lon="11.0029219"><ele>1120.0</ele><time>2026-05-02T11:58:21.972Z</time></trkpt><trkpt lat="45.6451552" lon="11.0028851"><ele>1120.0</ele><time>2026-05-02T11:58:22.985Z</time></trkpt><trkpt lat="45.6450746" lon="11.0028035"><ele>1118.0</ele><time>2026-05-02T11:58:23.971Z</time></trkpt><trkpt lat="45.6450238" lon="11.0026891"><ele>1116.0</ele><time>2026-05-02T11:58:24.978Z</time></trkpt><trkpt lat="45.6450049" lon="11.0025188"><ele>1114.0</ele><time>2026-05-02T11:58:25.961Z</time></trkpt><trkpt lat="45.6450187" lon="11.0023385"><ele>1112.0</ele><time>2026-05-02T11:58:26.977Z</time></trkpt><trkpt lat="45.6450687" lon="11.0021408"><ele>1112.0</ele><time>2026-05-02T11:58:27.975Z</time></trkpt><trkpt lat="45.6451436" lon="11.0019244"><ele>1112.0</ele><time>2026-05-02T11:58:28.979Z</time></trkpt><trkpt lat="45.6452306" lon="11.0016962"><ele>1112.0</ele><time>2026-05-02T11:58:29.961Z</time></trkpt><trkpt lat="45.6453005" lon="11.0014997"><ele>1113.75</ele><time>2026-05-02T11:58:30.983Z</time></trkpt><trkpt lat="45.6453242" lon="11.0013203"><ele>1115.5</ele><time>2026-05-02T11:58:31.966Z</time></trkpt><trkpt lat="45.6453152" lon="11.0011509"><ele>1117.25</ele><time>2026-05-02T11:58:32.973Z</time></trkpt><trkpt lat="45.6452636" lon="11.001009"><ele>1119.0</ele><time>2026-05-02T11:58:33.969Z</time></trkpt><trkpt lat="45.6451736" lon="11.0009029"><ele>1119.0</ele><time>2026-05-02T11:58:34.977Z</time></trkpt><trkpt lat="45.6450478" lon="11.0008493"><ele>1119.0</ele><time>2026-05-02T11:58:35.971Z</time></trkpt><trkpt lat="45.644907" lon="11.0008465"><ele>1119.0</ele><time>2026-05-02T11:58:36.977Z</time></trkpt><trkpt lat="45.6447551" lon="11.0008982"><ele>1119.0</ele><time>2026-05-02T11:58:37.98Z</time></trkpt><trkpt lat="45.644613" lon="11.0009628"><ele>1119.0</ele><time>2026-05-02T11:58:38.984Z</time></trkpt><trkpt lat="45.6444764" lon="11.0010292"><ele>1119.0</ele><time>2026-05-02T11:58:39.978Z</time></trkpt><trkpt lat="45.644342" lon="11.0010848"><ele>1119.0</ele><time>2026-05-02T11:58:40.971Z</time></trkpt><trkpt lat="45.6442208" lon="11.001127"><ele>1119.0</ele><time>2026-05-02T11:58:41.979Z</time></trkpt><trkpt lat="45.6441009" lon="11.0011343"><ele>1119.2</ele><time>2026-05-02T11:58:42.983Z</time></trkpt><trkpt lat="45.6440058" lon="11.0010949"><ele>1119.4</ele><time>2026-05-02T11:58:43.971Z</time></trkpt><trkpt lat="45.6439349" lon="11.0009988"><ele>1119.6</ele><time>2026-05-02T11:58:44.976Z</time></trkpt><trkpt lat="45.6438968" lon="11.0008759"><ele>1119.8</ele><time>2026-05-02T11:58:45.989Z</time></trkpt><trkpt lat="45.6438865" lon="11.0007361"><ele>1120.0</ele><time>2026-05-02T11:58:46.976Z</time></trkpt><trkpt lat="45.643866" lon="11.0005733"><ele>1120.0</ele><time>2026-05-02T11:58:47.98Z</time></trkpt><trkpt lat="45.6438429" lon="11.0004096"><ele>1120.0</ele><time>2026-05-02T11:58:48.975Z</time></trkpt><trkpt lat="45.6438087" lon="11.0002378"><ele>1120.0</ele><time>2026-05-02T11:58:49.977Z</time></trkpt><trkpt lat="45.643752" lon="11.000075"><ele>1120.0</ele><time>2026-05-02T11:58:50.974Z</time></trkpt><trkpt lat="45.6436693" lon="10.9999348"><ele>1118.5</ele><time>2026-05-02T11:58:51.982Z</time></trkpt><trkpt lat="45.6435589" lon="10.9998242"><ele>1117.0</ele><time>2026-05-02T11:58:52.976Z</time></trkpt><trkpt lat="45.6434454" lon="10.9997427"><ele>1115.5</ele><time>2026-05-02T11:58:53.979Z</time></trkpt><trkpt lat="45.6433667" lon="10.9996411"><ele>1114.0</ele><time>2026-05-02T11:58:54.973Z</time></trkpt><trkpt lat="45.6433128" lon="10.9995375"><ele>1114.0</ele><time>2026-05-02T11:58:55.979Z</time></trkpt><trkpt lat="45.6432847" lon="10.9994321"><ele>1114.0</ele><time>2026-05-02T11:58:56.972Z</time></trkpt><trkpt lat="45.6433535" lon="10.999507"><ele>1114.0</ele><time>2026-05-02T11:59:03.977Z</time></trkpt><trkpt lat="45.6434465" lon="10.9994904"><ele>1114.0</ele><time>2026-05-02T11:59:05.985Z</time></trkpt><trkpt lat="45.6435357" lon="10.999455"><ele>1114.0</ele><time>2026-05-02T11:59:07.981Z</time></trkpt><trkpt lat="45.6436922" lon="10.9993584"><ele>1115.0</ele><time>2026-05-02T11:59:10.98Z</time></trkpt><trkpt lat="45.6437639" lon="10.999321"><ele>1116.0</ele><time>2026-05-02T11:59:12.99Z</time></trkpt><trkpt lat="45.6438453" lon="10.9992995"><ele>1117.0</ele><time>2026-05-02T11:59:14.976Z</time></trkpt><trkpt lat="45.6439637" lon="10.9993114"><ele>1118.0</ele><time>2026-05-02T11:59:16.977Z</time></trkpt><trkpt lat="45.6440427" lon="10.999321"><ele>1119.0</ele><time>2026-05-02T11:59:17.981Z</time></trkpt><trkpt lat="45.6441252" lon="10.9993268"><ele>1120.0</ele><time>2026-05-02T11:59:18.979Z</time></trkpt><trkpt lat="45.6441959" lon="10.999336"><ele>1120.0</ele><time>2026-05-02T11:59:19.98Z</time></trkpt><trkpt lat="45.6442586" lon="10.9993535"><ele>1120.0</ele><time>2026-05-02T11:59:20.98Z</time></trkpt><trkpt lat="45.6443221" lon="10.9993631"><ele>1120.0</ele><time>2026-05-02T11:59:22.05Z</time></trkpt><trkpt lat="45.6444271" lon="10.9993504"><ele>1120.0</ele><time>2026-05-02T11:59:24.041Z</time></trkpt><trkpt lat="45.6444921" lon="10.9993488"><ele>1120.0</ele><time>2026-05-02T11:59:24.991Z</time></trkpt><trkpt lat="45.6445741" lon="10.999354"><ele>1120.0</ele><time>2026-05-02T11:59:25.984Z</time></trkpt><trkpt lat="45.6446717" lon="10.9993518"><ele>1121.4285714285713</ele><time>2026-05-02T11:59:26.985Z</time></trkpt><trkpt lat="45.6447559" lon="10.9993518"><ele>1122.857142857143</ele><time>2026-05-02T11:59:27.984Z</time></trkpt><trkpt lat="45.6448267" lon="10.9993469"><ele>1124.2857142857142</ele><time>2026-05-02T11:59:29.037Z</time></trkpt><trkpt lat="45.6448966" lon="10.9993445"><ele>1125.7142857142858</ele><time>2026-05-02T11:59:29.961Z</time></trkpt><trkpt lat="45.644968" lon="10.9993544"><ele>1127.142857142857</ele><time>2026-05-02T11:59:30.972Z</time></trkpt><trkpt lat="45.64504" lon="10.9993742"><ele>1128.5714285714284</ele><time>2026-05-02T11:59:32.048Z</time></trkpt><trkpt lat="45.6451093" lon="10.9993941"><ele>1130.0</ele><time>2026-05-02T11:59:33.042Z</time></trkpt><trkpt lat="45.645175" lon="10.9994079"><ele>1130.0</ele><time>2026-05-02T11:59:33.966Z</time></trkpt><trkpt lat="45.6452432" lon="10.999433"><ele>1130.0</ele><time>2026-05-02T11:59:35.045Z</time></trkpt><trkpt lat="45.6453134" lon="10.9994536"><ele>1130.0</ele><time>2026-05-02T11:59:35.978Z</time></trkpt><trkpt lat="45.64538" lon="10.9994798"><ele>1130.0</ele><time>2026-05-02T11:59:36.968Z</time></trkpt><trkpt lat="45.6454932" lon="10.9995188"><ele>1130.0</ele><time>2026-05-02T11:59:39.043Z</time></trkpt><trkpt lat="45.6455885" lon="10.9995357"><ele>1130.0</ele><time>2026-05-02T11:59:40.999Z</time></trkpt><trkpt lat="45.6456418" lon="10.9995871"><ele>1131.142857142857</ele><time>2026-05-02T11:59:42.046Z</time></trkpt><trkpt lat="45.6456984" lon="10.9996502"><ele>1132.2857142857142</ele><time>2026-05-02T11:59:42.968Z</time></trkpt><trkpt lat="45.6457527" lon="10.9997063"><ele>1133.4285714285716</ele><time>2026-05-02T11:59:43.976Z</time></trkpt><trkpt lat="45.6458089" lon="10.9997653"><ele>1134.5714285714284</ele><time>2026-05-02T11:59:45.048Z</time></trkpt><trkpt lat="45.6458727" lon="10.9998191"><ele>1135.7142857142858</ele><time>2026-05-02T11:59:45.975Z</time></trkpt><trkpt lat="45.6459482" lon="10.9998767"><ele>1136.857142857143</ele><time>2026-05-02T11:59:46.978Z</time></trkpt><trkpt lat="45.646024" lon="10.9999149"><ele>1138.0</ele><time>2026-05-02T11:59:47.966Z</time></trkpt><trkpt lat="45.6461102" lon="10.9999603"><ele>1140.25</ele><time>2026-05-02T11:59:48.986Z</time></trkpt><trkpt lat="45.6462285" lon="11.0000236"><ele>1142.5</ele><time>2026-05-02T11:59:49.976Z</time></trkpt><trkpt lat="45.6463755" lon="11.0001024"><ele>1144.75</ele><time>2026-05-02T11:59:50.967Z</time></trkpt><trkpt lat="45.6465273" lon="11.0001939"><ele>1147.0</ele><time>2026-05-02T11:59:51.976Z</time></trkpt><trkpt lat="45.6466631" lon="11.0002909"><ele>1147.0</ele><time>2026-05-02T11:59:52.972Z</time></trkpt><trkpt lat="45.6467766" lon="11.0003785"><ele>1147.0</ele><time>2026-05-02T11:59:53.966Z</time></trkpt><trkpt lat="45.6468749" lon="11.0004565"><ele>1147.0</ele><time>2026-05-02T11:59:54.978Z</time></trkpt><trkpt lat="45.6469701" lon="11.0005183"><ele>1147.0</ele><time>2026-05-02T11:59:55.972Z</time></trkpt><trkpt lat="45.6470608" lon="11.0005677"><ele>1147.0</ele><time>2026-05-02T11:59:56.973Z</time></trkpt><trkpt lat="45.647154" lon="11.0006028"><ele>1148.4</ele><time>2026-05-02T11:59:57.965Z</time></trkpt><trkpt lat="45.6472475" lon="11.0006266"><ele>1149.8000000000002</ele><time>2026-05-02T11:59:58.969Z</time></trkpt><trkpt lat="45.6473474" lon="11.0006467"><ele>1151.2</ele><time>2026-05-02T12:00:00.027Z</time></trkpt><trkpt lat="45.647443" lon="11.0006596"><ele>1152.6000000000001</ele><time>2026-05-02T12:00:00.965Z</time></trkpt><trkpt lat="45.6475334" lon="11.0006567"><ele>1154.0</ele><time>2026-05-02T12:00:02.042Z</time></trkpt><trkpt lat="45.6476225" lon="11.0006189"><ele>1154.0</ele><time>2026-05-02T12:00:02.97Z</time></trkpt><trkpt lat="45.6476995" lon="11.0005541"><ele>1154.0</ele><time>2026-05-02T12:00:03.975Z</time></trkpt><trkpt lat="45.6477698" lon="11.0004707"><ele>1154.0</ele><time>2026-05-02T12:00:04.977Z</time></trkpt><trkpt lat="45.6478301" lon="11.0003868"><ele>1154.0</ele><time>2026-05-02T12:00:05.976Z</time></trkpt><trkpt lat="45.6478914" lon="11.0003019"><ele>1154.0</ele><time>2026-05-02T12:00:06.982Z</time></trkpt><trkpt lat="45.6479509" lon="11.0002079"><ele>1154.0</ele><time>2026-05-02T12:00:07.995Z</time></trkpt><trkpt lat="45.6480017" lon="11.000104"><ele>1154.8333333333335</ele><time>2026-05-02T12:00:08.967Z</time></trkpt><trkpt lat="45.6480531" lon="11.0000129"><ele>1155.6666666666667</ele><time>2026-05-02T12:00:09.98Z</time></trkpt><trkpt lat="45.6481091" lon="10.9999462"><ele>1156.5</ele><time>2026-05-02T12:00:10.982Z</time></trkpt><trkpt lat="45.6481749" lon="10.9999051"><ele>1157.3333333333333</ele><time>2026-05-02T12:00:11.99Z</time></trkpt><trkpt lat="45.6482385" lon="10.9998705"><ele>1158.1666666666665</ele><time>2026-05-02T12:00:13.012Z</time></trkpt><trkpt lat="45.6483094" lon="10.9998175"><ele>1159.0</ele><time>2026-05-02T12:00:13.979Z</time></trkpt><trkpt lat="45.648383" lon="10.9997538"><ele>1159.0</ele><time>2026-05-02T12:00:14.982Z</time></trkpt><trkpt lat="45.6484604" lon="10.9997038"><ele>1159.0</ele><time>2026-05-02T12:00:15.976Z</time></trkpt><trkpt lat="45.6485308" lon="10.9996371"><ele>1159.0</ele><time>2026-05-02T12:00:16.974Z</time></trkpt><trkpt lat="45.6485934" lon="10.9995665"><ele>1159.0</ele><time>2026-05-02T12:00:17.986Z</time></trkpt><trkpt lat="45.6486581" lon="10.9994857"><ele>1159.0</ele><time>2026-05-02T12:00:18.968Z</time></trkpt><trkpt lat="45.6487255" lon="10.9993939"><ele>1159.0</ele><time>2026-05-02T12:00:19.982Z</time></trkpt><trkpt lat="45.6488071" lon="10.999325"><ele>1161.0</ele><time>2026-05-02T12:00:20.984Z</time></trkpt><trkpt lat="45.6488986" lon="10.9992993"><ele>1163.0</ele><time>2026-05-02T12:00:21.971Z</time></trkpt><trkpt lat="45.6489865" lon="10.9992766"><ele>1165.0</ele><time>2026-05-02T12:00:22.981Z</time></trkpt><trkpt lat="45.6490709" lon="10.9992513"><ele>1167.0</ele><time>2026-05-02T12:00:23.986Z</time></trkpt><trkpt lat="45.6491579" lon="10.9992292"><ele>1169.0</ele><time>2026-05-02T12:00:24.986Z</time></trkpt><trkpt lat="45.6492519" lon="10.999214"><ele>1169.0</ele><time>2026-05-02T12:00:25.979Z</time></trkpt><trkpt lat="45.6493503" lon="10.9992056"><ele>1169.0</ele><time>2026-05-02T12:00:26.977Z</time></trkpt><trkpt lat="45.6494467" lon="10.9992"><ele>1169.0</ele><time>2026-05-02T12:00:27.976Z</time></trkpt><trkpt lat="45.6495454" lon="10.9991971"><ele>1169.0</ele><time>2026-05-02T12:00:28.982Z</time></trkpt><trkpt lat="45.649641" lon="10.9992029"><ele>1169.0</ele><time>2026-05-02T12:00:29.985Z</time></trkpt><trkpt lat="45.6497283" lon="10.9992075"><ele>1171.0</ele><time>2026-05-02T12:00:30.983Z</time></trkpt><trkpt lat="45.6498162" lon="10.9992174"><ele>1173.0</ele><time>2026-05-02T12:00:31.975Z</time></trkpt><trkpt lat="45.6499093" lon="10.9992386"><ele>1175.0</ele><time>2026-05-02T12:00:32.988Z</time></trkpt><trkpt lat="45.6500059" lon="10.9992679"><ele>1177.0</ele><time>2026-05-02T12:00:33.98Z</time></trkpt><trkpt lat="45.6501097" lon="10.9992929"><ele>1179.0</ele><time>2026-05-02T12:00:34.98Z</time></trkpt><trkpt lat="45.6502191" lon="10.9993041"><ele>1179.5</ele><time>2026-05-02T12:00:35.988Z</time></trkpt><trkpt lat="45.6503212" lon="10.9993076"><ele>1180.0</ele><time>2026-05-02T12:00:36.976Z</time></trkpt><trkpt lat="45.6504114" lon="10.9992907"><ele>1180.5</ele><time>2026-05-02T12:00:37.985Z</time></trkpt><trkpt lat="45.6504941" lon="10.999259"><ele>1181.0</ele><time>2026-05-02T12:00:38.982Z</time></trkpt><trkpt lat="45.6505616" lon="10.9992032"><ele>1181.5</ele><time>2026-05-02T12:00:39.984Z</time></trkpt><trkpt lat="45.6506247" lon="10.9991149"><ele>1182.0</ele><time>2026-05-02T12:00:40.977Z</time></trkpt><trkpt lat="45.6506795" lon="10.9990039"><ele>1182.0</ele><time>2026-05-02T12:00:41.982Z</time></trkpt><trkpt lat="45.6507301" lon="10.9988844"><ele>1182.0</ele><time>2026-05-02T12:00:42.973Z</time></trkpt><trkpt lat="45.6507883" lon="10.9987719"><ele>1182.0</ele><time>2026-05-02T12:00:43.974Z</time></trkpt><trkpt lat="45.6508574" lon="10.9986611"><ele>1182.0</ele><time>2026-05-02T12:00:44.981Z</time></trkpt><trkpt lat="45.6509313" lon="10.9985618"><ele>1182.0</ele><time>2026-05-02T12:00:45.969Z</time></trkpt><trkpt lat="45.651005" lon="10.9984643"><ele>1182.0</ele><time>2026-05-02T12:00:46.981Z</time></trkpt><trkpt lat="45.6510811" lon="10.9983656"><ele>1182.0</ele><time>2026-05-02T12:00:47.972Z</time></trkpt><trkpt lat="45.6511493" lon="10.998262"><ele>1182.0</ele><time>2026-05-02T12:00:48.986Z</time></trkpt><trkpt lat="45.6512165" lon="10.9981503"><ele>1182.0</ele><time>2026-05-02T12:00:49.992Z</time></trkpt><trkpt lat="45.651256" lon="10.9980196"><ele>1182.0</ele><time>2026-05-02T12:00:50.982Z</time></trkpt><trkpt lat="45.6512721" lon="10.9979066"><ele>1184.1666666666667</ele><time>2026-05-02T12:00:51.985Z</time></trkpt><trkpt lat="45.6512783" lon="10.9978058"><ele>1186.3333333333333</ele><time>2026-05-02T12:00:52.988Z</time></trkpt><trkpt lat="45.6513186" lon="10.997688"><ele>1188.5</ele><time>2026-05-02T12:00:54.966Z</time></trkpt><trkpt lat="45.6513929" lon="10.9977532"><ele>1190.6666666666665</ele><time>2026-05-02T12:00:56.982Z</time></trkpt><trkpt lat="45.6514181" lon="10.9978407"><ele>1192.8333333333333</ele><time>2026-05-02T12:00:57.98Z</time></trkpt><trkpt lat="45.6514554" lon="10.9979478"><ele>1195.0</ele><time>2026-05-02T12:00:58.987Z</time></trkpt><trkpt lat="45.6515115" lon="10.9980904"><ele>1195.0</ele><time>2026-05-02T12:00:59.972Z</time></trkpt><trkpt lat="45.6515799" lon="10.9982191"><ele>1195.0</ele><time>2026-05-02T12:01:00.98Z</time></trkpt><trkpt lat="45.6516595" lon="10.9983321"><ele>1195.0</ele><time>2026-05-02T12:01:01.975Z</time></trkpt><trkpt lat="45.6517425" lon="10.9984272"><ele>1195.0</ele><time>2026-05-02T12:01:02.979Z</time></trkpt><trkpt lat="45.6518389" lon="10.9985178"><ele>1195.0</ele><time>2026-05-02T12:01:03.978Z</time></trkpt><trkpt lat="45.6519455" lon="10.9986132"><ele>1198.2</ele><time>2026-05-02T12:01:04.988Z</time></trkpt><trkpt lat="45.6520522" lon="10.9987067"><ele>1201.4</ele><time>2026-05-02T12:01:05.977Z</time></trkpt><trkpt lat="45.6521525" lon="10.9987989"><ele>1204.6</ele><time>2026-05-02T12:01:06.98Z</time></trkpt><trkpt lat="45.6522339" lon="10.9988833"><ele>1207.8</ele><time>2026-05-02T12:01:07.979Z</time></trkpt><trkpt lat="45.6523126" lon="10.9989688"><ele>1211.0</ele><time>2026-05-02T12:01:08.982Z</time></trkpt><trkpt lat="45.6523962" lon="10.9990759"><ele>1206.25</ele><time>2026-05-02T12:01:09.981Z</time></trkpt><trkpt lat="45.6524931" lon="10.9992007"><ele>1201.5</ele><time>2026-05-02T12:01:10.984Z</time></trkpt><trkpt lat="45.6525834" lon="10.9993326"><ele>1196.75</ele><time>2026-05-02T12:01:11.978Z</time></trkpt><trkpt lat="45.6526659" lon="10.9994747"><ele>1192.0</ele><time>2026-05-02T12:01:12.981Z</time></trkpt><trkpt lat="45.6527462" lon="10.999622"><ele>1204.25</ele><time>2026-05-02T12:01:13.97Z</time></trkpt><trkpt lat="45.6528257" lon="10.9997808"><ele>1216.5</ele><time>2026-05-02T12:01:14.98Z</time></trkpt><trkpt lat="45.6529032" lon="10.9999361"><ele>1228.75</ele><time>2026-05-02T12:01:15.97Z</time></trkpt><trkpt lat="45.6529798" lon="11.0000911"><ele>1241.0</ele><time>2026-05-02T12:01:16.979Z</time></trkpt><trkpt lat="45.6530513" lon="11.0002464"><ele>1241.0</ele><time>2026-05-02T12:01:17.973Z</time></trkpt><trkpt lat="45.6531261" lon="11.0004098"><ele>1241.0</ele><time>2026-05-02T12:01:18.982Z</time></trkpt><trkpt lat="45.6531922" lon="11.0005719"><ele>1241.0</ele><time>2026-05-02T12:01:19.968Z</time></trkpt><trkpt lat="45.65326" lon="11.0007451"><ele>1241.0</ele><time>2026-05-02T12:01:20.985Z</time></trkpt><trkpt lat="45.6533267" lon="11.0009192"><ele>1235.75</ele><time>2026-05-02T12:01:21.979Z</time></trkpt><trkpt lat="45.653396" lon="11.0010943"><ele>1230.5</ele><time>2026-05-02T12:01:22.984Z</time></trkpt><trkpt lat="45.6534651" lon="11.0012639"><ele>1225.25</ele><time>2026-05-02T12:01:23.976Z</time></trkpt><trkpt lat="45.6535287" lon="11.0014129"><ele>1220.0</ele><time>2026-05-02T12:01:24.969Z</time></trkpt><trkpt lat="45.653595" lon="11.0015478"><ele>1220.4</ele><time>2026-05-02T12:01:25.975Z</time></trkpt><trkpt lat="45.6536662" lon="11.0016623"><ele>1220.8</ele><time>2026-05-02T12:01:26.981Z</time></trkpt><trkpt lat="45.6537353" lon="11.0017409"><ele>1221.2</ele><time>2026-05-02T12:01:27.978Z</time></trkpt><trkpt lat="45.6538143" lon="11.001798"><ele>1221.6</ele><time>2026-05-02T12:01:28.982Z</time></trkpt><trkpt lat="45.653907" lon="11.0018137"><ele>1222.0</ele><time>2026-05-02T12:01:29.977Z</time></trkpt><trkpt lat="45.6539949" lon="11.0018046"><ele>1222.0</ele><time>2026-05-02T12:01:30.984Z</time></trkpt><trkpt lat="45.654077" lon="11.0017808"><ele>1222.0</ele><time>2026-05-02T12:01:31.983Z</time></trkpt><trkpt lat="45.6541493" lon="11.0017254"><ele>1222.0</ele><time>2026-05-02T12:01:32.991Z</time></trkpt><trkpt lat="45.6542012" lon="11.0016329"><ele>1222.0</ele><time>2026-05-02T12:01:33.972Z</time></trkpt><trkpt lat="45.6542554" lon="11.0015278"><ele>1222.0</ele><time>2026-05-02T12:01:34.972Z</time></trkpt><trkpt lat="45.6543085" lon="11.0014104"><ele>1222.0</ele><time>2026-05-02T12:01:35.984Z</time></trkpt><trkpt lat="45.6543606" lon="11.0012881"><ele>1225.3333333333333</ele><time>2026-05-02T12:01:36.976Z</time></trkpt><trkpt lat="45.6544036" lon="11.0011667"><ele>1228.6666666666665</ele><time>2026-05-02T12:01:37.98Z</time></trkpt><trkpt lat="45.6544527" lon="11.0010812"><ele>1232.0</ele><time>2026-05-02T12:01:38.985Z</time></trkpt><trkpt lat="45.6545533" lon="11.0010745"><ele>1235.3333333333333</ele><time>2026-05-02T12:01:40.979Z</time></trkpt><trkpt lat="45.6546393" lon="11.00114"><ele>1238.6666666666667</ele><time>2026-05-02T12:01:42.996Z</time></trkpt><trkpt lat="45.654681" lon="11.0012149"><ele>1242.0</ele><time>2026-05-02T12:01:43.964Z</time></trkpt><trkpt lat="45.6547117" lon="11.001301"><ele>1242.3333333333333</ele><time>2026-05-02T12:01:44.971Z</time></trkpt><trkpt lat="45.6547435" lon="11.0013996"><ele>1242.6666666666667</ele><time>2026-05-02T12:01:45.973Z</time></trkpt><trkpt lat="45.6547688" lon="11.0014982"><ele>1243.0</ele><time>2026-05-02T12:01:46.978Z</time></trkpt><trkpt lat="45.6547922" lon="11.0016131"><ele>1243.3333333333335</ele><time>2026-05-02T12:01:47.977Z</time></trkpt><trkpt lat="45.6548302" lon="11.0017522"><ele>1243.6666666666667</ele><time>2026-05-02T12:01:48.984Z</time></trkpt><trkpt lat="45.6548758" lon="11.0018926"><ele>1244.0</ele><time>2026-05-02T12:01:49.984Z</time></trkpt><trkpt lat="45.6549119" lon="11.0020284"><ele>1243.0</ele><time>2026-05-02T12:01:50.977Z</time></trkpt><trkpt lat="45.6549457" lon="11.0021594"><ele>1242.0</ele><time>2026-05-02T12:01:51.981Z</time></trkpt><trkpt lat="45.6549883" lon="11.0022981"><ele>1241.0</ele><time>2026-05-02T12:01:52.987Z</time></trkpt><trkpt lat="45.65503" lon="11.0024367"><ele>1240.0</ele><time>2026-05-02T12:01:53.974Z</time></trkpt><trkpt lat="45.6550727" lon="11.0025766"><ele>1239.0</ele><time>2026-05-02T12:01:54.971Z</time></trkpt><trkpt lat="45.6551166" lon="11.0027189"><ele>1236.0</ele><time>2026-05-02T12:01:55.976Z</time></trkpt><trkpt lat="45.6551626" lon="11.0028723"><ele>1233.0</ele><time>2026-05-02T12:01:56.982Z</time></trkpt><trkpt lat="45.6552104" lon="11.003032"><ele>1230.0</ele><time>2026-05-02T12:01:57.975Z</time></trkpt><trkpt lat="45.6552547" lon="11.0031854"><ele>1227.0</ele><time>2026-05-02T12:01:58.982Z</time></trkpt><trkpt lat="45.6552963" lon="11.0033257"><ele>1232.8</ele><time>2026-05-02T12:01:59.964Z</time></trkpt><trkpt lat="45.655333" lon="11.0034667"><ele>1238.6</ele><time>2026-05-02T12:02:00.977Z</time></trkpt><trkpt lat="45.655365" lon="11.0036082"><ele>1244.3999999999999</ele><time>2026-05-02T12:02:01.971Z</time></trkpt><trkpt lat="45.6553847" lon="11.0037539"><ele>1250.2</ele><time>2026-05-02T12:02:02.976Z</time></trkpt><trkpt lat="45.6553909" lon="11.0039159"><ele>1256.0</ele><time>2026-05-02T12:02:03.973Z</time></trkpt><trkpt lat="45.6553844" lon="11.0040828"><ele>1255.5</ele><time>2026-05-02T12:02:04.978Z</time></trkpt><trkpt lat="45.6553651" lon="11.0042452"><ele>1255.0</ele><time>2026-05-02T12:02:05.971Z</time></trkpt><trkpt lat="45.6553482" lon="11.0044106"><ele>1254.5</ele><time>2026-05-02T12:02:06.979Z</time></trkpt><trkpt lat="45.655329" lon="11.0045699"><ele>1254.0</ele><time>2026-05-02T12:02:07.982Z</time></trkpt><trkpt lat="45.6553073" lon="11.0047293"><ele>1254.0</ele><time>2026-05-02T12:02:08.974Z</time></trkpt><trkpt lat="45.6552885" lon="11.0048775"><ele>1254.0</ele><time>2026-05-02T12:02:09.978Z</time></trkpt><trkpt lat="45.655295" lon="11.0050177"><ele>1254.0</ele><time>2026-05-02T12:02:10.981Z</time></trkpt><trkpt lat="45.6553226" lon="11.0051584"><ele>1254.0</ele><time>2026-05-02T12:02:11.973Z</time></trkpt><trkpt lat="45.6553572" lon="11.0053032"><ele>1254.0</ele><time>2026-05-02T12:02:12.975Z</time></trkpt><trkpt lat="45.6553891" lon="11.0054514"><ele>1254.0</ele><time>2026-05-02T12:02:13.969Z</time></trkpt><trkpt lat="45.6554046" lon="11.0056052"><ele>1254.0</ele><time>2026-05-02T12:02:14.976Z</time></trkpt><trkpt lat="45.6553971" lon="11.0057625"><ele>1254.0</ele><time>2026-05-02T12:02:15.961Z</time></trkpt><trkpt lat="45.6553664" lon="11.0059129"><ele>1254.0</ele><time>2026-05-02T12:02:16.972Z</time></trkpt><trkpt lat="45.6553425" lon="11.0060603"><ele>1254.0</ele><time>2026-05-02T12:02:17.96Z</time></trkpt><trkpt lat="45.6553135" lon="11.006212"><ele>1253.4</ele><time>2026-05-02T12:02:18.961Z</time></trkpt><trkpt lat="45.6552964" lon="11.0063696"><ele>1252.8000000000002</ele><time>2026-05-02T12:02:19.966Z</time></trkpt><trkpt lat="45.6552895" lon="11.0065239"><ele>1252.1999999999998</ele><time>2026-05-02T12:02:20.976Z</time></trkpt><trkpt lat="45.6552948" lon="11.0066748"><ele>1251.6</ele><time>2026-05-02T12:02:21.966Z</time></trkpt><trkpt lat="45.6553071" lon="11.0068315"><ele>1251.0</ele><time>2026-05-02T12:02:22.978Z</time></trkpt><trkpt lat="45.6553208" lon="11.0069858"><ele>1250.2</ele><time>2026-05-02T12:02:23.979Z</time></trkpt><trkpt lat="45.6553271" lon="11.007124"><ele>1249.3999999999999</ele><time>2026-05-02T12:02:24.98Z</time></trkpt><trkpt lat="45.6553524" lon="11.0072541"><ele>1248.6</ele><time>2026-05-02T12:02:25.982Z</time></trkpt><trkpt lat="45.6554072" lon="11.0073654"><ele>1247.8</ele><time>2026-05-02T12:02:26.983Z</time></trkpt><trkpt lat="45.655475" lon="11.0074219"><ele>1247.0</ele><time>2026-05-02T12:02:27.982Z</time></trkpt><trkpt lat="45.6555679" lon="11.0074105"><ele>1247.0</ele><time>2026-05-02T12:02:28.983Z</time></trkpt><trkpt lat="45.655663" lon="11.0073504"><ele>1247.0</ele><time>2026-05-02T12:02:29.981Z</time></trkpt><trkpt lat="45.6557587" lon="11.0072774"><ele>1247.0</ele><time>2026-05-02T12:02:30.966Z</time></trkpt><trkpt lat="45.6558602" lon="11.0072045"><ele>1247.0</ele><time>2026-05-02T12:02:31.958Z</time></trkpt><trkpt lat="45.6559526" lon="11.0071305"><ele>1247.0</ele><time>2026-05-02T12:02:32.972Z</time></trkpt><trkpt lat="45.656034" lon="11.0070542"><ele>1247.0</ele><time>2026-05-02T12:02:33.978Z</time></trkpt><trkpt lat="45.6560955" lon="11.0069557"><ele>1247.0</ele><time>2026-05-02T12:02:34.966Z</time></trkpt><trkpt lat="45.6561342" lon="11.0068387"><ele>1247.0</ele><time>2026-05-02T12:02:35.978Z</time></trkpt><trkpt lat="45.6561443" lon="11.0067225"><ele>1247.0</ele><time>2026-05-02T12:02:36.983Z</time></trkpt><trkpt lat="45.656129" lon="11.0066063"><ele>1247.0</ele><time>2026-05-02T12:02:37.955Z</time></trkpt><trkpt lat="45.6561112" lon="11.0064876"><ele>1247.0</ele><time>2026-05-02T12:02:38.982Z</time></trkpt><trkpt lat="45.6560929" lon="11.006351"><ele>1247.8</ele><time>2026-05-02T12:02:39.981Z</time></trkpt><trkpt lat="45.6560839" lon="11.0061947"><ele>1248.6</ele><time>2026-05-02T12:02:40.992Z</time></trkpt><trkpt lat="45.6561011" lon="11.0060402"><ele>1249.3999999999999</ele><time>2026-05-02T12:02:41.97Z</time></trkpt><trkpt lat="45.6561548" lon="11.0058971"><ele>1250.2</ele><time>2026-05-02T12:02:42.981Z</time></trkpt><trkpt lat="45.656214" lon="11.0057692"><ele>1251.0</ele><time>2026-05-02T12:02:43.98Z</time></trkpt><trkpt lat="45.6562776" lon="11.0056389"><ele>1251.75</ele><time>2026-05-02T12:02:44.972Z</time></trkpt><trkpt lat="45.6563393" lon="11.0055125"><ele>1252.5</ele><time>2026-05-02T12:02:45.982Z</time></trkpt><trkpt lat="45.6564088" lon="11.005381"><ele>1253.25</ele><time>2026-05-02T12:02:46.974Z</time></trkpt><trkpt lat="45.65649" lon="11.0052226"><ele>1254.0</ele><time>2026-05-02T12:02:47.973Z</time></trkpt><trkpt lat="45.6565659" lon="11.0050587"><ele>1257.25</ele><time>2026-05-02T12:02:48.967Z</time></trkpt><trkpt lat="45.6566391" lon="11.0049036"><ele>1260.5</ele><time>2026-05-02T12:02:49.971Z</time></trkpt><trkpt lat="45.6567027" lon="11.0047645"><ele>1263.75</ele><time>2026-05-02T12:02:50.983Z</time></trkpt><trkpt lat="45.6567655" lon="11.0046303"><ele>1267.0</ele><time>2026-05-02T12:02:51.985Z</time></trkpt><trkpt lat="45.6568438" lon="11.0044904"><ele>1267.0</ele><time>2026-05-02T12:02:52.977Z</time></trkpt><trkpt lat="45.6569423" lon="11.0043624"><ele>1267.0</ele><time>2026-05-02T12:02:53.978Z</time></trkpt><trkpt lat="45.6570475" lon="11.0042433"><ele>1267.0</ele><time>2026-05-02T12:02:54.986Z</time></trkpt><trkpt lat="45.6571444" lon="11.0041248"><ele>1267.0</ele><time>2026-05-02T12:02:55.984Z</time></trkpt><trkpt lat="45.6572355" lon="11.0040126"><ele>1270.75</ele><time>2026-05-02T12:02:56.985Z</time></trkpt><trkpt lat="45.6573279" lon="11.0039106"><ele>1274.5</ele><time>2026-05-02T12:02:57.969Z</time></trkpt><trkpt lat="45.6574264" lon="11.0038338"><ele>1278.25</ele><time>2026-05-02T12:02:58.969Z</time></trkpt><trkpt lat="45.6575339" lon="11.0037865"><ele>1282.0</ele><time>2026-05-02T12:02:59.971Z</time></trkpt><trkpt lat="45.6576434" lon="11.0037593"><ele>1282.0</ele><time>2026-05-02T12:03:00.973Z</time></trkpt><trkpt lat="45.6577603" lon="11.0037409"><ele>1282.0</ele><time>2026-05-02T12:03:01.979Z</time></trkpt><trkpt lat="45.6578828" lon="11.0037418"><ele>1282.0</ele><time>2026-05-02T12:03:02.98Z</time></trkpt><trkpt lat="45.6580031" lon="11.0037695"><ele>1282.0</ele><time>2026-05-02T12:03:03.987Z</time></trkpt><trkpt lat="45.6581242" lon="11.0038392"><ele>1282.5</ele><time>2026-05-02T12:03:04.977Z</time></trkpt><trkpt lat="45.6582626" lon="11.0039202"><ele>1283.0</ele><time>2026-05-02T12:03:05.97Z</time></trkpt><trkpt lat="45.6584013" lon="11.0039889"><ele>1283.5</ele><time>2026-05-02T12:03:06.973Z</time></trkpt><trkpt lat="45.6585442" lon="11.0040626"><ele>1284.0</ele><time>2026-05-02T12:03:08.04Z</time></trkpt><trkpt lat="45.6586873" lon="11.0041336"><ele>1281.75</ele><time>2026-05-02T12:03:09.039Z</time></trkpt><trkpt lat="45.6588163" lon="11.0041935"><ele>1279.5</ele><time>2026-05-02T12:03:09.96Z</time></trkpt><trkpt lat="45.6589337" lon="11.0042423"><ele>1277.25</ele><time>2026-05-02T12:03:10.969Z</time></trkpt><trkpt lat="45.6590429" lon="11.0042895"><ele>1275.0</ele><time>2026-05-02T12:03:11.976Z</time></trkpt><trkpt lat="45.6591394" lon="11.0043312"><ele>1275.0</ele><time>2026-05-02T12:03:12.973Z</time></trkpt><trkpt lat="45.6592254" lon="11.004351"><ele>1275.0</ele><time>2026-05-02T12:03:13.975Z</time></trkpt><trkpt lat="45.6593094" lon="11.0043408"><ele>1275.0</ele><time>2026-05-02T12:03:14.973Z</time></trkpt><trkpt lat="45.6593786" lon="11.0042778"><ele>1275.0</ele><time>2026-05-02T12:03:15.975Z</time></trkpt><trkpt lat="45.6594152" lon="11.0041959"><ele>1275.0</ele><time>2026-05-02T12:03:17.075Z</time></trkpt><trkpt lat="45.6594103" lon="11.0040966"><ele>1275.0</ele><time>2026-05-02T12:03:18.043Z</time></trkpt><trkpt lat="45.6593615" lon="11.0040101"><ele>1277.8</ele><time>2026-05-02T12:03:19.054Z</time></trkpt><trkpt lat="45.6592977" lon="11.0039541"><ele>1280.6</ele><time>2026-05-02T12:03:19.968Z</time></trkpt><trkpt lat="45.6592063" lon="11.0038967"><ele>1283.4</ele><time>2026-05-02T12:03:20.983Z</time></trkpt><trkpt lat="45.6590954" lon="11.0038377"><ele>1286.2</ele><time>2026-05-02T12:03:21.977Z</time></trkpt><trkpt lat="45.6589833" lon="11.003775"><ele>1289.0</ele><time>2026-05-02T12:03:22.975Z</time></trkpt><trkpt lat="45.6588699" lon="11.0036886"><ele>1289.0</ele><time>2026-05-02T12:03:23.978Z</time></trkpt><trkpt lat="45.6587554" lon="11.003604"><ele>1289.0</ele><time>2026-05-02T12:03:24.998Z</time></trkpt><trkpt lat="45.6586484" lon="11.0035402"><ele>1289.0</ele><time>2026-05-02T12:03:25.966Z</time></trkpt><trkpt lat="45.6585457" lon="11.0034825"><ele>1289.0</ele><time>2026-05-02T12:03:26.981Z</time></trkpt><trkpt lat="45.6584237" lon="11.0034317"><ele>1287.75</ele><time>2026-05-02T12:03:27.981Z</time></trkpt><trkpt lat="45.6582852" lon="11.003379"><ele>1286.5</ele><time>2026-05-02T12:03:28.979Z</time></trkpt><trkpt lat="45.6581387" lon="11.0033318"><ele>1285.25</ele><time>2026-05-02T12:03:29.98Z</time></trkpt><trkpt lat="45.6579949" lon="11.0032834"><ele>1284.0</ele><time>2026-05-02T12:03:30.984Z</time></trkpt><trkpt lat="45.6578716" lon="11.0032337"><ele>1288.25</ele><time>2026-05-02T12:03:31.986Z</time></trkpt><trkpt lat="45.6577596" lon="11.0031816"><ele>1292.5</ele><time>2026-05-02T12:03:32.987Z</time></trkpt><trkpt lat="45.6576485" lon="11.00312"><ele>1296.75</ele><time>2026-05-02T12:03:34.037Z</time></trkpt><trkpt lat="45.6575355" lon="11.003048"><ele>1301.0</ele><time>2026-05-02T12:03:35.042Z</time></trkpt><trkpt lat="45.6574136" lon="11.0029824"><ele>1301.0</ele><time>2026-05-02T12:03:35.972Z</time></trkpt><trkpt lat="45.6572974" lon="11.002914"><ele>1301.0</ele><time>2026-05-02T12:03:36.981Z</time></trkpt><trkpt lat="45.6571787" lon="11.002834"><ele>1301.0</ele><time>2026-05-02T12:03:37.99Z</time></trkpt><trkpt lat="45.6570584" lon="11.0027458"><ele>1301.0</ele><time>2026-05-02T12:03:39.026Z</time></trkpt><trkpt lat="45.6569554" lon="11.0026609"><ele>1301.0</ele><time>2026-05-02T12:03:40.038Z</time></trkpt><trkpt lat="45.6568786" lon="11.002564"><ele>1301.0</ele><time>2026-05-02T12:03:40.98Z</time></trkpt><trkpt lat="45.6568153" lon="11.0024409"><ele>1301.0</ele><time>2026-05-02T12:03:41.979Z</time></trkpt><trkpt lat="45.6567602" lon="11.0023159"><ele>1301.0</ele><time>2026-05-02T12:03:42.996Z</time></trkpt><trkpt lat="45.6567077" lon="11.0021631"><ele>1301.0</ele><time>2026-05-02T12:03:44.04Z</time></trkpt><trkpt lat="45.6566468" lon="11.0020018"><ele>1301.0</ele><time>2026-05-02T12:03:44.962Z</time></trkpt><trkpt lat="45.6565837" lon="11.0018407"><ele>1301.0</ele><time>2026-05-02T12:03:45.967Z</time></trkpt><trkpt lat="45.656523" lon="11.0016854"><ele>1301.0</ele><time>2026-05-02T12:03:46.957Z</time></trkpt><trkpt lat="45.6564644" lon="11.0015255"><ele>1301.0</ele><time>2026-05-02T12:03:48.02Z</time></trkpt><trkpt lat="45.6564235" lon="11.0013728"><ele>1301.75</ele><time>2026-05-02T12:03:49.022Z</time></trkpt><trkpt lat="45.6564149" lon="11.0012077"><ele>1302.5</ele><time>2026-05-02T12:03:50.041Z</time></trkpt><trkpt lat="45.6564236" lon="11.0010371"><ele>1303.25</ele><time>2026-05-02T12:03:50.967Z</time></trkpt><trkpt lat="45.6564334" lon="11.0008637"><ele>1304.0</ele><time>2026-05-02T12:03:51.966Z</time></trkpt><trkpt lat="45.6564377" lon="11.0006955"><ele>1302.8000000000002</ele><time>2026-05-02T12:03:53.012Z</time></trkpt><trkpt lat="45.656434" lon="11.0005343"><ele>1301.6000000000001</ele><time>2026-05-02T12:03:53.963Z</time></trkpt><trkpt lat="45.656457" lon="11.0003956"><ele>1300.4</ele><time>2026-05-02T12:03:54.977Z</time></trkpt><trkpt lat="45.6565075" lon="11.0002872"><ele>1299.2</ele><time>2026-05-02T12:03:55.969Z</time></trkpt><trkpt lat="45.6565906" lon="11.0002164"><ele>1298.0</ele><time>2026-05-02T12:03:56.967Z</time></trkpt><trkpt lat="45.6566856" lon="11.0002144"><ele>1298.0</ele><time>2026-05-02T12:03:57.988Z</time></trkpt><trkpt lat="45.6567838" lon="11.0002501"><ele>1298.0</ele><time>2026-05-02T12:03:58.965Z</time></trkpt><trkpt lat="45.6568895" lon="11.0003166"><ele>1298.0</ele><time>2026-05-02T12:03:59.97Z</time></trkpt><trkpt lat="45.6569944" lon="11.0003917"><ele>1298.0</ele><time>2026-05-02T12:04:00.954Z</time></trkpt><trkpt lat="45.6571097" lon="11.0004718"><ele>1298.25</ele><time>2026-05-02T12:04:01.967Z</time></trkpt><trkpt lat="45.6572338" lon="11.0005651"><ele>1298.5</ele><time>2026-05-02T12:04:02.969Z</time></trkpt><trkpt lat="45.6573472" lon="11.0006515"><ele>1298.75</ele><time>2026-05-02T12:04:03.967Z</time></trkpt><trkpt lat="45.6574667" lon="11.0007377"><ele>1299.0</ele><time>2026-05-02T12:04:04.967Z</time></trkpt><trkpt lat="45.6575822" lon="11.0008242"><ele>1301.5</ele><time>2026-05-02T12:04:05.969Z</time></trkpt><trkpt lat="45.6576997" lon="11.0009074"><ele>1304.0</ele><time>2026-05-02T12:04:06.959Z</time></trkpt><trkpt lat="45.6578071" lon="11.0009793"><ele>1306.5</ele><time>2026-05-02T12:04:07.966Z</time></trkpt><trkpt lat="45.6579078" lon="11.0010487"><ele>1309.0</ele><time>2026-05-02T12:04:08.96Z</time></trkpt><trkpt lat="45.6580138" lon="11.0011268"><ele>1309.4</ele><time>2026-05-02T12:04:09.975Z</time></trkpt><trkpt lat="45.658109" lon="11.0011892"><ele>1309.8000000000002</ele><time>2026-05-02T12:04:10.959Z</time></trkpt><trkpt lat="45.6582003" lon="11.0012519"><ele>1310.1999999999998</ele><time>2026-05-02T12:04:11.949Z</time></trkpt><trkpt lat="45.6582921" lon="11.0013137"><ele>1310.6</ele><time>2026-05-02T12:04:12.968Z</time></trkpt><trkpt lat="45.6583842" lon="11.0013754"><ele>1311.0</ele><time>2026-05-02T12:04:13.967Z</time></trkpt><trkpt lat="45.6584686" lon="11.0014306"><ele>1311.0</ele><time>2026-05-02T12:04:15.03Z</time></trkpt><trkpt lat="45.6585486" lon="11.001486"><ele>1311.0</ele><time>2026-05-02T12:04:15.969Z</time></trkpt><trkpt lat="45.65864" lon="11.0015393"><ele>1311.0</ele><time>2026-05-02T12:04:16.967Z</time></trkpt><trkpt lat="45.6587362" lon="11.0015798"><ele>1311.0</ele><time>2026-05-02T12:04:17.967Z</time></trkpt><trkpt lat="45.65884" lon="11.0015988"><ele>1311.0</ele><time>2026-05-02T12:04:19.042Z</time></trkpt><trkpt lat="45.6589485" lon="11.0015939"><ele>1311.8</ele><time>2026-05-02T12:04:19.978Z</time></trkpt><trkpt lat="45.6590527" lon="11.0015665"><ele>1312.6</ele><time>2026-05-02T12:04:20.983Z</time></trkpt><trkpt lat="45.6591418" lon="11.0015258"><ele>1313.4</ele><time>2026-05-02T12:04:21.972Z</time></trkpt><trkpt lat="45.6592231" lon="11.0014765"><ele>1314.2</ele><time>2026-05-02T12:04:22.976Z</time></trkpt><trkpt lat="45.6592998" lon="11.001434"><ele>1315.0</ele><time>2026-05-02T12:04:24.044Z</time></trkpt><trkpt lat="45.6593793" lon="11.0013871"><ele>1317.0</ele><time>2026-05-02T12:04:24.965Z</time></trkpt><trkpt lat="45.6594616" lon="11.0013359"><ele>1319.0</ele><time>2026-05-02T12:04:25.978Z</time></trkpt><trkpt lat="45.6595491" lon="11.0012818"><ele>1321.0</ele><time>2026-05-02T12:04:26.981Z</time></trkpt><trkpt lat="45.6596405" lon="11.0012358"><ele>1323.0</ele><time>2026-05-02T12:04:27.999Z</time></trkpt><trkpt lat="45.6597317" lon="11.0011882"><ele>1325.0</ele><time>2026-05-02T12:04:28.989Z</time></trkpt><trkpt lat="45.659815" lon="11.001145"><ele>1325.0</ele><time>2026-05-02T12:04:29.978Z</time></trkpt><trkpt lat="45.6598839" lon="11.0010999"><ele>1325.0</ele><time>2026-05-02T12:04:30.965Z</time></trkpt><trkpt lat="45.6599494" lon="11.0010563"><ele>1325.0</ele><time>2026-05-02T12:04:31.981Z</time></trkpt><trkpt lat="45.6600185" lon="11.0010162"><ele>1325.0</ele><time>2026-05-02T12:04:32.986Z</time></trkpt><trkpt lat="45.660096" lon="11.0009687"><ele>1325.0</ele><time>2026-05-02T12:04:33.972Z</time></trkpt><trkpt lat="45.6601817" lon="11.0009193"><ele>1325.0</ele><time>2026-05-02T12:04:35Z</time></trkpt><trkpt lat="45.660274" lon="11.0008722"><ele>1326.8</ele><time>2026-05-02T12:04:35.983Z</time></trkpt><trkpt lat="45.6603703" lon="11.000825"><ele>1328.6</ele><time>2026-05-02T12:04:36.987Z</time></trkpt><trkpt lat="45.6604723" lon="11.00078"><ele>1330.4</ele><time>2026-05-02T12:04:37.981Z</time></trkpt><trkpt lat="45.6605823" lon="11.0007526"><ele>1332.2</ele><time>2026-05-02T12:04:38.97Z</time></trkpt><trkpt lat="45.6606894" lon="11.0007399"><ele>1334.0</ele><time>2026-05-02T12:04:39.986Z</time></trkpt><trkpt lat="45.6607892" lon="11.0007438"><ele>1334.0</ele><time>2026-05-02T12:04:40.983Z</time></trkpt><trkpt lat="45.6608835" lon="11.0007491"><ele>1334.0</ele><time>2026-05-02T12:04:41.975Z</time></trkpt><trkpt lat="45.6609753" lon="11.0007362"><ele>1334.0</ele><time>2026-05-02T12:04:42.988Z</time></trkpt><trkpt lat="45.6610717" lon="11.0007294"><ele>1334.0</ele><time>2026-05-02T12:04:43.973Z</time></trkpt><trkpt lat="45.6611711" lon="11.0007257"><ele>1334.0</ele><time>2026-05-02T12:04:44.974Z</time></trkpt><trkpt lat="45.661271" lon="11.0007346"><ele>1334.8000000000002</ele><time>2026-05-02T12:04:45.975Z</time></trkpt><trkpt lat="45.6613734" lon="11.0007562"><ele>1335.6000000000001</ele><time>2026-05-02T12:04:46.977Z</time></trkpt><trkpt lat="45.6614813" lon="11.0007958"><ele>1336.4</ele><time>2026-05-02T12:04:47.98Z</time></trkpt><trkpt lat="45.6615842" lon="11.0008337"><ele>1337.2</ele><time>2026-05-02T12:04:48.983Z</time></trkpt><trkpt lat="45.6616754" lon="11.0008747"><ele>1338.0</ele><time>2026-05-02T12:04:49.976Z</time></trkpt><trkpt lat="45.6617582" lon="11.0009122"><ele>1338.0</ele><time>2026-05-02T12:04:50.984Z</time></trkpt><trkpt lat="45.6618494" lon="11.0009569"><ele>1338.0</ele><time>2026-05-02T12:04:51.975Z</time></trkpt><trkpt lat="45.6619515" lon="11.0009996"><ele>1338.0</ele><time>2026-05-02T12:04:52.975Z</time></trkpt><trkpt lat="45.6620559" lon="11.0010279"><ele>1338.0</ele><time>2026-05-02T12:04:53.976Z</time></trkpt><trkpt lat="45.6621545" lon="11.0010501"><ele>1338.0</ele><time>2026-05-02T12:04:54.989Z</time></trkpt><trkpt lat="45.662254" lon="11.0010446"><ele>1338.8000000000002</ele><time>2026-05-02T12:04:55.97Z</time></trkpt><trkpt lat="45.6623407" lon="11.0009769"><ele>1339.6</ele><time>2026-05-02T12:04:56.975Z</time></trkpt><trkpt lat="45.662406" lon="11.0008785"><ele>1340.4</ele><time>2026-05-02T12:04:57.968Z</time></trkpt><trkpt lat="45.6624475" lon="11.0007494"><ele>1341.1999999999998</ele><time>2026-05-02T12:04:58.984Z</time></trkpt><trkpt lat="45.6624694" lon="11.0006096"><ele>1342.0</ele><time>2026-05-02T12:04:59.977Z</time></trkpt><trkpt lat="45.662483" lon="11.0004708"><ele>1344.1666666666665</ele><time>2026-05-02T12:05:00.977Z</time></trkpt><trkpt lat="45.6625167" lon="11.0003381"><ele>1346.3333333333333</ele><time>2026-05-02T12:05:01.988Z</time></trkpt><trkpt lat="45.6625675" lon="11.0002542"><ele>1348.5</ele><time>2026-05-02T12:05:02.967Z</time></trkpt><trkpt lat="45.6626295" lon="11.0002044"><ele>1350.6666666666667</ele><time>2026-05-02T12:05:03.983Z</time></trkpt><trkpt lat="45.6626963" lon="11.0001904"><ele>1352.8333333333335</ele><time>2026-05-02T12:05:04.986Z</time></trkpt><trkpt lat="45.6627736" lon="11.0002106"><ele>1355.0</ele><time>2026-05-02T12:05:05.982Z</time></trkpt><trkpt lat="45.6628533" lon="11.0002643"><ele>1356.3333333333335</ele><time>2026-05-02T12:05:06.981Z</time></trkpt><trkpt lat="45.6629264" lon="11.0003293"><ele>1357.6666666666667</ele><time>2026-05-02T12:05:07.979Z</time></trkpt><trkpt lat="45.6629952" lon="11.000403"><ele>1359.0</ele><time>2026-05-02T12:05:08.985Z</time></trkpt><trkpt lat="45.6630706" lon="11.0004839"><ele>1360.3333333333333</ele><time>2026-05-02T12:05:09.974Z</time></trkpt><trkpt lat="45.6631382" lon="11.0005545"><ele>1361.6666666666665</ele><time>2026-05-02T12:05:10.97Z</time></trkpt><trkpt lat="45.6631937" lon="11.0005999"><ele>1363.0</ele><time>2026-05-02T12:05:11.965Z</time></trkpt><trkpt lat="45.6632552" lon="11.0006354"><ele>1363.0</ele><time>2026-05-02T12:05:12.982Z</time></trkpt><trkpt lat="45.6633297" lon="11.000653"><ele>1363.0</ele><time>2026-05-02T12:05:13.983Z</time></trkpt><trkpt lat="45.6634069" lon="11.00064"><ele>1363.0</ele><time>2026-05-02T12:05:14.99Z</time></trkpt><trkpt lat="45.6634911" lon="11.0006178"><ele>1363.0</ele><time>2026-05-02T12:05:15.981Z</time></trkpt><trkpt lat="45.6635729" lon="11.0005845"><ele>1363.0</ele><time>2026-05-02T12:05:16.978Z</time></trkpt><trkpt lat="45.6636665" lon="11.0005443"><ele>1363.0</ele><time>2026-05-02T12:05:17.982Z</time></trkpt><trkpt lat="45.6637653" lon="11.0004958"><ele>1362.5</ele><time>2026-05-02T12:05:18.981Z</time></trkpt><trkpt lat="45.6638706" lon="11.0004464"><ele>1362.0</ele><time>2026-05-02T12:05:19.984Z</time></trkpt><trkpt lat="45.6639921" lon="11.0003836"><ele>1361.5</ele><time>2026-05-02T12:05:20.976Z</time></trkpt><trkpt lat="45.6641128" lon="11.0002816"><ele>1361.0</ele><time>2026-05-02T12:05:21.963Z</time></trkpt><trkpt lat="45.6642251" lon="11.0001521"><ele>1361.0</ele><time>2026-05-02T12:05:22.981Z</time></trkpt><trkpt lat="45.6643156" lon="11.0000319"><ele>1361.0</ele><time>2026-05-02T12:05:23.982Z</time></trkpt><trkpt lat="45.6643988" lon="10.9999253"><ele>1361.0</ele><time>2026-05-02T12:05:24.982Z</time></trkpt><trkpt lat="45.6644721" lon="10.9998183"><ele>1361.0</ele><time>2026-05-02T12:05:25.978Z</time></trkpt><trkpt lat="45.6645499" lon="10.9996999"><ele>1359.1999999999998</ele><time>2026-05-02T12:05:26.976Z</time></trkpt><trkpt lat="45.6646296" lon="10.9995853"><ele>1357.3999999999999</ele><time>2026-05-02T12:05:27.978Z</time></trkpt><trkpt lat="45.6647016" lon="10.9994847"><ele>1355.6</ele><time>2026-05-02T12:05:28.983Z</time></trkpt><trkpt lat="45.6647781" lon="10.9994137"><ele>1353.8</ele><time>2026-05-02T12:05:29.985Z</time></trkpt><trkpt lat="45.6648636" lon="10.9993732"><ele>1352.0</ele><time>2026-05-02T12:05:30.97Z</time></trkpt><trkpt lat="45.6649557" lon="10.9993501"><ele>1352.0</ele><time>2026-05-02T12:05:31.98Z</time></trkpt><trkpt lat="45.665051" lon="10.9993297"><ele>1352.0</ele><time>2026-05-02T12:05:32.975Z</time></trkpt><trkpt lat="45.665151" lon="10.9993083"><ele>1352.0</ele><time>2026-05-02T12:05:33.971Z</time></trkpt><trkpt lat="45.665251" lon="10.9992724"><ele>1352.0</ele><time>2026-05-02T12:05:34.975Z</time></trkpt><trkpt lat="45.6653515" lon="10.9992361"><ele>1352.0</ele><time>2026-05-02T12:05:35.979Z</time></trkpt><trkpt lat="45.6654545" lon="10.9992034"><ele>1355.3999999999999</ele><time>2026-05-02T12:05:36.981Z</time></trkpt><trkpt lat="45.6655581" lon="10.9991749"><ele>1358.8</ele><time>2026-05-02T12:05:37.973Z</time></trkpt><trkpt lat="45.66566" lon="10.9991529"><ele>1362.2</ele><time>2026-05-02T12:05:38.976Z</time></trkpt><trkpt lat="45.6657559" lon="10.9991554"><ele>1365.6</ele><time>2026-05-02T12:05:39.985Z</time></trkpt><trkpt lat="45.6658506" lon="10.9991971"><ele>1369.0</ele><time>2026-05-02T12:05:40.979Z</time></trkpt><trkpt lat="45.6659359" lon="10.999291"><ele>1369.0</ele><time>2026-05-02T12:05:41.972Z</time></trkpt><trkpt lat="45.6660009" lon="10.9993987"><ele>1369.0</ele><time>2026-05-02T12:05:42.98Z</time></trkpt><trkpt lat="45.666034" lon="10.9995369"><ele>1369.0</ele><time>2026-05-02T12:05:43.978Z</time></trkpt><trkpt lat="45.6660396" lon="10.9996812"><ele>1369.0</ele><time>2026-05-02T12:05:44.985Z</time></trkpt><trkpt lat="45.6660434" lon="10.9998093"><ele>1369.0</ele><time>2026-05-02T12:05:45.96Z</time></trkpt><trkpt lat="45.6660629" lon="10.99993"><ele>1369.0</ele><time>2026-05-02T12:05:46.979Z</time></trkpt><trkpt lat="45.6661047" lon="11.0000346"><ele>1369.0</ele><time>2026-05-02T12:05:47.984Z</time></trkpt><trkpt lat="45.6661735" lon="11.0001072"><ele>1369.0</ele><time>2026-05-02T12:05:48.981Z</time></trkpt><trkpt lat="45.6662688" lon="11.0001537"><ele>1369.0</ele><time>2026-05-02T12:05:49.975Z</time></trkpt><trkpt lat="45.6663586" lon="11.0001514"><ele>1369.0</ele><time>2026-05-02T12:05:50.972Z</time></trkpt><trkpt lat="45.6664504" lon="11.0001329"><ele>1371.6</ele><time>2026-05-02T12:05:51.979Z</time></trkpt><trkpt lat="45.6665502" lon="11.0001057"><ele>1374.2</ele><time>2026-05-02T12:05:52.977Z</time></trkpt><trkpt lat="45.666643" lon="11.0000601"><ele>1376.8</ele><time>2026-05-02T12:05:53.951Z</time></trkpt><trkpt lat="45.6667413" lon="10.9999972"><ele>1379.3999999999999</ele><time>2026-05-02T12:05:54.969Z</time></trkpt><trkpt lat="45.6668288" lon="10.9999128"><ele>1382.0</ele><time>2026-05-02T12:05:55.974Z</time></trkpt><trkpt lat="45.6669051" lon="10.9998051"><ele>1381.3999999999999</ele><time>2026-05-02T12:05:56.971Z</time></trkpt><trkpt lat="45.6669737" lon="10.9996984"><ele>1380.8</ele><time>2026-05-02T12:05:57.979Z</time></trkpt><trkpt lat="45.6670492" lon="10.9995932"><ele>1380.2</ele><time>2026-05-02T12:05:58.972Z</time></trkpt><trkpt lat="45.667129" lon="10.9995075"><ele>1379.6</ele><time>2026-05-02T12:05:59.978Z</time></trkpt><trkpt lat="45.6672318" lon="10.999451"><ele>1379.0</ele><time>2026-05-02T12:06:00.973Z</time></trkpt><trkpt lat="45.6673374" lon="10.9994073"><ele>1379.0</ele><time>2026-05-02T12:06:01.977Z</time></trkpt><trkpt lat="45.6674379" lon="10.9993815"><ele>1379.0</ele><time>2026-05-02T12:06:02.977Z</time></trkpt><trkpt lat="45.6675405" lon="10.9993774"><ele>1379.0</ele><time>2026-05-02T12:06:03.982Z</time></trkpt><trkpt lat="45.6676336" lon="10.999413"><ele>1379.0</ele><time>2026-05-02T12:06:05.003Z</time></trkpt><trkpt lat="45.6677239" lon="10.9994678"><ele>1379.0</ele><time>2026-05-02T12:06:05.972Z</time></trkpt><trkpt lat="45.6678104" lon="10.9995315"><ele>1381.8000000000002</ele><time>2026-05-02T12:06:06.974Z</time></trkpt><trkpt lat="45.6678994" lon="10.9996003"><ele>1384.6000000000001</ele><time>2026-05-02T12:06:07.972Z</time></trkpt><trkpt lat="45.6679914" lon="10.9996826"><ele>1387.4</ele><time>2026-05-02T12:06:08.965Z</time></trkpt><trkpt lat="45.6680845" lon="10.9997668"><ele>1390.2</ele><time>2026-05-02T12:06:09.973Z</time></trkpt><trkpt lat="45.6681658" lon="10.9998443"><ele>1393.0</ele><time>2026-05-02T12:06:10.977Z</time></trkpt><trkpt lat="45.6682538" lon="10.9999134"><ele>1393.0</ele><time>2026-05-02T12:06:11.979Z</time></trkpt><trkpt lat="45.6683354" lon="10.999967"><ele>1393.0</ele><time>2026-05-02T12:06:12.967Z</time></trkpt><trkpt lat="45.6684278" lon="11.0000119"><ele>1393.0</ele><time>2026-05-02T12:06:13.964Z</time></trkpt><trkpt lat="45.6685216" lon="11.0000416"><ele>1393.0</ele><time>2026-05-02T12:06:14.974Z</time></trkpt><trkpt lat="45.6686186" lon="11.0000698"><ele>1393.0</ele><time>2026-05-02T12:06:15.974Z</time></trkpt><trkpt lat="45.6687175" lon="11.0000943"><ele>1394.8000000000002</ele><time>2026-05-02T12:06:16.967Z</time></trkpt><trkpt lat="45.6688227" lon="11.0001101"><ele>1396.6</ele><time>2026-05-02T12:06:17.974Z</time></trkpt><trkpt lat="45.6689322" lon="11.000116"><ele>1398.4</ele><time>2026-05-02T12:06:18.966Z</time></trkpt><trkpt lat="45.6690384" lon="11.0001097"><ele>1400.1999999999998</ele><time>2026-05-02T12:06:19.976Z</time></trkpt><trkpt lat="45.6691368" lon="11.0000911"><ele>1402.0</ele><time>2026-05-02T12:06:20.974Z</time></trkpt><trkpt lat="45.6692284" lon="11.000064"><ele>1402.0</ele><time>2026-05-02T12:06:21.973Z</time></trkpt><trkpt lat="45.6693206" lon="11.0000298"><ele>1402.0</ele><time>2026-05-02T12:06:22.968Z</time></trkpt><trkpt lat="45.6694046" lon="10.9999868"><ele>1402.0</ele><time>2026-05-02T12:06:23.97Z</time></trkpt><trkpt lat="45.669487" lon="10.9999413"><ele>1402.0</ele><time>2026-05-02T12:06:24.982Z</time></trkpt><trkpt lat="45.669569" lon="10.9999044"><ele>1402.0</ele><time>2026-05-02T12:06:25.97Z</time></trkpt><trkpt lat="45.6696526" lon="10.9998812"><ele>1402.0</ele><time>2026-05-02T12:06:26.974Z</time></trkpt><trkpt lat="45.6697377" lon="10.9998953"><ele>1403.6</ele><time>2026-05-02T12:06:27.973Z</time></trkpt><trkpt lat="45.669823" lon="10.9999662"><ele>1405.1999999999998</ele><time>2026-05-02T12:06:28.973Z</time></trkpt><trkpt lat="45.6698836" lon="11.0000584"><ele>1406.8</ele><time>2026-05-02T12:06:29.972Z</time></trkpt><trkpt lat="45.669935" lon="11.00017"><ele>1408.4</ele><time>2026-05-02T12:06:30.975Z</time></trkpt><trkpt lat="45.6699851" lon="11.0002822"><ele>1410.0</ele><time>2026-05-02T12:06:31.979Z</time></trkpt><trkpt lat="45.670034" lon="11.0003724"><ele>1410.0</ele><time>2026-05-02T12:06:32.972Z</time></trkpt><trkpt lat="45.6700952" lon="11.0004492"><ele>1410.0</ele><time>2026-05-02T12:06:33.968Z</time></trkpt><trkpt lat="45.6701763" lon="11.0005018"><ele>1410.0</ele><time>2026-05-02T12:06:34.979Z</time></trkpt><trkpt lat="45.6702601" lon="11.0005287"><ele>1410.0</ele><time>2026-05-02T12:06:35.974Z</time></trkpt><trkpt lat="45.6703491" lon="11.0005431"><ele>1410.0</ele><time>2026-05-02T12:06:36.975Z</time></trkpt><trkpt lat="45.6704422" lon="11.0005463"><ele>1410.0</ele><time>2026-05-02T12:06:37.987Z</time></trkpt><trkpt lat="45.6705379" lon="11.0005425"><ele>1411.2</ele><time>2026-05-02T12:06:38.982Z</time></trkpt><trkpt lat="45.6706354" lon="11.0005418"><ele>1412.4</ele><time>2026-05-02T12:06:39.982Z</time></trkpt><trkpt lat="45.6707232" lon="11.0005402"><ele>1413.6</ele><time>2026-05-02T12:06:40.98Z</time></trkpt><trkpt lat="45.6707985" lon="11.0005414"><ele>1414.8</ele><time>2026-05-02T12:06:41.971Z</time></trkpt><trkpt lat="45.6708657" lon="11.0005604"><ele>1416.0</ele><time>2026-05-02T12:06:42.975Z</time></trkpt><trkpt lat="45.6709824" lon="11.0006111"><ele>1416.0</ele><time>2026-05-02T12:06:44.991Z</time></trkpt><trkpt lat="45.6710391" lon="11.0006532"><ele>1416.0</ele><time>2026-05-02T12:06:45.966Z</time></trkpt><trkpt lat="45.6711345" lon="11.0007209"><ele>1416.0</ele><time>2026-05-02T12:06:48Z</time></trkpt><trkpt lat="45.6712107" lon="11.0007115"><ele>1416.0</ele><time>2026-05-02T12:06:49.971Z</time></trkpt><trkpt lat="45.6712482" lon="11.0006106"><ele>1416.0</ele><time>2026-05-02T12:07:01.966Z</time></trkpt><trkpt lat="45.6711594" lon="11.0004657"><ele>1416.0</ele><time>2026-05-02T12:07:03.975Z</time></trkpt><trkpt lat="45.6710832" lon="11.0003801"><ele>1416.0</ele><time>2026-05-02T12:07:04.985Z</time></trkpt><trkpt lat="45.6710075" lon="11.0002935"><ele>1416.0</ele><time>2026-05-02T12:07:05.972Z</time></trkpt><trkpt lat="45.6709211" lon="11.0001799"><ele>1416.0</ele><time>2026-05-02T12:07:06.971Z</time></trkpt><trkpt lat="45.6708486" lon="11.0000818"><ele>1416.0</ele><time>2026-05-02T12:07:07.978Z</time></trkpt><trkpt lat="45.6707893" lon="11.0000118"><ele>1416.0</ele><time>2026-05-02T12:07:08.978Z</time></trkpt><trkpt lat="45.6707244" lon="10.9999314"><ele>1416.0</ele><time>2026-05-02T12:07:09.979Z</time></trkpt><trkpt lat="45.6706393" lon="10.9998337"><ele>1416.0</ele><time>2026-05-02T12:07:10.974Z</time></trkpt><trkpt lat="45.6705365" lon="10.9997213"><ele>1416.0</ele><time>2026-05-02T12:07:11.971Z</time></trkpt><trkpt lat="45.6704373" lon="10.999596"><ele>1416.0</ele><time>2026-05-02T12:07:12.97Z</time></trkpt><trkpt lat="45.6703436" lon="10.9994559"><ele>1416.0</ele><time>2026-05-02T12:07:13.973Z</time></trkpt><trkpt lat="45.6702583" lon="10.9993104"><ele>1416.0</ele><time>2026-05-02T12:07:14.978Z</time></trkpt><trkpt lat="45.6701668" lon="10.9991627"><ele>1416.0</ele><time>2026-05-02T12:07:15.976Z</time></trkpt><trkpt lat="45.6700628" lon="10.9990471"><ele>1418.25</ele><time>2026-05-02T12:07:16.951Z</time></trkpt><trkpt lat="45.6699328" lon="10.9989517"><ele>1420.5</ele><time>2026-05-02T12:07:17.959Z</time></trkpt><trkpt lat="45.6697929" lon="10.9988776"><ele>1422.75</ele><time>2026-05-02T12:07:18.973Z</time></trkpt><trkpt lat="45.669661" lon="10.9988248"><ele>1425.0</ele><time>2026-05-02T12:07:19.983Z</time></trkpt><trkpt lat="45.6695438" lon="10.9987795"><ele>1424.0</ele><time>2026-05-02T12:07:20.974Z</time></trkpt><trkpt lat="45.6694406" lon="10.99875"><ele>1423.0</ele><time>2026-05-02T12:07:21.976Z</time></trkpt><trkpt lat="45.6693421" lon="10.9987365"><ele>1422.0</ele><time>2026-05-02T12:07:22.974Z</time></trkpt><trkpt lat="45.6692556" lon="10.9987131"><ele>1421.0</ele><time>2026-05-02T12:07:23.974Z</time></trkpt><trkpt lat="45.6691736" lon="10.9986825"><ele>1420.0</ele><time>2026-05-02T12:07:24.973Z</time></trkpt><trkpt lat="45.6690936" lon="10.9986717"><ele>1420.0</ele><time>2026-05-02T12:07:25.979Z</time></trkpt><trkpt lat="45.6690099" lon="10.9986597"><ele>1420.0</ele><time>2026-05-02T12:07:26.976Z</time></trkpt><trkpt lat="45.6689205" lon="10.9986515"><ele>1420.0</ele><time>2026-05-02T12:07:27.981Z</time></trkpt><trkpt lat="45.6688297" lon="10.9986502"><ele>1420.0</ele><time>2026-05-02T12:07:28.985Z</time></trkpt><trkpt lat="45.6687441" lon="10.9986504"><ele>1420.0</ele><time>2026-05-02T12:07:29.977Z</time></trkpt><trkpt lat="45.668656" lon="10.9986482"><ele>1420.0</ele><time>2026-05-02T12:07:30.983Z</time></trkpt><trkpt lat="45.6685691" lon="10.9986439"><ele>1418.6</ele><time>2026-05-02T12:07:31.974Z</time></trkpt><trkpt lat="45.6684683" lon="10.9986378"><ele>1417.2</ele><time>2026-05-02T12:07:32.989Z</time></trkpt><trkpt lat="45.6683675" lon="10.9986251"><ele>1415.8000000000002</ele><time>2026-05-02T12:07:33.973Z</time></trkpt><trkpt lat="45.668275" lon="10.9986011"><ele>1414.4</ele><time>2026-05-02T12:07:34.985Z</time></trkpt><trkpt lat="45.6681876" lon="10.9985685"><ele>1413.0</ele><time>2026-05-02T12:07:35.976Z</time></trkpt><trkpt lat="45.6681054" lon="10.9985349"><ele>1413.0</ele><time>2026-05-02T12:07:36.973Z</time></trkpt><trkpt lat="45.6680231" lon="10.9985107"><ele>1413.0</ele><time>2026-05-02T12:07:37.959Z</time></trkpt><trkpt lat="45.6679376" lon="10.9984846"><ele>1413.0</ele><time>2026-05-02T12:07:38.954Z</time></trkpt><trkpt lat="45.6678436" lon="10.9984452"><ele>1413.0</ele><time>2026-05-02T12:07:39.978Z</time></trkpt><trkpt lat="45.6677509" lon="10.9984124"><ele>1413.0</ele><time>2026-05-02T12:07:40.971Z</time></trkpt><trkpt lat="45.6676557" lon="10.9983851"><ele>1410.4</ele><time>2026-05-02T12:07:41.956Z</time></trkpt><trkpt lat="45.6675636" lon="10.9983638"><ele>1407.8000000000002</ele><time>2026-05-02T12:07:42.95Z</time></trkpt><trkpt lat="45.6674745" lon="10.9983465"><ele>1405.2</ele><time>2026-05-02T12:07:43.96Z</time></trkpt><trkpt lat="45.6673845" lon="10.9983451"><ele>1402.6</ele><time>2026-05-02T12:07:44.957Z</time></trkpt><trkpt lat="45.667294" lon="10.998349"><ele>1400.0</ele><time>2026-05-02T12:07:45.965Z</time></trkpt><trkpt lat="45.6671992" lon="10.9983577"><ele>1400.0</ele><time>2026-05-02T12:07:46.953Z</time></trkpt><trkpt lat="45.6671042" lon="10.9983474"><ele>1400.0</ele><time>2026-05-02T12:07:47.963Z</time></trkpt><trkpt lat="45.6670112" lon="10.9983234"><ele>1400.0</ele><time>2026-05-02T12:07:48.961Z</time></trkpt><trkpt lat="45.6669228" lon="10.9982812"><ele>1400.0</ele><time>2026-05-02T12:07:49.957Z</time></trkpt><trkpt lat="45.6668317" lon="10.9982212"><ele>1400.0</ele><time>2026-05-02T12:07:50.982Z</time></trkpt><trkpt lat="45.6667418" lon="10.9981612"><ele>1400.2</ele><time>2026-05-02T12:07:51.967Z</time></trkpt><trkpt lat="45.6666566" lon="10.9980972"><ele>1400.4</ele><time>2026-05-02T12:07:52.972Z</time></trkpt><trkpt lat="45.6665732" lon="10.9980283"><ele>1400.6</ele><time>2026-05-02T12:07:53.955Z</time></trkpt><trkpt lat="45.6664673" lon="10.9979651"><ele>1400.8</ele><time>2026-05-02T12:07:54.968Z</time></trkpt><trkpt lat="45.6663523" lon="10.9979257"><ele>1401.0</ele><time>2026-05-02T12:07:55.974Z</time></trkpt><trkpt lat="45.666236" lon="10.9979091"><ele>1401.0</ele><time>2026-05-02T12:07:56.986Z</time></trkpt><trkpt lat="45.6661215" lon="10.9979055"><ele>1401.0</ele><time>2026-05-02T12:07:57.975Z</time></trkpt><trkpt lat="45.66601" lon="10.9979082"><ele>1401.0</ele><time>2026-05-02T12:07:58.966Z</time></trkpt><trkpt lat="45.6658904" lon="10.9979262"><ele>1401.0</ele><time>2026-05-02T12:07:59.979Z</time></trkpt><trkpt lat="45.6657673" lon="10.9979802"><ele>1399.25</ele><time>2026-05-02T12:08:00.985Z</time></trkpt><trkpt lat="45.6656454" lon="10.9980692"><ele>1397.5</ele><time>2026-05-02T12:08:01.958Z</time></trkpt><trkpt lat="45.6655327" lon="10.9981718"><ele>1395.75</ele><time>2026-05-02T12:08:02.979Z</time></trkpt><trkpt lat="45.6654452" lon="10.9982425"><ele>1394.0</ele><time>2026-05-02T12:08:03.979Z</time></trkpt><trkpt lat="45.6653728" lon="10.9982961"><ele>1391.5</ele><time>2026-05-02T12:08:04.969Z</time></trkpt><trkpt lat="45.6653138" lon="10.9983428"><ele>1389.0</ele><time>2026-05-02T12:08:05.967Z</time></trkpt><trkpt lat="45.6652224" lon="10.9984013"><ele>1386.5</ele><time>2026-05-02T12:08:07.983Z</time></trkpt><trkpt lat="45.6651569" lon="10.9984108"><ele>1384.0</ele><time>2026-05-02T12:08:10.979Z</time></trkpt><trkpt lat="45.6650793" lon="10.9984324"><ele>1381.5</ele><time>2026-05-02T12:08:22.978Z</time></trkpt><trkpt lat="45.665014" lon="10.9984992"><ele>1379.0</ele><time>2026-05-02T12:08:24.967Z</time></trkpt><trkpt lat="45.6649035" lon="10.9985611"><ele>1378.857142857143</ele><time>2026-05-02T12:08:26.962Z</time></trkpt><trkpt lat="45.6648405" lon="10.9985898"><ele>1378.7142857142858</ele><time>2026-05-02T12:08:27.974Z</time></trkpt><trkpt lat="45.6647788" lon="10.9986192"><ele>1378.5714285714284</ele><time>2026-05-02T12:08:28.97Z</time></trkpt><trkpt lat="45.6647075" lon="10.9986421"><ele>1378.4285714285716</ele><time>2026-05-02T12:08:29.971Z</time></trkpt><trkpt lat="45.6646356" lon="10.9986635"><ele>1378.2857142857142</ele><time>2026-05-02T12:08:30.984Z</time></trkpt><trkpt lat="45.6645709" lon="10.9986925"><ele>1378.142857142857</ele><time>2026-05-02T12:08:31.977Z</time></trkpt><trkpt lat="45.6645133" lon="10.9987297"><ele>1378.0</ele><time>2026-05-02T12:08:32.968Z</time></trkpt><trkpt lat="45.6644071" lon="10.9988203"><ele>1378.0</ele><time>2026-05-02T12:08:34.982Z</time></trkpt><trkpt lat="45.6643504" lon="10.9989024"><ele>1378.0</ele><time>2026-05-02T12:08:35.977Z</time></trkpt><trkpt lat="45.664292" lon="10.9989804"><ele>1378.0</ele><time>2026-05-02T12:08:36.985Z</time></trkpt><trkpt lat="45.6642276" lon="10.999064"><ele>1378.0</ele><time>2026-05-02T12:08:37.978Z</time></trkpt><trkpt lat="45.6641657" lon="10.9991329"><ele>1378.0</ele><time>2026-05-02T12:08:38.978Z</time></trkpt><trkpt lat="45.6640941" lon="10.9991959"><ele>1378.0</ele><time>2026-05-02T12:08:39.973Z</time></trkpt><trkpt lat="45.6640235" lon="10.9992366"><ele>1375.5</ele><time>2026-05-02T12:08:40.967Z</time></trkpt><trkpt lat="45.6639537" lon="10.9992766"><ele>1373.0</ele><time>2026-05-02T12:08:41.961Z</time></trkpt><trkpt lat="45.6638877" lon="10.9993154"><ele>1370.5</ele><time>2026-05-02T12:08:42.969Z</time></trkpt><trkpt lat="45.6638275" lon="10.9993501"><ele>1368.0</ele><time>2026-05-02T12:08:43.969Z</time></trkpt><trkpt lat="45.663751" lon="10.9993844"><ele>1365.5</ele><time>2026-05-02T12:08:44.974Z</time></trkpt><trkpt lat="45.6636703" lon="10.999408"><ele>1363.0</ele><time>2026-05-02T12:08:45.966Z</time></trkpt><trkpt lat="45.6635831" lon="10.9994198"><ele>1363.0</ele><time>2026-05-02T12:08:46.969Z</time></trkpt><trkpt lat="45.6635058" lon="10.9994215"><ele>1363.0</ele><time>2026-05-02T12:08:47.978Z</time></trkpt><trkpt lat="45.6634279" lon="10.999414"><ele>1363.0</ele><time>2026-05-02T12:08:48.979Z</time></trkpt><trkpt lat="45.6633538" lon="10.9993973"><ele>1363.0</ele><time>2026-05-02T12:08:49.978Z</time></trkpt><trkpt lat="45.6632773" lon="10.9993756"><ele>1363.0</ele><time>2026-05-02T12:08:50.983Z</time></trkpt><trkpt lat="45.6631982" lon="10.9993488"><ele>1363.0</ele><time>2026-05-02T12:08:51.969Z</time></trkpt><trkpt lat="45.6631282" lon="10.9993049"><ele>1363.0</ele><time>2026-05-02T12:08:52.973Z</time></trkpt><trkpt lat="45.6630626" lon="10.9992564"><ele>1363.0</ele><time>2026-05-02T12:08:53.974Z</time></trkpt><trkpt lat="45.6629966" lon="10.9992019"><ele>1363.0</ele><time>2026-05-02T12:08:54.968Z</time></trkpt><trkpt lat="45.6629335" lon="10.9991353"><ele>1363.0</ele><time>2026-05-02T12:08:55.983Z</time></trkpt><trkpt lat="45.6628751" lon="10.9990545"><ele>1363.0</ele><time>2026-05-02T12:08:56.98Z</time></trkpt><trkpt lat="45.6628145" lon="10.9989741"><ele>1363.0</ele><time>2026-05-02T12:08:57.973Z</time></trkpt><trkpt lat="45.6627549" lon="10.9989027"><ele>1363.4</ele><time>2026-05-02T12:08:58.979Z</time></trkpt><trkpt lat="45.6626878" lon="10.9988655"><ele>1363.8000000000002</ele><time>2026-05-02T12:08:59.954Z</time></trkpt><trkpt lat="45.6625938" lon="10.9988576"><ele>1364.2</ele><time>2026-05-02T12:09:00.971Z</time></trkpt><trkpt lat="45.6624834" lon="10.9988864"><ele>1364.6</ele><time>2026-05-02T12:09:01.969Z</time></trkpt><trkpt lat="45.6623682" lon="10.9989275"><ele>1365.0</ele><time>2026-05-02T12:09:02.973Z</time></trkpt><trkpt lat="45.6622741" lon="10.9989693"><ele>1365.0</ele><time>2026-05-02T12:09:03.975Z</time></trkpt><trkpt lat="45.6621912" lon="10.9989836"><ele>1365.0</ele><time>2026-05-02T12:09:04.976Z</time></trkpt><trkpt lat="45.6621137" lon="10.9989698"><ele>1365.0</ele><time>2026-05-02T12:09:05.973Z</time></trkpt><trkpt lat="45.6620423" lon="10.9989439"><ele>1365.0</ele><time>2026-05-02T12:09:06.978Z</time></trkpt><trkpt lat="45.6619497" lon="10.9988571"><ele>1365.0</ele><time>2026-05-02T12:09:08.981Z</time></trkpt><trkpt lat="45.661939" lon="10.9987541"><ele>1365.0</ele><time>2026-05-02T12:09:10.978Z</time></trkpt><trkpt lat="45.661886" lon="10.9988435"><ele>1362.8333333333333</ele><time>2026-05-02T12:09:21.971Z</time></trkpt><trkpt lat="45.6618543" lon="10.9989322"><ele>1360.6666666666667</ele><time>2026-05-02T12:09:24.983Z</time></trkpt><trkpt lat="45.6617896" lon="10.9989472"><ele>1358.5</ele><time>2026-05-02T12:09:27.969Z</time></trkpt><trkpt lat="45.6617181" lon="10.9989788"><ele>1356.3333333333335</ele><time>2026-05-02T12:09:29.967Z</time></trkpt><trkpt lat="45.6616759" lon="10.9990808"><ele>1354.1666666666667</ele><time>2026-05-02T12:09:31.966Z</time></trkpt><trkpt lat="45.6616491" lon="10.9992296"><ele>1352.0</ele><time>2026-05-02T12:09:33.98Z</time></trkpt><trkpt lat="45.6616112" lon="10.9993746"><ele>1352.0</ele><time>2026-05-02T12:09:35.977Z</time></trkpt><trkpt lat="45.6615818" lon="10.9994726"><ele>1352.0</ele><time>2026-05-02T12:09:37.97Z</time></trkpt><trkpt lat="45.6615391" lon="10.9993476"><ele>1352.0</ele><time>2026-05-02T12:09:40.987Z</time></trkpt><trkpt lat="45.6615171" lon="10.9992102"><ele>1352.0</ele><time>2026-05-02T12:09:42.972Z</time></trkpt><trkpt lat="45.6614576" lon="10.9990753"><ele>1352.0</ele><time>2026-05-02T12:09:44.972Z</time></trkpt><trkpt lat="45.6613688" lon="10.9990353"><ele>1352.0</ele><time>2026-05-02T12:09:46.974Z</time></trkpt><trkpt lat="45.6612977" lon="10.999069"><ele>1352.0</ele><time>2026-05-02T12:09:48.976Z</time></trkpt><trkpt lat="45.6612422" lon="10.999158"><ele>1352.0</ele><time>2026-05-02T12:09:50.971Z</time></trkpt><trkpt lat="45.6611934" lon="10.9992703"><ele>1352.0</ele><time>2026-05-02T12:09:52.98Z</time></trkpt><trkpt lat="45.6611241" lon="10.9993697"><ele>1352.0</ele><time>2026-05-02T12:09:54.975Z</time></trkpt><trkpt lat="45.6610409" lon="10.9994625"><ele>1348.3999999999999</ele><time>2026-05-02T12:09:56.974Z</time></trkpt><trkpt lat="45.6609412" lon="10.9995302"><ele>1344.8</ele><time>2026-05-02T12:09:58.979Z</time></trkpt><trkpt lat="45.6608786" lon="10.9995553"><ele>1341.2</ele><time>2026-05-02T12:09:59.971Z</time></trkpt><trkpt lat="45.6607802" lon="10.9996462"><ele>1337.6</ele><time>2026-05-02T12:10:01.972Z</time></trkpt><trkpt lat="45.6606954" lon="10.9997243"><ele>1334.0</ele><time>2026-05-02T12:10:03.991Z</time></trkpt><trkpt lat="45.6605857" lon="10.9997865"><ele>1334.0</ele><time>2026-05-02T12:10:05.98Z</time></trkpt><trkpt lat="45.6604762" lon="10.9998289"><ele>1334.0</ele><time>2026-05-02T12:10:07.965Z</time></trkpt><trkpt lat="45.6603799" lon="10.9998339"><ele>1334.0</ele><time>2026-05-02T12:10:09.977Z</time></trkpt><trkpt lat="45.6602747" lon="10.9998179"><ele>1334.0</ele><time>2026-05-02T12:10:11.974Z</time></trkpt><trkpt lat="45.6601548" lon="10.9997814"><ele>1334.0</ele><time>2026-05-02T12:10:13.966Z</time></trkpt><trkpt lat="45.6600379" lon="10.9997551"><ele>1331.0</ele><time>2026-05-02T12:10:15.974Z</time></trkpt><trkpt lat="45.6599381" lon="10.9997182"><ele>1328.0</ele><time>2026-05-02T12:10:17.961Z</time></trkpt><trkpt lat="45.6598306" lon="10.9997011"><ele>1325.0</ele><time>2026-05-02T12:10:19.966Z</time></trkpt><trkpt lat="45.6597173" lon="10.9996896"><ele>1322.0</ele><time>2026-05-02T12:10:21.958Z</time></trkpt><trkpt lat="45.6596097" lon="10.9996864"><ele>1319.0</ele><time>2026-05-02T12:10:23.98Z</time></trkpt><trkpt lat="45.6595055" lon="10.9996921"><ele>1316.3333333333335</ele><time>2026-05-02T12:10:25.97Z</time></trkpt><trkpt lat="45.659386" lon="10.9996989"><ele>1313.6666666666667</ele><time>2026-05-02T12:10:27.976Z</time></trkpt><trkpt lat="45.6592693" lon="10.9996867"><ele>1311.0</ele><time>2026-05-02T12:10:29.978Z</time></trkpt><trkpt lat="45.6592074" lon="10.9996427"><ele>1308.3333333333333</ele><time>2026-05-02T12:10:30.989Z</time></trkpt><trkpt lat="45.6591449" lon="10.9995946"><ele>1305.6666666666665</ele><time>2026-05-02T12:10:31.977Z</time></trkpt><trkpt lat="45.6590868" lon="10.9995479"><ele>1303.0</ele><time>2026-05-02T12:10:32.981Z</time></trkpt><trkpt lat="45.6590266" lon="10.999498"><ele>1303.0</ele><time>2026-05-02T12:10:33.969Z</time></trkpt><trkpt lat="45.6589088" lon="10.9994487"><ele>1303.0</ele><time>2026-05-02T12:10:35.974Z</time></trkpt><trkpt lat="45.6587927" lon="10.999454"><ele>1303.0</ele><time>2026-05-02T12:10:37.98Z</time></trkpt><trkpt lat="45.6586719" lon="10.9994865"><ele>1303.0</ele><time>2026-05-02T12:10:39.981Z</time></trkpt><trkpt lat="45.6585917" lon="10.9994969"><ele>1303.0</ele><time>2026-05-02T12:10:40.981Z</time></trkpt><trkpt lat="45.6585188" lon="10.9994816"><ele>1301.857142857143</ele><time>2026-05-02T12:10:41.977Z</time></trkpt><trkpt lat="45.6584555" lon="10.9994566"><ele>1300.7142857142858</ele><time>2026-05-02T12:10:42.978Z</time></trkpt><trkpt lat="45.6583809" lon="10.9994305"><ele>1299.5714285714284</ele><time>2026-05-02T12:10:43.987Z</time></trkpt><trkpt lat="45.6582944" lon="10.999414"><ele>1298.4285714285716</ele><time>2026-05-02T12:10:45.002Z</time></trkpt><trkpt lat="45.6582223" lon="10.9994063"><ele>1297.2857142857142</ele><time>2026-05-02T12:10:45.968Z</time></trkpt><trkpt lat="45.6581539" lon="10.9993963"><ele>1296.142857142857</ele><time>2026-05-02T12:10:46.97Z</time></trkpt><trkpt lat="45.6580906" lon="10.9993873"><ele>1295.0</ele><time>2026-05-02T12:10:47.971Z</time></trkpt><trkpt lat="45.6579693" lon="10.999401"><ele>1295.0</ele><time>2026-05-02T12:10:49.969Z</time></trkpt><trkpt lat="45.6579053" lon="10.9994087"><ele>1295.0</ele><time>2026-05-02T12:10:50.977Z</time></trkpt><trkpt lat="45.6578396" lon="10.9994005"><ele>1295.0</ele><time>2026-05-02T12:10:51.968Z</time></trkpt><trkpt lat="45.6577791" lon="10.9993508"><ele>1295.0</ele><time>2026-05-02T12:10:52.972Z</time></trkpt><trkpt lat="45.6577274" lon="10.9992927"><ele>1295.0</ele><time>2026-05-02T12:10:53.97Z</time></trkpt><trkpt lat="45.6576866" lon="10.9992141"><ele>1295.0</ele><time>2026-05-02T12:10:54.971Z</time></trkpt><trkpt lat="45.6576487" lon="10.9991412"><ele>1295.0</ele><time>2026-05-02T12:10:55.978Z</time></trkpt><trkpt lat="45.657577" lon="10.9990068"><ele>1292.4</ele><time>2026-05-02T12:10:57.969Z</time></trkpt><trkpt lat="45.6575038" lon="10.9988833"><ele>1289.8</ele><time>2026-05-02T12:10:59.965Z</time></trkpt><trkpt lat="45.657399" lon="10.9987903"><ele>1287.1999999999998</ele><time>2026-05-02T12:11:01.979Z</time></trkpt><trkpt lat="45.6573234" lon="10.998762"><ele>1284.6</ele><time>2026-05-02T12:11:02.974Z</time></trkpt><trkpt lat="45.6572481" lon="10.9987339"><ele>1282.0</ele><time>2026-05-02T12:11:03.973Z</time></trkpt><trkpt lat="45.6571761" lon="10.9987026"><ele>1282.0</ele><time>2026-05-02T12:11:04.965Z</time></trkpt><trkpt lat="45.657107" lon="10.9986774"><ele>1282.0</ele><time>2026-05-02T12:11:05.968Z</time></trkpt><trkpt lat="45.6570357" lon="10.9986601"><ele>1282.0</ele><time>2026-05-02T12:11:06.97Z</time></trkpt><trkpt lat="45.6569712" lon="10.998639"><ele>1282.0</ele><time>2026-05-02T12:11:07.972Z</time></trkpt><trkpt lat="45.6568959" lon="10.998615"><ele>1282.0</ele><time>2026-05-02T12:11:09.97Z</time></trkpt><trkpt lat="45.6568085" lon="10.9985749"><ele>1282.0</ele><time>2026-05-02T12:11:12.973Z</time></trkpt><trkpt lat="45.6567289" lon="10.998551"><ele>1281.7142857142858</ele><time>2026-05-02T12:11:15.967Z</time></trkpt><trkpt lat="45.6566442" lon="10.9985273"><ele>1281.4285714285713</ele><time>2026-05-02T12:11:17.969Z</time></trkpt><trkpt lat="45.6565768" lon="10.9985031"><ele>1281.142857142857</ele><time>2026-05-02T12:11:18.976Z</time></trkpt><trkpt lat="45.656511" lon="10.9984748"><ele>1280.857142857143</ele><time>2026-05-02T12:11:19.971Z</time></trkpt><trkpt lat="45.6564452" lon="10.9984542"><ele>1280.5714285714287</ele><time>2026-05-02T12:11:21.003Z</time></trkpt><trkpt lat="45.6563753" lon="10.9984481"><ele>1280.2857142857142</ele><time>2026-05-02T12:11:21.974Z</time></trkpt><trkpt lat="45.6563061" lon="10.998451"><ele>1280.0</ele><time>2026-05-02T12:11:22.978Z</time></trkpt><trkpt lat="45.656242" lon="10.9984499"><ele>1280.0</ele><time>2026-05-02T12:11:23.975Z</time></trkpt><trkpt lat="45.6561787" lon="10.9984599"><ele>1280.0</ele><time>2026-05-02T12:11:24.978Z</time></trkpt><trkpt lat="45.6560555" lon="10.9984981"><ele>1280.0</ele><time>2026-05-02T12:11:26.97Z</time></trkpt><trkpt lat="45.6559344" lon="10.9985284"><ele>1280.0</ele><time>2026-05-02T12:11:28.986Z</time></trkpt><trkpt lat="45.6558121" lon="10.9985404"><ele>1280.0</ele><time>2026-05-02T12:11:30.965Z</time></trkpt><trkpt lat="45.6556968" lon="10.9985896"><ele>1277.5</ele><time>2026-05-02T12:11:32.977Z</time></trkpt><trkpt lat="45.6555854" lon="10.9986815"><ele>1275.0</ele><time>2026-05-02T12:11:34.976Z</time></trkpt><trkpt lat="45.6555346" lon="10.9987377"><ele>1272.5</ele><time>2026-05-02T12:11:35.984Z</time></trkpt><trkpt lat="45.6554786" lon="10.9987979"><ele>1270.0</ele><time>2026-05-02T12:11:36.976Z</time></trkpt><trkpt lat="45.6554137" lon="10.9988669"><ele>1267.5</ele><time>2026-05-02T12:11:37.978Z</time></trkpt><trkpt lat="45.6553368" lon="10.9989561"><ele>1265.0</ele><time>2026-05-02T12:11:38.975Z</time></trkpt><trkpt lat="45.6552625" lon="10.9990397"><ele>1263.6666666666667</ele><time>2026-05-02T12:11:39.974Z</time></trkpt><trkpt lat="45.655197" lon="10.9991217"><ele>1262.3333333333335</ele><time>2026-05-02T12:11:40.974Z</time></trkpt><trkpt lat="45.6551386" lon="10.9991966"><ele>1261.0</ele><time>2026-05-02T12:11:41.978Z</time></trkpt><trkpt lat="45.6550868" lon="10.9992745"><ele>1259.6666666666667</ele><time>2026-05-02T12:11:42.984Z</time></trkpt><trkpt lat="45.6550403" lon="10.9993388"><ele>1258.3333333333333</ele><time>2026-05-02T12:11:43.975Z</time></trkpt><trkpt lat="45.6549489" lon="10.9994336"><ele>1257.0</ele><time>2026-05-02T12:11:45.976Z</time></trkpt><trkpt lat="45.6548706" lon="10.999529"><ele>1255.5</ele><time>2026-05-02T12:11:47.966Z</time></trkpt><trkpt lat="45.6548295" lon="10.9996056"><ele>1254.0</ele><time>2026-05-02T12:11:48.96Z</time></trkpt><trkpt lat="45.6547889" lon="10.9996947"><ele>1252.5</ele><time>2026-05-02T12:11:49.974Z</time></trkpt><trkpt lat="45.6547535" lon="10.9998061"><ele>1251.0</ele><time>2026-05-02T12:11:50.972Z</time></trkpt><trkpt lat="45.6547172" lon="10.9999299"><ele>1249.5</ele><time>2026-05-02T12:11:51.971Z</time></trkpt><trkpt lat="45.6546815" lon="11.0000609"><ele>1248.0</ele><time>2026-05-02T12:11:52.974Z</time></trkpt><trkpt lat="45.6546444" lon="11.0001981"><ele>1248.0</ele><time>2026-05-02T12:11:54.045Z</time></trkpt><trkpt lat="45.6546069" lon="11.0003322"><ele>1248.0</ele><time>2026-05-02T12:11:55.031Z</time></trkpt><trkpt lat="45.6545736" lon="11.0004728"><ele>1248.0</ele><time>2026-05-02T12:11:55.967Z</time></trkpt><trkpt lat="45.6545424" lon="11.0006064"><ele>1248.0</ele><time>2026-05-02T12:11:56.978Z</time></trkpt><trkpt lat="45.654506" lon="11.0007342"><ele>1248.0</ele><time>2026-05-02T12:11:57.954Z</time></trkpt><trkpt lat="45.6544688" lon="11.0008635"><ele>1247.0</ele><time>2026-05-02T12:11:58.964Z</time></trkpt><trkpt lat="45.6544266" lon="11.0009816"><ele>1246.0</ele><time>2026-05-02T12:11:59.977Z</time></trkpt><trkpt lat="45.6543834" lon="11.001089"><ele>1245.0</ele><time>2026-05-02T12:12:00.978Z</time></trkpt><trkpt lat="45.6543394" lon="11.0011903"><ele>1244.0</ele><time>2026-05-02T12:12:02.031Z</time></trkpt><trkpt lat="45.6543002" lon="11.0012819"><ele>1243.0</ele><time>2026-05-02T12:12:03.028Z</time></trkpt><trkpt lat="45.6542648" lon="11.0013648"><ele>1242.0</ele><time>2026-05-02T12:12:03.997Z</time></trkpt><trkpt lat="45.6542277" lon="11.001449"><ele>1241.9999999999998</ele><time>2026-05-02T12:12:05.01Z</time></trkpt><trkpt lat="45.6541849" lon="11.0015418"><ele>1242.0</ele><time>2026-05-02T12:12:05.96Z</time></trkpt><trkpt lat="45.6541386" lon="11.0016202"><ele>1242.0</ele><time>2026-05-02T12:12:06.984Z</time></trkpt><trkpt lat="45.6540764" lon="11.001678"><ele>1242.0</ele><time>2026-05-02T12:12:07.983Z</time></trkpt><trkpt lat="45.6540124" lon="11.0017288"><ele>1242.0</ele><time>2026-05-02T12:12:09.008Z</time></trkpt><trkpt lat="45.6539436" lon="11.0017553"><ele>1241.9999999999998</ele><time>2026-05-02T12:12:09.979Z</time></trkpt><trkpt lat="45.6538764" lon="11.0017605"><ele>1242.0</ele><time>2026-05-02T12:12:10.984Z</time></trkpt><trkpt lat="45.6537595" lon="11.001756"><ele>1242.0</ele><time>2026-05-02T12:12:12.992Z</time></trkpt><trkpt lat="45.6537012" lon="11.001704"><ele>1242.0</ele><time>2026-05-02T12:12:13.982Z</time></trkpt><trkpt lat="45.6536462" lon="11.0016421"><ele>1242.0</ele><time>2026-05-02T12:12:15.065Z</time></trkpt><trkpt lat="45.6535947" lon="11.001553"><ele>1242.0</ele><time>2026-05-02T12:12:15.978Z</time></trkpt><trkpt lat="45.653548" lon="11.0014438"><ele>1242.0</ele><time>2026-05-02T12:12:16.975Z</time></trkpt><trkpt lat="45.6534955" lon="11.0013228"><ele>1242.0</ele><time>2026-05-02T12:12:17.985Z</time></trkpt><trkpt lat="45.65345" lon="11.0012106"><ele>1241.8333333333333</ele><time>2026-05-02T12:12:19.054Z</time></trkpt><trkpt lat="45.6534051" lon="11.0010929"><ele>1241.6666666666667</ele><time>2026-05-02T12:12:20.031Z</time></trkpt><trkpt lat="45.6533595" lon="11.000979"><ele>1241.5</ele><time>2026-05-02T12:12:20.972Z</time></trkpt><trkpt lat="45.6533157" lon="11.0008719"><ele>1241.3333333333335</ele><time>2026-05-02T12:12:21.972Z</time></trkpt><trkpt lat="45.6532823" lon="11.000781"><ele>1241.1666666666667</ele><time>2026-05-02T12:12:23.002Z</time></trkpt><trkpt lat="45.6532419" lon="11.0006744"><ele>1241.0</ele><time>2026-05-02T12:12:25.045Z</time></trkpt><trkpt lat="45.6532422" lon="11.0005803"><ele>1241.0</ele><time>2026-05-02T12:12:27.966Z</time></trkpt><trkpt lat="45.6532015" lon="11.0004956"><ele>1241.0</ele><time>2026-05-02T12:12:31.977Z</time></trkpt><trkpt lat="45.653198" lon="11.0005873"><ele>1241.0</ele><time>2026-05-02T12:12:35.967Z</time></trkpt><trkpt lat="45.6532263" lon="11.0006768"><ele>1241.0</ele><time>2026-05-02T12:12:48.973Z</time></trkpt><trkpt lat="45.6532639" lon="11.0007638"><ele>1241.0</ele><time>2026-05-02T12:12:49.967Z</time></trkpt><trkpt lat="45.6533098" lon="11.0008639"><ele>1241.0</ele><time>2026-05-02T12:12:50.97Z</time></trkpt><trkpt lat="45.6533517" lon="11.0009708"><ele>1241.0</ele><time>2026-05-02T12:12:51.966Z</time></trkpt><trkpt lat="45.6533997" lon="11.00109"><ele>1241.2</ele><time>2026-05-02T12:12:53.033Z</time></trkpt><trkpt lat="45.6534524" lon="11.0012254"><ele>1241.3999999999999</ele><time>2026-05-02T12:12:53.965Z</time></trkpt><trkpt lat="45.6535035" lon="11.0013593"><ele>1241.6</ele><time>2026-05-02T12:12:54.96Z</time></trkpt><trkpt lat="45.6535564" lon="11.0014765"><ele>1241.8</ele><time>2026-05-02T12:12:55.966Z</time></trkpt><trkpt lat="45.6536068" lon="11.0015703"><ele>1242.0</ele><time>2026-05-02T12:12:56.973Z</time></trkpt><trkpt lat="45.6536514" lon="11.0016481"><ele>1242.0</ele><time>2026-05-02T12:12:57.972Z</time></trkpt><trkpt lat="45.6537072" lon="11.0017219"><ele>1242.0</ele><time>2026-05-02T12:12:59.044Z</time></trkpt><trkpt lat="45.6537738" lon="11.0017774"><ele>1242.0</ele><time>2026-05-02T12:13:00.035Z</time></trkpt><trkpt lat="45.6538585" lon="11.001764"><ele>1242.0</ele><time>2026-05-02T12:13:04.971Z</time></trkpt><trkpt lat="45.653938" lon="11.0017307"><ele>1242.0</ele><time>2026-05-02T12:13:07.027Z</time></trkpt><trkpt lat="45.6540463" lon="11.0017062"><ele>1242.0</ele><time>2026-05-02T12:13:09.037Z</time></trkpt><trkpt lat="45.6540978" lon="11.0016422"><ele>1242.0</ele><time>2026-05-02T12:13:10.043Z</time></trkpt><trkpt lat="45.654156" lon="11.0015547"><ele>1242.0</ele><time>2026-05-02T12:13:10.965Z</time></trkpt><trkpt lat="45.6542067" lon="11.0014529"><ele>1242.0</ele><time>2026-05-02T12:13:11.971Z</time></trkpt><trkpt lat="45.6542622" lon="11.0013384"><ele>1242.0</ele><time>2026-05-02T12:13:13.026Z</time></trkpt><trkpt lat="45.6543197" lon="11.00119"><ele>1242.0</ele><time>2026-05-02T12:13:14.047Z</time></trkpt><trkpt lat="45.6543843" lon="11.0010271"><ele>1244.0</ele><time>2026-05-02T12:13:14.978Z</time></trkpt><trkpt lat="45.6544586" lon="11.0008204"><ele>1246.0</ele><time>2026-05-02T12:13:15.967Z</time></trkpt><trkpt lat="45.6545243" lon="11.0006032"><ele>1248.0</ele><time>2026-05-02T12:13:16.979Z</time></trkpt><trkpt lat="45.6545731" lon="11.0004048"><ele>1248.0</ele><time>2026-05-02T12:13:18.099Z</time></trkpt><trkpt lat="45.6546131" lon="11.0002299"><ele>1248.0</ele><time>2026-05-02T12:13:19.049Z</time></trkpt><trkpt lat="45.6546594" lon="11.0000634"><ele>1248.0</ele><time>2026-05-02T12:13:20.025Z</time></trkpt><trkpt lat="45.654701" lon="10.9999122"><ele>1248.0</ele><time>2026-05-02T12:13:20.975Z</time></trkpt><trkpt lat="45.6547394" lon="10.999774"><ele>1248.0</ele><time>2026-05-02T12:13:21.975Z</time></trkpt><trkpt lat="45.6547871" lon="10.9996365"><ele>1248.0</ele><time>2026-05-02T12:13:22.976Z</time></trkpt><trkpt lat="45.6548332" lon="10.9995033"><ele>1248.0</ele><time>2026-05-02T12:13:24.049Z</time></trkpt><trkpt lat="45.6548827" lon="10.9993958"><ele>1248.0</ele><time>2026-05-02T12:13:25.02Z</time></trkpt><trkpt lat="45.6549257" lon="10.9992967"><ele>1248.0</ele><time>2026-05-02T12:13:25.965Z</time></trkpt><trkpt lat="45.6549796" lon="10.9992144"><ele>1249.8</ele><time>2026-05-02T12:13:26.973Z</time></trkpt><trkpt lat="45.6550461" lon="10.9991171"><ele>1251.6</ele><time>2026-05-02T12:13:27.961Z</time></trkpt><trkpt lat="45.6551265" lon="10.9990175"><ele>1253.4</ele><time>2026-05-02T12:13:29.014Z</time></trkpt><trkpt lat="45.6552184" lon="10.9989175"><ele>1255.2</ele><time>2026-05-02T12:13:29.958Z</time></trkpt><trkpt lat="45.6553135" lon="10.998817"><ele>1257.0</ele><time>2026-05-02T12:13:30.962Z</time></trkpt><trkpt lat="45.655405" lon="10.998709"><ele>1259.0</ele><time>2026-05-02T12:13:31.963Z</time></trkpt><trkpt lat="45.6555024" lon="10.9986071"><ele>1261.0</ele><time>2026-05-02T12:13:32.983Z</time></trkpt><trkpt lat="45.6556055" lon="10.998523"><ele>1263.0</ele><time>2026-05-02T12:13:33.961Z</time></trkpt><trkpt lat="45.6557073" lon="10.9984723"><ele>1265.0</ele><time>2026-05-02T12:13:34.968Z</time></trkpt><trkpt lat="45.6558203" lon="10.9984368"><ele>1265.0</ele><time>2026-05-02T12:13:35.973Z</time></trkpt><trkpt lat="45.655941" lon="10.9984075"><ele>1265.0</ele><time>2026-05-02T12:13:36.968Z</time></trkpt><trkpt lat="45.6560589" lon="10.9983737"><ele>1265.0</ele><time>2026-05-02T12:13:37.966Z</time></trkpt><trkpt lat="45.6561741" lon="10.998345"><ele>1265.0</ele><time>2026-05-02T12:13:39.034Z</time></trkpt><trkpt lat="45.6562849" lon="10.9983287"><ele>1265.4</ele><time>2026-05-02T12:13:40.038Z</time></trkpt><trkpt lat="45.65639" lon="10.9983317"><ele>1265.8</ele><time>2026-05-02T12:13:40.968Z</time></trkpt><trkpt lat="45.6564878" lon="10.9983622"><ele>1266.2</ele><time>2026-05-02T12:13:41.964Z</time></trkpt><trkpt lat="45.6565813" lon="10.9983979"><ele>1266.6</ele><time>2026-05-02T12:13:43.006Z</time></trkpt><trkpt lat="45.6566752" lon="10.9984315"><ele>1267.0</ele><time>2026-05-02T12:13:43.967Z</time></trkpt><trkpt lat="45.6567428" lon="10.9984697"><ele>1269.6</ele><time>2026-05-02T12:13:44.973Z</time></trkpt><trkpt lat="45.6568128" lon="10.9985432"><ele>1272.2</ele><time>2026-05-02T12:13:47.031Z</time></trkpt><trkpt lat="45.6568633" lon="10.9986271"><ele>1274.8</ele><time>2026-05-02T12:13:48.962Z</time></trkpt><trkpt lat="45.6569832" lon="10.9986384"><ele>1277.4</ele><time>2026-05-02T12:13:50.988Z</time></trkpt><trkpt lat="45.6570579" lon="10.9986609"><ele>1280.0</ele><time>2026-05-02T12:13:51.988Z</time></trkpt><trkpt lat="45.657148" lon="10.9986882"><ele>1280.4</ele><time>2026-05-02T12:13:52.996Z</time></trkpt><trkpt lat="45.6572391" lon="10.9987245"><ele>1280.8</ele><time>2026-05-02T12:13:53.973Z</time></trkpt><trkpt lat="45.6573284" lon="10.9987687"><ele>1281.1999999999998</ele><time>2026-05-02T12:13:55.037Z</time></trkpt><trkpt lat="45.6574178" lon="10.9988229"><ele>1281.6</ele><time>2026-05-02T12:13:55.969Z</time></trkpt><trkpt lat="45.6574995" lon="10.9988833"><ele>1282.0</ele><time>2026-05-02T12:13:56.967Z</time></trkpt><trkpt lat="45.6575632" lon="10.9989557"><ele>1282.0</ele><time>2026-05-02T12:13:57.969Z</time></trkpt><trkpt lat="45.6576215" lon="10.9990643"><ele>1282.0</ele><time>2026-05-02T12:13:59.047Z</time></trkpt><trkpt lat="45.6576795" lon="10.9991858"><ele>1282.0</ele><time>2026-05-02T12:14:00.034Z</time></trkpt><trkpt lat="45.657744" lon="10.9993018"><ele>1282.0</ele><time>2026-05-02T12:14:00.964Z</time></trkpt><trkpt lat="45.6578103" lon="10.9993823"><ele>1282.0</ele><time>2026-05-02T12:14:01.957Z</time></trkpt><trkpt lat="45.6578861" lon="10.9994259"><ele>1284.1666666666665</ele><time>2026-05-02T12:14:03.001Z</time></trkpt><trkpt lat="45.6579548" lon="10.9994378"><ele>1286.3333333333333</ele><time>2026-05-02T12:14:04.039Z</time></trkpt><trkpt lat="45.6580246" lon="10.9994259"><ele>1288.5</ele><time>2026-05-02T12:14:05.032Z</time></trkpt><trkpt lat="45.658104" lon="10.9994009"><ele>1290.6666666666667</ele><time>2026-05-02T12:14:05.963Z</time></trkpt><trkpt lat="45.6582056" lon="10.9993994"><ele>1292.8333333333335</ele><time>2026-05-02T12:14:06.974Z</time></trkpt><trkpt lat="45.6583188" lon="10.9994214"><ele>1295.0</ele><time>2026-05-02T12:14:07.987Z</time></trkpt><trkpt lat="45.6584244" lon="10.9994469"><ele>1295.0</ele><time>2026-05-02T12:14:09.031Z</time></trkpt><trkpt lat="45.6585268" lon="10.9994854"><ele>1295.0</ele><time>2026-05-02T12:14:10.023Z</time></trkpt><trkpt lat="45.6586283" lon="10.9995118"><ele>1295.0</ele><time>2026-05-02T12:14:10.974Z</time></trkpt><trkpt lat="45.6587257" lon="10.9994993"><ele>1295.0</ele><time>2026-05-02T12:14:11.973Z</time></trkpt><trkpt lat="45.6588213" lon="10.9994533"><ele>1295.0</ele><time>2026-05-02T12:14:13.048Z</time></trkpt><trkpt lat="45.6589069" lon="10.9994145"><ele>1296.3333333333335</ele><time>2026-05-02T12:14:14.033Z</time></trkpt><trkpt lat="45.6589835" lon="10.9994101"><ele>1297.6666666666667</ele><time>2026-05-02T12:14:14.981Z</time></trkpt><trkpt lat="45.6590644" lon="10.9994556"><ele>1299.0</ele><time>2026-05-02T12:14:15.971Z</time></trkpt><trkpt lat="45.659141" lon="10.9995239"><ele>1300.3333333333333</ele><time>2026-05-02T12:14:16.971Z</time></trkpt><trkpt lat="45.6592006" lon="10.9995864"><ele>1301.6666666666665</ele><time>2026-05-02T12:14:17.973Z</time></trkpt><trkpt lat="45.6592754" lon="10.9996361"><ele>1303.0</ele><time>2026-05-02T12:14:18.96Z</time></trkpt><trkpt lat="45.6593503" lon="10.99967"><ele>1303.0</ele><time>2026-05-02T12:14:19.973Z</time></trkpt><trkpt lat="45.65942" lon="10.9996776"><ele>1303.0</ele><time>2026-05-02T12:14:20.971Z</time></trkpt><trkpt lat="45.6594931" lon="10.9996745"><ele>1303.0</ele><time>2026-05-02T12:14:21.972Z</time></trkpt><trkpt lat="45.6595684" lon="10.9996688"><ele>1303.0</ele><time>2026-05-02T12:14:22.975Z</time></trkpt><trkpt lat="45.659644" lon="10.9996581"><ele>1303.0</ele><time>2026-05-02T12:14:24.002Z</time></trkpt><trkpt lat="45.6597158" lon="10.9996536"><ele>1303.0</ele><time>2026-05-02T12:14:24.969Z</time></trkpt><trkpt lat="45.6598016" lon="10.9996514"><ele>1306.2</ele><time>2026-05-02T12:14:25.968Z</time></trkpt><trkpt lat="45.659893" lon="10.9996568"><ele>1309.4</ele><time>2026-05-02T12:14:26.968Z</time></trkpt><trkpt lat="45.6599948" lon="10.9996813"><ele>1312.6000000000001</ele><time>2026-05-02T12:14:27.974Z</time></trkpt><trkpt lat="45.6600957" lon="10.9997105"><ele>1315.8000000000002</ele><time>2026-05-02T12:14:28.984Z</time></trkpt><trkpt lat="45.6601922" lon="10.9997395"><ele>1319.0</ele><time>2026-05-02T12:14:29.975Z</time></trkpt><trkpt lat="45.6602856" lon="10.9997627"><ele>1322.0</ele><time>2026-05-02T12:14:30.971Z</time></trkpt><trkpt lat="45.6603818" lon="10.9997823"><ele>1325.0</ele><time>2026-05-02T12:14:31.97Z</time></trkpt><trkpt lat="45.6604816" lon="10.9997978"><ele>1328.0</ele><time>2026-05-02T12:14:32.968Z</time></trkpt><trkpt lat="45.66058" lon="10.9997868"><ele>1331.0</ele><time>2026-05-02T12:14:33.976Z</time></trkpt><trkpt lat="45.6606717" lon="10.9997417"><ele>1334.0</ele><time>2026-05-02T12:14:35.05Z</time></trkpt><trkpt lat="45.6607548" lon="10.999681"><ele>1334.0</ele><time>2026-05-02T12:14:35.97Z</time></trkpt><trkpt lat="45.6608212" lon="10.9996017"><ele>1334.0</ele><time>2026-05-02T12:14:36.976Z</time></trkpt><trkpt lat="45.6608901" lon="10.9995225"><ele>1334.0</ele><time>2026-05-02T12:14:37.958Z</time></trkpt><trkpt lat="45.6609538" lon="10.9994529"><ele>1334.0</ele><time>2026-05-02T12:14:39.035Z</time></trkpt><trkpt lat="45.6610221" lon="10.9993989"><ele>1334.0</ele><time>2026-05-02T12:14:40.023Z</time></trkpt><trkpt lat="45.6610978" lon="10.9993434"><ele>1334.0</ele><time>2026-05-02T12:14:40.976Z</time></trkpt><trkpt lat="45.6611646" lon="10.9992813"><ele>1335.8333333333335</ele><time>2026-05-02T12:14:41.974Z</time></trkpt><trkpt lat="45.6612242" lon="10.9992077"><ele>1337.6666666666667</ele><time>2026-05-02T12:14:42.955Z</time></trkpt><trkpt lat="45.6612798" lon="10.9991201"><ele>1339.5</ele><time>2026-05-02T12:14:43.969Z</time></trkpt><trkpt lat="45.6613297" lon="10.9990455"><ele>1341.3333333333333</ele><time>2026-05-02T12:14:45.032Z</time></trkpt><trkpt lat="45.6614102" lon="10.9990161"><ele>1343.1666666666665</ele><time>2026-05-02T12:14:46.962Z</time></trkpt><trkpt lat="45.6615031" lon="10.999126"><ele>1345.0</ele><time>2026-05-02T12:14:48.962Z</time></trkpt><trkpt lat="45.6615389" lon="10.9992254"><ele>1345.0</ele><time>2026-05-02T12:14:49.965Z</time></trkpt><trkpt lat="45.6615732" lon="10.9993288"><ele>1345.0</ele><time>2026-05-02T12:14:50.965Z</time></trkpt><trkpt lat="45.6615832" lon="10.9994221"><ele>1345.0</ele><time>2026-05-02T12:14:51.965Z</time></trkpt><trkpt lat="45.6616488" lon="10.9993123"><ele>1345.0</ele><time>2026-05-02T12:14:56.969Z</time></trkpt><trkpt lat="45.6616839" lon="10.9991313"><ele>1345.0</ele><time>2026-05-02T12:14:58.969Z</time></trkpt><trkpt lat="45.6617096" lon="10.9990306"><ele>1346.1666666666665</ele><time>2026-05-02T12:14:59.97Z</time></trkpt><trkpt lat="45.6617751" lon="10.9989019"><ele>1347.3333333333333</ele><time>2026-05-02T12:15:01.964Z</time></trkpt><trkpt lat="45.661865" lon="10.9988241"><ele>1348.5</ele><time>2026-05-02T12:15:03.977Z</time></trkpt><trkpt lat="45.6619319" lon="10.99878"><ele>1349.6666666666667</ele><time>2026-05-02T12:15:05.953Z</time></trkpt><trkpt lat="45.6619886" lon="10.9988343"><ele>1350.8333333333335</ele><time>2026-05-02T12:15:08.976Z</time></trkpt><trkpt lat="45.6620226" lon="10.9989136"><ele>1352.0</ele><time>2026-05-02T12:16:41.981Z</time></trkpt><trkpt lat="45.6621368" lon="10.9989747"><ele>1354.6</ele><time>2026-05-02T12:16:43.985Z</time></trkpt><trkpt lat="45.662224" lon="10.9989774"><ele>1357.1999999999998</ele><time>2026-05-02T12:16:44.983Z</time></trkpt><trkpt lat="45.6623175" lon="10.9989523"><ele>1359.8</ele><time>2026-05-02T12:16:45.975Z</time></trkpt><trkpt lat="45.6624105" lon="10.9989027"><ele>1362.4</ele><time>2026-05-02T12:16:46.96Z</time></trkpt><trkpt lat="45.662503" lon="10.9988576"><ele>1365.0</ele><time>2026-05-02T12:16:47.974Z</time></trkpt><trkpt lat="45.6626007" lon="10.9988504"><ele>1365.0</ele><time>2026-05-02T12:16:48.974Z</time></trkpt><trkpt lat="45.6626953" lon="10.9988545"><ele>1365.0</ele><time>2026-05-02T12:16:49.975Z</time></trkpt><trkpt lat="45.6627705" lon="10.9989103"><ele>1365.0</ele><time>2026-05-02T12:16:50.969Z</time></trkpt><trkpt lat="45.6628362" lon="10.9989897"><ele>1365.0</ele><time>2026-05-02T12:16:52.043Z</time></trkpt><trkpt lat="45.6629185" lon="10.9990912"><ele>1365.0</ele><time>2026-05-02T12:16:52.976Z</time></trkpt><trkpt lat="45.6630041" lon="10.999173"><ele>1364.6</ele><time>2026-05-02T12:16:53.97Z</time></trkpt><trkpt lat="45.6630861" lon="10.9992461"><ele>1364.2</ele><time>2026-05-02T12:16:54.982Z</time></trkpt><trkpt lat="45.6631818" lon="10.9993199"><ele>1363.8000000000002</ele><time>2026-05-02T12:16:56.032Z</time></trkpt><trkpt lat="45.6632925" lon="10.999372"><ele>1363.4</ele><time>2026-05-02T12:16:57.057Z</time></trkpt><trkpt lat="45.6634047" lon="10.9993971"><ele>1363.0</ele><time>2026-05-02T12:16:58.039Z</time></trkpt><trkpt lat="45.6635318" lon="10.9994034"><ele>1362.5</ele><time>2026-05-02T12:16:59.039Z</time></trkpt><trkpt lat="45.6636504" lon="10.9993896"><ele>1362.0</ele><time>2026-05-02T12:16:59.976Z</time></trkpt><trkpt lat="45.663762" lon="10.9993632"><ele>1361.5</ele><time>2026-05-02T12:17:01.037Z</time></trkpt><trkpt lat="45.6638722" lon="10.9993149"><ele>1361.0</ele><time>2026-05-02T12:17:01.965Z</time></trkpt><trkpt lat="45.6639831" lon="10.9992441"><ele>1365.25</ele><time>2026-05-02T12:17:02.979Z</time></trkpt><trkpt lat="45.6640943" lon="10.9991597"><ele>1369.5</ele><time>2026-05-02T12:17:04.038Z</time></trkpt><trkpt lat="45.6641934" lon="10.9990756"><ele>1373.75</ele><time>2026-05-02T12:17:04.974Z</time></trkpt><trkpt lat="45.6642876" lon="10.9989728"><ele>1378.0</ele><time>2026-05-02T12:17:06.019Z</time></trkpt><trkpt lat="45.6643731" lon="10.998866"><ele>1377.2</ele><time>2026-05-02T12:17:06.974Z</time></trkpt><trkpt lat="45.664456" lon="10.9987744"><ele>1376.4</ele><time>2026-05-02T12:17:07.968Z</time></trkpt><trkpt lat="45.6645397" lon="10.998699"><ele>1375.6000000000001</ele><time>2026-05-02T12:17:09.025Z</time></trkpt><trkpt lat="45.664645" lon="10.99865"><ele>1374.8000000000002</ele><time>2026-05-02T12:17:09.983Z</time></trkpt><trkpt lat="45.6647559" lon="10.998616"><ele>1374.0</ele><time>2026-05-02T12:17:11.068Z</time></trkpt><trkpt lat="45.6648496" lon="10.9985835"><ele>1374.0</ele><time>2026-05-02T12:17:11.973Z</time></trkpt><trkpt lat="45.6649289" lon="10.9985532"><ele>1374.0</ele><time>2026-05-02T12:17:12.954Z</time></trkpt><trkpt lat="45.6649936" lon="10.9985184"><ele>1374.0</ele><time>2026-05-02T12:17:13.974Z</time></trkpt><trkpt lat="45.6650507" lon="10.9984803"><ele>1374.0</ele><time>2026-05-02T12:17:14.981Z</time></trkpt><trkpt lat="45.6651218" lon="10.9984116"><ele>1374.0</ele><time>2026-05-02T12:17:16.974Z</time></trkpt><trkpt lat="45.665199" lon="10.9983889"><ele>1374.0</ele><time>2026-05-02T12:17:18.974Z</time></trkpt><trkpt lat="45.6653216" lon="10.9983316"><ele>1378.0</ele><time>2026-05-02T12:17:20.973Z</time></trkpt><trkpt lat="45.6653924" lon="10.9982797"><ele>1382.0</ele><time>2026-05-02T12:17:21.96Z</time></trkpt><trkpt lat="45.6654698" lon="10.9982092"><ele>1386.0</ele><time>2026-05-02T12:17:22.988Z</time></trkpt><trkpt lat="45.6655557" lon="10.9981306"><ele>1390.0</ele><time>2026-05-02T12:17:23.978Z</time></trkpt><trkpt lat="45.6656552" lon="10.9980526"><ele>1394.0</ele><time>2026-05-02T12:17:24.976Z</time></trkpt><trkpt lat="45.6657453" lon="10.9979793"><ele>1394.0</ele><time>2026-05-02T12:17:25.948Z</time></trkpt><trkpt lat="45.6658398" lon="10.9979233"><ele>1394.0</ele><time>2026-05-02T12:17:26.966Z</time></trkpt><trkpt lat="45.6659401" lon="10.9978848"><ele>1394.0</ele><time>2026-05-02T12:17:27.978Z</time></trkpt><trkpt lat="45.6660432" lon="10.9978668"><ele>1394.0</ele><time>2026-05-02T12:17:28.976Z</time></trkpt><trkpt lat="45.6661545" lon="10.9978831"><ele>1394.0</ele><time>2026-05-02T12:17:29.963Z</time></trkpt><trkpt lat="45.6662776" lon="10.9979191"><ele>1395.75</ele><time>2026-05-02T12:17:30.964Z</time></trkpt><trkpt lat="45.6664033" lon="10.997961"><ele>1397.5</ele><time>2026-05-02T12:17:31.976Z</time></trkpt><trkpt lat="45.6665335" lon="10.9980163"><ele>1399.25</ele><time>2026-05-02T12:17:33.044Z</time></trkpt><trkpt lat="45.6666695" lon="10.998099"><ele>1401.0</ele><time>2026-05-02T12:17:34.029Z</time></trkpt><trkpt lat="45.6667977" lon="10.9981912"><ele>1401.0</ele><time>2026-05-02T12:17:34.973Z</time></trkpt><trkpt lat="45.6669107" lon="10.9982599"><ele>1401.0</ele><time>2026-05-02T12:17:35.965Z</time></trkpt><trkpt lat="45.6670114" lon="10.9983082"><ele>1401.0</ele><time>2026-05-02T12:17:36.975Z</time></trkpt><trkpt lat="45.6671146" lon="10.9983332"><ele>1401.0</ele><time>2026-05-02T12:17:37.954Z</time></trkpt><trkpt lat="45.6672184" lon="10.9983479"><ele>1401.0</ele><time>2026-05-02T12:17:38.971Z</time></trkpt><trkpt lat="45.6673263" lon="10.9983409"><ele>1400.75</ele><time>2026-05-02T12:17:39.979Z</time></trkpt><trkpt lat="45.6674287" lon="10.9983449"><ele>1400.5</ele><time>2026-05-02T12:17:40.974Z</time></trkpt><trkpt lat="45.6675378" lon="10.9983568"><ele>1400.25</ele><time>2026-05-02T12:17:41.973Z</time></trkpt><trkpt lat="45.6676538" lon="10.9983807"><ele>1400.0</ele><time>2026-05-02T12:17:42.987Z</time></trkpt><trkpt lat="45.6677735" lon="10.9984168"><ele>1403.25</ele><time>2026-05-02T12:17:44.055Z</time></trkpt><trkpt lat="45.6679064" lon="10.998472"><ele>1406.5</ele><time>2026-05-02T12:17:44.965Z</time></trkpt><trkpt lat="45.668046" lon="10.9985257"><ele>1409.75</ele><time>2026-05-02T12:17:45.969Z</time></trkpt><trkpt lat="45.6681815" lon="10.9985763"><ele>1413.0</ele><time>2026-05-02T12:17:46.997Z</time></trkpt><trkpt lat="45.6683038" lon="10.9986147"><ele>1413.0</ele><time>2026-05-02T12:17:48.062Z</time></trkpt><trkpt lat="45.6684283" lon="10.9986346"><ele>1413.0</ele><time>2026-05-02T12:17:49.037Z</time></trkpt><trkpt lat="45.6685486" lon="10.9986407"><ele>1413.0</ele><time>2026-05-02T12:17:49.944Z</time></trkpt><trkpt lat="45.6686773" lon="10.9986411"><ele>1413.0</ele><time>2026-05-02T12:17:51.026Z</time></trkpt><trkpt lat="45.6688058" lon="10.9986377"><ele>1414.4</ele><time>2026-05-02T12:17:51.967Z</time></trkpt><trkpt lat="45.6689187" lon="10.9986417"><ele>1415.8000000000002</ele><time>2026-05-02T12:17:53.016Z</time></trkpt><trkpt lat="45.6690188" lon="10.9986592"><ele>1417.2</ele><time>2026-05-02T12:17:54.031Z</time></trkpt><trkpt lat="45.6691241" lon="10.9986811"><ele>1418.6</ele><time>2026-05-02T12:17:54.948Z</time></trkpt><trkpt lat="45.6692323" lon="10.9986982"><ele>1420.0</ele><time>2026-05-02T12:17:55.967Z</time></trkpt><trkpt lat="45.6693464" lon="10.9987306"><ele>1421.0</ele><time>2026-05-02T12:17:56.962Z</time></trkpt><trkpt lat="45.6694639" lon="10.9987614"><ele>1422.0</ele><time>2026-05-02T12:17:57.962Z</time></trkpt><trkpt lat="45.6695862" lon="10.9987856"><ele>1423.0</ele><time>2026-05-02T12:17:58.941Z</time></trkpt><trkpt lat="45.6696908" lon="10.998807"><ele>1424.0</ele><time>2026-05-02T12:17:59.957Z</time></trkpt><trkpt lat="45.6697711" lon="10.998856"><ele>1425.0</ele><time>2026-05-02T12:18:00.965Z</time></trkpt><trkpt lat="45.6698362" lon="10.9988958"><ele>1425.0000000000002</ele><time>2026-05-02T12:18:02.036Z</time></trkpt><trkpt lat="45.6698944" lon="10.9989352"><ele>1425.0</ele><time>2026-05-02T12:18:02.942Z</time></trkpt><trkpt lat="45.6699528" lon="10.9989703"><ele>1425.0</ele><time>2026-05-02T12:18:04.034Z</time></trkpt><trkpt lat="45.6700098" lon="10.9990094"><ele>1425.0</ele><time>2026-05-02T12:18:04.981Z</time></trkpt><trkpt lat="45.6700695" lon="10.9990549"><ele>1425.0</ele><time>2026-05-02T12:18:05.976Z</time></trkpt><trkpt lat="45.6701254" lon="10.9991163"><ele>1425.0000000000002</ele><time>2026-05-02T12:18:06.977Z</time></trkpt><trkpt lat="45.6701743" lon="10.9991915"><ele>1425.0</ele><time>2026-05-02T12:18:07.972Z</time></trkpt><trkpt lat="45.6702199" lon="10.9992702"><ele>1423.7142857142858</ele><time>2026-05-02T12:18:08.981Z</time></trkpt><trkpt lat="45.6702561" lon="10.9993549"><ele>1422.4285714285716</ele><time>2026-05-02T12:18:09.981Z</time></trkpt><trkpt lat="45.6702983" lon="10.9994314"><ele>1421.1428571428573</ele><time>2026-05-02T12:18:11.047Z</time></trkpt><trkpt lat="45.6703413" lon="10.9995022"><ele>1419.857142857143</ele><time>2026-05-02T12:18:12.037Z</time></trkpt><trkpt lat="45.6703867" lon="10.9995702"><ele>1418.5714285714284</ele><time>2026-05-02T12:18:12.985Z</time></trkpt><trkpt lat="45.6704366" lon="10.9996383"><ele>1417.2857142857144</ele><time>2026-05-02T12:18:14.05Z</time></trkpt><trkpt lat="45.6704862" lon="10.9997059"><ele>1416.0</ele><time>2026-05-02T12:18:14.956Z</time></trkpt><trkpt lat="45.6705361" lon="10.9997689"><ele>1416.0</ele><time>2026-05-02T12:18:15.966Z</time></trkpt><trkpt lat="45.6705866" lon="10.9998239"><ele>1416.0</ele><time>2026-05-02T12:18:16.976Z</time></trkpt><trkpt lat="45.6706717" lon="10.9999087"><ele>1416.0</ele><time>2026-05-02T12:18:18.959Z</time></trkpt><trkpt lat="45.6707274" lon="10.9999587"><ele>1416.0</ele><time>2026-05-02T12:18:32.05Z</time></trkpt><trkpt lat="45.6708059" lon="11.0000505"><ele>1416.0</ele><time>2026-05-02T12:18:34.976Z</time></trkpt><trkpt lat="45.6708874" lon="11.0001646"><ele>1416.0</ele><time>2026-05-02T12:18:36.969Z</time></trkpt><trkpt lat="45.6709358" lon="11.0002257"><ele>1416.0</ele><time>2026-05-02T12:18:37.97Z</time></trkpt><trkpt lat="45.670989" lon="11.0002893"><ele>1416.0</ele><time>2026-05-02T12:18:38.975Z</time></trkpt><trkpt lat="45.6710405" lon="11.0003597"><ele>1416.0</ele><time>2026-05-02T12:18:39.989Z</time></trkpt><trkpt lat="45.6710854" lon="11.0004231"><ele>1416.0</ele><time>2026-05-02T12:18:40.97Z</time></trkpt><trkpt lat="45.6711547" lon="11.0005214"><ele>1416.0</ele><time>2026-05-02T12:18:42.971Z</time></trkpt><trkpt lat="45.6712002" lon="11.0006309"><ele>1416.0</ele><time>2026-05-02T12:18:45.95Z</time></trkpt><trkpt lat="45.6712937" lon="11.0006722"><ele>1414.1999999999998</ele><time>2026-05-02T12:18:47.975Z</time></trkpt><trkpt lat="45.6713881" lon="11.0006955"><ele>1412.3999999999999</ele><time>2026-05-02T12:18:49.964Z</time></trkpt><trkpt lat="45.6714871" lon="11.0007156"><ele>1410.6</ele><time>2026-05-02T12:18:51.96Z</time></trkpt><trkpt lat="45.6716042" lon="11.0007069"><ele>1408.8</ele><time>2026-05-02T12:18:53.964Z</time></trkpt><trkpt lat="45.6716606" lon="11.0006664"><ele>1407.0</ele><time>2026-05-02T12:18:54.954Z</time></trkpt><trkpt lat="45.6717643" lon="11.0005798"><ele>1407.0</ele><time>2026-05-02T12:18:57.015Z</time></trkpt><trkpt lat="45.6718333" lon="11.0004659"><ele>1407.0</ele><time>2026-05-02T12:18:59.023Z</time></trkpt><trkpt lat="45.6718188" lon="11.0002801"><ele>1407.0</ele><time>2026-05-02T12:19:00.97Z</time></trkpt><trkpt lat="45.6718008" lon="11.0001848"><ele>1407.0</ele><time>2026-05-02T12:19:01.975Z</time></trkpt><trkpt lat="45.6718375" lon="11.0000228"><ele>1407.0</ele><time>2026-05-02T12:19:03.969Z</time></trkpt><trkpt lat="45.6718776" lon="10.999947"><ele>1407.0</ele><time>2026-05-02T12:19:04.972Z</time></trkpt><trkpt lat="45.6719322" lon="10.9998739"><ele>1407.0</ele><time>2026-05-02T12:19:05.98Z</time></trkpt><trkpt lat="45.671991" lon="10.999809"><ele>1407.0</ele><time>2026-05-02T12:19:06.972Z</time></trkpt><trkpt lat="45.6720455" lon="10.9997383"><ele>1407.0</ele><time>2026-05-02T12:19:07.976Z</time></trkpt><trkpt lat="45.6720953" lon="10.9996736"><ele>1407.0</ele><time>2026-05-02T12:19:08.967Z</time></trkpt><trkpt lat="45.6721432" lon="10.9996105"><ele>1407.0</ele><time>2026-05-02T12:19:09.951Z</time></trkpt><trkpt lat="45.6721924" lon="10.9995415"><ele>1407.0</ele><time>2026-05-02T12:19:10.97Z</time></trkpt><trkpt lat="45.672241" lon="10.9994787"><ele>1406.0</ele><time>2026-05-02T12:19:11.973Z</time></trkpt><trkpt lat="45.6722959" lon="10.9994136"><ele>1405.0</ele><time>2026-05-02T12:19:12.968Z</time></trkpt><trkpt lat="45.6723427" lon="10.9993427"><ele>1404.0</ele><time>2026-05-02T12:19:13.961Z</time></trkpt><trkpt lat="45.6723859" lon="10.9992631"><ele>1403.0</ele><time>2026-05-02T12:19:14.977Z</time></trkpt><trkpt lat="45.6724262" lon="10.999178"><ele>1402.0</ele><time>2026-05-02T12:19:15.976Z</time></trkpt><trkpt lat="45.67247" lon="10.9991003"><ele>1401.0</ele><time>2026-05-02T12:19:16.984Z</time></trkpt><trkpt lat="45.6725142" lon="10.9990277"><ele>1400.0</ele><time>2026-05-02T12:19:17.975Z</time></trkpt><trkpt lat="45.6725731" lon="10.9989664"><ele>1399.0</ele><time>2026-05-02T12:19:18.974Z</time></trkpt><trkpt lat="45.6726397" lon="10.9989118"><ele>1398.0</ele><time>2026-05-02T12:19:19.973Z</time></trkpt><trkpt lat="45.6727087" lon="10.9988631"><ele>1397.0</ele><time>2026-05-02T12:19:21.055Z</time></trkpt><trkpt lat="45.6727768" lon="10.998806"><ele>1396.0</ele><time>2026-05-02T12:19:21.969Z</time></trkpt><trkpt lat="45.6728444" lon="10.9987734"><ele>1395.0</ele><time>2026-05-02T12:19:22.969Z</time></trkpt><trkpt lat="45.6729157" lon="10.9987332"><ele>1394.0</ele><time>2026-05-02T12:19:23.972Z</time></trkpt><trkpt lat="45.6729859" lon="10.9986839"><ele>1394.0</ele><time>2026-05-02T12:19:24.982Z</time></trkpt><trkpt lat="45.673057" lon="10.9986266"><ele>1394.0</ele><time>2026-05-02T12:19:25.964Z</time></trkpt><trkpt lat="45.6731346" lon="10.9985645"><ele>1394.0</ele><time>2026-05-02T12:19:26.965Z</time></trkpt><trkpt lat="45.6732068" lon="10.9984931"><ele>1394.0</ele><time>2026-05-02T12:19:28.051Z</time></trkpt><trkpt lat="45.6732789" lon="10.9984171"><ele>1394.0</ele><time>2026-05-02T12:19:29.024Z</time></trkpt><trkpt lat="45.6733537" lon="10.9983406"><ele>1394.0</ele><time>2026-05-02T12:19:29.967Z</time></trkpt><trkpt lat="45.673429" lon="10.9982723"><ele>1394.1666666666667</ele><time>2026-05-02T12:19:30.967Z</time></trkpt><trkpt lat="45.6735037" lon="10.9982103"><ele>1394.3333333333335</ele><time>2026-05-02T12:19:31.968Z</time></trkpt><trkpt lat="45.6735713" lon="10.9981397"><ele>1394.5</ele><time>2026-05-02T12:19:32.962Z</time></trkpt><trkpt lat="45.6736442" lon="10.998063"><ele>1394.6666666666667</ele><time>2026-05-02T12:19:33.973Z</time></trkpt><trkpt lat="45.6737169" lon="10.9979968"><ele>1394.8333333333333</ele><time>2026-05-02T12:19:34.973Z</time></trkpt><trkpt lat="45.6737826" lon="10.9979295"><ele>1395.0</ele><time>2026-05-02T12:19:35.976Z</time></trkpt><trkpt lat="45.6738448" lon="10.9978603"><ele>1395.0</ele><time>2026-05-02T12:19:37.037Z</time></trkpt><trkpt lat="45.6739049" lon="10.997777"><ele>1395.0</ele><time>2026-05-02T12:19:38.036Z</time></trkpt><trkpt lat="45.6739678" lon="10.9977019"><ele>1395.0</ele><time>2026-05-02T12:19:38.962Z</time></trkpt><trkpt lat="45.6740333" lon="10.9976278"><ele>1395.0</ele><time>2026-05-02T12:19:39.966Z</time></trkpt><trkpt lat="45.6740958" lon="10.9975586"><ele>1395.0</ele><time>2026-05-02T12:19:41.048Z</time></trkpt><trkpt lat="45.6741648" lon="10.9974419"><ele>1395.0</ele><time>2026-05-02T12:19:43.036Z</time></trkpt><trkpt lat="45.6742093" lon="10.9973044"><ele>1392.2</ele><time>2026-05-02T12:19:44.972Z</time></trkpt><trkpt lat="45.67424" lon="10.9971632"><ele>1389.4</ele><time>2026-05-02T12:19:46.991Z</time></trkpt><trkpt lat="45.6742886" lon="10.9970498"><ele>1386.6</ele><time>2026-05-02T12:19:48.971Z</time></trkpt><trkpt lat="45.6743246" lon="10.9969291"><ele>1383.8</ele><time>2026-05-02T12:19:50.962Z</time></trkpt><trkpt lat="45.6743381" lon="10.9967945"><ele>1381.0</ele><time>2026-05-02T12:19:52.954Z</time></trkpt><trkpt lat="45.6743696" lon="10.9966688"><ele>1380.6666666666665</ele><time>2026-05-02T12:19:54.971Z</time></trkpt><trkpt lat="45.6744079" lon="10.9965247"><ele>1380.3333333333333</ele><time>2026-05-02T12:19:56.976Z</time></trkpt><trkpt lat="45.6744182" lon="10.996388"><ele>1380.0</ele><time>2026-05-02T12:19:58.969Z</time></trkpt><trkpt lat="45.6744277" lon="10.9962651"><ele>1379.6666666666667</ele><time>2026-05-02T12:20:01.054Z</time></trkpt><trkpt lat="45.6744428" lon="10.9961665"><ele>1379.3333333333335</ele><time>2026-05-02T12:20:02.958Z</time></trkpt><trkpt lat="45.6744665" lon="10.9960812"><ele>1379.0</ele><time>2026-05-02T12:20:04.966Z</time></trkpt><trkpt lat="45.6745174" lon="10.995976"><ele>1379.0</ele><time>2026-05-02T12:20:07.963Z</time></trkpt><trkpt lat="45.6744648" lon="10.9960402"><ele>1379.0</ele><time>2026-05-02T12:20:53.975Z</time></trkpt><trkpt lat="45.6744401" lon="10.9961599"><ele>1379.0</ele><time>2026-05-02T12:20:56.977Z</time></trkpt><trkpt lat="45.6744241" lon="10.9962506"><ele>1379.0</ele><time>2026-05-02T12:20:59.07Z</time></trkpt><trkpt lat="45.6744186" lon="10.9963657"><ele>1379.0</ele><time>2026-05-02T12:21:00.967Z</time></trkpt><trkpt lat="45.6743792" lon="10.9964412"><ele>1379.0</ele><time>2026-05-02T12:21:03.959Z</time></trkpt><trkpt lat="45.674337" lon="10.9963729"><ele>1379.0</ele><time>2026-05-02T12:21:05.949Z</time></trkpt><trkpt lat="45.6743084" lon="10.9962524"><ele>1379.0</ele><time>2026-05-02T12:21:08.966Z</time></trkpt><trkpt lat="45.674293" lon="10.9961508"><ele>1379.0</ele><time>2026-05-02T12:21:45.97Z</time></trkpt><trkpt lat="45.6743032" lon="10.99604"><ele>1379.0</ele><time>2026-05-02T12:21:47.97Z</time></trkpt><trkpt lat="45.674321" lon="10.9958887"><ele>1379.0</ele><time>2026-05-02T12:21:49.96Z</time></trkpt><trkpt lat="45.6743445" lon="10.9957112"><ele>1379.0</ele><time>2026-05-02T12:21:51.973Z</time></trkpt><trkpt lat="45.6743711" lon="10.9955285"><ele>1380.142857142857</ele><time>2026-05-02T12:21:54.023Z</time></trkpt><trkpt lat="45.6743936" lon="10.9954283"><ele>1381.2857142857142</ele><time>2026-05-02T12:21:54.966Z</time></trkpt><trkpt lat="45.6744104" lon="10.9953241"><ele>1382.4285714285716</ele><time>2026-05-02T12:21:55.965Z</time></trkpt><trkpt lat="45.6744259" lon="10.9952198"><ele>1383.5714285714284</ele><time>2026-05-02T12:21:56.961Z</time></trkpt><trkpt lat="45.6744332" lon="10.9951066"><ele>1384.7142857142858</ele><time>2026-05-02T12:21:57.965Z</time></trkpt><trkpt lat="45.6744414" lon="10.9949996"><ele>1385.857142857143</ele><time>2026-05-02T12:21:58.963Z</time></trkpt><trkpt lat="45.6744487" lon="10.9949007"><ele>1387.0</ele><time>2026-05-02T12:21:59.965Z</time></trkpt><trkpt lat="45.6744598" lon="10.9948064"><ele>1383.2857142857142</ele><time>2026-05-02T12:22:00.961Z</time></trkpt><trkpt lat="45.6744746" lon="10.9947086"><ele>1379.5714285714284</ele><time>2026-05-02T12:22:01.981Z</time></trkpt><trkpt lat="45.674492" lon="10.9946112"><ele>1375.8571428571427</ele><time>2026-05-02T12:22:02.974Z</time></trkpt><trkpt lat="45.6744976" lon="10.9945113"><ele>1372.142857142857</ele><time>2026-05-02T12:22:04.032Z</time></trkpt><trkpt lat="45.6745026" lon="10.9944079"><ele>1368.4285714285713</ele><time>2026-05-02T12:22:04.968Z</time></trkpt><trkpt lat="45.6745018" lon="10.994309"><ele>1364.7142857142856</ele><time>2026-05-02T12:22:05.957Z</time></trkpt><trkpt lat="45.674493" lon="10.9942137"><ele>1361.0</ele><time>2026-05-02T12:22:07.054Z</time></trkpt><trkpt lat="45.6744784" lon="10.9941246"><ele>1358.0</ele><time>2026-05-02T12:22:07.993Z</time></trkpt><trkpt lat="45.6744604" lon="10.9940381"><ele>1355.0</ele><time>2026-05-02T12:22:08.974Z</time></trkpt><trkpt lat="45.6744205" lon="10.9938739"><ele>1352.0</ele><time>2026-05-02T12:22:11.045Z</time></trkpt><trkpt lat="45.6744058" lon="10.9937855"><ele>1349.0</ele><time>2026-05-02T12:22:12.038Z</time></trkpt><trkpt lat="45.6743778" lon="10.9936232"><ele>1346.0</ele><time>2026-05-02T12:22:14.031Z</time></trkpt><trkpt lat="45.6743233" lon="10.9934635"><ele>1349.6666666666667</ele><time>2026-05-02T12:22:16.037Z</time></trkpt><trkpt lat="45.6742736" lon="10.9932949"><ele>1353.3333333333335</ele><time>2026-05-02T12:22:18.039Z</time></trkpt><trkpt lat="45.6742495" lon="10.9932024"><ele>1357.0</ele><time>2026-05-02T12:22:19.044Z</time></trkpt><trkpt lat="45.6742208" lon="10.9931121"><ele>1360.6666666666667</ele><time>2026-05-02T12:22:19.964Z</time></trkpt><trkpt lat="45.6741917" lon="10.993021"><ele>1364.3333333333333</ele><time>2026-05-02T12:22:20.953Z</time></trkpt><trkpt lat="45.6741656" lon="10.9929293"><ele>1368.0</ele><time>2026-05-02T12:22:21.953Z</time></trkpt><trkpt lat="45.6741338" lon="10.9928428"><ele>1368.0</ele><time>2026-05-02T12:22:22.97Z</time></trkpt><trkpt lat="45.6741032" lon="10.9927615"><ele>1368.0</ele><time>2026-05-02T12:22:23.971Z</time></trkpt><trkpt lat="45.6740236" lon="10.9926072"><ele>1368.0</ele><time>2026-05-02T12:22:25.965Z</time></trkpt><trkpt lat="45.6739652" lon="10.9925204"><ele>1368.0</ele><time>2026-05-02T12:22:27.033Z</time></trkpt><trkpt lat="45.6738999" lon="10.9924514"><ele>1368.0</ele><time>2026-05-02T12:22:28.043Z</time></trkpt><trkpt lat="45.6738309" lon="10.9923939"><ele>1368.0</ele><time>2026-05-02T12:22:28.951Z</time></trkpt><trkpt lat="45.6737607" lon="10.9923455"><ele>1366.8333333333333</ele><time>2026-05-02T12:22:29.963Z</time></trkpt><trkpt lat="45.6736992" lon="10.9923047"><ele>1365.6666666666667</ele><time>2026-05-02T12:22:30.963Z</time></trkpt><trkpt lat="45.6736336" lon="10.9922702"><ele>1364.5</ele><time>2026-05-02T12:22:31.966Z</time></trkpt><trkpt lat="45.6735694" lon="10.9922581"><ele>1363.3333333333335</ele><time>2026-05-02T12:22:32.991Z</time></trkpt><trkpt lat="45.6734638" lon="10.9922847"><ele>1362.1666666666667</ele><time>2026-05-02T12:22:34.976Z</time></trkpt><trkpt lat="45.6733434" lon="10.9923481"><ele>1361.0</ele><time>2026-05-02T12:22:36.968Z</time></trkpt><trkpt lat="45.6732766" lon="10.9924011"><ele>1361.0</ele><time>2026-05-02T12:22:37.967Z</time></trkpt><trkpt lat="45.6732122" lon="10.992443"><ele>1361.0</ele><time>2026-05-02T12:22:38.969Z</time></trkpt><trkpt lat="45.6731395" lon="10.9924797"><ele>1361.0</ele><time>2026-05-02T12:22:39.962Z</time></trkpt><trkpt lat="45.6730651" lon="10.9925037"><ele>1361.0</ele><time>2026-05-02T12:22:40.974Z</time></trkpt><trkpt lat="45.6729846" lon="10.9925272"><ele>1361.0</ele><time>2026-05-02T12:22:41.999Z</time></trkpt><trkpt lat="45.6729041" lon="10.9925363"><ele>1361.0</ele><time>2026-05-02T12:22:42.977Z</time></trkpt><trkpt lat="45.6728189" lon="10.9925342"><ele>1363.4</ele><time>2026-05-02T12:22:43.952Z</time></trkpt><trkpt lat="45.6727252" lon="10.9925385"><ele>1365.8</ele><time>2026-05-02T12:22:44.957Z</time></trkpt><trkpt lat="45.6726329" lon="10.9925411"><ele>1368.2</ele><time>2026-05-02T12:22:45.984Z</time></trkpt><trkpt lat="45.6725444" lon="10.9925296"><ele>1370.6000000000001</ele><time>2026-05-02T12:22:46.979Z</time></trkpt><trkpt lat="45.6724531" lon="10.9925271"><ele>1373.0</ele><time>2026-05-02T12:22:47.964Z</time></trkpt><trkpt lat="45.6723662" lon="10.9925245"><ele>1373.0</ele><time>2026-05-02T12:22:48.97Z</time></trkpt><trkpt lat="45.672275" lon="10.9925109"><ele>1373.0</ele><time>2026-05-02T12:22:49.971Z</time></trkpt><trkpt lat="45.672187" lon="10.9924997"><ele>1373.0</ele><time>2026-05-02T12:22:51.035Z</time></trkpt><trkpt lat="45.6721141" lon="10.9924804"><ele>1373.0</ele><time>2026-05-02T12:22:52.039Z</time></trkpt><trkpt lat="45.6720417" lon="10.9924662"><ele>1373.0</ele><time>2026-05-02T12:22:53.039Z</time></trkpt><trkpt lat="45.671977" lon="10.9924644"><ele>1373.0</ele><time>2026-05-02T12:22:54.034Z</time></trkpt><trkpt lat="45.6719113" lon="10.9924738"><ele>1372.6666666666667</ele><time>2026-05-02T12:22:54.972Z</time></trkpt><trkpt lat="45.6718364" lon="10.992492"><ele>1372.3333333333335</ele><time>2026-05-02T12:22:55.976Z</time></trkpt><trkpt lat="45.6717537" lon="10.9925198"><ele>1372.0</ele><time>2026-05-02T12:22:57.012Z</time></trkpt><trkpt lat="45.6716741" lon="10.9925163"><ele>1371.6666666666667</ele><time>2026-05-02T12:22:58.019Z</time></trkpt><trkpt lat="45.6715947" lon="10.9925008"><ele>1371.3333333333333</ele><time>2026-05-02T12:22:58.983Z</time></trkpt><trkpt lat="45.6715262" lon="10.9924791"><ele>1371.0</ele><time>2026-05-02T12:22:59.97Z</time></trkpt><trkpt lat="45.6714601" lon="10.9924604"><ele>1367.5</ele><time>2026-05-02T12:23:00.974Z</time></trkpt><trkpt lat="45.6713852" lon="10.9924503"><ele>1364.0</ele><time>2026-05-02T12:23:01.968Z</time></trkpt><trkpt lat="45.6713069" lon="10.9924371"><ele>1360.5</ele><time>2026-05-02T12:23:02.983Z</time></trkpt><trkpt lat="45.6712245" lon="10.9924198"><ele>1357.0</ele><time>2026-05-02T12:23:03.994Z</time></trkpt><trkpt lat="45.6711474" lon="10.9924089"><ele>1353.5</ele><time>2026-05-02T12:23:04.974Z</time></trkpt><trkpt lat="45.6710755" lon="10.9924073"><ele>1350.0</ele><time>2026-05-02T12:23:06.045Z</time></trkpt><trkpt lat="45.6710082" lon="10.9924131"><ele>1349.6666666666667</ele><time>2026-05-02T12:23:06.961Z</time></trkpt><trkpt lat="45.6709429" lon="10.9924243"><ele>1349.3333333333333</ele><time>2026-05-02T12:23:08.028Z</time></trkpt><trkpt lat="45.6708684" lon="10.9924455"><ele>1349.0</ele><time>2026-05-02T12:23:09.035Z</time></trkpt><trkpt lat="45.6707983" lon="10.9924773"><ele>1348.6666666666665</ele><time>2026-05-02T12:23:09.969Z</time></trkpt><trkpt lat="45.6706805" lon="10.9925565"><ele>1348.3333333333333</ele><time>2026-05-02T12:23:11.994Z</time></trkpt><trkpt lat="45.6706204" lon="10.9925997"><ele>1348.0</ele><time>2026-05-02T12:23:13.024Z</time></trkpt><trkpt lat="45.6705589" lon="10.9926425"><ele>1350.0</ele><time>2026-05-02T12:23:14.029Z</time></trkpt><trkpt lat="45.6704476" lon="10.9927412"><ele>1352.0</ele><time>2026-05-02T12:23:15.958Z</time></trkpt><trkpt lat="45.6703856" lon="10.9927868"><ele>1354.0</ele><time>2026-05-02T12:23:16.969Z</time></trkpt><trkpt lat="45.6702963" lon="10.9928945"><ele>1356.0</ele><time>2026-05-02T12:23:18.968Z</time></trkpt><trkpt lat="45.6702138" lon="10.9930204"><ele>1358.0</ele><time>2026-05-02T12:23:20.95Z</time></trkpt><trkpt lat="45.6701571" lon="10.9930921"><ele>1358.0</ele><time>2026-05-02T12:23:21.944Z</time></trkpt><trkpt lat="45.6700869" lon="10.9931599"><ele>1358.0</ele><time>2026-05-02T12:23:22.965Z</time></trkpt><trkpt lat="45.6700145" lon="10.9932263"><ele>1358.0</ele><time>2026-05-02T12:23:23.947Z</time></trkpt><trkpt lat="45.6699619" lon="10.993289"><ele>1358.0</ele><time>2026-05-02T12:23:24.945Z</time></trkpt><trkpt lat="45.6698671" lon="10.993346"><ele>1358.0</ele><time>2026-05-02T12:23:26.966Z</time></trkpt><trkpt lat="45.6698006" lon="10.9932634"><ele>1358.0</ele><time>2026-05-02T12:23:28.967Z</time></trkpt><trkpt lat="45.6697556" lon="10.9931421"><ele>1358.0</ele><time>2026-05-02T12:23:30.972Z</time></trkpt><trkpt lat="45.6697121" lon="10.9930124"><ele>1358.0</ele><time>2026-05-02T12:23:32.96Z</time></trkpt><trkpt lat="45.6696849" lon="10.9929282"><ele>1358.0</ele><time>2026-05-02T12:23:33.994Z</time></trkpt><trkpt lat="45.6696412" lon="10.9928156"><ele>1358.0</ele><time>2026-05-02T12:23:34.963Z</time></trkpt><trkpt lat="45.669599" lon="10.9927091"><ele>1358.0</ele><time>2026-05-02T12:23:35.964Z</time></trkpt><trkpt lat="45.6695594" lon="10.9926146"><ele>1358.0</ele><time>2026-05-02T12:23:36.964Z</time></trkpt><trkpt lat="45.6695221" lon="10.9925309"><ele>1358.6666666666667</ele><time>2026-05-02T12:23:37.975Z</time></trkpt><trkpt lat="45.6694497" lon="10.9923783"><ele>1359.3333333333335</ele><time>2026-05-02T12:23:39.966Z</time></trkpt><trkpt lat="45.6694033" lon="10.9923033"><ele>1360.0</ele><time>2026-05-02T12:23:40.969Z</time></trkpt><trkpt lat="45.669349" lon="10.9922273"><ele>1360.6666666666667</ele><time>2026-05-02T12:23:41.965Z</time></trkpt><trkpt lat="45.6692799" lon="10.992152"><ele>1361.3333333333333</ele><time>2026-05-02T12:23:42.961Z</time></trkpt><trkpt lat="45.6692173" lon="10.9920917"><ele>1362.0</ele><time>2026-05-02T12:23:43.966Z</time></trkpt><trkpt lat="45.6691494" lon="10.9920377"><ele>1362.0</ele><time>2026-05-02T12:23:44.971Z</time></trkpt><trkpt lat="45.6690791" lon="10.9919845"><ele>1362.0</ele><time>2026-05-02T12:23:45.975Z</time></trkpt><trkpt lat="45.6690072" lon="10.9919341"><ele>1362.0</ele><time>2026-05-02T12:23:46.97Z</time></trkpt><trkpt lat="45.6689238" lon="10.9918899"><ele>1362.0</ele><time>2026-05-02T12:23:47.961Z</time></trkpt><trkpt lat="45.6688387" lon="10.9918555"><ele>1362.0</ele><time>2026-05-02T12:23:48.974Z</time></trkpt><trkpt lat="45.6687591" lon="10.9918316"><ele>1362.0</ele><time>2026-05-02T12:23:49.965Z</time></trkpt><trkpt lat="45.668683" lon="10.9918171"><ele>1364.0</ele><time>2026-05-02T12:23:50.969Z</time></trkpt><trkpt lat="45.6686046" lon="10.9917891"><ele>1366.0</ele><time>2026-05-02T12:23:51.969Z</time></trkpt><trkpt lat="45.6685307" lon="10.9917654"><ele>1368.0</ele><time>2026-05-02T12:23:52.971Z</time></trkpt><trkpt lat="45.6684647" lon="10.9917577"><ele>1370.0</ele><time>2026-05-02T12:23:53.967Z</time></trkpt><trkpt lat="45.6683442" lon="10.9917541"><ele>1372.0</ele><time>2026-05-02T12:23:55.978Z</time></trkpt><trkpt lat="45.66823" lon="10.9917481"><ele>1372.0</ele><time>2026-05-02T12:23:57.975Z</time></trkpt><trkpt lat="45.668162" lon="10.9917507"><ele>1372.0</ele><time>2026-05-02T12:23:58.979Z</time></trkpt><trkpt lat="45.6680354" lon="10.9917519"><ele>1372.0</ele><time>2026-05-02T12:24:01.029Z</time></trkpt><trkpt lat="45.6679198" lon="10.9917329"><ele>1372.0</ele><time>2026-05-02T12:24:02.975Z</time></trkpt><trkpt lat="45.66785" lon="10.9917086"><ele>1372.0</ele><time>2026-05-02T12:24:04.98Z</time></trkpt><trkpt lat="45.6677518" lon="10.9916917"><ele>1371.0</ele><time>2026-05-02T12:24:07.963Z</time></trkpt><trkpt lat="45.6676845" lon="10.9917089"><ele>1370.0</ele><time>2026-05-02T12:24:09.967Z</time></trkpt><trkpt lat="45.6675986" lon="10.9917295"><ele>1369.0</ele><time>2026-05-02T12:24:11.957Z</time></trkpt><trkpt lat="45.6674718" lon="10.9917624"><ele>1368.0</ele><time>2026-05-02T12:24:13.965Z</time></trkpt><trkpt lat="45.6674021" lon="10.9917929"><ele>1367.0</ele><time>2026-05-02T12:24:14.972Z</time></trkpt><trkpt lat="45.6673335" lon="10.991808"><ele>1366.0</ele><time>2026-05-02T12:24:15.967Z</time></trkpt><trkpt lat="45.6672193" lon="10.9918567"><ele>1366.0</ele><time>2026-05-02T12:24:17.963Z</time></trkpt><trkpt lat="45.6671601" lon="10.9918874"><ele>1366.0</ele><time>2026-05-02T12:24:18.969Z</time></trkpt><trkpt lat="45.6670977" lon="10.9919124"><ele>1366.0</ele><time>2026-05-02T12:24:19.985Z</time></trkpt><trkpt lat="45.6669861" lon="10.9919645"><ele>1366.0</ele><time>2026-05-02T12:24:21.97Z</time></trkpt><trkpt lat="45.6668806" lon="10.9920365"><ele>1366.0</ele><time>2026-05-02T12:24:23.969Z</time></trkpt><trkpt lat="45.6667939" lon="10.9920853"><ele>1363.2857142857142</ele><time>2026-05-02T12:24:25.965Z</time></trkpt><trkpt lat="45.6667322" lon="10.9921251"><ele>1360.5714285714284</ele><time>2026-05-02T12:24:27.968Z</time></trkpt><trkpt lat="45.6666631" lon="10.9921572"><ele>1357.8571428571427</ele><time>2026-05-02T12:24:31.971Z</time></trkpt><trkpt lat="45.6666735" lon="10.992044"><ele>1355.142857142857</ele><time>2026-05-02T12:24:46.966Z</time></trkpt><trkpt lat="45.666723" lon="10.9919369"><ele>1352.4285714285713</ele><time>2026-05-02T12:24:49.951Z</time></trkpt><trkpt lat="45.666754" lon="10.9918512"><ele>1349.7142857142856</ele><time>2026-05-02T12:24:51.966Z</time></trkpt><trkpt lat="45.6667752" lon="10.9917643"><ele>1347.0</ele><time>2026-05-02T12:24:53.967Z</time></trkpt><trkpt lat="45.6668021" lon="10.991652"><ele>1346.1666666666667</ele><time>2026-05-02T12:24:56.968Z</time></trkpt><trkpt lat="45.6668292" lon="10.9915381"><ele>1345.3333333333333</ele><time>2026-05-02T12:24:59.969Z</time></trkpt><trkpt lat="45.6668664" lon="10.9914417"><ele>1344.5</ele><time>2026-05-02T12:25:02.965Z</time></trkpt><trkpt lat="45.6669161" lon="10.9913436"><ele>1343.6666666666665</ele><time>2026-05-02T12:25:05.963Z</time></trkpt><trkpt lat="45.6669606" lon="10.9912591"><ele>1342.8333333333333</ele><time>2026-05-02T12:25:08.971Z</time></trkpt><trkpt lat="45.6668961" lon="10.9912129"><ele>1342.0</ele><time>2026-05-02T12:25:16.949Z</time></trkpt><trkpt lat="45.6668276" lon="10.9912578"><ele>1340.1999999999998</ele><time>2026-05-02T12:25:19.968Z</time></trkpt><trkpt lat="45.6667734" lon="10.9913068"><ele>1338.4</ele><time>2026-05-02T12:25:21.96Z</time></trkpt><trkpt lat="45.6666923" lon="10.9913379"><ele>1336.6</ele><time>2026-05-02T12:25:24.966Z</time></trkpt><trkpt lat="45.6665776" lon="10.9912629"><ele>1334.8000000000002</ele><time>2026-05-02T12:25:38.966Z</time></trkpt><trkpt lat="45.6665741" lon="10.9911672"><ele>1333.0</ele><time>2026-05-02T12:26:04.969Z</time></trkpt><trkpt lat="45.6666066" lon="10.9909948"><ele>1333.0</ele><time>2026-05-02T12:26:11.957Z</time></trkpt><trkpt lat="45.6666744" lon="10.9909174"><ele>1333.0</ele><time>2026-05-02T12:26:14.979Z</time></trkpt><trkpt lat="45.6667057" lon="10.9908383"><ele>1333.0</ele><time>2026-05-02T12:26:16.967Z</time></trkpt><trkpt lat="45.666777" lon="10.9907544"><ele>1333.0</ele><time>2026-05-02T12:26:19.964Z</time></trkpt><trkpt lat="45.6668337" lon="10.9906957"><ele>1333.0</ele><time>2026-05-02T12:26:21.955Z</time></trkpt><trkpt lat="45.6669099" lon="10.9906523"><ele>1333.0</ele><time>2026-05-02T12:26:23.972Z</time></trkpt><trkpt lat="45.666971" lon="10.9906125"><ele>1330.0</ele><time>2026-05-02T12:26:25.952Z</time></trkpt><trkpt lat="45.667032" lon="10.9905709"><ele>1327.0</ele><time>2026-05-02T12:26:27.966Z</time></trkpt><trkpt lat="45.6671008" lon="10.9905211"><ele>1324.0</ele><time>2026-05-02T12:26:30.98Z</time></trkpt><trkpt lat="45.6671744" lon="10.9904901"><ele>1321.0</ele><time>2026-05-02T12:26:34.047Z</time></trkpt><trkpt lat="45.6672417" lon="10.9904752"><ele>1318.0</ele><time>2026-05-02T12:26:35.969Z</time></trkpt><trkpt lat="45.6673165" lon="10.9904623"><ele>1315.0</ele><time>2026-05-02T12:26:37.969Z</time></trkpt><trkpt lat="45.6674031" lon="10.9904444"><ele>1315.0</ele><time>2026-05-02T12:26:39.962Z</time></trkpt><trkpt lat="45.6675064" lon="10.9904373"><ele>1315.0</ele><time>2026-05-02T12:26:40.961Z</time></trkpt><trkpt lat="45.667582" lon="10.9904364"><ele>1315.0</ele><time>2026-05-02T12:26:41.959Z</time></trkpt><trkpt lat="45.6676564" lon="10.9904386"><ele>1315.0</ele><time>2026-05-02T12:26:42.967Z</time></trkpt><trkpt lat="45.6677239" lon="10.9904335"><ele>1315.0</ele><time>2026-05-02T12:26:43.954Z</time></trkpt><trkpt lat="45.667792" lon="10.9904148"><ele>1315.0</ele><time>2026-05-02T12:26:44.965Z</time></trkpt><trkpt lat="45.6678619" lon="10.9904032"><ele>1314.0</ele><time>2026-05-02T12:26:45.965Z</time></trkpt><trkpt lat="45.6679309" lon="10.9903836"><ele>1313.0</ele><time>2026-05-02T12:26:46.993Z</time></trkpt><trkpt lat="45.6680471" lon="10.9903739"><ele>1312.0</ele><time>2026-05-02T12:26:48.964Z</time></trkpt><trkpt lat="45.6681164" lon="10.99036"><ele>1311.0</ele><time>2026-05-02T12:26:49.971Z</time></trkpt><trkpt lat="45.6681818" lon="10.9903457"><ele>1310.0</ele><time>2026-05-02T12:26:50.972Z</time></trkpt><trkpt lat="45.668247" lon="10.9903365"><ele>1309.0</ele><time>2026-05-02T12:26:51.994Z</time></trkpt><trkpt lat="45.6683243" lon="10.9903336"><ele>1309.0</ele><time>2026-05-02T12:26:52.961Z</time></trkpt><trkpt lat="45.6683957" lon="10.9903364"><ele>1309.0</ele><time>2026-05-02T12:26:53.964Z</time></trkpt><trkpt lat="45.6684709" lon="10.9903451"><ele>1309.0</ele><time>2026-05-02T12:26:54.967Z</time></trkpt><trkpt lat="45.6685448" lon="10.990341"><ele>1309.0</ele><time>2026-05-02T12:26:55.959Z</time></trkpt><trkpt lat="45.6686113" lon="10.9903308"><ele>1309.0</ele><time>2026-05-02T12:26:56.968Z</time></trkpt><trkpt lat="45.668679" lon="10.9903228"><ele>1309.0</ele><time>2026-05-02T12:26:57.969Z</time></trkpt><trkpt lat="45.6687881" lon="10.9903127"><ele>1306.5</ele><time>2026-05-02T12:26:59.956Z</time></trkpt><trkpt lat="45.6688538" lon="10.9903117"><ele>1304.0</ele><time>2026-05-02T12:27:00.962Z</time></trkpt><trkpt lat="45.668972" lon="10.9903009"><ele>1301.5</ele><time>2026-05-02T12:27:02.978Z</time></trkpt><trkpt lat="45.6690605" lon="10.9902964"><ele>1299.0</ele><time>2026-05-02T12:27:04.973Z</time></trkpt><trkpt lat="45.6691381" lon="10.9902798"><ele>1296.5</ele><time>2026-05-02T12:27:06.967Z</time></trkpt><trkpt lat="45.6692147" lon="10.9902522"><ele>1294.0</ele><time>2026-05-02T12:27:08.956Z</time></trkpt><trkpt lat="45.6693116" lon="10.9902219"><ele>1294.0</ele><time>2026-05-02T12:27:10.96Z</time></trkpt><trkpt lat="45.6694368" lon="10.9901961"><ele>1294.0</ele><time>2026-05-02T12:27:12.974Z</time></trkpt><trkpt lat="45.6695476" lon="10.9901711"><ele>1294.0</ele><time>2026-05-02T12:27:14.97Z</time></trkpt><trkpt lat="45.6696136" lon="10.9901561"><ele>1294.0</ele><time>2026-05-02T12:27:15.969Z</time></trkpt><trkpt lat="45.6696845" lon="10.9901383"><ele>1294.0</ele><time>2026-05-02T12:27:16.96Z</time></trkpt><trkpt lat="45.6698095" lon="10.990137"><ele>1292.4</ele><time>2026-05-02T12:27:18.97Z</time></trkpt><trkpt lat="45.6698778" lon="10.9901335"><ele>1290.8000000000002</ele><time>2026-05-02T12:27:19.965Z</time></trkpt><trkpt lat="45.6699952" lon="10.9901519"><ele>1289.1999999999998</ele><time>2026-05-02T12:27:21.973Z</time></trkpt><trkpt lat="45.6700973" lon="10.9901637"><ele>1287.6</ele><time>2026-05-02T12:27:23.971Z</time></trkpt><trkpt lat="45.6701716" lon="10.9901507"><ele>1286.0</ele><time>2026-05-02T12:27:25.964Z</time></trkpt><trkpt lat="45.6702773" lon="10.9901499"><ele>1285.4</ele><time>2026-05-02T12:29:44.971Z</time></trkpt><trkpt lat="45.6702133" lon="10.9900978"><ele>1284.8</ele><time>2026-05-02T12:29:46.963Z</time></trkpt><trkpt lat="45.6700899" lon="10.9900533"><ele>1284.2</ele><time>2026-05-02T12:29:48.956Z</time></trkpt><trkpt lat="45.6700012" lon="10.9900292"><ele>1283.6000000000001</ele><time>2026-05-02T12:29:49.969Z</time></trkpt><trkpt lat="45.6699071" lon="10.9899976"><ele>1283.0</ele><time>2026-05-02T12:29:50.961Z</time></trkpt><trkpt lat="45.669789" lon="10.9899766"><ele>1277.0</ele><time>2026-05-02T12:29:51.961Z</time></trkpt><trkpt lat="45.6696657" lon="10.9899644"><ele>1271.0</ele><time>2026-05-02T12:29:52.971Z</time></trkpt><trkpt lat="45.669538" lon="10.9899508"><ele>1265.0</ele><time>2026-05-02T12:29:53.967Z</time></trkpt><trkpt lat="45.6694148" lon="10.9899143"><ele>1259.0</ele><time>2026-05-02T12:29:54.968Z</time></trkpt><trkpt lat="45.6692882" lon="10.9898585"><ele>1259.0</ele><time>2026-05-02T12:29:55.969Z</time></trkpt><trkpt lat="45.6691625" lon="10.9897981"><ele>1259.0</ele><time>2026-05-02T12:29:56.969Z</time></trkpt><trkpt lat="45.6690404" lon="10.9897251"><ele>1259.0</ele><time>2026-05-02T12:29:57.969Z</time></trkpt><trkpt lat="45.6689247" lon="10.9896512"><ele>1259.0</ele><time>2026-05-02T12:29:58.96Z</time></trkpt><trkpt lat="45.6688142" lon="10.9895733"><ele>1259.0</ele><time>2026-05-02T12:29:59.963Z</time></trkpt><trkpt lat="45.6686951" lon="10.9894982"><ele>1259.0</ele><time>2026-05-02T12:30:00.964Z</time></trkpt><trkpt lat="45.6685658" lon="10.9894361"><ele>1259.0</ele><time>2026-05-02T12:30:01.967Z</time></trkpt><trkpt lat="45.6684167" lon="10.9893742"><ele>1259.0</ele><time>2026-05-02T12:30:02.975Z</time></trkpt><trkpt lat="45.6682654" lon="10.9893195"><ele>1262.6666666666667</ele><time>2026-05-02T12:30:03.972Z</time></trkpt><trkpt lat="45.6681029" lon="10.9892684"><ele>1266.3333333333333</ele><time>2026-05-02T12:30:04.967Z</time></trkpt><trkpt lat="45.6679402" lon="10.9892109"><ele>1270.0</ele><time>2026-05-02T12:30:05.966Z</time></trkpt><trkpt lat="45.6677708" lon="10.9891617"><ele>1260.6666666666665</ele><time>2026-05-02T12:30:06.97Z</time></trkpt><trkpt lat="45.6676045" lon="10.9891175"><ele>1251.3333333333333</ele><time>2026-05-02T12:30:07.958Z</time></trkpt><trkpt lat="45.6674491" lon="10.9890792"><ele>1242.0</ele><time>2026-05-02T12:30:08.97Z</time></trkpt><trkpt lat="45.6672962" lon="10.9890541"><ele>1242.0</ele><time>2026-05-02T12:30:09.968Z</time></trkpt><trkpt lat="45.6671461" lon="10.9890429"><ele>1242.0</ele><time>2026-05-02T12:30:10.969Z</time></trkpt><trkpt lat="45.667006" lon="10.9890185"><ele>1242.0</ele><time>2026-05-02T12:30:11.971Z</time></trkpt><trkpt lat="45.666863" lon="10.988977"><ele>1242.0</ele><time>2026-05-02T12:30:12.978Z</time></trkpt><trkpt lat="45.6667149" lon="10.9888979"><ele>1243.0</ele><time>2026-05-02T12:30:13.96Z</time></trkpt><trkpt lat="45.6665774" lon="10.9887713"><ele>1244.0</ele><time>2026-05-02T12:30:14.962Z</time></trkpt><trkpt lat="45.6664445" lon="10.9886562"><ele>1245.0</ele><time>2026-05-02T12:30:15.957Z</time></trkpt><trkpt lat="45.6663074" lon="10.9885683"><ele>1245.0</ele><time>2026-05-02T12:30:16.968Z</time></trkpt><trkpt lat="45.6661714" lon="10.9884879"><ele>1245.0</ele><time>2026-05-02T12:30:17.972Z</time></trkpt><trkpt lat="45.6660448" lon="10.98842"><ele>1245.0</ele><time>2026-05-02T12:30:18.965Z</time></trkpt><trkpt lat="45.6659146" lon="10.988355"><ele>1245.0</ele><time>2026-05-02T12:30:19.96Z</time></trkpt><trkpt lat="45.6657804" lon="10.9882962"><ele>1241.5</ele><time>2026-05-02T12:30:20.958Z</time></trkpt><trkpt lat="45.6656423" lon="10.9882466"><ele>1238.0</ele><time>2026-05-02T12:30:21.968Z</time></trkpt><trkpt lat="45.665507" lon="10.9882339"><ele>1234.5</ele><time>2026-05-02T12:30:22.97Z</time></trkpt><trkpt lat="45.6653706" lon="10.988253"><ele>1231.0</ele><time>2026-05-02T12:30:23.97Z</time></trkpt><trkpt lat="45.6652469" lon="10.9882762"><ele>1231.0</ele><time>2026-05-02T12:30:24.971Z</time></trkpt><trkpt lat="45.6651232" lon="10.9882987"><ele>1231.0</ele><time>2026-05-02T12:30:25.96Z</time></trkpt><trkpt lat="45.6650003" lon="10.9882985"><ele>1231.0</ele><time>2026-05-02T12:30:26.962Z</time></trkpt><trkpt lat="45.6648903" lon="10.9882454"><ele>1231.0</ele><time>2026-05-02T12:30:27.97Z</time></trkpt><trkpt lat="45.6647974" lon="10.9881369"><ele>1231.0</ele><time>2026-05-02T12:30:28.979Z</time></trkpt><trkpt lat="45.6647052" lon="10.9879973"><ele>1231.0</ele><time>2026-05-02T12:30:29.968Z</time></trkpt><trkpt lat="45.6646108" lon="10.9878372"><ele>1231.0</ele><time>2026-05-02T12:30:30.964Z</time></trkpt><trkpt lat="45.6645117" lon="10.9877085"><ele>1231.0</ele><time>2026-05-02T12:30:31.967Z</time></trkpt><trkpt lat="45.6643965" lon="10.9875929"><ele>1227.0</ele><time>2026-05-02T12:30:32.964Z</time></trkpt><trkpt lat="45.6642725" lon="10.9874824"><ele>1223.0</ele><time>2026-05-02T12:30:33.966Z</time></trkpt><trkpt lat="45.6641455" lon="10.9873699"><ele>1219.0</ele><time>2026-05-02T12:30:34.97Z</time></trkpt><trkpt lat="45.6640214" lon="10.9872376"><ele>1219.0</ele><time>2026-05-02T12:30:35.967Z</time></trkpt><trkpt lat="45.6638984" lon="10.9871045"><ele>1219.0</ele><time>2026-05-02T12:30:36.967Z</time></trkpt><trkpt lat="45.6637692" lon="10.9869875"><ele>1219.0</ele><time>2026-05-02T12:30:37.965Z</time></trkpt><trkpt lat="45.6636287" lon="10.9869121"><ele>1215.75</ele><time>2026-05-02T12:30:38.977Z</time></trkpt><trkpt lat="45.6634858" lon="10.986846"><ele>1212.5</ele><time>2026-05-02T12:30:39.965Z</time></trkpt><trkpt lat="45.6633452" lon="10.986777"><ele>1209.25</ele><time>2026-05-02T12:30:40.961Z</time></trkpt><trkpt lat="45.663212" lon="10.9867088"><ele>1206.0</ele><time>2026-05-02T12:30:41.958Z</time></trkpt><trkpt lat="45.6630854" lon="10.9866525"><ele>1206.0</ele><time>2026-05-02T12:30:42.971Z</time></trkpt><trkpt lat="45.6629567" lon="10.986628"><ele>1206.0</ele><time>2026-05-02T12:30:43.966Z</time></trkpt><trkpt lat="45.6628263" lon="10.98664"><ele>1206.0</ele><time>2026-05-02T12:30:44.968Z</time></trkpt><trkpt lat="45.6626918" lon="10.9867047"><ele>1206.0</ele><time>2026-05-02T12:30:45.963Z</time></trkpt><trkpt lat="45.6625731" lon="10.9867796"><ele>1211.75</ele><time>2026-05-02T12:30:46.967Z</time></trkpt><trkpt lat="45.6624501" lon="10.9868696"><ele>1217.5</ele><time>2026-05-02T12:30:47.979Z</time></trkpt><trkpt lat="45.6623232" lon="10.9869596"><ele>1223.25</ele><time>2026-05-02T12:30:48.972Z</time></trkpt><trkpt lat="45.6621895" lon="10.98706"><ele>1229.0</ele><time>2026-05-02T12:30:49.968Z</time></trkpt><trkpt lat="45.6620458" lon="10.987164"><ele>1219.3333333333335</ele><time>2026-05-02T12:30:50.962Z</time></trkpt><trkpt lat="45.6618966" lon="10.9872625"><ele>1209.6666666666667</ele><time>2026-05-02T12:30:51.965Z</time></trkpt><trkpt lat="45.6617468" lon="10.9873667"><ele>1200.0</ele><time>2026-05-02T12:30:52.967Z</time></trkpt><trkpt lat="45.6615911" lon="10.9874521"><ele>1213.6666666666667</ele><time>2026-05-02T12:30:53.958Z</time></trkpt><trkpt lat="45.6614437" lon="10.9875259"><ele>1227.3333333333335</ele><time>2026-05-02T12:30:54.964Z</time></trkpt><trkpt lat="45.661298" lon="10.9875783"><ele>1241.0</ele><time>2026-05-02T12:30:55.962Z</time></trkpt><trkpt lat="45.6611514" lon="10.9876209"><ele>1237.0</ele><time>2026-05-02T12:30:56.966Z</time></trkpt><trkpt lat="45.661003" lon="10.9876522"><ele>1233.0</ele><time>2026-05-02T12:30:57.965Z</time></trkpt><trkpt lat="45.6608471" lon="10.987667"><ele>1229.0</ele><time>2026-05-02T12:30:58.965Z</time></trkpt><trkpt lat="45.6606948" lon="10.987657"><ele>1229.0</ele><time>2026-05-02T12:30:59.972Z</time></trkpt><trkpt lat="45.6605434" lon="10.9876249"><ele>1229.0</ele><time>2026-05-02T12:31:00.965Z</time></trkpt><trkpt lat="45.6603841" lon="10.9875804"><ele>1229.0</ele><time>2026-05-02T12:31:01.971Z</time></trkpt><trkpt lat="45.6602304" lon="10.987531"><ele>1215.0</ele><time>2026-05-02T12:31:02.973Z</time></trkpt><trkpt lat="45.6600768" lon="10.9874872"><ele>1201.0</ele><time>2026-05-02T12:31:03.971Z</time></trkpt><trkpt lat="45.6599218" lon="10.9874449"><ele>1187.0</ele><time>2026-05-02T12:31:04.972Z</time></trkpt><trkpt lat="45.6597688" lon="10.9874137"><ele>1187.0</ele><time>2026-05-02T12:31:05.973Z</time></trkpt><trkpt lat="45.6596224" lon="10.9873858"><ele>1187.0</ele><time>2026-05-02T12:31:06.971Z</time></trkpt><trkpt lat="45.6594784" lon="10.9873775"><ele>1187.0</ele><time>2026-05-02T12:31:07.967Z</time></trkpt><trkpt lat="45.65933" lon="10.9873687"><ele>1187.0</ele><time>2026-05-02T12:31:08.972Z</time></trkpt><trkpt lat="45.6591903" lon="10.9873285"><ele>1190.25</ele><time>2026-05-02T12:31:09.951Z</time></trkpt><trkpt lat="45.6590573" lon="10.987273"><ele>1193.5</ele><time>2026-05-02T12:31:10.957Z</time></trkpt><trkpt lat="45.6589246" lon="10.9872064"><ele>1196.75</ele><time>2026-05-02T12:31:11.96Z</time></trkpt><trkpt lat="45.6588004" lon="10.9871211"><ele>1200.0</ele><time>2026-05-02T12:31:12.973Z</time></trkpt><trkpt lat="45.6586716" lon="10.9870462"><ele>1204.5</ele><time>2026-05-02T12:31:13.964Z</time></trkpt><trkpt lat="45.6585453" lon="10.9869603"><ele>1209.0</ele><time>2026-05-02T12:31:14.975Z</time></trkpt><trkpt lat="45.6584411" lon="10.9868353"><ele>1213.5</ele><time>2026-05-02T12:31:15.971Z</time></trkpt><trkpt lat="45.6583482" lon="10.9866654"><ele>1218.0</ele><time>2026-05-02T12:31:16.967Z</time></trkpt><trkpt lat="45.6582552" lon="10.9865054"><ele>1203.6666666666667</ele><time>2026-05-02T12:31:17.964Z</time></trkpt><trkpt lat="45.6581424" lon="10.9863498"><ele>1189.3333333333335</ele><time>2026-05-02T12:31:18.966Z</time></trkpt><trkpt lat="45.6580232" lon="10.986207"><ele>1175.0</ele><time>2026-05-02T12:31:19.972Z</time></trkpt><trkpt lat="45.657896" lon="10.986059"><ele>1176.3333333333335</ele><time>2026-05-02T12:31:20.966Z</time></trkpt><trkpt lat="45.6577773" lon="10.9859272"><ele>1177.6666666666667</ele><time>2026-05-02T12:31:21.961Z</time></trkpt><trkpt lat="45.6576564" lon="10.9857992"><ele>1179.0</ele><time>2026-05-02T12:31:22.969Z</time></trkpt><trkpt lat="45.6575374" lon="10.9856654"><ele>1179.0</ele><time>2026-05-02T12:31:23.973Z</time></trkpt><trkpt lat="45.6574321" lon="10.9855204"><ele>1179.0</ele><time>2026-05-02T12:31:24.973Z</time></trkpt><trkpt lat="45.657336" lon="10.9853559"><ele>1179.0</ele><time>2026-05-02T12:31:25.964Z</time></trkpt><trkpt lat="45.6572402" lon="10.9851884"><ele>1179.0</ele><time>2026-05-02T12:31:26.97Z</time></trkpt><trkpt lat="45.6571448" lon="10.985027"><ele>1180.0</ele><time>2026-05-02T12:31:27.967Z</time></trkpt><trkpt lat="45.6570454" lon="10.9848941"><ele>1181.0</ele><time>2026-05-02T12:31:28.979Z</time></trkpt><trkpt lat="45.6569404" lon="10.9847759"><ele>1182.0</ele><time>2026-05-02T12:31:29.97Z</time></trkpt><trkpt lat="45.6568243" lon="10.9846937"><ele>1183.0</ele><time>2026-05-02T12:31:30.97Z</time></trkpt><trkpt lat="45.6567001" lon="10.9846123"><ele>1183.0</ele><time>2026-05-02T12:31:31.97Z</time></trkpt><trkpt lat="45.6565707" lon="10.9845283"><ele>1183.0</ele><time>2026-05-02T12:31:32.969Z</time></trkpt><trkpt lat="45.656441" lon="10.9844351"><ele>1183.0</ele><time>2026-05-02T12:31:33.962Z</time></trkpt><trkpt lat="45.6563167" lon="10.9843328"><ele>1183.0</ele><time>2026-05-02T12:31:34.973Z</time></trkpt><trkpt lat="45.6562143" lon="10.9842022"><ele>1179.75</ele><time>2026-05-02T12:31:35.963Z</time></trkpt><trkpt lat="45.6561122" lon="10.9840664"><ele>1176.5</ele><time>2026-05-02T12:31:36.961Z</time></trkpt><trkpt lat="45.6560243" lon="10.9839207"><ele>1173.25</ele><time>2026-05-02T12:31:37.973Z</time></trkpt><trkpt lat="45.6559353" lon="10.9837683"><ele>1170.0</ele><time>2026-05-02T12:31:38.975Z</time></trkpt><trkpt lat="45.6558399" lon="10.9836009"><ele>1170.0</ele><time>2026-05-02T12:31:39.95Z</time></trkpt><trkpt lat="45.6557389" lon="10.983455"><ele>1170.0</ele><time>2026-05-02T12:31:40.971Z</time></trkpt><trkpt lat="45.6556284" lon="10.9833337"><ele>1170.0</ele><time>2026-05-02T12:31:41.968Z</time></trkpt><trkpt lat="45.6555001" lon="10.9832641"><ele>1170.0</ele><time>2026-05-02T12:31:42.974Z</time></trkpt><trkpt lat="45.6553917" lon="10.9832521"><ele>1170.4</ele><time>2026-05-02T12:31:43.974Z</time></trkpt><trkpt lat="45.6552848" lon="10.9832764"><ele>1170.8</ele><time>2026-05-02T12:31:44.975Z</time></trkpt><trkpt lat="45.6551909" lon="10.9833112"><ele>1171.2</ele><time>2026-05-02T12:31:45.962Z</time></trkpt><trkpt lat="45.6550936" lon="10.983361"><ele>1171.6</ele><time>2026-05-02T12:31:46.964Z</time></trkpt><trkpt lat="45.6549959" lon="10.9834034"><ele>1172.0</ele><time>2026-05-02T12:31:47.975Z</time></trkpt><trkpt lat="45.6548927" lon="10.9834446"><ele>1172.0</ele><time>2026-05-02T12:31:48.963Z</time></trkpt><trkpt lat="45.6547906" lon="10.983492"><ele>1172.0</ele><time>2026-05-02T12:31:49.974Z</time></trkpt><trkpt lat="45.6546952" lon="10.9835512"><ele>1172.0</ele><time>2026-05-02T12:31:50.968Z</time></trkpt><trkpt lat="45.6546018" lon="10.9836172"><ele>1172.0</ele><time>2026-05-02T12:31:51.968Z</time></trkpt><trkpt lat="45.6545042" lon="10.9836981"><ele>1172.0</ele><time>2026-05-02T12:31:52.972Z</time></trkpt><trkpt lat="45.6544039" lon="10.983783"><ele>1170.8</ele><time>2026-05-02T12:31:53.967Z</time></trkpt><trkpt lat="45.6543069" lon="10.983865"><ele>1169.6</ele><time>2026-05-02T12:31:54.968Z</time></trkpt><trkpt lat="45.6542115" lon="10.9839414"><ele>1168.3999999999999</ele><time>2026-05-02T12:31:55.968Z</time></trkpt><trkpt lat="45.6541252" lon="10.9840146"><ele>1167.2</ele><time>2026-05-02T12:31:56.97Z</time></trkpt><trkpt lat="45.6540393" lon="10.9840924"><ele>1166.0</ele><time>2026-05-02T12:31:57.961Z</time></trkpt><trkpt lat="45.6539695" lon="10.9841963"><ele>1166.0</ele><time>2026-05-02T12:31:58.963Z</time></trkpt><trkpt lat="45.6539016" lon="10.9843245"><ele>1166.0</ele><time>2026-05-02T12:31:59.962Z</time></trkpt><trkpt lat="45.6538272" lon="10.9844442"><ele>1166.0</ele><time>2026-05-02T12:32:00.973Z</time></trkpt><trkpt lat="45.6537508" lon="10.9845735"><ele>1166.0</ele><time>2026-05-02T12:32:01.965Z</time></trkpt><trkpt lat="45.653676" lon="10.9847063"><ele>1161.75</ele><time>2026-05-02T12:32:02.97Z</time></trkpt><trkpt lat="45.6535957" lon="10.9848356"><ele>1157.5</ele><time>2026-05-02T12:32:04.033Z</time></trkpt><trkpt lat="45.6535173" lon="10.9849647"><ele>1153.25</ele><time>2026-05-02T12:32:04.969Z</time></trkpt><trkpt lat="45.6534323" lon="10.9851"><ele>1149.0</ele><time>2026-05-02T12:32:05.975Z</time></trkpt><trkpt lat="45.6533505" lon="10.9852407"><ele>1149.0</ele><time>2026-05-02T12:32:06.993Z</time></trkpt><trkpt lat="45.6532761" lon="10.9853863"><ele>1149.0</ele><time>2026-05-02T12:32:07.97Z</time></trkpt><trkpt lat="45.6532102" lon="10.9855287"><ele>1149.0</ele><time>2026-05-02T12:32:08.963Z</time></trkpt><trkpt lat="45.6531505" lon="10.9856683"><ele>1149.0</ele><time>2026-05-02T12:32:09.974Z</time></trkpt><trkpt lat="45.6530884" lon="10.9858153"><ele>1152.75</ele><time>2026-05-02T12:32:10.97Z</time></trkpt><trkpt lat="45.6530248" lon="10.9859678"><ele>1156.5</ele><time>2026-05-02T12:32:11.97Z</time></trkpt><trkpt lat="45.6529638" lon="10.9861084"><ele>1160.25</ele><time>2026-05-02T12:32:12.975Z</time></trkpt><trkpt lat="45.6528995" lon="10.9862522"><ele>1164.0</ele><time>2026-05-02T12:32:13.973Z</time></trkpt><trkpt lat="45.6528324" lon="10.9863889"><ele>1160.2</ele><time>2026-05-02T12:32:14.974Z</time></trkpt><trkpt lat="45.6527636" lon="10.9865283"><ele>1156.4</ele><time>2026-05-02T12:32:15.963Z</time></trkpt><trkpt lat="45.6526973" lon="10.9866585"><ele>1152.6</ele><time>2026-05-02T12:32:16.943Z</time></trkpt><trkpt lat="45.6526422" lon="10.9867803"><ele>1148.8</ele><time>2026-05-02T12:32:17.951Z</time></trkpt><trkpt lat="45.6525927" lon="10.9869003"><ele>1145.0</ele><time>2026-05-02T12:32:18.961Z</time></trkpt><trkpt lat="45.6525442" lon="10.9870159"><ele>1145.0</ele><time>2026-05-02T12:32:19.958Z</time></trkpt><trkpt lat="45.6524936" lon="10.987129"><ele>1145.0</ele><time>2026-05-02T12:32:20.963Z</time></trkpt><trkpt lat="45.6524422" lon="10.9872464"><ele>1145.0</ele><time>2026-05-02T12:32:21.975Z</time></trkpt><trkpt lat="45.6523804" lon="10.9873727"><ele>1145.0</ele><time>2026-05-02T12:32:22.972Z</time></trkpt><trkpt lat="45.6523167" lon="10.987505"><ele>1145.0</ele><time>2026-05-02T12:32:23.958Z</time></trkpt><trkpt lat="45.6522397" lon="10.987636"><ele>1147.8</ele><time>2026-05-02T12:32:24.969Z</time></trkpt><trkpt lat="45.6521598" lon="10.9877525"><ele>1150.6</ele><time>2026-05-02T12:32:25.961Z</time></trkpt><trkpt lat="45.6520882" lon="10.9878583"><ele>1153.4</ele><time>2026-05-02T12:32:26.974Z</time></trkpt><trkpt lat="45.652022" lon="10.9879611"><ele>1156.2</ele><time>2026-05-02T12:32:27.97Z</time></trkpt><trkpt lat="45.651963" lon="10.9880565"><ele>1159.0</ele><time>2026-05-02T12:32:28.98Z</time></trkpt><trkpt lat="45.6519067" lon="10.9881457"><ele>1156.0</ele><time>2026-05-02T12:32:29.976Z</time></trkpt><trkpt lat="45.6518547" lon="10.9882365"><ele>1153.0</ele><time>2026-05-02T12:32:30.972Z</time></trkpt><trkpt lat="45.6518055" lon="10.9883335"><ele>1150.0</ele><time>2026-05-02T12:32:31.974Z</time></trkpt><trkpt lat="45.6517646" lon="10.9884307"><ele>1147.0</ele><time>2026-05-02T12:32:32.974Z</time></trkpt><trkpt lat="45.6517278" lon="10.9885249"><ele>1144.0</ele><time>2026-05-02T12:32:33.964Z</time></trkpt><trkpt lat="45.6516991" lon="10.9886302"><ele>1141.0</ele><time>2026-05-02T12:32:34.968Z</time></trkpt><trkpt lat="45.6516651" lon="10.9887331"><ele>1141.0</ele><time>2026-05-02T12:32:35.972Z</time></trkpt><trkpt lat="45.6516302" lon="10.9888311"><ele>1141.0</ele><time>2026-05-02T12:32:36.969Z</time></trkpt><trkpt lat="45.6516054" lon="10.9889344"><ele>1141.0</ele><time>2026-05-02T12:32:37.946Z</time></trkpt><trkpt lat="45.6515821" lon="10.9890544"><ele>1141.0</ele><time>2026-05-02T12:32:39.971Z</time></trkpt><trkpt lat="45.6515307" lon="10.9889619"><ele>1141.0</ele><time>2026-05-02T12:32:47.96Z</time></trkpt><trkpt lat="45.6515079" lon="10.9888258"><ele>1141.0</ele><time>2026-05-02T12:32:49.978Z</time></trkpt><trkpt lat="45.6514794" lon="10.9886724"><ele>1141.0</ele><time>2026-05-02T12:32:51.963Z</time></trkpt><trkpt lat="45.6514615" lon="10.9885275"><ele>1141.0</ele><time>2026-05-02T12:32:53.96Z</time></trkpt><trkpt lat="45.6514698" lon="10.988379"><ele>1141.0</ele><time>2026-05-02T12:32:55.966Z</time></trkpt><trkpt lat="45.6515009" lon="10.9882156"><ele>1141.0</ele><time>2026-05-02T12:32:57.973Z</time></trkpt><trkpt lat="45.6515219" lon="10.9881261"><ele>1141.0</ele><time>2026-05-02T12:32:58.964Z</time></trkpt><trkpt lat="45.6515476" lon="10.9880416"><ele>1139.4285714285713</ele><time>2026-05-02T12:32:59.951Z</time></trkpt><trkpt lat="45.651571" lon="10.9879535"><ele>1137.857142857143</ele><time>2026-05-02T12:33:00.953Z</time></trkpt><trkpt lat="45.6516011" lon="10.9878645"><ele>1136.2857142857142</ele><time>2026-05-02T12:33:01.965Z</time></trkpt><trkpt lat="45.6516283" lon="10.9877711"><ele>1134.7142857142858</ele><time>2026-05-02T12:33:02.953Z</time></trkpt><trkpt lat="45.6516507" lon="10.9876866"><ele>1133.142857142857</ele><time>2026-05-02T12:33:03.961Z</time></trkpt><trkpt lat="45.6516697" lon="10.9875958"><ele>1131.5714285714284</ele><time>2026-05-02T12:33:04.967Z</time></trkpt><trkpt lat="45.6516915" lon="10.9875049"><ele>1130.0</ele><time>2026-05-02T12:33:05.974Z</time></trkpt><trkpt lat="45.6517141" lon="10.9874174"><ele>1127.4</ele><time>2026-05-02T12:33:07.03Z</time></trkpt><trkpt lat="45.6517527" lon="10.9872583"><ele>1124.8</ele><time>2026-05-02T12:33:08.982Z</time></trkpt><trkpt lat="45.6517682" lon="10.9871521"><ele>1122.2</ele><time>2026-05-02T12:33:10.967Z</time></trkpt><trkpt lat="45.651757" lon="10.9870283"><ele>1119.6</ele><time>2026-05-02T12:33:12.963Z</time></trkpt><trkpt lat="45.6517313" lon="10.9868588"><ele>1117.0</ele><time>2026-05-02T12:33:14.949Z</time></trkpt><trkpt lat="45.6517313" lon="10.9867362"><ele>1116.0000000000002</ele><time>2026-05-02T12:33:16.987Z</time></trkpt><trkpt lat="45.6516615" lon="10.9866569"><ele>1115.0</ele><time>2026-05-02T12:33:18.973Z</time></trkpt><trkpt lat="45.6515759" lon="10.9866212"><ele>1114.0</ele><time>2026-05-02T12:33:20.968Z</time></trkpt><trkpt lat="45.6515139" lon="10.9865543"><ele>1113.0</ele><time>2026-05-02T12:33:22.967Z</time></trkpt><trkpt lat="45.6514909" lon="10.9864701"><ele>1112.0</ele><time>2026-05-02T12:33:25.974Z</time></trkpt><trkpt lat="45.6514428" lon="10.9864103"><ele>1111.0000000000002</ele><time>2026-05-02T12:33:31.966Z</time></trkpt><trkpt lat="45.651409" lon="10.9863301"><ele>1110.0</ele><time>2026-05-02T12:33:42.969Z</time></trkpt><trkpt lat="45.651405" lon="10.9862032"><ele>1110.0</ele><time>2026-05-02T12:33:59.956Z</time></trkpt><trkpt lat="45.651371" lon="10.9861244"><ele>1110.0</ele><time>2026-05-02T12:34:00.966Z</time></trkpt><trkpt lat="45.6512997" lon="10.9859569"><ele>1110.0</ele><time>2026-05-02T12:34:02.958Z</time></trkpt><trkpt lat="45.6512392" lon="10.9858177"><ele>1110.0</ele><time>2026-05-02T12:34:04.956Z</time></trkpt><trkpt lat="45.6512019" lon="10.9857163"><ele>1110.0</ele><time>2026-05-02T12:34:06.984Z</time></trkpt><trkpt lat="45.6511711" lon="10.9855976"><ele>1108.2</ele><time>2026-05-02T12:34:08.973Z</time></trkpt><trkpt lat="45.6511613" lon="10.9854531"><ele>1106.4</ele><time>2026-05-02T12:34:10.966Z</time></trkpt><trkpt lat="45.6511597" lon="10.9853086"><ele>1104.6</ele><time>2026-05-02T12:34:12.974Z</time></trkpt><trkpt lat="45.6511702" lon="10.9851682"><ele>1102.8</ele><time>2026-05-02T12:34:14.969Z</time></trkpt><trkpt lat="45.6512024" lon="10.9850363"><ele>1101.0</ele><time>2026-05-02T12:34:16.979Z</time></trkpt><trkpt lat="45.6512513" lon="10.9848913"><ele>1098.3999999999999</ele><time>2026-05-02T12:34:18.975Z</time></trkpt><trkpt lat="45.6512982" lon="10.984744"><ele>1095.8</ele><time>2026-05-02T12:34:20.971Z</time></trkpt><trkpt lat="45.6513389" lon="10.9845947"><ele>1093.1999999999998</ele><time>2026-05-02T12:34:22.963Z</time></trkpt><trkpt lat="45.6513602" lon="10.9844508"><ele>1090.6</ele><time>2026-05-02T12:34:24.955Z</time></trkpt><trkpt lat="45.6513853" lon="10.9843214"><ele>1088.0</ele><time>2026-05-02T12:34:26.969Z</time></trkpt><trkpt lat="45.6514292" lon="10.9841705"><ele>1086.2</ele><time>2026-05-02T12:34:28.961Z</time></trkpt><trkpt lat="45.6514517" lon="10.9840851"><ele>1084.4</ele><time>2026-05-02T12:34:29.988Z</time></trkpt><trkpt lat="45.6514921" lon="10.9839184"><ele>1082.6000000000001</ele><time>2026-05-02T12:34:31.98Z</time></trkpt><trkpt lat="45.651536" lon="10.9837742"><ele>1080.8</ele><time>2026-05-02T12:34:33.966Z</time></trkpt><trkpt lat="45.6515836" lon="10.9836199"><ele>1079.0</ele><time>2026-05-02T12:34:35.963Z</time></trkpt><trkpt lat="45.6516289" lon="10.9834781"><ele>1077.6666666666667</ele><time>2026-05-02T12:34:37.981Z</time></trkpt><trkpt lat="45.6516652" lon="10.9833393"><ele>1076.3333333333335</ele><time>2026-05-02T12:34:39.984Z</time></trkpt><trkpt lat="45.6516965" lon="10.9832038"><ele>1075.0</ele><time>2026-05-02T12:34:42.028Z</time></trkpt><trkpt lat="45.6517172" lon="10.9831127"><ele>1073.6666666666667</ele><time>2026-05-02T12:34:44.976Z</time></trkpt><trkpt lat="45.6517314" lon="10.9830112"><ele>1072.3333333333333</ele><time>2026-05-02T12:34:47.979Z</time></trkpt><trkpt lat="45.6517948" lon="10.9829635"><ele>1071.0</ele><time>2026-05-02T12:34:50.961Z</time></trkpt><trkpt lat="45.6518382" lon="10.9830552"><ele>1073.0</ele><time>2026-05-02T12:34:52.966Z</time></trkpt><trkpt lat="45.6520189" lon="10.9830299"><ele>1075.0</ele><time>2026-05-02T12:34:55.967Z</time></trkpt><trkpt lat="45.6520746" lon="10.9829515"><ele>1077.0</ele><time>2026-05-02T12:34:56.965Z</time></trkpt><trkpt lat="45.6521391" lon="10.9828692"><ele>1079.0</ele><time>2026-05-02T12:34:57.97Z</time></trkpt><trkpt lat="45.6522066" lon="10.9827813"><ele>1081.0</ele><time>2026-05-02T12:34:58.965Z</time></trkpt><trkpt lat="45.6522726" lon="10.9826982"><ele>1081.0</ele><time>2026-05-02T12:34:59.969Z</time></trkpt><trkpt lat="45.6523475" lon="10.9826088"><ele>1081.0</ele><time>2026-05-02T12:35:00.972Z</time></trkpt><trkpt lat="45.6524282" lon="10.9825108"><ele>1081.0</ele><time>2026-05-02T12:35:01.96Z</time></trkpt><trkpt lat="45.6525096" lon="10.9823967"><ele>1081.0</ele><time>2026-05-02T12:35:02.964Z</time></trkpt><trkpt lat="45.6525846" lon="10.9822572"><ele>1081.0</ele><time>2026-05-02T12:35:04.03Z</time></trkpt><trkpt lat="45.6526552" lon="10.9821085"><ele>1080.0</ele><time>2026-05-02T12:35:04.965Z</time></trkpt><trkpt lat="45.6527154" lon="10.9819586"><ele>1079.0</ele><time>2026-05-02T12:35:06.024Z</time></trkpt><trkpt lat="45.6527744" lon="10.981819"><ele>1078.0</ele><time>2026-05-02T12:35:07.03Z</time></trkpt><trkpt lat="45.6528333" lon="10.9816731"><ele>1077.0</ele><time>2026-05-02T12:35:08.039Z</time></trkpt><trkpt lat="45.6528949" lon="10.9815234"><ele>1077.0</ele><time>2026-05-02T12:35:09.025Z</time></trkpt><trkpt lat="45.6529484" lon="10.9813745"><ele>1077.0</ele><time>2026-05-02T12:35:09.951Z</time></trkpt><trkpt lat="45.6530025" lon="10.9812331"><ele>1077.0</ele><time>2026-05-02T12:35:10.98Z</time></trkpt><trkpt lat="45.6530581" lon="10.9810985"><ele>1077.0</ele><time>2026-05-02T12:35:11.98Z</time></trkpt><trkpt lat="45.6531043" lon="10.980966"><ele>1077.0</ele><time>2026-05-02T12:35:13.031Z</time></trkpt><trkpt lat="45.6531363" lon="10.9808359"><ele>1074.3333333333333</ele><time>2026-05-02T12:35:14.022Z</time></trkpt><trkpt lat="45.6531502" lon="10.980696"><ele>1071.6666666666667</ele><time>2026-05-02T12:35:14.967Z</time></trkpt><trkpt lat="45.6531721" lon="10.9805686"><ele>1069.0</ele><time>2026-05-02T12:35:15.96Z</time></trkpt><trkpt lat="45.6532135" lon="10.9804766"><ele>1066.3333333333335</ele><time>2026-05-02T12:35:16.987Z</time></trkpt><trkpt lat="45.6532872" lon="10.9804196"><ele>1063.6666666666667</ele><time>2026-05-02T12:35:18.01Z</time></trkpt><trkpt lat="45.6533726" lon="10.9804573"><ele>1061.0</ele><time>2026-05-02T12:35:19.025Z</time></trkpt><trkpt lat="45.6534649" lon="10.9805201"><ele>1061.0</ele><time>2026-05-02T12:35:19.96Z</time></trkpt><trkpt lat="45.6535678" lon="10.9805904"><ele>1061.0</ele><time>2026-05-02T12:35:20.962Z</time></trkpt><trkpt lat="45.6536758" lon="10.9806558"><ele>1061.0</ele><time>2026-05-02T12:35:21.971Z</time></trkpt><trkpt lat="45.6537946" lon="10.980727"><ele>1061.0</ele><time>2026-05-02T12:35:23.024Z</time></trkpt><trkpt lat="45.6539253" lon="10.980818"><ele>1070.6666666666667</ele><time>2026-05-02T12:35:23.96Z</time></trkpt><trkpt lat="45.654055" lon="10.9808902"><ele>1080.3333333333333</ele><time>2026-05-02T12:35:24.984Z</time></trkpt><trkpt lat="45.6542015" lon="10.9809605"><ele>1090.0</ele><time>2026-05-02T12:35:25.965Z</time></trkpt><trkpt lat="45.6543575" lon="10.9810274"><ele>1085.3333333333333</ele><time>2026-05-02T12:35:27.039Z</time></trkpt><trkpt lat="45.6545184" lon="10.9810917"><ele>1080.6666666666667</ele><time>2026-05-02T12:35:28.026Z</time></trkpt><trkpt lat="45.6546827" lon="10.9811492"><ele>1076.0</ele><time>2026-05-02T12:35:29.033Z</time></trkpt><trkpt lat="45.6548537" lon="10.9811924"><ele>1076.0</ele><time>2026-05-02T12:35:29.964Z</time></trkpt><trkpt lat="45.6550255" lon="10.9812307"><ele>1076.0</ele><time>2026-05-02T12:35:30.961Z</time></trkpt><trkpt lat="45.6551961" lon="10.9812556"><ele>1076.0</ele><time>2026-05-02T12:35:31.964Z</time></trkpt><trkpt lat="45.6553586" lon="10.9812621"><ele>1070.0</ele><time>2026-05-02T12:35:32.961Z</time></trkpt><trkpt lat="45.6555121" lon="10.9812716"><ele>1064.0</ele><time>2026-05-02T12:35:33.97Z</time></trkpt><trkpt lat="45.6556603" lon="10.9812999"><ele>1058.0</ele><time>2026-05-02T12:35:34.976Z</time></trkpt><trkpt lat="45.6557941" lon="10.9813445"><ele>1052.0</ele><time>2026-05-02T12:35:35.947Z</time></trkpt><trkpt lat="45.655917" lon="10.9813926"><ele>1052.0</ele><time>2026-05-02T12:35:37.02Z</time></trkpt><trkpt lat="45.6560442" lon="10.9814665"><ele>1052.0</ele><time>2026-05-02T12:35:38.033Z</time></trkpt><trkpt lat="45.6561739" lon="10.9815644"><ele>1052.0</ele><time>2026-05-02T12:35:38.964Z</time></trkpt><trkpt lat="45.6563124" lon="10.981673"><ele>1052.0</ele><time>2026-05-02T12:35:39.965Z</time></trkpt><trkpt lat="45.6564577" lon="10.981772"><ele>1056.3333333333335</ele><time>2026-05-02T12:35:40.972Z</time></trkpt><trkpt lat="45.6566056" lon="10.9818796"><ele>1060.6666666666667</ele><time>2026-05-02T12:35:41.961Z</time></trkpt><trkpt lat="45.6567531" lon="10.9819798"><ele>1065.0</ele><time>2026-05-02T12:35:42.961Z</time></trkpt><trkpt lat="45.6568922" lon="10.9820806"><ele>1064.75</ele><time>2026-05-02T12:35:44.02Z</time></trkpt><trkpt lat="45.6570161" lon="10.9821888"><ele>1064.5</ele><time>2026-05-02T12:35:44.96Z</time></trkpt><trkpt lat="45.6571192" lon="10.9823162"><ele>1064.25</ele><time>2026-05-02T12:35:45.972Z</time></trkpt><trkpt lat="45.6572099" lon="10.9824828"><ele>1064.0</ele><time>2026-05-02T12:35:46.967Z</time></trkpt><trkpt lat="45.6573042" lon="10.9826544"><ele>1064.0</ele><time>2026-05-02T12:35:47.955Z</time></trkpt><trkpt lat="45.6574186" lon="10.9828107"><ele>1064.0</ele><time>2026-05-02T12:35:48.971Z</time></trkpt><trkpt lat="45.657548" lon="10.9829501"><ele>1064.0</ele><time>2026-05-02T12:35:49.969Z</time></trkpt><trkpt lat="45.6576756" lon="10.9830787"><ele>1064.5</ele><time>2026-05-02T12:35:50.974Z</time></trkpt><trkpt lat="45.6577997" lon="10.9832026"><ele>1065.0</ele><time>2026-05-02T12:35:51.957Z</time></trkpt><trkpt lat="45.6579199" lon="10.9832923"><ele>1065.5</ele><time>2026-05-02T12:35:53.033Z</time></trkpt><trkpt lat="45.6580537" lon="10.9833341"><ele>1066.0</ele><time>2026-05-02T12:35:54.046Z</time></trkpt><trkpt lat="45.6581669" lon="10.9833282"><ele>1066.0</ele><time>2026-05-02T12:35:54.967Z</time></trkpt><trkpt lat="45.6582509" lon="10.9832671"><ele>1066.0</ele><time>2026-05-02T12:35:56.031Z</time></trkpt><trkpt lat="45.6582793" lon="10.9831647"><ele>1066.0</ele><time>2026-05-02T12:35:56.963Z</time></trkpt><trkpt lat="45.6582707" lon="10.9830599"><ele>1066.0</ele><time>2026-05-02T12:35:58.038Z</time></trkpt><trkpt lat="45.6582337" lon="10.9829351"><ele>1066.0</ele><time>2026-05-02T12:35:59.032Z</time></trkpt><trkpt lat="45.6581805" lon="10.9828013"><ele>1066.0</ele><time>2026-05-02T12:35:59.964Z</time></trkpt><trkpt lat="45.6581141" lon="10.9826359"><ele>1068.3333333333333</ele><time>2026-05-02T12:36:00.966Z</time></trkpt><trkpt lat="45.6580456" lon="10.982445"><ele>1070.6666666666667</ele><time>2026-05-02T12:36:01.961Z</time></trkpt><trkpt lat="45.6579698" lon="10.9822352"><ele>1073.0</ele><time>2026-05-02T12:36:02.945Z</time></trkpt><trkpt lat="45.6578883" lon="10.9820171"><ele>1073.0</ele><time>2026-05-02T12:36:04.02Z</time></trkpt><trkpt lat="45.6578073" lon="10.9817751"><ele>1073.0</ele><time>2026-05-02T12:36:04.944Z</time></trkpt><trkpt lat="45.6577193" lon="10.981517"><ele>1073.0</ele><time>2026-05-02T12:36:05.969Z</time></trkpt><trkpt lat="45.6576043" lon="10.9812901"><ele>1070.6666666666667</ele><time>2026-05-02T12:36:06.961Z</time></trkpt><trkpt lat="45.6574641" lon="10.9811042"><ele>1068.3333333333333</ele><time>2026-05-02T12:36:08.017Z</time></trkpt><trkpt lat="45.6573182" lon="10.9809582"><ele>1066.0</ele><time>2026-05-02T12:36:09.025Z</time></trkpt><trkpt lat="45.6571809" lon="10.9808195"><ele>1066.0</ele><time>2026-05-02T12:36:09.963Z</time></trkpt><trkpt lat="45.657072" lon="10.9806599"><ele>1066.0</ele><time>2026-05-02T12:36:10.957Z</time></trkpt><trkpt lat="45.656975" lon="10.9804597"><ele>1066.0</ele><time>2026-05-02T12:36:11.961Z</time></trkpt><trkpt lat="45.6568735" lon="10.9802712"><ele>1055.3333333333333</ele><time>2026-05-02T12:36:13.037Z</time></trkpt><trkpt lat="45.6567578" lon="10.9801114"><ele>1044.6666666666667</ele><time>2026-05-02T12:36:14.03Z</time></trkpt><trkpt lat="45.6566539" lon="10.9799374"><ele>1034.0</ele><time>2026-05-02T12:36:14.968Z</time></trkpt><trkpt lat="45.6565604" lon="10.9797524"><ele>1034.0</ele><time>2026-05-02T12:36:15.966Z</time></trkpt><trkpt lat="45.6564685" lon="10.9795611"><ele>1034.0</ele><time>2026-05-02T12:36:16.977Z</time></trkpt><trkpt lat="45.6564036" lon="10.979354"><ele>1034.0</ele><time>2026-05-02T12:36:18.032Z</time></trkpt><trkpt lat="45.6563473" lon="10.9791496"><ele>1028.0</ele><time>2026-05-02T12:36:19.045Z</time></trkpt><trkpt lat="45.6562798" lon="10.9789567"><ele>1022.0</ele><time>2026-05-02T12:36:19.967Z</time></trkpt><trkpt lat="45.6561961" lon="10.9787804"><ele>1016.0</ele><time>2026-05-02T12:36:20.966Z</time></trkpt><trkpt lat="45.6560848" lon="10.9786165"><ele>1016.0</ele><time>2026-05-02T12:36:21.953Z</time></trkpt><trkpt lat="45.6559501" lon="10.9784927"><ele>1016.0</ele><time>2026-05-02T12:36:22.971Z</time></trkpt><trkpt lat="45.6558108" lon="10.9784068"><ele>1016.0</ele><time>2026-05-02T12:36:23.966Z</time></trkpt><trkpt lat="45.6556841" lon="10.9783371"><ele>1016.0</ele><time>2026-05-02T12:36:24.962Z</time></trkpt><trkpt lat="45.6555748" lon="10.9782691"><ele>1016.1666666666667</ele><time>2026-05-02T12:36:25.972Z</time></trkpt><trkpt lat="45.6554872" lon="10.9782097"><ele>1016.3333333333334</ele><time>2026-05-02T12:36:26.996Z</time></trkpt><trkpt lat="45.6554072" lon="10.9781603"><ele>1016.5</ele><time>2026-05-02T12:36:27.966Z</time></trkpt><trkpt lat="45.6553324" lon="10.9781161"><ele>1016.6666666666667</ele><time>2026-05-02T12:36:28.976Z</time></trkpt><trkpt lat="45.6552589" lon="10.9780738"><ele>1016.8333333333334</ele><time>2026-05-02T12:36:29.967Z</time></trkpt><trkpt lat="45.655194" lon="10.9780212"><ele>1017.0</ele><time>2026-05-02T12:36:30.967Z</time></trkpt><trkpt lat="45.6551263" lon="10.9779612"><ele>1017.0</ele><time>2026-05-02T12:36:31.967Z</time></trkpt><trkpt lat="45.6550513" lon="10.9778969"><ele>1017.0</ele><time>2026-05-02T12:36:32.964Z</time></trkpt><trkpt lat="45.6549773" lon="10.9778258"><ele>1017.0</ele><time>2026-05-02T12:36:34.064Z</time></trkpt><trkpt lat="45.654899" lon="10.9777487"><ele>1017.0</ele><time>2026-05-02T12:36:34.969Z</time></trkpt><trkpt lat="45.6548409" lon="10.9776836"><ele>1017.0</ele><time>2026-05-02T12:36:35.971Z</time></trkpt><trkpt lat="45.6547912" lon="10.9776259"><ele>1017.0</ele><time>2026-05-02T12:36:36.975Z</time></trkpt><trkpt lat="45.6547115" lon="10.9775218"><ele>1017.0</ele><time>2026-05-02T12:36:38.978Z</time></trkpt><trkpt lat="45.654634" lon="10.9774218"><ele>1017.0</ele><time>2026-05-02T12:36:40.973Z</time></trkpt><trkpt lat="45.654567" lon="10.9773428"><ele>1017.0</ele><time>2026-05-02T12:36:43.032Z</time></trkpt><trkpt lat="45.6545909" lon="10.9774589"><ele>1017.0</ele><time>2026-05-02T12:36:48.06Z</time></trkpt><trkpt lat="45.6546576" lon="10.9775325"><ele>1017.0</ele><time>2026-05-02T12:36:49.968Z</time></trkpt><trkpt lat="45.65472" lon="10.9776066"><ele>1017.0</ele><time>2026-05-02T12:36:51.969Z</time></trkpt><trkpt lat="45.6547901" lon="10.9776936"><ele>1017.0</ele><time>2026-05-02T12:36:53.977Z</time></trkpt><trkpt lat="45.654856" lon="10.9777668"><ele>1017.0</ele><time>2026-05-02T12:36:55.977Z</time></trkpt><trkpt lat="45.6549237" lon="10.9778414"><ele>1017.0</ele><time>2026-05-02T12:36:58.06Z</time></trkpt><trkpt lat="45.6550121" lon="10.9779268"><ele>1017.0</ele><time>2026-05-02T12:36:59.965Z</time></trkpt><trkpt lat="45.6550975" lon="10.9780088"><ele>1017.0</ele><time>2026-05-02T12:37:01.975Z</time></trkpt><trkpt lat="45.6551795" lon="10.9780765"><ele>1016.8333333333334</ele><time>2026-05-02T12:37:04.04Z</time></trkpt><trkpt lat="45.6552931" lon="10.9781533"><ele>1016.6666666666667</ele><time>2026-05-02T12:37:05.943Z</time></trkpt><trkpt lat="45.6553584" lon="10.9781942"><ele>1016.5</ele><time>2026-05-02T12:37:07.038Z</time></trkpt><trkpt lat="45.6554333" lon="10.9782347"><ele>1016.3333333333334</ele><time>2026-05-02T12:37:08.013Z</time></trkpt><trkpt lat="45.6555144" lon="10.9782794"><ele>1016.1666666666667</ele><time>2026-05-02T12:37:09.019Z</time></trkpt><trkpt lat="45.6555905" lon="10.9783315"><ele>1016.0</ele><time>2026-05-02T12:37:09.955Z</time></trkpt><trkpt lat="45.6556784" lon="10.9783801"><ele>1016.0</ele><time>2026-05-02T12:37:10.951Z</time></trkpt><trkpt lat="45.6557706" lon="10.9784279"><ele>1015.9999999999999</ele><time>2026-05-02T12:37:11.959Z</time></trkpt><trkpt lat="45.655864" lon="10.9784734"><ele>1015.9999999999999</ele><time>2026-05-02T12:37:13.022Z</time></trkpt><trkpt lat="45.6559509" lon="10.9785262"><ele>1016.0</ele><time>2026-05-02T12:37:14.042Z</time></trkpt><trkpt lat="45.6560292" lon="10.978582"><ele>1016.0</ele><time>2026-05-02T12:37:14.961Z</time></trkpt><trkpt lat="45.65609" lon="10.9786387"><ele>1022.8333333333334</ele><time>2026-05-02T12:37:15.968Z</time></trkpt><trkpt lat="45.6561432" lon="10.978706"><ele>1029.6666666666667</ele><time>2026-05-02T12:37:16.986Z</time></trkpt><trkpt lat="45.6562026" lon="10.9788145"><ele>1036.5</ele><time>2026-05-02T12:37:19.039Z</time></trkpt><trkpt lat="45.656255" lon="10.9788953"><ele>1043.3333333333333</ele><time>2026-05-02T12:37:31.967Z</time></trkpt><trkpt lat="45.6563086" lon="10.9790149"><ele>1050.1666666666665</ele><time>2026-05-02T12:37:35.953Z</time></trkpt><trkpt lat="45.6563456" lon="10.9791034"><ele>1057.0</ele><time>2026-05-02T12:37:38.954Z</time></trkpt><trkpt lat="45.656349" lon="10.9790064"><ele>1057.0</ele><time>2026-05-02T12:37:49.959Z</time></trkpt><trkpt lat="45.656301" lon="10.9788896"><ele>1057.0</ele><time>2026-05-02T12:37:52.06Z</time></trkpt><trkpt lat="45.6562637" lon="10.9787977"><ele>1057.0</ele><time>2026-05-02T12:37:54.051Z</time></trkpt><trkpt lat="45.6562126" lon="10.9788527"><ele>1057.0</ele><time>2026-05-02T12:38:20.974Z</time></trkpt><trkpt lat="45.656229" lon="10.9789407"><ele>1057.0</ele><time>2026-05-02T12:38:24.955Z</time></trkpt><trkpt lat="45.656256" lon="10.9790483"><ele>1057.0</ele><time>2026-05-02T12:38:28.03Z</time></trkpt><trkpt lat="45.6562772" lon="10.9791369"><ele>1057.0</ele><time>2026-05-02T12:38:30.989Z</time></trkpt><trkpt lat="45.6561952" lon="10.9791433"><ele>1057.0</ele><time>2026-05-02T12:38:36.061Z</time></trkpt><trkpt lat="45.6561525" lon="10.979063"><ele>1057.0</ele><time>2026-05-02T12:38:40.955Z</time></trkpt><trkpt lat="45.6561897" lon="10.9791372"><ele>1057.0</ele><time>2026-05-02T12:39:49.958Z</time></trkpt><trkpt lat="45.6562532" lon="10.9791339"><ele>1057.0</ele><time>2026-05-02T12:39:53.944Z</time></trkpt><trkpt lat="45.656262" lon="10.9790423"><ele>1057.0</ele><time>2026-05-02T12:40:13.969Z</time></trkpt><trkpt lat="45.6562376" lon="10.9789394"><ele>1057.0</ele><time>2026-05-02T12:40:16.972Z</time></trkpt><trkpt lat="45.6562141" lon="10.9788427"><ele>1057.0</ele><time>2026-05-02T12:40:19.966Z</time></trkpt><trkpt lat="45.656166" lon="10.9787411"><ele>1048.8</ele><time>2026-05-02T12:43:23.965Z</time></trkpt><trkpt lat="45.6561191" lon="10.978656"><ele>1040.6</ele><time>2026-05-02T12:43:24.954Z</time></trkpt><trkpt lat="45.6560546" lon="10.9785785"><ele>1032.3999999999999</ele><time>2026-05-02T12:43:25.971Z</time></trkpt><trkpt lat="45.6559757" lon="10.9785066"><ele>1024.2</ele><time>2026-05-02T12:43:26.961Z</time></trkpt><trkpt lat="45.6558897" lon="10.9784492"><ele>1016.0</ele><time>2026-05-02T12:43:27.957Z</time></trkpt><trkpt lat="45.6557901" lon="10.978397"><ele>1022.25</ele><time>2026-05-02T12:43:28.974Z</time></trkpt><trkpt lat="45.6556832" lon="10.9783428"><ele>1028.5</ele><time>2026-05-02T12:43:29.975Z</time></trkpt><trkpt lat="45.655569" lon="10.9782789"><ele>1034.75</ele><time>2026-05-02T12:43:30.966Z</time></trkpt><trkpt lat="45.6554732" lon="10.9782207"><ele>1041.0</ele><time>2026-05-02T12:43:31.971Z</time></trkpt><trkpt lat="45.6553703" lon="10.978161"><ele>1036.2</ele><time>2026-05-02T12:43:33.042Z</time></trkpt><trkpt lat="45.6552723" lon="10.9781031"><ele>1031.3999999999999</ele><time>2026-05-02T12:43:34.032Z</time></trkpt><trkpt lat="45.655183" lon="10.9780466"><ele>1026.6</ele><time>2026-05-02T12:43:34.956Z</time></trkpt><trkpt lat="45.6551022" lon="10.9779844"><ele>1021.8</ele><time>2026-05-02T12:43:35.957Z</time></trkpt><trkpt lat="45.6550247" lon="10.977912"><ele>1017.0</ele><time>2026-05-02T12:43:36.97Z</time></trkpt><trkpt lat="45.6549559" lon="10.9778516"><ele>1017.0</ele><time>2026-05-02T12:43:37.968Z</time></trkpt><trkpt lat="45.6548941" lon="10.977788"><ele>1017.0</ele><time>2026-05-02T12:43:38.965Z</time></trkpt><trkpt lat="45.6548322" lon="10.9777162"><ele>1017.0</ele><time>2026-05-02T12:43:39.968Z</time></trkpt><trkpt lat="45.6547677" lon="10.9776439"><ele>1017.0</ele><time>2026-05-02T12:43:40.96Z</time></trkpt><trkpt lat="45.6547035" lon="10.9775767"><ele>1017.0</ele><time>2026-05-02T12:43:42.043Z</time></trkpt><trkpt lat="45.6546469" lon="10.9775104"><ele>1017.0</ele><time>2026-05-02T12:43:43.032Z</time></trkpt><trkpt lat="45.6545961" lon="10.9774523"><ele>1016.3333333333334</ele><time>2026-05-02T12:43:43.962Z</time></trkpt><trkpt lat="45.6545085" lon="10.9773817"><ele>1015.6666666666667</ele><time>2026-05-02T12:43:45.968Z</time></trkpt><trkpt lat="45.6544661" lon="10.9773043"><ele>1015.0</ele><time>2026-05-02T12:44:06.966Z</time></trkpt><trkpt lat="45.6544261" lon="10.977158"><ele>1014.3333333333334</ele><time>2026-05-02T12:44:09.959Z</time></trkpt><trkpt lat="45.6543877" lon="10.9770831"><ele>1013.6666666666667</ele><time>2026-05-02T12:44:10.964Z</time></trkpt><trkpt lat="45.6543481" lon="10.9769902"><ele>1013.0</ele><time>2026-05-02T12:44:11.963Z</time></trkpt><trkpt lat="45.6543044" lon="10.976895"><ele>1013.0000000000001</ele><time>2026-05-02T12:44:12.971Z</time></trkpt><trkpt lat="45.6542484" lon="10.976796"><ele>1013.0</ele><time>2026-05-02T12:44:13.97Z</time></trkpt><trkpt lat="45.654185" lon="10.9767049"><ele>1013.0</ele><time>2026-05-02T12:44:14.971Z</time></trkpt><trkpt lat="45.6541277" lon="10.9766314"><ele>1013.0</ele><time>2026-05-02T12:44:16.038Z</time></trkpt><trkpt lat="45.6540785" lon="10.9765612"><ele>1013.0000000000001</ele><time>2026-05-02T12:44:16.965Z</time></trkpt><trkpt lat="45.6540121" lon="10.9764285"><ele>1013.0</ele><time>2026-05-02T12:44:18.983Z</time></trkpt><trkpt lat="45.6539507" lon="10.9763254"><ele>1017.0000000000001</ele><time>2026-05-02T12:44:21.042Z</time></trkpt><trkpt lat="45.653887" lon="10.9763342"><ele>1021.0</ele><time>2026-05-02T12:44:23.953Z</time></trkpt><trkpt lat="45.6539592" lon="10.9763516"><ele>1025.0</ele><time>2026-05-02T12:44:37.956Z</time></trkpt><trkpt lat="45.6540233" lon="10.976225"><ele>1029.0</ele><time>2026-05-02T12:44:39.979Z</time></trkpt><trkpt lat="45.6540583" lon="10.9761128"><ele>1033.0</ele><time>2026-05-02T12:44:40.975Z</time></trkpt><trkpt lat="45.6541036" lon="10.976017"><ele>1037.0</ele><time>2026-05-02T12:44:42.054Z</time></trkpt><trkpt lat="45.6541593" lon="10.9759345"><ele>1037.0</ele><time>2026-05-02T12:44:42.968Z</time></trkpt><trkpt lat="45.6542222" lon="10.9758578"><ele>1037.0</ele><time>2026-05-02T12:44:44.004Z</time></trkpt><trkpt lat="45.6542844" lon="10.9757786"><ele>1037.0</ele><time>2026-05-02T12:44:44.965Z</time></trkpt><trkpt lat="45.6543521" lon="10.9756794"><ele>1037.0</ele><time>2026-05-02T12:44:45.971Z</time></trkpt><trkpt lat="45.6544297" lon="10.9755749"><ele>1037.0</ele><time>2026-05-02T12:44:46.969Z</time></trkpt><trkpt lat="45.6545169" lon="10.9754655"><ele>1041.0</ele><time>2026-05-02T12:44:47.965Z</time></trkpt><trkpt lat="45.6545993" lon="10.9753727"><ele>1045.0</ele><time>2026-05-02T12:44:49.04Z</time></trkpt><trkpt lat="45.6546819" lon="10.9752983"><ele>1049.0</ele><time>2026-05-02T12:44:49.953Z</time></trkpt><trkpt lat="45.654773" lon="10.9752298"><ele>1053.0</ele><time>2026-05-02T12:44:50.961Z</time></trkpt><trkpt lat="45.654877" lon="10.9751688"><ele>1057.0</ele><time>2026-05-02T12:44:51.956Z</time></trkpt><trkpt lat="45.6549842" lon="10.9750957"><ele>1056.5</ele><time>2026-05-02T12:44:53.028Z</time></trkpt><trkpt lat="45.6550837" lon="10.9750102"><ele>1056.0</ele><time>2026-05-02T12:44:54.038Z</time></trkpt><trkpt lat="45.6551824" lon="10.9749144"><ele>1055.5</ele><time>2026-05-02T12:44:54.962Z</time></trkpt><trkpt lat="45.6552666" lon="10.9748108"><ele>1055.0</ele><time>2026-05-02T12:44:55.962Z</time></trkpt><trkpt lat="45.6553254" lon="10.97468"><ele>1055.0</ele><time>2026-05-02T12:44:56.97Z</time></trkpt><trkpt lat="45.6553582" lon="10.9745144"><ele>1055.0</ele><time>2026-05-02T12:44:58.067Z</time></trkpt><trkpt lat="45.6553673" lon="10.9743313"><ele>1055.0</ele><time>2026-05-02T12:44:59.03Z</time></trkpt><trkpt lat="45.6553745" lon="10.9741526"><ele>1055.0</ele><time>2026-05-02T12:44:59.954Z</time></trkpt><trkpt lat="45.6553794" lon="10.9739719"><ele>1052.5</ele><time>2026-05-02T12:45:00.966Z</time></trkpt><trkpt lat="45.6553904" lon="10.9737867"><ele>1050.0</ele><time>2026-05-02T12:45:01.99Z</time></trkpt><trkpt lat="45.6554001" lon="10.973602"><ele>1047.5</ele><time>2026-05-02T12:45:03.047Z</time></trkpt><trkpt lat="45.6554169" lon="10.9734237"><ele>1045.0</ele><time>2026-05-02T12:45:04.038Z</time></trkpt><trkpt lat="45.6554401" lon="10.973238"><ele>1043.25</ele><time>2026-05-02T12:45:04.976Z</time></trkpt><trkpt lat="45.6554545" lon="10.9730585"><ele>1041.5</ele><time>2026-05-02T12:45:05.976Z</time></trkpt><trkpt lat="45.6554468" lon="10.9728704"><ele>1039.75</ele><time>2026-05-02T12:45:07.006Z</time></trkpt><trkpt lat="45.6554109" lon="10.9726989"><ele>1038.0</ele><time>2026-05-02T12:45:08.041Z</time></trkpt><trkpt lat="45.6553509" lon="10.9725615"><ele>1036.0</ele><time>2026-05-02T12:45:08.985Z</time></trkpt><trkpt lat="45.6552562" lon="10.9724412"><ele>1034.0</ele><time>2026-05-02T12:45:09.985Z</time></trkpt><trkpt lat="45.6551344" lon="10.9723684"><ele>1032.0</ele><time>2026-05-02T12:45:10.967Z</time></trkpt><trkpt lat="45.6550026" lon="10.9723379"><ele>1030.0</ele><time>2026-05-02T12:45:11.973Z</time></trkpt><trkpt lat="45.6548625" lon="10.9723132"><ele>1030.0</ele><time>2026-05-02T12:45:12.972Z</time></trkpt><trkpt lat="45.6547344" lon="10.9722917"><ele>1030.0</ele><time>2026-05-02T12:45:13.996Z</time></trkpt><trkpt lat="45.6546263" lon="10.9722446"><ele>1030.0</ele><time>2026-05-02T12:45:14.976Z</time></trkpt><trkpt lat="45.654532" lon="10.9721698"><ele>1030.0</ele><time>2026-05-02T12:45:15.984Z</time></trkpt><trkpt lat="45.6544556" lon="10.9720691"><ele>1029.4</ele><time>2026-05-02T12:45:17.032Z</time></trkpt><trkpt lat="45.6544129" lon="10.9719359"><ele>1028.8</ele><time>2026-05-02T12:45:17.974Z</time></trkpt><trkpt lat="45.6543895" lon="10.9717809"><ele>1028.2</ele><time>2026-05-02T12:45:18.968Z</time></trkpt><trkpt lat="45.6544128" lon="10.9716372"><ele>1027.6</ele><time>2026-05-02T12:45:19.974Z</time></trkpt><trkpt lat="45.6544703" lon="10.9714857"><ele>1027.0</ele><time>2026-05-02T12:45:20.978Z</time></trkpt><trkpt lat="45.6545292" lon="10.9713363"><ele>1030.0</ele><time>2026-05-02T12:45:21.975Z</time></trkpt><trkpt lat="45.6545911" lon="10.9711938"><ele>1033.0</ele><time>2026-05-02T12:45:23.034Z</time></trkpt><trkpt lat="45.6546705" lon="10.97107"><ele>1036.0</ele><time>2026-05-02T12:45:23.965Z</time></trkpt><trkpt lat="45.6547771" lon="10.9709868"><ele>1039.0</ele><time>2026-05-02T12:45:24.962Z</time></trkpt><trkpt lat="45.6548823" lon="10.9709208"><ele>1038.5</ele><time>2026-05-02T12:45:25.964Z</time></trkpt><trkpt lat="45.6549708" lon="10.9708545"><ele>1038.0</ele><time>2026-05-02T12:45:26.971Z</time></trkpt><trkpt lat="45.6550463" lon="10.970784"><ele>1037.5</ele><time>2026-05-02T12:45:27.957Z</time></trkpt><trkpt lat="45.6551124" lon="10.9707115"><ele>1037.0</ele><time>2026-05-02T12:45:28.976Z</time></trkpt><trkpt lat="45.6551714" lon="10.9706205"><ele>1036.5</ele><time>2026-05-02T12:45:29.968Z</time></trkpt><trkpt lat="45.655208" lon="10.9705177"><ele>1036.0</ele><time>2026-05-02T12:45:31.013Z</time></trkpt><trkpt lat="45.6552203" lon="10.9704137"><ele>1036.0</ele><time>2026-05-02T12:45:31.967Z</time></trkpt><trkpt lat="45.6552165" lon="10.970321"><ele>1036.0</ele><time>2026-05-02T12:45:32.968Z</time></trkpt><trkpt lat="45.6551867" lon="10.9701941"><ele>1036.0</ele><time>2026-05-02T12:45:34.971Z</time></trkpt><trkpt lat="45.6551522" lon="10.9701153"><ele>1036.0</ele><time>2026-05-02T12:45:36.966Z</time></trkpt><trkpt lat="45.6550852" lon="10.970133"><ele>1036.0</ele><time>2026-05-02T12:45:40.972Z</time></trkpt><trkpt lat="45.6551037" lon="10.9702202"><ele>1036.0</ele><time>2026-05-02T12:45:42.959Z</time></trkpt><trkpt lat="45.655157" lon="10.9703492"><ele>1036.0</ele><time>2026-05-02T12:45:44.972Z</time></trkpt><trkpt lat="45.6551634" lon="10.9705021"><ele>1036.0</ele><time>2026-05-02T12:45:46.967Z</time></trkpt><trkpt lat="45.6551421" lon="10.9705939"><ele>1036.0</ele><time>2026-05-02T12:45:47.966Z</time></trkpt><trkpt lat="45.6550969" lon="10.970668"><ele>1036.0</ele><time>2026-05-02T12:45:48.971Z</time></trkpt><trkpt lat="45.6550357" lon="10.9707438"><ele>1036.0</ele><time>2026-05-02T12:45:49.967Z</time></trkpt><trkpt lat="45.6549629" lon="10.9708082"><ele>1036.0</ele><time>2026-05-02T12:45:50.972Z</time></trkpt><trkpt lat="45.6548897" lon="10.9708661"><ele>1036.5</ele><time>2026-05-02T12:45:51.962Z</time></trkpt><trkpt lat="45.6548181" lon="10.970913"><ele>1037.0</ele><time>2026-05-02T12:45:52.965Z</time></trkpt><trkpt lat="45.6547476" lon="10.9709664"><ele>1037.5</ele><time>2026-05-02T12:45:53.972Z</time></trkpt><trkpt lat="45.6546801" lon="10.9710246"><ele>1038.0</ele><time>2026-05-02T12:45:54.966Z</time></trkpt><trkpt lat="45.6546127" lon="10.9710964"><ele>1038.5</ele><time>2026-05-02T12:45:55.963Z</time></trkpt><trkpt lat="45.654554" lon="10.9711759"><ele>1039.0</ele><time>2026-05-02T12:45:56.964Z</time></trkpt><trkpt lat="45.6545071" lon="10.971266"><ele>1039.0</ele><time>2026-05-02T12:45:57.967Z</time></trkpt><trkpt lat="45.654474" lon="10.9713629"><ele>1039.0</ele><time>2026-05-02T12:45:58.97Z</time></trkpt><trkpt lat="45.6544426" lon="10.9714572"><ele>1039.0</ele><time>2026-05-02T12:45:59.96Z</time></trkpt><trkpt lat="45.654415" lon="10.9715479"><ele>1039.0</ele><time>2026-05-02T12:46:00.965Z</time></trkpt><trkpt lat="45.6543712" lon="10.971697"><ele>1039.0</ele><time>2026-05-02T12:46:02.969Z</time></trkpt><trkpt lat="45.6543527" lon="10.9718205"><ele>1039.0</ele><time>2026-05-02T12:46:04.96Z</time></trkpt><trkpt lat="45.6543607" lon="10.9719414"><ele>1037.2</ele><time>2026-05-02T12:46:07.963Z</time></trkpt><trkpt lat="45.6543856" lon="10.9720464"><ele>1035.4</ele><time>2026-05-02T12:46:10.959Z</time></trkpt><trkpt lat="45.6544334" lon="10.9721293"><ele>1033.6</ele><time>2026-05-02T12:46:13.951Z</time></trkpt><trkpt lat="45.6544981" lon="10.9721901"><ele>1031.8</ele><time>2026-05-02T12:46:15.967Z</time></trkpt><trkpt lat="45.6545927" lon="10.9722441"><ele>1030.0</ele><time>2026-05-02T12:46:17.954Z</time></trkpt><trkpt lat="45.6547044" lon="10.9722972"><ele>1030.0</ele><time>2026-05-02T12:46:19.956Z</time></trkpt><trkpt lat="45.6547755" lon="10.9723306"><ele>1030.0</ele><time>2026-05-02T12:46:39.957Z</time></trkpt><trkpt lat="45.6548736" lon="10.9723455"><ele>1030.0</ele><time>2026-05-02T12:46:41.959Z</time></trkpt><trkpt lat="45.6549763" lon="10.9723775"><ele>1030.0</ele><time>2026-05-02T12:46:44.06Z</time></trkpt><trkpt lat="45.655056" lon="10.9724038"><ele>1030.0</ele><time>2026-05-02T12:46:46.051Z</time></trkpt><trkpt lat="45.655115" lon="10.972449"><ele>1030.0</ele><time>2026-05-02T12:48:05.961Z</time></trkpt><trkpt lat="45.6550614" lon="10.9723495"><ele>1030.0</ele><time>2026-05-02T12:48:09.978Z</time></trkpt><trkpt lat="45.6549762" lon="10.9723303"><ele>1030.0</ele><time>2026-05-02T12:48:10.948Z</time></trkpt><trkpt lat="45.6548884" lon="10.9723036"><ele>1030.0</ele><time>2026-05-02T12:48:11.953Z</time></trkpt><trkpt lat="45.6547802" lon="10.9722729"><ele>1030.0</ele><time>2026-05-02T12:48:12.956Z</time></trkpt><trkpt lat="45.6546634" lon="10.9722312"><ele>1030.0</ele><time>2026-05-02T12:48:13.96Z</time></trkpt><trkpt lat="45.6545598" lon="10.9721611"><ele>1030.0</ele><time>2026-05-02T12:48:14.959Z</time></trkpt><trkpt lat="45.6544765" lon="10.9720698"><ele>1030.0</ele><time>2026-05-02T12:48:15.965Z</time></trkpt><trkpt lat="45.6544229" lon="10.9719372"><ele>1030.0</ele><time>2026-05-02T12:48:16.963Z</time></trkpt><trkpt lat="45.6543997" lon="10.9717889"><ele>1030.0</ele><time>2026-05-02T12:48:17.959Z</time></trkpt><trkpt lat="45.6544191" lon="10.9716314"><ele>1030.0</ele><time>2026-05-02T12:48:18.959Z</time></trkpt><trkpt lat="45.6544712" lon="10.9714644"><ele>1032.25</ele><time>2026-05-02T12:48:19.961Z</time></trkpt><trkpt lat="45.6545416" lon="10.971297"><ele>1034.5</ele><time>2026-05-02T12:48:20.959Z</time></trkpt><trkpt lat="45.6546287" lon="10.9711444"><ele>1036.75</ele><time>2026-05-02T12:48:21.958Z</time></trkpt><trkpt lat="45.6547423" lon="10.9710234"><ele>1039.0</ele><time>2026-05-02T12:48:22.947Z</time></trkpt><trkpt lat="45.6548679" lon="10.9709298"><ele>1038.25</ele><time>2026-05-02T12:48:23.957Z</time></trkpt><trkpt lat="45.654993" lon="10.9708411"><ele>1037.5</ele><time>2026-05-02T12:48:24.961Z</time></trkpt><trkpt lat="45.6551014" lon="10.9707272"><ele>1036.75</ele><time>2026-05-02T12:48:25.962Z</time></trkpt><trkpt lat="45.6551714" lon="10.9705883"><ele>1036.0</ele><time>2026-05-02T12:48:26.963Z</time></trkpt><trkpt lat="45.6551861" lon="10.970435"><ele>1036.0</ele><time>2026-05-02T12:48:27.966Z</time></trkpt><trkpt lat="45.6551588" lon="10.9702726"><ele>1036.0</ele><time>2026-05-02T12:48:28.956Z</time></trkpt><trkpt lat="45.6550953" lon="10.9701387"><ele>1036.0</ele><time>2026-05-02T12:48:29.961Z</time></trkpt><trkpt lat="45.6549994" lon="10.9700392"><ele>1036.0</ele><time>2026-05-02T12:48:30.968Z</time></trkpt><trkpt lat="45.6548939" lon="10.9699347"><ele>1036.75</ele><time>2026-05-02T12:48:31.969Z</time></trkpt><trkpt lat="45.6547876" lon="10.9698243"><ele>1037.5</ele><time>2026-05-02T12:48:32.967Z</time></trkpt><trkpt lat="45.6546884" lon="10.9696903"><ele>1038.25</ele><time>2026-05-02T12:48:33.965Z</time></trkpt><trkpt lat="45.654605" lon="10.9695372"><ele>1039.0</ele><time>2026-05-02T12:48:34.961Z</time></trkpt><trkpt lat="45.6545381" lon="10.9693708"><ele>1039.0</ele><time>2026-05-02T12:48:35.977Z</time></trkpt><trkpt lat="45.6544657" lon="10.9692128"><ele>1039.0</ele><time>2026-05-02T12:48:37.018Z</time></trkpt><trkpt lat="45.6543559" lon="10.9690934"><ele>1039.0</ele><time>2026-05-02T12:48:37.957Z</time></trkpt><trkpt lat="45.654234" lon="10.9690217"><ele>1039.0</ele><time>2026-05-02T12:48:38.962Z</time></trkpt><trkpt lat="45.6541002" lon="10.9690189"><ele>1039.5</ele><time>2026-05-02T12:48:39.963Z</time></trkpt><trkpt lat="45.6539687" lon="10.9690818"><ele>1040.0</ele><time>2026-05-02T12:48:40.943Z</time></trkpt><trkpt lat="45.6538318" lon="10.9691545"><ele>1040.5</ele><time>2026-05-02T12:48:41.955Z</time></trkpt><trkpt lat="45.6536923" lon="10.9692373"><ele>1041.0</ele><time>2026-05-02T12:48:42.957Z</time></trkpt><trkpt lat="45.6535509" lon="10.969316"><ele>1039.0</ele><time>2026-05-02T12:48:43.961Z</time></trkpt><trkpt lat="45.6534111" lon="10.9693901"><ele>1037.0</ele><time>2026-05-02T12:48:44.964Z</time></trkpt><trkpt lat="45.6532699" lon="10.9694538"><ele>1035.0</ele><time>2026-05-02T12:48:45.967Z</time></trkpt><trkpt lat="45.6531213" lon="10.9694896"><ele>1033.0</ele><time>2026-05-02T12:48:46.959Z</time></trkpt><trkpt lat="45.6529739" lon="10.9695127"><ele>1033.0</ele><time>2026-05-02T12:48:47.961Z</time></trkpt><trkpt lat="45.6528233" lon="10.9695247"><ele>1033.0</ele><time>2026-05-02T12:48:48.957Z</time></trkpt><trkpt lat="45.6526724" lon="10.9695084"><ele>1033.0</ele><time>2026-05-02T12:48:49.962Z</time></trkpt><trkpt lat="45.6525174" lon="10.969481"><ele>1033.25</ele><time>2026-05-02T12:48:50.961Z</time></trkpt><trkpt lat="45.6523666" lon="10.9694566"><ele>1033.5</ele><time>2026-05-02T12:48:51.969Z</time></trkpt><trkpt lat="45.6522207" lon="10.9694412"><ele>1033.75</ele><time>2026-05-02T12:48:52.96Z</time></trkpt><trkpt lat="45.6520857" lon="10.9694129"><ele>1034.0</ele><time>2026-05-02T12:48:53.972Z</time></trkpt><trkpt lat="45.6519542" lon="10.9693658"><ele>1034.0</ele><time>2026-05-02T12:48:54.964Z</time></trkpt><trkpt lat="45.6518428" lon="10.9692657"><ele>1034.0</ele><time>2026-05-02T12:48:55.965Z</time></trkpt><trkpt lat="45.6517561" lon="10.9691317"><ele>1034.0</ele><time>2026-05-02T12:48:56.967Z</time></trkpt><trkpt lat="45.6517174" lon="10.9689562"><ele>1034.0</ele><time>2026-05-02T12:48:57.96Z</time></trkpt><trkpt lat="45.6516985" lon="10.9687729"><ele>1035.75</ele><time>2026-05-02T12:48:58.964Z</time></trkpt><trkpt lat="45.6516815" lon="10.9685897"><ele>1037.5</ele><time>2026-05-02T12:48:59.964Z</time></trkpt><trkpt lat="45.6516604" lon="10.9683991"><ele>1039.25</ele><time>2026-05-02T12:49:00.96Z</time></trkpt><trkpt lat="45.6516325" lon="10.9682086"><ele>1041.0</ele><time>2026-05-02T12:49:01.973Z</time></trkpt><trkpt lat="45.6515889" lon="10.9680249"><ele>1041.5</ele><time>2026-05-02T12:49:02.973Z</time></trkpt><trkpt lat="45.6515212" lon="10.9678598"><ele>1042.0</ele><time>2026-05-02T12:49:03.965Z</time></trkpt><trkpt lat="45.6514099" lon="10.9677249"><ele>1042.5</ele><time>2026-05-02T12:49:04.963Z</time></trkpt><trkpt lat="45.6512885" lon="10.9676326"><ele>1043.0</ele><time>2026-05-02T12:49:05.969Z</time></trkpt><trkpt lat="45.6511466" lon="10.9676149"><ele>1038.6666666666667</ele><time>2026-05-02T12:49:06.97Z</time></trkpt><trkpt lat="45.6509925" lon="10.9676311"><ele>1034.3333333333333</ele><time>2026-05-02T12:49:07.965Z</time></trkpt><trkpt lat="45.6508483" lon="10.9676705"><ele>1030.0</ele><time>2026-05-02T12:49:08.967Z</time></trkpt><trkpt lat="45.6506989" lon="10.9677045"><ele>1030.0</ele><time>2026-05-02T12:49:09.966Z</time></trkpt><trkpt lat="45.6505493" lon="10.9677228"><ele>1030.0</ele><time>2026-05-02T12:49:10.974Z</time></trkpt><trkpt lat="45.650404" lon="10.9677214"><ele>1030.0</ele><time>2026-05-02T12:49:11.962Z</time></trkpt><trkpt lat="45.6502663" lon="10.9677099"><ele>1030.0</ele><time>2026-05-02T12:49:12.978Z</time></trkpt><trkpt lat="45.6501217" lon="10.9676796"><ele>1028.3333333333333</ele><time>2026-05-02T12:49:13.964Z</time></trkpt><trkpt lat="45.6499683" lon="10.967639"><ele>1026.6666666666667</ele><time>2026-05-02T12:49:14.966Z</time></trkpt><trkpt lat="45.6498182" lon="10.9676053"><ele>1025.0</ele><time>2026-05-02T12:49:15.966Z</time></trkpt><trkpt lat="45.6496627" lon="10.9675858"><ele>1025.0</ele><time>2026-05-02T12:49:16.963Z</time></trkpt><trkpt lat="45.6495024" lon="10.9675872"><ele>1025.0</ele><time>2026-05-02T12:49:17.968Z</time></trkpt><trkpt lat="45.6493433" lon="10.9675968"><ele>1025.0</ele><time>2026-05-02T12:49:18.974Z</time></trkpt><trkpt lat="45.6491923" lon="10.9676137"><ele>1025.0</ele><time>2026-05-02T12:49:19.964Z</time></trkpt><trkpt lat="45.6490483" lon="10.9676158"><ele>1025.0</ele><time>2026-05-02T12:49:20.968Z</time></trkpt><trkpt lat="45.6489141" lon="10.9675949"><ele>1025.0</ele><time>2026-05-02T12:49:21.981Z</time></trkpt><trkpt lat="45.6487967" lon="10.9675151"><ele>1025.0</ele><time>2026-05-02T12:49:22.962Z</time></trkpt><trkpt lat="45.6487013" lon="10.9674016"><ele>1023.5</ele><time>2026-05-02T12:49:23.942Z</time></trkpt><trkpt lat="45.6486215" lon="10.9672491"><ele>1022.0</ele><time>2026-05-02T12:49:24.964Z</time></trkpt><trkpt lat="45.6485651" lon="10.9670727"><ele>1020.5</ele><time>2026-05-02T12:49:25.968Z</time></trkpt><trkpt lat="45.6485467" lon="10.9668858"><ele>1019.0</ele><time>2026-05-02T12:49:26.967Z</time></trkpt><trkpt lat="45.6485535" lon="10.966701"><ele>1019.75</ele><time>2026-05-02T12:49:27.974Z</time></trkpt><trkpt lat="45.6485607" lon="10.9665264"><ele>1020.5</ele><time>2026-05-02T12:49:28.964Z</time></trkpt><trkpt lat="45.6485568" lon="10.9663546"><ele>1021.25</ele><time>2026-05-02T12:49:29.961Z</time></trkpt><trkpt lat="45.6485299" lon="10.9661837"><ele>1022.0</ele><time>2026-05-02T12:49:30.96Z</time></trkpt><trkpt lat="45.648477" lon="10.9660145"><ele>1022.0</ele><time>2026-05-02T12:49:31.96Z</time></trkpt><trkpt lat="45.6484043" lon="10.9658635"><ele>1022.0</ele><time>2026-05-02T12:49:32.956Z</time></trkpt><trkpt lat="45.6483095" lon="10.965737"><ele>1022.0</ele><time>2026-05-02T12:49:33.963Z</time></trkpt><trkpt lat="45.6482009" lon="10.9656252"><ele>1022.0</ele><time>2026-05-02T12:49:34.965Z</time></trkpt><trkpt lat="45.6480826" lon="10.9655214"><ele>1020.75</ele><time>2026-05-02T12:49:35.965Z</time></trkpt><trkpt lat="45.6479612" lon="10.9654272"><ele>1019.5</ele><time>2026-05-02T12:49:36.959Z</time></trkpt><trkpt lat="45.6478468" lon="10.9653421"><ele>1018.25</ele><time>2026-05-02T12:49:37.965Z</time></trkpt><trkpt lat="45.6477287" lon="10.9652623"><ele>1017.0</ele><time>2026-05-02T12:49:38.968Z</time></trkpt><trkpt lat="45.6476259" lon="10.9651823"><ele>1017.0</ele><time>2026-05-02T12:49:39.967Z</time></trkpt><trkpt lat="45.6475225" lon="10.9651024"><ele>1017.0</ele><time>2026-05-02T12:49:40.963Z</time></trkpt><trkpt lat="45.6474103" lon="10.9650163"><ele>1017.0</ele><time>2026-05-02T12:49:41.962Z</time></trkpt><trkpt lat="45.6473101" lon="10.9649471"><ele>1017.0</ele><time>2026-05-02T12:49:42.968Z</time></trkpt><trkpt lat="45.6472198" lon="10.9648787"><ele>1018.6</ele><time>2026-05-02T12:49:43.982Z</time></trkpt><trkpt lat="45.647147" lon="10.9647903"><ele>1020.2</ele><time>2026-05-02T12:49:44.968Z</time></trkpt><trkpt lat="45.6470882" lon="10.9646877"><ele>1021.8</ele><time>2026-05-02T12:49:45.97Z</time></trkpt><trkpt lat="45.6470381" lon="10.9645595"><ele>1023.4</ele><time>2026-05-02T12:49:46.961Z</time></trkpt><trkpt lat="45.6469955" lon="10.9644208"><ele>1025.0</ele><time>2026-05-02T12:49:47.971Z</time></trkpt><trkpt lat="45.6469607" lon="10.9642792"><ele>1025.4</ele><time>2026-05-02T12:49:48.964Z</time></trkpt><trkpt lat="45.6469342" lon="10.9641406"><ele>1025.8</ele><time>2026-05-02T12:49:49.974Z</time></trkpt><trkpt lat="45.6469011" lon="10.9640057"><ele>1026.2</ele><time>2026-05-02T12:49:50.964Z</time></trkpt><trkpt lat="45.6468565" lon="10.9638843"><ele>1026.6</ele><time>2026-05-02T12:49:51.961Z</time></trkpt><trkpt lat="45.6467974" lon="10.9637713"><ele>1027.0</ele><time>2026-05-02T12:49:52.962Z</time></trkpt><trkpt lat="45.6467246" lon="10.9636785"><ele>1027.0</ele><time>2026-05-02T12:49:53.965Z</time></trkpt><trkpt lat="45.6466384" lon="10.9636024"><ele>1027.0</ele><time>2026-05-02T12:49:54.969Z</time></trkpt><trkpt lat="45.6465408" lon="10.9635424"><ele>1027.0</ele><time>2026-05-02T12:49:55.969Z</time></trkpt><trkpt lat="45.6464429" lon="10.9634867"><ele>1027.0</ele><time>2026-05-02T12:49:56.967Z</time></trkpt><trkpt lat="45.6463461" lon="10.9634312"><ele>1027.0</ele><time>2026-05-02T12:49:57.964Z</time></trkpt><trkpt lat="45.6462452" lon="10.9633708"><ele>1025.0</ele><time>2026-05-02T12:49:58.969Z</time></trkpt><trkpt lat="45.6461389" lon="10.9633075"><ele>1023.0</ele><time>2026-05-02T12:49:59.965Z</time></trkpt><trkpt lat="45.6460324" lon="10.9632493"><ele>1021.0</ele><time>2026-05-02T12:50:00.958Z</time></trkpt><trkpt lat="45.6459234" lon="10.9631921"><ele>1019.0</ele><time>2026-05-02T12:50:01.964Z</time></trkpt><trkpt lat="45.6458064" lon="10.9631507"><ele>1018.5</ele><time>2026-05-02T12:50:02.967Z</time></trkpt><trkpt lat="45.6456897" lon="10.9631513"><ele>1018.0</ele><time>2026-05-02T12:50:03.961Z</time></trkpt><trkpt lat="45.6455765" lon="10.9632009"><ele>1017.5</ele><time>2026-05-02T12:50:04.966Z</time></trkpt><trkpt lat="45.6454776" lon="10.963288"><ele>1017.0</ele><time>2026-05-02T12:50:05.966Z</time></trkpt><trkpt lat="45.6453913" lon="10.9634253"><ele>1015.75</ele><time>2026-05-02T12:50:06.971Z</time></trkpt><trkpt lat="45.645324" lon="10.9635925"><ele>1014.5</ele><time>2026-05-02T12:50:07.943Z</time></trkpt><trkpt lat="45.6452619" lon="10.9637709"><ele>1013.25</ele><time>2026-05-02T12:50:08.974Z</time></trkpt><trkpt lat="45.6451981" lon="10.9639287"><ele>1012.0</ele><time>2026-05-02T12:50:09.963Z</time></trkpt><trkpt lat="45.6451255" lon="10.9640662"><ele>1012.0</ele><time>2026-05-02T12:50:10.951Z</time></trkpt><trkpt lat="45.645032" lon="10.9641856"><ele>1012.0</ele><time>2026-05-02T12:50:11.962Z</time></trkpt><trkpt lat="45.6449295" lon="10.9643007"><ele>1012.0</ele><time>2026-05-02T12:50:12.972Z</time></trkpt><trkpt lat="45.6448147" lon="10.9644017"><ele>1012.0</ele><time>2026-05-02T12:50:13.955Z</time></trkpt><trkpt lat="45.6446966" lon="10.9644843"><ele>1012.0</ele><time>2026-05-02T12:50:14.965Z</time></trkpt><trkpt lat="45.6445767" lon="10.9645406"><ele>1012.0</ele><time>2026-05-02T12:50:15.965Z</time></trkpt><trkpt lat="45.6444572" lon="10.9645891"><ele>1012.0</ele><time>2026-05-02T12:50:16.959Z</time></trkpt><trkpt lat="45.644342" lon="10.9646172"><ele>1012.0</ele><time>2026-05-02T12:50:17.968Z</time></trkpt><trkpt lat="45.6442148" lon="10.9646342"><ele>1012.0</ele><time>2026-05-02T12:50:18.967Z</time></trkpt><trkpt lat="45.6440768" lon="10.9646395"><ele>1012.0</ele><time>2026-05-02T12:50:19.959Z</time></trkpt><trkpt lat="45.6439371" lon="10.9646394"><ele>1012.0</ele><time>2026-05-02T12:50:20.977Z</time></trkpt><trkpt lat="45.6438016" lon="10.9646365"><ele>1012.0</ele><time>2026-05-02T12:50:21.967Z</time></trkpt><trkpt lat="45.6436639" lon="10.9646357"><ele>1009.75</ele><time>2026-05-02T12:50:22.964Z</time></trkpt><trkpt lat="45.6435221" lon="10.964631"><ele>1007.5</ele><time>2026-05-02T12:50:23.965Z</time></trkpt><trkpt lat="45.643384" lon="10.9646234"><ele>1005.25</ele><time>2026-05-02T12:50:24.973Z</time></trkpt><trkpt lat="45.6432491" lon="10.9646116"><ele>1003.0</ele><time>2026-05-02T12:50:25.971Z</time></trkpt><trkpt lat="45.6431139" lon="10.9645937"><ele>1003.0</ele><time>2026-05-02T12:50:26.968Z</time></trkpt><trkpt lat="45.6429813" lon="10.9645866"><ele>1003.0</ele><time>2026-05-02T12:50:27.967Z</time></trkpt><trkpt lat="45.6428513" lon="10.9645851"><ele>1003.0</ele><time>2026-05-02T12:50:28.966Z</time></trkpt><trkpt lat="45.6427224" lon="10.9645814"><ele>1003.0</ele><time>2026-05-02T12:50:29.967Z</time></trkpt><trkpt lat="45.6425994" lon="10.9645744"><ele>1001.5</ele><time>2026-05-02T12:50:30.963Z</time></trkpt><trkpt lat="45.6424735" lon="10.9645616"><ele>1000.0</ele><time>2026-05-02T12:50:31.963Z</time></trkpt><trkpt lat="45.6423421" lon="10.9645537"><ele>998.5</ele><time>2026-05-02T12:50:32.967Z</time></trkpt><trkpt lat="45.6422064" lon="10.9645492"><ele>997.0</ele><time>2026-05-02T12:50:33.967Z</time></trkpt><trkpt lat="45.6420767" lon="10.9645408"><ele>995.25</ele><time>2026-05-02T12:50:34.964Z</time></trkpt><trkpt lat="45.6419454" lon="10.9645392"><ele>993.5</ele><time>2026-05-02T12:50:35.964Z</time></trkpt><trkpt lat="45.6418135" lon="10.9645317"><ele>991.75</ele><time>2026-05-02T12:50:36.961Z</time></trkpt><trkpt lat="45.6416854" lon="10.9645234"><ele>990.0</ele><time>2026-05-02T12:50:37.965Z</time></trkpt><trkpt lat="45.6415577" lon="10.964512"><ele>990.0</ele><time>2026-05-02T12:50:38.965Z</time></trkpt><trkpt lat="45.6414239" lon="10.9644907"><ele>990.0</ele><time>2026-05-02T12:50:39.947Z</time></trkpt><trkpt lat="45.6412895" lon="10.9644503"><ele>990.0</ele><time>2026-05-02T12:50:40.961Z</time></trkpt><trkpt lat="45.641156" lon="10.964396"><ele>990.0</ele><time>2026-05-02T12:50:41.962Z</time></trkpt><trkpt lat="45.641032" lon="10.9643416"><ele>988.0</ele><time>2026-05-02T12:50:42.963Z</time></trkpt><trkpt lat="45.640915" lon="10.9642758"><ele>986.0</ele><time>2026-05-02T12:50:43.953Z</time></trkpt><trkpt lat="45.6407968" lon="10.9642155"><ele>984.0</ele><time>2026-05-02T12:50:44.967Z</time></trkpt><trkpt lat="45.6406798" lon="10.9641623"><ele>982.0</ele><time>2026-05-02T12:50:45.953Z</time></trkpt><trkpt lat="45.6405642" lon="10.9641054"><ele>978.0</ele><time>2026-05-02T12:50:46.961Z</time></trkpt><trkpt lat="45.6404495" lon="10.9640479"><ele>974.0</ele><time>2026-05-02T12:50:47.981Z</time></trkpt><trkpt lat="45.6403367" lon="10.9639927"><ele>970.0</ele><time>2026-05-02T12:50:48.955Z</time></trkpt><trkpt lat="45.640226" lon="10.9639403"><ele>966.0</ele><time>2026-05-02T12:50:49.96Z</time></trkpt><trkpt lat="45.6401183" lon="10.963884"><ele>965.5999999999999</ele><time>2026-05-02T12:50:50.957Z</time></trkpt><trkpt lat="45.6400119" lon="10.9638281"><ele>965.1999999999999</ele><time>2026-05-02T12:50:51.963Z</time></trkpt><trkpt lat="45.6399074" lon="10.9637821"><ele>964.8000000000001</ele><time>2026-05-02T12:50:52.974Z</time></trkpt><trkpt lat="45.6397961" lon="10.9637428"><ele>964.4000000000001</ele><time>2026-05-02T12:50:53.962Z</time></trkpt><trkpt lat="45.6396868" lon="10.9637283"><ele>964.0</ele><time>2026-05-02T12:50:54.966Z</time></trkpt><trkpt lat="45.6395805" lon="10.96375"><ele>964.0</ele><time>2026-05-02T12:50:55.967Z</time></trkpt><trkpt lat="45.6394851" lon="10.9638137"><ele>964.0000000000001</ele><time>2026-05-02T12:50:56.968Z</time></trkpt><trkpt lat="45.6393999" lon="10.9639071"><ele>964.0000000000001</ele><time>2026-05-02T12:50:57.963Z</time></trkpt><trkpt lat="45.6393324" lon="10.9640235"><ele>964.0</ele><time>2026-05-02T12:50:58.969Z</time></trkpt><trkpt lat="45.6392937" lon="10.9641586"><ele>964.0</ele><time>2026-05-02T12:50:59.968Z</time></trkpt><trkpt lat="45.6392711" lon="10.9642973"><ele>962.2</ele><time>2026-05-02T12:51:00.957Z</time></trkpt><trkpt lat="45.6392673" lon="10.9644323"><ele>960.4000000000001</ele><time>2026-05-02T12:51:01.969Z</time></trkpt><trkpt lat="45.6392619" lon="10.9645628"><ele>958.6</ele><time>2026-05-02T12:51:02.952Z</time></trkpt><trkpt lat="45.6392499" lon="10.964701"><ele>956.8</ele><time>2026-05-02T12:51:03.961Z</time></trkpt><trkpt lat="45.6392432" lon="10.9648321"><ele>955.0</ele><time>2026-05-02T12:51:04.96Z</time></trkpt><trkpt lat="45.6392308" lon="10.9649666"><ele>953.4</ele><time>2026-05-02T12:51:05.964Z</time></trkpt><trkpt lat="45.6392031" lon="10.9651007"><ele>951.8</ele><time>2026-05-02T12:51:06.966Z</time></trkpt><trkpt lat="45.6391526" lon="10.9652186"><ele>950.2</ele><time>2026-05-02T12:51:07.961Z</time></trkpt><trkpt lat="45.6390847" lon="10.9652937"><ele>948.6</ele><time>2026-05-02T12:51:08.972Z</time></trkpt><trkpt lat="45.638996" lon="10.9653246"><ele>947.0</ele><time>2026-05-02T12:51:09.974Z</time></trkpt><trkpt lat="45.6389075" lon="10.9652993"><ele>947.0</ele><time>2026-05-02T12:51:10.971Z</time></trkpt><trkpt lat="45.6388291" lon="10.9652289"><ele>947.0</ele><time>2026-05-02T12:51:11.959Z</time></trkpt><trkpt lat="45.6387724" lon="10.9651301"><ele>947.0</ele><time>2026-05-02T12:51:12.975Z</time></trkpt><trkpt lat="45.6387452" lon="10.9650058"><ele>947.0</ele><time>2026-05-02T12:51:13.972Z</time></trkpt><trkpt lat="45.6387403" lon="10.964855"><ele>947.0</ele><time>2026-05-02T12:51:14.969Z</time></trkpt><trkpt lat="45.6387473" lon="10.9646849"><ele>948.6</ele><time>2026-05-02T12:51:15.968Z</time></trkpt><trkpt lat="45.6387592" lon="10.9645272"><ele>950.2</ele><time>2026-05-02T12:51:16.97Z</time></trkpt><trkpt lat="45.6387719" lon="10.9643714"><ele>951.8</ele><time>2026-05-02T12:51:17.96Z</time></trkpt><trkpt lat="45.6387841" lon="10.9642175"><ele>953.4</ele><time>2026-05-02T12:51:18.967Z</time></trkpt><trkpt lat="45.6387942" lon="10.96406"><ele>955.0</ele><time>2026-05-02T12:51:19.968Z</time></trkpt><trkpt lat="45.6388148" lon="10.9639115"><ele>955.4</ele><time>2026-05-02T12:51:20.965Z</time></trkpt><trkpt lat="45.6388355" lon="10.9637688"><ele>955.8</ele><time>2026-05-02T12:51:21.969Z</time></trkpt><trkpt lat="45.6388573" lon="10.9636337"><ele>956.2</ele><time>2026-05-02T12:51:22.967Z</time></trkpt><trkpt lat="45.6388786" lon="10.9635032"><ele>956.6</ele><time>2026-05-02T12:51:23.972Z</time></trkpt><trkpt lat="45.6388997" lon="10.9633862"><ele>957.0</ele><time>2026-05-02T12:51:24.976Z</time></trkpt><trkpt lat="45.6389253" lon="10.9632789"><ele>956.2</ele><time>2026-05-02T12:51:25.972Z</time></trkpt><trkpt lat="45.6389699" lon="10.9631737"><ele>955.4000000000001</ele><time>2026-05-02T12:51:26.964Z</time></trkpt><trkpt lat="45.6390373" lon="10.9630814"><ele>954.5999999999999</ele><time>2026-05-02T12:51:27.971Z</time></trkpt><trkpt lat="45.639135" lon="10.9630135"><ele>953.8</ele><time>2026-05-02T12:51:28.972Z</time></trkpt><trkpt lat="45.639239" lon="10.962953"><ele>953.0</ele><time>2026-05-02T12:51:29.941Z</time></trkpt><trkpt lat="45.6393341" lon="10.9628919"><ele>953.0</ele><time>2026-05-02T12:51:30.967Z</time></trkpt><trkpt lat="45.6394303" lon="10.9628381"><ele>953.0</ele><time>2026-05-02T12:51:31.965Z</time></trkpt><trkpt lat="45.6395244" lon="10.9627982"><ele>953.0</ele><time>2026-05-02T12:51:32.964Z</time></trkpt><trkpt lat="45.6396306" lon="10.9627795"><ele>953.0</ele><time>2026-05-02T12:51:33.978Z</time></trkpt><trkpt lat="45.6397481" lon="10.9627989"><ele>953.0</ele><time>2026-05-02T12:51:34.97Z</time></trkpt><trkpt lat="45.6398693" lon="10.9628385"><ele>954.0</ele><time>2026-05-02T12:51:35.958Z</time></trkpt><trkpt lat="45.6399901" lon="10.96288"><ele>955.0</ele><time>2026-05-02T12:51:36.967Z</time></trkpt><trkpt lat="45.6401013" lon="10.9629146"><ele>956.0</ele><time>2026-05-02T12:51:37.965Z</time></trkpt><trkpt lat="45.6402175" lon="10.9629491"><ele>957.0</ele><time>2026-05-02T12:51:38.971Z</time></trkpt><trkpt lat="45.6403373" lon="10.9629829"><ele>954.75</ele><time>2026-05-02T12:51:39.958Z</time></trkpt><trkpt lat="45.6404569" lon="10.9630175"><ele>952.5</ele><time>2026-05-02T12:51:40.972Z</time></trkpt><trkpt lat="45.6405796" lon="10.9630581"><ele>950.25</ele><time>2026-05-02T12:51:41.959Z</time></trkpt><trkpt lat="45.6407018" lon="10.9630997"><ele>948.0</ele><time>2026-05-02T12:51:42.945Z</time></trkpt><trkpt lat="45.640826" lon="10.9631446"><ele>948.0</ele><time>2026-05-02T12:51:43.956Z</time></trkpt><trkpt lat="45.6409484" lon="10.9631854"><ele>948.0</ele><time>2026-05-02T12:51:44.959Z</time></trkpt><trkpt lat="45.6410689" lon="10.9632303"><ele>948.0</ele><time>2026-05-02T12:51:45.972Z</time></trkpt><trkpt lat="45.6411933" lon="10.9632781"><ele>948.0</ele><time>2026-05-02T12:51:46.958Z</time></trkpt><trkpt lat="45.6413099" lon="10.9633397"><ele>947.75</ele><time>2026-05-02T12:51:47.995Z</time></trkpt><trkpt lat="45.6414264" lon="10.963404"><ele>947.5</ele><time>2026-05-02T12:51:48.962Z</time></trkpt><trkpt lat="45.6415505" lon="10.9634269"><ele>947.25</ele><time>2026-05-02T12:51:49.964Z</time></trkpt><trkpt lat="45.6416683" lon="10.9633936"><ele>947.0</ele><time>2026-05-02T12:51:50.966Z</time></trkpt><trkpt lat="45.6417817" lon="10.9633063"><ele>947.0</ele><time>2026-05-02T12:51:51.954Z</time></trkpt><trkpt lat="45.6418739" lon="10.9631911"><ele>947.0</ele><time>2026-05-02T12:51:52.953Z</time></trkpt><trkpt lat="45.6419598" lon="10.9630837"><ele>947.0</ele><time>2026-05-02T12:51:53.966Z</time></trkpt><trkpt lat="45.6420736" lon="10.9630103"><ele>947.0</ele><time>2026-05-02T12:51:54.951Z</time></trkpt><trkpt lat="45.6422014" lon="10.962955"><ele>949.0</ele><time>2026-05-02T12:51:55.966Z</time></trkpt><trkpt lat="45.642336" lon="10.9629574"><ele>951.0</ele><time>2026-05-02T12:51:56.965Z</time></trkpt><trkpt lat="45.6424648" lon="10.9629384"><ele>953.0</ele><time>2026-05-02T12:51:57.964Z</time></trkpt><trkpt lat="45.642584" lon="10.9629291"><ele>955.0</ele><time>2026-05-02T12:51:58.957Z</time></trkpt><trkpt lat="45.6426728" lon="10.962886"><ele>955.0</ele><time>2026-05-02T12:51:59.967Z</time></trkpt><trkpt lat="45.6427287" lon="10.9627746"><ele>955.0</ele><time>2026-05-02T12:52:00.971Z</time></trkpt><trkpt lat="45.6427351" lon="10.962645"><ele>955.0</ele><time>2026-05-02T12:52:01.968Z</time></trkpt><trkpt lat="45.6426916" lon="10.9625456"><ele>955.0</ele><time>2026-05-02T12:52:02.958Z</time></trkpt><trkpt lat="45.6425904" lon="10.9624799"><ele>955.0</ele><time>2026-05-02T12:52:03.967Z</time></trkpt><trkpt lat="45.6424878" lon="10.9624346"><ele>952.25</ele><time>2026-05-02T12:52:04.966Z</time></trkpt><trkpt lat="45.6423911" lon="10.9623685"><ele>949.5</ele><time>2026-05-02T12:52:05.956Z</time></trkpt><trkpt lat="45.6422979" lon="10.9622582"><ele>946.75</ele><time>2026-05-02T12:52:06.959Z</time></trkpt><trkpt lat="45.6422052" lon="10.9621354"><ele>944.0</ele><time>2026-05-02T12:52:07.958Z</time></trkpt><trkpt lat="45.6421046" lon="10.962019"><ele>944.0</ele><time>2026-05-02T12:52:08.952Z</time></trkpt><trkpt lat="45.6420003" lon="10.9619052"><ele>944.0</ele><time>2026-05-02T12:52:09.956Z</time></trkpt><trkpt lat="45.6419031" lon="10.9618008"><ele>944.0</ele><time>2026-05-02T12:52:10.949Z</time></trkpt><trkpt lat="45.6418141" lon="10.9616973"><ele>944.0</ele><time>2026-05-02T12:52:11.965Z</time></trkpt><trkpt lat="45.6417381" lon="10.9615924"><ele>940.25</ele><time>2026-05-02T12:52:12.956Z</time></trkpt><trkpt lat="45.6416814" lon="10.9614632"><ele>936.5</ele><time>2026-05-02T12:52:13.957Z</time></trkpt><trkpt lat="45.6416448" lon="10.9613062"><ele>932.75</ele><time>2026-05-02T12:52:14.958Z</time></trkpt><trkpt lat="45.6416336" lon="10.961143"><ele>929.0</ele><time>2026-05-02T12:52:15.954Z</time></trkpt><trkpt lat="45.6416408" lon="10.9609735"><ele>930.5</ele><time>2026-05-02T12:52:16.962Z</time></trkpt><trkpt lat="45.6416507" lon="10.9608013"><ele>932.0</ele><time>2026-05-02T12:52:17.968Z</time></trkpt><trkpt lat="45.6416475" lon="10.9606365"><ele>933.5</ele><time>2026-05-02T12:52:18.966Z</time></trkpt><trkpt lat="45.6416165" lon="10.9604809"><ele>935.0</ele><time>2026-05-02T12:52:19.964Z</time></trkpt><trkpt lat="45.6415417" lon="10.9603311"><ele>935.0</ele><time>2026-05-02T12:52:20.964Z</time></trkpt><trkpt lat="45.6414465" lon="10.9602217"><ele>935.0</ele><time>2026-05-02T12:52:21.962Z</time></trkpt><trkpt lat="45.6413233" lon="10.9601492"><ele>935.0</ele><time>2026-05-02T12:52:22.959Z</time></trkpt><trkpt lat="45.6411935" lon="10.960097"><ele>935.0</ele><time>2026-05-02T12:52:23.975Z</time></trkpt><trkpt lat="45.6410677" lon="10.9600371"><ele>931.75</ele><time>2026-05-02T12:52:24.971Z</time></trkpt><trkpt lat="45.6409473" lon="10.959942"><ele>928.5</ele><time>2026-05-02T12:52:25.974Z</time></trkpt><trkpt lat="45.6408293" lon="10.9598311"><ele>925.25</ele><time>2026-05-02T12:52:26.963Z</time></trkpt><trkpt lat="45.6407228" lon="10.9597119"><ele>922.0</ele><time>2026-05-02T12:52:27.964Z</time></trkpt><trkpt lat="45.640618" lon="10.9595781"><ele>922.0</ele><time>2026-05-02T12:52:28.969Z</time></trkpt><trkpt lat="45.6405265" lon="10.9594454"><ele>922.0</ele><time>2026-05-02T12:52:29.961Z</time></trkpt><trkpt lat="45.6404573" lon="10.9593055"><ele>922.0</ele><time>2026-05-02T12:52:30.961Z</time></trkpt><trkpt lat="45.6404247" lon="10.9591402"><ele>922.0</ele><time>2026-05-02T12:52:31.963Z</time></trkpt><trkpt lat="45.6404262" lon="10.9589647"><ele>924.25</ele><time>2026-05-02T12:52:32.974Z</time></trkpt><trkpt lat="45.6404466" lon="10.9588022"><ele>926.5</ele><time>2026-05-02T12:52:33.966Z</time></trkpt><trkpt lat="45.6404527" lon="10.9586492"><ele>928.75</ele><time>2026-05-02T12:52:34.957Z</time></trkpt><trkpt lat="45.640415" lon="10.9584819"><ele>931.0</ele><time>2026-05-02T12:52:35.962Z</time></trkpt><trkpt lat="45.6403258" lon="10.958328"><ele>926.0</ele><time>2026-05-02T12:52:36.956Z</time></trkpt><trkpt lat="45.6402388" lon="10.9581815"><ele>921.0</ele><time>2026-05-02T12:52:37.97Z</time></trkpt><trkpt lat="45.6401521" lon="10.958043"><ele>916.0</ele><time>2026-05-02T12:52:38.964Z</time></trkpt><trkpt lat="45.6400637" lon="10.957908"><ele>911.0</ele><time>2026-05-02T12:52:39.96Z</time></trkpt><trkpt lat="45.6399878" lon="10.9577608"><ele>911.0</ele><time>2026-05-02T12:52:40.964Z</time></trkpt><trkpt lat="45.6399189" lon="10.9576075"><ele>911.0</ele><time>2026-05-02T12:52:41.966Z</time></trkpt><trkpt lat="45.639873" lon="10.9574497"><ele>911.0</ele><time>2026-05-02T12:52:42.969Z</time></trkpt><trkpt lat="45.6398522" lon="10.9572748"><ele>911.0</ele><time>2026-05-02T12:52:43.97Z</time></trkpt><trkpt lat="45.6398831" lon="10.9570977"><ele>909.75</ele><time>2026-05-02T12:52:44.967Z</time></trkpt><trkpt lat="45.6399553" lon="10.9569569"><ele>908.5</ele><time>2026-05-02T12:52:45.963Z</time></trkpt><trkpt lat="45.6400507" lon="10.9568227"><ele>907.25</ele><time>2026-05-02T12:52:46.97Z</time></trkpt><trkpt lat="45.640157" lon="10.9566999"><ele>906.0</ele><time>2026-05-02T12:52:47.965Z</time></trkpt><trkpt lat="45.6402587" lon="10.9565658"><ele>909.75</ele><time>2026-05-02T12:52:48.937Z</time></trkpt><trkpt lat="45.6403608" lon="10.9564477"><ele>913.5</ele><time>2026-05-02T12:52:49.948Z</time></trkpt><trkpt lat="45.6404774" lon="10.9563537"><ele>917.25</ele><time>2026-05-02T12:52:50.968Z</time></trkpt><trkpt lat="45.6406025" lon="10.9562638"><ele>921.0</ele><time>2026-05-02T12:52:51.959Z</time></trkpt><trkpt lat="45.6407336" lon="10.9561795"><ele>921.0</ele><time>2026-05-02T12:52:52.96Z</time></trkpt><trkpt lat="45.6408718" lon="10.9561132"><ele>921.0</ele><time>2026-05-02T12:52:53.965Z</time></trkpt><trkpt lat="45.6410159" lon="10.9560782"><ele>921.0</ele><time>2026-05-02T12:52:54.968Z</time></trkpt><trkpt lat="45.6411586" lon="10.9560656"><ele>921.0</ele><time>2026-05-02T12:52:55.961Z</time></trkpt><trkpt lat="45.6412902" lon="10.95607"><ele>920.75</ele><time>2026-05-02T12:52:56.956Z</time></trkpt><trkpt lat="45.6414186" lon="10.9560774"><ele>920.5</ele><time>2026-05-02T12:52:57.968Z</time></trkpt><trkpt lat="45.6415461" lon="10.9560769"><ele>920.25</ele><time>2026-05-02T12:52:58.966Z</time></trkpt><trkpt lat="45.641668" lon="10.9560788"><ele>920.0</ele><time>2026-05-02T12:52:59.962Z</time></trkpt><trkpt lat="45.6417807" lon="10.9560622"><ele>920.0</ele><time>2026-05-02T12:53:00.97Z</time></trkpt><trkpt lat="45.6418823" lon="10.9560031"><ele>920.0</ele><time>2026-05-02T12:53:01.962Z</time></trkpt><trkpt lat="45.6419649" lon="10.9559114"><ele>920.0</ele><time>2026-05-02T12:53:02.965Z</time></trkpt><trkpt lat="45.6420245" lon="10.9557787"><ele>920.0</ele><time>2026-05-02T12:53:03.962Z</time></trkpt><trkpt lat="45.6420531" lon="10.9556361"><ele>920.0</ele><time>2026-05-02T12:53:04.964Z</time></trkpt><trkpt lat="45.6420538" lon="10.9554928"><ele>919.8333333333334</ele><time>2026-05-02T12:53:05.968Z</time></trkpt><trkpt lat="45.6420475" lon="10.9553602"><ele>919.6666666666667</ele><time>2026-05-02T12:53:06.967Z</time></trkpt><trkpt lat="45.6420516" lon="10.9552309"><ele>919.5</ele><time>2026-05-02T12:53:07.963Z</time></trkpt><trkpt lat="45.6420694" lon="10.9551075"><ele>919.3333333333333</ele><time>2026-05-02T12:53:08.967Z</time></trkpt><trkpt lat="45.6420995" lon="10.9549887"><ele>919.1666666666666</ele><time>2026-05-02T12:53:09.966Z</time></trkpt><trkpt lat="45.6421563" lon="10.954896"><ele>919.0</ele><time>2026-05-02T12:53:10.964Z</time></trkpt><trkpt lat="45.6422179" lon="10.9548163"><ele>916.0</ele><time>2026-05-02T12:53:11.971Z</time></trkpt><trkpt lat="45.6422932" lon="10.9547692"><ele>913.0000000000001</ele><time>2026-05-02T12:53:12.963Z</time></trkpt><trkpt lat="45.6423755" lon="10.9547435"><ele>910.0000000000001</ele><time>2026-05-02T12:53:13.959Z</time></trkpt><trkpt lat="45.6424663" lon="10.9547252"><ele>907.0</ele><time>2026-05-02T12:53:14.963Z</time></trkpt><trkpt lat="45.6425607" lon="10.9547259"><ele>904.0</ele><time>2026-05-02T12:53:15.955Z</time></trkpt><trkpt lat="45.642658" lon="10.9547391"><ele>904.0</ele><time>2026-05-02T12:53:16.958Z</time></trkpt><trkpt lat="45.6427574" lon="10.9547586"><ele>904.0000000000001</ele><time>2026-05-02T12:53:17.972Z</time></trkpt><trkpt lat="45.6428545" lon="10.954774"><ele>904.0000000000001</ele><time>2026-05-02T12:53:18.962Z</time></trkpt><trkpt lat="45.6429473" lon="10.9547907"><ele>904.0</ele><time>2026-05-02T12:53:19.973Z</time></trkpt><trkpt lat="45.6430348" lon="10.9547938"><ele>904.0</ele><time>2026-05-02T12:53:20.977Z</time></trkpt><trkpt lat="45.6431275" lon="10.9547725"><ele>905.25</ele><time>2026-05-02T12:53:21.972Z</time></trkpt><trkpt lat="45.6432378" lon="10.9546932"><ele>906.5</ele><time>2026-05-02T12:53:22.969Z</time></trkpt><trkpt lat="45.6433523" lon="10.9545481"><ele>907.75</ele><time>2026-05-02T12:53:23.968Z</time></trkpt><trkpt lat="45.6434569" lon="10.954352"><ele>909.0</ele><time>2026-05-02T12:53:24.962Z</time></trkpt><trkpt lat="45.6435632" lon="10.9541959"><ele>905.25</ele><time>2026-05-02T12:53:25.959Z</time></trkpt><trkpt lat="45.6436784" lon="10.9540738"><ele>901.5</ele><time>2026-05-02T12:53:26.962Z</time></trkpt><trkpt lat="45.6438003" lon="10.9539925"><ele>897.75</ele><time>2026-05-02T12:53:27.966Z</time></trkpt><trkpt lat="45.6439362" lon="10.9539365"><ele>894.0</ele><time>2026-05-02T12:53:28.97Z</time></trkpt><trkpt lat="45.644101" lon="10.9539167"><ele>894.0</ele><time>2026-05-02T12:53:29.96Z</time></trkpt><trkpt lat="45.6442698" lon="10.9539292"><ele>894.0</ele><time>2026-05-02T12:53:30.959Z</time></trkpt><trkpt lat="45.6444405" lon="10.9539497"><ele>894.0</ele><time>2026-05-02T12:53:31.968Z</time></trkpt><trkpt lat="45.6446152" lon="10.9539643"><ele>892.6666666666667</ele><time>2026-05-02T12:53:32.962Z</time></trkpt><trkpt lat="45.6447768" lon="10.953974"><ele>891.3333333333334</ele><time>2026-05-02T12:53:33.954Z</time></trkpt><trkpt lat="45.6449557" lon="10.9539889"><ele>890.0</ele><time>2026-05-02T12:53:34.96Z</time></trkpt><trkpt lat="45.6451413" lon="10.9540052"><ele>888.0</ele><time>2026-05-02T12:53:35.967Z</time></trkpt><trkpt lat="45.6453332" lon="10.9540202"><ele>886.0</ele><time>2026-05-02T12:53:36.962Z</time></trkpt><trkpt lat="45.6455127" lon="10.9540328"><ele>884.0</ele><time>2026-05-02T12:53:37.947Z</time></trkpt><trkpt lat="45.6456948" lon="10.9540395"><ele>884.0</ele><time>2026-05-02T12:53:38.953Z</time></trkpt><trkpt lat="45.6458702" lon="10.9540601"><ele>884.0</ele><time>2026-05-02T12:53:39.967Z</time></trkpt><trkpt lat="45.6460439" lon="10.9540831"><ele>884.0</ele><time>2026-05-02T12:53:40.956Z</time></trkpt><trkpt lat="45.6462153" lon="10.9541054"><ele>882.0</ele><time>2026-05-02T12:53:41.956Z</time></trkpt><trkpt lat="45.6463803" lon="10.9541186"><ele>880.0</ele><time>2026-05-02T12:53:42.968Z</time></trkpt><trkpt lat="45.6465356" lon="10.9541382"><ele>878.0</ele><time>2026-05-02T12:53:43.962Z</time></trkpt><trkpt lat="45.6466847" lon="10.9541558"><ele>878.0</ele><time>2026-05-02T12:53:44.97Z</time></trkpt><trkpt lat="45.6468216" lon="10.9541772"><ele>878.0</ele><time>2026-05-02T12:53:45.954Z</time></trkpt><trkpt lat="45.6469522" lon="10.9541952"><ele>878.0</ele><time>2026-05-02T12:53:46.965Z</time></trkpt><trkpt lat="45.6470587" lon="10.9541768"><ele>878.0</ele><time>2026-05-02T12:53:47.973Z</time></trkpt><trkpt lat="45.6471475" lon="10.9540946"><ele>878.0</ele><time>2026-05-02T12:53:48.962Z</time></trkpt><trkpt lat="45.6471624" lon="10.9539627"><ele>878.0</ele><time>2026-05-02T12:53:49.954Z</time></trkpt><trkpt lat="45.647106" lon="10.9538418"><ele>878.0</ele><time>2026-05-02T12:53:50.968Z</time></trkpt><trkpt lat="45.6469973" lon="10.9537495"><ele>878.0</ele><time>2026-05-02T12:53:51.966Z</time></trkpt><trkpt lat="45.6468743" lon="10.9537001"><ele>878.0</ele><time>2026-05-02T12:53:52.965Z</time></trkpt><trkpt lat="45.6467408" lon="10.9536499"><ele>878.0</ele><time>2026-05-02T12:53:53.966Z</time></trkpt><trkpt lat="45.646605" lon="10.9535767"><ele>878.0</ele><time>2026-05-02T12:53:54.964Z</time></trkpt><trkpt lat="45.6464656" lon="10.9534881"><ele>878.0</ele><time>2026-05-02T12:53:55.964Z</time></trkpt><trkpt lat="45.6463229" lon="10.9533786"><ele>875.0</ele><time>2026-05-02T12:53:56.967Z</time></trkpt><trkpt lat="45.6461638" lon="10.9532661"><ele>872.0</ele><time>2026-05-02T12:53:57.966Z</time></trkpt><trkpt lat="45.6459922" lon="10.9531413"><ele>869.0</ele><time>2026-05-02T12:53:58.956Z</time></trkpt><trkpt lat="45.6457939" lon="10.9530194"><ele>868.0</ele><time>2026-05-02T12:53:59.967Z</time></trkpt><trkpt lat="45.645601" lon="10.9529026"><ele>867.0</ele><time>2026-05-02T12:54:00.951Z</time></trkpt><trkpt lat="45.6454369" lon="10.9527859"><ele>866.0</ele><time>2026-05-02T12:54:01.962Z</time></trkpt><trkpt lat="45.6453114" lon="10.9526673"><ele>863.25</ele><time>2026-05-02T12:54:03.037Z</time></trkpt><trkpt lat="45.645206" lon="10.9525237"><ele>860.5</ele><time>2026-05-02T12:54:04.041Z</time></trkpt><trkpt lat="45.645132" lon="10.9523714"><ele>857.75</ele><time>2026-05-02T12:54:04.976Z</time></trkpt><trkpt lat="45.6450708" lon="10.9521822"><ele>855.0</ele><time>2026-05-02T12:54:05.987Z</time></trkpt><trkpt lat="45.6450336" lon="10.9519906"><ele>855.0</ele><time>2026-05-02T12:54:07.009Z</time></trkpt><trkpt lat="45.6450052" lon="10.9517782"><ele>855.0</ele><time>2026-05-02T12:54:08.033Z</time></trkpt><trkpt lat="45.6449766" lon="10.9515576"><ele>855.0</ele><time>2026-05-02T12:54:09.035Z</time></trkpt><trkpt lat="45.6449426" lon="10.9513343"><ele>854.0</ele><time>2026-05-02T12:54:09.967Z</time></trkpt><trkpt lat="45.6449057" lon="10.9511068"><ele>853.0</ele><time>2026-05-02T12:54:10.965Z</time></trkpt><trkpt lat="45.6448702" lon="10.950888"><ele>852.0</ele><time>2026-05-02T12:54:11.949Z</time></trkpt><trkpt lat="45.6448279" lon="10.9506846"><ele>851.75</ele><time>2026-05-02T12:54:13.047Z</time></trkpt><trkpt lat="45.644776" lon="10.9504846"><ele>851.5</ele><time>2026-05-02T12:54:14.025Z</time></trkpt><trkpt lat="45.644717" lon="10.9502955"><ele>851.25</ele><time>2026-05-02T12:54:14.954Z</time></trkpt><trkpt lat="45.6446565" lon="10.9501146"><ele>851.0</ele><time>2026-05-02T12:54:15.964Z</time></trkpt><trkpt lat="45.6445917" lon="10.9499405"><ele>851.5</ele><time>2026-05-02T12:54:16.974Z</time></trkpt><trkpt lat="45.644526" lon="10.9497549"><ele>852.0</ele><time>2026-05-02T12:54:18.014Z</time></trkpt><trkpt lat="45.6444741" lon="10.949563"><ele>852.5</ele><time>2026-05-02T12:54:18.967Z</time></trkpt><trkpt lat="45.6444341" lon="10.9493648"><ele>853.0</ele><time>2026-05-02T12:54:19.963Z</time></trkpt><trkpt lat="45.6444222" lon="10.9491674"><ele>854.5</ele><time>2026-05-02T12:54:21.038Z</time></trkpt><trkpt lat="45.6444215" lon="10.9489676"><ele>856.0</ele><time>2026-05-02T12:54:22.032Z</time></trkpt><trkpt lat="45.6444267" lon="10.9487744"><ele>857.5</ele><time>2026-05-02T12:54:23.053Z</time></trkpt><trkpt lat="45.6444578" lon="10.9485837"><ele>859.0</ele><time>2026-05-02T12:54:23.97Z</time></trkpt><trkpt lat="45.6445132" lon="10.9484133"><ele>860.3333333333333</ele><time>2026-05-02T12:54:24.943Z</time></trkpt><trkpt lat="45.6446125" lon="10.9482515"><ele>861.6666666666667</ele><time>2026-05-02T12:54:25.961Z</time></trkpt><trkpt lat="45.6447293" lon="10.9480989"><ele>863.0</ele><time>2026-05-02T12:54:26.957Z</time></trkpt><trkpt lat="45.6448424" lon="10.947949"><ele>863.0</ele><time>2026-05-02T12:54:27.949Z</time></trkpt><trkpt lat="45.6449519" lon="10.9477913"><ele>863.0</ele><time>2026-05-02T12:54:28.952Z</time></trkpt><trkpt lat="45.6450576" lon="10.9476293"><ele>863.0</ele><time>2026-05-02T12:54:29.954Z</time></trkpt><trkpt lat="45.6451517" lon="10.9474415"><ele>868.6666666666667</ele><time>2026-05-02T12:54:30.954Z</time></trkpt><trkpt lat="45.6452261" lon="10.9472247"><ele>874.3333333333333</ele><time>2026-05-02T12:54:31.956Z</time></trkpt><trkpt lat="45.6452742" lon="10.9469722"><ele>880.0</ele><time>2026-05-02T12:54:33.039Z</time></trkpt><trkpt lat="45.6452944" lon="10.946717"><ele>879.6666666666666</ele><time>2026-05-02T12:54:33.955Z</time></trkpt><trkpt lat="45.6452963" lon="10.9464881"><ele>879.3333333333333</ele><time>2026-05-02T12:54:34.951Z</time></trkpt><trkpt lat="45.6452818" lon="10.9462604"><ele>879.0</ele><time>2026-05-02T12:54:35.955Z</time></trkpt><trkpt lat="45.6452414" lon="10.9460297"><ele>884.0</ele><time>2026-05-02T12:54:36.972Z</time></trkpt><trkpt lat="45.6451723" lon="10.945771"><ele>889.0</ele><time>2026-05-02T12:54:37.955Z</time></trkpt><trkpt lat="45.6450923" lon="10.9455091"><ele>894.0</ele><time>2026-05-02T12:54:38.959Z</time></trkpt><trkpt lat="45.6450157" lon="10.9452508"><ele>893.0</ele><time>2026-05-02T12:54:39.959Z</time></trkpt><trkpt lat="45.6449441" lon="10.9449904"><ele>892.0</ele><time>2026-05-02T12:54:41.039Z</time></trkpt><trkpt lat="45.6448741" lon="10.9447328"><ele>891.0</ele><time>2026-05-02T12:54:42.038Z</time></trkpt><trkpt lat="45.6448061" lon="10.9444975"><ele>891.0</ele><time>2026-05-02T12:54:42.976Z</time></trkpt><trkpt lat="45.6447467" lon="10.9442708"><ele>891.0</ele><time>2026-05-02T12:54:43.964Z</time></trkpt><trkpt lat="45.644707" lon="10.9440241"><ele>891.0</ele><time>2026-05-02T12:54:44.966Z</time></trkpt><trkpt lat="45.6446711" lon="10.9437635"><ele>892.0</ele><time>2026-05-02T12:54:45.973Z</time></trkpt><trkpt lat="45.6446264" lon="10.9434849"><ele>893.0</ele><time>2026-05-02T12:54:46.973Z</time></trkpt><trkpt lat="45.6445684" lon="10.9432052"><ele>894.0</ele><time>2026-05-02T12:54:47.97Z</time></trkpt><trkpt lat="45.6445046" lon="10.9429377"><ele>895.6666666666667</ele><time>2026-05-02T12:54:49.031Z</time></trkpt><trkpt lat="45.6444318" lon="10.9426996"><ele>897.3333333333334</ele><time>2026-05-02T12:54:49.963Z</time></trkpt><trkpt lat="45.6443707" lon="10.9424924"><ele>899.0</ele><time>2026-05-02T12:54:50.971Z</time></trkpt><trkpt lat="45.6443407" lon="10.9422914"><ele>900.5</ele><time>2026-05-02T12:54:52.003Z</time></trkpt><trkpt lat="45.6443235" lon="10.9421045"><ele>902.0</ele><time>2026-05-02T12:54:53.041Z</time></trkpt><trkpt lat="45.6443213" lon="10.9419425"><ele>903.5</ele><time>2026-05-02T12:54:54.03Z</time></trkpt><trkpt lat="45.6443211" lon="10.9417799"><ele>905.0</ele><time>2026-05-02T12:54:54.968Z</time></trkpt><trkpt lat="45.6443195" lon="10.94162"><ele>906.2</ele><time>2026-05-02T12:54:55.975Z</time></trkpt><trkpt lat="45.6443194" lon="10.9414547"><ele>907.4</ele><time>2026-05-02T12:54:56.969Z</time></trkpt><trkpt lat="45.6443079" lon="10.9412906"><ele>908.5999999999999</ele><time>2026-05-02T12:54:58.06Z</time></trkpt><trkpt lat="45.6442876" lon="10.9411317"><ele>909.8</ele><time>2026-05-02T12:54:59.045Z</time></trkpt><trkpt lat="45.644268" lon="10.9409837"><ele>911.0</ele><time>2026-05-02T12:54:59.976Z</time></trkpt><trkpt lat="45.6442371" lon="10.940847"><ele>911.0</ele><time>2026-05-02T12:55:00.984Z</time></trkpt><trkpt lat="45.6441957" lon="10.9407125"><ele>910.9999999999999</ele><time>2026-05-02T12:55:01.997Z</time></trkpt><trkpt lat="45.6441498" lon="10.9405788"><ele>910.9999999999999</ele><time>2026-05-02T12:55:03.046Z</time></trkpt><trkpt lat="45.6440974" lon="10.9404406"><ele>911.0</ele><time>2026-05-02T12:55:04.042Z</time></trkpt><trkpt lat="45.6440435" lon="10.9403013"><ele>911.0</ele><time>2026-05-02T12:55:04.963Z</time></trkpt><trkpt lat="45.6439888" lon="10.9401786"><ele>911.0000000000001</ele><time>2026-05-02T12:55:05.962Z</time></trkpt><trkpt lat="45.6439337" lon="10.9400786"><ele>911.0</ele><time>2026-05-02T12:55:06.963Z</time></trkpt><trkpt lat="45.6438902" lon="10.9399814"><ele>911.0</ele><time>2026-05-02T12:55:08.049Z</time></trkpt><trkpt lat="45.6438566" lon="10.9398921"><ele>911.0</ele><time>2026-05-02T12:55:08.982Z</time></trkpt><trkpt lat="45.6438307" lon="10.9397788"><ele>911.0000000000001</ele><time>2026-05-02T12:55:10.971Z</time></trkpt><trkpt lat="45.6437995" lon="10.9396615"><ele>911.0</ele><time>2026-05-02T12:55:12.973Z</time></trkpt><trkpt lat="45.6437624" lon="10.9395174"><ele>912.8333333333334</ele><time>2026-05-02T12:55:14.979Z</time></trkpt><trkpt lat="45.6437339" lon="10.9393731"><ele>914.6666666666667</ele><time>2026-05-02T12:55:16.977Z</time></trkpt><trkpt lat="45.6437479" lon="10.9392248"><ele>916.5</ele><time>2026-05-02T12:55:18.96Z</time></trkpt><trkpt lat="45.6437735" lon="10.9391382"><ele>918.3333333333333</ele><time>2026-05-02T12:55:19.978Z</time></trkpt><trkpt lat="45.6438024" lon="10.9390349"><ele>920.1666666666666</ele><time>2026-05-02T12:55:20.967Z</time></trkpt><trkpt lat="45.643828" lon="10.9389218"><ele>922.0</ele><time>2026-05-02T12:55:21.979Z</time></trkpt><trkpt lat="45.6438544" lon="10.9388003"><ele>923.8</ele><time>2026-05-02T12:55:22.969Z</time></trkpt><trkpt lat="45.643882" lon="10.9386717"><ele>925.6</ele><time>2026-05-02T12:55:23.974Z</time></trkpt><trkpt lat="45.6439111" lon="10.9385471"><ele>927.3999999999999</ele><time>2026-05-02T12:55:24.982Z</time></trkpt><trkpt lat="45.6439403" lon="10.9384225"><ele>929.1999999999999</ele><time>2026-05-02T12:55:25.981Z</time></trkpt><trkpt lat="45.643946" lon="10.938289"><ele>931.0</ele><time>2026-05-02T12:55:26.975Z</time></trkpt><trkpt lat="45.6439355" lon="10.938153"><ele>931.8571428571429</ele><time>2026-05-02T12:55:28.049Z</time></trkpt><trkpt lat="45.6439132" lon="10.9380421"><ele>932.7142857142858</ele><time>2026-05-02T12:55:29.034Z</time></trkpt><trkpt lat="45.6438901" lon="10.937944"><ele>933.5714285714286</ele><time>2026-05-02T12:55:29.973Z</time></trkpt><trkpt lat="45.6438768" lon="10.93785"><ele>934.4285714285714</ele><time>2026-05-02T12:55:30.972Z</time></trkpt><trkpt lat="45.6438734" lon="10.9377555"><ele>935.2857142857143</ele><time>2026-05-02T12:55:31.977Z</time></trkpt><trkpt lat="45.6438898" lon="10.9376542"><ele>936.1428571428571</ele><time>2026-05-02T12:55:33.044Z</time></trkpt><trkpt lat="45.6439215" lon="10.9375498"><ele>937.0</ele><time>2026-05-02T12:55:33.971Z</time></trkpt><trkpt lat="45.6439587" lon="10.9374389"><ele>937.4999999999999</ele><time>2026-05-02T12:55:34.982Z</time></trkpt><trkpt lat="45.6439978" lon="10.9373313"><ele>938.0</ele><time>2026-05-02T12:55:35.977Z</time></trkpt><trkpt lat="45.6440319" lon="10.9372362"><ele>938.5</ele><time>2026-05-02T12:55:37.012Z</time></trkpt><trkpt lat="45.6440617" lon="10.937152"><ele>939.0</ele><time>2026-05-02T12:55:38.033Z</time></trkpt><trkpt lat="45.6441181" lon="10.9370083"><ele>939.4999999999999</ele><time>2026-05-02T12:55:39.963Z</time></trkpt><trkpt lat="45.6441547" lon="10.9368865"><ele>940.0</ele><time>2026-05-02T12:55:41.951Z</time></trkpt><trkpt lat="45.6441696" lon="10.9367894"><ele>939.8333333333333</ele><time>2026-05-02T12:55:43.954Z</time></trkpt><trkpt lat="45.6441345" lon="10.9366903"><ele>939.6666666666666</ele><time>2026-05-02T12:55:47.958Z</time></trkpt><trkpt lat="45.6440716" lon="10.9366624"><ele>939.5</ele><time>2026-05-02T12:55:48.96Z</time></trkpt><trkpt lat="45.6440003" lon="10.9366135"><ele>939.3333333333333</ele><time>2026-05-02T12:55:49.963Z</time></trkpt><trkpt lat="45.6439227" lon="10.936563"><ele>939.1666666666666</ele><time>2026-05-02T12:55:50.968Z</time></trkpt><trkpt lat="45.6438376" lon="10.9365324"><ele>939.0</ele><time>2026-05-02T12:55:51.966Z</time></trkpt><trkpt lat="45.6437551" lon="10.936497"><ele>939.0</ele><time>2026-05-02T12:55:52.968Z</time></trkpt><trkpt lat="45.6436894" lon="10.93646"><ele>939.0</ele><time>2026-05-02T12:55:53.958Z</time></trkpt><trkpt lat="45.6435917" lon="10.9364415"><ele>939.0</ele><time>2026-05-02T12:55:55.96Z</time></trkpt><trkpt lat="45.6435286" lon="10.9364101"><ele>939.0</ele><time>2026-05-02T12:55:57.961Z</time></trkpt><trkpt lat="45.6435686" lon="10.9362416"><ele>939.0</ele><time>2026-05-02T12:55:59.962Z</time></trkpt><trkpt lat="45.6435923" lon="10.9361568"><ele>939.0</ele><time>2026-05-02T12:56:00.964Z</time></trkpt><trkpt lat="45.643598" lon="10.9360661"><ele>938.8333333333334</ele><time>2026-05-02T12:56:02.968Z</time></trkpt><trkpt lat="45.6436053" lon="10.9359425"><ele>938.6666666666667</ele><time>2026-05-02T12:56:36.96Z</time></trkpt><trkpt lat="45.6435497" lon="10.935831"><ele>938.5</ele><time>2026-05-02T12:56:38.953Z</time></trkpt><trkpt lat="45.643508" lon="10.9357504"><ele>938.3333333333334</ele><time>2026-05-02T12:56:39.974Z</time></trkpt><trkpt lat="45.6434637" lon="10.9356698"><ele>938.1666666666667</ele><time>2026-05-02T12:56:40.978Z</time></trkpt><trkpt lat="45.6434119" lon="10.9355815"><ele>938.0</ele><time>2026-05-02T12:56:41.955Z</time></trkpt><trkpt lat="45.6433509" lon="10.9354773"><ele>938.6666666666667</ele><time>2026-05-02T12:56:42.984Z</time></trkpt><trkpt lat="45.6433009" lon="10.9353546"><ele>939.3333333333334</ele><time>2026-05-02T12:56:43.952Z</time></trkpt><trkpt lat="45.6432617" lon="10.9352206"><ele>940.0</ele><time>2026-05-02T12:56:44.96Z</time></trkpt><trkpt lat="45.6432402" lon="10.9351125"><ele>940.6666666666667</ele><time>2026-05-02T12:56:45.97Z</time></trkpt><trkpt lat="45.6431985" lon="10.9350036"><ele>941.3333333333334</ele><time>2026-05-02T12:56:46.963Z</time></trkpt><trkpt lat="45.643149" lon="10.9349371"><ele>942.0</ele><time>2026-05-02T12:56:47.975Z</time></trkpt><trkpt lat="45.6430927" lon="10.9348913"><ele>945.0</ele><time>2026-05-02T12:56:55.974Z</time></trkpt><trkpt lat="45.6430242" lon="10.9348082"><ele>948.0</ele><time>2026-05-02T12:56:58.981Z</time></trkpt><trkpt lat="45.6429654" lon="10.9347078"><ele>951.0</ele><time>2026-05-02T12:57:00.972Z</time></trkpt><trkpt lat="45.6428934" lon="10.9346022"><ele>954.0</ele><time>2026-05-02T12:57:02.969Z</time></trkpt><trkpt lat="45.6428139" lon="10.9345068"><ele>957.0</ele><time>2026-05-02T12:57:04.98Z</time></trkpt><trkpt lat="45.6427281" lon="10.9344528"><ele>958.6</ele><time>2026-05-02T12:57:06.967Z</time></trkpt><trkpt lat="45.6426264" lon="10.9343799"><ele>960.2</ele><time>2026-05-02T12:57:08.978Z</time></trkpt><trkpt lat="45.6425331" lon="10.9343167"><ele>961.8</ele><time>2026-05-02T12:57:10.972Z</time></trkpt><trkpt lat="45.6424557" lon="10.9342657"><ele>963.4</ele><time>2026-05-02T12:57:12.967Z</time></trkpt><trkpt lat="45.6423657" lon="10.9342166"><ele>965.0</ele><time>2026-05-02T12:57:14.965Z</time></trkpt><trkpt lat="45.6422783" lon="10.9341794"><ele>968.3333333333334</ele><time>2026-05-02T12:57:16.966Z</time></trkpt><trkpt lat="45.6421752" lon="10.9341588"><ele>971.6666666666667</ele><time>2026-05-02T12:57:18.965Z</time></trkpt><trkpt lat="45.6420568" lon="10.9341507"><ele>975.0</ele><time>2026-05-02T12:57:20.967Z</time></trkpt><trkpt lat="45.6419899" lon="10.9341017"><ele>978.3333333333333</ele><time>2026-05-02T12:57:22.975Z</time></trkpt><trkpt lat="45.6419846" lon="10.9340038"><ele>981.6666666666666</ele><time>2026-05-02T12:57:25.967Z</time></trkpt><trkpt lat="45.6419167" lon="10.9340085"><ele>985.0</ele><time>2026-05-02T12:57:30.972Z</time></trkpt><trkpt lat="45.6418074" lon="10.9340341"><ele>988.0</ele><time>2026-05-02T12:57:34.095Z</time></trkpt><trkpt lat="45.6416668" lon="10.9340882"><ele>991.0</ele><time>2026-05-02T12:57:35.978Z</time></trkpt><trkpt lat="45.6415662" lon="10.9340936"><ele>994.0</ele><time>2026-05-02T12:57:37.975Z</time></trkpt><trkpt lat="45.6414976" lon="10.9341034"><ele>997.0</ele><time>2026-05-02T12:57:39.968Z</time></trkpt><trkpt lat="45.6415623" lon="10.9341196"><ele>1000.0</ele><time>2026-05-02T12:57:45.992Z</time></trkpt><trkpt lat="45.6416615" lon="10.9339925"><ele>1000.0</ele><time>2026-05-02T12:57:47.982Z</time></trkpt><trkpt lat="45.641725" lon="10.9339067"><ele>1000.0</ele><time>2026-05-02T12:57:48.987Z</time></trkpt><trkpt lat="45.6418096" lon="10.9337995"><ele>1000.0</ele><time>2026-05-02T12:57:49.979Z</time></trkpt><trkpt lat="45.6418941" lon="10.9336874"><ele>1000.0</ele><time>2026-05-02T12:57:51.03Z</time></trkpt><trkpt lat="45.641975" lon="10.933575"><ele>1000.0</ele><time>2026-05-02T12:57:52.056Z</time></trkpt><trkpt lat="45.642041" lon="10.9334786"><ele>1000.6</ele><time>2026-05-02T12:57:52.99Z</time></trkpt><trkpt lat="45.6420833" lon="10.9334118"><ele>1001.2</ele><time>2026-05-02T12:57:53.976Z</time></trkpt><trkpt lat="45.6421573" lon="10.9332899"><ele>1001.8</ele><time>2026-05-02T12:57:55.979Z</time></trkpt><trkpt lat="45.6422293" lon="10.9331617"><ele>1002.4</ele><time>2026-05-02T12:57:57.982Z</time></trkpt><trkpt lat="45.6422643" lon="10.9330261"><ele>1003.0</ele><time>2026-05-02T12:57:59.975Z</time></trkpt><trkpt lat="45.6422915" lon="10.9328655"><ele>1003.0</ele><time>2026-05-02T12:58:01.978Z</time></trkpt><trkpt lat="45.6422985" lon="10.9327746"><ele>1003.0</ele><time>2026-05-02T12:58:02.981Z</time></trkpt><trkpt lat="45.6422919" lon="10.9326047"><ele>1003.0</ele><time>2026-05-02T12:58:04.983Z</time></trkpt><trkpt lat="45.6422904" lon="10.9324262"><ele>1003.0</ele><time>2026-05-02T12:58:06.987Z</time></trkpt><trkpt lat="45.6422764" lon="10.9321991"><ele>1003.6666666666666</ele><time>2026-05-02T12:58:09.985Z</time></trkpt><trkpt lat="45.6422587" lon="10.932078"><ele>1004.3333333333333</ele><time>2026-05-02T12:58:11.984Z</time></trkpt><trkpt lat="45.6422412" lon="10.9319689"><ele>1005.0</ele><time>2026-05-02T12:58:13.987Z</time></trkpt><trkpt lat="45.6422648" lon="10.9318106"><ele>1005.6666666666667</ele><time>2026-05-02T12:58:15.966Z</time></trkpt><trkpt lat="45.6422839" lon="10.931709"><ele>1006.3333333333334</ele><time>2026-05-02T12:58:16.973Z</time></trkpt><trkpt lat="45.6423161" lon="10.9316227"><ele>1007.0</ele><time>2026-05-02T12:58:18.056Z</time></trkpt><trkpt lat="45.6424013" lon="10.9315305"><ele>1007.8333333333334</ele><time>2026-05-02T12:58:19.979Z</time></trkpt><trkpt lat="45.6425353" lon="10.9315438"><ele>1008.6666666666667</ele><time>2026-05-02T12:58:21.953Z</time></trkpt><trkpt lat="45.642607" lon="10.9315395"><ele>1009.5</ele><time>2026-05-02T12:58:22.976Z</time></trkpt><trkpt lat="45.642686" lon="10.9315284"><ele>1010.3333333333333</ele><time>2026-05-02T12:58:23.959Z</time></trkpt><trkpt lat="45.6427637" lon="10.9314975"><ele>1011.1666666666666</ele><time>2026-05-02T12:58:24.97Z</time></trkpt><trkpt lat="45.6428387" lon="10.9314515"><ele>1012.0</ele><time>2026-05-02T12:58:25.978Z</time></trkpt><trkpt lat="45.642917" lon="10.9313831"><ele>1010.3333333333333</ele><time>2026-05-02T12:58:26.977Z</time></trkpt><trkpt lat="45.642989" lon="10.9313061"><ele>1008.6666666666666</ele><time>2026-05-02T12:58:28.018Z</time></trkpt><trkpt lat="45.6430418" lon="10.9312107"><ele>1007.0</ele><time>2026-05-02T12:58:28.974Z</time></trkpt><trkpt lat="45.6430719" lon="10.9311163"><ele>1005.3333333333333</ele><time>2026-05-02T12:58:30.021Z</time></trkpt><trkpt lat="45.6430947" lon="10.9310023"><ele>1003.6666666666666</ele><time>2026-05-02T12:58:37.031Z</time></trkpt><trkpt lat="45.6431522" lon="10.9309389"><ele>1002.0</ele><time>2026-05-02T12:58:38.97Z</time></trkpt><trkpt lat="45.643248" lon="10.9309274"><ele>1002.0</ele><time>2026-05-02T12:58:40.963Z</time></trkpt><trkpt lat="45.6433668" lon="10.9309323"><ele>1002.0</ele><time>2026-05-02T12:58:42.973Z</time></trkpt><trkpt lat="45.6434921" lon="10.9309263"><ele>1002.0</ele><time>2026-05-02T12:58:44.977Z</time></trkpt><trkpt lat="45.6435559" lon="10.930923"><ele>1002.0</ele><time>2026-05-02T12:58:45.973Z</time></trkpt><trkpt lat="45.6436776" lon="10.9309084"><ele>1002.0</ele><time>2026-05-02T12:58:47.982Z</time></trkpt><trkpt lat="45.6437434" lon="10.9308914"><ele>1001.4285714285714</ele><time>2026-05-02T12:58:48.977Z</time></trkpt><trkpt lat="45.6438156" lon="10.9308731"><ele>1000.8571428571429</ele><time>2026-05-02T12:58:49.983Z</time></trkpt><trkpt lat="45.6438926" lon="10.9308435"><ele>1000.2857142857143</ele><time>2026-05-02T12:58:50.976Z</time></trkpt><trkpt lat="45.6439626" lon="10.9308238"><ele>999.7142857142858</ele><time>2026-05-02T12:58:51.985Z</time></trkpt><trkpt lat="45.6440346" lon="10.930807"><ele>999.1428571428571</ele><time>2026-05-02T12:58:53.058Z</time></trkpt><trkpt lat="45.6441089" lon="10.9307906"><ele>998.5714285714287</ele><time>2026-05-02T12:58:53.976Z</time></trkpt><trkpt lat="45.644181" lon="10.9307978"><ele>998.0000000000001</ele><time>2026-05-02T12:58:54.968Z</time></trkpt><trkpt lat="45.6442473" lon="10.9307934"><ele>998.0</ele><time>2026-05-02T12:58:55.968Z</time></trkpt><trkpt lat="45.6443362" lon="10.9306924"><ele>998.0</ele><time>2026-05-02T12:58:58.045Z</time></trkpt><trkpt lat="45.6444001" lon="10.9305397"><ele>998.0</ele><time>2026-05-02T12:58:59.978Z</time></trkpt><trkpt lat="45.6444174" lon="10.9304299"><ele>998.0</ele><time>2026-05-02T12:59:00.984Z</time></trkpt><trkpt lat="45.6444333" lon="10.9303194"><ele>998.0</ele><time>2026-05-02T12:59:02.003Z</time></trkpt><trkpt lat="45.6444424" lon="10.9302131"><ele>998.0000000000001</ele><time>2026-05-02T12:59:03.031Z</time></trkpt><trkpt lat="45.644454" lon="10.9301146"><ele>998.0</ele><time>2026-05-02T12:59:04.03Z</time></trkpt><trkpt lat="45.6444586" lon="10.9300225"><ele>998.0000000000001</ele><time>2026-05-02T12:59:04.971Z</time></trkpt><trkpt lat="45.6444497" lon="10.9299278"><ele>998.0000000000001</ele><time>2026-05-02T12:59:05.965Z</time></trkpt><trkpt lat="45.6444222" lon="10.9298375"><ele>998.0</ele><time>2026-05-02T12:59:06.976Z</time></trkpt><trkpt lat="45.6443858" lon="10.9297304"><ele>998.0000000000001</ele><time>2026-05-02T12:59:08.033Z</time></trkpt><trkpt lat="45.6443513" lon="10.9296261"><ele>998.0000000000001</ele><time>2026-05-02T12:59:08.974Z</time></trkpt><trkpt lat="45.6443241" lon="10.9295176"><ele>996.5000000000001</ele><time>2026-05-02T12:59:09.945Z</time></trkpt><trkpt lat="45.6443137" lon="10.9294095"><ele>995.0</ele><time>2026-05-02T12:59:11.05Z</time></trkpt><trkpt lat="45.6443058" lon="10.9292957"><ele>993.5</ele><time>2026-05-02T12:59:12.037Z</time></trkpt><trkpt lat="45.6442831" lon="10.9291925"><ele>992.0</ele><time>2026-05-02T12:59:13.031Z</time></trkpt><trkpt lat="45.6442437" lon="10.9291031"><ele>990.5000000000001</ele><time>2026-05-02T12:59:14.037Z</time></trkpt><trkpt lat="45.6441861" lon="10.9289337"><ele>989.0</ele><time>2026-05-02T12:59:15.985Z</time></trkpt><trkpt lat="45.6441514" lon="10.9288331"><ele>988.4285714285713</ele><time>2026-05-02T12:59:16.984Z</time></trkpt><trkpt lat="45.6441169" lon="10.9287372"><ele>987.8571428571428</ele><time>2026-05-02T12:59:18.051Z</time></trkpt><trkpt lat="45.6440824" lon="10.9286427"><ele>987.2857142857142</ele><time>2026-05-02T12:59:18.991Z</time></trkpt><trkpt lat="45.6440434" lon="10.928556"><ele>986.7142857142858</ele><time>2026-05-02T12:59:19.971Z</time></trkpt><trkpt lat="45.6439995" lon="10.9284802"><ele>986.1428571428572</ele><time>2026-05-02T12:59:20.984Z</time></trkpt><trkpt lat="45.6439543" lon="10.9284122"><ele>985.5714285714287</ele><time>2026-05-02T12:59:21.969Z</time></trkpt><trkpt lat="45.6439009" lon="10.9283449"><ele>985.0</ele><time>2026-05-02T12:59:22.984Z</time></trkpt><trkpt lat="45.6438424" lon="10.9282733"><ele>983.9999999999999</ele><time>2026-05-02T12:59:23.989Z</time></trkpt><trkpt lat="45.6438015" lon="10.9281895"><ele>983.0</ele><time>2026-05-02T12:59:24.971Z</time></trkpt><trkpt lat="45.6438316" lon="10.9280364"><ele>982.0</ele><time>2026-05-02T12:59:27.011Z</time></trkpt><trkpt lat="45.6439256" lon="10.9280047"><ele>981.0</ele><time>2026-05-02T12:59:28.987Z</time></trkpt><trkpt lat="45.6439175" lon="10.9279064"><ele>979.9999999999999</ele><time>2026-05-02T13:01:10.96Z</time></trkpt><trkpt lat="45.6438546" lon="10.92797"><ele>979.0</ele><time>2026-05-02T13:01:12.97Z</time></trkpt><trkpt lat="45.6437951" lon="10.9280463"><ele>979.0</ele><time>2026-05-02T13:01:14.987Z</time></trkpt><trkpt lat="45.6437599" lon="10.9281538"><ele>979.0000000000001</ele><time>2026-05-02T13:01:16.988Z</time></trkpt><trkpt lat="45.6438438" lon="10.9282989"><ele>979.0000000000001</ele><time>2026-05-02T13:01:18.989Z</time></trkpt><trkpt lat="45.6439146" lon="10.928385"><ele>979.0</ele><time>2026-05-02T13:01:19.986Z</time></trkpt><trkpt lat="45.643982" lon="10.9284901"><ele>979.0</ele><time>2026-05-02T13:01:20.97Z</time></trkpt><trkpt lat="45.6440478" lon="10.9286184"><ele>979.9999999999999</ele><time>2026-05-02T13:01:21.971Z</time></trkpt><trkpt lat="45.6441019" lon="10.9287535"><ele>981.0</ele><time>2026-05-02T13:01:22.974Z</time></trkpt><trkpt lat="45.6441393" lon="10.9288477"><ele>982.0</ele><time>2026-05-02T13:01:24.004Z</time></trkpt><trkpt lat="45.644174" lon="10.9289304"><ele>983.0</ele><time>2026-05-02T13:01:24.978Z</time></trkpt><trkpt lat="45.6442272" lon="10.9290641"><ele>983.9999999999999</ele><time>2026-05-02T13:01:26.996Z</time></trkpt><trkpt lat="45.6442585" lon="10.9291808"><ele>985.0</ele><time>2026-05-02T13:01:28.971Z</time></trkpt><trkpt lat="45.6442809" lon="10.929331"><ele>985.6666666666666</ele><time>2026-05-02T13:01:30.986Z</time></trkpt><trkpt lat="45.644283" lon="10.9294837"><ele>986.3333333333333</ele><time>2026-05-02T13:01:32.987Z</time></trkpt><trkpt lat="45.6442886" lon="10.9295789"><ele>987.0</ele><time>2026-05-02T13:01:35.03Z</time></trkpt><trkpt lat="45.6443107" lon="10.9296715"><ele>987.6666666666667</ele><time>2026-05-02T13:02:01.977Z</time></trkpt><trkpt lat="45.6443806" lon="10.9298264"><ele>988.3333333333334</ele><time>2026-05-02T13:02:03.972Z</time></trkpt><trkpt lat="45.6444082" lon="10.9299164"><ele>989.0</ele><time>2026-05-02T13:02:04.969Z</time></trkpt><trkpt lat="45.6444288" lon="10.9300162"><ele>990.5000000000001</ele><time>2026-05-02T13:02:05.985Z</time></trkpt><trkpt lat="45.6444471" lon="10.9301261"><ele>992.0</ele><time>2026-05-02T13:02:06.99Z</time></trkpt><trkpt lat="45.644451" lon="10.9302385"><ele>993.5</ele><time>2026-05-02T13:02:07.97Z</time></trkpt><trkpt lat="45.6444392" lon="10.9303328"><ele>995.0</ele><time>2026-05-02T13:02:08.987Z</time></trkpt><trkpt lat="45.644408" lon="10.9305008"><ele>996.5000000000001</ele><time>2026-05-02T13:02:10.977Z</time></trkpt><trkpt lat="45.644393" lon="10.9305908"><ele>998.0</ele><time>2026-05-02T13:02:11.974Z</time></trkpt><trkpt lat="45.6443646" lon="10.9306786"><ele>998.0</ele><time>2026-05-02T13:02:12.98Z</time></trkpt><trkpt lat="45.6442676" lon="10.9307905"><ele>998.0</ele><time>2026-05-02T13:02:14.981Z</time></trkpt><trkpt lat="45.644206" lon="10.9308144"><ele>998.0</ele><time>2026-05-02T13:02:15.983Z</time></trkpt><trkpt lat="45.6440786" lon="10.9308122"><ele>998.0</ele><time>2026-05-02T13:02:17.981Z</time></trkpt><trkpt lat="45.6440045" lon="10.930827"><ele>998.0</ele><time>2026-05-02T13:02:18.981Z</time></trkpt><trkpt lat="45.6439304" lon="10.9308538"><ele>998.0000000000001</ele><time>2026-05-02T13:02:19.988Z</time></trkpt><trkpt lat="45.6438482" lon="10.9308768"><ele>998.0</ele><time>2026-05-02T13:02:20.982Z</time></trkpt><trkpt lat="45.6437642" lon="10.9308998"><ele>998.0</ele><time>2026-05-02T13:02:21.985Z</time></trkpt><trkpt lat="45.6436787" lon="10.9309223"><ele>998.0</ele><time>2026-05-02T13:02:22.986Z</time></trkpt><trkpt lat="45.6435944" lon="10.930924"><ele>998.0000000000001</ele><time>2026-05-02T13:02:23.988Z</time></trkpt><trkpt lat="45.6435113" lon="10.93093"><ele>998.0</ele><time>2026-05-02T13:02:24.984Z</time></trkpt><trkpt lat="45.6434326" lon="10.9309366"><ele>998.8</ele><time>2026-05-02T13:02:25.964Z</time></trkpt><trkpt lat="45.6433516" lon="10.9309306"><ele>999.5999999999999</ele><time>2026-05-02T13:02:26.982Z</time></trkpt><trkpt lat="45.6432669" lon="10.9309263"><ele>1000.4000000000001</ele><time>2026-05-02T13:02:27.981Z</time></trkpt><trkpt lat="45.6431877" lon="10.9309279"><ele>1001.2</ele><time>2026-05-02T13:02:28.996Z</time></trkpt><trkpt lat="45.6430958" lon="10.9309883"><ele>1002.0</ele><time>2026-05-02T13:02:30.977Z</time></trkpt><trkpt lat="45.6430649" lon="10.9311315"><ele>1002.0</ele><time>2026-05-02T13:02:32.976Z</time></trkpt><trkpt lat="45.6430343" lon="10.9312152"><ele>1002.0</ele><time>2026-05-02T13:02:33.963Z</time></trkpt><trkpt lat="45.6429812" lon="10.9312948"><ele>1002.0</ele><time>2026-05-02T13:02:34.977Z</time></trkpt><trkpt lat="45.6429107" lon="10.9313677"><ele>1002.0</ele><time>2026-05-02T13:02:35.976Z</time></trkpt><trkpt lat="45.6428293" lon="10.9314264"><ele>1002.0</ele><time>2026-05-02T13:02:36.984Z</time></trkpt><trkpt lat="45.6427393" lon="10.9314776"><ele>1002.0</ele><time>2026-05-02T13:02:37.989Z</time></trkpt><trkpt lat="45.6426462" lon="10.9315164"><ele>1003.0</ele><time>2026-05-02T13:02:38.972Z</time></trkpt><trkpt lat="45.6425427" lon="10.9315295"><ele>1004.0</ele><time>2026-05-02T13:02:39.973Z</time></trkpt><trkpt lat="45.6424536" lon="10.93152"><ele>1005.0</ele><time>2026-05-02T13:02:40.981Z</time></trkpt><trkpt lat="45.6423817" lon="10.9315189"><ele>1006.0</ele><time>2026-05-02T13:02:41.981Z</time></trkpt><trkpt lat="45.6423211" lon="10.9315678"><ele>1007.0</ele><time>2026-05-02T13:02:42.973Z</time></trkpt><trkpt lat="45.642271" lon="10.9317277"><ele>1007.0000000000001</ele><time>2026-05-02T13:02:44.985Z</time></trkpt><trkpt lat="45.6422594" lon="10.9318169"><ele>1007.0</ele><time>2026-05-02T13:02:45.984Z</time></trkpt><trkpt lat="45.6422449" lon="10.9319318"><ele>1007.0</ele><time>2026-05-02T13:02:46.983Z</time></trkpt><trkpt lat="45.6422417" lon="10.9320559"><ele>1007.0</ele><time>2026-05-02T13:02:47.979Z</time></trkpt><trkpt lat="45.6422595" lon="10.9321746"><ele>1007.0000000000001</ele><time>2026-05-02T13:02:49Z</time></trkpt><trkpt lat="45.6422762" lon="10.932312"><ele>1007.0</ele><time>2026-05-02T13:02:49.99Z</time></trkpt><trkpt lat="45.6422791" lon="10.9324682"><ele>1006.2</ele><time>2026-05-02T13:02:50.982Z</time></trkpt><trkpt lat="45.6422805" lon="10.932627"><ele>1005.4000000000001</ele><time>2026-05-02T13:02:51.981Z</time></trkpt><trkpt lat="45.6422858" lon="10.9327658"><ele>1004.5999999999999</ele><time>2026-05-02T13:02:52.979Z</time></trkpt><trkpt lat="45.642278" lon="10.9329011"><ele>1003.8</ele><time>2026-05-02T13:02:53.972Z</time></trkpt><trkpt lat="45.6422605" lon="10.9330342"><ele>1003.0</ele><time>2026-05-02T13:02:54.978Z</time></trkpt><trkpt lat="45.6422237" lon="10.933151"><ele>1002.9999999999999</ele><time>2026-05-02T13:02:55.994Z</time></trkpt><trkpt lat="45.6421804" lon="10.9332605"><ele>1003.0</ele><time>2026-05-02T13:02:56.968Z</time></trkpt><trkpt lat="45.6421218" lon="10.9333513"><ele>1003.0</ele><time>2026-05-02T13:02:57.963Z</time></trkpt><trkpt lat="45.6420695" lon="10.9334252"><ele>1003.0</ele><time>2026-05-02T13:02:58.989Z</time></trkpt><trkpt lat="45.6420198" lon="10.9334969"><ele>1002.9999999999999</ele><time>2026-05-02T13:02:59.985Z</time></trkpt><trkpt lat="45.6419732" lon="10.9335641"><ele>1003.0</ele><time>2026-05-02T13:03:00.989Z</time></trkpt><trkpt lat="45.641922" lon="10.9336386"><ele>1002.4999999999999</ele><time>2026-05-02T13:03:01.975Z</time></trkpt><trkpt lat="45.6418677" lon="10.933722"><ele>1002.0</ele><time>2026-05-02T13:03:02.977Z</time></trkpt><trkpt lat="45.6418053" lon="10.9337962"><ele>1001.5</ele><time>2026-05-02T13:03:03.96Z</time></trkpt><trkpt lat="45.6417421" lon="10.9338809"><ele>1001.0</ele><time>2026-05-02T13:03:04.987Z</time></trkpt><trkpt lat="45.641677" lon="10.9339703"><ele>1000.4999999999999</ele><time>2026-05-02T13:03:05.989Z</time></trkpt><trkpt lat="45.6416143" lon="10.9340606"><ele>1000.0</ele><time>2026-05-02T13:03:06.98Z</time></trkpt><trkpt lat="45.6415378" lon="10.9341411"><ele>1000.0</ele><time>2026-05-02T13:03:07.995Z</time></trkpt><trkpt lat="45.6414511" lon="10.9342203"><ele>1000.0</ele><time>2026-05-02T13:03:08.979Z</time></trkpt><trkpt lat="45.6413689" lon="10.9342978"><ele>1000.0</ele><time>2026-05-02T13:03:09.978Z</time></trkpt><trkpt lat="45.6412973" lon="10.9343798"><ele>1000.0</ele><time>2026-05-02T13:03:10.981Z</time></trkpt><trkpt lat="45.6412219" lon="10.9344603"><ele>1000.0</ele><time>2026-05-02T13:03:11.985Z</time></trkpt><trkpt lat="45.6411521" lon="10.9345364"><ele>999.4999999999999</ele><time>2026-05-02T13:03:12.987Z</time></trkpt><trkpt lat="45.6410856" lon="10.9345977"><ele>999.0</ele><time>2026-05-02T13:03:13.981Z</time></trkpt><trkpt lat="45.6410149" lon="10.9346558"><ele>998.5</ele><time>2026-05-02T13:03:14.986Z</time></trkpt><trkpt lat="45.6409425" lon="10.9347119"><ele>998.0</ele><time>2026-05-02T13:03:15.976Z</time></trkpt><trkpt lat="45.6408669" lon="10.9347838"><ele>997.4999999999999</ele><time>2026-05-02T13:03:16.973Z</time></trkpt><trkpt lat="45.6407898" lon="10.9348525"><ele>997.0</ele><time>2026-05-02T13:03:17.98Z</time></trkpt><trkpt lat="45.640718" lon="10.9348917"><ele>996.9999999999999</ele><time>2026-05-02T13:03:18.988Z</time></trkpt><trkpt lat="45.6406491" lon="10.9349182"><ele>997.0</ele><time>2026-05-02T13:03:19.983Z</time></trkpt><trkpt lat="45.6405827" lon="10.9349149"><ele>997.0</ele><time>2026-05-02T13:03:20.991Z</time></trkpt><trkpt lat="45.6405145" lon="10.9348813"><ele>997.0</ele><time>2026-05-02T13:03:21.987Z</time></trkpt><trkpt lat="45.6404417" lon="10.9348335"><ele>996.9999999999999</ele><time>2026-05-02T13:03:22.987Z</time></trkpt><trkpt lat="45.6403502" lon="10.9347861"><ele>997.0</ele><time>2026-05-02T13:03:23.982Z</time></trkpt><trkpt lat="45.640254" lon="10.9347409"><ele>997.25</ele><time>2026-05-02T13:03:24.98Z</time></trkpt><trkpt lat="45.640151" lon="10.9347003"><ele>997.5</ele><time>2026-05-02T13:03:25.973Z</time></trkpt><trkpt lat="45.6400435" lon="10.9346483"><ele>997.75</ele><time>2026-05-02T13:03:26.984Z</time></trkpt><trkpt lat="45.6399285" lon="10.9346063"><ele>998.0</ele><time>2026-05-02T13:03:27.979Z</time></trkpt><trkpt lat="45.6398138" lon="10.9345768"><ele>998.0</ele><time>2026-05-02T13:03:28.979Z</time></trkpt><trkpt lat="45.639708" lon="10.9345652"><ele>998.0</ele><time>2026-05-02T13:03:29.964Z</time></trkpt><trkpt lat="45.6396068" lon="10.934553"><ele>998.0</ele><time>2026-05-02T13:03:30.966Z</time></trkpt><trkpt lat="45.6395105" lon="10.9345264"><ele>998.0</ele><time>2026-05-02T13:03:31.984Z</time></trkpt><trkpt lat="45.639424" lon="10.9344993"><ele>998.0</ele><time>2026-05-02T13:03:32.979Z</time></trkpt><trkpt lat="45.6393409" lon="10.9344723"><ele>998.8333333333334</ele><time>2026-05-02T13:03:33.984Z</time></trkpt><trkpt lat="45.6392668" lon="10.93445"><ele>999.6666666666667</ele><time>2026-05-02T13:03:34.98Z</time></trkpt><trkpt lat="45.6392005" lon="10.9344379"><ele>1000.5</ele><time>2026-05-02T13:03:35.986Z</time></trkpt><trkpt lat="45.6391112" lon="10.9344062"><ele>1001.3333333333333</ele><time>2026-05-02T13:03:37.997Z</time></trkpt><trkpt lat="45.6391164" lon="10.934302"><ele>1002.1666666666666</ele><time>2026-05-02T13:03:41.05Z</time></trkpt><trkpt lat="45.6391739" lon="10.9342165"><ele>1003.0</ele><time>2026-05-02T13:03:42.99Z</time></trkpt><trkpt lat="45.6392218" lon="10.9341465"><ele>1003.8333333333333</ele><time>2026-05-02T13:03:43.979Z</time></trkpt><trkpt lat="45.639268" lon="10.9340618"><ele>1004.6666666666666</ele><time>2026-05-02T13:03:44.977Z</time></trkpt><trkpt lat="45.6393101" lon="10.9339712"><ele>1005.5</ele><time>2026-05-02T13:03:45.979Z</time></trkpt><trkpt lat="45.6393426" lon="10.9338826"><ele>1006.3333333333333</ele><time>2026-05-02T13:03:46.982Z</time></trkpt><trkpt lat="45.6393684" lon="10.9337772"><ele>1007.1666666666666</ele><time>2026-05-02T13:03:48.046Z</time></trkpt><trkpt lat="45.6393867" lon="10.9336565"><ele>1008.0</ele><time>2026-05-02T13:03:49.035Z</time></trkpt><trkpt lat="45.6393989" lon="10.9335272"><ele>1009.5</ele><time>2026-05-02T13:03:49.987Z</time></trkpt><trkpt lat="45.6394028" lon="10.9333858"><ele>1011.0</ele><time>2026-05-02T13:03:50.983Z</time></trkpt><trkpt lat="45.6394055" lon="10.9332201"><ele>1012.5</ele><time>2026-05-02T13:03:51.982Z</time></trkpt><trkpt lat="45.6394154" lon="10.9330362"><ele>1014.0</ele><time>2026-05-02T13:03:52.982Z</time></trkpt><trkpt lat="45.6394285" lon="10.9328593"><ele>1014.0</ele><time>2026-05-02T13:03:53.982Z</time></trkpt><trkpt lat="45.6394538" lon="10.9326695"><ele>1014.0</ele><time>2026-05-02T13:03:54.982Z</time></trkpt><trkpt lat="45.639483" lon="10.9324854"><ele>1014.0</ele><time>2026-05-02T13:03:56.007Z</time></trkpt><trkpt lat="45.6395081" lon="10.9323389"><ele>1014.0</ele><time>2026-05-02T13:03:56.98Z</time></trkpt><trkpt lat="45.6395364" lon="10.9322335"><ele>1015.5714285714286</ele><time>2026-05-02T13:03:57.979Z</time></trkpt><trkpt lat="45.6395781" lon="10.9321467"><ele>1017.1428571428571</ele><time>2026-05-02T13:03:58.977Z</time></trkpt><trkpt lat="45.6396287" lon="10.9320781"><ele>1018.7142857142857</ele><time>2026-05-02T13:03:59.985Z</time></trkpt><trkpt lat="45.6396939" lon="10.9320221"><ele>1020.2857142857142</ele><time>2026-05-02T13:04:00.972Z</time></trkpt><trkpt lat="45.6397628" lon="10.9319722"><ele>1021.8571428571429</ele><time>2026-05-02T13:04:01.998Z</time></trkpt><trkpt lat="45.6398338" lon="10.931943"><ele>1023.4285714285713</ele><time>2026-05-02T13:04:02.986Z</time></trkpt><trkpt lat="45.639904" lon="10.9319014"><ele>1025.0</ele><time>2026-05-02T13:04:03.984Z</time></trkpt><trkpt lat="45.6399725" lon="10.9318542"><ele>1025.0</ele><time>2026-05-02T13:04:04.98Z</time></trkpt><trkpt lat="45.640042" lon="10.9317956"><ele>1025.0</ele><time>2026-05-02T13:04:05.977Z</time></trkpt><trkpt lat="45.6401119" lon="10.9317156"><ele>1025.0</ele><time>2026-05-02T13:04:06.979Z</time></trkpt><trkpt lat="45.6401787" lon="10.9316194"><ele>1025.0</ele><time>2026-05-02T13:04:07.973Z</time></trkpt><trkpt lat="45.6402493" lon="10.9315098"><ele>1025.0</ele><time>2026-05-02T13:04:08.986Z</time></trkpt><trkpt lat="45.6403253" lon="10.9314011"><ele>1025.0</ele><time>2026-05-02T13:04:09.975Z</time></trkpt><trkpt lat="45.6403955" lon="10.9313073"><ele>1025.0</ele><time>2026-05-02T13:04:10.984Z</time></trkpt><trkpt lat="45.6404546" lon="10.9312378"><ele>1025.0</ele><time>2026-05-02T13:04:11.985Z</time></trkpt><trkpt lat="45.6405016" lon="10.9311685"><ele>1025.0</ele><time>2026-05-02T13:04:13.059Z</time></trkpt><trkpt lat="45.6405023" lon="10.9310415"><ele>1025.0</ele><time>2026-05-02T13:04:14.985Z</time></trkpt><trkpt lat="45.6404171" lon="10.9310172"><ele>1025.0</ele><time>2026-05-02T13:04:16.972Z</time></trkpt><trkpt lat="45.6403039" lon="10.931097"><ele>1027.0</ele><time>2026-05-02T13:04:18.979Z</time></trkpt><trkpt lat="45.6402381" lon="10.9311457"><ele>1029.0</ele><time>2026-05-02T13:04:19.987Z</time></trkpt><trkpt lat="45.6401581" lon="10.9311941"><ele>1031.0</ele><time>2026-05-02T13:04:20.987Z</time></trkpt><trkpt lat="45.6400776" lon="10.9312319"><ele>1033.0</ele><time>2026-05-02T13:04:21.973Z</time></trkpt><trkpt lat="45.6399915" lon="10.9312728"><ele>1035.0</ele><time>2026-05-02T13:04:22.98Z</time></trkpt><trkpt lat="45.6399157" lon="10.9313046"><ele>1037.0</ele><time>2026-05-02T13:04:23.982Z</time></trkpt><trkpt lat="45.6398418" lon="10.9313315"><ele>1037.0</ele><time>2026-05-02T13:04:24.988Z</time></trkpt><trkpt lat="45.6397268" lon="10.9313692"><ele>1037.0</ele><time>2026-05-02T13:04:26.982Z</time></trkpt><trkpt lat="45.6396548" lon="10.9313216"><ele>1037.0</ele><time>2026-05-02T13:04:28.983Z</time></trkpt><trkpt lat="45.6396442" lon="10.9311962"><ele>1037.0</ele><time>2026-05-02T13:04:30.984Z</time></trkpt><trkpt lat="45.6396489" lon="10.9310589"><ele>1037.0</ele><time>2026-05-02T13:04:32.976Z</time></trkpt><trkpt lat="45.6396027" lon="10.9309133"><ele>1041.6</ele><time>2026-05-02T13:04:34.987Z</time></trkpt><trkpt lat="45.6395256" lon="10.930801"><ele>1046.2</ele><time>2026-05-02T13:04:36.98Z</time></trkpt><trkpt lat="45.6394769" lon="10.9306839"><ele>1050.8</ele><time>2026-05-02T13:04:38.989Z</time></trkpt><trkpt lat="45.6394735" lon="10.9305239"><ele>1055.4</ele><time>2026-05-02T13:04:40.982Z</time></trkpt><trkpt lat="45.6394918" lon="10.9303772"><ele>1060.0</ele><time>2026-05-02T13:04:42.98Z</time></trkpt><trkpt lat="45.6394768" lon="10.9302453"><ele>1060.4</ele><time>2026-05-02T13:04:44.984Z</time></trkpt><trkpt lat="45.6393959" lon="10.9301945"><ele>1060.8</ele><time>2026-05-02T13:04:46.976Z</time></trkpt><trkpt lat="45.6393047" lon="10.9301742"><ele>1061.2</ele><time>2026-05-02T13:04:48.983Z</time></trkpt><trkpt lat="45.6392033" lon="10.9301139"><ele>1061.6</ele><time>2026-05-02T13:04:50.967Z</time></trkpt><trkpt lat="45.6391056" lon="10.9300256"><ele>1062.0</ele><time>2026-05-02T13:04:52.98Z</time></trkpt><trkpt lat="45.63905" lon="10.9299829"><ele>1062.0</ele><time>2026-05-02T13:04:53.978Z</time></trkpt><trkpt lat="45.6389867" lon="10.9299302"><ele>1062.0</ele><time>2026-05-02T13:04:54.979Z</time></trkpt><trkpt lat="45.6389217" lon="10.9298716"><ele>1062.0</ele><time>2026-05-02T13:04:55.976Z</time></trkpt><trkpt lat="45.6388622" lon="10.9298112"><ele>1062.0</ele><time>2026-05-02T13:04:56.98Z</time></trkpt><trkpt lat="45.6388111" lon="10.9297563"><ele>1062.0</ele><time>2026-05-02T13:04:57.974Z</time></trkpt><trkpt lat="45.6387095" lon="10.9296893"><ele>1062.0</ele><time>2026-05-02T13:04:59.981Z</time></trkpt><trkpt lat="45.6386449" lon="10.9296246"><ele>1059.8333333333333</ele><time>2026-05-02T13:05:01.975Z</time></trkpt><trkpt lat="45.6385792" lon="10.9295736"><ele>1057.6666666666667</ele><time>2026-05-02T13:05:03.975Z</time></trkpt><trkpt lat="45.6384976" lon="10.9295287"><ele>1055.5</ele><time>2026-05-02T13:05:05.972Z</time></trkpt><trkpt lat="45.6384275" lon="10.9294645"><ele>1053.3333333333335</ele><time>2026-05-02T13:05:07.979Z</time></trkpt><trkpt lat="45.6383629" lon="10.9293531"><ele>1051.1666666666667</ele><time>2026-05-02T13:05:09.969Z</time></trkpt><trkpt lat="45.6383201" lon="10.9292204"><ele>1049.0</ele><time>2026-05-02T13:05:11.986Z</time></trkpt><trkpt lat="45.6382755" lon="10.9290743"><ele>1048.6666666666667</ele><time>2026-05-02T13:05:13.979Z</time></trkpt><trkpt lat="45.6382349" lon="10.9290003"><ele>1048.3333333333335</ele><time>2026-05-02T13:05:14.979Z</time></trkpt><trkpt lat="45.6381778" lon="10.9289407"><ele>1048.0</ele><time>2026-05-02T13:05:15.991Z</time></trkpt><trkpt lat="45.6380852" lon="10.9288732"><ele>1047.6666666666667</ele><time>2026-05-02T13:05:17.99Z</time></trkpt><trkpt lat="45.6380061" lon="10.9288036"><ele>1047.3333333333333</ele><time>2026-05-02T13:05:19.972Z</time></trkpt><trkpt lat="45.6379139" lon="10.928754"><ele>1047.0</ele><time>2026-05-02T13:05:21.97Z</time></trkpt><trkpt lat="45.6378009" lon="10.9287139"><ele>1045.6</ele><time>2026-05-02T13:05:23.983Z</time></trkpt><trkpt lat="45.6376856" lon="10.9286917"><ele>1044.2</ele><time>2026-05-02T13:05:25.992Z</time></trkpt><trkpt lat="45.6375825" lon="10.9286915"><ele>1042.8</ele><time>2026-05-02T13:05:27.989Z</time></trkpt><trkpt lat="45.6375045" lon="10.9286822"><ele>1041.4</ele><time>2026-05-02T13:05:29.975Z</time></trkpt><trkpt lat="45.6374136" lon="10.9286471"><ele>1040.0</ele><time>2026-05-02T13:05:32.988Z</time></trkpt><trkpt lat="45.637348" lon="10.9286336"><ele>1040.0</ele><time>2026-05-02T13:05:34.98Z</time></trkpt><trkpt lat="45.637248" lon="10.9286363"><ele>1040.0</ele><time>2026-05-02T13:05:37.009Z</time></trkpt><trkpt lat="45.6371817" lon="10.9286311"><ele>1040.0</ele><time>2026-05-02T13:05:37.986Z</time></trkpt><trkpt lat="45.6371165" lon="10.9286289"><ele>1040.0</ele><time>2026-05-02T13:05:38.989Z</time></trkpt><trkpt lat="45.6370484" lon="10.9286166"><ele>1040.0</ele><time>2026-05-02T13:05:39.985Z</time></trkpt><trkpt lat="45.6369711" lon="10.9286061"><ele>1040.0</ele><time>2026-05-02T13:05:40.991Z</time></trkpt><trkpt lat="45.6368941" lon="10.9285818"><ele>1038.3333333333335</ele><time>2026-05-02T13:05:41.967Z</time></trkpt><trkpt lat="45.6368054" lon="10.9285575"><ele>1036.6666666666667</ele><time>2026-05-02T13:05:42.966Z</time></trkpt><trkpt lat="45.6367194" lon="10.928561"><ele>1035.0</ele><time>2026-05-02T13:05:43.972Z</time></trkpt><trkpt lat="45.6366513" lon="10.9285766"><ele>1033.3333333333333</ele><time>2026-05-02T13:05:44.983Z</time></trkpt><trkpt lat="45.6365805" lon="10.9285835"><ele>1031.6666666666665</ele><time>2026-05-02T13:05:45.998Z</time></trkpt><trkpt lat="45.6365014" lon="10.9285907"><ele>1030.0</ele><time>2026-05-02T13:05:46.991Z</time></trkpt><trkpt lat="45.6364324" lon="10.9286167"><ele>1030.0</ele><time>2026-05-02T13:05:47.985Z</time></trkpt><trkpt lat="45.636365" lon="10.9286478"><ele>1030.0</ele><time>2026-05-02T13:05:48.978Z</time></trkpt><trkpt lat="45.6363047" lon="10.9286757"><ele>1030.0</ele><time>2026-05-02T13:05:49.974Z</time></trkpt><trkpt lat="45.6362399" lon="10.9286963"><ele>1030.0</ele><time>2026-05-02T13:05:50.971Z</time></trkpt><trkpt lat="45.6361727" lon="10.9287015"><ele>1030.0</ele><time>2026-05-02T13:05:51.976Z</time></trkpt><trkpt lat="45.6360988" lon="10.9287032"><ele>1030.0</ele><time>2026-05-02T13:05:52.975Z</time></trkpt><trkpt lat="45.6360181" lon="10.928703"><ele>1030.0</ele><time>2026-05-02T13:05:53.976Z</time></trkpt><trkpt lat="45.6359305" lon="10.9286925"><ele>1027.857142857143</ele><time>2026-05-02T13:05:54.984Z</time></trkpt><trkpt lat="45.6358474" lon="10.9286819"><ele>1025.7142857142858</ele><time>2026-05-02T13:05:55.967Z</time></trkpt><trkpt lat="45.6357699" lon="10.928665"><ele>1023.5714285714286</ele><time>2026-05-02T13:05:56.989Z</time></trkpt><trkpt lat="45.6357014" lon="10.9286533"><ele>1021.4285714285714</ele><time>2026-05-02T13:05:57.985Z</time></trkpt><trkpt lat="45.6356352" lon="10.928634"><ele>1019.2857142857142</ele><time>2026-05-02T13:05:58.976Z</time></trkpt><trkpt lat="45.6355622" lon="10.928621"><ele>1017.1428571428571</ele><time>2026-05-02T13:05:59.983Z</time></trkpt><trkpt lat="45.6354933" lon="10.9286228"><ele>1015.0</ele><time>2026-05-02T13:06:00.994Z</time></trkpt><trkpt lat="45.6353772" lon="10.9286693"><ele>1011.2</ele><time>2026-05-02T13:06:02.978Z</time></trkpt><trkpt lat="45.6352679" lon="10.928681"><ele>1007.4</ele><time>2026-05-02T13:06:04.959Z</time></trkpt><trkpt lat="45.6351406" lon="10.9286704"><ele>1003.5999999999999</ele><time>2026-05-02T13:06:06.973Z</time></trkpt><trkpt lat="45.6350742" lon="10.9286714"><ele>999.8</ele><time>2026-05-02T13:06:07.983Z</time></trkpt><trkpt lat="45.6349654" lon="10.9286742"><ele>996.0</ele><time>2026-05-02T13:06:09.987Z</time></trkpt><trkpt lat="45.6348427" lon="10.9286877"><ele>996.0</ele><time>2026-05-02T13:06:11.989Z</time></trkpt><trkpt lat="45.6347141" lon="10.92871"><ele>996.0</ele><time>2026-05-02T13:06:13.977Z</time></trkpt><trkpt lat="45.6346497" lon="10.9287297"><ele>996.0</ele><time>2026-05-02T13:06:14.989Z</time></trkpt><trkpt lat="45.6345799" lon="10.928739"><ele>996.0</ele><time>2026-05-02T13:06:15.971Z</time></trkpt><trkpt lat="45.6345026" lon="10.9287367"><ele>996.0</ele><time>2026-05-02T13:06:16.967Z</time></trkpt><trkpt lat="45.6344283" lon="10.9287104"><ele>996.0</ele><time>2026-05-02T13:06:17.977Z</time></trkpt><trkpt lat="45.6343521" lon="10.9286683"><ele>993.5999999999999</ele><time>2026-05-02T13:06:18.983Z</time></trkpt><trkpt lat="45.6342766" lon="10.9286134"><ele>991.1999999999999</ele><time>2026-05-02T13:06:19.969Z</time></trkpt><trkpt lat="45.6342065" lon="10.9285475"><ele>988.8000000000001</ele><time>2026-05-02T13:06:20.98Z</time></trkpt><trkpt lat="45.634124" lon="10.928487"><ele>986.4000000000001</ele><time>2026-05-02T13:06:21.979Z</time></trkpt><trkpt lat="45.6340409" lon="10.9283872"><ele>984.0</ele><time>2026-05-02T13:06:22.989Z</time></trkpt><trkpt lat="45.6339538" lon="10.9282668"><ele>984.0</ele><time>2026-05-02T13:06:23.973Z</time></trkpt><trkpt lat="45.6338726" lon="10.9281384"><ele>984.0</ele><time>2026-05-02T13:06:24.978Z</time></trkpt><trkpt lat="45.6337984" lon="10.9280104"><ele>984.0</ele><time>2026-05-02T13:06:25.979Z</time></trkpt><trkpt lat="45.6337311" lon="10.9278717"><ele>984.0</ele><time>2026-05-02T13:06:26.986Z</time></trkpt><trkpt lat="45.6336755" lon="10.9277282"><ele>982.8000000000001</ele><time>2026-05-02T13:06:27.983Z</time></trkpt><trkpt lat="45.6336235" lon="10.9275988"><ele>981.6000000000001</ele><time>2026-05-02T13:06:28.983Z</time></trkpt><trkpt lat="45.6335693" lon="10.9274712"><ele>980.4</ele><time>2026-05-02T13:06:29.977Z</time></trkpt><trkpt lat="45.633514" lon="10.9273551"><ele>979.2</ele><time>2026-05-02T13:06:30.973Z</time></trkpt><trkpt lat="45.6334509" lon="10.9272574"><ele>978.0</ele><time>2026-05-02T13:06:31.978Z</time></trkpt><trkpt lat="45.633381" lon="10.9271721"><ele>978.0</ele><time>2026-05-02T13:06:32.967Z</time></trkpt><trkpt lat="45.6333172" lon="10.9270939"><ele>978.0</ele><time>2026-05-02T13:06:33.985Z</time></trkpt><trkpt lat="45.6332638" lon="10.9270199"><ele>978.0</ele><time>2026-05-02T13:06:34.98Z</time></trkpt><trkpt lat="45.6332178" lon="10.9269409"><ele>978.0</ele><time>2026-05-02T13:06:35.987Z</time></trkpt><trkpt lat="45.6331748" lon="10.9268557"><ele>978.0</ele><time>2026-05-02T13:06:36.983Z</time></trkpt><trkpt lat="45.6331131" lon="10.9267893"><ele>978.0</ele><time>2026-05-02T13:06:37.977Z</time></trkpt><trkpt lat="45.6329907" lon="10.9267282"><ele>978.0</ele><time>2026-05-02T13:06:39.992Z</time></trkpt><trkpt lat="45.6329053" lon="10.9267039"><ele>978.0</ele><time>2026-05-02T13:06:40.998Z</time></trkpt><trkpt lat="45.6328103" lon="10.9266564"><ele>978.0</ele><time>2026-05-02T13:06:41.977Z</time></trkpt><trkpt lat="45.6327093" lon="10.9265974"><ele>978.0</ele><time>2026-05-02T13:06:42.976Z</time></trkpt><trkpt lat="45.6326102" lon="10.9265319"><ele>978.0</ele><time>2026-05-02T13:06:43.979Z</time></trkpt><trkpt lat="45.632505" lon="10.9265009"><ele>976.5999999999999</ele><time>2026-05-02T13:06:44.986Z</time></trkpt><trkpt lat="45.6324041" lon="10.9264713"><ele>975.1999999999999</ele><time>2026-05-02T13:06:45.98Z</time></trkpt><trkpt lat="45.632311" lon="10.9264082"><ele>973.8</ele><time>2026-05-02T13:06:46.992Z</time></trkpt><trkpt lat="45.6322307" lon="10.9263253"><ele>972.4</ele><time>2026-05-02T13:06:47.988Z</time></trkpt><trkpt lat="45.6321573" lon="10.9262326"><ele>971.0</ele><time>2026-05-02T13:06:48.981Z</time></trkpt><trkpt lat="45.6320898" lon="10.9261356"><ele>971.0000000000001</ele><time>2026-05-02T13:06:49.992Z</time></trkpt><trkpt lat="45.632028" lon="10.9260513"><ele>971.0</ele><time>2026-05-02T13:06:50.987Z</time></trkpt><trkpt lat="45.6319687" lon="10.9259811"><ele>971.0</ele><time>2026-05-02T13:06:51.989Z</time></trkpt><trkpt lat="45.6319025" lon="10.9259327"><ele>971.0</ele><time>2026-05-02T13:06:52.996Z</time></trkpt><trkpt lat="45.6318405" lon="10.9259041"><ele>971.0000000000001</ele><time>2026-05-02T13:06:53.982Z</time></trkpt><trkpt lat="45.6317698" lon="10.9258953"><ele>971.0</ele><time>2026-05-02T13:06:54.991Z</time></trkpt><trkpt lat="45.6316476" lon="10.925885"><ele>969.3333333333334</ele><time>2026-05-02T13:06:56.98Z</time></trkpt><trkpt lat="45.6315414" lon="10.9258519"><ele>967.6666666666667</ele><time>2026-05-02T13:06:58.984Z</time></trkpt><trkpt lat="45.6314559" lon="10.9257586"><ele>966.0</ele><time>2026-05-02T13:07:00.981Z</time></trkpt><trkpt lat="45.6314087" lon="10.9256833"><ele>964.3333333333333</ele><time>2026-05-02T13:07:02.986Z</time></trkpt><trkpt lat="45.6313723" lon="10.9255794"><ele>962.6666666666666</ele><time>2026-05-02T13:07:05.989Z</time></trkpt><trkpt lat="45.63132" lon="10.9255117"><ele>961.0</ele><time>2026-05-02T13:07:07.988Z</time></trkpt><trkpt lat="45.631253" lon="10.9254515"><ele>961.0</ele><time>2026-05-02T13:07:09.979Z</time></trkpt><trkpt lat="45.6311799" lon="10.9253805"><ele>960.9999999999999</ele><time>2026-05-02T13:07:11.984Z</time></trkpt><trkpt lat="45.6310734" lon="10.9252573"><ele>960.9999999999999</ele><time>2026-05-02T13:07:13.978Z</time></trkpt><trkpt lat="45.6310141" lon="10.9251881"><ele>961.0</ele><time>2026-05-02T13:07:14.983Z</time></trkpt><trkpt lat="45.6309544" lon="10.9251327"><ele>961.0</ele><time>2026-05-02T13:07:15.993Z</time></trkpt><trkpt lat="45.6308538" lon="10.925036"><ele>958.4999999999999</ele><time>2026-05-02T13:07:17.987Z</time></trkpt><trkpt lat="45.630766" lon="10.924951"><ele>956.0</ele><time>2026-05-02T13:07:19.993Z</time></trkpt><trkpt lat="45.630726" lon="10.9248665"><ele>953.5</ele><time>2026-05-02T13:07:21.985Z</time></trkpt><trkpt lat="45.6307011" lon="10.9247595"><ele>951.0</ele><time>2026-05-02T13:07:24.99Z</time></trkpt><trkpt lat="45.630672" lon="10.9246542"><ele>948.4999999999999</ele><time>2026-05-02T13:07:27.979Z</time></trkpt><trkpt lat="45.6306153" lon="10.9245851"><ele>946.0</ele><time>2026-05-02T13:07:30.987Z</time></trkpt><trkpt lat="45.6305275" lon="10.9245439"><ele>945.9999999999999</ele><time>2026-05-02T13:07:33.987Z</time></trkpt><trkpt lat="45.6304378" lon="10.9245253"><ele>946.0</ele><time>2026-05-02T13:07:36.986Z</time></trkpt><trkpt lat="45.6303699" lon="10.924488"><ele>946.0</ele><time>2026-05-02T13:07:39.98Z</time></trkpt><trkpt lat="45.6302835" lon="10.9244015"><ele>946.0</ele><time>2026-05-02T13:07:45.986Z</time></trkpt><trkpt lat="45.6301949" lon="10.924381"><ele>945.9999999999999</ele><time>2026-05-02T13:07:48.987Z</time></trkpt><trkpt lat="45.6301224" lon="10.9243752"><ele>946.0</ele><time>2026-05-02T13:07:51.981Z</time></trkpt><trkpt lat="45.630049" lon="10.9243732"><ele>943.8333333333333</ele><time>2026-05-02T13:07:54.979Z</time></trkpt><trkpt lat="45.629976" lon="10.92437"><ele>941.6666666666666</ele><time>2026-05-02T13:07:57.967Z</time></trkpt><trkpt lat="45.6298862" lon="10.9243629"><ele>939.5</ele><time>2026-05-02T13:08:00.953Z</time></trkpt><trkpt lat="45.6297932" lon="10.9243157"><ele>937.3333333333333</ele><time>2026-05-02T13:08:03.972Z</time></trkpt><trkpt lat="45.6297446" lon="10.9242483"><ele>935.1666666666666</ele><time>2026-05-02T13:08:05.981Z</time></trkpt><trkpt lat="45.6297024" lon="10.9241795"><ele>933.0</ele><time>2026-05-02T13:08:07.982Z</time></trkpt><trkpt lat="45.6296623" lon="10.9240633"><ele>933.0</ele><time>2026-05-02T13:08:10.973Z</time></trkpt><trkpt lat="45.629615" lon="10.9239785"><ele>932.9999999999999</ele><time>2026-05-02T13:08:13.991Z</time></trkpt><trkpt lat="45.6295566" lon="10.9239191"><ele>933.0</ele><time>2026-05-02T13:08:15.986Z</time></trkpt><trkpt lat="45.6295018" lon="10.9238545"><ele>933.0</ele><time>2026-05-02T13:08:17.985Z</time></trkpt><trkpt lat="45.6294372" lon="10.9238227"><ele>932.9999999999999</ele><time>2026-05-02T13:08:19.986Z</time></trkpt><trkpt lat="45.6293716" lon="10.9237907"><ele>933.0</ele><time>2026-05-02T13:08:21.983Z</time></trkpt><trkpt lat="45.6292977" lon="10.9237488"><ele>933.0</ele><time>2026-05-02T13:08:23.98Z</time></trkpt><trkpt lat="45.6292104" lon="10.9237049"><ele>930.0</ele><time>2026-05-02T13:08:25.984Z</time></trkpt><trkpt lat="45.6291151" lon="10.9236649"><ele>927.0</ele><time>2026-05-02T13:08:27.982Z</time></trkpt><trkpt lat="45.6290253" lon="10.9236276"><ele>924.0</ele><time>2026-05-02T13:08:29.98Z</time></trkpt><trkpt lat="45.6289522" lon="10.9236084"><ele>921.0</ele><time>2026-05-02T13:08:31.986Z</time></trkpt><trkpt lat="45.6288854" lon="10.9235846"><ele>918.0</ele><time>2026-05-02T13:08:33.971Z</time></trkpt><trkpt lat="45.6288033" lon="10.9235441"><ele>915.0</ele><time>2026-05-02T13:08:35.985Z</time></trkpt><trkpt lat="45.6287185" lon="10.9234952"><ele>915.0</ele><time>2026-05-02T13:08:37.979Z</time></trkpt><trkpt lat="45.6286499" lon="10.9234468"><ele>915.0</ele><time>2026-05-02T13:08:39.989Z</time></trkpt><trkpt lat="45.6285593" lon="10.9234079"><ele>915.0</ele><time>2026-05-02T13:08:42.991Z</time></trkpt><trkpt lat="45.6284964" lon="10.9234292"><ele>915.0</ele><time>2026-05-02T13:08:44.963Z</time></trkpt><trkpt lat="45.6284048" lon="10.9234521"><ele>915.0</ele><time>2026-05-02T13:08:48.059Z</time></trkpt><trkpt lat="45.628325" lon="10.9234262"><ele>915.0</ele><time>2026-05-02T13:08:50.03Z</time></trkpt><trkpt lat="45.6282445" lon="10.9234014"><ele>911.8333333333334</ele><time>2026-05-02T13:08:51.978Z</time></trkpt><trkpt lat="45.6281617" lon="10.9233546"><ele>908.6666666666667</ele><time>2026-05-02T13:08:53.969Z</time></trkpt><trkpt lat="45.628084" lon="10.9232851"><ele>905.5</ele><time>2026-05-02T13:08:55.977Z</time></trkpt><trkpt lat="45.6279952" lon="10.9232121"><ele>902.3333333333334</ele><time>2026-05-02T13:08:57.971Z</time></trkpt><trkpt lat="45.6279236" lon="10.9231261"><ele>899.1666666666667</ele><time>2026-05-02T13:08:59.974Z</time></trkpt><trkpt lat="45.6278687" lon="10.9230811"><ele>896.0</ele><time>2026-05-02T13:09:01.976Z</time></trkpt><trkpt lat="45.6277522" lon="10.9229888"><ele>893.8333333333334</ele><time>2026-05-02T13:09:48.965Z</time></trkpt><trkpt lat="45.6276507" lon="10.9228926"><ele>891.6666666666667</ele><time>2026-05-02T13:11:03.968Z</time></trkpt><trkpt lat="45.6275787" lon="10.9228551"><ele>889.5</ele><time>2026-05-02T13:11:08.978Z</time></trkpt><trkpt lat="45.6275484" lon="10.9227614"><ele>887.3333333333333</ele><time>2026-05-02T13:11:10.981Z</time></trkpt><trkpt lat="45.6275184" lon="10.9226746"><ele>885.1666666666666</ele><time>2026-05-02T13:11:12.981Z</time></trkpt><trkpt lat="45.6274911" lon="10.9225884"><ele>883.0</ele><time>2026-05-02T13:11:14.976Z</time></trkpt><trkpt lat="45.6274254" lon="10.9225006"><ele>882.1666666666666</ele><time>2026-05-02T13:11:17Z</time></trkpt><trkpt lat="45.6273578" lon="10.9224386"><ele>881.3333333333333</ele><time>2026-05-02T13:11:17.983Z</time></trkpt><trkpt lat="45.6272914" lon="10.9223714"><ele>880.5</ele><time>2026-05-02T13:11:18.985Z</time></trkpt><trkpt lat="45.6272313" lon="10.9223144"><ele>879.6666666666667</ele><time>2026-05-02T13:11:19.981Z</time></trkpt><trkpt lat="45.6271705" lon="10.9222564"><ele>878.8333333333334</ele><time>2026-05-02T13:11:20.977Z</time></trkpt><trkpt lat="45.6271046" lon="10.9221828"><ele>878.0</ele><time>2026-05-02T13:11:21.979Z</time></trkpt><trkpt lat="45.6270447" lon="10.9221107"><ele>878.0000000000001</ele><time>2026-05-02T13:11:22.988Z</time></trkpt><trkpt lat="45.6269812" lon="10.9220462"><ele>878.0</ele><time>2026-05-02T13:11:23.973Z</time></trkpt><trkpt lat="45.6269108" lon="10.9219896"><ele>878.0</ele><time>2026-05-02T13:11:24.98Z</time></trkpt><trkpt lat="45.6268379" lon="10.9219383"><ele>878.0</ele><time>2026-05-02T13:11:25.982Z</time></trkpt><trkpt lat="45.6267629" lon="10.9218844"><ele>878.0000000000001</ele><time>2026-05-02T13:11:26.981Z</time></trkpt><trkpt lat="45.6266929" lon="10.9218455"><ele>878.0</ele><time>2026-05-02T13:11:27.983Z</time></trkpt><trkpt lat="45.6266227" lon="10.9217928"><ele>876.4285714285714</ele><time>2026-05-02T13:11:28.989Z</time></trkpt><trkpt lat="45.6265566" lon="10.9217324"><ele>874.8571428571429</ele><time>2026-05-02T13:11:29.981Z</time></trkpt><trkpt lat="45.6264999" lon="10.9216672"><ele>873.2857142857142</ele><time>2026-05-02T13:11:30.962Z</time></trkpt><trkpt lat="45.6264432" lon="10.9216104"><ele>871.7142857142858</ele><time>2026-05-02T13:11:31.959Z</time></trkpt><trkpt lat="45.6263741" lon="10.9215631"><ele>870.1428571428572</ele><time>2026-05-02T13:11:32.96Z</time></trkpt><trkpt lat="45.6263151" lon="10.9215062"><ele>868.5714285714286</ele><time>2026-05-02T13:11:33.977Z</time></trkpt><trkpt lat="45.6262598" lon="10.9214455"><ele>867.0</ele><time>2026-05-02T13:11:34.962Z</time></trkpt><trkpt lat="45.6262092" lon="10.921381"><ele>864.6</ele><time>2026-05-02T13:11:35.983Z</time></trkpt><trkpt lat="45.626098" lon="10.9213236"><ele>862.2</ele><time>2026-05-02T13:11:37.986Z</time></trkpt><trkpt lat="45.6259874" lon="10.9213697"><ele>859.8</ele><time>2026-05-02T13:11:39.981Z</time></trkpt><trkpt lat="45.6258825" lon="10.9214741"><ele>857.4</ele><time>2026-05-02T13:11:41.977Z</time></trkpt><trkpt lat="45.6258361" lon="10.9215371"><ele>855.0</ele><time>2026-05-02T13:11:42.996Z</time></trkpt><trkpt lat="45.625783" lon="10.9215959"><ele>855.0</ele><time>2026-05-02T13:11:43.985Z</time></trkpt><trkpt lat="45.6257263" lon="10.9216417"><ele>855.0</ele><time>2026-05-02T13:11:44.989Z</time></trkpt><trkpt lat="45.6256616" lon="10.9216508"><ele>855.0</ele><time>2026-05-02T13:11:45.981Z</time></trkpt><trkpt lat="45.6255839" lon="10.9216221"><ele>855.0</ele><time>2026-05-02T13:11:46.986Z</time></trkpt><trkpt lat="45.6254989" lon="10.9215896"><ele>855.0</ele><time>2026-05-02T13:11:47.982Z</time></trkpt><trkpt lat="45.6254108" lon="10.9215653"><ele>855.0</ele><time>2026-05-02T13:11:48.983Z</time></trkpt><trkpt lat="45.6253174" lon="10.9215495"><ele>853.2</ele><time>2026-05-02T13:11:49.984Z</time></trkpt><trkpt lat="45.625228" lon="10.9215287"><ele>851.4</ele><time>2026-05-02T13:11:50.994Z</time></trkpt><trkpt lat="45.625137" lon="10.9215015"><ele>849.5999999999999</ele><time>2026-05-02T13:11:51.985Z</time></trkpt><trkpt lat="45.6250466" lon="10.9214829"><ele>847.8</ele><time>2026-05-02T13:11:52.982Z</time></trkpt><trkpt lat="45.6249551" lon="10.9214519"><ele>846.0</ele><time>2026-05-02T13:11:53.98Z</time></trkpt><trkpt lat="45.6248664" lon="10.9214378"><ele>846.0</ele><time>2026-05-02T13:11:54.985Z</time></trkpt><trkpt lat="45.6247771" lon="10.9214249"><ele>846.0</ele><time>2026-05-02T13:11:55.978Z</time></trkpt><trkpt lat="45.6246826" lon="10.921417"><ele>846.0</ele><time>2026-05-02T13:11:56.997Z</time></trkpt><trkpt lat="45.624584" lon="10.9213981"><ele>846.0</ele><time>2026-05-02T13:11:57.984Z</time></trkpt><trkpt lat="45.6244775" lon="10.9213951"><ele>846.0</ele><time>2026-05-02T13:11:58.98Z</time></trkpt><trkpt lat="45.6243754" lon="10.9213987"><ele>843.6666666666666</ele><time>2026-05-02T13:11:59.974Z</time></trkpt><trkpt lat="45.6242747" lon="10.9214044"><ele>841.3333333333333</ele><time>2026-05-02T13:12:00.975Z</time></trkpt><trkpt lat="45.6241754" lon="10.9214155"><ele>839.0</ele><time>2026-05-02T13:12:01.987Z</time></trkpt><trkpt lat="45.6240916" lon="10.9214142"><ele>836.6666666666666</ele><time>2026-05-02T13:12:02.975Z</time></trkpt><trkpt lat="45.6240118" lon="10.9213906"><ele>834.3333333333333</ele><time>2026-05-02T13:12:03.983Z</time></trkpt><trkpt lat="45.6239362" lon="10.921351"><ele>832.0</ele><time>2026-05-02T13:12:04.979Z</time></trkpt><trkpt lat="45.6238701" lon="10.9212877"><ele>832.0</ele><time>2026-05-02T13:12:05.981Z</time></trkpt><trkpt lat="45.6237994" lon="10.9211939"><ele>832.0</ele><time>2026-05-02T13:12:06.99Z</time></trkpt><trkpt lat="45.6237304" lon="10.921094"><ele>832.0</ele><time>2026-05-02T13:12:07.984Z</time></trkpt><trkpt lat="45.6236531" lon="10.920997"><ele>832.0</ele><time>2026-05-02T13:12:08.987Z</time></trkpt><trkpt lat="45.6235714" lon="10.9209127"><ele>832.0</ele><time>2026-05-02T13:12:09.978Z</time></trkpt><trkpt lat="45.6234836" lon="10.9208453"><ele>828.4000000000001</ele><time>2026-05-02T13:12:10.98Z</time></trkpt><trkpt lat="45.6233986" lon="10.9207712"><ele>824.8000000000001</ele><time>2026-05-02T13:12:11.984Z</time></trkpt><trkpt lat="45.6233191" lon="10.9206758"><ele>821.2</ele><time>2026-05-02T13:12:12.983Z</time></trkpt><trkpt lat="45.6232543" lon="10.9205708"><ele>817.6</ele><time>2026-05-02T13:12:13.982Z</time></trkpt><trkpt lat="45.6231916" lon="10.9204556"><ele>814.0</ele><time>2026-05-02T13:12:14.984Z</time></trkpt><trkpt lat="45.623134" lon="10.9203394"><ele>813.9999999999999</ele><time>2026-05-02T13:12:15.987Z</time></trkpt><trkpt lat="45.6230921" lon="10.920252"><ele>814.0</ele><time>2026-05-02T13:12:16.99Z</time></trkpt><trkpt lat="45.6230571" lon="10.9201139"><ele>814.0</ele><time>2026-05-02T13:12:18.981Z</time></trkpt><trkpt lat="45.6230653" lon="10.920021"><ele>814.0</ele><time>2026-05-02T13:12:20.976Z</time></trkpt><trkpt lat="45.6231297" lon="10.9199232"><ele>813.9999999999999</ele><time>2026-05-02T13:12:22.981Z</time></trkpt><trkpt lat="45.6232026" lon="10.9198666"><ele>814.0</ele><time>2026-05-02T13:12:24.978Z</time></trkpt><trkpt lat="45.6232566" lon="10.9197777"><ele>813.2</ele><time>2026-05-02T13:12:26.975Z</time></trkpt><trkpt lat="45.6232691" lon="10.9196882"><ele>812.4000000000001</ele><time>2026-05-02T13:12:28.969Z</time></trkpt><trkpt lat="45.6232912" lon="10.9195798"><ele>811.6</ele><time>2026-05-02T13:19:17.963Z</time></trkpt><trkpt lat="45.6233265" lon="10.9193742"><ele>810.8</ele><time>2026-05-02T13:19:19.961Z</time></trkpt><trkpt lat="45.6233463" lon="10.9192431"><ele>810.0</ele><time>2026-05-02T13:19:20.969Z</time></trkpt><trkpt lat="45.6233724" lon="10.9191059"><ele>809.4</ele><time>2026-05-02T13:19:21.968Z</time></trkpt><trkpt lat="45.6234201" lon="10.9189856"><ele>808.8</ele><time>2026-05-02T13:19:22.986Z</time></trkpt><trkpt lat="45.6234933" lon="10.9188943"><ele>808.2</ele><time>2026-05-02T13:19:23.982Z</time></trkpt><trkpt lat="45.6235825" lon="10.9188241"><ele>807.6</ele><time>2026-05-02T13:19:24.97Z</time></trkpt><trkpt lat="45.6236825" lon="10.9187735"><ele>807.0</ele><time>2026-05-02T13:19:25.968Z</time></trkpt><trkpt lat="45.6237841" lon="10.9187326"><ele>809.4000000000001</ele><time>2026-05-02T13:19:26.974Z</time></trkpt><trkpt lat="45.6238961" lon="10.9187001"><ele>811.8000000000001</ele><time>2026-05-02T13:19:27.973Z</time></trkpt><trkpt lat="45.6240098" lon="10.9186785"><ele>814.2</ele><time>2026-05-02T13:19:28.974Z</time></trkpt><trkpt lat="45.6241144" lon="10.9186712"><ele>816.6</ele><time>2026-05-02T13:19:29.961Z</time></trkpt><trkpt lat="45.6242085" lon="10.9186508"><ele>819.0</ele><time>2026-05-02T13:19:30.969Z</time></trkpt><trkpt lat="45.6242823" lon="10.9186038"><ele>819.0</ele><time>2026-05-02T13:19:31.97Z</time></trkpt><trkpt lat="45.6243286" lon="10.918523"><ele>819.0</ele><time>2026-05-02T13:19:32.969Z</time></trkpt><trkpt lat="45.6243457" lon="10.9184197"><ele>819.0</ele><time>2026-05-02T13:19:33.962Z</time></trkpt><trkpt lat="45.6243422" lon="10.9182744"><ele>819.0</ele><time>2026-05-02T13:19:34.96Z</time></trkpt><trkpt lat="45.6243535" lon="10.9181105"><ele>819.0</ele><time>2026-05-02T13:19:35.972Z</time></trkpt><trkpt lat="45.6243768" lon="10.9179472"><ele>819.6</ele><time>2026-05-02T13:19:36.982Z</time></trkpt><trkpt lat="45.6244105" lon="10.9177888"><ele>820.2</ele><time>2026-05-02T13:19:37.966Z</time></trkpt><trkpt lat="45.6244557" lon="10.9176378"><ele>820.8000000000001</ele><time>2026-05-02T13:19:38.962Z</time></trkpt><trkpt lat="45.624499" lon="10.9174979"><ele>821.4000000000001</ele><time>2026-05-02T13:19:39.979Z</time></trkpt><trkpt lat="45.6245343" lon="10.9173765"><ele>822.0</ele><time>2026-05-02T13:19:40.957Z</time></trkpt><trkpt lat="45.6245624" lon="10.9172767"><ele>822.0</ele><time>2026-05-02T13:19:41.967Z</time></trkpt><trkpt lat="45.6245842" lon="10.9171794"><ele>822.0</ele><time>2026-05-02T13:19:42.975Z</time></trkpt><trkpt lat="45.6246128" lon="10.9170866"><ele>822.0</ele><time>2026-05-02T13:19:43.975Z</time></trkpt><trkpt lat="45.6246447" lon="10.9169955"><ele>822.0</ele><time>2026-05-02T13:19:44.973Z</time></trkpt><trkpt lat="45.6246771" lon="10.9168906"><ele>822.0</ele><time>2026-05-02T13:19:45.966Z</time></trkpt><trkpt lat="45.6247226" lon="10.9167767"><ele>822.0</ele><time>2026-05-02T13:19:46.978Z</time></trkpt><trkpt lat="45.6247809" lon="10.9166481"><ele>820.5</ele><time>2026-05-02T13:19:47.976Z</time></trkpt><trkpt lat="45.624847" lon="10.9165093"><ele>819.0</ele><time>2026-05-02T13:19:48.979Z</time></trkpt><trkpt lat="45.6249131" lon="10.9163662"><ele>817.5</ele><time>2026-05-02T13:19:49.961Z</time></trkpt><trkpt lat="45.6249591" lon="10.9162062"><ele>816.0</ele><time>2026-05-02T13:19:50.967Z</time></trkpt><trkpt lat="45.6249886" lon="10.9160405"><ele>816.0</ele><time>2026-05-02T13:19:51.954Z</time></trkpt><trkpt lat="45.62502" lon="10.9158693"><ele>816.0</ele><time>2026-05-02T13:19:52.965Z</time></trkpt><trkpt lat="45.6250406" lon="10.9157108"><ele>816.0</ele><time>2026-05-02T13:19:53.967Z</time></trkpt><trkpt lat="45.6250735" lon="10.9155628"><ele>816.0</ele><time>2026-05-02T13:19:54.967Z</time></trkpt><trkpt lat="45.6251145" lon="10.9154142"><ele>816.0</ele><time>2026-05-02T13:19:55.969Z</time></trkpt><trkpt lat="45.6251656" lon="10.9152598"><ele>816.0</ele><time>2026-05-02T13:19:56.975Z</time></trkpt><trkpt lat="45.6252275" lon="10.9151088"><ele>816.0</ele><time>2026-05-02T13:19:57.966Z</time></trkpt><trkpt lat="45.62528" lon="10.9149579"><ele>816.0</ele><time>2026-05-02T13:19:58.97Z</time></trkpt><trkpt lat="45.6253204" lon="10.9148093"><ele>818.4</ele><time>2026-05-02T13:19:59.968Z</time></trkpt><trkpt lat="45.6253411" lon="10.9146606"><ele>820.8</ele><time>2026-05-02T13:20:00.959Z</time></trkpt><trkpt lat="45.6253529" lon="10.9145026"><ele>823.1999999999999</ele><time>2026-05-02T13:20:01.965Z</time></trkpt><trkpt lat="45.6253508" lon="10.9143386"><ele>825.5999999999999</ele><time>2026-05-02T13:20:02.967Z</time></trkpt><trkpt lat="45.6253469" lon="10.9141738"><ele>828.0</ele><time>2026-05-02T13:20:03.974Z</time></trkpt><trkpt lat="45.6253396" lon="10.9140277"><ele>828.2</ele><time>2026-05-02T13:20:04.967Z</time></trkpt><trkpt lat="45.6253208" lon="10.9138998"><ele>828.4</ele><time>2026-05-02T13:20:05.977Z</time></trkpt><trkpt lat="45.625278" lon="10.9137696"><ele>828.6</ele><time>2026-05-02T13:20:06.964Z</time></trkpt><trkpt lat="45.6252196" lon="10.9136563"><ele>828.8000000000001</ele><time>2026-05-02T13:20:07.967Z</time></trkpt><trkpt lat="45.6251496" lon="10.9135655"><ele>829.0</ele><time>2026-05-02T13:20:08.977Z</time></trkpt><trkpt lat="45.6250702" lon="10.9134638"><ele>828.75</ele><time>2026-05-02T13:20:09.966Z</time></trkpt><trkpt lat="45.6249759" lon="10.913357"><ele>828.5</ele><time>2026-05-02T13:20:10.979Z</time></trkpt><trkpt lat="45.6248911" lon="10.9132205"><ele>828.25</ele><time>2026-05-02T13:20:11.968Z</time></trkpt><trkpt lat="45.6248212" lon="10.9130711"><ele>828.0</ele><time>2026-05-02T13:20:12.967Z</time></trkpt><trkpt lat="45.6247576" lon="10.9129021"><ele>828.0</ele><time>2026-05-02T13:20:13.97Z</time></trkpt><trkpt lat="45.6246975" lon="10.9127284"><ele>828.0</ele><time>2026-05-02T13:20:14.964Z</time></trkpt><trkpt lat="45.6246269" lon="10.9125681"><ele>828.0</ele><time>2026-05-02T13:20:15.972Z</time></trkpt><trkpt lat="45.6245391" lon="10.9124379"><ele>828.0</ele><time>2026-05-02T13:20:16.95Z</time></trkpt><trkpt lat="45.624452" lon="10.9123279"><ele>826.8</ele><time>2026-05-02T13:20:17.964Z</time></trkpt><trkpt lat="45.6243764" lon="10.9122287"><ele>825.5999999999999</ele><time>2026-05-02T13:20:18.964Z</time></trkpt><trkpt lat="45.6243205" lon="10.9121205"><ele>824.4000000000001</ele><time>2026-05-02T13:20:19.972Z</time></trkpt><trkpt lat="45.6242783" lon="10.9120105"><ele>823.2</ele><time>2026-05-02T13:20:20.964Z</time></trkpt><trkpt lat="45.6242357" lon="10.9118917"><ele>822.0</ele><time>2026-05-02T13:20:21.962Z</time></trkpt><trkpt lat="45.6241769" lon="10.9117565"><ele>826.0</ele><time>2026-05-02T13:20:22.965Z</time></trkpt><trkpt lat="45.6241134" lon="10.9116232"><ele>830.0</ele><time>2026-05-02T13:20:23.976Z</time></trkpt><trkpt lat="45.6240485" lon="10.9114932"><ele>834.0</ele><time>2026-05-02T13:20:24.961Z</time></trkpt><trkpt lat="45.6239801" lon="10.9113503"><ele>838.0</ele><time>2026-05-02T13:20:25.968Z</time></trkpt><trkpt lat="45.6239184" lon="10.9112177"><ele>838.0</ele><time>2026-05-02T13:20:26.971Z</time></trkpt><trkpt lat="45.6238557" lon="10.9110954"><ele>838.0</ele><time>2026-05-02T13:20:27.971Z</time></trkpt><trkpt lat="45.623781" lon="10.9109936"><ele>838.0</ele><time>2026-05-02T13:20:28.975Z</time></trkpt><trkpt lat="45.6236872" lon="10.9109198"><ele>838.0</ele><time>2026-05-02T13:20:29.944Z</time></trkpt><trkpt lat="45.6235867" lon="10.9108964"><ele>838.0</ele><time>2026-05-02T13:20:30.964Z</time></trkpt><trkpt lat="45.6234964" lon="10.9108905"><ele>838.2</ele><time>2026-05-02T13:20:31.961Z</time></trkpt><trkpt lat="45.6234271" lon="10.9108577"><ele>838.4</ele><time>2026-05-02T13:20:32.967Z</time></trkpt><trkpt lat="45.6233483" lon="10.9107246"><ele>838.6</ele><time>2026-05-02T13:20:34.967Z</time></trkpt><trkpt lat="45.6233299" lon="10.9106028"><ele>838.8000000000001</ele><time>2026-05-02T13:20:35.96Z</time></trkpt><trkpt lat="45.6233205" lon="10.9104617"><ele>839.0</ele><time>2026-05-02T13:20:36.961Z</time></trkpt><trkpt lat="45.6233065" lon="10.9102769"><ele>840.75</ele><time>2026-05-02T13:20:37.957Z</time></trkpt><trkpt lat="45.6232722" lon="10.91005"><ele>842.5</ele><time>2026-05-02T13:20:38.961Z</time></trkpt><trkpt lat="45.6232407" lon="10.909852"><ele>844.25</ele><time>2026-05-02T13:20:39.973Z</time></trkpt><trkpt lat="45.6232165" lon="10.909686"><ele>846.0</ele><time>2026-05-02T13:20:40.964Z</time></trkpt><trkpt lat="45.6231998" lon="10.9095691"><ele>846.0</ele><time>2026-05-02T13:20:41.96Z</time></trkpt><trkpt lat="45.6231927" lon="10.9094632"><ele>846.0</ele><time>2026-05-02T13:20:43.961Z</time></trkpt><trkpt lat="45.6232137" lon="10.9093605"><ele>846.0</ele><time>2026-05-02T13:20:51.967Z</time></trkpt><trkpt lat="45.623216" lon="10.9091439"><ele>846.0</ele><time>2026-05-02T13:20:53.946Z</time></trkpt><trkpt lat="45.6232074" lon="10.9090108"><ele>846.0</ele><time>2026-05-02T13:20:54.961Z</time></trkpt><trkpt lat="45.6231844" lon="10.9088595"><ele>847.4</ele><time>2026-05-02T13:20:55.961Z</time></trkpt><trkpt lat="45.6231613" lon="10.9087037"><ele>848.8</ele><time>2026-05-02T13:20:56.959Z</time></trkpt><trkpt lat="45.6231594" lon="10.9085413"><ele>850.1999999999999</ele><time>2026-05-02T13:20:57.972Z</time></trkpt><trkpt lat="45.6231663" lon="10.9083847"><ele>851.5999999999999</ele><time>2026-05-02T13:20:58.975Z</time></trkpt><trkpt lat="45.6231783" lon="10.9082295"><ele>853.0</ele><time>2026-05-02T13:20:59.979Z</time></trkpt><trkpt lat="45.6231929" lon="10.908084"><ele>853.9999999999999</ele><time>2026-05-02T13:21:00.976Z</time></trkpt><trkpt lat="45.6232072" lon="10.9079619"><ele>855.0</ele><time>2026-05-02T13:21:01.971Z</time></trkpt><trkpt lat="45.6232196" lon="10.9078532"><ele>856.0</ele><time>2026-05-02T13:21:02.971Z</time></trkpt><trkpt lat="45.6232319" lon="10.9077428"><ele>857.0</ele><time>2026-05-02T13:21:03.972Z</time></trkpt><trkpt lat="45.6232427" lon="10.9076342"><ele>857.9999999999999</ele><time>2026-05-02T13:21:04.963Z</time></trkpt><trkpt lat="45.6232639" lon="10.9075274"><ele>859.0</ele><time>2026-05-02T13:21:05.977Z</time></trkpt><trkpt lat="45.6232932" lon="10.9074266"><ele>859.0</ele><time>2026-05-02T13:21:06.975Z</time></trkpt><trkpt lat="45.6233372" lon="10.9073286"><ele>859.0000000000001</ele><time>2026-05-02T13:21:07.961Z</time></trkpt><trkpt lat="45.6233948" lon="10.9072389"><ele>859.0000000000001</ele><time>2026-05-02T13:21:08.973Z</time></trkpt><trkpt lat="45.6234698" lon="10.9071567"><ele>859.0</ele><time>2026-05-02T13:21:09.98Z</time></trkpt><trkpt lat="45.6235654" lon="10.9070698"><ele>859.0</ele><time>2026-05-02T13:21:10.971Z</time></trkpt><trkpt lat="45.6236623" lon="10.9069712"><ele>860.0</ele><time>2026-05-02T13:21:11.958Z</time></trkpt><trkpt lat="45.6237575" lon="10.9068805"><ele>861.0000000000001</ele><time>2026-05-02T13:21:12.968Z</time></trkpt><trkpt lat="45.6238351" lon="10.9068061"><ele>862.0000000000001</ele><time>2026-05-02T13:21:13.968Z</time></trkpt><trkpt lat="45.6239064" lon="10.9067227"><ele>863.0</ele><time>2026-05-02T13:21:14.969Z</time></trkpt><trkpt lat="45.623979" lon="10.906627"><ele>864.0</ele><time>2026-05-02T13:21:15.97Z</time></trkpt><trkpt lat="45.6240509" lon="10.9065028"><ele>864.0</ele><time>2026-05-02T13:21:16.962Z</time></trkpt><trkpt lat="45.6241171" lon="10.9063755"><ele>864.0000000000001</ele><time>2026-05-02T13:21:17.961Z</time></trkpt><trkpt lat="45.6241752" lon="10.9062405"><ele>864.0000000000001</ele><time>2026-05-02T13:21:18.97Z</time></trkpt><trkpt lat="45.6242295" lon="10.9060961"><ele>864.0</ele><time>2026-05-02T13:21:19.97Z</time></trkpt><trkpt lat="45.6242802" lon="10.9059613"><ele>864.0</ele><time>2026-05-02T13:21:20.966Z</time></trkpt><trkpt lat="45.6243302" lon="10.9058445"><ele>863.5</ele><time>2026-05-02T13:21:21.969Z</time></trkpt><trkpt lat="45.6243854" lon="10.9057305"><ele>863.0</ele><time>2026-05-02T13:21:22.975Z</time></trkpt><trkpt lat="45.6244411" lon="10.9056235"><ele>862.5</ele><time>2026-05-02T13:21:23.968Z</time></trkpt><trkpt lat="45.6244898" lon="10.9055237"><ele>862.0</ele><time>2026-05-02T13:21:24.975Z</time></trkpt><trkpt lat="45.6245308" lon="10.9054345"><ele>861.5</ele><time>2026-05-02T13:21:25.973Z</time></trkpt><trkpt lat="45.6245727" lon="10.9053547"><ele>861.0</ele><time>2026-05-02T13:21:26.965Z</time></trkpt><trkpt lat="45.6246153" lon="10.9052775"><ele>862.8333333333334</ele><time>2026-05-02T13:21:27.968Z</time></trkpt><trkpt lat="45.6246844" lon="10.9051582"><ele>864.6666666666667</ele><time>2026-05-02T13:21:29.983Z</time></trkpt><trkpt lat="45.6247377" lon="10.9050286"><ele>866.5</ele><time>2026-05-02T13:21:31.976Z</time></trkpt><trkpt lat="45.6247593" lon="10.9049408"><ele>868.3333333333334</ele><time>2026-05-02T13:21:32.97Z</time></trkpt><trkpt lat="45.6247824" lon="10.9048374"><ele>870.1666666666667</ele><time>2026-05-02T13:21:33.977Z</time></trkpt><trkpt lat="45.6248135" lon="10.9047218"><ele>872.0</ele><time>2026-05-02T13:21:34.961Z</time></trkpt><trkpt lat="45.6248416" lon="10.9046294"><ele>872.0</ele><time>2026-05-02T13:21:35.968Z</time></trkpt><trkpt lat="45.6248925" lon="10.9044664"><ele>872.0</ele><time>2026-05-02T13:21:37.972Z</time></trkpt><trkpt lat="45.6249025" lon="10.9042971"><ele>872.0</ele><time>2026-05-02T13:21:39.965Z</time></trkpt><trkpt lat="45.6248964" lon="10.9042001"><ele>872.0</ele><time>2026-05-02T13:21:40.969Z</time></trkpt><trkpt lat="45.6249092" lon="10.9040977"><ele>872.0</ele><time>2026-05-02T13:21:41.969Z</time></trkpt><trkpt lat="45.6249488" lon="10.9040017"><ele>870.8333333333334</ele><time>2026-05-02T13:21:42.971Z</time></trkpt><trkpt lat="45.6250028" lon="10.9039141"><ele>869.6666666666667</ele><time>2026-05-02T13:21:43.969Z</time></trkpt><trkpt lat="45.6250504" lon="10.9038195"><ele>868.5</ele><time>2026-05-02T13:21:44.966Z</time></trkpt><trkpt lat="45.6250867" lon="10.9037232"><ele>867.3333333333333</ele><time>2026-05-02T13:21:45.959Z</time></trkpt><trkpt lat="45.6251266" lon="10.9036117"><ele>866.1666666666666</ele><time>2026-05-02T13:21:46.973Z</time></trkpt><trkpt lat="45.6251652" lon="10.903495"><ele>865.0</ele><time>2026-05-02T13:21:47.969Z</time></trkpt><trkpt lat="45.6252008" lon="10.9033769"><ele>864.6</ele><time>2026-05-02T13:21:48.974Z</time></trkpt><trkpt lat="45.6252293" lon="10.9032529"><ele>864.2</ele><time>2026-05-02T13:21:49.971Z</time></trkpt><trkpt lat="45.6252647" lon="10.9031383"><ele>863.8</ele><time>2026-05-02T13:21:50.979Z</time></trkpt><trkpt lat="45.6253152" lon="10.9030221"><ele>863.4</ele><time>2026-05-02T13:21:51.966Z</time></trkpt><trkpt lat="45.6253733" lon="10.9029102"><ele>863.0</ele><time>2026-05-02T13:21:52.966Z</time></trkpt><trkpt lat="45.6254306" lon="10.9028103"><ele>863.6666666666667</ele><time>2026-05-02T13:21:53.97Z</time></trkpt><trkpt lat="45.6254925" lon="10.902707"><ele>864.3333333333334</ele><time>2026-05-02T13:21:54.961Z</time></trkpt><trkpt lat="45.6255561" lon="10.902616"><ele>865.0</ele><time>2026-05-02T13:21:55.977Z</time></trkpt><trkpt lat="45.625615" lon="10.9025399"><ele>865.6666666666667</ele><time>2026-05-02T13:21:56.963Z</time></trkpt><trkpt lat="45.6256617" lon="10.9024451"><ele>866.3333333333334</ele><time>2026-05-02T13:21:57.966Z</time></trkpt><trkpt lat="45.6256921" lon="10.9023444"><ele>867.0</ele><time>2026-05-02T13:21:58.974Z</time></trkpt><trkpt lat="45.6257076" lon="10.9022283"><ele>867.0</ele><time>2026-05-02T13:21:59.978Z</time></trkpt><trkpt lat="45.6257098" lon="10.9021033"><ele>867.0</ele><time>2026-05-02T13:22:00.976Z</time></trkpt><trkpt lat="45.6256897" lon="10.9019944"><ele>867.0</ele><time>2026-05-02T13:22:01.972Z</time></trkpt><trkpt lat="45.6256374" lon="10.9018841"><ele>867.0</ele><time>2026-05-02T13:22:02.971Z</time></trkpt><trkpt lat="45.6255665" lon="10.9017942"><ele>867.0</ele><time>2026-05-02T13:22:03.975Z</time></trkpt><trkpt lat="45.6254981" lon="10.9017087"><ele>867.0</ele><time>2026-05-02T13:22:04.971Z</time></trkpt><trkpt lat="45.6254503" lon="10.9015862"><ele>867.75</ele><time>2026-05-02T13:22:05.971Z</time></trkpt><trkpt lat="45.6254098" lon="10.9014434"><ele>868.5</ele><time>2026-05-02T13:22:06.97Z</time></trkpt><trkpt lat="45.6253714" lon="10.901295"><ele>869.25</ele><time>2026-05-02T13:22:07.967Z</time></trkpt><trkpt lat="45.625331" lon="10.9011392"><ele>870.0</ele><time>2026-05-02T13:22:08.983Z</time></trkpt><trkpt lat="45.6252821" lon="10.9009817"><ele>872.0</ele><time>2026-05-02T13:22:09.976Z</time></trkpt><trkpt lat="45.625229" lon="10.9008253"><ele>874.0</ele><time>2026-05-02T13:22:10.972Z</time></trkpt><trkpt lat="45.6251767" lon="10.9006753"><ele>876.0</ele><time>2026-05-02T13:22:11.967Z</time></trkpt><trkpt lat="45.625139" lon="10.9005344"><ele>878.0</ele><time>2026-05-02T13:22:12.962Z</time></trkpt><trkpt lat="45.6251088" lon="10.9004199"><ele>880.0</ele><time>2026-05-02T13:22:13.968Z</time></trkpt><trkpt lat="45.6250714" lon="10.9003069"><ele>880.0</ele><time>2026-05-02T13:22:14.973Z</time></trkpt><trkpt lat="45.6250495" lon="10.9001926"><ele>880.0</ele><time>2026-05-02T13:22:15.971Z</time></trkpt><trkpt lat="45.625029" lon="10.900085"><ele>880.0</ele><time>2026-05-02T13:22:16.969Z</time></trkpt><trkpt lat="45.624995" lon="10.8999305"><ele>880.0</ele><time>2026-05-02T13:22:18.975Z</time></trkpt><trkpt lat="45.6249545" lon="10.8997586"><ele>880.0</ele><time>2026-05-02T13:22:20.975Z</time></trkpt><trkpt lat="45.6249278" lon="10.8996675"><ele>882.1666666666666</ele><time>2026-05-02T13:22:21.969Z</time></trkpt><trkpt lat="45.6248991" lon="10.8995743"><ele>884.3333333333333</ele><time>2026-05-02T13:22:22.97Z</time></trkpt><trkpt lat="45.6248651" lon="10.8994825"><ele>886.5</ele><time>2026-05-02T13:22:23.966Z</time></trkpt><trkpt lat="45.6248275" lon="10.8993897"><ele>888.6666666666667</ele><time>2026-05-02T13:22:24.973Z</time></trkpt><trkpt lat="45.6247899" lon="10.8992947"><ele>890.8333333333334</ele><time>2026-05-02T13:22:25.949Z</time></trkpt><trkpt lat="45.6247504" lon="10.8992013"><ele>893.0</ele><time>2026-05-02T13:22:26.952Z</time></trkpt><trkpt lat="45.6247084" lon="10.8991024"><ele>891.8</ele><time>2026-05-02T13:22:27.943Z</time></trkpt><trkpt lat="45.6246649" lon="10.8990008"><ele>890.5999999999999</ele><time>2026-05-02T13:22:28.975Z</time></trkpt><trkpt lat="45.6246162" lon="10.8988972"><ele>889.4000000000001</ele><time>2026-05-02T13:22:29.965Z</time></trkpt><trkpt lat="45.6245628" lon="10.8987977"><ele>888.2</ele><time>2026-05-02T13:22:30.977Z</time></trkpt><trkpt lat="45.6245054" lon="10.8986994"><ele>887.0</ele><time>2026-05-02T13:22:31.971Z</time></trkpt><trkpt lat="45.6244349" lon="10.8985907"><ele>887.0</ele><time>2026-05-02T13:22:32.968Z</time></trkpt><trkpt lat="45.6243553" lon="10.8984858"><ele>887.0</ele><time>2026-05-02T13:22:33.966Z</time></trkpt><trkpt lat="45.6242698" lon="10.898384"><ele>887.0</ele><time>2026-05-02T13:22:34.957Z</time></trkpt><trkpt lat="45.6241773" lon="10.8982886"><ele>887.0</ele><time>2026-05-02T13:22:35.961Z</time></trkpt><trkpt lat="45.6240828" lon="10.898184"><ele>893.25</ele><time>2026-05-02T13:22:36.963Z</time></trkpt><trkpt lat="45.6239834" lon="10.8980824"><ele>899.5</ele><time>2026-05-02T13:22:37.96Z</time></trkpt><trkpt lat="45.623892" lon="10.8979834"><ele>905.75</ele><time>2026-05-02T13:22:38.963Z</time></trkpt><trkpt lat="45.6237969" lon="10.8978887"><ele>912.0</ele><time>2026-05-02T13:22:39.965Z</time></trkpt><trkpt lat="45.6236996" lon="10.8977904"><ele>911.75</ele><time>2026-05-02T13:22:40.959Z</time></trkpt><trkpt lat="45.6236013" lon="10.8976992"><ele>911.5</ele><time>2026-05-02T13:22:41.956Z</time></trkpt><trkpt lat="45.623511" lon="10.8976067"><ele>911.25</ele><time>2026-05-02T13:22:42.959Z</time></trkpt><trkpt lat="45.6234224" lon="10.8975059"><ele>911.0</ele><time>2026-05-02T13:22:43.963Z</time></trkpt><trkpt lat="45.623333" lon="10.8973978"><ele>911.0</ele><time>2026-05-02T13:22:44.963Z</time></trkpt><trkpt lat="45.6232486" lon="10.8973028"><ele>910.9999999999999</ele><time>2026-05-02T13:22:45.967Z</time></trkpt><trkpt lat="45.6231725" lon="10.8972071"><ele>910.9999999999999</ele><time>2026-05-02T13:22:46.964Z</time></trkpt><trkpt lat="45.6231057" lon="10.8971281"><ele>911.0</ele><time>2026-05-02T13:22:47.966Z</time></trkpt><trkpt lat="45.6230409" lon="10.8970568"><ele>911.0</ele><time>2026-05-02T13:22:48.957Z</time></trkpt><trkpt lat="45.6229719" lon="10.8969771"><ele>911.0</ele><time>2026-05-02T13:22:49.961Z</time></trkpt><trkpt lat="45.622888" lon="10.8968938"><ele>911.0</ele><time>2026-05-02T13:22:50.955Z</time></trkpt><trkpt lat="45.6227892" lon="10.8968069"><ele>911.0</ele><time>2026-05-02T13:22:51.956Z</time></trkpt><trkpt lat="45.6226912" lon="10.8967151"><ele>911.0</ele><time>2026-05-02T13:22:52.968Z</time></trkpt><trkpt lat="45.6225892" lon="10.8966251"><ele>912.25</ele><time>2026-05-02T13:22:53.969Z</time></trkpt><trkpt lat="45.6224875" lon="10.8965334"><ele>913.5</ele><time>2026-05-02T13:22:54.969Z</time></trkpt><trkpt lat="45.6223911" lon="10.8964401"><ele>914.75</ele><time>2026-05-02T13:22:55.965Z</time></trkpt><trkpt lat="45.6222932" lon="10.8963654"><ele>916.0</ele><time>2026-05-02T13:22:56.97Z</time></trkpt><trkpt lat="45.6221915" lon="10.8962779"><ele>916.0</ele><time>2026-05-02T13:22:57.967Z</time></trkpt><trkpt lat="45.6220909" lon="10.8961926"><ele>916.0</ele><time>2026-05-02T13:22:58.972Z</time></trkpt><trkpt lat="45.6219939" lon="10.8961021"><ele>916.0</ele><time>2026-05-02T13:22:59.971Z</time></trkpt><trkpt lat="45.6219" lon="10.8960076"><ele>916.0</ele><time>2026-05-02T13:23:00.964Z</time></trkpt><trkpt lat="45.621814" lon="10.8959149"><ele>916.4999999999999</ele><time>2026-05-02T13:23:01.964Z</time></trkpt><trkpt lat="45.6217389" lon="10.895825"><ele>917.0</ele><time>2026-05-02T13:23:02.974Z</time></trkpt><trkpt lat="45.6216838" lon="10.8957517"><ele>917.5</ele><time>2026-05-02T13:23:03.961Z</time></trkpt><trkpt lat="45.6216306" lon="10.8956804"><ele>918.0</ele><time>2026-05-02T13:23:04.962Z</time></trkpt><trkpt lat="45.6215884" lon="10.8955869"><ele>918.4999999999999</ele><time>2026-05-02T13:23:05.963Z</time></trkpt><trkpt lat="45.6215605" lon="10.8954876"><ele>919.0</ele><time>2026-05-02T13:23:06.956Z</time></trkpt><trkpt lat="45.6215545" lon="10.8953896"><ele>918.9999999999999</ele><time>2026-05-02T13:23:07.961Z</time></trkpt><trkpt lat="45.6215623" lon="10.895282"><ele>919.0</ele><time>2026-05-02T13:23:08.964Z</time></trkpt><trkpt lat="45.6215688" lon="10.8951826"><ele>919.0</ele><time>2026-05-02T13:23:09.968Z</time></trkpt><trkpt lat="45.6215876" lon="10.8950756"><ele>919.0</ele><time>2026-05-02T13:23:11.966Z</time></trkpt><trkpt lat="45.6215178" lon="10.8950422"><ele>918.9999999999999</ele><time>2026-05-02T13:23:14.957Z</time></trkpt><trkpt lat="45.621433" lon="10.895036"><ele>919.0</ele><time>2026-05-02T13:23:16.968Z</time></trkpt><trkpt lat="45.6213294" lon="10.8949837"><ele>919.1666666666666</ele><time>2026-05-02T13:23:18.978Z</time></trkpt><trkpt lat="45.62124" lon="10.8949459"><ele>919.3333333333333</ele><time>2026-05-02T13:23:20.972Z</time></trkpt><trkpt lat="45.621161" lon="10.8949438"><ele>919.5</ele><time>2026-05-02T13:23:22.97Z</time></trkpt><trkpt lat="45.6210936" lon="10.89494"><ele>919.6666666666667</ele><time>2026-05-02T13:23:24.966Z</time></trkpt><trkpt lat="45.6210307" lon="10.8949125"><ele>919.8333333333334</ele><time>2026-05-02T13:23:26.963Z</time></trkpt><trkpt lat="45.6209567" lon="10.8948707"><ele>920.0</ele><time>2026-05-02T13:23:28.955Z</time></trkpt><trkpt lat="45.6208749" lon="10.8948143"><ele>920.0000000000001</ele><time>2026-05-02T13:23:30.967Z</time></trkpt><trkpt lat="45.6207902" lon="10.8947648"><ele>920.0</ele><time>2026-05-02T13:23:32.967Z</time></trkpt><trkpt lat="45.6207234" lon="10.8947522"><ele>920.0</ele><time>2026-05-02T13:23:34.979Z</time></trkpt><trkpt lat="45.620647" lon="10.8947263"><ele>920.0</ele><time>2026-05-02T13:23:36.951Z</time></trkpt><trkpt lat="45.6205649" lon="10.8947122"><ele>920.0000000000001</ele><time>2026-05-02T13:23:38.971Z</time></trkpt><trkpt lat="45.6205005" lon="10.8946837"><ele>920.0</ele><time>2026-05-02T13:23:40.966Z</time></trkpt><trkpt lat="45.6204407" lon="10.8946499"><ele>919.9999999999999</ele><time>2026-05-02T13:23:51.966Z</time></trkpt><trkpt lat="45.6203785" lon="10.8946196"><ele>920.0</ele><time>2026-05-02T13:23:58.962Z</time></trkpt><trkpt lat="45.6202975" lon="10.8945964"><ele>919.9999999999999</ele><time>2026-05-02T13:24:22.969Z</time></trkpt><trkpt lat="45.6202332" lon="10.8945682"><ele>919.9999999999999</ele><time>2026-05-02T13:24:26.963Z</time></trkpt><trkpt lat="45.6201678" lon="10.8945302"><ele>920.0</ele><time>2026-05-02T13:24:29.966Z</time></trkpt><trkpt lat="45.6200932" lon="10.8945082"><ele>919.9999999999999</ele><time>2026-05-02T13:24:31.963Z</time></trkpt><trkpt lat="45.6200221" lon="10.8944864"><ele>919.9999999999999</ele><time>2026-05-02T13:24:33.964Z</time></trkpt><trkpt lat="45.6199515" lon="10.8944651"><ele>918.8333333333334</ele><time>2026-05-02T13:24:35.969Z</time></trkpt><trkpt lat="45.6198752" lon="10.8944578"><ele>917.6666666666667</ele><time>2026-05-02T13:24:38.972Z</time></trkpt><trkpt lat="45.6198015" lon="10.8944365"><ele>916.5</ele><time>2026-05-02T13:24:42.953Z</time></trkpt><trkpt lat="45.619734" lon="10.8943808"><ele>915.3333333333333</ele><time>2026-05-02T13:24:45.961Z</time></trkpt><trkpt lat="45.6196701" lon="10.894316"><ele>914.1666666666666</ele><time>2026-05-02T13:24:47.963Z</time></trkpt><trkpt lat="45.619596" lon="10.8942754"><ele>913.0</ele><time>2026-05-02T13:24:50.969Z</time></trkpt><trkpt lat="45.6195339" lon="10.8942563"><ele>912.2857142857142</ele><time>2026-05-02T13:24:52.96Z</time></trkpt><trkpt lat="45.6194701" lon="10.8941978"><ele>911.5714285714286</ele><time>2026-05-02T13:24:54.966Z</time></trkpt><trkpt lat="45.6193938" lon="10.8942176"><ele>910.8571428571429</ele><time>2026-05-02T13:24:57.969Z</time></trkpt><trkpt lat="45.6193369" lon="10.8942606"><ele>910.1428571428571</ele><time>2026-05-02T13:25:00.969Z</time></trkpt><trkpt lat="45.6192642" lon="10.8942908"><ele>909.4285714285716</ele><time>2026-05-02T13:25:03.957Z</time></trkpt><trkpt lat="45.6191861" lon="10.8943057"><ele>908.7142857142858</ele><time>2026-05-02T13:25:06.955Z</time></trkpt><trkpt lat="45.6191189" lon="10.8943099"><ele>908.0</ele><time>2026-05-02T13:25:08.955Z</time></trkpt><trkpt lat="45.6190329" lon="10.8943229"><ele>908.0000000000001</ele><time>2026-05-02T13:25:11.963Z</time></trkpt><trkpt lat="45.6189444" lon="10.894343"><ele>908.0</ele><time>2026-05-02T13:25:14.962Z</time></trkpt><trkpt lat="45.61888" lon="10.8943481"><ele>908.0</ele><time>2026-05-02T13:25:16.957Z</time></trkpt><trkpt lat="45.618806" lon="10.8943574"><ele>908.0</ele><time>2026-05-02T13:25:18.958Z</time></trkpt><trkpt lat="45.6187336" lon="10.8943458"><ele>908.0000000000001</ele><time>2026-05-02T13:25:20.954Z</time></trkpt><trkpt lat="45.6186455" lon="10.8943128"><ele>908.0</ele><time>2026-05-02T13:25:23.956Z</time></trkpt><trkpt lat="45.6185713" lon="10.8943041"><ele>908.6666666666667</ele><time>2026-05-02T13:25:26.96Z</time></trkpt><trkpt lat="45.6185043" lon="10.8943349"><ele>909.3333333333334</ele><time>2026-05-02T13:25:34.95Z</time></trkpt><trkpt lat="45.6184221" lon="10.8943196"><ele>910.0</ele><time>2026-05-02T13:25:37.96Z</time></trkpt><trkpt lat="45.6183483" lon="10.8942982"><ele>910.6666666666667</ele><time>2026-05-02T13:25:39.962Z</time></trkpt><trkpt lat="45.6182192" lon="10.8942571"><ele>911.3333333333334</ele><time>2026-05-02T13:25:41.958Z</time></trkpt><trkpt lat="45.6181516" lon="10.894235"><ele>912.0</ele><time>2026-05-02T13:25:42.961Z</time></trkpt><trkpt lat="45.6180823" lon="10.8942229"><ele>917.8333333333334</ele><time>2026-05-02T13:25:43.963Z</time></trkpt><trkpt lat="45.6179877" lon="10.8941943"><ele>923.6666666666667</ele><time>2026-05-02T13:25:45.956Z</time></trkpt><trkpt lat="45.6179121" lon="10.8941559"><ele>929.5</ele><time>2026-05-02T13:25:47.957Z</time></trkpt><trkpt lat="45.6178505" lon="10.8941165"><ele>935.3333333333334</ele><time>2026-05-02T13:25:49.961Z</time></trkpt><trkpt lat="45.6177747" lon="10.89408"><ele>941.1666666666667</ele><time>2026-05-02T13:25:53.96Z</time></trkpt><trkpt lat="45.6176976" lon="10.8940774"><ele>947.0</ele><time>2026-05-02T13:25:56.96Z</time></trkpt><trkpt lat="45.6176026" lon="10.8940357"><ele>947.1666666666667</ele><time>2026-05-02T13:25:59.967Z</time></trkpt><trkpt lat="45.6175282" lon="10.8939898"><ele>947.3333333333334</ele><time>2026-05-02T13:26:01.958Z</time></trkpt><trkpt lat="45.6174443" lon="10.8939501"><ele>947.5</ele><time>2026-05-02T13:26:03.956Z</time></trkpt><trkpt lat="45.6173622" lon="10.8939319"><ele>947.6666666666667</ele><time>2026-05-02T13:26:05.948Z</time></trkpt><trkpt lat="45.6172802" lon="10.8938991"><ele>947.8333333333334</ele><time>2026-05-02T13:26:07.957Z</time></trkpt><trkpt lat="45.6172085" lon="10.8938648"><ele>948.0</ele><time>2026-05-02T13:26:09.946Z</time></trkpt><trkpt lat="45.6171319" lon="10.8938118"><ele>948.0</ele><time>2026-05-02T13:26:12.953Z</time></trkpt><trkpt lat="45.6170579" lon="10.8937537"><ele>948.0</ele><time>2026-05-02T13:26:15.96Z</time></trkpt><trkpt lat="45.616979" lon="10.8937068"><ele>948.0</ele><time>2026-05-02T13:26:18.954Z</time></trkpt><trkpt lat="45.6169146" lon="10.893649"><ele>948.0</ele><time>2026-05-02T13:26:20.959Z</time></trkpt><trkpt lat="45.6168431" lon="10.89361"><ele>948.0</ele><time>2026-05-02T13:26:22.966Z</time></trkpt><trkpt lat="45.6167794" lon="10.8935628"><ele>948.0</ele><time>2026-05-02T13:26:24.962Z</time></trkpt><trkpt lat="45.6166972" lon="10.8934942"><ele>946.5</ele><time>2026-05-02T13:26:27.963Z</time></trkpt><trkpt lat="45.616633" lon="10.8934557"><ele>945.0</ele><time>2026-05-02T13:26:29.965Z</time></trkpt><trkpt lat="45.6165568" lon="10.8934145"><ele>943.5</ele><time>2026-05-02T13:26:32.962Z</time></trkpt><trkpt lat="45.6164902" lon="10.8933959"><ele>942.0</ele><time>2026-05-02T13:26:34.962Z</time></trkpt><trkpt lat="45.6164175" lon="10.8933805"><ele>940.5</ele><time>2026-05-02T13:26:38.034Z</time></trkpt><trkpt lat="45.6163342" lon="10.8933328"><ele>939.0</ele><time>2026-05-02T13:26:40.965Z</time></trkpt><trkpt lat="45.6162636" lon="10.8932895"><ele>940.3333333333334</ele><time>2026-05-02T13:26:43.973Z</time></trkpt><trkpt lat="45.6161862" lon="10.8932152"><ele>941.6666666666667</ele><time>2026-05-02T13:26:46.96Z</time></trkpt><trkpt lat="45.6161118" lon="10.893127"><ele>943.0</ele><time>2026-05-02T13:26:49.953Z</time></trkpt><trkpt lat="45.6160551" lon="10.8930751"><ele>944.3333333333334</ele><time>2026-05-02T13:26:51.941Z</time></trkpt><trkpt lat="45.6159967" lon="10.8930122"><ele>945.6666666666667</ele><time>2026-05-02T13:26:54.045Z</time></trkpt><trkpt lat="45.6159359" lon="10.8929547"><ele>947.0</ele><time>2026-05-02T13:26:55.977Z</time></trkpt><trkpt lat="45.6158749" lon="10.8928942"><ele>947.0000000000001</ele><time>2026-05-02T13:26:57.985Z</time></trkpt><trkpt lat="45.6158099" lon="10.8928403"><ele>947.0</ele><time>2026-05-02T13:26:59.966Z</time></trkpt><trkpt lat="45.6157551" lon="10.8927916"><ele>947.0</ele><time>2026-05-02T13:27:02.041Z</time></trkpt><trkpt lat="45.61567" lon="10.8927067"><ele>947.0</ele><time>2026-05-02T13:27:04.979Z</time></trkpt><trkpt lat="45.6155944" lon="10.8926546"><ele>947.0000000000001</ele><time>2026-05-02T13:27:06.979Z</time></trkpt><trkpt lat="45.6155002" lon="10.8925885"><ele>947.0</ele><time>2026-05-02T13:27:08.965Z</time></trkpt><trkpt lat="45.615408" lon="10.8924983"><ele>947.0000000000001</ele><time>2026-05-02T13:27:10.966Z</time></trkpt><trkpt lat="45.6153408" lon="10.8924029"><ele>947.0</ele><time>2026-05-02T13:27:12.987Z</time></trkpt><trkpt lat="45.6152997" lon="10.8923273"><ele>947.0</ele><time>2026-05-02T13:27:14.961Z</time></trkpt><trkpt lat="45.6152636" lon="10.8922423"><ele>947.0</ele><time>2026-05-02T13:27:16.977Z</time></trkpt><trkpt lat="45.6152127" lon="10.8921444"><ele>947.0000000000001</ele><time>2026-05-02T13:27:18.97Z</time></trkpt><trkpt lat="45.6151728" lon="10.8920677"><ele>947.0</ele><time>2026-05-02T13:27:19.983Z</time></trkpt><trkpt lat="45.6151055" lon="10.8919251"><ele>947.0000000000001</ele><time>2026-05-02T13:27:21.954Z</time></trkpt><trkpt lat="45.6150395" lon="10.891829"><ele>947.0</ele><time>2026-05-02T13:27:23.966Z</time></trkpt><trkpt lat="45.614955" lon="10.8917473"><ele>947.0</ele><time>2026-05-02T13:27:25.961Z</time></trkpt><trkpt lat="45.614882" lon="10.891687"><ele>947.0</ele><time>2026-05-02T13:27:28.022Z</time></trkpt><trkpt lat="45.6148103" lon="10.8916394"><ele>947.0000000000001</ele><time>2026-05-02T13:27:30.966Z</time></trkpt><trkpt lat="45.6147426" lon="10.8916549"><ele>947.0</ele><time>2026-05-02T13:27:33.967Z</time></trkpt><trkpt lat="45.6146737" lon="10.8915866"><ele>944.3333333333334</ele><time>2026-05-02T13:27:36.01Z</time></trkpt><trkpt lat="45.6146066" lon="10.8915125"><ele>941.6666666666667</ele><time>2026-05-02T13:27:37.969Z</time></trkpt><trkpt lat="45.614551" lon="10.8914676"><ele>939.0</ele><time>2026-05-02T13:27:38.966Z</time></trkpt><trkpt lat="45.6144837" lon="10.8914024"><ele>936.3333333333333</ele><time>2026-05-02T13:27:40.959Z</time></trkpt><trkpt lat="45.6144039" lon="10.8913415"><ele>933.6666666666666</ele><time>2026-05-02T13:27:43.962Z</time></trkpt><trkpt lat="45.6143283" lon="10.8912837"><ele>931.0</ele><time>2026-05-02T13:27:46.963Z</time></trkpt><trkpt lat="45.6142499" lon="10.8912314"><ele>930.9999999999999</ele><time>2026-05-02T13:27:49.959Z</time></trkpt><trkpt lat="45.614178" lon="10.8911918"><ele>931.0</ele><time>2026-05-02T13:27:53.024Z</time></trkpt><trkpt lat="45.6141216" lon="10.8911466"><ele>931.0</ele><time>2026-05-02T13:27:56.956Z</time></trkpt><trkpt lat="45.6140738" lon="10.8910535"><ele>931.0</ele><time>2026-05-02T13:28:00.972Z</time></trkpt><trkpt lat="45.6140072" lon="10.8910164"><ele>930.9999999999999</ele><time>2026-05-02T13:28:02.96Z</time></trkpt><trkpt lat="45.6139213" lon="10.8909655"><ele>931.0</ele><time>2026-05-02T13:28:04.959Z</time></trkpt><trkpt lat="45.6138307" lon="10.8908926"><ele>933.1666666666666</ele><time>2026-05-02T13:28:06.96Z</time></trkpt><trkpt lat="45.6137448" lon="10.8908145"><ele>935.3333333333333</ele><time>2026-05-02T13:28:08.951Z</time></trkpt><trkpt lat="45.6136494" lon="10.8906904"><ele>937.5</ele><time>2026-05-02T13:28:10.965Z</time></trkpt><trkpt lat="45.613592" lon="10.8906217"><ele>939.6666666666667</ele><time>2026-05-02T13:28:11.969Z</time></trkpt><trkpt lat="45.613541" lon="10.8905519"><ele>941.8333333333334</ele><time>2026-05-02T13:28:12.965Z</time></trkpt><trkpt lat="45.6134926" lon="10.8904785"><ele>944.0</ele><time>2026-05-02T13:28:13.963Z</time></trkpt><trkpt lat="45.613457" lon="10.8904008"><ele>939.0</ele><time>2026-05-02T13:28:14.966Z</time></trkpt><trkpt lat="45.613411" lon="10.8902278"><ele>934.0000000000001</ele><time>2026-05-02T13:28:17.037Z</time></trkpt><trkpt lat="45.6133759" lon="10.8901401"><ele>929.0000000000001</ele><time>2026-05-02T13:28:17.947Z</time></trkpt><trkpt lat="45.6133442" lon="10.8900548"><ele>924.0</ele><time>2026-05-02T13:28:18.969Z</time></trkpt><trkpt lat="45.6132855" lon="10.8898984"><ele>919.0</ele><time>2026-05-02T13:28:20.943Z</time></trkpt><trkpt lat="45.6132617" lon="10.889806"><ele>918.9999999999999</ele><time>2026-05-02T13:28:21.949Z</time></trkpt><trkpt lat="45.6132389" lon="10.889709"><ele>919.0</ele><time>2026-05-02T13:28:22.956Z</time></trkpt><trkpt lat="45.6132077" lon="10.8896215"><ele>919.0</ele><time>2026-05-02T13:28:23.947Z</time></trkpt><trkpt lat="45.6131708" lon="10.8895295"><ele>919.0</ele><time>2026-05-02T13:28:24.946Z</time></trkpt><trkpt lat="45.6131316" lon="10.8894455"><ele>918.9999999999999</ele><time>2026-05-02T13:28:25.951Z</time></trkpt><trkpt lat="45.6130672" lon="10.8893133"><ele>919.0</ele><time>2026-05-02T13:28:27.959Z</time></trkpt><trkpt lat="45.6130003" lon="10.8892018"><ele>916.8000000000001</ele><time>2026-05-02T13:28:29.976Z</time></trkpt><trkpt lat="45.6129309" lon="10.8891041"><ele>914.6000000000001</ele><time>2026-05-02T13:28:31.963Z</time></trkpt><trkpt lat="45.6128624" lon="10.8889975"><ele>912.4</ele><time>2026-05-02T13:28:33.952Z</time></trkpt><trkpt lat="45.6127994" lon="10.8889003"><ele>910.2</ele><time>2026-05-02T13:28:35.967Z</time></trkpt><trkpt lat="45.6127359" lon="10.8887835"><ele>908.0</ele><time>2026-05-02T13:28:37.964Z</time></trkpt><trkpt lat="45.612679" lon="10.8887056"><ele>908.0</ele><time>2026-05-02T13:28:39.949Z</time></trkpt><trkpt lat="45.6126161" lon="10.8886468"><ele>908.0</ele><time>2026-05-02T13:28:41.962Z</time></trkpt><trkpt lat="45.6125618" lon="10.8885895"><ele>908.0</ele><time>2026-05-02T13:28:43.955Z</time></trkpt><trkpt lat="45.6125004" lon="10.888492"><ele>908.0</ele><time>2026-05-02T13:28:45.954Z</time></trkpt><trkpt lat="45.6124303" lon="10.8883777"><ele>908.0</ele><time>2026-05-02T13:28:48.04Z</time></trkpt><trkpt lat="45.6123588" lon="10.8882603"><ele>912.2</ele><time>2026-05-02T13:28:49.979Z</time></trkpt><trkpt lat="45.6122932" lon="10.8881405"><ele>916.4</ele><time>2026-05-02T13:28:51.96Z</time></trkpt><trkpt lat="45.6122566" lon="10.8880477"><ele>920.6000000000001</ele><time>2026-05-02T13:28:53.965Z</time></trkpt><trkpt lat="45.6122422" lon="10.8879576"><ele>924.8000000000001</ele><time>2026-05-02T13:28:57Z</time></trkpt><trkpt lat="45.6122629" lon="10.8881103"><ele>929.0</ele><time>2026-05-02T13:29:05.959Z</time></trkpt><trkpt lat="45.6122914" lon="10.8882484"><ele>929.0</ele><time>2026-05-02T13:29:07.972Z</time></trkpt><trkpt lat="45.6123279" lon="10.8883968"><ele>929.0</ele><time>2026-05-02T13:29:09.976Z</time></trkpt><trkpt lat="45.6123506" lon="10.8885495"><ele>929.0</ele><time>2026-05-02T13:29:11.969Z</time></trkpt><trkpt lat="45.6123437" lon="10.8887153"><ele>929.0</ele><time>2026-05-02T13:29:13.963Z</time></trkpt><trkpt lat="45.6123164" lon="10.8888831"><ele>925.5000000000001</ele><time>2026-05-02T13:29:15.978Z</time></trkpt><trkpt lat="45.6123081" lon="10.8889726"><ele>922.0</ele><time>2026-05-02T13:29:16.96Z</time></trkpt><trkpt lat="45.6122873" lon="10.8891419"><ele>918.5</ele><time>2026-05-02T13:29:18.969Z</time></trkpt><trkpt lat="45.6122503" lon="10.8892928"><ele>915.0</ele><time>2026-05-02T13:29:20.947Z</time></trkpt><trkpt lat="45.612197" lon="10.8893747"><ele>911.5000000000001</ele><time>2026-05-02T13:29:22.963Z</time></trkpt><trkpt lat="45.6121565" lon="10.8894657"><ele>908.0</ele><time>2026-05-02T13:29:25.966Z</time></trkpt><trkpt lat="45.6121044" lon="10.889523"><ele>905.4</ele><time>2026-05-02T13:29:28.969Z</time></trkpt><trkpt lat="45.6120429" lon="10.8894227"><ele>902.8</ele><time>2026-05-02T13:29:30.96Z</time></trkpt><trkpt lat="45.6119623" lon="10.8893329"><ele>900.2</ele><time>2026-05-02T13:29:32.953Z</time></trkpt><trkpt lat="45.6118835" lon="10.8892492"><ele>897.6</ele><time>2026-05-02T13:29:34.965Z</time></trkpt><trkpt lat="45.6118134" lon="10.889179"><ele>895.0</ele><time>2026-05-02T13:29:36.973Z</time></trkpt><trkpt lat="45.6117312" lon="10.8891182"><ele>894.4</ele><time>2026-05-02T13:29:38.959Z</time></trkpt><trkpt lat="45.6116403" lon="10.8890617"><ele>893.8</ele><time>2026-05-02T13:29:40.973Z</time></trkpt><trkpt lat="45.611545" lon="10.8890058"><ele>893.2</ele><time>2026-05-02T13:29:42.97Z</time></trkpt><trkpt lat="45.6114453" lon="10.8889511"><ele>892.6</ele><time>2026-05-02T13:29:44.974Z</time></trkpt><trkpt lat="45.6113217" lon="10.888895"><ele>892.0</ele><time>2026-05-02T13:29:46.958Z</time></trkpt><trkpt lat="45.6112313" lon="10.8888261"><ele>889.0</ele><time>2026-05-02T13:29:47.966Z</time></trkpt><trkpt lat="45.6111466" lon="10.8887552"><ele>886.0</ele><time>2026-05-02T13:29:48.969Z</time></trkpt><trkpt lat="45.6110495" lon="10.8886831"><ele>883.0</ele><time>2026-05-02T13:29:49.968Z</time></trkpt><trkpt lat="45.6109368" lon="10.8886206"><ele>880.0</ele><time>2026-05-02T13:29:50.963Z</time></trkpt><trkpt lat="45.6108157" lon="10.8885529"><ele>880.0</ele><time>2026-05-02T13:29:51.962Z</time></trkpt><trkpt lat="45.6106926" lon="10.8884832"><ele>880.0</ele><time>2026-05-02T13:29:52.967Z</time></trkpt><trkpt lat="45.6105614" lon="10.8884278"><ele>880.0</ele><time>2026-05-02T13:29:53.977Z</time></trkpt><trkpt lat="45.6104199" lon="10.8883767"><ele>880.0</ele><time>2026-05-02T13:29:54.976Z</time></trkpt><trkpt lat="45.6102735" lon="10.8883355"><ele>884.25</ele><time>2026-05-02T13:29:55.961Z</time></trkpt><trkpt lat="45.6101284" lon="10.8883223"><ele>888.5</ele><time>2026-05-02T13:29:56.965Z</time></trkpt><trkpt lat="45.609988" lon="10.8883127"><ele>892.75</ele><time>2026-05-02T13:29:57.963Z</time></trkpt><trkpt lat="45.6098499" lon="10.888311"><ele>897.0</ele><time>2026-05-02T13:29:58.965Z</time></trkpt><trkpt lat="45.6097132" lon="10.888306"><ele>897.6666666666667</ele><time>2026-05-02T13:30:00.056Z</time></trkpt><trkpt lat="45.6094328" lon="10.8882785"><ele>898.3333333333334</ele><time>2026-05-02T13:30:01.955Z</time></trkpt><trkpt lat="45.6092875" lon="10.8882668"><ele>899.0</ele><time>2026-05-02T13:30:02.987Z</time></trkpt><trkpt lat="45.6091389" lon="10.8882547"><ele>899.0</ele><time>2026-05-02T13:30:03.946Z</time></trkpt><trkpt lat="45.6089802" lon="10.8882379"><ele>899.0</ele><time>2026-05-02T13:30:04.96Z</time></trkpt><trkpt lat="45.6088176" lon="10.8881997"><ele>899.0</ele><time>2026-05-02T13:30:05.955Z</time></trkpt><trkpt lat="45.6086556" lon="10.8881499"><ele>895.3333333333334</ele><time>2026-05-02T13:30:06.964Z</time></trkpt><trkpt lat="45.6084934" lon="10.8880725"><ele>891.6666666666667</ele><time>2026-05-02T13:30:07.97Z</time></trkpt><trkpt lat="45.6083263" lon="10.8879885"><ele>888.0</ele><time>2026-05-02T13:30:08.951Z</time></trkpt><trkpt lat="45.6081614" lon="10.8878979"><ele>888.0</ele><time>2026-05-02T13:30:09.982Z</time></trkpt><trkpt lat="45.6079959" lon="10.8878"><ele>888.0</ele><time>2026-05-02T13:30:10.953Z</time></trkpt><trkpt lat="45.6078298" lon="10.8876942"><ele>888.0</ele><time>2026-05-02T13:30:11.957Z</time></trkpt><trkpt lat="45.6076643" lon="10.8876274"><ele>894.0</ele><time>2026-05-02T13:30:12.958Z</time></trkpt><trkpt lat="45.6075119" lon="10.8875739"><ele>900.0</ele><time>2026-05-02T13:30:13.971Z</time></trkpt><trkpt lat="45.6073627" lon="10.8875281"><ele>906.0</ele><time>2026-05-02T13:30:14.961Z</time></trkpt><trkpt lat="45.6072195" lon="10.8874715"><ele>906.0</ele><time>2026-05-02T13:30:15.975Z</time></trkpt><trkpt lat="45.6071035" lon="10.8874003"><ele>906.0</ele><time>2026-05-02T13:30:16.945Z</time></trkpt><trkpt lat="45.6070046" lon="10.8873109"><ele>906.0</ele><time>2026-05-02T13:30:17.962Z</time></trkpt><trkpt lat="45.6069248" lon="10.8871928"><ele>906.0</ele><time>2026-05-02T13:30:18.96Z</time></trkpt><trkpt lat="45.6068574" lon="10.8870755"><ele>902.0</ele><time>2026-05-02T13:30:19.966Z</time></trkpt><trkpt lat="45.6067895" lon="10.886989"><ele>897.9999999999999</ele><time>2026-05-02T13:30:20.954Z</time></trkpt><trkpt lat="45.6067127" lon="10.8869267"><ele>893.9999999999999</ele><time>2026-05-02T13:30:21.954Z</time></trkpt><trkpt lat="45.6066083" lon="10.8868926"><ele>890.0</ele><time>2026-05-02T13:30:22.963Z</time></trkpt><trkpt lat="45.606513" lon="10.8868534"><ele>886.0</ele><time>2026-05-02T13:30:23.968Z</time></trkpt><trkpt lat="45.6064063" lon="10.8868007"><ele>891.0</ele><time>2026-05-02T13:30:24.944Z</time></trkpt><trkpt lat="45.6062812" lon="10.8867396"><ele>896.0</ele><time>2026-05-02T13:30:25.957Z</time></trkpt><trkpt lat="45.6061352" lon="10.8866701"><ele>901.0</ele><time>2026-05-02T13:30:26.962Z</time></trkpt><trkpt lat="45.6059725" lon="10.8866073"><ele>901.0</ele><time>2026-05-02T13:30:27.964Z</time></trkpt><trkpt lat="45.6058122" lon="10.8865631"><ele>901.0</ele><time>2026-05-02T13:30:28.969Z</time></trkpt><trkpt lat="45.6056491" lon="10.8865564"><ele>901.0</ele><time>2026-05-02T13:30:29.956Z</time></trkpt><trkpt lat="45.6054841" lon="10.8865877"><ele>901.0</ele><time>2026-05-02T13:30:30.959Z</time></trkpt><trkpt lat="45.6053196" lon="10.886632"><ele>901.0</ele><time>2026-05-02T13:30:31.961Z</time></trkpt><trkpt lat="45.6051579" lon="10.886669"><ele>901.0</ele><time>2026-05-02T13:30:32.962Z</time></trkpt><trkpt lat="45.6049955" lon="10.8866881"><ele>901.0</ele><time>2026-05-02T13:30:33.966Z</time></trkpt><trkpt lat="45.6048382" lon="10.886703"><ele>901.0</ele><time>2026-05-02T13:30:34.966Z</time></trkpt><trkpt lat="45.604686" lon="10.8866867"><ele>901.0</ele><time>2026-05-02T13:30:35.969Z</time></trkpt><trkpt lat="45.6045384" lon="10.8866501"><ele>899.6666666666666</ele><time>2026-05-02T13:30:36.961Z</time></trkpt><trkpt lat="45.6043849" lon="10.8865859"><ele>898.3333333333333</ele><time>2026-05-02T13:30:37.967Z</time></trkpt><trkpt lat="45.604224" lon="10.8864905"><ele>897.0</ele><time>2026-05-02T13:30:38.962Z</time></trkpt><trkpt lat="45.6040638" lon="10.8863867"><ele>897.0</ele><time>2026-05-02T13:30:39.962Z</time></trkpt><trkpt lat="45.6039057" lon="10.8862863"><ele>897.0</ele><time>2026-05-02T13:30:40.944Z</time></trkpt><trkpt lat="45.6037476" lon="10.8861938"><ele>897.0</ele><time>2026-05-02T13:30:41.958Z</time></trkpt><trkpt lat="45.6035912" lon="10.8861245"><ele>895.3333333333333</ele><time>2026-05-02T13:30:43.058Z</time></trkpt><trkpt lat="45.6034369" lon="10.8860842"><ele>893.6666666666666</ele><time>2026-05-02T13:30:43.96Z</time></trkpt><trkpt lat="45.6032863" lon="10.8860528"><ele>892.0</ele><time>2026-05-02T13:30:45.037Z</time></trkpt><trkpt lat="45.6031374" lon="10.8860157"><ele>892.0</ele><time>2026-05-02T13:30:45.953Z</time></trkpt><trkpt lat="45.6029757" lon="10.8859826"><ele>892.0</ele><time>2026-05-02T13:30:46.97Z</time></trkpt><trkpt lat="45.6028094" lon="10.8859556"><ele>892.0</ele><time>2026-05-02T13:30:47.966Z</time></trkpt><trkpt lat="45.6026362" lon="10.8859625"><ele>894.0</ele><time>2026-05-02T13:30:48.969Z</time></trkpt><trkpt lat="45.602462" lon="10.8859941"><ele>896.0</ele><time>2026-05-02T13:30:49.98Z</time></trkpt><trkpt lat="45.6022926" lon="10.8860625"><ele>898.0</ele><time>2026-05-02T13:30:50.973Z</time></trkpt><trkpt lat="45.6021244" lon="10.8861424"><ele>901.0</ele><time>2026-05-02T13:30:51.972Z</time></trkpt><trkpt lat="45.6019555" lon="10.8862314"><ele>904.0</ele><time>2026-05-02T13:30:52.962Z</time></trkpt><trkpt lat="45.6017881" lon="10.886322"><ele>907.0</ele><time>2026-05-02T13:30:53.979Z</time></trkpt><trkpt lat="45.6016313" lon="10.8863966"><ele>907.0</ele><time>2026-05-02T13:30:54.978Z</time></trkpt><trkpt lat="45.6014863" lon="10.8864505"><ele>907.0</ele><time>2026-05-02T13:30:55.964Z</time></trkpt><trkpt lat="45.6013516" lon="10.886479"><ele>907.0</ele><time>2026-05-02T13:30:56.971Z</time></trkpt><trkpt lat="45.6012027" lon="10.8864583"><ele>907.0</ele><time>2026-05-02T13:30:57.976Z</time></trkpt><trkpt lat="45.6010557" lon="10.8863921"><ele>907.6666666666666</ele><time>2026-05-02T13:30:58.997Z</time></trkpt><trkpt lat="45.6009031" lon="10.8863017"><ele>908.3333333333333</ele><time>2026-05-02T13:30:59.971Z</time></trkpt><trkpt lat="45.6007526" lon="10.8862051"><ele>909.0</ele><time>2026-05-02T13:31:00.969Z</time></trkpt><trkpt lat="45.600599" lon="10.886103"><ele>909.0</ele><time>2026-05-02T13:31:01.965Z</time></trkpt><trkpt lat="45.6004413" lon="10.8860065"><ele>909.0</ele><time>2026-05-02T13:31:02.975Z</time></trkpt><trkpt lat="45.6002855" lon="10.8859121"><ele>909.0</ele><time>2026-05-02T13:31:03.983Z</time></trkpt><trkpt lat="45.6001299" lon="10.885817"><ele>911.6666666666667</ele><time>2026-05-02T13:31:04.976Z</time></trkpt><trkpt lat="45.5999748" lon="10.8857143"><ele>914.3333333333334</ele><time>2026-05-02T13:31:05.966Z</time></trkpt><trkpt lat="45.5998163" lon="10.8856148"><ele>917.0</ele><time>2026-05-02T13:31:06.971Z</time></trkpt><trkpt lat="45.5996706" lon="10.8855224"><ele>917.0</ele><time>2026-05-02T13:31:08.051Z</time></trkpt><trkpt lat="45.5995324" lon="10.8854528"><ele>917.0</ele><time>2026-05-02T13:31:09.026Z</time></trkpt><trkpt lat="45.5993975" lon="10.8854237"><ele>917.0</ele><time>2026-05-02T13:31:09.98Z</time></trkpt><trkpt lat="45.5992656" lon="10.8854178"><ele>917.0</ele><time>2026-05-02T13:31:10.982Z</time></trkpt><trkpt lat="45.59913" lon="10.8854388"><ele>917.5</ele><time>2026-05-02T13:31:11.966Z</time></trkpt><trkpt lat="45.5989922" lon="10.8854702"><ele>918.0</ele><time>2026-05-02T13:31:12.971Z</time></trkpt><trkpt lat="45.5988491" lon="10.8855039"><ele>918.5</ele><time>2026-05-02T13:31:13.982Z</time></trkpt><trkpt lat="45.5987056" lon="10.8855524"><ele>919.0</ele><time>2026-05-02T13:31:14.979Z</time></trkpt><trkpt lat="45.5985737" lon="10.8856046"><ele>919.0</ele><time>2026-05-02T13:31:15.961Z</time></trkpt><trkpt lat="45.5984553" lon="10.8856382"><ele>919.0</ele><time>2026-05-02T13:31:16.959Z</time></trkpt><trkpt lat="45.5983343" lon="10.8856439"><ele>919.0</ele><time>2026-05-02T13:31:17.972Z</time></trkpt><trkpt lat="45.5982024" lon="10.885622"><ele>919.0</ele><time>2026-05-02T13:31:18.968Z</time></trkpt><trkpt lat="45.5980669" lon="10.8856071"><ele>919.0</ele><time>2026-05-02T13:31:19.974Z</time></trkpt><trkpt lat="45.5979328" lon="10.8856025"><ele>919.0</ele><time>2026-05-02T13:31:20.975Z</time></trkpt><trkpt lat="45.5978089" lon="10.8855993"><ele>919.0</ele><time>2026-05-02T13:31:21.991Z</time></trkpt><trkpt lat="45.5976957" lon="10.8855854"><ele>919.0</ele><time>2026-05-02T13:31:22.966Z</time></trkpt><trkpt lat="45.597591" lon="10.8855335"><ele>920.25</ele><time>2026-05-02T13:31:23.963Z</time></trkpt><trkpt lat="45.5975001" lon="10.8854585"><ele>921.5</ele><time>2026-05-02T13:31:24.97Z</time></trkpt><trkpt lat="45.5974199" lon="10.8853517"><ele>922.75</ele><time>2026-05-02T13:31:25.967Z</time></trkpt><trkpt lat="45.5973371" lon="10.8852228"><ele>924.0</ele><time>2026-05-02T13:31:26.976Z</time></trkpt><trkpt lat="45.5972539" lon="10.8850605"><ele>924.0</ele><time>2026-05-02T13:31:27.973Z</time></trkpt><trkpt lat="45.5971705" lon="10.884888"><ele>924.0</ele><time>2026-05-02T13:31:28.978Z</time></trkpt><trkpt lat="45.5970847" lon="10.8847169"><ele>924.0</ele><time>2026-05-02T13:31:29.981Z</time></trkpt><trkpt lat="45.5970147" lon="10.8845458"><ele>924.0</ele><time>2026-05-02T13:31:30.979Z</time></trkpt><trkpt lat="45.5969647" lon="10.8843751"><ele>920.75</ele><time>2026-05-02T13:31:31.978Z</time></trkpt><trkpt lat="45.5969267" lon="10.8842079"><ele>917.5</ele><time>2026-05-02T13:31:33.053Z</time></trkpt><trkpt lat="45.5968936" lon="10.8840431"><ele>914.25</ele><time>2026-05-02T13:31:33.97Z</time></trkpt><trkpt lat="45.5968619" lon="10.8838794"><ele>911.0</ele><time>2026-05-02T13:31:34.974Z</time></trkpt><trkpt lat="45.5968372" lon="10.8837182"><ele>911.0000000000001</ele><time>2026-05-02T13:31:35.974Z</time></trkpt><trkpt lat="45.5968272" lon="10.8835628"><ele>911.0</ele><time>2026-05-02T13:31:36.975Z</time></trkpt><trkpt lat="45.5968241" lon="10.8834352"><ele>911.0</ele><time>2026-05-02T13:31:37.974Z</time></trkpt><trkpt lat="45.5968038" lon="10.8833276"><ele>911.0</ele><time>2026-05-02T13:31:38.972Z</time></trkpt><trkpt lat="45.5967667" lon="10.8832489"><ele>911.0000000000001</ele><time>2026-05-02T13:31:40.057Z</time></trkpt><trkpt lat="45.596694" lon="10.8832114"><ele>911.0</ele><time>2026-05-02T13:31:40.959Z</time></trkpt><trkpt lat="45.5965838" lon="10.8832114"><ele>911.25</ele><time>2026-05-02T13:31:41.965Z</time></trkpt><trkpt lat="45.5964599" lon="10.8832185"><ele>911.5</ele><time>2026-05-02T13:31:43.019Z</time></trkpt><trkpt lat="45.5963274" lon="10.8832145"><ele>911.75</ele><time>2026-05-02T13:31:43.959Z</time></trkpt><trkpt lat="45.5961542" lon="10.883194"><ele>912.0</ele><time>2026-05-02T13:31:44.954Z</time></trkpt><trkpt lat="45.5959535" lon="10.8831855"><ele>908.6666666666667</ele><time>2026-05-02T13:31:45.972Z</time></trkpt><trkpt lat="45.595747" lon="10.8831801"><ele>905.3333333333334</ele><time>2026-05-02T13:31:46.967Z</time></trkpt><trkpt lat="45.5955389" lon="10.8831655"><ele>902.0</ele><time>2026-05-02T13:31:47.995Z</time></trkpt><trkpt lat="45.5953278" lon="10.8831554"><ele>900.0</ele><time>2026-05-02T13:31:48.955Z</time></trkpt><trkpt lat="45.5951243" lon="10.8831494"><ele>898.0</ele><time>2026-05-02T13:31:50.008Z</time></trkpt><trkpt lat="45.5949292" lon="10.8831426"><ele>896.0</ele><time>2026-05-02T13:31:50.948Z</time></trkpt><trkpt lat="45.5947478" lon="10.8831328"><ele>896.0</ele><time>2026-05-02T13:31:51.962Z</time></trkpt><trkpt lat="45.594581" lon="10.8831185"><ele>896.0</ele><time>2026-05-02T13:31:52.966Z</time></trkpt><trkpt lat="45.594421" lon="10.8831032"><ele>896.0</ele><time>2026-05-02T13:31:53.96Z</time></trkpt><trkpt lat="45.5942636" lon="10.8830668"><ele>894.3333333333334</ele><time>2026-05-02T13:31:54.958Z</time></trkpt><trkpt lat="45.5941108" lon="10.883003"><ele>892.6666666666667</ele><time>2026-05-02T13:31:55.963Z</time></trkpt><trkpt lat="45.5939727" lon="10.8828917"><ele>891.0</ele><time>2026-05-02T13:31:56.963Z</time></trkpt><trkpt lat="45.5938444" lon="10.8827379"><ele>889.3333333333333</ele><time>2026-05-02T13:31:57.948Z</time></trkpt><trkpt lat="45.5937177" lon="10.8825737"><ele>887.6666666666666</ele><time>2026-05-02T13:31:59.044Z</time></trkpt><trkpt lat="45.5936001" lon="10.8824074"><ele>886.0</ele><time>2026-05-02T13:32:00.059Z</time></trkpt><trkpt lat="45.5934874" lon="10.8822453"><ele>886.0</ele><time>2026-05-02T13:32:00.976Z</time></trkpt><trkpt lat="45.5933916" lon="10.8820827"><ele>886.0</ele><time>2026-05-02T13:32:01.975Z</time></trkpt><trkpt lat="45.5933226" lon="10.8818898"><ele>886.0</ele><time>2026-05-02T13:32:02.985Z</time></trkpt><trkpt lat="45.5932698" lon="10.8816822"><ele>888.6666666666666</ele><time>2026-05-02T13:32:04.043Z</time></trkpt><trkpt lat="45.5932331" lon="10.8814597"><ele>891.3333333333333</ele><time>2026-05-02T13:32:05.042Z</time></trkpt><trkpt lat="45.5932079" lon="10.8812466"><ele>894.0</ele><time>2026-05-02T13:32:05.978Z</time></trkpt><trkpt lat="45.5931836" lon="10.8810457"><ele>895.25</ele><time>2026-05-02T13:32:06.987Z</time></trkpt><trkpt lat="45.5931349" lon="10.8808619"><ele>896.5</ele><time>2026-05-02T13:32:07.985Z</time></trkpt><trkpt lat="45.5930662" lon="10.8807068"><ele>897.75</ele><time>2026-05-02T13:32:09.024Z</time></trkpt><trkpt lat="45.5929772" lon="10.8805648"><ele>899.0</ele><time>2026-05-02T13:32:10.032Z</time></trkpt><trkpt lat="45.592868" lon="10.8804388"><ele>893.5</ele><time>2026-05-02T13:32:10.971Z</time></trkpt><trkpt lat="45.5927449" lon="10.8803308"><ele>888.0</ele><time>2026-05-02T13:32:11.975Z</time></trkpt><trkpt lat="45.5926208" lon="10.8802348"><ele>882.5</ele><time>2026-05-02T13:32:12.995Z</time></trkpt><trkpt lat="45.5924939" lon="10.8801784"><ele>877.0</ele><time>2026-05-02T13:32:13.964Z</time></trkpt><trkpt lat="45.5923623" lon="10.8801587"><ele>877.0</ele><time>2026-05-02T13:32:14.994Z</time></trkpt><trkpt lat="45.5922191" lon="10.8801874"><ele>877.0</ele><time>2026-05-02T13:32:15.971Z</time></trkpt><trkpt lat="45.5920785" lon="10.8802352"><ele>877.0</ele><time>2026-05-02T13:32:16.977Z</time></trkpt><trkpt lat="45.591938" lon="10.8802894"><ele>877.0</ele><time>2026-05-02T13:32:17.974Z</time></trkpt><trkpt lat="45.591796" lon="10.8803636"><ele>876.3333333333333</ele><time>2026-05-02T13:32:18.981Z</time></trkpt><trkpt lat="45.591649" lon="10.880449"><ele>875.6666666666667</ele><time>2026-05-02T13:32:19.971Z</time></trkpt><trkpt lat="45.5915099" lon="10.8805415"><ele>875.0</ele><time>2026-05-02T13:32:20.977Z</time></trkpt><trkpt lat="45.5913697" lon="10.8806204"><ele>875.0</ele><time>2026-05-02T13:32:21.981Z</time></trkpt><trkpt lat="45.5912304" lon="10.8806622"><ele>875.0</ele><time>2026-05-02T13:32:22.97Z</time></trkpt><trkpt lat="45.5910945" lon="10.8806731"><ele>875.0</ele><time>2026-05-02T13:32:23.968Z</time></trkpt><trkpt lat="45.5909556" lon="10.8806725"><ele>875.0</ele><time>2026-05-02T13:32:24.968Z</time></trkpt><trkpt lat="45.5908207" lon="10.8806726"><ele>874.75</ele><time>2026-05-02T13:32:25.967Z</time></trkpt><trkpt lat="45.5906895" lon="10.8806649"><ele>874.5</ele><time>2026-05-02T13:32:26.97Z</time></trkpt><trkpt lat="45.5905611" lon="10.8806322"><ele>874.25</ele><time>2026-05-02T13:32:27.968Z</time></trkpt><trkpt lat="45.5904302" lon="10.8805608"><ele>874.0</ele><time>2026-05-02T13:32:28.971Z</time></trkpt><trkpt lat="45.5902997" lon="10.8804762"><ele>873.75</ele><time>2026-05-02T13:32:29.966Z</time></trkpt><trkpt lat="45.5901694" lon="10.8803826"><ele>873.5</ele><time>2026-05-02T13:32:30.972Z</time></trkpt><trkpt lat="45.5900432" lon="10.8802845"><ele>873.25</ele><time>2026-05-02T13:32:31.966Z</time></trkpt><trkpt lat="45.5899232" lon="10.880183"><ele>873.0</ele><time>2026-05-02T13:32:32.977Z</time></trkpt><trkpt lat="45.5898107" lon="10.8800761"><ele>873.0</ele><time>2026-05-02T13:32:33.974Z</time></trkpt><trkpt lat="45.5897083" lon="10.8799666"><ele>873.0</ele><time>2026-05-02T13:32:34.978Z</time></trkpt><trkpt lat="45.5896269" lon="10.8798383"><ele>873.0</ele><time>2026-05-02T13:32:35.971Z</time></trkpt><trkpt lat="45.5895585" lon="10.8796806"><ele>873.0</ele><time>2026-05-02T13:32:36.98Z</time></trkpt><trkpt lat="45.5895158" lon="10.879512"><ele>870.4</ele><time>2026-05-02T13:32:37.973Z</time></trkpt><trkpt lat="45.5894874" lon="10.8793294"><ele>867.8</ele><time>2026-05-02T13:32:38.974Z</time></trkpt><trkpt lat="45.589463" lon="10.8791714"><ele>865.2</ele><time>2026-05-02T13:32:39.983Z</time></trkpt><trkpt lat="45.5894223" lon="10.8790464"><ele>862.6</ele><time>2026-05-02T13:32:40.972Z</time></trkpt><trkpt lat="45.5893707" lon="10.8789566"><ele>860.0</ele><time>2026-05-02T13:32:41.967Z</time></trkpt><trkpt lat="45.5893063" lon="10.8788986"><ele>860.0</ele><time>2026-05-02T13:32:42.965Z</time></trkpt><trkpt lat="45.5892328" lon="10.8788943"><ele>860.0</ele><time>2026-05-02T13:32:43.971Z</time></trkpt><trkpt lat="45.5891459" lon="10.8789413"><ele>860.0</ele><time>2026-05-02T13:32:44.971Z</time></trkpt><trkpt lat="45.5890579" lon="10.8790021"><ele>860.0</ele><time>2026-05-02T13:32:45.976Z</time></trkpt><trkpt lat="45.5889598" lon="10.8789979"><ele>860.0</ele><time>2026-05-02T13:32:46.976Z</time></trkpt><trkpt lat="45.5888482" lon="10.8789803"><ele>860.0</ele><time>2026-05-02T13:32:47.974Z</time></trkpt><trkpt lat="45.5887422" lon="10.8789648"><ele>860.0</ele><time>2026-05-02T13:32:48.971Z</time></trkpt><trkpt lat="45.5886466" lon="10.8789561"><ele>860.0</ele><time>2026-05-02T13:32:49.967Z</time></trkpt><trkpt lat="45.5885496" lon="10.8789432"><ele>860.0</ele><time>2026-05-02T13:32:50.965Z</time></trkpt><trkpt lat="45.5884508" lon="10.8789235"><ele>860.0</ele><time>2026-05-02T13:32:51.97Z</time></trkpt><trkpt lat="45.5883425" lon="10.8788912"><ele>857.0</ele><time>2026-05-02T13:32:52.97Z</time></trkpt><trkpt lat="45.5882271" lon="10.8788603"><ele>854.0</ele><time>2026-05-02T13:32:53.982Z</time></trkpt><trkpt lat="45.5881164" lon="10.8788271"><ele>851.0</ele><time>2026-05-02T13:32:54.97Z</time></trkpt><trkpt lat="45.5880021" lon="10.8787903"><ele>848.0</ele><time>2026-05-02T13:32:55.964Z</time></trkpt><trkpt lat="45.5878947" lon="10.8787498"><ele>847.2</ele><time>2026-05-02T13:32:56.972Z</time></trkpt><trkpt lat="45.5877916" lon="10.8786845"><ele>846.4</ele><time>2026-05-02T13:32:57.967Z</time></trkpt><trkpt lat="45.5877014" lon="10.8786"><ele>845.6</ele><time>2026-05-02T13:32:58.954Z</time></trkpt><trkpt lat="45.5876169" lon="10.8785065"><ele>844.8000000000001</ele><time>2026-05-02T13:32:59.951Z</time></trkpt><trkpt lat="45.5875444" lon="10.8783897"><ele>844.0</ele><time>2026-05-02T13:33:00.96Z</time></trkpt><trkpt lat="45.5874849" lon="10.8782639"><ele>844.0</ele><time>2026-05-02T13:33:01.967Z</time></trkpt><trkpt lat="45.587437" lon="10.8781293"><ele>844.0</ele><time>2026-05-02T13:33:02.963Z</time></trkpt><trkpt lat="45.5874022" lon="10.8779977"><ele>844.0</ele><time>2026-05-02T13:33:03.958Z</time></trkpt><trkpt lat="45.587377" lon="10.8778625"><ele>844.0</ele><time>2026-05-02T13:33:04.97Z</time></trkpt><trkpt lat="45.5873704" lon="10.8777271"><ele>844.0</ele><time>2026-05-02T13:33:05.96Z</time></trkpt><trkpt lat="45.5873898" lon="10.8775782"><ele>843.6</ele><time>2026-05-02T13:33:06.969Z</time></trkpt><trkpt lat="45.5874227" lon="10.8774373"><ele>843.2</ele><time>2026-05-02T13:33:08.028Z</time></trkpt><trkpt lat="45.5874508" lon="10.8772856"><ele>842.8000000000001</ele><time>2026-05-02T13:33:09.026Z</time></trkpt><trkpt lat="45.5874775" lon="10.8771362"><ele>842.4000000000001</ele><time>2026-05-02T13:33:09.991Z</time></trkpt><trkpt lat="45.5875034" lon="10.8769917"><ele>842.0</ele><time>2026-05-02T13:33:10.968Z</time></trkpt><trkpt lat="45.5875267" lon="10.8768533"><ele>841.8</ele><time>2026-05-02T13:33:11.973Z</time></trkpt><trkpt lat="45.5875417" lon="10.8767131"><ele>841.6</ele><time>2026-05-02T13:33:12.972Z</time></trkpt><trkpt lat="45.5875534" lon="10.8765718"><ele>841.4</ele><time>2026-05-02T13:33:13.974Z</time></trkpt><trkpt lat="45.5875462" lon="10.8764425"><ele>841.1999999999999</ele><time>2026-05-02T13:33:14.969Z</time></trkpt><trkpt lat="45.5875102" lon="10.876332"><ele>841.0</ele><time>2026-05-02T13:33:15.973Z</time></trkpt><trkpt lat="45.5874337" lon="10.8762488"><ele>841.0</ele><time>2026-05-02T13:33:16.982Z</time></trkpt><trkpt lat="45.5873299" lon="10.876175"><ele>841.0</ele><time>2026-05-02T13:33:17.962Z</time></trkpt><trkpt lat="45.5872431" lon="10.8761017"><ele>841.0</ele><time>2026-05-02T13:33:18.973Z</time></trkpt><trkpt lat="45.5871805" lon="10.8760076"><ele>841.0</ele><time>2026-05-02T13:33:19.971Z</time></trkpt><trkpt lat="45.5871192" lon="10.8759152"><ele>841.0</ele><time>2026-05-02T13:33:20.973Z</time></trkpt><trkpt lat="45.5870448" lon="10.8758427"><ele>839.0</ele><time>2026-05-02T13:33:21.972Z</time></trkpt><trkpt lat="45.586961" lon="10.8757825"><ele>837.0</ele><time>2026-05-02T13:33:22.976Z</time></trkpt><trkpt lat="45.5868541" lon="10.8757476"><ele>835.0</ele><time>2026-05-02T13:33:23.97Z</time></trkpt><trkpt lat="45.5867458" lon="10.8757187"><ele>833.0</ele><time>2026-05-02T13:33:24.971Z</time></trkpt><trkpt lat="45.5866396" lon="10.8756866"><ele>831.0</ele><time>2026-05-02T13:33:25.971Z</time></trkpt><trkpt lat="45.5865347" lon="10.8756632"><ele>831.0</ele><time>2026-05-02T13:33:26.976Z</time></trkpt><trkpt lat="45.5864373" lon="10.8756319"><ele>831.0</ele><time>2026-05-02T13:33:27.976Z</time></trkpt><trkpt lat="45.5863504" lon="10.8755934"><ele>831.0</ele><time>2026-05-02T13:33:29.043Z</time></trkpt><trkpt lat="45.5862762" lon="10.8755687"><ele>831.0</ele><time>2026-05-02T13:33:29.952Z</time></trkpt><trkpt lat="45.5862127" lon="10.8755321"><ele>831.0</ele><time>2026-05-02T13:33:30.972Z</time></trkpt><trkpt lat="45.5861399" lon="10.8754987"><ele>831.0</ele><time>2026-05-02T13:33:31.971Z</time></trkpt><trkpt lat="45.5860642" lon="10.8754588"><ele>830.6666666666666</ele><time>2026-05-02T13:33:32.984Z</time></trkpt><trkpt lat="45.5859924" lon="10.8754128"><ele>830.3333333333333</ele><time>2026-05-02T13:33:33.967Z</time></trkpt><trkpt lat="45.5859247" lon="10.8753661"><ele>830.0</ele><time>2026-05-02T13:33:34.975Z</time></trkpt><trkpt lat="45.5858593" lon="10.875318"><ele>829.6666666666666</ele><time>2026-05-02T13:33:35.954Z</time></trkpt><trkpt lat="45.5858032" lon="10.8752656"><ele>829.3333333333333</ele><time>2026-05-02T13:33:36.98Z</time></trkpt><trkpt lat="45.5857592" lon="10.8751993"><ele>829.0</ele><time>2026-05-02T13:33:38.007Z</time></trkpt><trkpt lat="45.5857046" lon="10.8750464"><ele>828.9999999999999</ele><time>2026-05-02T13:33:40.048Z</time></trkpt><trkpt lat="45.5856459" lon="10.8749025"><ele>829.0</ele><time>2026-05-02T13:33:41.971Z</time></trkpt><trkpt lat="45.5855588" lon="10.874802"><ele>829.0</ele><time>2026-05-02T13:33:43.969Z</time></trkpt><trkpt lat="45.585498" lon="10.8747634"><ele>829.0</ele><time>2026-05-02T13:33:44.966Z</time></trkpt><trkpt lat="45.58543" lon="10.8747424"><ele>828.9999999999999</ele><time>2026-05-02T13:33:45.97Z</time></trkpt><trkpt lat="45.5853507" lon="10.8747085"><ele>829.0</ele><time>2026-05-02T13:33:46.97Z</time></trkpt><trkpt lat="45.5852652" lon="10.8746901"><ele>825.8000000000001</ele><time>2026-05-02T13:33:48.037Z</time></trkpt><trkpt lat="45.5851635" lon="10.8747158"><ele>822.6</ele><time>2026-05-02T13:33:49.035Z</time></trkpt><trkpt lat="45.5850521" lon="10.8747398"><ele>819.4</ele><time>2026-05-02T13:33:50.014Z</time></trkpt><trkpt lat="45.5849496" lon="10.8747674"><ele>816.2</ele><time>2026-05-02T13:33:50.957Z</time></trkpt><trkpt lat="45.5848398" lon="10.8747896"><ele>813.0</ele><time>2026-05-02T13:33:52.017Z</time></trkpt><trkpt lat="45.5847377" lon="10.874796"><ele>813.0</ele><time>2026-05-02T13:33:53.028Z</time></trkpt><trkpt lat="45.5846342" lon="10.874791"><ele>813.0</ele><time>2026-05-02T13:33:54.022Z</time></trkpt><trkpt lat="45.5845295" lon="10.8747777"><ele>813.0</ele><time>2026-05-02T13:33:55.039Z</time></trkpt><trkpt lat="45.5844341" lon="10.874757"><ele>813.0</ele><time>2026-05-02T13:33:55.98Z</time></trkpt><trkpt lat="45.5843391" lon="10.8747309"><ele>813.0</ele><time>2026-05-02T13:33:56.962Z</time></trkpt><trkpt lat="45.5842422" lon="10.8746999"><ele>810.5999999999999</ele><time>2026-05-02T13:33:57.978Z</time></trkpt><trkpt lat="45.5841429" lon="10.8746654"><ele>808.1999999999999</ele><time>2026-05-02T13:33:59.039Z</time></trkpt><trkpt lat="45.5840496" lon="10.8746329"><ele>805.8</ele><time>2026-05-02T13:34:00.026Z</time></trkpt><trkpt lat="45.5839449" lon="10.8746042"><ele>803.4</ele><time>2026-05-02T13:34:00.965Z</time></trkpt><trkpt lat="45.5838434" lon="10.8745803"><ele>801.0</ele><time>2026-05-02T13:34:01.962Z</time></trkpt><trkpt lat="45.5837452" lon="10.8745539"><ele>797.8</ele><time>2026-05-02T13:34:02.991Z</time></trkpt><trkpt lat="45.5836482" lon="10.8745258"><ele>794.5999999999999</ele><time>2026-05-02T13:34:03.975Z</time></trkpt><trkpt lat="45.5835457" lon="10.8744992"><ele>791.4</ele><time>2026-05-02T13:34:04.953Z</time></trkpt><trkpt lat="45.5834487" lon="10.8744767"><ele>788.2</ele><time>2026-05-02T13:34:05.96Z</time></trkpt><trkpt lat="45.5833598" lon="10.8744539"><ele>785.0</ele><time>2026-05-02T13:34:06.964Z</time></trkpt><trkpt lat="45.5832798" lon="10.8744288"><ele>785.0000000000001</ele><time>2026-05-02T13:34:07.945Z</time></trkpt><trkpt lat="45.583202" lon="10.8744024"><ele>785.0</ele><time>2026-05-02T13:34:08.944Z</time></trkpt><trkpt lat="45.5831286" lon="10.8743565"><ele>785.0</ele><time>2026-05-02T13:34:09.946Z</time></trkpt><trkpt lat="45.5830797" lon="10.8742797"><ele>785.0</ele><time>2026-05-02T13:34:10.946Z</time></trkpt><trkpt lat="45.5830433" lon="10.8741764"><ele>785.0000000000001</ele><time>2026-05-02T13:34:11.949Z</time></trkpt><trkpt lat="45.5830169" lon="10.8740625"><ele>785.0</ele><time>2026-05-02T13:34:12.943Z</time></trkpt><trkpt lat="45.5829892" lon="10.8739607"><ele>785.1428571428572</ele><time>2026-05-02T13:34:13.949Z</time></trkpt><trkpt lat="45.582959" lon="10.8738715"><ele>785.2857142857142</ele><time>2026-05-02T13:34:14.943Z</time></trkpt><trkpt lat="45.5829275" lon="10.87378"><ele>785.4285714285714</ele><time>2026-05-02T13:34:15.944Z</time></trkpt><trkpt lat="45.5828825" lon="10.8736942"><ele>785.5714285714287</ele><time>2026-05-02T13:34:16.95Z</time></trkpt><trkpt lat="45.5828155" lon="10.8736272"><ele>785.7142857142858</ele><time>2026-05-02T13:34:17.947Z</time></trkpt><trkpt lat="45.5827512" lon="10.8735976"><ele>785.8571428571429</ele><time>2026-05-02T13:34:18.973Z</time></trkpt><trkpt lat="45.5826803" lon="10.8735991"><ele>786.0</ele><time>2026-05-02T13:34:19.966Z</time></trkpt><trkpt lat="45.5826183" lon="10.8735828"><ele>786.0000000000001</ele><time>2026-05-02T13:34:20.953Z</time></trkpt><trkpt lat="45.5825516" lon="10.8735851"><ele>786.0</ele><time>2026-05-02T13:34:21.983Z</time></trkpt><trkpt lat="45.5824859" lon="10.8735872"><ele>786.0</ele><time>2026-05-02T13:34:22.951Z</time></trkpt><trkpt lat="45.5824197" lon="10.8735674"><ele>786.0</ele><time>2026-05-02T13:34:23.971Z</time></trkpt><trkpt lat="45.5823524" lon="10.873541"><ele>786.0</ele><time>2026-05-02T13:34:24.956Z</time></trkpt><trkpt lat="45.5822802" lon="10.8735095"><ele>786.0000000000001</ele><time>2026-05-02T13:34:25.961Z</time></trkpt><trkpt lat="45.5822083" lon="10.8734552"><ele>786.0</ele><time>2026-05-02T13:34:26.955Z</time></trkpt><trkpt lat="45.5821418" lon="10.8734034"><ele>786.3333333333334</ele><time>2026-05-02T13:34:27.947Z</time></trkpt><trkpt lat="45.5820851" lon="10.873352"><ele>786.6666666666667</ele><time>2026-05-02T13:34:28.961Z</time></trkpt><trkpt lat="45.5820217" lon="10.873291"><ele>787.0</ele><time>2026-05-02T13:34:29.973Z</time></trkpt><trkpt lat="45.5819529" lon="10.8732219"><ele>787.3333333333334</ele><time>2026-05-02T13:34:30.963Z</time></trkpt><trkpt lat="45.5819007" lon="10.8731583"><ele>787.6666666666667</ele><time>2026-05-02T13:34:31.967Z</time></trkpt><trkpt lat="45.5818516" lon="10.8730749"><ele>788.0</ele><time>2026-05-02T13:34:32.977Z</time></trkpt><trkpt lat="45.581798" lon="10.8729924"><ele>788.0000000000001</ele><time>2026-05-02T13:34:33.97Z</time></trkpt><trkpt lat="45.5817509" lon="10.872932"><ele>788.0</ele><time>2026-05-02T13:34:34.963Z</time></trkpt><trkpt lat="45.5816957" lon="10.8728758"><ele>788.0</ele><time>2026-05-02T13:34:35.968Z</time></trkpt><trkpt lat="45.5815709" lon="10.8728269"><ele>788.0</ele><time>2026-05-02T13:34:37.959Z</time></trkpt><trkpt lat="45.5815079" lon="10.8728232"><ele>788.0000000000001</ele><time>2026-05-02T13:34:38.975Z</time></trkpt><trkpt lat="45.581391" lon="10.8728476"><ele>788.0</ele><time>2026-05-02T13:34:40.968Z</time></trkpt><trkpt lat="45.5812812" lon="10.8729281"><ele>788.0000000000001</ele><time>2026-05-02T13:34:42.967Z</time></trkpt><trkpt lat="45.5812131" lon="10.8729521"><ele>788.0</ele><time>2026-05-02T13:34:43.955Z</time></trkpt><trkpt lat="45.5810932" lon="10.8729539"><ele>788.0</ele><time>2026-05-02T13:34:45.967Z</time></trkpt><trkpt lat="45.5810285" lon="10.8729525"><ele>788.0</ele><time>2026-05-02T13:34:47.04Z</time></trkpt><trkpt lat="45.5809653" lon="10.8729264"><ele>788.0000000000001</ele><time>2026-05-02T13:34:48.028Z</time></trkpt><trkpt lat="45.5808477" lon="10.8728826"><ele>788.0</ele><time>2026-05-02T13:34:49.967Z</time></trkpt><trkpt lat="45.580786" lon="10.8728579"><ele>784.4</ele><time>2026-05-02T13:34:50.965Z</time></trkpt><trkpt lat="45.5806702" lon="10.8728046"><ele>780.8</ele><time>2026-05-02T13:34:52.963Z</time></trkpt><trkpt lat="45.5805481" lon="10.8727511"><ele>777.2</ele><time>2026-05-02T13:34:54.969Z</time></trkpt><trkpt lat="45.5804332" lon="10.8727074"><ele>773.6</ele><time>2026-05-02T13:34:56.974Z</time></trkpt><trkpt lat="45.5803694" lon="10.8726837"><ele>770.0</ele><time>2026-05-02T13:34:58.018Z</time></trkpt><trkpt lat="45.58031" lon="10.8726435"><ele>770.7142857142857</ele><time>2026-05-02T13:34:58.966Z</time></trkpt><trkpt lat="45.5802492" lon="10.8726044"><ele>771.4285714285714</ele><time>2026-05-02T13:34:59.966Z</time></trkpt><trkpt lat="45.5801826" lon="10.8725657"><ele>772.1428571428571</ele><time>2026-05-02T13:35:00.963Z</time></trkpt><trkpt lat="45.5801227" lon="10.8725256"><ele>772.8571428571429</ele><time>2026-05-02T13:35:01.965Z</time></trkpt><trkpt lat="45.5800688" lon="10.8724765"><ele>773.5714285714286</ele><time>2026-05-02T13:35:02.956Z</time></trkpt><trkpt lat="45.5800126" lon="10.8724343"><ele>774.2857142857142</ele><time>2026-05-02T13:35:04.035Z</time></trkpt><trkpt lat="45.5799529" lon="10.8723936"><ele>775.0</ele><time>2026-05-02T13:35:05.034Z</time></trkpt><trkpt lat="45.5798526" lon="10.8722767"><ele>775.0</ele><time>2026-05-02T13:35:06.965Z</time></trkpt><trkpt lat="45.5797854" lon="10.8721489"><ele>775.0</ele><time>2026-05-02T13:35:08.968Z</time></trkpt><trkpt lat="45.5797398" lon="10.8719865"><ele>775.0</ele><time>2026-05-02T13:35:10.963Z</time></trkpt><trkpt lat="45.5797082" lon="10.8718897"><ele>775.0</ele><time>2026-05-02T13:35:11.966Z</time></trkpt><trkpt lat="45.5796805" lon="10.8718004"><ele>775.0</ele><time>2026-05-02T13:35:12.97Z</time></trkpt><trkpt lat="45.5795821" lon="10.8716869"><ele>774.4999999999999</ele><time>2026-05-02T13:35:14.968Z</time></trkpt><trkpt lat="45.5794526" lon="10.8716846"><ele>774.0</ele><time>2026-05-02T13:35:16.964Z</time></trkpt><trkpt lat="45.5793857" lon="10.8717058"><ele>773.5</ele><time>2026-05-02T13:35:17.967Z</time></trkpt><trkpt lat="45.5793144" lon="10.8717329"><ele>773.0</ele><time>2026-05-02T13:35:18.959Z</time></trkpt><trkpt lat="45.5792508" lon="10.8717505"><ele>772.4999999999999</ele><time>2026-05-02T13:35:19.96Z</time></trkpt><trkpt lat="45.5791847" lon="10.8717744"><ele>772.0</ele><time>2026-05-02T13:35:20.993Z</time></trkpt><trkpt lat="45.5791188" lon="10.8717996"><ele>766.6</ele><time>2026-05-02T13:35:21.976Z</time></trkpt><trkpt lat="45.5790007" lon="10.8718142"><ele>761.2</ele><time>2026-05-02T13:35:23.948Z</time></trkpt><trkpt lat="45.5789361" lon="10.8718175"><ele>755.8</ele><time>2026-05-02T13:35:24.964Z</time></trkpt><trkpt lat="45.5788288" lon="10.871828"><ele>750.4</ele><time>2026-05-02T13:35:26.953Z</time></trkpt><trkpt lat="45.5787103" lon="10.8718083"><ele>745.0</ele><time>2026-05-02T13:35:28.98Z</time></trkpt><trkpt lat="45.5786446" lon="10.8717759"><ele>746.4</ele><time>2026-05-02T13:35:29.969Z</time></trkpt><trkpt lat="45.5785774" lon="10.8717497"><ele>747.8</ele><time>2026-05-02T13:35:30.958Z</time></trkpt><trkpt lat="45.5785163" lon="10.8717214"><ele>749.2</ele><time>2026-05-02T13:35:32.019Z</time></trkpt><trkpt lat="45.5784003" lon="10.8716619"><ele>750.6</ele><time>2026-05-02T13:35:33.96Z</time></trkpt><trkpt lat="45.578298" lon="10.8716085"><ele>752.0</ele><time>2026-05-02T13:35:35.96Z</time></trkpt><trkpt lat="45.5781878" lon="10.8715321"><ele>752.0</ele><time>2026-05-02T13:35:38.045Z</time></trkpt><trkpt lat="45.578069" lon="10.8714657"><ele>752.0</ele><time>2026-05-02T13:35:40.025Z</time></trkpt><trkpt lat="45.5780104" lon="10.8714305"><ele>752.0</ele><time>2026-05-02T13:35:40.968Z</time></trkpt><trkpt lat="45.5779526" lon="10.8713918"><ele>752.0</ele><time>2026-05-02T13:35:41.973Z</time></trkpt><trkpt lat="45.5778893" lon="10.8713522"><ele>752.0</ele><time>2026-05-02T13:35:42.983Z</time></trkpt><trkpt lat="45.5778247" lon="10.8713116"><ele>752.0</ele><time>2026-05-02T13:35:43.967Z</time></trkpt><trkpt lat="45.5777608" lon="10.8712731"><ele>752.8333333333333</ele><time>2026-05-02T13:35:44.973Z</time></trkpt><trkpt lat="45.5776933" lon="10.8712295"><ele>753.6666666666666</ele><time>2026-05-02T13:35:45.978Z</time></trkpt><trkpt lat="45.5776277" lon="10.8711827"><ele>754.5</ele><time>2026-05-02T13:35:47.037Z</time></trkpt><trkpt lat="45.5775638" lon="10.8711298"><ele>755.3333333333334</ele><time>2026-05-02T13:35:47.982Z</time></trkpt><trkpt lat="45.5775081" lon="10.871072"><ele>756.1666666666667</ele><time>2026-05-02T13:35:48.968Z</time></trkpt><trkpt lat="45.5774624" lon="10.8710098"><ele>757.0</ele><time>2026-05-02T13:35:49.97Z</time></trkpt><trkpt lat="45.5773942" lon="10.8708539"><ele>757.0</ele><time>2026-05-02T13:35:51.971Z</time></trkpt><trkpt lat="45.5773194" lon="10.8707037"><ele>757.0</ele><time>2026-05-02T13:35:53.966Z</time></trkpt><trkpt lat="45.5772659" lon="10.8706496"><ele>757.0</ele><time>2026-05-02T13:35:54.971Z</time></trkpt><trkpt lat="45.5771987" lon="10.8706385"><ele>757.0</ele><time>2026-05-02T13:35:55.968Z</time></trkpt><trkpt lat="45.5771292" lon="10.8706649"><ele>757.0</ele><time>2026-05-02T13:35:56.955Z</time></trkpt><trkpt lat="45.5770652" lon="10.8706796"><ele>757.0</ele><time>2026-05-02T13:35:58.023Z</time></trkpt><trkpt lat="45.5769411" lon="10.8706781"><ele>753.0</ele><time>2026-05-02T13:35:59.967Z</time></trkpt><trkpt lat="45.5768268" lon="10.8706366"><ele>749.0</ele><time>2026-05-02T13:36:01.947Z</time></trkpt><trkpt lat="45.5767356" lon="10.8705638"><ele>745.0</ele><time>2026-05-02T13:36:04.027Z</time></trkpt><trkpt lat="45.5766689" lon="10.870495"><ele>741.0</ele><time>2026-05-02T13:36:05.971Z</time></trkpt><trkpt lat="45.5766083" lon="10.8704502"><ele>737.0</ele><time>2026-05-02T13:36:08.047Z</time></trkpt><trkpt lat="45.5765129" lon="10.8704077"><ele>737.0</ele><time>2026-05-02T13:36:10.977Z</time></trkpt><trkpt lat="45.576417" lon="10.8703693"><ele>737.0</ele><time>2026-05-02T13:36:12.96Z</time></trkpt><trkpt lat="45.5763192" lon="10.8703076"><ele>737.0</ele><time>2026-05-02T13:36:14.956Z</time></trkpt><trkpt lat="45.5762205" lon="10.8702527"><ele>737.0</ele><time>2026-05-02T13:36:16.964Z</time></trkpt><trkpt lat="45.576157" lon="10.8702088"><ele>737.0</ele><time>2026-05-02T13:36:17.964Z</time></trkpt><trkpt lat="45.5760594" lon="10.8701161"><ele>736.4000000000001</ele><time>2026-05-02T13:36:19.973Z</time></trkpt><trkpt lat="45.5759955" lon="10.8700189"><ele>735.8000000000001</ele><time>2026-05-02T13:36:21.956Z</time></trkpt><trkpt lat="45.5759179" lon="10.8700412"><ele>735.2</ele><time>2026-05-02T13:36:24.977Z</time></trkpt><trkpt lat="45.5759691" lon="10.8701563"><ele>734.6</ele><time>2026-05-02T13:37:07.986Z</time></trkpt><trkpt lat="45.5760395" lon="10.870287"><ele>734.0</ele><time>2026-05-02T13:37:09.969Z</time></trkpt><trkpt lat="45.5761253" lon="10.8704094"><ele>734.5</ele><time>2026-05-02T13:37:12.023Z</time></trkpt><trkpt lat="45.576172" lon="10.8704766"><ele>735.0</ele><time>2026-05-02T13:37:13.023Z</time></trkpt><trkpt lat="45.576288" lon="10.8705734"><ele>735.5</ele><time>2026-05-02T13:37:14.965Z</time></trkpt><trkpt lat="45.5763485" lon="10.8706159"><ele>736.0</ele><time>2026-05-02T13:37:15.969Z</time></trkpt><trkpt lat="45.5764125" lon="10.870654"><ele>736.5</ele><time>2026-05-02T13:37:16.973Z</time></trkpt><trkpt lat="45.5764793" lon="10.8706979"><ele>737.0</ele><time>2026-05-02T13:37:17.96Z</time></trkpt><trkpt lat="45.5765498" lon="10.8707401"><ele>737.0000000000001</ele><time>2026-05-02T13:37:18.967Z</time></trkpt><trkpt lat="45.5766193" lon="10.8707903"><ele>737.0</ele><time>2026-05-02T13:37:19.965Z</time></trkpt><trkpt lat="45.5766877" lon="10.870842"><ele>737.0</ele><time>2026-05-02T13:37:21.007Z</time></trkpt><trkpt lat="45.5767537" lon="10.8709014"><ele>737.0</ele><time>2026-05-02T13:37:21.973Z</time></trkpt><trkpt lat="45.5768121" lon="10.8709672"><ele>737.0</ele><time>2026-05-02T13:37:23.025Z</time></trkpt><trkpt lat="45.5768715" lon="10.871015"><ele>737.0000000000001</ele><time>2026-05-02T13:37:23.957Z</time></trkpt><trkpt lat="45.576944" lon="10.871032"><ele>737.0</ele><time>2026-05-02T13:37:24.975Z</time></trkpt><trkpt lat="45.5770646" lon="10.8710619"><ele>735.1666666666666</ele><time>2026-05-02T13:37:26.975Z</time></trkpt><trkpt lat="45.5771704" lon="10.8711395"><ele>733.3333333333333</ele><time>2026-05-02T13:37:29.021Z</time></trkpt><trkpt lat="45.5772181" lon="10.8712097"><ele>731.5</ele><time>2026-05-02T13:37:29.967Z</time></trkpt><trkpt lat="45.5772613" lon="10.871285"><ele>729.6666666666666</ele><time>2026-05-02T13:37:30.973Z</time></trkpt><trkpt lat="45.5773049" lon="10.8713729"><ele>727.8333333333334</ele><time>2026-05-02T13:37:31.968Z</time></trkpt><trkpt lat="45.5773543" lon="10.8714559"><ele>726.0</ele><time>2026-05-02T13:37:33.086Z</time></trkpt><trkpt lat="45.5774018" lon="10.8715238"><ele>726.0</ele><time>2026-05-02T13:37:34.023Z</time></trkpt><trkpt lat="45.5774977" lon="10.8716318"><ele>726.0</ele><time>2026-05-02T13:37:35.977Z</time></trkpt><trkpt lat="45.5775517" lon="10.8717016"><ele>726.0</ele><time>2026-05-02T13:37:36.969Z</time></trkpt><trkpt lat="45.5776061" lon="10.8717627"><ele>726.0</ele><time>2026-05-02T13:37:37.963Z</time></trkpt><trkpt lat="45.5776586" lon="10.8718143"><ele>726.0</ele><time>2026-05-02T13:37:38.962Z</time></trkpt><trkpt lat="45.5777147" lon="10.8718797"><ele>726.0</ele><time>2026-05-02T13:37:39.958Z</time></trkpt><trkpt lat="45.5777774" lon="10.8719512"><ele>725.6666666666666</ele><time>2026-05-02T13:37:40.961Z</time></trkpt><trkpt lat="45.5778408" lon="10.8720194"><ele>725.3333333333334</ele><time>2026-05-02T13:37:42.018Z</time></trkpt><trkpt lat="45.5779127" lon="10.8720832"><ele>725.0</ele><time>2026-05-02T13:37:43.023Z</time></trkpt><trkpt lat="45.5779739" lon="10.8721518"><ele>724.6666666666667</ele><time>2026-05-02T13:37:44.032Z</time></trkpt><trkpt lat="45.5780245" lon="10.8722495"><ele>724.3333333333334</ele><time>2026-05-02T13:37:44.958Z</time></trkpt><trkpt lat="45.5780762" lon="10.8723599"><ele>724.0</ele><time>2026-05-02T13:37:45.973Z</time></trkpt><trkpt lat="45.5781346" lon="10.8724802"><ele>724.0</ele><time>2026-05-02T13:37:46.958Z</time></trkpt><trkpt lat="45.5781996" lon="10.8725676"><ele>724.0</ele><time>2026-05-02T13:37:47.975Z</time></trkpt><trkpt lat="45.5782755" lon="10.8726422"><ele>724.0</ele><time>2026-05-02T13:37:48.956Z</time></trkpt><trkpt lat="45.5783491" lon="10.8726952"><ele>724.0</ele><time>2026-05-02T13:37:49.957Z</time></trkpt><trkpt lat="45.5784132" lon="10.8727435"><ele>724.0</ele><time>2026-05-02T13:37:50.966Z</time></trkpt><trkpt lat="45.5784813" lon="10.8727956"><ele>724.0</ele><time>2026-05-02T13:37:51.967Z</time></trkpt><trkpt lat="45.5785442" lon="10.8728576"><ele>722.8333333333334</ele><time>2026-05-02T13:37:52.968Z</time></trkpt><trkpt lat="45.5786085" lon="10.8729139"><ele>721.6666666666667</ele><time>2026-05-02T13:37:53.971Z</time></trkpt><trkpt lat="45.5786783" lon="10.8729788"><ele>720.5</ele><time>2026-05-02T13:37:54.965Z</time></trkpt><trkpt lat="45.5787459" lon="10.8730314"><ele>719.3333333333334</ele><time>2026-05-02T13:37:55.971Z</time></trkpt><trkpt lat="45.5788145" lon="10.8730713"><ele>718.1666666666666</ele><time>2026-05-02T13:37:56.969Z</time></trkpt><trkpt lat="45.5788859" lon="10.8731167"><ele>717.0</ele><time>2026-05-02T13:37:57.97Z</time></trkpt><trkpt lat="45.5789477" lon="10.8731672"><ele>717.0</ele><time>2026-05-02T13:37:58.973Z</time></trkpt><trkpt lat="45.5790031" lon="10.8732425"><ele>717.0</ele><time>2026-05-02T13:37:59.981Z</time></trkpt><trkpt lat="45.5790626" lon="10.8733268"><ele>717.0</ele><time>2026-05-02T13:38:00.975Z</time></trkpt><trkpt lat="45.57912" lon="10.8734111"><ele>717.0</ele><time>2026-05-02T13:38:01.968Z</time></trkpt><trkpt lat="45.5791751" lon="10.8734915"><ele>717.0</ele><time>2026-05-02T13:38:02.964Z</time></trkpt><trkpt lat="45.5792331" lon="10.8735681"><ele>717.0</ele><time>2026-05-02T13:38:03.972Z</time></trkpt><trkpt lat="45.5792907" lon="10.8736527"><ele>717.0</ele><time>2026-05-02T13:38:04.977Z</time></trkpt><trkpt lat="45.5793526" lon="10.8737287"><ele>717.0</ele><time>2026-05-02T13:38:05.974Z</time></trkpt><trkpt lat="45.5794118" lon="10.8737992"><ele>717.0</ele><time>2026-05-02T13:38:06.99Z</time></trkpt><trkpt lat="45.5794733" lon="10.8738634"><ele>717.0</ele><time>2026-05-02T13:38:07.992Z</time></trkpt><trkpt lat="45.5795457" lon="10.873939"><ele>717.0</ele><time>2026-05-02T13:38:08.958Z</time></trkpt><trkpt lat="45.5796105" lon="10.8740234"><ele>717.0</ele><time>2026-05-02T13:38:09.974Z</time></trkpt><trkpt lat="45.5796719" lon="10.8741051"><ele>717.0</ele><time>2026-05-02T13:38:10.97Z</time></trkpt><trkpt lat="45.5797382" lon="10.8741857"><ele>717.0</ele><time>2026-05-02T13:38:11.968Z</time></trkpt><trkpt lat="45.5798042" lon="10.874265"><ele>717.0</ele><time>2026-05-02T13:38:12.97Z</time></trkpt><trkpt lat="45.5798675" lon="10.8743468"><ele>717.0</ele><time>2026-05-02T13:38:13.971Z</time></trkpt><trkpt lat="45.5799222" lon="10.8744121"><ele>717.0</ele><time>2026-05-02T13:38:14.974Z</time></trkpt><trkpt lat="45.579973" lon="10.8744777"><ele>717.0</ele><time>2026-05-02T13:38:15.954Z</time></trkpt><trkpt lat="45.5800355" lon="10.8745428"><ele>712.6666666666666</ele><time>2026-05-02T13:38:16.973Z</time></trkpt><trkpt lat="45.5801016" lon="10.8745765"><ele>708.3333333333334</ele><time>2026-05-02T13:38:17.97Z</time></trkpt><trkpt lat="45.5801916" lon="10.8746624"><ele>704.0</ele><time>2026-05-02T13:38:19.971Z</time></trkpt><trkpt lat="45.5801767" lon="10.8747576"><ele>699.6666666666667</ele><time>2026-05-02T13:38:22.971Z</time></trkpt><trkpt lat="45.580113" lon="10.8747613"><ele>695.3333333333334</ele><time>2026-05-02T13:38:23.966Z</time></trkpt><trkpt lat="45.5800425" lon="10.8747271"><ele>691.0</ele><time>2026-05-02T13:38:24.966Z</time></trkpt><trkpt lat="45.5799651" lon="10.8746861"><ele>691.0</ele><time>2026-05-02T13:38:25.964Z</time></trkpt><trkpt lat="45.5798784" lon="10.8746406"><ele>691.0</ele><time>2026-05-02T13:38:26.97Z</time></trkpt><trkpt lat="45.5797864" lon="10.874582"><ele>691.0</ele><time>2026-05-02T13:38:27.968Z</time></trkpt><trkpt lat="45.5796844" lon="10.8745197"><ele>691.0</ele><time>2026-05-02T13:38:28.962Z</time></trkpt><trkpt lat="45.5795895" lon="10.8744404"><ele>691.0</ele><time>2026-05-02T13:38:29.969Z</time></trkpt><trkpt lat="45.5794929" lon="10.8743658"><ele>691.5</ele><time>2026-05-02T13:38:30.983Z</time></trkpt><trkpt lat="45.5793859" lon="10.8742921"><ele>692.0</ele><time>2026-05-02T13:38:31.971Z</time></trkpt><trkpt lat="45.5792762" lon="10.8742384"><ele>692.5</ele><time>2026-05-02T13:38:32.965Z</time></trkpt><trkpt lat="45.5791606" lon="10.8741959"><ele>693.0</ele><time>2026-05-02T13:38:33.971Z</time></trkpt><trkpt lat="45.5790445" lon="10.8741762"><ele>693.0</ele><time>2026-05-02T13:38:35.025Z</time></trkpt><trkpt lat="45.5789225" lon="10.8741785"><ele>693.0</ele><time>2026-05-02T13:38:36.006Z</time></trkpt><trkpt lat="45.5787946" lon="10.8741803"><ele>693.0</ele><time>2026-05-02T13:38:36.966Z</time></trkpt><trkpt lat="45.5786672" lon="10.8741638"><ele>693.0</ele><time>2026-05-02T13:38:37.963Z</time></trkpt><trkpt lat="45.5785395" lon="10.874116"><ele>688.0</ele><time>2026-05-02T13:38:38.966Z</time></trkpt><trkpt lat="45.5784013" lon="10.8740467"><ele>683.0</ele><time>2026-05-02T13:38:39.945Z</time></trkpt><trkpt lat="45.5782617" lon="10.8739628"><ele>678.0</ele><time>2026-05-02T13:38:40.97Z</time></trkpt><trkpt lat="45.5781323" lon="10.8738865"><ele>673.0</ele><time>2026-05-02T13:38:41.957Z</time></trkpt><trkpt lat="45.5780072" lon="10.8738036"><ele>673.0</ele><time>2026-05-02T13:38:43.041Z</time></trkpt><trkpt lat="45.5778795" lon="10.8737256"><ele>673.0</ele><time>2026-05-02T13:38:43.977Z</time></trkpt><trkpt lat="45.5777422" lon="10.8736008"><ele>673.0</ele><time>2026-05-02T13:38:44.968Z</time></trkpt><trkpt lat="45.5776112" lon="10.8734475"><ele>673.3333333333334</ele><time>2026-05-02T13:38:45.963Z</time></trkpt><trkpt lat="45.5774785" lon="10.8732793"><ele>673.6666666666666</ele><time>2026-05-02T13:38:46.971Z</time></trkpt><trkpt lat="45.5773472" lon="10.8731102"><ele>674.0</ele><time>2026-05-02T13:38:47.969Z</time></trkpt><trkpt lat="45.5772182" lon="10.8729655"><ele>674.0</ele><time>2026-05-02T13:38:48.975Z</time></trkpt><trkpt lat="45.5770908" lon="10.8728476"><ele>674.0</ele><time>2026-05-02T13:38:50.021Z</time></trkpt><trkpt lat="45.5769594" lon="10.8727823"><ele>674.0</ele><time>2026-05-02T13:38:50.963Z</time></trkpt><trkpt lat="45.5768207" lon="10.8727664"><ele>674.0</ele><time>2026-05-02T13:38:52.022Z</time></trkpt><trkpt lat="45.5766901" lon="10.8728143"><ele>671.25</ele><time>2026-05-02T13:38:52.97Z</time></trkpt><trkpt lat="45.5765824" lon="10.8729023"><ele>668.5</ele><time>2026-05-02T13:38:53.969Z</time></trkpt><trkpt lat="45.5764966" lon="10.8730123"><ele>665.75</ele><time>2026-05-02T13:38:54.97Z</time></trkpt><trkpt lat="45.5763993" lon="10.8731088"><ele>663.0</ele><time>2026-05-02T13:38:55.974Z</time></trkpt><trkpt lat="45.5762783" lon="10.8731734"><ele>662.0</ele><time>2026-05-02T13:38:56.974Z</time></trkpt><trkpt lat="45.5761384" lon="10.8732335"><ele>661.0</ele><time>2026-05-02T13:38:58.026Z</time></trkpt><trkpt lat="45.5759831" lon="10.8732615"><ele>660.0</ele><time>2026-05-02T13:38:59.029Z</time></trkpt><trkpt lat="45.5758137" lon="10.8732523"><ele>660.0</ele><time>2026-05-02T13:38:59.968Z</time></trkpt><trkpt lat="45.5756474" lon="10.8732129"><ele>660.0</ele><time>2026-05-02T13:39:00.97Z</time></trkpt><trkpt lat="45.575494" lon="10.873152"><ele>660.0</ele><time>2026-05-02T13:39:01.968Z</time></trkpt><trkpt lat="45.5753553" lon="10.8730536"><ele>660.3333333333334</ele><time>2026-05-02T13:39:02.963Z</time></trkpt><trkpt lat="45.5752206" lon="10.8729144"><ele>660.6666666666667</ele><time>2026-05-02T13:39:04.047Z</time></trkpt><trkpt lat="45.575086" lon="10.8727502"><ele>661.0</ele><time>2026-05-02T13:39:05.017Z</time></trkpt><trkpt lat="45.5749649" lon="10.8725722"><ele>661.0</ele><time>2026-05-02T13:39:05.976Z</time></trkpt><trkpt lat="45.5748325" lon="10.872392"><ele>661.0</ele><time>2026-05-02T13:39:06.97Z</time></trkpt><trkpt lat="45.5746971" lon="10.8722432"><ele>661.0</ele><time>2026-05-02T13:39:07.999Z</time></trkpt><trkpt lat="45.5745578" lon="10.872115"><ele>654.0</ele><time>2026-05-02T13:39:08.966Z</time></trkpt><trkpt lat="45.5744215" lon="10.872001"><ele>647.0</ele><time>2026-05-02T13:39:09.966Z</time></trkpt><trkpt lat="45.5742847" lon="10.8718914"><ele>640.0</ele><time>2026-05-02T13:39:10.962Z</time></trkpt><trkpt lat="45.5741482" lon="10.8717789"><ele>646.6666666666667</ele><time>2026-05-02T13:39:12.033Z</time></trkpt><trkpt lat="45.5740139" lon="10.8716614"><ele>653.3333333333334</ele><time>2026-05-02T13:39:13.024Z</time></trkpt><trkpt lat="45.5738873" lon="10.8715432"><ele>660.0</ele><time>2026-05-02T13:39:14.026Z</time></trkpt><trkpt lat="45.5737667" lon="10.8714163"><ele>660.25</ele><time>2026-05-02T13:39:14.971Z</time></trkpt><trkpt lat="45.5736509" lon="10.8712872"><ele>660.5</ele><time>2026-05-02T13:39:15.972Z</time></trkpt><trkpt lat="45.5735471" lon="10.8711604"><ele>660.75</ele><time>2026-05-02T13:39:16.959Z</time></trkpt><trkpt lat="45.5734451" lon="10.8710365"><ele>661.0</ele><time>2026-05-02T13:39:17.967Z</time></trkpt><trkpt lat="45.5733438" lon="10.8709154"><ele>661.0</ele><time>2026-05-02T13:39:18.967Z</time></trkpt><trkpt lat="45.5732462" lon="10.8707895"><ele>661.0</ele><time>2026-05-02T13:39:19.967Z</time></trkpt><trkpt lat="45.5731529" lon="10.8706654"><ele>661.0</ele><time>2026-05-02T13:39:20.967Z</time></trkpt><trkpt lat="45.573076" lon="10.8705304"><ele>661.0</ele><time>2026-05-02T13:39:21.969Z</time></trkpt><trkpt lat="45.5730175" lon="10.8703846"><ele>662.6666666666667</ele><time>2026-05-02T13:39:23.069Z</time></trkpt><trkpt lat="45.5729437" lon="10.8700449"><ele>664.3333333333334</ele><time>2026-05-02T13:39:24.967Z</time></trkpt><trkpt lat="45.5729043" lon="10.8698654"><ele>666.0</ele><time>2026-05-02T13:39:25.964Z</time></trkpt><trkpt lat="45.5728662" lon="10.8696806"><ele>659.75</ele><time>2026-05-02T13:39:26.972Z</time></trkpt><trkpt lat="45.572831" lon="10.8694861"><ele>653.5</ele><time>2026-05-02T13:39:27.961Z</time></trkpt><trkpt lat="45.5727966" lon="10.8692896"><ele>647.25</ele><time>2026-05-02T13:39:28.962Z</time></trkpt><trkpt lat="45.572755" lon="10.8690906"><ele>641.0</ele><time>2026-05-02T13:39:29.966Z</time></trkpt><trkpt lat="45.5727138" lon="10.8688956"><ele>640.75</ele><time>2026-05-02T13:39:30.964Z</time></trkpt><trkpt lat="45.5726672" lon="10.8687024"><ele>640.5</ele><time>2026-05-02T13:39:31.974Z</time></trkpt><trkpt lat="45.5726007" lon="10.8685246"><ele>640.25</ele><time>2026-05-02T13:39:32.973Z</time></trkpt><trkpt lat="45.572512" lon="10.8683728"><ele>640.0</ele><time>2026-05-02T13:39:33.962Z</time></trkpt><trkpt lat="45.5724083" lon="10.8682287"><ele>643.6666666666667</ele><time>2026-05-02T13:39:34.963Z</time></trkpt><trkpt lat="45.5722905" lon="10.8680893"><ele>647.3333333333334</ele><time>2026-05-02T13:39:35.968Z</time></trkpt><trkpt lat="45.5721625" lon="10.8679696"><ele>651.0</ele><time>2026-05-02T13:39:36.974Z</time></trkpt><trkpt lat="45.5720331" lon="10.8678792"><ele>649.25</ele><time>2026-05-02T13:39:38.07Z</time></trkpt><trkpt lat="45.5719043" lon="10.8678057"><ele>647.5</ele><time>2026-05-02T13:39:39.037Z</time></trkpt><trkpt lat="45.5717801" lon="10.8677247"><ele>645.75</ele><time>2026-05-02T13:39:39.969Z</time></trkpt><trkpt lat="45.5716673" lon="10.8676334"><ele>644.0</ele><time>2026-05-02T13:39:40.967Z</time></trkpt><trkpt lat="45.5715598" lon="10.8675359"><ele>644.0</ele><time>2026-05-02T13:39:42.022Z</time></trkpt><trkpt lat="45.5714498" lon="10.8674286"><ele>644.0</ele><time>2026-05-02T13:39:43.014Z</time></trkpt><trkpt lat="45.571335" lon="10.867322"><ele>644.0</ele><time>2026-05-02T13:39:44.022Z</time></trkpt><trkpt lat="45.5712183" lon="10.8672152"><ele>644.0</ele><time>2026-05-02T13:39:45.031Z</time></trkpt><trkpt lat="45.5711102" lon="10.8670915"><ele>642.75</ele><time>2026-05-02T13:39:45.97Z</time></trkpt><trkpt lat="45.5709975" lon="10.866965"><ele>641.5</ele><time>2026-05-02T13:39:47.031Z</time></trkpt><trkpt lat="45.5708838" lon="10.8668451"><ele>640.25</ele><time>2026-05-02T13:39:48.035Z</time></trkpt><trkpt lat="45.5707718" lon="10.8667312"><ele>639.0</ele><time>2026-05-02T13:39:49.03Z</time></trkpt><trkpt lat="45.5706585" lon="10.8666244"><ele>639.0</ele><time>2026-05-02T13:39:50.028Z</time></trkpt><trkpt lat="45.5705386" lon="10.866527"><ele>639.0</ele><time>2026-05-02T13:39:50.975Z</time></trkpt><trkpt lat="45.5704198" lon="10.8664521"><ele>639.0</ele><time>2026-05-02T13:39:51.971Z</time></trkpt><trkpt lat="45.5702989" lon="10.8664009"><ele>639.0</ele><time>2026-05-02T13:39:52.997Z</time></trkpt><trkpt lat="45.5701803" lon="10.8663911"><ele>635.5</ele><time>2026-05-02T13:39:53.961Z</time></trkpt><trkpt lat="45.5700626" lon="10.8663673"><ele>632.0</ele><time>2026-05-02T13:39:54.971Z</time></trkpt><trkpt lat="45.5699415" lon="10.866346"><ele>628.5</ele><time>2026-05-02T13:39:55.963Z</time></trkpt><trkpt lat="45.5698146" lon="10.8663341"><ele>625.0</ele><time>2026-05-02T13:39:56.966Z</time></trkpt><trkpt lat="45.5696868" lon="10.8663221"><ele>625.0</ele><time>2026-05-02T13:39:57.961Z</time></trkpt><trkpt lat="45.5695519" lon="10.8663075"><ele>625.0</ele><time>2026-05-02T13:39:58.972Z</time></trkpt><trkpt lat="45.5694124" lon="10.8662709"><ele>625.0</ele><time>2026-05-02T13:39:59.975Z</time></trkpt><trkpt lat="45.5692775" lon="10.8662175"><ele>625.0</ele><time>2026-05-02T13:40:00.974Z</time></trkpt><trkpt lat="45.5691488" lon="10.8661392"><ele>626.75</ele><time>2026-05-02T13:40:01.972Z</time></trkpt><trkpt lat="45.5690298" lon="10.8660385"><ele>628.5</ele><time>2026-05-02T13:40:02.973Z</time></trkpt><trkpt lat="45.5689184" lon="10.8659362"><ele>630.25</ele><time>2026-05-02T13:40:03.969Z</time></trkpt><trkpt lat="45.5688198" lon="10.8658519"><ele>632.0</ele><time>2026-05-02T13:40:04.968Z</time></trkpt><trkpt lat="45.5687226" lon="10.8657716"><ele>628.25</ele><time>2026-05-02T13:40:05.97Z</time></trkpt><trkpt lat="45.5686226" lon="10.8656959"><ele>624.5</ele><time>2026-05-02T13:40:06.959Z</time></trkpt><trkpt lat="45.5685206" lon="10.8656265"><ele>620.75</ele><time>2026-05-02T13:40:07.969Z</time></trkpt><trkpt lat="45.5684186" lon="10.8655524"><ele>617.0</ele><time>2026-05-02T13:40:08.977Z</time></trkpt><trkpt lat="45.5683152" lon="10.8654611"><ele>617.0</ele><time>2026-05-02T13:40:09.971Z</time></trkpt><trkpt lat="45.5682109" lon="10.8653549"><ele>617.0</ele><time>2026-05-02T13:40:10.969Z</time></trkpt><trkpt lat="45.5681155" lon="10.8652322"><ele>617.0</ele><time>2026-05-02T13:40:11.957Z</time></trkpt><trkpt lat="45.5680291" lon="10.8650974"><ele>617.0</ele><time>2026-05-02T13:40:12.969Z</time></trkpt><trkpt lat="45.567948" lon="10.8649458"><ele>616.5</ele><time>2026-05-02T13:40:13.965Z</time></trkpt><trkpt lat="45.5678594" lon="10.8648031"><ele>616.0</ele><time>2026-05-02T13:40:14.957Z</time></trkpt><trkpt lat="45.567749" lon="10.8646863"><ele>615.5</ele><time>2026-05-02T13:40:15.966Z</time></trkpt><trkpt lat="45.5676139" lon="10.8646328"><ele>615.0</ele><time>2026-05-02T13:40:16.969Z</time></trkpt><trkpt lat="45.5674763" lon="10.8646215"><ele>615.0</ele><time>2026-05-02T13:40:17.967Z</time></trkpt><trkpt lat="45.5673497" lon="10.8645886"><ele>615.0</ele><time>2026-05-02T13:40:19.033Z</time></trkpt><trkpt lat="45.5672257" lon="10.8645317"><ele>615.0</ele><time>2026-05-02T13:40:20.049Z</time></trkpt><trkpt lat="45.5670995" lon="10.8644435"><ele>615.0</ele><time>2026-05-02T13:40:20.971Z</time></trkpt><trkpt lat="45.5669824" lon="10.8643307"><ele>617.25</ele><time>2026-05-02T13:40:21.971Z</time></trkpt><trkpt lat="45.5668612" lon="10.8642214"><ele>619.5</ele><time>2026-05-02T13:40:23.021Z</time></trkpt><trkpt lat="45.5667403" lon="10.8641037"><ele>621.75</ele><time>2026-05-02T13:40:23.958Z</time></trkpt><trkpt lat="45.5666165" lon="10.8639839"><ele>624.0</ele><time>2026-05-02T13:40:24.97Z</time></trkpt><trkpt lat="45.5664973" lon="10.8638659"><ele>624.0</ele><time>2026-05-02T13:40:25.953Z</time></trkpt><trkpt lat="45.5663906" lon="10.8637701"><ele>624.0</ele><time>2026-05-02T13:40:26.962Z</time></trkpt><trkpt lat="45.5662882" lon="10.8636627"><ele>624.0</ele><time>2026-05-02T13:40:28.051Z</time></trkpt><trkpt lat="45.5661829" lon="10.8635473"><ele>624.0</ele><time>2026-05-02T13:40:29.03Z</time></trkpt><trkpt lat="45.5660824" lon="10.8634213"><ele>623.25</ele><time>2026-05-02T13:40:30.024Z</time></trkpt><trkpt lat="45.5659883" lon="10.8633011"><ele>622.5</ele><time>2026-05-02T13:40:30.971Z</time></trkpt><trkpt lat="45.5659059" lon="10.8631836"><ele>621.75</ele><time>2026-05-02T13:40:31.968Z</time></trkpt><trkpt lat="45.5658246" lon="10.8630644"><ele>621.0</ele><time>2026-05-02T13:40:33.036Z</time></trkpt><trkpt lat="45.5657412" lon="10.8629379"><ele>621.0</ele><time>2026-05-02T13:40:34.021Z</time></trkpt><trkpt lat="45.5656617" lon="10.8628157"><ele>621.0</ele><time>2026-05-02T13:40:35.028Z</time></trkpt><trkpt lat="45.5655843" lon="10.8627009"><ele>621.0</ele><time>2026-05-02T13:40:35.973Z</time></trkpt><trkpt lat="45.5655226" lon="10.8625924"><ele>621.0</ele><time>2026-05-02T13:40:36.974Z</time></trkpt><trkpt lat="45.5654632" lon="10.862498"><ele>621.0</ele><time>2026-05-02T13:40:37.997Z</time></trkpt><trkpt lat="45.5654146" lon="10.8624165"><ele>620.8333333333334</ele><time>2026-05-02T13:40:38.972Z</time></trkpt><trkpt lat="45.5653571" lon="10.8623487"><ele>620.6666666666666</ele><time>2026-05-02T13:40:40.013Z</time></trkpt><trkpt lat="45.5652893" lon="10.8622853"><ele>620.5</ele><time>2026-05-02T13:40:41Z</time></trkpt><trkpt lat="45.5652105" lon="10.8622379"><ele>620.3333333333333</ele><time>2026-05-02T13:40:41.967Z</time></trkpt><trkpt lat="45.5651419" lon="10.8622311"><ele>620.1666666666666</ele><time>2026-05-02T13:40:43.025Z</time></trkpt><trkpt lat="45.5650781" lon="10.8622272"><ele>620.0</ele><time>2026-05-02T13:40:44.071Z</time></trkpt><trkpt lat="45.5649748" lon="10.8622174"><ele>620.0</ele><time>2026-05-02T13:40:45.975Z</time></trkpt><trkpt lat="45.5648718" lon="10.8621931"><ele>620.0</ele><time>2026-05-02T13:40:47.973Z</time></trkpt><trkpt lat="45.5648071" lon="10.8621677"><ele>620.0</ele><time>2026-05-02T13:40:49.025Z</time></trkpt><trkpt lat="45.5646924" lon="10.8620761"><ele>620.0</ele><time>2026-05-02T13:40:50.971Z</time></trkpt><trkpt lat="45.5646169" lon="10.862018"><ele>620.0</ele><time>2026-05-02T13:40:51.979Z</time></trkpt><trkpt lat="45.5645259" lon="10.8619596"><ele>620.5</ele><time>2026-05-02T13:40:52.988Z</time></trkpt><trkpt lat="45.5644372" lon="10.8619173"><ele>621.0</ele><time>2026-05-02T13:40:54.036Z</time></trkpt><trkpt lat="45.5643533" lon="10.8618842"><ele>621.5</ele><time>2026-05-02T13:40:54.981Z</time></trkpt><trkpt lat="45.5642643" lon="10.8618755"><ele>622.0</ele><time>2026-05-02T13:40:55.951Z</time></trkpt><trkpt lat="45.564187" lon="10.8618697"><ele>622.5</ele><time>2026-05-02T13:40:56.953Z</time></trkpt><trkpt lat="45.5641074" lon="10.861871"><ele>623.0</ele><time>2026-05-02T13:40:57.961Z</time></trkpt><trkpt lat="45.5640336" lon="10.8618837"><ele>623.0</ele><time>2026-05-02T13:40:58.973Z</time></trkpt><trkpt lat="45.563967" lon="10.8619274"><ele>623.0</ele><time>2026-05-02T13:41:00.025Z</time></trkpt><trkpt lat="45.5639026" lon="10.8619788"><ele>623.0</ele><time>2026-05-02T13:41:00.955Z</time></trkpt><trkpt lat="45.5638309" lon="10.8620293"><ele>623.0</ele><time>2026-05-02T13:41:02.022Z</time></trkpt><trkpt lat="45.563763" lon="10.8620884"><ele>623.0</ele><time>2026-05-02T13:41:02.962Z</time></trkpt><trkpt lat="45.5636949" lon="10.8621593"><ele>623.0</ele><time>2026-05-02T13:41:03.972Z</time></trkpt><trkpt lat="45.5636209" lon="10.8622162"><ele>623.8333333333333</ele><time>2026-05-02T13:41:04.977Z</time></trkpt><trkpt lat="45.5635444" lon="10.8622588"><ele>624.6666666666666</ele><time>2026-05-02T13:41:05.97Z</time></trkpt><trkpt lat="45.5634637" lon="10.8622901"><ele>625.5</ele><time>2026-05-02T13:41:06.953Z</time></trkpt><trkpt lat="45.5633939" lon="10.862294"><ele>626.3333333333334</ele><time>2026-05-02T13:41:07.963Z</time></trkpt><trkpt lat="45.5633322" lon="10.8622753"><ele>627.1666666666667</ele><time>2026-05-02T13:41:08.981Z</time></trkpt><trkpt lat="45.5632465" lon="10.8621732"><ele>628.0</ele><time>2026-05-02T13:41:10.97Z</time></trkpt><trkpt lat="45.5632024" lon="10.8621014"><ele>628.0</ele><time>2026-05-02T13:41:11.966Z</time></trkpt><trkpt lat="45.563155" lon="10.8620153"><ele>628.0</ele><time>2026-05-02T13:41:12.95Z</time></trkpt><trkpt lat="45.5630918" lon="10.8619337"><ele>628.0</ele><time>2026-05-02T13:41:13.975Z</time></trkpt><trkpt lat="45.5630251" lon="10.8618664"><ele>628.0</ele><time>2026-05-02T13:41:14.98Z</time></trkpt><trkpt lat="45.5629538" lon="10.861801"><ele>628.0</ele><time>2026-05-02T13:41:15.971Z</time></trkpt><trkpt lat="45.5628761" lon="10.8617507"><ele>628.0</ele><time>2026-05-02T13:41:16.979Z</time></trkpt><trkpt lat="45.5627918" lon="10.8617004"><ele>630.5</ele><time>2026-05-02T13:41:17.991Z</time></trkpt><trkpt lat="45.5627117" lon="10.861649"><ele>633.0</ele><time>2026-05-02T13:41:18.962Z</time></trkpt><trkpt lat="45.5626292" lon="10.8616053"><ele>635.5</ele><time>2026-05-02T13:41:20.02Z</time></trkpt><trkpt lat="45.5625467" lon="10.8615632"><ele>638.0</ele><time>2026-05-02T13:41:20.971Z</time></trkpt><trkpt lat="45.5624649" lon="10.8615278"><ele>640.5</ele><time>2026-05-02T13:41:21.961Z</time></trkpt><trkpt lat="45.5623802" lon="10.8614917"><ele>643.0</ele><time>2026-05-02T13:41:23.03Z</time></trkpt><trkpt lat="45.5623021" lon="10.8614548"><ele>643.0</ele><time>2026-05-02T13:41:23.973Z</time></trkpt><trkpt lat="45.5622274" lon="10.8614016"><ele>643.0</ele><time>2026-05-02T13:41:24.978Z</time></trkpt><trkpt lat="45.5621571" lon="10.8613426"><ele>643.0</ele><time>2026-05-02T13:41:25.985Z</time></trkpt><trkpt lat="45.5620906" lon="10.8612832"><ele>643.0</ele><time>2026-05-02T13:41:26.967Z</time></trkpt><trkpt lat="45.5620209" lon="10.8612437"><ele>643.0</ele><time>2026-05-02T13:41:27.972Z</time></trkpt><trkpt lat="45.5619445" lon="10.861226"><ele>643.0</ele><time>2026-05-02T13:41:28.973Z</time></trkpt><trkpt lat="45.5618606" lon="10.861193"><ele>645.3333333333334</ele><time>2026-05-02T13:41:29.972Z</time></trkpt><trkpt lat="45.561785" lon="10.8611485"><ele>647.6666666666667</ele><time>2026-05-02T13:41:30.977Z</time></trkpt><trkpt lat="45.5617037" lon="10.861105"><ele>650.0</ele><time>2026-05-02T13:41:32.031Z</time></trkpt><trkpt lat="45.5616249" lon="10.8610613"><ele>652.3333333333334</ele><time>2026-05-02T13:41:32.978Z</time></trkpt><trkpt lat="45.5615461" lon="10.8610285"><ele>654.6666666666666</ele><time>2026-05-02T13:41:33.975Z</time></trkpt><trkpt lat="45.5614743" lon="10.8610105"><ele>657.0</ele><time>2026-05-02T13:41:34.962Z</time></trkpt><trkpt lat="45.5613974" lon="10.8610231"><ele>657.0</ele><time>2026-05-02T13:41:35.973Z</time></trkpt><trkpt lat="45.5613273" lon="10.8610473"><ele>657.0</ele><time>2026-05-02T13:41:37.002Z</time></trkpt><trkpt lat="45.5612499" lon="10.8610955"><ele>657.0</ele><time>2026-05-02T13:41:38.04Z</time></trkpt><trkpt lat="45.5611609" lon="10.8611407"><ele>657.0</ele><time>2026-05-02T13:41:39.033Z</time></trkpt><trkpt lat="45.5610719" lon="10.8611599"><ele>657.0</ele><time>2026-05-02T13:41:40.026Z</time></trkpt><trkpt lat="45.5609842" lon="10.8611679"><ele>657.0</ele><time>2026-05-02T13:41:40.97Z</time></trkpt><trkpt lat="45.5608893" lon="10.8611599"><ele>656.6666666666666</ele><time>2026-05-02T13:41:42.02Z</time></trkpt><trkpt lat="45.5608028" lon="10.8611377"><ele>656.3333333333334</ele><time>2026-05-02T13:41:43.03Z</time></trkpt><trkpt lat="45.560724" lon="10.8610975"><ele>656.0</ele><time>2026-05-02T13:41:43.97Z</time></trkpt><trkpt lat="45.5606428" lon="10.8610607"><ele>655.6666666666667</ele><time>2026-05-02T13:41:44.977Z</time></trkpt><trkpt lat="45.5605578" lon="10.8610249"><ele>655.3333333333334</ele><time>2026-05-02T13:41:45.959Z</time></trkpt><trkpt lat="45.560477" lon="10.8609938"><ele>655.0</ele><time>2026-05-02T13:41:46.967Z</time></trkpt><trkpt lat="45.5603989" lon="10.8609749"><ele>654.5</ele><time>2026-05-02T13:41:47.968Z</time></trkpt><trkpt lat="45.5603237" lon="10.860975"><ele>654.0</ele><time>2026-05-02T13:41:48.974Z</time></trkpt><trkpt lat="45.5602534" lon="10.860985"><ele>653.5</ele><time>2026-05-02T13:41:50.009Z</time></trkpt><trkpt lat="45.5601743" lon="10.8610059"><ele>653.0</ele><time>2026-05-02T13:41:50.969Z</time></trkpt><trkpt lat="45.5601013" lon="10.86103"><ele>652.5</ele><time>2026-05-02T13:41:51.964Z</time></trkpt><trkpt lat="45.5600271" lon="10.861052"><ele>652.0</ele><time>2026-05-02T13:41:52.968Z</time></trkpt><trkpt lat="45.5599452" lon="10.8610755"><ele>652.0</ele><time>2026-05-02T13:41:53.97Z</time></trkpt><trkpt lat="45.5598683" lon="10.8610958"><ele>652.0</ele><time>2026-05-02T13:41:54.976Z</time></trkpt><trkpt lat="45.5597871" lon="10.8611268"><ele>652.0</ele><time>2026-05-02T13:41:55.966Z</time></trkpt><trkpt lat="45.5596999" lon="10.8611678"><ele>652.0</ele><time>2026-05-02T13:41:56.973Z</time></trkpt><trkpt lat="45.5596176" lon="10.8612217"><ele>652.0</ele><time>2026-05-02T13:41:58.029Z</time></trkpt><trkpt lat="45.559524" lon="10.861271"><ele>652.0</ele><time>2026-05-02T13:41:59.024Z</time></trkpt><trkpt lat="45.5594415" lon="10.8613139"><ele>651.4000000000001</ele><time>2026-05-02T13:41:59.975Z</time></trkpt><trkpt lat="45.5593508" lon="10.8613352"><ele>650.8000000000001</ele><time>2026-05-02T13:42:00.977Z</time></trkpt><trkpt lat="45.5592613" lon="10.8613591"><ele>650.2</ele><time>2026-05-02T13:42:01.973Z</time></trkpt><trkpt lat="45.5591617" lon="10.8613834"><ele>649.6</ele><time>2026-05-02T13:42:02.973Z</time></trkpt><trkpt lat="45.559062" lon="10.8614021"><ele>649.0</ele><time>2026-05-02T13:42:03.98Z</time></trkpt><trkpt lat="45.5589604" lon="10.8614089"><ele>649.0</ele><time>2026-05-02T13:42:04.98Z</time></trkpt><trkpt lat="45.5588564" lon="10.86141"><ele>649.0</ele><time>2026-05-02T13:42:05.967Z</time></trkpt><trkpt lat="45.5587542" lon="10.86141"><ele>649.0</ele><time>2026-05-02T13:42:07.039Z</time></trkpt><trkpt lat="45.5586538" lon="10.8614152"><ele>649.0</ele><time>2026-05-02T13:42:08.038Z</time></trkpt><trkpt lat="45.5585561" lon="10.8614344"><ele>649.0</ele><time>2026-05-02T13:42:08.973Z</time></trkpt><trkpt lat="45.558466" lon="10.8614508"><ele>648.0</ele><time>2026-05-02T13:42:09.976Z</time></trkpt><trkpt lat="45.5583839" lon="10.8614537"><ele>647.0</ele><time>2026-05-02T13:42:10.98Z</time></trkpt><trkpt lat="45.5582979" lon="10.8614482"><ele>646.0</ele><time>2026-05-02T13:42:11.973Z</time></trkpt><trkpt lat="45.5582102" lon="10.8614337"><ele>645.0</ele><time>2026-05-02T13:42:13.048Z</time></trkpt><trkpt lat="45.5581176" lon="10.8614221"><ele>644.0</ele><time>2026-05-02T13:42:13.986Z</time></trkpt><trkpt lat="45.5580269" lon="10.8614024"><ele>643.0</ele><time>2026-05-02T13:42:14.966Z</time></trkpt><trkpt lat="45.5579292" lon="10.8613753"><ele>642.5</ele><time>2026-05-02T13:42:15.953Z</time></trkpt><trkpt lat="45.5578323" lon="10.8613327"><ele>642.0</ele><time>2026-05-02T13:42:16.964Z</time></trkpt><trkpt lat="45.5577468" lon="10.8613068"><ele>641.5</ele><time>2026-05-02T13:42:17.991Z</time></trkpt><trkpt lat="45.5576652" lon="10.8612827"><ele>641.0</ele><time>2026-05-02T13:42:18.966Z</time></trkpt><trkpt lat="45.5575788" lon="10.8612645"><ele>640.5</ele><time>2026-05-02T13:42:20.03Z</time></trkpt><trkpt lat="45.5574957" lon="10.8612473"><ele>640.0</ele><time>2026-05-02T13:42:20.968Z</time></trkpt><trkpt lat="45.5574192" lon="10.8612218"><ele>640.0</ele><time>2026-05-02T13:42:21.971Z</time></trkpt><trkpt lat="45.5573459" lon="10.8611881"><ele>640.0</ele><time>2026-05-02T13:42:23.005Z</time></trkpt><trkpt lat="45.557271" lon="10.8611402"><ele>640.0</ele><time>2026-05-02T13:42:23.993Z</time></trkpt><trkpt lat="45.5572017" lon="10.8611003"><ele>640.0</ele><time>2026-05-02T13:42:24.975Z</time></trkpt><trkpt lat="45.5571323" lon="10.8610617"><ele>640.0</ele><time>2026-05-02T13:42:25.963Z</time></trkpt><trkpt lat="45.5570757" lon="10.8610124"><ele>640.0</ele><time>2026-05-02T13:42:26.972Z</time></trkpt><trkpt lat="45.557023" lon="10.8609621"><ele>640.0</ele><time>2026-05-02T13:42:28.002Z</time></trkpt><trkpt lat="45.5569715" lon="10.8609077"><ele>639.8</ele><time>2026-05-02T13:42:29.02Z</time></trkpt><trkpt lat="45.556881" lon="10.8607986"><ele>639.6</ele><time>2026-05-02T13:42:30.974Z</time></trkpt><trkpt lat="45.556809" lon="10.860669"><ele>639.4</ele><time>2026-05-02T13:42:32.989Z</time></trkpt><trkpt lat="45.5567644" lon="10.8605965"><ele>639.2</ele><time>2026-05-02T13:42:33.959Z</time></trkpt><trkpt lat="45.5566825" lon="10.860467"><ele>639.0</ele><time>2026-05-02T13:42:35.965Z</time></trkpt><trkpt lat="45.556599" lon="10.860343"><ele>639.0</ele><time>2026-05-02T13:42:37.968Z</time></trkpt><trkpt lat="45.5565525" lon="10.8602801"><ele>639.0</ele><time>2026-05-02T13:42:39.022Z</time></trkpt><trkpt lat="45.5564609" lon="10.8601807"><ele>639.0</ele><time>2026-05-02T13:42:40.95Z</time></trkpt><trkpt lat="45.5563649" lon="10.8600986"><ele>639.0</ele><time>2026-05-02T13:42:42.993Z</time></trkpt><trkpt lat="45.5562601" lon="10.8600681"><ele>639.0</ele><time>2026-05-02T13:42:44.968Z</time></trkpt><trkpt lat="45.5561963" lon="10.8600524"><ele>636.6</ele><time>2026-05-02T13:42:45.971Z</time></trkpt><trkpt lat="45.5561066" lon="10.8599926"><ele>634.2</ele><time>2026-05-02T13:42:48.04Z</time></trkpt><trkpt lat="45.5560358" lon="10.859899"><ele>631.8000000000001</ele><time>2026-05-02T13:42:50.031Z</time></trkpt><trkpt lat="45.5559683" lon="10.8597989"><ele>629.4</ele><time>2026-05-02T13:42:51.976Z</time></trkpt><trkpt lat="45.5559096" lon="10.8596839"><ele>627.0</ele><time>2026-05-02T13:42:54.009Z</time></trkpt><trkpt lat="45.5558749" lon="10.8595372"><ele>627.0</ele><time>2026-05-02T13:42:55.984Z</time></trkpt><trkpt lat="45.5558834" lon="10.8593793"><ele>627.0</ele><time>2026-05-02T13:42:57.991Z</time></trkpt><trkpt lat="45.5559013" lon="10.8592409"><ele>627.0</ele><time>2026-05-02T13:42:59.978Z</time></trkpt><trkpt lat="45.5559078" lon="10.8591201"><ele>627.0</ele><time>2026-05-02T13:43:01.99Z</time></trkpt><trkpt lat="45.5559127" lon="10.8589576"><ele>627.0</ele><time>2026-05-02T13:43:03.969Z</time></trkpt><trkpt lat="45.5558689" lon="10.8588142"><ele>626.1666666666666</ele><time>2026-05-02T13:43:05.985Z</time></trkpt><trkpt lat="45.5557892" lon="10.8587313"><ele>625.3333333333334</ele><time>2026-05-02T13:43:07.972Z</time></trkpt><trkpt lat="45.5556922" lon="10.8586409"><ele>624.5</ele><time>2026-05-02T13:43:09.972Z</time></trkpt><trkpt lat="45.5556413" lon="10.858583"><ele>623.6666666666667</ele><time>2026-05-02T13:43:10.981Z</time></trkpt><trkpt lat="45.5555781" lon="10.8585318"><ele>622.8333333333334</ele><time>2026-05-02T13:43:11.99Z</time></trkpt><trkpt lat="45.5555064" lon="10.8584826"><ele>622.0</ele><time>2026-05-02T13:43:12.988Z</time></trkpt><trkpt lat="45.5554362" lon="10.8584422"><ele>622.5</ele><time>2026-05-02T13:43:13.975Z</time></trkpt><trkpt lat="45.5553617" lon="10.8583981"><ele>623.0</ele><time>2026-05-02T13:43:14.965Z</time></trkpt><trkpt lat="45.5552865" lon="10.8583581"><ele>623.5</ele><time>2026-05-02T13:43:15.98Z</time></trkpt><trkpt lat="45.5552057" lon="10.8583331"><ele>624.0</ele><time>2026-05-02T13:43:16.985Z</time></trkpt><trkpt lat="45.5551238" lon="10.8583015"><ele>624.5</ele><time>2026-05-02T13:43:17.982Z</time></trkpt><trkpt lat="45.5550411" lon="10.8582688"><ele>625.0</ele><time>2026-05-02T13:43:18.989Z</time></trkpt><trkpt lat="45.5549655" lon="10.8582414"><ele>625.0</ele><time>2026-05-02T13:43:20.056Z</time></trkpt><trkpt lat="45.5548961" lon="10.8582139"><ele>625.0</ele><time>2026-05-02T13:43:20.98Z</time></trkpt><trkpt lat="45.5548294" lon="10.8581762"><ele>625.0</ele><time>2026-05-02T13:43:21.993Z</time></trkpt><trkpt lat="45.5547675" lon="10.8581237"><ele>625.0</ele><time>2026-05-02T13:43:23.003Z</time></trkpt><trkpt lat="45.5547067" lon="10.85809"><ele>625.0</ele><time>2026-05-02T13:43:24.059Z</time></trkpt><trkpt lat="45.5546429" lon="10.8580879"><ele>625.0</ele><time>2026-05-02T13:43:24.966Z</time></trkpt><trkpt lat="45.5545209" lon="10.8581222"><ele>626.0</ele><time>2026-05-02T13:43:26.979Z</time></trkpt><trkpt lat="45.5544509" lon="10.8581427"><ele>627.0</ele><time>2026-05-02T13:43:28.045Z</time></trkpt><trkpt lat="45.5543772" lon="10.8581568"><ele>628.0</ele><time>2026-05-02T13:43:29.04Z</time></trkpt><trkpt lat="45.5543001" lon="10.8581718"><ele>629.0</ele><time>2026-05-02T13:43:29.964Z</time></trkpt><trkpt lat="45.5542204" lon="10.8581849"><ele>630.0</ele><time>2026-05-02T13:43:30.985Z</time></trkpt><trkpt lat="45.5541399" lon="10.8581963"><ele>631.0</ele><time>2026-05-02T13:43:31.98Z</time></trkpt><trkpt lat="45.5540608" lon="10.8582205"><ele>631.0</ele><time>2026-05-02T13:43:32.985Z</time></trkpt><trkpt lat="45.5539791" lon="10.8582426"><ele>631.0</ele><time>2026-05-02T13:43:33.988Z</time></trkpt><trkpt lat="45.5539008" lon="10.8582671"><ele>631.0</ele><time>2026-05-02T13:43:35.053Z</time></trkpt><trkpt lat="45.5538174" lon="10.8582891"><ele>631.0</ele><time>2026-05-02T13:43:35.98Z</time></trkpt><trkpt lat="45.5537301" lon="10.8583101"><ele>631.0</ele><time>2026-05-02T13:43:36.986Z</time></trkpt><trkpt lat="45.5536385" lon="10.8583333"><ele>631.0</ele><time>2026-05-02T13:43:37.972Z</time></trkpt><trkpt lat="45.5535424" lon="10.8583557"><ele>632.8</ele><time>2026-05-02T13:43:38.972Z</time></trkpt><trkpt lat="45.5534397" lon="10.8583728"><ele>634.6</ele><time>2026-05-02T13:43:39.983Z</time></trkpt><trkpt lat="45.5533371" lon="10.8583931"><ele>636.4</ele><time>2026-05-02T13:43:40.979Z</time></trkpt><trkpt lat="45.5532373" lon="10.8584214"><ele>638.2</ele><time>2026-05-02T13:43:42.058Z</time></trkpt><trkpt lat="45.5531366" lon="10.85844"><ele>640.0</ele><time>2026-05-02T13:43:43.049Z</time></trkpt><trkpt lat="45.5530454" lon="10.8584551"><ele>640.0</ele><time>2026-05-02T13:43:44.034Z</time></trkpt><trkpt lat="45.5529527" lon="10.8584675"><ele>640.0</ele><time>2026-05-02T13:43:45.029Z</time></trkpt><trkpt lat="45.5528624" lon="10.8584868"><ele>640.0</ele><time>2026-05-02T13:43:45.971Z</time></trkpt><trkpt lat="45.5527673" lon="10.8585097"><ele>640.0</ele><time>2026-05-02T13:43:46.965Z</time></trkpt><trkpt lat="45.5526845" lon="10.8585234"><ele>640.0</ele><time>2026-05-02T13:43:47.967Z</time></trkpt><trkpt lat="45.5526106" lon="10.8585313"><ele>640.0</ele><time>2026-05-02T13:43:48.961Z</time></trkpt><trkpt lat="45.5525425" lon="10.8585085"><ele>641.2857142857142</ele><time>2026-05-02T13:43:49.97Z</time></trkpt><trkpt lat="45.5524904" lon="10.8584434"><ele>642.5714285714286</ele><time>2026-05-02T13:43:50.994Z</time></trkpt><trkpt lat="45.5524496" lon="10.8583706"><ele>643.8571428571429</ele><time>2026-05-02T13:43:51.976Z</time></trkpt><trkpt lat="45.5524058" lon="10.8582873"><ele>645.1428571428571</ele><time>2026-05-02T13:43:53.087Z</time></trkpt><trkpt lat="45.5523542" lon="10.8582091"><ele>646.4285714285714</ele><time>2026-05-02T13:43:54.013Z</time></trkpt><trkpt lat="45.5522965" lon="10.8581392"><ele>647.7142857142857</ele><time>2026-05-02T13:43:54.974Z</time></trkpt><trkpt lat="45.5522325" lon="10.8580633"><ele>649.0</ele><time>2026-05-02T13:43:55.979Z</time></trkpt><trkpt lat="45.5521635" lon="10.8579952"><ele>648.9999999999999</ele><time>2026-05-02T13:43:56.976Z</time></trkpt><trkpt lat="45.5521037" lon="10.8579273"><ele>649.0</ele><time>2026-05-02T13:43:57.967Z</time></trkpt><trkpt lat="45.552062" lon="10.8578339"><ele>649.0</ele><time>2026-05-02T13:43:58.954Z</time></trkpt><trkpt lat="45.5520203" lon="10.8577471"><ele>649.0</ele><time>2026-05-02T13:43:59.969Z</time></trkpt><trkpt lat="45.5519654" lon="10.8576753"><ele>649.0</ele><time>2026-05-02T13:44:00.967Z</time></trkpt><trkpt lat="45.5519082" lon="10.8576127"><ele>648.9999999999999</ele><time>2026-05-02T13:44:01.974Z</time></trkpt><trkpt lat="45.5518536" lon="10.8575409"><ele>649.0</ele><time>2026-05-02T13:44:02.974Z</time></trkpt><trkpt lat="45.5518115" lon="10.8574555"><ele>649.4000000000001</ele><time>2026-05-02T13:44:03.965Z</time></trkpt><trkpt lat="45.5517389" lon="10.8573081"><ele>649.8</ele><time>2026-05-02T13:44:05.974Z</time></trkpt><trkpt lat="45.5516836" lon="10.8572559"><ele>650.2</ele><time>2026-05-02T13:44:06.966Z</time></trkpt><trkpt lat="45.5515882" lon="10.8571766"><ele>650.5999999999999</ele><time>2026-05-02T13:44:09.034Z</time></trkpt><trkpt lat="45.5514689" lon="10.8571662"><ele>651.0</ele><time>2026-05-02T13:44:10.97Z</time></trkpt><trkpt lat="45.5514061" lon="10.857173"><ele>651.0</ele><time>2026-05-02T13:44:11.957Z</time></trkpt><trkpt lat="45.5513337" lon="10.8571622"><ele>651.0</ele><time>2026-05-02T13:44:30.955Z</time></trkpt><trkpt lat="45.5512216" lon="10.8571195"><ele>651.0</ele><time>2026-05-02T13:44:33.032Z</time></trkpt><trkpt lat="45.5511368" lon="10.8571076"><ele>651.0</ele><time>2026-05-02T13:44:34.028Z</time></trkpt><trkpt lat="45.5510505" lon="10.8570813"><ele>651.0</ele><time>2026-05-02T13:44:34.963Z</time></trkpt><trkpt lat="45.5509549" lon="10.8570619"><ele>650.1666666666666</ele><time>2026-05-02T13:44:35.979Z</time></trkpt><trkpt lat="45.550877" lon="10.8570403"><ele>649.3333333333334</ele><time>2026-05-02T13:44:36.968Z</time></trkpt><trkpt lat="45.5508003" lon="10.8570204"><ele>648.5</ele><time>2026-05-02T13:44:37.968Z</time></trkpt><trkpt lat="45.5507257" lon="10.8570005"><ele>647.6666666666667</ele><time>2026-05-02T13:44:38.978Z</time></trkpt><trkpt lat="45.5506531" lon="10.8569844"><ele>646.8333333333334</ele><time>2026-05-02T13:44:40.022Z</time></trkpt><trkpt lat="45.5505779" lon="10.8569674"><ele>646.0</ele><time>2026-05-02T13:44:40.965Z</time></trkpt><trkpt lat="45.5505065" lon="10.8569527"><ele>646.0000000000001</ele><time>2026-05-02T13:44:41.965Z</time></trkpt><trkpt lat="45.5504334" lon="10.8569457"><ele>646.0</ele><time>2026-05-02T13:44:42.981Z</time></trkpt><trkpt lat="45.550361" lon="10.8569519"><ele>646.0</ele><time>2026-05-02T13:44:43.975Z</time></trkpt><trkpt lat="45.5502884" lon="10.8569641"><ele>646.0</ele><time>2026-05-02T13:44:44.965Z</time></trkpt><trkpt lat="45.5502142" lon="10.8569717"><ele>646.0</ele><time>2026-05-02T13:44:45.973Z</time></trkpt><trkpt lat="45.550144" lon="10.8569804"><ele>646.0000000000001</ele><time>2026-05-02T13:44:46.969Z</time></trkpt><trkpt lat="45.5500735" lon="10.8569821"><ele>646.0</ele><time>2026-05-02T13:44:47.965Z</time></trkpt><trkpt lat="45.5499994" lon="10.8569933"><ele>644.6666666666667</ele><time>2026-05-02T13:44:49.05Z</time></trkpt><trkpt lat="45.5499211" lon="10.8569934"><ele>643.3333333333334</ele><time>2026-05-02T13:44:50.026Z</time></trkpt><trkpt lat="45.5498426" lon="10.8569845"><ele>642.0</ele><time>2026-05-02T13:44:50.966Z</time></trkpt><trkpt lat="45.5497636" lon="10.8569807"><ele>640.6666666666666</ele><time>2026-05-02T13:44:51.967Z</time></trkpt><trkpt lat="45.5496864" lon="10.8569825"><ele>639.3333333333333</ele><time>2026-05-02T13:44:52.967Z</time></trkpt><trkpt lat="45.5496075" lon="10.856982"><ele>638.0</ele><time>2026-05-02T13:44:53.96Z</time></trkpt><trkpt lat="45.549543" lon="10.8569887"><ele>635.8333333333333</ele><time>2026-05-02T13:44:54.975Z</time></trkpt><trkpt lat="45.5494529" lon="10.8569873"><ele>633.6666666666666</ele><time>2026-05-02T13:44:57.027Z</time></trkpt><trkpt lat="45.5493737" lon="10.8570415"><ele>631.5</ele><time>2026-05-02T13:44:59.962Z</time></trkpt><trkpt lat="45.5493105" lon="10.857054"><ele>629.3333333333334</ele><time>2026-05-02T13:45:01.973Z</time></trkpt><trkpt lat="45.549233" lon="10.8570436"><ele>627.1666666666667</ele><time>2026-05-02T13:45:03.976Z</time></trkpt><trkpt lat="45.5491476" lon="10.8570176"><ele>625.0</ele><time>2026-05-02T13:45:05.967Z</time></trkpt><trkpt lat="45.549047" lon="10.8569987"><ele>625.0</ele><time>2026-05-02T13:45:07.968Z</time></trkpt><trkpt lat="45.5489477" lon="10.8569775"><ele>625.0</ele><time>2026-05-02T13:45:09.965Z</time></trkpt><trkpt lat="45.5488377" lon="10.8569562"><ele>625.0</ele><time>2026-05-02T13:45:11.967Z</time></trkpt><trkpt lat="45.5487215" lon="10.8569358"><ele>625.0</ele><time>2026-05-02T13:45:13.95Z</time></trkpt><trkpt lat="45.5486174" lon="10.8569337"><ele>625.0</ele><time>2026-05-02T13:45:15.975Z</time></trkpt><trkpt lat="45.5485533" lon="10.8569491"><ele>621.8</ele><time>2026-05-02T13:45:18.949Z</time></trkpt><trkpt lat="45.5484737" lon="10.8569442"><ele>618.6</ele><time>2026-05-02T13:45:29.973Z</time></trkpt><trkpt lat="45.5483746" lon="10.8569252"><ele>615.4</ele><time>2026-05-02T13:45:31.971Z</time></trkpt><trkpt lat="45.5482628" lon="10.8569127"><ele>612.2</ele><time>2026-05-02T13:45:33.97Z</time></trkpt><trkpt lat="45.5481481" lon="10.8568999"><ele>609.0</ele><time>2026-05-02T13:45:35.977Z</time></trkpt><trkpt lat="45.5480312" lon="10.856884"><ele>609.0</ele><time>2026-05-02T13:45:37.963Z</time></trkpt><trkpt lat="45.5479645" lon="10.856877"><ele>609.0</ele><time>2026-05-02T13:45:38.972Z</time></trkpt><trkpt lat="45.5478453" lon="10.8568289"><ele>609.0</ele><time>2026-05-02T13:45:40.978Z</time></trkpt><trkpt lat="45.5477314" lon="10.8567778"><ele>609.0</ele><time>2026-05-02T13:45:42.967Z</time></trkpt><trkpt lat="45.5476132" lon="10.8567349"><ele>609.0</ele><time>2026-05-02T13:45:44.961Z</time></trkpt><trkpt lat="45.5475042" lon="10.8567129"><ele>605.4</ele><time>2026-05-02T13:45:46.97Z</time></trkpt><trkpt lat="45.5473834" lon="10.8567016"><ele>601.8</ele><time>2026-05-02T13:45:48.971Z</time></trkpt><trkpt lat="45.5472569" lon="10.856679"><ele>598.2</ele><time>2026-05-02T13:45:50.972Z</time></trkpt><trkpt lat="45.5471931" lon="10.8566578"><ele>594.6</ele><time>2026-05-02T13:45:51.979Z</time></trkpt><trkpt lat="45.5471316" lon="10.8566312"><ele>591.0</ele><time>2026-05-02T13:45:52.98Z</time></trkpt><trkpt lat="45.5470284" lon="10.8565747"><ele>588.8571428571429</ele><time>2026-05-02T13:45:55.025Z</time></trkpt><trkpt lat="45.5469417" lon="10.8565423"><ele>586.7142857142858</ele><time>2026-05-02T13:45:56.953Z</time></trkpt><trkpt lat="45.5468624" lon="10.8565153"><ele>584.5714285714287</ele><time>2026-05-02T13:45:59.961Z</time></trkpt><trkpt lat="45.5467917" lon="10.8564766"><ele>582.4285714285714</ele><time>2026-05-02T13:46:08.978Z</time></trkpt><trkpt lat="45.546726" lon="10.8564721"><ele>580.2857142857143</ele><time>2026-05-02T13:46:18.979Z</time></trkpt><trkpt lat="45.5466657" lon="10.8565042"><ele>578.1428571428572</ele><time>2026-05-02T13:46:22.974Z</time></trkpt><trkpt lat="45.5466031" lon="10.8565276"><ele>576.0</ele><time>2026-05-02T13:46:23.962Z</time></trkpt><trkpt lat="45.5465036" lon="10.8565836"><ele>576.0</ele><time>2026-05-02T13:46:25.992Z</time></trkpt><trkpt lat="45.5464191" lon="10.8566701"><ele>576.0</ele><time>2026-05-02T13:46:27.993Z</time></trkpt><trkpt lat="45.5463472" lon="10.8568022"><ele>576.0</ele><time>2026-05-02T13:46:29.974Z</time></trkpt><trkpt lat="45.5462543" lon="10.856924"><ele>576.0</ele><time>2026-05-02T13:46:31.977Z</time></trkpt><trkpt lat="45.5462035" lon="10.8569781"><ele>576.0</ele><time>2026-05-02T13:46:32.978Z</time></trkpt><trkpt lat="45.5461338" lon="10.8570592"><ele>574.6</ele><time>2026-05-02T13:46:35.028Z</time></trkpt><trkpt lat="45.5461425" lon="10.8571918"><ele>573.2</ele><time>2026-05-02T13:46:36.974Z</time></trkpt><trkpt lat="45.5461954" lon="10.8573357"><ele>571.8</ele><time>2026-05-02T13:46:38.98Z</time></trkpt><trkpt lat="45.5462458" lon="10.8574195"><ele>570.4</ele><time>2026-05-02T13:46:40.028Z</time></trkpt><trkpt lat="45.5463078" lon="10.8575163"><ele>569.0</ele><time>2026-05-02T13:46:40.991Z</time></trkpt><trkpt lat="45.5463732" lon="10.85761"><ele>566.0</ele><time>2026-05-02T13:46:41.98Z</time></trkpt><trkpt lat="45.5464353" lon="10.8577057"><ele>563.0</ele><time>2026-05-02T13:46:43.002Z</time></trkpt><trkpt lat="45.5464999" lon="10.8577929"><ele>560.0</ele><time>2026-05-02T13:46:44.041Z</time></trkpt><trkpt lat="45.5465592" lon="10.8578859"><ele>557.0</ele><time>2026-05-02T13:46:45.032Z</time></trkpt><trkpt lat="45.5466171" lon="10.8579735"><ele>554.0</ele><time>2026-05-02T13:46:45.959Z</time></trkpt><trkpt lat="45.5466652" lon="10.8580505"><ele>551.0</ele><time>2026-05-02T13:46:46.977Z</time></trkpt><trkpt lat="45.5467047" lon="10.8581249"><ele>551.0</ele><time>2026-05-02T13:46:48.008Z</time></trkpt><trkpt lat="45.546764" lon="10.8582196"><ele>551.0</ele><time>2026-05-02T13:46:49.984Z</time></trkpt><trkpt lat="45.5467964" lon="10.8583085"><ele>551.0</ele><time>2026-05-02T13:46:51.986Z</time></trkpt><trkpt lat="45.5467549" lon="10.8584199"><ele>551.0</ele><time>2026-05-02T13:46:55.043Z</time></trkpt><trkpt lat="45.5467376" lon="10.8585354"><ele>551.0</ele><time>2026-05-02T13:46:58.004Z</time></trkpt><trkpt lat="45.5467609" lon="10.8586411"><ele>551.0</ele><time>2026-05-02T13:46:59.982Z</time></trkpt><trkpt lat="45.5467794" lon="10.8587571"><ele>548.5</ele><time>2026-05-02T13:47:02.097Z</time></trkpt><trkpt lat="45.5467842" lon="10.8588779"><ele>546.0</ele><time>2026-05-02T13:47:04.049Z</time></trkpt><trkpt lat="45.5467495" lon="10.8589696"><ele>543.5</ele><time>2026-05-02T13:47:05.984Z</time></trkpt><trkpt lat="45.5466817" lon="10.8589794"><ele>541.0</ele><time>2026-05-02T13:47:07.975Z</time></trkpt><trkpt lat="45.5466122" lon="10.8589167"><ele>538.5</ele><time>2026-05-02T13:47:09.97Z</time></trkpt><trkpt lat="45.546534" lon="10.8588195"><ele>536.0</ele><time>2026-05-02T13:47:11.976Z</time></trkpt><trkpt lat="45.5464845" lon="10.8587605"><ele>536.0</ele><time>2026-05-02T13:47:12.985Z</time></trkpt><trkpt lat="45.546394" lon="10.8586746"><ele>536.0</ele><time>2026-05-02T13:47:15.057Z</time></trkpt><trkpt lat="45.5463093" lon="10.8585646"><ele>536.0</ele><time>2026-05-02T13:47:16.968Z</time></trkpt><trkpt lat="45.5462183" lon="10.8584572"><ele>536.0</ele><time>2026-05-02T13:47:18.982Z</time></trkpt><trkpt lat="45.5461218" lon="10.8583422"><ele>535.0</ele><time>2026-05-02T13:47:20.991Z</time></trkpt><trkpt lat="45.5460831" lon="10.8582711"><ele>534.0</ele><time>2026-05-02T13:47:21.978Z</time></trkpt><trkpt lat="45.546006" lon="10.8581506"><ele>533.0</ele><time>2026-05-02T13:47:24.034Z</time></trkpt><trkpt lat="45.5459017" lon="10.8580214"><ele>532.0</ele><time>2026-05-02T13:47:25.994Z</time></trkpt><trkpt lat="45.5458446" lon="10.8579515"><ele>531.0</ele><time>2026-05-02T13:47:26.98Z</time></trkpt><trkpt lat="45.545792" lon="10.8578838"><ele>531.0</ele><time>2026-05-02T13:47:27.982Z</time></trkpt><trkpt lat="45.545741" lon="10.8578153"><ele>531.0</ele><time>2026-05-02T13:47:29.045Z</time></trkpt><trkpt lat="45.5456833" lon="10.8577453"><ele>531.0</ele><time>2026-05-02T13:47:30.041Z</time></trkpt><trkpt lat="45.5456277" lon="10.8576821"><ele>531.0</ele><time>2026-05-02T13:47:30.978Z</time></trkpt><trkpt lat="45.545575" lon="10.8576168"><ele>531.0</ele><time>2026-05-02T13:47:31.987Z</time></trkpt><trkpt lat="45.545483" lon="10.8575012"><ele>531.0</ele><time>2026-05-02T13:47:34.031Z</time></trkpt><trkpt lat="45.5453796" lon="10.8574367"><ele>531.5</ele><time>2026-05-02T13:47:35.982Z</time></trkpt><trkpt lat="45.5452632" lon="10.8573659"><ele>532.0</ele><time>2026-05-02T13:47:38.006Z</time></trkpt><trkpt lat="45.5452007" lon="10.857329"><ele>532.5</ele><time>2026-05-02T13:47:39.033Z</time></trkpt><trkpt lat="45.5451377" lon="10.8572812"><ele>533.0</ele><time>2026-05-02T13:47:39.969Z</time></trkpt><trkpt lat="45.545079" lon="10.8572365"><ele>533.5</ele><time>2026-05-02T13:47:40.969Z</time></trkpt><trkpt lat="45.5450165" lon="10.8571942"><ele>534.0</ele><time>2026-05-02T13:47:41.978Z</time></trkpt><trkpt lat="45.5449536" lon="10.8571552"><ele>534.0</ele><time>2026-05-02T13:47:43.036Z</time></trkpt><trkpt lat="45.5448908" lon="10.8571363"><ele>534.0</ele><time>2026-05-02T13:47:43.967Z</time></trkpt><trkpt lat="45.5447774" lon="10.857124"><ele>534.0</ele><time>2026-05-02T13:47:45.968Z</time></trkpt><trkpt lat="45.5446717" lon="10.8571046"><ele>534.0</ele><time>2026-05-02T13:47:48.077Z</time></trkpt><trkpt lat="45.5445715" lon="10.8570845"><ele>534.0</ele><time>2026-05-02T13:47:49.963Z</time></trkpt><trkpt lat="45.54447" lon="10.8570712"><ele>532.4</ele><time>2026-05-02T13:47:51.97Z</time></trkpt><trkpt lat="45.5443551" lon="10.8570394"><ele>530.8</ele><time>2026-05-02T13:47:54.048Z</time></trkpt><trkpt lat="45.5442936" lon="10.8570056"><ele>529.2</ele><time>2026-05-02T13:47:54.969Z</time></trkpt><trkpt lat="45.5441917" lon="10.8569673"><ele>527.6</ele><time>2026-05-02T13:47:56.972Z</time></trkpt><trkpt lat="45.5440731" lon="10.8569318"><ele>526.0</ele><time>2026-05-02T13:47:58.967Z</time></trkpt><trkpt lat="45.5440051" lon="10.8569145"><ele>526.0</ele><time>2026-05-02T13:47:59.968Z</time></trkpt><trkpt lat="45.5439348" lon="10.8568973"><ele>526.0</ele><time>2026-05-02T13:48:00.973Z</time></trkpt><trkpt lat="45.5438453" lon="10.8568698"><ele>526.0</ele><time>2026-05-02T13:48:01.972Z</time></trkpt><trkpt lat="45.5437436" lon="10.8568211"><ele>526.0</ele><time>2026-05-02T13:48:02.968Z</time></trkpt><trkpt lat="45.5436308" lon="10.8567817"><ele>526.0</ele><time>2026-05-02T13:48:03.971Z</time></trkpt><trkpt lat="45.5435135" lon="10.8567407"><ele>525.2</ele><time>2026-05-02T13:48:04.97Z</time></trkpt><trkpt lat="45.5433997" lon="10.8567097"><ele>524.4000000000001</ele><time>2026-05-02T13:48:05.949Z</time></trkpt><trkpt lat="45.5432944" lon="10.8566889"><ele>523.6</ele><time>2026-05-02T13:48:06.964Z</time></trkpt><trkpt lat="45.5431991" lon="10.8566686"><ele>522.8000000000001</ele><time>2026-05-02T13:48:07.975Z</time></trkpt><trkpt lat="45.5431052" lon="10.856663"><ele>522.0</ele><time>2026-05-02T13:48:08.964Z</time></trkpt><trkpt lat="45.5430128" lon="10.8566452"><ele>522.0</ele><time>2026-05-02T13:48:09.971Z</time></trkpt><trkpt lat="45.5429161" lon="10.8566223"><ele>522.0</ele><time>2026-05-02T13:48:10.976Z</time></trkpt><trkpt lat="45.5428185" lon="10.8565971"><ele>522.0</ele><time>2026-05-02T13:48:11.972Z</time></trkpt><trkpt lat="45.5427193" lon="10.8565666"><ele>522.0</ele><time>2026-05-02T13:48:12.974Z</time></trkpt><trkpt lat="45.5426117" lon="10.8565396"><ele>522.0</ele><time>2026-05-02T13:48:13.967Z</time></trkpt><trkpt lat="45.5424988" lon="10.8565214"><ele>521.0</ele><time>2026-05-02T13:48:14.972Z</time></trkpt><trkpt lat="45.5423767" lon="10.856504"><ele>520.0</ele><time>2026-05-02T13:48:15.97Z</time></trkpt><trkpt lat="45.5422609" lon="10.8564836"><ele>519.0</ele><time>2026-05-02T13:48:16.97Z</time></trkpt><trkpt lat="45.5421449" lon="10.8564665"><ele>518.0</ele><time>2026-05-02T13:48:17.978Z</time></trkpt><trkpt lat="45.5420285" lon="10.8564525"><ele>515.75</ele><time>2026-05-02T13:48:18.972Z</time></trkpt><trkpt lat="45.5419135" lon="10.8564377"><ele>513.5</ele><time>2026-05-02T13:48:19.974Z</time></trkpt><trkpt lat="45.541802" lon="10.8564204"><ele>511.25</ele><time>2026-05-02T13:48:20.969Z</time></trkpt><trkpt lat="45.5416854" lon="10.8564048"><ele>509.0</ele><time>2026-05-02T13:48:21.971Z</time></trkpt><trkpt lat="45.5415709" lon="10.8563883"><ele>509.0</ele><time>2026-05-02T13:48:22.977Z</time></trkpt><trkpt lat="45.5414523" lon="10.8563712"><ele>509.0</ele><time>2026-05-02T13:48:23.975Z</time></trkpt><trkpt lat="45.5413386" lon="10.8563606"><ele>509.0</ele><time>2026-05-02T13:48:24.969Z</time></trkpt><trkpt lat="45.5412391" lon="10.8563514"><ele>509.0</ele><time>2026-05-02T13:48:25.975Z</time></trkpt><trkpt lat="45.5411508" lon="10.856351"><ele>509.0</ele><time>2026-05-02T13:48:26.976Z</time></trkpt><trkpt lat="45.541078" lon="10.8563539"><ele>506.6</ele><time>2026-05-02T13:48:27.969Z</time></trkpt><trkpt lat="45.5409926" lon="10.8563725"><ele>504.2</ele><time>2026-05-02T13:48:29.975Z</time></trkpt><trkpt lat="45.5409289" lon="10.8562411"><ele>501.80000000000007</ele><time>2026-05-02T13:48:32.973Z</time></trkpt><trkpt lat="45.5408941" lon="10.8561395"><ele>499.40000000000003</ele><time>2026-05-02T13:48:33.979Z</time></trkpt><trkpt lat="45.5408411" lon="10.8559861"><ele>497.0</ele><time>2026-05-02T13:48:35.969Z</time></trkpt><trkpt lat="45.5408234" lon="10.8558913"><ele>496.49999999999994</ele><time>2026-05-02T13:48:36.971Z</time></trkpt><trkpt lat="45.5407887" lon="10.8557269"><ele>496.0</ele><time>2026-05-02T13:48:38.97Z</time></trkpt><trkpt lat="45.540704" lon="10.8556017"><ele>495.5</ele><time>2026-05-02T13:48:40.985Z</time></trkpt><trkpt lat="45.5406492" lon="10.8555541"><ele>495.0</ele><time>2026-05-02T13:48:41.972Z</time></trkpt><trkpt lat="45.5405929" lon="10.8555039"><ele>494.49999999999994</ele><time>2026-05-02T13:48:43.042Z</time></trkpt><trkpt lat="45.5405347" lon="10.8554578"><ele>494.0</ele><time>2026-05-02T13:48:43.976Z</time></trkpt><trkpt lat="45.5404758" lon="10.8554075"><ele>493.99999999999994</ele><time>2026-05-02T13:48:44.968Z</time></trkpt><trkpt lat="45.5404077" lon="10.8553867"><ele>494.0</ele><time>2026-05-02T13:48:45.972Z</time></trkpt><trkpt lat="45.5403416" lon="10.8553726"><ele>494.0</ele><time>2026-05-02T13:48:46.959Z</time></trkpt><trkpt lat="45.5402785" lon="10.8553637"><ele>494.0</ele><time>2026-05-02T13:48:47.979Z</time></trkpt><trkpt lat="45.5401547" lon="10.8553454"><ele>493.99999999999994</ele><time>2026-05-02T13:48:49.972Z</time></trkpt><trkpt lat="45.5400917" lon="10.8553314"><ele>494.0</ele><time>2026-05-02T13:48:50.977Z</time></trkpt><trkpt lat="45.5399794" lon="10.8553184"><ele>491.8333333333333</ele><time>2026-05-02T13:48:52.968Z</time></trkpt><trkpt lat="45.5398538" lon="10.8552708"><ele>489.66666666666663</ele><time>2026-05-02T13:48:54.967Z</time></trkpt><trkpt lat="45.5397812" lon="10.8552546"><ele>487.5</ele><time>2026-05-02T13:48:55.976Z</time></trkpt><trkpt lat="45.5397042" lon="10.8552643"><ele>485.33333333333337</ele><time>2026-05-02T13:48:56.98Z</time></trkpt><trkpt lat="45.5396249" lon="10.8552654"><ele>483.1666666666667</ele><time>2026-05-02T13:48:57.975Z</time></trkpt><trkpt lat="45.5395477" lon="10.8552571"><ele>481.0</ele><time>2026-05-02T13:48:58.972Z</time></trkpt><trkpt lat="45.5394757" lon="10.8552627"><ele>477.6</ele><time>2026-05-02T13:48:59.974Z</time></trkpt><trkpt lat="45.5394099" lon="10.8552737"><ele>474.20000000000005</ele><time>2026-05-02T13:49:00.98Z</time></trkpt><trkpt lat="45.539302" lon="10.8553196"><ele>470.79999999999995</ele><time>2026-05-02T13:49:02.98Z</time></trkpt><trkpt lat="45.5391972" lon="10.8553904"><ele>467.4</ele><time>2026-05-02T13:49:04.981Z</time></trkpt><trkpt lat="45.5391176" lon="10.8554839"><ele>464.0</ele><time>2026-05-02T13:49:06.968Z</time></trkpt><trkpt lat="45.539088" lon="10.8555737"><ele>464.0</ele><time>2026-05-02T13:49:08.955Z</time></trkpt><trkpt lat="45.5390236" lon="10.8556024"><ele>464.0</ele><time>2026-05-02T13:49:10.994Z</time></trkpt><trkpt lat="45.5389124" lon="10.8555704"><ele>464.0</ele><time>2026-05-02T13:49:13.029Z</time></trkpt><trkpt lat="45.538805" lon="10.85553"><ele>464.0</ele><time>2026-05-02T13:49:14.972Z</time></trkpt><trkpt lat="45.5387121" lon="10.8554388"><ele>464.0</ele><time>2026-05-02T13:49:16.979Z</time></trkpt><trkpt lat="45.5386496" lon="10.8553278"><ele>461.1428571428572</ele><time>2026-05-02T13:49:18.997Z</time></trkpt><trkpt lat="45.5386011" lon="10.8552443"><ele>458.28571428571433</ele><time>2026-05-02T13:49:20.973Z</time></trkpt><trkpt lat="45.5385412" lon="10.8551555"><ele>455.42857142857144</ele><time>2026-05-02T13:49:22.973Z</time></trkpt><trkpt lat="45.5384833" lon="10.8550965"><ele>452.5714285714286</ele><time>2026-05-02T13:49:24.962Z</time></trkpt><trkpt lat="45.5384195" lon="10.8550625"><ele>449.7142857142858</ele><time>2026-05-02T13:49:28.044Z</time></trkpt><trkpt lat="45.5383474" lon="10.8550595"><ele>446.85714285714283</ele><time>2026-05-02T13:49:29.976Z</time></trkpt><trkpt lat="45.5382986" lon="10.8549893"><ele>444.0</ele><time>2026-05-02T13:49:31.965Z</time></trkpt><trkpt lat="45.5382293" lon="10.8549387"><ele>443.5</ele><time>2026-05-02T13:49:33.977Z</time></trkpt><trkpt lat="45.5381573" lon="10.8549367"><ele>443.0</ele><time>2026-05-02T13:49:35.035Z</time></trkpt><trkpt lat="45.5380499" lon="10.8548974"><ele>442.5</ele><time>2026-05-02T13:49:37.044Z</time></trkpt><trkpt lat="45.5379625" lon="10.8548931"><ele>442.0</ele><time>2026-05-02T13:49:38.969Z</time></trkpt><trkpt lat="45.5378975" lon="10.8549157"><ele>441.5</ele><time>2026-05-02T13:49:40.976Z</time></trkpt><trkpt lat="45.5378119" lon="10.8549471"><ele>441.0</ele><time>2026-05-02T13:49:43.969Z</time></trkpt><trkpt lat="45.5377327" lon="10.8550278"><ele>436.0</ele><time>2026-05-02T13:49:46.963Z</time></trkpt><trkpt lat="45.5376938" lon="10.855216"><ele>431.0</ele><time>2026-05-02T13:49:48.977Z</time></trkpt><trkpt lat="45.537686" lon="10.8553678"><ele>426.0</ele><time>2026-05-02T13:49:49.968Z</time></trkpt><trkpt lat="45.5376748" lon="10.8555301"><ele>421.0</ele><time>2026-05-02T13:49:50.974Z</time></trkpt><trkpt lat="45.5376652" lon="10.8556928"><ele>421.0</ele><time>2026-05-02T13:49:51.957Z</time></trkpt><trkpt lat="45.5376522" lon="10.8558221"><ele>421.0</ele><time>2026-05-02T13:49:52.973Z</time></trkpt><trkpt lat="45.5376432" lon="10.8559504"><ele>421.0</ele><time>2026-05-02T13:49:53.973Z</time></trkpt><trkpt lat="45.5376494" lon="10.856097"><ele>421.0</ele><time>2026-05-02T13:49:54.969Z</time></trkpt><trkpt lat="45.5376597" lon="10.856236"><ele>421.0</ele><time>2026-05-02T13:49:55.953Z</time></trkpt><trkpt lat="45.5376821" lon="10.8563841"><ele>420.75</ele><time>2026-05-02T13:49:56.97Z</time></trkpt><trkpt lat="45.5377133" lon="10.8565459"><ele>420.5</ele><time>2026-05-02T13:49:57.97Z</time></trkpt><trkpt lat="45.5377529" lon="10.8566997"><ele>420.25</ele><time>2026-05-02T13:49:58.978Z</time></trkpt><trkpt lat="45.537813" lon="10.8568414"><ele>420.0</ele><time>2026-05-02T13:49:59.967Z</time></trkpt><trkpt lat="45.537893" lon="10.8569834"><ele>423.5</ele><time>2026-05-02T13:50:00.971Z</time></trkpt><trkpt lat="45.5379764" lon="10.8571188"><ele>427.0</ele><time>2026-05-02T13:50:01.969Z</time></trkpt><trkpt lat="45.5380569" lon="10.8572463"><ele>430.5</ele><time>2026-05-02T13:50:02.973Z</time></trkpt><trkpt lat="45.5381471" lon="10.8573605"><ele>434.0</ele><time>2026-05-02T13:50:03.97Z</time></trkpt><trkpt lat="45.5382464" lon="10.8574517"><ele>434.0</ele><time>2026-05-02T13:50:04.974Z</time></trkpt><trkpt lat="45.5383455" lon="10.8575345"><ele>434.0</ele><time>2026-05-02T13:50:05.972Z</time></trkpt><trkpt lat="45.5384438" lon="10.8576191"><ele>434.0</ele><time>2026-05-02T13:50:06.969Z</time></trkpt><trkpt lat="45.5385075" lon="10.8577412"><ele>434.0</ele><time>2026-05-02T13:50:07.971Z</time></trkpt><trkpt lat="45.5385188" lon="10.8579092"><ele>432.4</ele><time>2026-05-02T13:50:08.97Z</time></trkpt><trkpt lat="45.5385122" lon="10.8580733"><ele>430.79999999999995</ele><time>2026-05-02T13:50:09.963Z</time></trkpt><trkpt lat="45.5385106" lon="10.8582267"><ele>429.20000000000005</ele><time>2026-05-02T13:50:10.969Z</time></trkpt><trkpt lat="45.5385205" lon="10.8583562"><ele>427.6</ele><time>2026-05-02T13:50:11.965Z</time></trkpt><trkpt lat="45.5385514" lon="10.8584676"><ele>426.0</ele><time>2026-05-02T13:50:12.977Z</time></trkpt><trkpt lat="45.5385924" lon="10.8585524"><ele>424.85714285714283</ele><time>2026-05-02T13:50:13.976Z</time></trkpt><trkpt lat="45.5386306" lon="10.8586282"><ele>423.7142857142857</ele><time>2026-05-02T13:50:14.97Z</time></trkpt><trkpt lat="45.5386837" lon="10.8587197"><ele>422.57142857142856</ele><time>2026-05-02T13:50:16.972Z</time></trkpt><trkpt lat="45.5386508" lon="10.8587969"><ele>421.42857142857144</ele><time>2026-05-02T13:50:21.976Z</time></trkpt><trkpt lat="45.5386038" lon="10.8588733"><ele>420.2857142857143</ele><time>2026-05-02T13:50:24.968Z</time></trkpt><trkpt lat="45.5385618" lon="10.8589415"><ele>419.1428571428571</ele><time>2026-05-02T13:50:26.965Z</time></trkpt><trkpt lat="45.5385243" lon="10.8590478"><ele>418.0</ele><time>2026-05-02T13:50:30.971Z</time></trkpt><trkpt lat="45.5384919" lon="10.8591558"><ele>418.00000000000006</ele><time>2026-05-02T13:50:34.019Z</time></trkpt><trkpt lat="45.5384117" lon="10.8592391"><ele>418.0</ele><time>2026-05-02T13:50:36.977Z</time></trkpt><trkpt lat="45.5383414" lon="10.8592334"><ele>418.0</ele><time>2026-05-02T13:50:38.966Z</time></trkpt><trkpt lat="45.5382715" lon="10.8592475"><ele>418.0</ele><time>2026-05-02T13:50:51.964Z</time></trkpt><trkpt lat="45.5382736" lon="10.8593614"><ele>418.00000000000006</ele><time>2026-05-02T13:50:57.042Z</time></trkpt><trkpt lat="45.5383113" lon="10.8595067"><ele>418.0</ele><time>2026-05-02T13:50:58.957Z</time></trkpt><trkpt lat="45.5383655" lon="10.8596581"><ele>415.59999999999997</ele><time>2026-05-02T13:51:00.966Z</time></trkpt><trkpt lat="45.5384359" lon="10.8597978"><ele>413.2</ele><time>2026-05-02T13:51:03.019Z</time></trkpt><trkpt lat="45.5385209" lon="10.8599141"><ele>410.8</ele><time>2026-05-02T13:51:05.028Z</time></trkpt><trkpt lat="45.5386023" lon="10.8600279"><ele>408.4</ele><time>2026-05-02T13:51:06.978Z</time></trkpt><trkpt lat="45.5386504" lon="10.8600873"><ele>406.0</ele><time>2026-05-02T13:51:07.96Z</time></trkpt><trkpt lat="45.5387368" lon="10.8602097"><ele>404.8</ele><time>2026-05-02T13:51:09.966Z</time></trkpt><trkpt lat="45.5388275" lon="10.8603184"><ele>403.6</ele><time>2026-05-02T13:51:11.968Z</time></trkpt><trkpt lat="45.5388761" lon="10.8603856"><ele>402.4</ele><time>2026-05-02T13:51:13.006Z</time></trkpt><trkpt lat="45.5389256" lon="10.8604429"><ele>401.2</ele><time>2026-05-02T13:51:13.98Z</time></trkpt><trkpt lat="45.5390155" lon="10.8605537"><ele>400.0</ele><time>2026-05-02T13:51:15.955Z</time></trkpt><trkpt lat="45.5391059" lon="10.8606592"><ele>400.0</ele><time>2026-05-02T13:51:17.969Z</time></trkpt><trkpt lat="45.5392037" lon="10.8607499"><ele>400.0</ele><time>2026-05-02T13:51:20.043Z</time></trkpt><trkpt lat="45.5393" lon="10.8608506"><ele>400.0</ele><time>2026-05-02T13:51:22.028Z</time></trkpt><trkpt lat="45.539408" lon="10.8609463"><ele>400.0</ele><time>2026-05-02T13:51:23.964Z</time></trkpt><trkpt lat="45.539509" lon="10.8610309"><ele>397.83333333333337</ele><time>2026-05-02T13:51:25.965Z</time></trkpt><trkpt lat="45.5396124" lon="10.8611191"><ele>395.6666666666667</ele><time>2026-05-02T13:51:27.964Z</time></trkpt><trkpt lat="45.5396757" lon="10.8611619"><ele>393.5</ele><time>2026-05-02T13:51:28.964Z</time></trkpt><trkpt lat="45.5397379" lon="10.8612047"><ele>391.33333333333337</ele><time>2026-05-02T13:51:29.972Z</time></trkpt><trkpt lat="45.5398052" lon="10.8612359"><ele>389.1666666666667</ele><time>2026-05-02T13:51:30.956Z</time></trkpt><trkpt lat="45.5398906" lon="10.8612809"><ele>387.0</ele><time>2026-05-02T13:51:32.965Z</time></trkpt><trkpt lat="45.539842" lon="10.8613467"><ele>387.0</ele><time>2026-05-02T13:51:35.956Z</time></trkpt><trkpt lat="45.5397759" lon="10.8612882"><ele>387.0</ele><time>2026-05-02T13:51:38.046Z</time></trkpt><trkpt lat="45.5396883" lon="10.8612619"><ele>387.0</ele><time>2026-05-02T13:51:39.97Z</time></trkpt><trkpt lat="45.5396032" lon="10.8612341"><ele>387.0</ele><time>2026-05-02T13:51:41.958Z</time></trkpt><trkpt lat="45.5395052" lon="10.8611998"><ele>387.0</ele><time>2026-05-02T13:51:43.967Z</time></trkpt><trkpt lat="45.5394023" lon="10.8611661"><ele>384.5</ele><time>2026-05-02T13:51:45.963Z</time></trkpt><trkpt lat="45.5393032" lon="10.8611422"><ele>382.0</ele><time>2026-05-02T13:51:47.969Z</time></trkpt><trkpt lat="45.5391954" lon="10.8610982"><ele>379.5</ele><time>2026-05-02T13:51:49.964Z</time></trkpt><trkpt lat="45.5391256" lon="10.8610747"><ele>377.0</ele><time>2026-05-02T13:51:50.966Z</time></trkpt><trkpt lat="45.5390588" lon="10.8610494"><ele>374.5</ele><time>2026-05-02T13:51:51.954Z</time></trkpt><trkpt lat="45.5389877" lon="10.8610268"><ele>372.0</ele><time>2026-05-02T13:51:52.958Z</time></trkpt><trkpt lat="45.5389143" lon="10.8610095"><ele>372.0</ele><time>2026-05-02T13:51:53.966Z</time></trkpt><trkpt lat="45.5388376" lon="10.8609906"><ele>372.0</ele><time>2026-05-02T13:51:54.968Z</time></trkpt><trkpt lat="45.5387636" lon="10.8609659"><ele>372.0</ele><time>2026-05-02T13:51:55.962Z</time></trkpt><trkpt lat="45.5386872" lon="10.8609398"><ele>372.0</ele><time>2026-05-02T13:51:56.961Z</time></trkpt><trkpt lat="45.5386185" lon="10.8609018"><ele>372.0</ele><time>2026-05-02T13:51:58.052Z</time></trkpt><trkpt lat="45.5385505" lon="10.8608582"><ele>372.0</ele><time>2026-05-02T13:51:59.046Z</time></trkpt><trkpt lat="45.5384754" lon="10.8608217"><ele>374.1666666666667</ele><time>2026-05-02T13:51:59.957Z</time></trkpt><trkpt lat="45.538416" lon="10.8607826"><ele>376.33333333333337</ele><time>2026-05-02T13:52:00.978Z</time></trkpt><trkpt lat="45.5383523" lon="10.8607546"><ele>378.5</ele><time>2026-05-02T13:52:01.961Z</time></trkpt><trkpt lat="45.5382287" lon="10.8607203"><ele>380.6666666666667</ele><time>2026-05-02T13:52:03.973Z</time></trkpt><trkpt lat="45.5381582" lon="10.8607137"><ele>382.83333333333337</ele><time>2026-05-02T13:52:05.035Z</time></trkpt><trkpt lat="45.5380917" lon="10.8606985"><ele>385.0</ele><time>2026-05-02T13:52:05.958Z</time></trkpt><trkpt lat="45.5380176" lon="10.8606838"><ele>385.00000000000006</ele><time>2026-05-02T13:52:07.025Z</time></trkpt><trkpt lat="45.5379437" lon="10.8606695"><ele>385.0</ele><time>2026-05-02T13:52:07.971Z</time></trkpt><trkpt lat="45.5378658" lon="10.8606419"><ele>385.0</ele><time>2026-05-02T13:52:08.985Z</time></trkpt><trkpt lat="45.537794" lon="10.8606135"><ele>385.0</ele><time>2026-05-02T13:52:09.977Z</time></trkpt><trkpt lat="45.5377247" lon="10.8605744"><ele>385.00000000000006</ele><time>2026-05-02T13:52:10.979Z</time></trkpt><trkpt lat="45.5376523" lon="10.8605255"><ele>385.0</ele><time>2026-05-02T13:52:11.979Z</time></trkpt><trkpt lat="45.5375812" lon="10.8604708"><ele>381.50000000000006</ele><time>2026-05-02T13:52:12.98Z</time></trkpt><trkpt lat="45.5375145" lon="10.8604124"><ele>378.0</ele><time>2026-05-02T13:52:14.039Z</time></trkpt><trkpt lat="45.5374425" lon="10.8603595"><ele>374.5</ele><time>2026-05-02T13:52:14.981Z</time></trkpt><trkpt lat="45.5373767" lon="10.860306"><ele>371.0</ele><time>2026-05-02T13:52:15.978Z</time></trkpt><trkpt lat="45.5373132" lon="10.8602605"><ele>367.5</ele><time>2026-05-02T13:52:16.966Z</time></trkpt><trkpt lat="45.5372498" lon="10.8602074"><ele>364.0</ele><time>2026-05-02T13:52:17.988Z</time></trkpt><trkpt lat="45.5371868" lon="10.860151"><ele>362.5</ele><time>2026-05-02T13:52:18.978Z</time></trkpt><trkpt lat="45.5371366" lon="10.8600859"><ele>361.0</ele><time>2026-05-02T13:52:19.978Z</time></trkpt><trkpt lat="45.5370671" lon="10.8599376"><ele>359.5</ele><time>2026-05-02T13:52:21.977Z</time></trkpt><trkpt lat="45.537034" lon="10.8597767"><ele>358.0</ele><time>2026-05-02T13:52:23.975Z</time></trkpt><trkpt lat="45.5370354" lon="10.859684"><ele>356.5</ele><time>2026-05-02T13:52:24.989Z</time></trkpt><trkpt lat="45.5370393" lon="10.859592"><ele>355.0</ele><time>2026-05-02T13:52:25.97Z</time></trkpt><trkpt lat="45.5370521" lon="10.8594972"><ele>355.0</ele><time>2026-05-02T13:52:26.969Z</time></trkpt><trkpt lat="45.5370435" lon="10.8593378"><ele>355.0</ele><time>2026-05-02T13:52:28.98Z</time></trkpt><trkpt lat="45.5369601" lon="10.859259"><ele>355.0</ele><time>2026-05-02T13:52:30.981Z</time></trkpt><trkpt lat="45.5368967" lon="10.8592508"><ele>355.0</ele><time>2026-05-02T13:52:32.992Z</time></trkpt><trkpt lat="45.536827" lon="10.859285"><ele>355.0</ele><time>2026-05-02T13:52:34.983Z</time></trkpt><trkpt lat="45.5367188" lon="10.8593124"><ele>355.0</ele><time>2026-05-02T13:52:36.976Z</time></trkpt><trkpt lat="45.5366473" lon="10.8593144"><ele>355.0</ele><time>2026-05-02T13:52:37.981Z</time></trkpt><trkpt lat="45.5365743" lon="10.8593017"><ele>355.0</ele><time>2026-05-02T13:52:38.986Z</time></trkpt><trkpt lat="45.5364947" lon="10.8592687"><ele>355.0</ele><time>2026-05-02T13:52:39.984Z</time></trkpt><trkpt lat="45.5364362" lon="10.8592177"><ele>355.0</ele><time>2026-05-02T13:52:40.975Z</time></trkpt><trkpt lat="45.5363809" lon="10.8591593"><ele>355.0</ele><time>2026-05-02T13:52:41.977Z</time></trkpt><trkpt lat="45.5363297" lon="10.8591056"><ele>355.0</ele><time>2026-05-02T13:52:42.981Z</time></trkpt><trkpt lat="45.5362621" lon="10.8590843"><ele>355.0</ele><time>2026-05-02T13:52:44.974Z</time></trkpt><trkpt lat="45.5362859" lon="10.8591975"><ele>355.0</ele><time>2026-05-02T13:52:47.974Z</time></trkpt><trkpt lat="45.5363489" lon="10.8592714"><ele>355.0</ele><time>2026-05-02T13:52:49.97Z</time></trkpt><trkpt lat="45.5364344" lon="10.8593601"><ele>355.0</ele><time>2026-05-02T13:52:51.976Z</time></trkpt><trkpt lat="45.5365302" lon="10.8594378"><ele>355.0</ele><time>2026-05-02T13:52:53.981Z</time></trkpt><trkpt lat="45.5366293" lon="10.8594656"><ele>355.0</ele><time>2026-05-02T13:52:55.983Z</time></trkpt><trkpt lat="45.5367007" lon="10.8595637"><ele>355.0</ele><time>2026-05-02T13:52:57.977Z</time></trkpt><trkpt lat="45.5367221" lon="10.8596502"><ele>355.0</ele><time>2026-05-02T13:52:58.977Z</time></trkpt><trkpt lat="45.536742" lon="10.859812"><ele>355.0</ele><time>2026-05-02T13:53:00.977Z</time></trkpt><trkpt lat="45.5367466" lon="10.8599023"><ele>355.0</ele><time>2026-05-02T13:53:01.984Z</time></trkpt><trkpt lat="45.5367287" lon="10.8600039"><ele>355.0</ele><time>2026-05-02T13:53:02.961Z</time></trkpt><trkpt lat="45.5367021" lon="10.8601542"><ele>353.0</ele><time>2026-05-02T13:53:04.98Z</time></trkpt><trkpt lat="45.5367163" lon="10.8603438"><ele>351.0</ele><time>2026-05-02T13:53:06.982Z</time></trkpt><trkpt lat="45.5367071" lon="10.8604328"><ele>349.0</ele><time>2026-05-02T13:53:07.976Z</time></trkpt><trkpt lat="45.5367176" lon="10.8606049"><ele>347.0</ele><time>2026-05-02T13:53:10.007Z</time></trkpt><trkpt lat="45.5367513" lon="10.8607421"><ele>345.0</ele><time>2026-05-02T13:53:11.979Z</time></trkpt><trkpt lat="45.5368289" lon="10.8608732"><ele>345.0</ele><time>2026-05-02T13:53:13.973Z</time></trkpt><trkpt lat="45.5368833" lon="10.8609393"><ele>345.0</ele><time>2026-05-02T13:53:14.972Z</time></trkpt><trkpt lat="45.5369404" lon="10.8610007"><ele>345.0</ele><time>2026-05-02T13:53:15.98Z</time></trkpt><trkpt lat="45.5370235" lon="10.8610792"><ele>345.0</ele><time>2026-05-02T13:53:17.969Z</time></trkpt><trkpt lat="45.5369893" lon="10.8611624"><ele>345.0</ele><time>2026-05-02T13:53:21.984Z</time></trkpt><trkpt lat="45.5369145" lon="10.8611208"><ele>345.0</ele><time>2026-05-02T13:53:23.97Z</time></trkpt><trkpt lat="45.5368527" lon="10.8610619"><ele>345.0</ele><time>2026-05-02T13:53:24.978Z</time></trkpt><trkpt lat="45.5367796" lon="10.8610024"><ele>345.0</ele><time>2026-05-02T13:53:25.982Z</time></trkpt><trkpt lat="45.5367156" lon="10.8609385"><ele>345.0</ele><time>2026-05-02T13:53:26.986Z</time></trkpt><trkpt lat="45.5366592" lon="10.8608817"><ele>345.0</ele><time>2026-05-02T13:53:27.984Z</time></trkpt><trkpt lat="45.5365982" lon="10.8608243"><ele>345.0</ele><time>2026-05-02T13:53:28.974Z</time></trkpt><trkpt lat="45.5365366" lon="10.8607532"><ele>345.0</ele><time>2026-05-02T13:53:29.989Z</time></trkpt><trkpt lat="45.5364861" lon="10.860687"><ele>345.0</ele><time>2026-05-02T13:53:30.98Z</time></trkpt><trkpt lat="45.5364473" lon="10.8606006"><ele>345.0</ele><time>2026-05-02T13:53:31.981Z</time></trkpt><trkpt lat="45.5364114" lon="10.8605055"><ele>345.0</ele><time>2026-05-02T13:53:32.99Z</time></trkpt><trkpt lat="45.536383" lon="10.8603951"><ele>345.0</ele><time>2026-05-02T13:53:33.98Z</time></trkpt><trkpt lat="45.5363626" lon="10.8602768"><ele>345.0</ele><time>2026-05-02T13:53:34.974Z</time></trkpt><trkpt lat="45.5363422" lon="10.8601663"><ele>345.0</ele><time>2026-05-02T13:53:35.983Z</time></trkpt><trkpt lat="45.5363152" lon="10.8600632"><ele>344.0</ele><time>2026-05-02T13:53:36.978Z</time></trkpt><trkpt lat="45.5362754" lon="10.8599655"><ele>343.0</ele><time>2026-05-02T13:53:37.99Z</time></trkpt><trkpt lat="45.536211" lon="10.8598964"><ele>342.0</ele><time>2026-05-02T13:53:39.036Z</time></trkpt><trkpt lat="45.5361404" lon="10.8598578"><ele>341.0</ele><time>2026-05-02T13:53:40.028Z</time></trkpt><trkpt lat="45.5360725" lon="10.8598308"><ele>340.0</ele><time>2026-05-02T13:53:40.973Z</time></trkpt><trkpt lat="45.536004" lon="10.8598334"><ele>339.0</ele><time>2026-05-02T13:53:41.977Z</time></trkpt><trkpt lat="45.5359358" lon="10.8598528"><ele>338.0</ele><time>2026-05-02T13:53:42.98Z</time></trkpt><trkpt lat="45.5358718" lon="10.8598758"><ele>338.0</ele><time>2026-05-02T13:53:43.969Z</time></trkpt><trkpt lat="45.535811" lon="10.8599"><ele>338.0</ele><time>2026-05-02T13:53:44.968Z</time></trkpt><trkpt lat="45.5357419" lon="10.8599258"><ele>338.0</ele><time>2026-05-02T13:53:45.977Z</time></trkpt><trkpt lat="45.535626" lon="10.8599685"><ele>338.0</ele><time>2026-05-02T13:53:47.979Z</time></trkpt><trkpt lat="45.5355306" lon="10.8600079"><ele>338.0</ele><time>2026-05-02T13:53:49.98Z</time></trkpt><trkpt lat="45.5354462" lon="10.8600202"><ele>338.0</ele><time>2026-05-02T13:53:51.983Z</time></trkpt><trkpt lat="45.5353175" lon="10.860002"><ele>336.83333333333337</ele><time>2026-05-02T13:53:54.038Z</time></trkpt><trkpt lat="45.535253" lon="10.8599934"><ele>335.6666666666667</ele><time>2026-05-02T13:53:55.052Z</time></trkpt><trkpt lat="45.5351201" lon="10.8599765"><ele>334.5</ele><time>2026-05-02T13:53:56.984Z</time></trkpt><trkpt lat="45.5350516" lon="10.8599704"><ele>333.3333333333333</ele><time>2026-05-02T13:53:57.979Z</time></trkpt><trkpt lat="45.5349497" lon="10.8599071"><ele>332.16666666666663</ele><time>2026-05-02T13:53:59.983Z</time></trkpt><trkpt lat="45.5349004" lon="10.8598506"><ele>331.0</ele><time>2026-05-02T13:54:00.982Z</time></trkpt><trkpt lat="45.534849" lon="10.8597876"><ele>331.0</ele><time>2026-05-02T13:54:02.038Z</time></trkpt><trkpt lat="45.5347987" lon="10.8597167"><ele>331.0</ele><time>2026-05-02T13:54:03.053Z</time></trkpt><trkpt lat="45.5347415" lon="10.8596488"><ele>331.0</ele><time>2026-05-02T13:54:04.042Z</time></trkpt><trkpt lat="45.5346834" lon="10.859587"><ele>331.0</ele><time>2026-05-02T13:54:04.992Z</time></trkpt><trkpt lat="45.5346077" lon="10.8595426"><ele>331.0</ele><time>2026-05-02T13:54:06.989Z</time></trkpt><trkpt lat="45.5345557" lon="10.8596253"><ele>331.0</ele><time>2026-05-02T13:54:10.033Z</time></trkpt><trkpt lat="45.5345965" lon="10.8597417"><ele>331.0</ele><time>2026-05-02T13:54:12.978Z</time></trkpt><trkpt lat="45.5346497" lon="10.8598633"><ele>331.0</ele><time>2026-05-02T13:54:14.977Z</time></trkpt><trkpt lat="45.5346641" lon="10.8599547"><ele>331.0</ele><time>2026-05-02T13:54:15.978Z</time></trkpt><trkpt lat="45.5346366" lon="10.860077"><ele>331.0</ele><time>2026-05-02T13:54:17.972Z</time></trkpt><trkpt lat="45.5345538" lon="10.8601561"><ele>331.0</ele><time>2026-05-02T13:54:20.996Z</time></trkpt><trkpt lat="45.5344311" lon="10.8602071"><ele>326.5</ele><time>2026-05-02T13:54:22.973Z</time></trkpt><trkpt lat="45.5343587" lon="10.8602273"><ele>322.0</ele><time>2026-05-02T13:54:23.979Z</time></trkpt><trkpt lat="45.5342807" lon="10.8602316"><ele>317.5</ele><time>2026-05-02T13:54:24.98Z</time></trkpt><trkpt lat="45.5342023" lon="10.8602262"><ele>313.0</ele><time>2026-05-02T13:54:25.985Z</time></trkpt><trkpt lat="45.5341189" lon="10.8602082"><ele>308.5</ele><time>2026-05-02T13:54:27.051Z</time></trkpt><trkpt lat="45.5340357" lon="10.8601937"><ele>304.0</ele><time>2026-05-02T13:54:28.036Z</time></trkpt><trkpt lat="45.5339582" lon="10.860176"><ele>304.0</ele><time>2026-05-02T13:54:28.974Z</time></trkpt><trkpt lat="45.5338785" lon="10.8601511"><ele>304.0</ele><time>2026-05-02T13:54:29.984Z</time></trkpt><trkpt lat="45.5338198" lon="10.8600988"><ele>304.0</ele><time>2026-05-02T13:54:30.986Z</time></trkpt><trkpt lat="45.5337321" lon="10.8599788"><ele>304.0</ele><time>2026-05-02T13:54:33.047Z</time></trkpt><trkpt lat="45.5336913" lon="10.8599102"><ele>304.0</ele><time>2026-05-02T13:54:33.972Z</time></trkpt><trkpt lat="45.5336301" lon="10.8598304"><ele>304.0</ele><time>2026-05-02T13:54:35.975Z</time></trkpt><trkpt lat="45.5335634" lon="10.8598841"><ele>304.0</ele><time>2026-05-02T13:54:39.033Z</time></trkpt><trkpt lat="45.5335808" lon="10.8599797"><ele>304.0</ele><time>2026-05-02T13:54:40.987Z</time></trkpt><trkpt lat="45.5336399" lon="10.8601273"><ele>304.0</ele><time>2026-05-02T13:54:42.974Z</time></trkpt><trkpt lat="45.5336734" lon="10.8602093"><ele>304.0</ele><time>2026-05-02T13:54:43.979Z</time></trkpt><trkpt lat="45.5337146" lon="10.8602845"><ele>304.0</ele><time>2026-05-02T13:54:44.986Z</time></trkpt><trkpt lat="45.5337604" lon="10.8603591"><ele>304.0</ele><time>2026-05-02T13:54:45.984Z</time></trkpt><trkpt lat="45.5338249" lon="10.8604272"><ele>304.0</ele><time>2026-05-02T13:54:46.969Z</time></trkpt><trkpt lat="45.5339003" lon="10.860494"><ele>304.0</ele><time>2026-05-02T13:54:48.044Z</time></trkpt><trkpt lat="45.5339855" lon="10.8605547"><ele>304.0</ele><time>2026-05-02T13:54:48.976Z</time></trkpt><trkpt lat="45.5340655" lon="10.8606149"><ele>304.0</ele><time>2026-05-02T13:54:49.983Z</time></trkpt><trkpt lat="45.534143" lon="10.8606772"><ele>304.0</ele><time>2026-05-02T13:54:50.981Z</time></trkpt><trkpt lat="45.534228" lon="10.8607368"><ele>304.0</ele><time>2026-05-02T13:54:51.986Z</time></trkpt><trkpt lat="45.5343149" lon="10.8607978"><ele>304.0</ele><time>2026-05-02T13:54:52.986Z</time></trkpt><trkpt lat="45.5344037" lon="10.8608524"><ele>304.0</ele><time>2026-05-02T13:54:53.985Z</time></trkpt><trkpt lat="45.5344943" lon="10.8608892"><ele>304.0</ele><time>2026-05-02T13:54:54.965Z</time></trkpt><trkpt lat="45.5345776" lon="10.8609233"><ele>304.0</ele><time>2026-05-02T13:54:55.969Z</time></trkpt><trkpt lat="45.534662" lon="10.8609571"><ele>302.3333333333333</ele><time>2026-05-02T13:54:56.973Z</time></trkpt><trkpt lat="45.5347495" lon="10.8609862"><ele>300.66666666666663</ele><time>2026-05-02T13:54:57.968Z</time></trkpt><trkpt lat="45.5348362" lon="10.861013"><ele>299.0</ele><time>2026-05-02T13:54:58.961Z</time></trkpt><trkpt lat="45.5349154" lon="10.8610209"><ele>297.3333333333333</ele><time>2026-05-02T13:54:59.966Z</time></trkpt><trkpt lat="45.5349958" lon="10.8610156"><ele>295.6666666666667</ele><time>2026-05-02T13:55:00.997Z</time></trkpt><trkpt lat="45.5350625" lon="10.8610074"><ele>294.0</ele><time>2026-05-02T13:55:01.996Z</time></trkpt><trkpt lat="45.5350112" lon="10.8611053"><ele>294.0</ele><time>2026-05-02T13:55:08.986Z</time></trkpt><trkpt lat="45.5349365" lon="10.8611359"><ele>294.0</ele><time>2026-05-02T13:55:09.971Z</time></trkpt><trkpt lat="45.534858" lon="10.861157"><ele>294.0</ele><time>2026-05-02T13:55:10.979Z</time></trkpt><trkpt lat="45.5347823" lon="10.8611826"><ele>294.0</ele><time>2026-05-02T13:55:11.979Z</time></trkpt><trkpt lat="45.534709" lon="10.861212"><ele>294.0</ele><time>2026-05-02T13:55:12.981Z</time></trkpt><trkpt lat="45.5346244" lon="10.8612278"><ele>294.0</ele><time>2026-05-02T13:55:13.981Z</time></trkpt><trkpt lat="45.5345478" lon="10.8612333"><ele>290.6666666666667</ele><time>2026-05-02T13:55:14.987Z</time></trkpt><trkpt lat="45.5344672" lon="10.8612355"><ele>287.3333333333333</ele><time>2026-05-02T13:55:15.984Z</time></trkpt><trkpt lat="45.534382" lon="10.8612317"><ele>284.0</ele><time>2026-05-02T13:55:16.981Z</time></trkpt><trkpt lat="45.5342961" lon="10.8612348"><ele>280.66666666666663</ele><time>2026-05-02T13:55:17.97Z</time></trkpt><trkpt lat="45.5342094" lon="10.8612374"><ele>277.3333333333333</ele><time>2026-05-02T13:55:18.985Z</time></trkpt><trkpt lat="45.5341242" lon="10.8612325"><ele>274.0</ele><time>2026-05-02T13:55:19.979Z</time></trkpt><trkpt lat="45.5340357" lon="10.861229"><ele>274.0</ele><time>2026-05-02T13:55:20.981Z</time></trkpt><trkpt lat="45.5339488" lon="10.8612146"><ele>274.0</ele><time>2026-05-02T13:55:21.99Z</time></trkpt><trkpt lat="45.5338804" lon="10.8612066"><ele>274.0</ele><time>2026-05-02T13:55:22.983Z</time></trkpt><trkpt lat="45.5338134" lon="10.8612088"><ele>274.0</ele><time>2026-05-02T13:55:24.98Z</time></trkpt><trkpt lat="45.5338482" lon="10.8613065"><ele>274.0</ele><time>2026-05-02T13:55:28.112Z</time></trkpt><trkpt lat="45.5339163" lon="10.8613379"><ele>274.0</ele><time>2026-05-02T13:55:29.984Z</time></trkpt><trkpt lat="45.5340382" lon="10.8613869"><ele>274.0</ele><time>2026-05-02T13:55:31.964Z</time></trkpt><trkpt lat="45.5341628" lon="10.8614089"><ele>274.0</ele><time>2026-05-02T13:55:33.985Z</time></trkpt><trkpt lat="45.534271" lon="10.8614283"><ele>274.0</ele><time>2026-05-02T13:55:35.983Z</time></trkpt><trkpt lat="45.5343325" lon="10.8614695"><ele>274.0</ele><time>2026-05-02T13:55:37.984Z</time></trkpt><trkpt lat="45.5344304" lon="10.8615438"><ele>274.0</ele><time>2026-05-02T13:55:39.985Z</time></trkpt><trkpt lat="45.534554" lon="10.861578"><ele>275.4</ele><time>2026-05-02T13:55:41.974Z</time></trkpt><trkpt lat="45.5346193" lon="10.8615977"><ele>276.79999999999995</ele><time>2026-05-02T13:55:42.974Z</time></trkpt><trkpt lat="45.5346996" lon="10.8616891"><ele>278.20000000000005</ele><time>2026-05-02T13:55:44.973Z</time></trkpt><trkpt lat="45.5347245" lon="10.8618393"><ele>279.6</ele><time>2026-05-02T13:55:46.968Z</time></trkpt><trkpt lat="45.5347083" lon="10.8620134"><ele>281.0</ele><time>2026-05-02T13:55:48.983Z</time></trkpt><trkpt lat="45.5347098" lon="10.8621669"><ele>281.0</ele><time>2026-05-02T13:55:50.975Z</time></trkpt><trkpt lat="45.5347138" lon="10.8623311"><ele>281.0</ele><time>2026-05-02T13:55:52.977Z</time></trkpt><trkpt lat="45.5347369" lon="10.862426"><ele>281.0</ele><time>2026-05-02T13:55:54.976Z</time></trkpt><trkpt lat="45.534671" lon="10.8624287"><ele>281.0</ele><time>2026-05-02T13:55:58.969Z</time></trkpt><trkpt lat="45.5346267" lon="10.8623416"><ele>281.0</ele><time>2026-05-02T13:56:01.981Z</time></trkpt><trkpt lat="45.5345845" lon="10.8624542"><ele>281.0</ele><time>2026-05-02T13:56:06.966Z</time></trkpt><trkpt lat="45.5345852" lon="10.8625863"><ele>278.33333333333337</ele><time>2026-05-02T13:56:08.977Z</time></trkpt><trkpt lat="45.5345784" lon="10.8626903"><ele>275.6666666666667</ele><time>2026-05-02T13:56:14.987Z</time></trkpt><trkpt lat="45.5345038" lon="10.8626386"><ele>273.0</ele><time>2026-05-02T13:56:21.973Z</time></trkpt><trkpt lat="45.5344797" lon="10.8625336"><ele>270.3333333333333</ele><time>2026-05-02T13:56:23.971Z</time></trkpt><trkpt lat="45.5344184" lon="10.8626429"><ele>267.66666666666663</ele><time>2026-05-02T13:56:27.984Z</time></trkpt><trkpt lat="45.5344304" lon="10.8627614"><ele>265.0</ele><time>2026-05-02T13:56:28.978Z</time></trkpt><trkpt lat="45.5344415" lon="10.8628839"><ele>265.0</ele><time>2026-05-02T13:56:29.97Z</time></trkpt><trkpt lat="45.5344758" lon="10.8629939"><ele>265.0</ele><time>2026-05-02T13:56:30.974Z</time></trkpt><trkpt lat="45.5345213" lon="10.8630886"><ele>265.0</ele><time>2026-05-02T13:56:31.98Z</time></trkpt><trkpt lat="45.5345908" lon="10.8631966"><ele>265.0</ele><time>2026-05-02T13:56:32.985Z</time></trkpt><trkpt lat="45.5346806" lon="10.8632957"><ele>265.0</ele><time>2026-05-02T13:56:33.987Z</time></trkpt><trkpt lat="45.5347692" lon="10.8634018"><ele>262.5</ele><time>2026-05-02T13:56:34.987Z</time></trkpt><trkpt lat="45.5348463" lon="10.8635037"><ele>260.0</ele><time>2026-05-02T13:56:35.971Z</time></trkpt><trkpt lat="45.5349163" lon="10.8635912"><ele>257.5</ele><time>2026-05-02T13:56:36.988Z</time></trkpt><trkpt lat="45.5349745" lon="10.8636709"><ele>255.0</ele><time>2026-05-02T13:56:37.99Z</time></trkpt><trkpt lat="45.535039" lon="10.8637697"><ele>252.49999999999997</ele><time>2026-05-02T13:56:39.989Z</time></trkpt><trkpt lat="45.5351043" lon="10.8638249"><ele>250.0</ele><time>2026-05-02T13:56:41.959Z</time></trkpt><trkpt lat="45.5351965" lon="10.863859"><ele>249.99999999999997</ele><time>2026-05-02T13:56:43.984Z</time></trkpt><trkpt lat="45.535268" lon="10.863892"><ele>250.0</ele><time>2026-05-02T13:56:44.976Z</time></trkpt><trkpt lat="45.5353482" lon="10.8639249"><ele>250.0</ele><time>2026-05-02T13:56:45.987Z</time></trkpt><trkpt lat="45.5354306" lon="10.8639493"><ele>250.0</ele><time>2026-05-02T13:56:46.972Z</time></trkpt><trkpt lat="45.5355177" lon="10.8639823"><ele>249.99999999999997</ele><time>2026-05-02T13:56:47.978Z</time></trkpt><trkpt lat="45.535604" lon="10.8640185"><ele>250.0</ele><time>2026-05-02T13:56:48.986Z</time></trkpt><trkpt lat="45.5356841" lon="10.8640519"><ele>252.16666666666666</ele><time>2026-05-02T13:56:49.98Z</time></trkpt><trkpt lat="45.5357558" lon="10.864079"><ele>254.33333333333331</ele><time>2026-05-02T13:56:50.98Z</time></trkpt><trkpt lat="45.5358271" lon="10.8641029"><ele>256.5</ele><time>2026-05-02T13:56:51.985Z</time></trkpt><trkpt lat="45.5358973" lon="10.8641171"><ele>258.6666666666667</ele><time>2026-05-02T13:56:52.99Z</time></trkpt><trkpt lat="45.5359632" lon="10.864117"><ele>260.83333333333337</ele><time>2026-05-02T13:56:53.985Z</time></trkpt><trkpt lat="45.536045" lon="10.8641097"><ele>263.0</ele><time>2026-05-02T13:56:54.985Z</time></trkpt><trkpt lat="45.5361317" lon="10.8641104"><ele>263.0</ele><time>2026-05-02T13:56:55.978Z</time></trkpt><trkpt lat="45.5362056" lon="10.8641393"><ele>263.0</ele><time>2026-05-02T13:56:56.978Z</time></trkpt><trkpt lat="45.5362632" lon="10.8642704"><ele>263.0</ele><time>2026-05-02T13:56:58.987Z</time></trkpt><trkpt lat="45.5362723" lon="10.8643616"><ele>263.0</ele><time>2026-05-02T13:56:59.986Z</time></trkpt><trkpt lat="45.5362557" lon="10.8644674"><ele>263.0</ele><time>2026-05-02T13:57:00.976Z</time></trkpt><trkpt lat="45.536229" lon="10.8645789"><ele>263.0</ele><time>2026-05-02T13:57:01.99Z</time></trkpt><trkpt lat="45.5362056" lon="10.8646787"><ele>262.0</ele><time>2026-05-02T13:57:02.983Z</time></trkpt><trkpt lat="45.5361984" lon="10.8648288"><ele>261.0</ele><time>2026-05-02T13:57:04.984Z</time></trkpt><trkpt lat="45.5362536" lon="10.8649232"><ele>260.0</ele><time>2026-05-02T13:57:06.962Z</time></trkpt><trkpt lat="45.5363255" lon="10.8649942"><ele>259.0</ele><time>2026-05-02T13:57:08.979Z</time></trkpt><trkpt lat="45.5363933" lon="10.8650839"><ele>258.0</ele><time>2026-05-02T13:57:10.962Z</time></trkpt><trkpt lat="45.5364551" lon="10.8651781"><ele>261.6666666666667</ele><time>2026-05-02T13:57:12.972Z</time></trkpt><trkpt lat="45.5364887" lon="10.8653033"><ele>265.3333333333333</ele><time>2026-05-02T13:57:14.984Z</time></trkpt><trkpt lat="45.5365309" lon="10.8653896"><ele>269.0</ele><time>2026-05-02T13:57:16.989Z</time></trkpt><trkpt lat="45.5364978" lon="10.8654707"><ele>272.66666666666663</ele><time>2026-05-02T13:57:21.972Z</time></trkpt><trkpt lat="45.5364307" lon="10.8655025"><ele>276.3333333333333</ele><time>2026-05-02T13:57:24.974Z</time></trkpt><trkpt lat="45.5363466" lon="10.865483"><ele>280.0</ele><time>2026-05-02T13:57:27.959Z</time></trkpt><trkpt lat="45.5362678" lon="10.8654601"><ele>278.57142857142856</ele><time>2026-05-02T13:57:29.985Z</time></trkpt><trkpt lat="45.536203" lon="10.8654449"><ele>277.1428571428571</ele><time>2026-05-02T13:57:30.978Z</time></trkpt><trkpt lat="45.5361222" lon="10.8654275"><ele>275.7142857142857</ele><time>2026-05-02T13:57:31.978Z</time></trkpt><trkpt lat="45.5360421" lon="10.8654177"><ele>274.2857142857143</ele><time>2026-05-02T13:57:32.977Z</time></trkpt><trkpt lat="45.535969" lon="10.8654049"><ele>272.85714285714283</ele><time>2026-05-02T13:57:33.968Z</time></trkpt><trkpt lat="45.5358974" lon="10.8653797"><ele>271.42857142857144</ele><time>2026-05-02T13:57:34.974Z</time></trkpt><trkpt lat="45.535828" lon="10.8653741"><ele>270.0</ele><time>2026-05-02T13:57:35.98Z</time></trkpt><trkpt lat="45.5357525" lon="10.8653728"><ele>270.0</ele><time>2026-05-02T13:57:36.98Z</time></trkpt><trkpt lat="45.5356746" lon="10.8653654"><ele>270.0</ele><time>2026-05-02T13:57:37.985Z</time></trkpt><trkpt lat="45.5355858" lon="10.86537"><ele>270.0</ele><time>2026-05-02T13:57:38.979Z</time></trkpt><trkpt lat="45.5355001" lon="10.8653723"><ele>270.0</ele><time>2026-05-02T13:57:39.976Z</time></trkpt><trkpt lat="45.5354139" lon="10.8653716"><ele>270.0</ele><time>2026-05-02T13:57:40.977Z</time></trkpt><trkpt lat="45.5353308" lon="10.8653752"><ele>270.0</ele><time>2026-05-02T13:57:41.976Z</time></trkpt><trkpt lat="45.5352372" lon="10.8653699"><ele>267.6666666666667</ele><time>2026-05-02T13:57:42.978Z</time></trkpt><trkpt lat="45.5351469" lon="10.8653638"><ele>265.3333333333333</ele><time>2026-05-02T13:57:43.981Z</time></trkpt><trkpt lat="45.5350538" lon="10.8653706"><ele>263.0</ele><time>2026-05-02T13:57:44.977Z</time></trkpt><trkpt lat="45.5349672" lon="10.8653678"><ele>260.66666666666663</ele><time>2026-05-02T13:57:45.978Z</time></trkpt><trkpt lat="45.5348858" lon="10.8653607"><ele>258.3333333333333</ele><time>2026-05-02T13:57:46.974Z</time></trkpt><trkpt lat="45.5347952" lon="10.8653586"><ele>256.0</ele><time>2026-05-02T13:57:47.98Z</time></trkpt><trkpt lat="45.5347104" lon="10.8653529"><ele>255.99999999999997</ele><time>2026-05-02T13:57:48.983Z</time></trkpt><trkpt lat="45.5346239" lon="10.8653522"><ele>256.0</ele><time>2026-05-02T13:57:49.985Z</time></trkpt><trkpt lat="45.5345402" lon="10.8653459"><ele>256.0</ele><time>2026-05-02T13:57:50.986Z</time></trkpt><trkpt lat="45.5344577" lon="10.8653454"><ele>256.0</ele><time>2026-05-02T13:57:51.992Z</time></trkpt><trkpt lat="45.5343657" lon="10.8653398"><ele>255.99999999999997</ele><time>2026-05-02T13:57:52.975Z</time></trkpt><trkpt lat="45.5342714" lon="10.8653299"><ele>256.0</ele><time>2026-05-02T13:57:53.965Z</time></trkpt><trkpt lat="45.5341775" lon="10.8653173"><ele>253.4</ele><time>2026-05-02T13:57:54.98Z</time></trkpt><trkpt lat="45.5340836" lon="10.8652866"><ele>250.8</ele><time>2026-05-02T13:57:55.983Z</time></trkpt><trkpt lat="45.5339939" lon="10.8652373"><ele>248.20000000000002</ele><time>2026-05-02T13:57:56.982Z</time></trkpt><trkpt lat="45.5338983" lon="10.8652004"><ele>245.60000000000002</ele><time>2026-05-02T13:57:57.991Z</time></trkpt><trkpt lat="45.5338081" lon="10.8651919"><ele>243.0</ele><time>2026-05-02T13:57:58.981Z</time></trkpt><trkpt lat="45.5337157" lon="10.8651981"><ele>240.5</ele><time>2026-05-02T13:57:59.995Z</time></trkpt><trkpt lat="45.5336229" lon="10.865189"><ele>238.0</ele><time>2026-05-02T13:58:00.981Z</time></trkpt><trkpt lat="45.5335389" lon="10.8651713"><ele>235.5</ele><time>2026-05-02T13:58:01.976Z</time></trkpt><trkpt lat="45.5334514" lon="10.86516"><ele>233.0</ele><time>2026-05-02T13:58:02.986Z</time></trkpt><trkpt lat="45.5333635" lon="10.865146"><ele>230.5</ele><time>2026-05-02T13:58:03.985Z</time></trkpt><trkpt lat="45.533286" lon="10.865133"><ele>228.0</ele><time>2026-05-02T13:58:04.981Z</time></trkpt><trkpt lat="45.5332209" lon="10.8651365"><ele>228.0</ele><time>2026-05-02T13:58:05.983Z</time></trkpt><trkpt lat="45.5331657" lon="10.8652083"><ele>228.0</ele><time>2026-05-02T13:58:07.982Z</time></trkpt><trkpt lat="45.533211" lon="10.8653273"><ele>228.0</ele><time>2026-05-02T13:58:10.978Z</time></trkpt><trkpt lat="45.5333038" lon="10.8654094"><ele>228.0</ele><time>2026-05-02T13:58:12.982Z</time></trkpt><trkpt lat="45.5334005" lon="10.865505"><ele>228.0</ele><time>2026-05-02T13:58:14.989Z</time></trkpt><trkpt lat="45.5334573" lon="10.8655454"><ele>228.0</ele><time>2026-05-02T13:58:15.988Z</time></trkpt><trkpt lat="45.5335542" lon="10.8656249"><ele>228.0</ele><time>2026-05-02T13:58:17.977Z</time></trkpt><trkpt lat="45.5336605" lon="10.8657181"><ele>228.0</ele><time>2026-05-02T13:58:19.974Z</time></trkpt><trkpt lat="45.5337168" lon="10.865773"><ele>228.0</ele><time>2026-05-02T13:58:20.988Z</time></trkpt><trkpt lat="45.5337759" lon="10.8658342"><ele>228.0</ele><time>2026-05-02T13:58:21.996Z</time></trkpt><trkpt lat="45.5338308" lon="10.8658925"><ele>228.0</ele><time>2026-05-02T13:58:22.993Z</time></trkpt><trkpt lat="45.5338829" lon="10.8659545"><ele>230.42857142857142</ele><time>2026-05-02T13:58:23.975Z</time></trkpt><trkpt lat="45.5339313" lon="10.8660226"><ele>232.85714285714283</ele><time>2026-05-02T13:58:24.979Z</time></trkpt><trkpt lat="45.5339843" lon="10.8660919"><ele>235.28571428571428</ele><time>2026-05-02T13:58:25.987Z</time></trkpt><trkpt lat="45.5340407" lon="10.8661632"><ele>237.71428571428572</ele><time>2026-05-02T13:58:26.983Z</time></trkpt><trkpt lat="45.5340949" lon="10.8662396"><ele>240.14285714285714</ele><time>2026-05-02T13:58:27.98Z</time></trkpt><trkpt lat="45.5341564" lon="10.8663134"><ele>242.57142857142856</ele><time>2026-05-02T13:58:28.98Z</time></trkpt><trkpt lat="45.5342126" lon="10.8663864"><ele>245.0</ele><time>2026-05-02T13:58:29.992Z</time></trkpt><trkpt lat="45.5342581" lon="10.8664601"><ele>245.00000000000003</ele><time>2026-05-02T13:58:30.98Z</time></trkpt><trkpt lat="45.5342795" lon="10.8665533"><ele>245.0</ele><time>2026-05-02T13:58:31.978Z</time></trkpt><trkpt lat="45.5342592" lon="10.8666563"><ele>245.0</ele><time>2026-05-02T13:58:32.986Z</time></trkpt><trkpt lat="45.5342076" lon="10.8667327"><ele>245.0</ele><time>2026-05-02T13:58:33.976Z</time></trkpt><trkpt lat="45.5341418" lon="10.8667972"><ele>245.00000000000003</ele><time>2026-05-02T13:58:34.977Z</time></trkpt><trkpt lat="45.5340721" lon="10.8668495"><ele>245.0</ele><time>2026-05-02T13:58:35.982Z</time></trkpt><trkpt lat="45.534005" lon="10.8669"><ele>244.42857142857144</ele><time>2026-05-02T13:58:36.968Z</time></trkpt><trkpt lat="45.5339408" lon="10.8669472"><ele>243.85714285714286</ele><time>2026-05-02T13:58:37.957Z</time></trkpt><trkpt lat="45.5338809" lon="10.8670097"><ele>243.28571428571428</ele><time>2026-05-02T13:58:38.968Z</time></trkpt><trkpt lat="45.5338266" lon="10.8670738"><ele>242.71428571428572</ele><time>2026-05-02T13:58:39.981Z</time></trkpt><trkpt lat="45.5337787" lon="10.8671555"><ele>242.14285714285717</ele><time>2026-05-02T13:58:40.977Z</time></trkpt><trkpt lat="45.5337448" lon="10.8672416"><ele>241.57142857142858</ele><time>2026-05-02T13:58:41.976Z</time></trkpt><trkpt lat="45.5337147" lon="10.8673322"><ele>241.0</ele><time>2026-05-02T13:58:42.994Z</time></trkpt><trkpt lat="45.5336619" lon="10.8674618"><ele>240.99999999999997</ele><time>2026-05-02T13:58:44.993Z</time></trkpt><trkpt lat="45.5336436" lon="10.8675887"><ele>241.0</ele><time>2026-05-02T13:58:46.982Z</time></trkpt><trkpt lat="45.533643" lon="10.8677545"><ele>241.0</ele><time>2026-05-02T13:58:48.987Z</time></trkpt><trkpt lat="45.5336451" lon="10.8678505"><ele>241.0</ele><time>2026-05-02T13:58:49.992Z</time></trkpt><trkpt lat="45.5336508" lon="10.8679496"><ele>240.99999999999997</ele><time>2026-05-02T13:58:50.971Z</time></trkpt><trkpt lat="45.5336529" lon="10.8680632"><ele>241.0</ele><time>2026-05-02T13:58:51.982Z</time></trkpt><trkpt lat="45.5336583" lon="10.8681731"><ele>241.33333333333331</ele><time>2026-05-02T13:58:52.994Z</time></trkpt><trkpt lat="45.533664" lon="10.8682686"><ele>241.66666666666666</ele><time>2026-05-02T13:58:53.991Z</time></trkpt><trkpt lat="45.5336737" lon="10.8683622"><ele>242.0</ele><time>2026-05-02T13:58:54.99Z</time></trkpt><trkpt lat="45.5336999" lon="10.8685255"><ele>242.33333333333331</ele><time>2026-05-02T13:58:56.994Z</time></trkpt><trkpt lat="45.5337417" lon="10.868654"><ele>242.66666666666666</ele><time>2026-05-02T13:58:58.981Z</time></trkpt><trkpt lat="45.5337922" lon="10.8687423"><ele>243.0</ele><time>2026-05-02T13:59:00.981Z</time></trkpt><trkpt lat="45.5337976" lon="10.8688493"><ele>243.0</ele><time>2026-05-02T13:59:03.975Z</time></trkpt><trkpt lat="45.5337202" lon="10.8689266"><ele>243.0</ele><time>2026-05-02T13:59:05.987Z</time></trkpt><trkpt lat="45.5336436" lon="10.8690123"><ele>243.0</ele><time>2026-05-02T13:59:07.982Z</time></trkpt><trkpt lat="45.533565" lon="10.86912"><ele>243.0</ele><time>2026-05-02T13:59:09.985Z</time></trkpt><trkpt lat="45.5334793" lon="10.8692417"><ele>243.0</ele><time>2026-05-02T13:59:11.988Z</time></trkpt><trkpt lat="45.5333959" lon="10.8693676"><ele>242.60000000000002</ele><time>2026-05-02T13:59:13.985Z</time></trkpt><trkpt lat="45.5333494" lon="10.8694384"><ele>242.20000000000002</ele><time>2026-05-02T13:59:14.988Z</time></trkpt><trkpt lat="45.5333067" lon="10.8695121"><ele>241.8</ele><time>2026-05-02T13:59:15.986Z</time></trkpt><trkpt lat="45.5332394" lon="10.8696401"><ele>241.4</ele><time>2026-05-02T13:59:17.985Z</time></trkpt><trkpt lat="45.533181" lon="10.8697683"><ele>241.0</ele><time>2026-05-02T13:59:19.984Z</time></trkpt><trkpt lat="45.533135" lon="10.8699255"><ele>241.0</ele><time>2026-05-02T13:59:21.99Z</time></trkpt><trkpt lat="45.5330934" lon="10.8700633"><ele>241.00000000000003</ele><time>2026-05-02T13:59:23.969Z</time></trkpt><trkpt lat="45.5330425" lon="10.8701978"><ele>241.00000000000003</ele><time>2026-05-02T13:59:25.971Z</time></trkpt><trkpt lat="45.5329654" lon="10.8703351"><ele>241.0</ele><time>2026-05-02T13:59:27.99Z</time></trkpt><trkpt lat="45.5329251" lon="10.8704067"><ele>241.0</ele><time>2026-05-02T13:59:28.988Z</time></trkpt><trkpt lat="45.5328747" lon="10.870478"><ele>239.85714285714286</ele><time>2026-05-02T13:59:29.985Z</time></trkpt><trkpt lat="45.5328161" lon="10.8705459"><ele>238.71428571428572</ele><time>2026-05-02T13:59:30.978Z</time></trkpt><trkpt lat="45.5327576" lon="10.870619"><ele>237.57142857142858</ele><time>2026-05-02T13:59:31.986Z</time></trkpt><trkpt lat="45.5327" lon="10.8706927"><ele>236.42857142857144</ele><time>2026-05-02T13:59:32.978Z</time></trkpt><trkpt lat="45.5326479" lon="10.870761"><ele>235.28571428571428</ele><time>2026-05-02T13:59:33.984Z</time></trkpt><trkpt lat="45.5326035" lon="10.8708278"><ele>234.14285714285717</ele><time>2026-05-02T13:59:34.977Z</time></trkpt><trkpt lat="45.532552" lon="10.8708888"><ele>233.0</ele><time>2026-05-02T13:59:35.984Z</time></trkpt><trkpt lat="45.5324989" lon="10.8710165"><ele>230.5</ele><time>2026-05-02T13:59:37.984Z</time></trkpt><trkpt lat="45.5325551" lon="10.871149"><ele>228.0</ele><time>2026-05-02T13:59:39.979Z</time></trkpt><trkpt lat="45.5326621" lon="10.8712273"><ele>225.5</ele><time>2026-05-02T13:59:41.981Z</time></trkpt><trkpt lat="45.5327843" lon="10.8712641"><ele>223.0</ele><time>2026-05-02T13:59:43.982Z</time></trkpt><trkpt lat="45.5328937" lon="10.871298"><ele>222.60000000000002</ele><time>2026-05-02T13:59:45.974Z</time></trkpt><trkpt lat="45.5329988" lon="10.8713277"><ele>222.20000000000002</ele><time>2026-05-02T13:59:47.984Z</time></trkpt><trkpt lat="45.5330727" lon="10.8713289"><ele>221.8</ele><time>2026-05-02T13:59:49.993Z</time></trkpt><trkpt lat="45.5331517" lon="10.87137"><ele>221.4</ele><time>2026-05-02T13:59:52.985Z</time></trkpt><trkpt lat="45.5332126" lon="10.8714548"><ele>221.0</ele><time>2026-05-02T13:59:54.979Z</time></trkpt><trkpt lat="45.5332631" lon="10.8716083"><ele>221.0</ele><time>2026-05-02T13:59:56.971Z</time></trkpt><trkpt lat="45.5332878" lon="10.8717608"><ele>221.00000000000003</ele><time>2026-05-02T13:59:58.991Z</time></trkpt><trkpt lat="45.5332984" lon="10.871921"><ele>221.00000000000003</ele><time>2026-05-02T14:00:00.978Z</time></trkpt><trkpt lat="45.533293" lon="10.87202"><ele>221.0</ele><time>2026-05-02T14:00:01.972Z</time></trkpt><trkpt lat="45.5332995" lon="10.8721677"><ele>221.0</ele><time>2026-05-02T14:00:03.99Z</time></trkpt><trkpt lat="45.533365" lon="10.8721659"><ele>221.00000000000003</ele><time>2026-05-02T14:00:06.983Z</time></trkpt><trkpt lat="45.5334315" lon="10.8720729"><ele>221.0</ele><time>2026-05-02T14:00:09.99Z</time></trkpt><trkpt lat="45.5334786" lon="10.8720125"><ele>221.0</ele><time>2026-05-02T14:00:11.988Z</time></trkpt><trkpt lat="45.5335281" lon="10.8719171"><ele>221.0</ele><time>2026-05-02T14:00:13.968Z</time></trkpt><trkpt lat="45.5335819" lon="10.8718281"><ele>221.00000000000003</ele><time>2026-05-02T14:00:15.975Z</time></trkpt><trkpt lat="45.5336404" lon="10.8717441"><ele>221.0</ele><time>2026-05-02T14:00:17.973Z</time></trkpt><trkpt lat="45.5336977" lon="10.8716653"><ele>219.50000000000003</ele><time>2026-05-02T14:00:19.982Z</time></trkpt><trkpt lat="45.5337582" lon="10.8715957"><ele>218.0</ele><time>2026-05-02T14:00:21.989Z</time></trkpt><trkpt lat="45.5338065" lon="10.8715358"><ele>216.5</ele><time>2026-05-02T14:00:23.987Z</time></trkpt><trkpt lat="45.5338816" lon="10.8715328"><ele>215.0</ele><time>2026-05-02T14:00:26.98Z</time></trkpt><trkpt lat="45.5339494" lon="10.8715499"><ele>213.50000000000003</ele><time>2026-05-02T14:00:28.987Z</time></trkpt><trkpt lat="45.5340175" lon="10.8715397"><ele>212.0</ele><time>2026-05-02T14:00:30.986Z</time></trkpt><trkpt lat="45.5341147" lon="10.8714602"><ele>212.00000000000003</ele><time>2026-05-02T14:00:32.982Z</time></trkpt><trkpt lat="45.5342238" lon="10.8713794"><ele>212.0</ele><time>2026-05-02T14:00:34.984Z</time></trkpt><trkpt lat="45.5342798" lon="10.8713132"><ele>212.0</ele><time>2026-05-02T14:00:35.988Z</time></trkpt><trkpt lat="45.5343293" lon="10.8712417"><ele>212.0</ele><time>2026-05-02T14:00:36.996Z</time></trkpt><trkpt lat="45.5343662" lon="10.8711661"><ele>212.00000000000003</ele><time>2026-05-02T14:00:37.981Z</time></trkpt><trkpt lat="45.5344031" lon="10.8710308"><ele>212.0</ele><time>2026-05-02T14:00:39.988Z</time></trkpt><trkpt lat="45.5344285" lon="10.8708934"><ele>213.66666666666669</ele><time>2026-05-02T14:00:41.985Z</time></trkpt><trkpt lat="45.5344497" lon="10.8707448"><ele>215.33333333333334</ele><time>2026-05-02T14:00:43.98Z</time></trkpt><trkpt lat="45.5344784" lon="10.8706009"><ele>217.0</ele><time>2026-05-02T14:00:45.979Z</time></trkpt><trkpt lat="45.5345371" lon="10.870532"><ele>218.66666666666669</ele><time>2026-05-02T14:00:47.986Z</time></trkpt><trkpt lat="45.5345972" lon="10.8705773"><ele>220.33333333333334</ele><time>2026-05-02T14:00:49.988Z</time></trkpt><trkpt lat="45.5346472" lon="10.8706729"><ele>222.0</ele><time>2026-05-02T14:00:51.985Z</time></trkpt><trkpt lat="45.5346922" lon="10.8708107"><ele>222.0</ele><time>2026-05-02T14:00:53.976Z</time></trkpt><trkpt lat="45.5347276" lon="10.8708884"><ele>222.0</ele><time>2026-05-02T14:00:54.962Z</time></trkpt><trkpt lat="45.534763" lon="10.8709749"><ele>222.0</ele><time>2026-05-02T14:00:55.978Z</time></trkpt><trkpt lat="45.5347985" lon="10.871072"><ele>222.0</ele><time>2026-05-02T14:00:56.982Z</time></trkpt><trkpt lat="45.534833" lon="10.8711704"><ele>222.0</ele><time>2026-05-02T14:00:57.983Z</time></trkpt><trkpt lat="45.5348673" lon="10.871274"><ele>222.0</ele><time>2026-05-02T14:00:58.964Z</time></trkpt><trkpt lat="45.534907" lon="10.8713807"><ele>218.8</ele><time>2026-05-02T14:00:59.99Z</time></trkpt><trkpt lat="45.5349512" lon="10.871492"><ele>215.6</ele><time>2026-05-02T14:01:00.983Z</time></trkpt><trkpt lat="45.5349934" lon="10.8716027"><ele>212.4</ele><time>2026-05-02T14:01:01.986Z</time></trkpt><trkpt lat="45.5350286" lon="10.8717208"><ele>209.20000000000002</ele><time>2026-05-02T14:01:02.975Z</time></trkpt><trkpt lat="45.5350607" lon="10.8718498"><ele>206.0</ele><time>2026-05-02T14:01:03.982Z</time></trkpt><trkpt lat="45.5350914" lon="10.8719717"><ele>204.16666666666669</ele><time>2026-05-02T14:01:04.98Z</time></trkpt><trkpt lat="45.5351246" lon="10.8720907"><ele>202.33333333333334</ele><time>2026-05-02T14:01:05.981Z</time></trkpt><trkpt lat="45.5351605" lon="10.8722171"><ele>200.5</ele><time>2026-05-02T14:01:06.972Z</time></trkpt><trkpt lat="45.535185" lon="10.872341"><ele>198.66666666666669</ele><time>2026-05-02T14:01:07.985Z</time></trkpt><trkpt lat="45.5352125" lon="10.8724629"><ele>196.83333333333334</ele><time>2026-05-02T14:01:08.989Z</time></trkpt><trkpt lat="45.5352372" lon="10.8725732"><ele>195.0</ele><time>2026-05-02T14:01:09.988Z</time></trkpt><trkpt lat="45.5352606" lon="10.8726771"><ele>194.83333333333334</ele><time>2026-05-02T14:01:10.988Z</time></trkpt><trkpt lat="45.5352855" lon="10.8727758"><ele>194.66666666666669</ele><time>2026-05-02T14:01:11.99Z</time></trkpt><trkpt lat="45.535323" lon="10.8728792"><ele>194.5</ele><time>2026-05-02T14:01:12.983Z</time></trkpt><trkpt lat="45.5353581" lon="10.872989"><ele>194.33333333333334</ele><time>2026-05-02T14:01:13.974Z</time></trkpt><trkpt lat="45.5353993" lon="10.873085"><ele>194.16666666666669</ele><time>2026-05-02T14:01:14.969Z</time></trkpt><trkpt lat="45.5354436" lon="10.8731927"><ele>194.0</ele><time>2026-05-02T14:01:15.989Z</time></trkpt><trkpt lat="45.5354895" lon="10.8733024"><ele>194.00000000000003</ele><time>2026-05-02T14:01:16.999Z</time></trkpt><trkpt lat="45.5355417" lon="10.8734025"><ele>194.0</ele><time>2026-05-02T14:01:17.994Z</time></trkpt><trkpt lat="45.5355956" lon="10.8734894"><ele>194.0</ele><time>2026-05-02T14:01:18.985Z</time></trkpt><trkpt lat="45.5356576" lon="10.8735758"><ele>194.0</ele><time>2026-05-02T14:01:19.981Z</time></trkpt><trkpt lat="45.5357177" lon="10.8736582"><ele>194.00000000000003</ele><time>2026-05-02T14:01:20.982Z</time></trkpt><trkpt lat="45.5357788" lon="10.8737427"><ele>194.0</ele><time>2026-05-02T14:01:21.982Z</time></trkpt><trkpt lat="45.5358386" lon="10.8738088"><ele>193.0</ele><time>2026-05-02T14:01:22.981Z</time></trkpt><trkpt lat="45.5359109" lon="10.8739214"><ele>192.0</ele><time>2026-05-02T14:01:24.99Z</time></trkpt><trkpt lat="45.5359594" lon="10.8740053"><ele>191.0</ele><time>2026-05-02T14:01:26.977Z</time></trkpt><trkpt lat="45.5360676" lon="10.8740955"><ele>190.0</ele><time>2026-05-02T14:01:28.984Z</time></trkpt><trkpt lat="45.536133" lon="10.8741535"><ele>189.0</ele><time>2026-05-02T14:01:29.992Z</time></trkpt><trkpt lat="45.5362095" lon="10.8742196"><ele>187.6</ele><time>2026-05-02T14:01:30.986Z</time></trkpt><trkpt lat="45.5362965" lon="10.8742985"><ele>186.2</ele><time>2026-05-02T14:01:31.988Z</time></trkpt><trkpt lat="45.536375" lon="10.8743761"><ele>184.79999999999998</ele><time>2026-05-02T14:01:32.985Z</time></trkpt><trkpt lat="45.5364589" lon="10.8744593"><ele>183.39999999999998</ele><time>2026-05-02T14:01:33.962Z</time></trkpt><trkpt lat="45.5365332" lon="10.8745357"><ele>182.0</ele><time>2026-05-02T14:01:34.986Z</time></trkpt><trkpt lat="45.5366154" lon="10.8746134"><ele>182.0</ele><time>2026-05-02T14:01:35.979Z</time></trkpt><trkpt lat="45.5366956" lon="10.8746912"><ele>182.0</ele><time>2026-05-02T14:01:36.985Z</time></trkpt><trkpt lat="45.5367719" lon="10.8747725"><ele>182.0</ele><time>2026-05-02T14:01:37.983Z</time></trkpt><trkpt lat="45.5368473" lon="10.8748471"><ele>182.0</ele><time>2026-05-02T14:01:38.989Z</time></trkpt><trkpt lat="45.5369293" lon="10.8749209"><ele>182.0</ele><time>2026-05-02T14:01:39.981Z</time></trkpt><trkpt lat="45.5370152" lon="10.8750039"><ele>182.0</ele><time>2026-05-02T14:01:40.978Z</time></trkpt><trkpt lat="45.5370998" lon="10.8750879"><ele>182.0</ele><time>2026-05-02T14:01:41.985Z</time></trkpt><trkpt lat="45.5371885" lon="10.875175"><ele>182.0</ele><time>2026-05-02T14:01:42.98Z</time></trkpt><trkpt lat="45.5372721" lon="10.875261"><ele>182.0</ele><time>2026-05-02T14:01:43.983Z</time></trkpt><trkpt lat="45.5373511" lon="10.8753422"><ele>182.0</ele><time>2026-05-02T14:01:44.984Z</time></trkpt><trkpt lat="45.5374338" lon="10.87541"><ele>182.0</ele><time>2026-05-02T14:01:45.986Z</time></trkpt><trkpt lat="45.5375163" lon="10.8754899"><ele>182.0</ele><time>2026-05-02T14:01:46.985Z</time></trkpt><trkpt lat="45.5376027" lon="10.8755742"><ele>182.0</ele><time>2026-05-02T14:01:47.982Z</time></trkpt><trkpt lat="45.5376931" lon="10.8756533"><ele>182.0</ele><time>2026-05-02T14:01:48.982Z</time></trkpt><trkpt lat="45.5377766" lon="10.875733"><ele>182.0</ele><time>2026-05-02T14:01:49.981Z</time></trkpt><trkpt lat="45.5378541" lon="10.8758147"><ele>182.0</ele><time>2026-05-02T14:01:50.987Z</time></trkpt><trkpt lat="45.5379327" lon="10.8759168"><ele>182.0</ele><time>2026-05-02T14:01:51.973Z</time></trkpt><trkpt lat="45.5380316" lon="10.8760486"><ele>182.0</ele><time>2026-05-02T14:01:52.983Z</time></trkpt><trkpt lat="45.5381363" lon="10.8761914"><ele>182.0</ele><time>2026-05-02T14:01:53.978Z</time></trkpt><trkpt lat="45.5382291" lon="10.87632"><ele>182.0</ele><time>2026-05-02T14:01:54.965Z</time></trkpt><trkpt lat="45.5383175" lon="10.8764468"><ele>182.0</ele><time>2026-05-02T14:01:55.976Z</time></trkpt><trkpt lat="45.5384005" lon="10.8765523"><ele>182.0</ele><time>2026-05-02T14:01:56.987Z</time></trkpt><trkpt lat="45.5384822" lon="10.8766585"><ele>182.0</ele><time>2026-05-02T14:01:57.986Z</time></trkpt><trkpt lat="45.5385665" lon="10.8767577"><ele>181.6</ele><time>2026-05-02T14:01:58.982Z</time></trkpt><trkpt lat="45.5386507" lon="10.8768642"><ele>181.2</ele><time>2026-05-02T14:01:59.976Z</time></trkpt><trkpt lat="45.5387419" lon="10.8769626"><ele>180.8</ele><time>2026-05-02T14:02:00.981Z</time></trkpt><trkpt lat="45.538829" lon="10.8770569"><ele>180.4</ele><time>2026-05-02T14:02:01.982Z</time></trkpt><trkpt lat="45.5389117" lon="10.8771486"><ele>180.0</ele><time>2026-05-02T14:02:02.993Z</time></trkpt><trkpt lat="45.5389878" lon="10.8772397"><ele>181.2</ele><time>2026-05-02T14:02:03.985Z</time></trkpt><trkpt lat="45.5390736" lon="10.877333"><ele>182.4</ele><time>2026-05-02T14:02:04.989Z</time></trkpt><trkpt lat="45.5391561" lon="10.8774273"><ele>183.60000000000002</ele><time>2026-05-02T14:02:05.987Z</time></trkpt><trkpt lat="45.5392333" lon="10.8775087"><ele>184.8</ele><time>2026-05-02T14:02:06.98Z</time></trkpt><trkpt lat="45.5393079" lon="10.8775795"><ele>186.0</ele><time>2026-05-02T14:02:07.98Z</time></trkpt><trkpt lat="45.5393826" lon="10.877657"><ele>186.0</ele><time>2026-05-02T14:02:08.991Z</time></trkpt><trkpt lat="45.5394515" lon="10.8777291"><ele>186.0</ele><time>2026-05-02T14:02:09.986Z</time></trkpt><trkpt lat="45.5395235" lon="10.8777853"><ele>186.0</ele><time>2026-05-02T14:02:10.987Z</time></trkpt><trkpt lat="45.5395935" lon="10.8778313"><ele>186.0</ele><time>2026-05-02T14:02:11.969Z</time></trkpt><trkpt lat="45.5396635" lon="10.8778489"><ele>186.0</ele><time>2026-05-02T14:02:12.992Z</time></trkpt><trkpt lat="45.5397755" lon="10.8778354"><ele>186.0</ele><time>2026-05-02T14:02:14.985Z</time></trkpt><trkpt lat="45.5398473" lon="10.8778287"><ele>187.0</ele><time>2026-05-02T14:02:16.985Z</time></trkpt><trkpt lat="45.5399052" lon="10.8779115"><ele>188.0</ele><time>2026-05-02T14:02:19.967Z</time></trkpt><trkpt lat="45.5399292" lon="10.8780235"><ele>189.0</ele><time>2026-05-02T14:02:21.983Z</time></trkpt><trkpt lat="45.5399347" lon="10.8781757"><ele>190.0</ele><time>2026-05-02T14:02:23.991Z</time></trkpt><trkpt lat="45.5399203" lon="10.8782828"><ele>191.0</ele><time>2026-05-02T14:02:24.987Z</time></trkpt><trkpt lat="45.5398991" lon="10.8783892"><ele>192.0</ele><time>2026-05-02T14:02:25.977Z</time></trkpt><trkpt lat="45.5398789" lon="10.878511"><ele>192.0</ele><time>2026-05-02T14:02:26.978Z</time></trkpt><trkpt lat="45.5398657" lon="10.8786375"><ele>192.0</ele><time>2026-05-02T14:02:27.986Z</time></trkpt><trkpt lat="45.5398453" lon="10.8787637"><ele>192.0</ele><time>2026-05-02T14:02:28.994Z</time></trkpt><trkpt lat="45.5398244" lon="10.8788845"><ele>192.0</ele><time>2026-05-02T14:02:29.99Z</time></trkpt><trkpt lat="45.5397985" lon="10.8790051"><ele>192.0</ele><time>2026-05-02T14:02:30.994Z</time></trkpt><trkpt lat="45.5397756" lon="10.8791169"><ele>192.0</ele><time>2026-05-02T14:02:31.987Z</time></trkpt><trkpt lat="45.5397965" lon="10.8792362"><ele>191.6</ele><time>2026-05-02T14:02:32.989Z</time></trkpt><trkpt lat="45.5398682" lon="10.8793304"><ele>191.2</ele><time>2026-05-02T14:02:33.991Z</time></trkpt><trkpt lat="45.5399512" lon="10.8793942"><ele>190.8</ele><time>2026-05-02T14:02:34.984Z</time></trkpt><trkpt lat="45.5400398" lon="10.8794682"><ele>190.4</ele><time>2026-05-02T14:02:35.977Z</time></trkpt><trkpt lat="45.5401212" lon="10.8795474"><ele>190.0</ele><time>2026-05-02T14:02:36.986Z</time></trkpt><trkpt lat="45.5402108" lon="10.8796324"><ele>190.0</ele><time>2026-05-02T14:02:37.98Z</time></trkpt><trkpt lat="45.5403032" lon="10.8796983"><ele>190.0</ele><time>2026-05-02T14:02:38.983Z</time></trkpt><trkpt lat="45.5404022" lon="10.8797574"><ele>190.0</ele><time>2026-05-02T14:02:39.98Z</time></trkpt><trkpt lat="45.5404894" lon="10.8798244"><ele>190.0</ele><time>2026-05-02T14:02:40.987Z</time></trkpt><trkpt lat="45.5405891" lon="10.879888"><ele>190.0</ele><time>2026-05-02T14:02:41.99Z</time></trkpt><trkpt lat="45.5406844" lon="10.8799537"><ele>190.4</ele><time>2026-05-02T14:02:42.979Z</time></trkpt><trkpt lat="45.5407783" lon="10.8800222"><ele>190.8</ele><time>2026-05-02T14:02:43.981Z</time></trkpt><trkpt lat="45.5408742" lon="10.8800797"><ele>191.2</ele><time>2026-05-02T14:02:44.995Z</time></trkpt><trkpt lat="45.5409698" lon="10.8801334"><ele>191.6</ele><time>2026-05-02T14:02:45.991Z</time></trkpt><trkpt lat="45.5410705" lon="10.8801917"><ele>192.0</ele><time>2026-05-02T14:02:46.994Z</time></trkpt><trkpt lat="45.5411736" lon="10.8802446"><ele>192.6</ele><time>2026-05-02T14:02:47.988Z</time></trkpt><trkpt lat="45.5412702" lon="10.8803021"><ele>193.2</ele><time>2026-05-02T14:02:48.988Z</time></trkpt><trkpt lat="45.5413619" lon="10.8803726"><ele>193.8</ele><time>2026-05-02T14:02:49.982Z</time></trkpt><trkpt lat="45.5414454" lon="10.8804627"><ele>194.4</ele><time>2026-05-02T14:02:50.986Z</time></trkpt><trkpt lat="45.5415299" lon="10.880555"><ele>195.0</ele><time>2026-05-02T14:02:51.983Z</time></trkpt><trkpt lat="45.5416126" lon="10.880642"><ele>195.0</ele><time>2026-05-02T14:02:52.99Z</time></trkpt><trkpt lat="45.5416871" lon="10.8807276"><ele>195.0</ele><time>2026-05-02T14:02:53.989Z</time></trkpt><trkpt lat="45.5417606" lon="10.880813"><ele>195.0</ele><time>2026-05-02T14:02:54.988Z</time></trkpt><trkpt lat="45.5418356" lon="10.8808914"><ele>195.0</ele><time>2026-05-02T14:02:55.981Z</time></trkpt><trkpt lat="45.5419102" lon="10.8809728"><ele>195.0</ele><time>2026-05-02T14:02:56.986Z</time></trkpt><trkpt lat="45.541984" lon="10.8810506"><ele>195.6</ele><time>2026-05-02T14:02:57.979Z</time></trkpt><trkpt lat="45.5420651" lon="10.8811284"><ele>196.2</ele><time>2026-05-02T14:02:58.987Z</time></trkpt><trkpt lat="45.5421431" lon="10.8812096"><ele>196.8</ele><time>2026-05-02T14:02:59.987Z</time></trkpt><trkpt lat="45.5422296" lon="10.8812942"><ele>197.4</ele><time>2026-05-02T14:03:00.985Z</time></trkpt><trkpt lat="45.5423124" lon="10.8813793"><ele>198.0</ele><time>2026-05-02T14:03:01.99Z</time></trkpt><trkpt lat="45.5423936" lon="10.8814654"><ele>198.0</ele><time>2026-05-02T14:03:03.016Z</time></trkpt><trkpt lat="45.5424676" lon="10.8815347"><ele>198.0</ele><time>2026-05-02T14:03:03.987Z</time></trkpt><trkpt lat="45.5425479" lon="10.8816065"><ele>198.0</ele><time>2026-05-02T14:03:04.982Z</time></trkpt><trkpt lat="45.5426169" lon="10.8816727"><ele>198.0</ele><time>2026-05-02T14:03:05.977Z</time></trkpt><trkpt lat="45.5426795" lon="10.8817393"><ele>198.0</ele><time>2026-05-02T14:03:06.965Z</time></trkpt><trkpt lat="45.5427368" lon="10.8818056"><ele>198.0</ele><time>2026-05-02T14:03:07.979Z</time></trkpt><trkpt lat="45.5427916" lon="10.8818579"><ele>198.0</ele><time>2026-05-02T14:03:08.963Z</time></trkpt><trkpt lat="45.5428507" lon="10.8819111"><ele>198.0</ele><time>2026-05-02T14:03:09.957Z</time></trkpt><trkpt lat="45.5429215" lon="10.8819611"><ele>198.0</ele><time>2026-05-02T14:03:10.984Z</time></trkpt><trkpt lat="45.5429895" lon="10.8820153"><ele>198.0</ele><time>2026-05-02T14:03:11.979Z</time></trkpt><trkpt lat="45.5430583" lon="10.8820722"><ele>198.0</ele><time>2026-05-02T14:03:12.979Z</time></trkpt><trkpt lat="45.5431219" lon="10.8821381"><ele>198.0</ele><time>2026-05-02T14:03:13.979Z</time></trkpt><trkpt lat="45.5431704" lon="10.8822146"><ele>198.0</ele><time>2026-05-02T14:03:14.975Z</time></trkpt><trkpt lat="45.5431871" lon="10.8823306"><ele>198.0</ele><time>2026-05-02T14:03:15.981Z</time></trkpt><trkpt lat="45.54318" lon="10.8824436"><ele>198.0</ele><time>2026-05-02T14:03:16.984Z</time></trkpt><trkpt lat="45.5431759" lon="10.8825538"><ele>198.0</ele><time>2026-05-02T14:03:17.985Z</time></trkpt><trkpt lat="45.543175" lon="10.8826573"><ele>198.0</ele><time>2026-05-02T14:03:18.982Z</time></trkpt><trkpt lat="45.543178" lon="10.8827678"><ele>198.0</ele><time>2026-05-02T14:03:19.976Z</time></trkpt><trkpt lat="45.5431779" lon="10.8828767"><ele>197.33333333333334</ele><time>2026-05-02T14:03:20.979Z</time></trkpt><trkpt lat="45.5431736" lon="10.8829885"><ele>196.66666666666669</ele><time>2026-05-02T14:03:21.97Z</time></trkpt><trkpt lat="45.5431685" lon="10.8831045"><ele>196.0</ele><time>2026-05-02T14:03:22.979Z</time></trkpt><trkpt lat="45.5431622" lon="10.8832182"><ele>195.33333333333334</ele><time>2026-05-02T14:03:23.981Z</time></trkpt><trkpt lat="45.5431648" lon="10.8833274"><ele>194.66666666666669</ele><time>2026-05-02T14:03:24.993Z</time></trkpt><trkpt lat="45.5431788" lon="10.8834235"><ele>194.0</ele><time>2026-05-02T14:03:25.971Z</time></trkpt><trkpt lat="45.5431928" lon="10.8835196"><ele>193.33333333333334</ele><time>2026-05-02T14:03:26.984Z</time></trkpt><trkpt lat="45.5431994" lon="10.8836189"><ele>192.66666666666669</ele><time>2026-05-02T14:03:27.984Z</time></trkpt><trkpt lat="45.5432043" lon="10.8837241"><ele>192.0</ele><time>2026-05-02T14:03:28.98Z</time></trkpt><trkpt lat="45.5432006" lon="10.8838369"><ele>191.33333333333334</ele><time>2026-05-02T14:03:29.983Z</time></trkpt><trkpt lat="45.5431937" lon="10.8839605"><ele>190.66666666666669</ele><time>2026-05-02T14:03:30.975Z</time></trkpt><trkpt lat="45.5431834" lon="10.8840875"><ele>190.0</ele><time>2026-05-02T14:03:31.99Z</time></trkpt><trkpt lat="45.5431756" lon="10.8842163"><ele>189.5</ele><time>2026-05-02T14:03:32.989Z</time></trkpt><trkpt lat="45.5431749" lon="10.8843404"><ele>189.0</ele><time>2026-05-02T14:03:33.99Z</time></trkpt><trkpt lat="45.5431765" lon="10.8844614"><ele>188.5</ele><time>2026-05-02T14:03:34.973Z</time></trkpt><trkpt lat="45.5431778" lon="10.8845805"><ele>188.0</ele><time>2026-05-02T14:03:35.989Z</time></trkpt><trkpt lat="45.5431825" lon="10.8846909"><ele>187.5</ele><time>2026-05-02T14:03:36.994Z</time></trkpt><trkpt lat="45.5431922" lon="10.8847997"><ele>187.0</ele><time>2026-05-02T14:03:37.986Z</time></trkpt><trkpt lat="45.5431963" lon="10.8848932"><ele>187.0</ele><time>2026-05-02T14:03:38.998Z</time></trkpt><trkpt lat="45.5431978" lon="10.8849967"><ele>187.0</ele><time>2026-05-02T14:03:39.988Z</time></trkpt><trkpt lat="45.5432026" lon="10.88509"><ele>187.0</ele><time>2026-05-02T14:03:40.987Z</time></trkpt><trkpt lat="45.54321" lon="10.8851797"><ele>187.0</ele><time>2026-05-02T14:03:41.988Z</time></trkpt><trkpt lat="45.5432228" lon="10.8853355"><ele>187.0</ele><time>2026-05-02T14:03:43.989Z</time></trkpt><trkpt lat="45.5432573" lon="10.88545"><ele>187.0</ele><time>2026-05-02T14:03:45.994Z</time></trkpt><trkpt lat="45.5433419" lon="10.8854735"><ele>185.0</ele><time>2026-05-02T14:03:47.978Z</time></trkpt><trkpt lat="45.5434172" lon="10.8854223"><ele>185.0</ele><time>2026-05-02T14:03:49.989Z</time></trkpt><trkpt lat="45.5434812" lon="10.8853899"><ele>185.0</ele><time>2026-05-02T14:04:02.987Z</time></trkpt></trkseg></trk></gpx>